<?xml version="1.0" encoding="UTF-8" standalone="no" ?>
<gpx xmlns="http://www.topografix.com/GPX/1/1" xmlns:xsi="http://www.w3.org/2001/XMLSchema-instance" xsi:schemaLocation="http://www.topografix.com/GPX/1/1 http://www.topografix.com/GPX/1/1/gpx.xsd" version="1.1" creator="VisuGPX - https://www.visugpx.com">
  <metadata>
    <name>Jusqu'à la nuit dans la forêt de Meudon</name>
  </metadata>
  <trk>
    <name><![CDATA[Jusqu'à la nuit dans la forêt de Meudon_1]]></name>
    <trkseg>
      <trkpt lat="48.79943" lon="2.21936">
        <ele>183</ele>
        <time>2020-12-05T14:04:21.095Z</time>
      </trkpt>
      <trkpt lat="48.79945" lon="2.21938">
        <ele>183</ele>
        <time>2020-12-05T14:04:22.094Z</time>
      </trkpt>
      <trkpt lat="48.79946" lon="2.21944">
        <ele>183</ele>
        <time>2020-12-05T14:04:23.094Z</time>
      </trkpt>
      <trkpt lat="48.79946" lon="2.21947">
        <ele>183</ele>
        <time>2020-12-05T14:04:24.094Z</time>
      </trkpt>
      <trkpt lat="48.79947" lon="2.21949">
        <ele>183</ele>
        <time>2020-12-05T14:04:25.094Z</time>
      </trkpt>
      <trkpt lat="48.79948" lon="2.2195">
        <ele>182</ele>
        <time>2020-12-05T14:04:26.094Z</time>
      </trkpt>
      <trkpt lat="48.79948" lon="2.2195">
        <ele>182</ele>
        <time>2020-12-05T14:04:27.094Z</time>
      </trkpt>
      <trkpt lat="48.7995" lon="2.21951">
        <ele>182</ele>
        <time>2020-12-05T14:04:28.094Z</time>
      </trkpt>
      <trkpt lat="48.79952" lon="2.21951">
        <ele>182</ele>
        <time>2020-12-05T14:04:29.094Z</time>
      </trkpt>
      <trkpt lat="48.79954" lon="2.21951">
        <ele>182</ele>
        <time>2020-12-05T14:04:30.094Z</time>
      </trkpt>
      <trkpt lat="48.79956" lon="2.21952">
        <ele>181</ele>
        <time>2020-12-05T14:04:31.095Z</time>
      </trkpt>
      <trkpt lat="48.79958" lon="2.21952">
        <ele>181</ele>
        <time>2020-12-05T14:04:32.095Z</time>
      </trkpt>
      <trkpt lat="48.7996" lon="2.21952">
        <ele>181</ele>
        <time>2020-12-05T14:04:33.095Z</time>
      </trkpt>
      <trkpt lat="48.79961" lon="2.21951">
        <ele>181</ele>
        <time>2020-12-05T14:04:34.095Z</time>
      </trkpt>
      <trkpt lat="48.79961" lon="2.21951">
        <ele>181</ele>
        <time>2020-12-05T14:04:35.095Z</time>
      </trkpt>
      <trkpt lat="48.79962" lon="2.21951">
        <ele>181</ele>
        <time>2020-12-05T14:04:36.094Z</time>
      </trkpt>
      <trkpt lat="48.79963" lon="2.21951">
        <ele>182</ele>
        <time>2020-12-05T14:04:37.095Z</time>
      </trkpt>
      <trkpt lat="48.79963" lon="2.2195">
        <ele>182</ele>
        <time>2020-12-05T14:04:38.095Z</time>
      </trkpt>
      <trkpt lat="48.79964" lon="2.2195">
        <ele>182</ele>
        <time>2020-12-05T14:04:39.094Z</time>
      </trkpt>
      <trkpt lat="48.79964" lon="2.21949">
        <ele>182</ele>
        <time>2020-12-05T14:04:40.095Z</time>
      </trkpt>
      <trkpt lat="48.79965" lon="2.21949">
        <ele>183</ele>
        <time>2020-12-05T14:04:41.095Z</time>
      </trkpt>
      <trkpt lat="48.79967" lon="2.21949">
        <ele>183</ele>
        <time>2020-12-05T14:04:42.095Z</time>
      </trkpt>
      <trkpt lat="48.79968" lon="2.2195">
        <ele>183</ele>
        <time>2020-12-05T14:04:43.095Z</time>
      </trkpt>
      <trkpt lat="48.7997" lon="2.2195">
        <ele>183</ele>
        <time>2020-12-05T14:04:44.095Z</time>
      </trkpt>
      <trkpt lat="48.79971" lon="2.21951">
        <ele>184</ele>
        <time>2020-12-05T14:04:45.095Z</time>
      </trkpt>
      <trkpt lat="48.79971" lon="2.2195">
        <ele>184</ele>
        <time>2020-12-05T14:04:46.095Z</time>
      </trkpt>
      <trkpt lat="48.79971" lon="2.2195">
        <ele>185</ele>
        <time>2020-12-05T14:04:47.095Z</time>
      </trkpt>
      <trkpt lat="48.79972" lon="2.21951">
        <ele>185</ele>
        <time>2020-12-05T14:04:48.095Z</time>
      </trkpt>
      <trkpt lat="48.79973" lon="2.21951">
        <ele>185</ele>
        <time>2020-12-05T14:04:49.095Z</time>
      </trkpt>
      <trkpt lat="48.79974" lon="2.21951">
        <ele>185</ele>
        <time>2020-12-05T14:04:50.094Z</time>
      </trkpt>
      <trkpt lat="48.79974" lon="2.21951">
        <ele>186</ele>
        <time>2020-12-05T14:04:51.095Z</time>
      </trkpt>
      <trkpt lat="48.79975" lon="2.21952">
        <ele>186</ele>
        <time>2020-12-05T14:04:52.095Z</time>
      </trkpt>
      <trkpt lat="48.79975" lon="2.21952">
        <ele>186</ele>
        <time>2020-12-05T14:04:53.095Z</time>
      </trkpt>
      <trkpt lat="48.79977" lon="2.21955">
        <ele>187</ele>
        <time>2020-12-05T14:04:54.095Z</time>
      </trkpt>
      <trkpt lat="48.79978" lon="2.21957">
        <ele>187</ele>
        <time>2020-12-05T14:04:55.095Z</time>
      </trkpt>
      <trkpt lat="48.7998" lon="2.2196">
        <ele>187</ele>
        <time>2020-12-05T14:04:56.095Z</time>
      </trkpt>
      <trkpt lat="48.79981" lon="2.21962">
        <ele>187</ele>
        <time>2020-12-05T14:04:57.095Z</time>
      </trkpt>
      <trkpt lat="48.79982" lon="2.21963">
        <ele>187</ele>
        <time>2020-12-05T14:04:58.095Z</time>
      </trkpt>
      <trkpt lat="48.79982" lon="2.21964">
        <ele>188</ele>
        <time>2020-12-05T14:04:59.095Z</time>
      </trkpt>
      <trkpt lat="48.79982" lon="2.21965">
        <ele>188</ele>
        <time>2020-12-05T14:05:00.095Z</time>
      </trkpt>
      <trkpt lat="48.79981" lon="2.21965">
        <ele>188</ele>
        <time>2020-12-05T14:05:01.095Z</time>
      </trkpt>
      <trkpt lat="48.7998" lon="2.21967">
        <ele>188</ele>
        <time>2020-12-05T14:05:02.095Z</time>
      </trkpt>
      <trkpt lat="48.7998" lon="2.21968">
        <ele>188</ele>
        <time>2020-12-05T14:05:03.095Z</time>
      </trkpt>
      <trkpt lat="48.7998" lon="2.21969">
        <ele>188</ele>
        <time>2020-12-05T14:05:04.094Z</time>
      </trkpt>
      <trkpt lat="48.7998" lon="2.2197">
        <ele>189</ele>
        <time>2020-12-05T14:05:05.095Z</time>
      </trkpt>
      <trkpt lat="48.7998" lon="2.2197">
        <ele>189</ele>
        <time>2020-12-05T14:05:06.095Z</time>
      </trkpt>
      <trkpt lat="48.7998" lon="2.21971">
        <ele>189</ele>
        <time>2020-12-05T14:05:07.095Z</time>
      </trkpt>
      <trkpt lat="48.79981" lon="2.21972">
        <ele>190</ele>
        <time>2020-12-05T14:05:08.095Z</time>
      </trkpt>
      <trkpt lat="48.79983" lon="2.21973">
        <ele>190</ele>
        <time>2020-12-05T14:05:09.095Z</time>
      </trkpt>
      <trkpt lat="48.79984" lon="2.21974">
        <ele>190</ele>
        <time>2020-12-05T14:05:10.094Z</time>
      </trkpt>
      <trkpt lat="48.79985" lon="2.21974">
        <ele>191</ele>
        <time>2020-12-05T14:05:11.095Z</time>
      </trkpt>
      <trkpt lat="48.79985" lon="2.21974">
        <ele>191</ele>
        <time>2020-12-05T14:05:12.095Z</time>
      </trkpt>
      <trkpt lat="48.79987" lon="2.21973">
        <ele>191</ele>
        <time>2020-12-05T14:05:13.095Z</time>
      </trkpt>
      <trkpt lat="48.79988" lon="2.21972">
        <ele>192</ele>
        <time>2020-12-05T14:05:14.094Z</time>
      </trkpt>
      <trkpt lat="48.79989" lon="2.21972">
        <ele>192</ele>
        <time>2020-12-05T14:05:15.094Z</time>
      </trkpt>
      <trkpt lat="48.7999" lon="2.21973">
        <ele>192</ele>
        <time>2020-12-05T14:05:16.094Z</time>
      </trkpt>
      <trkpt lat="48.79991" lon="2.21973">
        <ele>193</ele>
        <time>2020-12-05T14:05:17.095Z</time>
      </trkpt>
      <trkpt lat="48.79992" lon="2.21973">
        <ele>193</ele>
        <time>2020-12-05T14:05:18.095Z</time>
      </trkpt>
      <trkpt lat="48.79993" lon="2.21974">
        <ele>194</ele>
        <time>2020-12-05T14:05:19.095Z</time>
      </trkpt>
      <trkpt lat="48.79993" lon="2.21975">
        <ele>195</ele>
        <time>2020-12-05T14:05:20.095Z</time>
      </trkpt>
      <trkpt lat="48.79994" lon="2.21976">
        <ele>195</ele>
        <time>2020-12-05T14:05:21.095Z</time>
      </trkpt>
      <trkpt lat="48.79994" lon="2.21978">
        <ele>195</ele>
        <time>2020-12-05T14:05:22.095Z</time>
      </trkpt>
      <trkpt lat="48.79994" lon="2.21981">
        <ele>195</ele>
        <time>2020-12-05T14:05:23.094Z</time>
      </trkpt>
      <trkpt lat="48.79993" lon="2.21983">
        <ele>196</ele>
        <time>2020-12-05T14:05:24.095Z</time>
      </trkpt>
      <trkpt lat="48.79993" lon="2.21985">
        <ele>196</ele>
        <time>2020-12-05T14:05:25.095Z</time>
      </trkpt>
      <trkpt lat="48.79993" lon="2.21986">
        <ele>196</ele>
        <time>2020-12-05T14:05:26.095Z</time>
      </trkpt>
      <trkpt lat="48.79994" lon="2.21987">
        <ele>195</ele>
        <time>2020-12-05T14:05:27.094Z</time>
      </trkpt>
      <trkpt lat="48.79995" lon="2.21989">
        <ele>195</ele>
        <time>2020-12-05T14:05:28.094Z</time>
      </trkpt>
      <trkpt lat="48.79995" lon="2.2199">
        <ele>195</ele>
        <time>2020-12-05T14:05:29.094Z</time>
      </trkpt>
      <trkpt lat="48.79996" lon="2.21992">
        <ele>194</ele>
        <time>2020-12-05T14:05:30.094Z</time>
      </trkpt>
      <trkpt lat="48.79996" lon="2.21994">
        <ele>194</ele>
        <time>2020-12-05T14:05:31.095Z</time>
      </trkpt>
      <trkpt lat="48.79996" lon="2.21995">
        <ele>194</ele>
        <time>2020-12-05T14:05:32.095Z</time>
      </trkpt>
      <trkpt lat="48.79995" lon="2.21997">
        <ele>193</ele>
        <time>2020-12-05T14:05:33.095Z</time>
      </trkpt>
      <trkpt lat="48.79995" lon="2.21998">
        <ele>193</ele>
        <time>2020-12-05T14:05:34.095Z</time>
      </trkpt>
      <trkpt lat="48.79995" lon="2.22">
        <ele>192</ele>
        <time>2020-12-05T14:05:35.095Z</time>
      </trkpt>
      <trkpt lat="48.79995" lon="2.22">
        <ele>192</ele>
        <time>2020-12-05T14:05:36.095Z</time>
      </trkpt>
      <trkpt lat="48.79994" lon="2.22001">
        <ele>191</ele>
        <time>2020-12-05T14:05:37.095Z</time>
      </trkpt>
      <trkpt lat="48.79994" lon="2.22002">
        <ele>191</ele>
        <time>2020-12-05T14:05:38.095Z</time>
      </trkpt>
      <trkpt lat="48.79994" lon="2.22003">
        <ele>191</ele>
        <time>2020-12-05T14:05:39.095Z</time>
      </trkpt>
      <trkpt lat="48.79994" lon="2.22004">
        <ele>190</ele>
        <time>2020-12-05T14:05:40.095Z</time>
      </trkpt>
      <trkpt lat="48.79994" lon="2.22005">
        <ele>190</ele>
        <time>2020-12-05T14:05:41.095Z</time>
      </trkpt>
      <trkpt lat="48.79993" lon="2.22006">
        <ele>189</ele>
        <time>2020-12-05T14:05:42.094Z</time>
      </trkpt>
      <trkpt lat="48.79993" lon="2.22008">
        <ele>189</ele>
        <time>2020-12-05T14:05:43.095Z</time>
      </trkpt>
      <trkpt lat="48.79992" lon="2.22009">
        <ele>189</ele>
        <time>2020-12-05T14:05:44.095Z</time>
      </trkpt>
      <trkpt lat="48.79992" lon="2.22011">
        <ele>188</ele>
        <time>2020-12-05T14:05:45.095Z</time>
      </trkpt>
      <trkpt lat="48.79992" lon="2.22013">
        <ele>188</ele>
        <time>2020-12-05T14:05:46.095Z</time>
      </trkpt>
      <trkpt lat="48.79992" lon="2.22016">
        <ele>187</ele>
        <time>2020-12-05T14:05:47.095Z</time>
      </trkpt>
      <trkpt lat="48.79993" lon="2.22018">
        <ele>187</ele>
        <time>2020-12-05T14:05:48.095Z</time>
      </trkpt>
      <trkpt lat="48.79994" lon="2.2202">
        <ele>187</ele>
        <time>2020-12-05T14:05:49.095Z</time>
      </trkpt>
      <trkpt lat="48.79994" lon="2.22022">
        <ele>186</ele>
        <time>2020-12-05T14:05:50.095Z</time>
      </trkpt>
      <trkpt lat="48.79994" lon="2.22025">
        <ele>186</ele>
        <time>2020-12-05T14:05:51.094Z</time>
      </trkpt>
      <trkpt lat="48.79993" lon="2.22028">
        <ele>186</ele>
        <time>2020-12-05T14:05:52.094Z</time>
      </trkpt>
      <trkpt lat="48.79992" lon="2.22032">
        <ele>186</ele>
        <time>2020-12-05T14:05:53.095Z</time>
      </trkpt>
      <trkpt lat="48.79993" lon="2.22034">
        <ele>185</ele>
        <time>2020-12-05T14:05:54.095Z</time>
      </trkpt>
      <trkpt lat="48.79993" lon="2.22037">
        <ele>185</ele>
        <time>2020-12-05T14:05:55.095Z</time>
      </trkpt>
      <trkpt lat="48.79994" lon="2.2204">
        <ele>185</ele>
        <time>2020-12-05T14:05:56.095Z</time>
      </trkpt>
      <trkpt lat="48.79993" lon="2.22043">
        <ele>185</ele>
        <time>2020-12-05T14:05:57.095Z</time>
      </trkpt>
      <trkpt lat="48.79993" lon="2.22046">
        <ele>185</ele>
        <time>2020-12-05T14:05:58.095Z</time>
      </trkpt>
      <trkpt lat="48.79993" lon="2.22049">
        <ele>185</ele>
        <time>2020-12-05T14:05:59.095Z</time>
      </trkpt>
      <trkpt lat="48.79993" lon="2.22052">
        <ele>185</ele>
        <time>2020-12-05T14:06:00.095Z</time>
      </trkpt>
      <trkpt lat="48.79993" lon="2.22054">
        <ele>185</ele>
        <time>2020-12-05T14:06:01.095Z</time>
      </trkpt>
      <trkpt lat="48.79993" lon="2.22057">
        <ele>185</ele>
        <time>2020-12-05T14:06:02.095Z</time>
      </trkpt>
      <trkpt lat="48.79993" lon="2.22059">
        <ele>185</ele>
        <time>2020-12-05T14:06:03.095Z</time>
      </trkpt>
      <trkpt lat="48.79994" lon="2.22061">
        <ele>185</ele>
        <time>2020-12-05T14:06:04.095Z</time>
      </trkpt>
      <trkpt lat="48.79993" lon="2.22064">
        <ele>186</ele>
        <time>2020-12-05T14:06:05.095Z</time>
      </trkpt>
      <trkpt lat="48.79993" lon="2.22065">
        <ele>186</ele>
        <time>2020-12-05T14:06:06.095Z</time>
      </trkpt>
      <trkpt lat="48.79993" lon="2.22067">
        <ele>186</ele>
        <time>2020-12-05T14:06:07.094Z</time>
      </trkpt>
      <trkpt lat="48.79992" lon="2.22069">
        <ele>186</ele>
        <time>2020-12-05T14:06:08.095Z</time>
      </trkpt>
      <trkpt lat="48.79991" lon="2.22071">
        <ele>186</ele>
        <time>2020-12-05T14:06:09.095Z</time>
      </trkpt>
      <trkpt lat="48.79991" lon="2.22073">
        <ele>186</ele>
        <time>2020-12-05T14:06:10.095Z</time>
      </trkpt>
      <trkpt lat="48.7999" lon="2.22076">
        <ele>186</ele>
        <time>2020-12-05T14:06:11.094Z</time>
      </trkpt>
      <trkpt lat="48.7999" lon="2.22078">
        <ele>186</ele>
        <time>2020-12-05T14:06:12.095Z</time>
      </trkpt>
      <trkpt lat="48.7999" lon="2.2208">
        <ele>186</ele>
        <time>2020-12-05T14:06:13.095Z</time>
      </trkpt>
      <trkpt lat="48.7999" lon="2.22082">
        <ele>186</ele>
        <time>2020-12-05T14:06:14.094Z</time>
      </trkpt>
      <trkpt lat="48.7999" lon="2.22084">
        <ele>186</ele>
        <time>2020-12-05T14:06:15.094Z</time>
      </trkpt>
      <trkpt lat="48.7999" lon="2.22086">
        <ele>186</ele>
        <time>2020-12-05T14:06:16.094Z</time>
      </trkpt>
      <trkpt lat="48.7999" lon="2.22088">
        <ele>186</ele>
        <time>2020-12-05T14:06:17.094Z</time>
      </trkpt>
      <trkpt lat="48.7999" lon="2.2209">
        <ele>187</ele>
        <time>2020-12-05T14:06:18.095Z</time>
      </trkpt>
      <trkpt lat="48.79989" lon="2.22091">
        <ele>187</ele>
        <time>2020-12-05T14:06:19.095Z</time>
      </trkpt>
      <trkpt lat="48.79989" lon="2.22093">
        <ele>187</ele>
        <time>2020-12-05T14:06:20.094Z</time>
      </trkpt>
      <trkpt lat="48.79989" lon="2.22095">
        <ele>187</ele>
        <time>2020-12-05T14:06:21.095Z</time>
      </trkpt>
      <trkpt lat="48.7999" lon="2.22097">
        <ele>187</ele>
        <time>2020-12-05T14:06:22.095Z</time>
      </trkpt>
      <trkpt lat="48.79991" lon="2.221">
        <ele>187</ele>
        <time>2020-12-05T14:06:23.095Z</time>
      </trkpt>
      <trkpt lat="48.79992" lon="2.22102">
        <ele>187</ele>
        <time>2020-12-05T14:06:24.095Z</time>
      </trkpt>
      <trkpt lat="48.79993" lon="2.22105">
        <ele>187</ele>
        <time>2020-12-05T14:06:25.095Z</time>
      </trkpt>
      <trkpt lat="48.79993" lon="2.22108">
        <ele>187</ele>
        <time>2020-12-05T14:06:26.095Z</time>
      </trkpt>
      <trkpt lat="48.79993" lon="2.22111">
        <ele>188</ele>
        <time>2020-12-05T14:06:27.095Z</time>
      </trkpt>
      <trkpt lat="48.79993" lon="2.22113">
        <ele>188</ele>
        <time>2020-12-05T14:06:28.094Z</time>
      </trkpt>
      <trkpt lat="48.79993" lon="2.22115">
        <ele>188</ele>
        <time>2020-12-05T14:06:29.095Z</time>
      </trkpt>
      <trkpt lat="48.79993" lon="2.22117">
        <ele>188</ele>
        <time>2020-12-05T14:06:30.095Z</time>
      </trkpt>
      <trkpt lat="48.79993" lon="2.22119">
        <ele>189</ele>
        <time>2020-12-05T14:06:31.095Z</time>
      </trkpt>
      <trkpt lat="48.79993" lon="2.22121">
        <ele>189</ele>
        <time>2020-12-05T14:06:32.095Z</time>
      </trkpt>
      <trkpt lat="48.79993" lon="2.22123">
        <ele>189</ele>
        <time>2020-12-05T14:06:33.095Z</time>
      </trkpt>
      <trkpt lat="48.79993" lon="2.22126">
        <ele>189</ele>
        <time>2020-12-05T14:06:34.095Z</time>
      </trkpt>
      <trkpt lat="48.79993" lon="2.22128">
        <ele>189</ele>
        <time>2020-12-05T14:06:35.094Z</time>
      </trkpt>
      <trkpt lat="48.79993" lon="2.2213">
        <ele>189</ele>
        <time>2020-12-05T14:06:36.094Z</time>
      </trkpt>
      <trkpt lat="48.79993" lon="2.22133">
        <ele>189</ele>
        <time>2020-12-05T14:06:37.095Z</time>
      </trkpt>
      <trkpt lat="48.79992" lon="2.22135">
        <ele>189</ele>
        <time>2020-12-05T14:06:38.094Z</time>
      </trkpt>
      <trkpt lat="48.79992" lon="2.22136">
        <ele>189</ele>
        <time>2020-12-05T14:06:39.095Z</time>
      </trkpt>
      <trkpt lat="48.79993" lon="2.22138">
        <ele>189</ele>
        <time>2020-12-05T14:06:40.095Z</time>
      </trkpt>
      <trkpt lat="48.79993" lon="2.2214">
        <ele>189</ele>
        <time>2020-12-05T14:06:41.094Z</time>
      </trkpt>
      <trkpt lat="48.79993" lon="2.22142">
        <ele>189</ele>
        <time>2020-12-05T14:06:42.094Z</time>
      </trkpt>
      <trkpt lat="48.79993" lon="2.22144">
        <ele>189</ele>
        <time>2020-12-05T14:06:43.094Z</time>
      </trkpt>
      <trkpt lat="48.79994" lon="2.22147">
        <ele>189</ele>
        <time>2020-12-05T14:06:44.094Z</time>
      </trkpt>
      <trkpt lat="48.79995" lon="2.22149">
        <ele>189</ele>
        <time>2020-12-05T14:06:45.095Z</time>
      </trkpt>
      <trkpt lat="48.79996" lon="2.22151">
        <ele>190</ele>
        <time>2020-12-05T14:06:46.095Z</time>
      </trkpt>
      <trkpt lat="48.79996" lon="2.22153">
        <ele>190</ele>
        <time>2020-12-05T14:06:47.095Z</time>
      </trkpt>
      <trkpt lat="48.79996" lon="2.22154">
        <ele>190</ele>
        <time>2020-12-05T14:06:48.095Z</time>
      </trkpt>
      <trkpt lat="48.79995" lon="2.22156">
        <ele>190</ele>
        <time>2020-12-05T14:06:49.095Z</time>
      </trkpt>
      <trkpt lat="48.79993" lon="2.22157">
        <ele>190</ele>
        <time>2020-12-05T14:06:50.094Z</time>
      </trkpt>
      <trkpt lat="48.79991" lon="2.22159">
        <ele>190</ele>
        <time>2020-12-05T14:06:51.095Z</time>
      </trkpt>
      <trkpt lat="48.7999" lon="2.22161">
        <ele>190</ele>
        <time>2020-12-05T14:06:52.095Z</time>
      </trkpt>
      <trkpt lat="48.7999" lon="2.22162">
        <ele>190</ele>
        <time>2020-12-05T14:06:53.095Z</time>
      </trkpt>
      <trkpt lat="48.7999" lon="2.22163">
        <ele>190</ele>
        <time>2020-12-05T14:06:54.095Z</time>
      </trkpt>
      <trkpt lat="48.7999" lon="2.22164">
        <ele>190</ele>
        <time>2020-12-05T14:06:55.095Z</time>
      </trkpt>
      <trkpt lat="48.7999" lon="2.22165">
        <ele>190</ele>
        <time>2020-12-05T14:06:56.094Z</time>
      </trkpt>
      <trkpt lat="48.7999" lon="2.22166">
        <ele>190</ele>
        <time>2020-12-05T14:06:57.095Z</time>
      </trkpt>
      <trkpt lat="48.79989" lon="2.22168">
        <ele>189</ele>
        <time>2020-12-05T14:06:58.095Z</time>
      </trkpt>
      <trkpt lat="48.79988" lon="2.2217">
        <ele>189</ele>
        <time>2020-12-05T14:06:59.095Z</time>
      </trkpt>
      <trkpt lat="48.79988" lon="2.22173">
        <ele>189</ele>
        <time>2020-12-05T14:07:00.095Z</time>
      </trkpt>
      <trkpt lat="48.79987" lon="2.22175">
        <ele>188</ele>
        <time>2020-12-05T14:07:01.095Z</time>
      </trkpt>
      <trkpt lat="48.79986" lon="2.22177">
        <ele>188</ele>
        <time>2020-12-05T14:07:02.094Z</time>
      </trkpt>
      <trkpt lat="48.79986" lon="2.22179">
        <ele>187</ele>
        <time>2020-12-05T14:07:03.094Z</time>
      </trkpt>
      <trkpt lat="48.79986" lon="2.2218">
        <ele>187</ele>
        <time>2020-12-05T14:07:04.094Z</time>
      </trkpt>
      <trkpt lat="48.79985" lon="2.22181">
        <ele>187</ele>
        <time>2020-12-05T14:07:05.095Z</time>
      </trkpt>
      <trkpt lat="48.79985" lon="2.22183">
        <ele>186</ele>
        <time>2020-12-05T14:07:06.095Z</time>
      </trkpt>
      <trkpt lat="48.79985" lon="2.22184">
        <ele>186</ele>
        <time>2020-12-05T14:07:07.095Z</time>
      </trkpt>
      <trkpt lat="48.79985" lon="2.22186">
        <ele>186</ele>
        <time>2020-12-05T14:07:08.095Z</time>
      </trkpt>
      <trkpt lat="48.79984" lon="2.22188">
        <ele>185</ele>
        <time>2020-12-05T14:07:09.094Z</time>
      </trkpt>
      <trkpt lat="48.79983" lon="2.2219">
        <ele>185</ele>
        <time>2020-12-05T14:07:10.095Z</time>
      </trkpt>
      <trkpt lat="48.79983" lon="2.22191">
        <ele>185</ele>
        <time>2020-12-05T14:07:11.095Z</time>
      </trkpt>
      <trkpt lat="48.79982" lon="2.22193">
        <ele>184</ele>
        <time>2020-12-05T14:07:12.095Z</time>
      </trkpt>
      <trkpt lat="48.79981" lon="2.22195">
        <ele>184</ele>
        <time>2020-12-05T14:07:13.095Z</time>
      </trkpt>
      <trkpt lat="48.79981" lon="2.22198">
        <ele>183</ele>
        <time>2020-12-05T14:07:14.094Z</time>
      </trkpt>
      <trkpt lat="48.7998" lon="2.22201">
        <ele>183</ele>
        <time>2020-12-05T14:07:15.095Z</time>
      </trkpt>
      <trkpt lat="48.79979" lon="2.22204">
        <ele>183</ele>
        <time>2020-12-05T14:07:16.094Z</time>
      </trkpt>
      <trkpt lat="48.79979" lon="2.22206">
        <ele>182</ele>
        <time>2020-12-05T14:07:17.094Z</time>
      </trkpt>
      <trkpt lat="48.79979" lon="2.22208">
        <ele>182</ele>
        <time>2020-12-05T14:07:18.095Z</time>
      </trkpt>
      <trkpt lat="48.7998" lon="2.22209">
        <ele>182</ele>
        <time>2020-12-05T14:07:19.095Z</time>
      </trkpt>
      <trkpt lat="48.7998" lon="2.22212">
        <ele>182</ele>
        <time>2020-12-05T14:07:20.094Z</time>
      </trkpt>
      <trkpt lat="48.79981" lon="2.22214">
        <ele>182</ele>
        <time>2020-12-05T14:07:21.095Z</time>
      </trkpt>
      <trkpt lat="48.79981" lon="2.22215">
        <ele>182</ele>
        <time>2020-12-05T14:07:22.095Z</time>
      </trkpt>
      <trkpt lat="48.79982" lon="2.22216">
        <ele>182</ele>
        <time>2020-12-05T14:07:23.095Z</time>
      </trkpt>
      <trkpt lat="48.79982" lon="2.22218">
        <ele>182</ele>
        <time>2020-12-05T14:07:24.094Z</time>
      </trkpt>
      <trkpt lat="48.79982" lon="2.22219">
        <ele>181</ele>
        <time>2020-12-05T14:07:25.094Z</time>
      </trkpt>
      <trkpt lat="48.79981" lon="2.22221">
        <ele>181</ele>
        <time>2020-12-05T14:07:26.095Z</time>
      </trkpt>
      <trkpt lat="48.7998" lon="2.22222">
        <ele>181</ele>
        <time>2020-12-05T14:07:27.095Z</time>
      </trkpt>
      <trkpt lat="48.7998" lon="2.22223">
        <ele>180</ele>
        <time>2020-12-05T14:07:28.095Z</time>
      </trkpt>
      <trkpt lat="48.79979" lon="2.22224">
        <ele>180</ele>
        <time>2020-12-05T14:07:29.094Z</time>
      </trkpt>
      <trkpt lat="48.79979" lon="2.22224">
        <ele>180</ele>
        <time>2020-12-05T14:07:30.095Z</time>
      </trkpt>
      <trkpt lat="48.79978" lon="2.22226">
        <ele>179</ele>
        <time>2020-12-05T14:07:31.095Z</time>
      </trkpt>
      <trkpt lat="48.79977" lon="2.22227">
        <ele>179</ele>
        <time>2020-12-05T14:07:32.095Z</time>
      </trkpt>
      <trkpt lat="48.79977" lon="2.22228">
        <ele>178</ele>
        <time>2020-12-05T14:07:33.095Z</time>
      </trkpt>
      <trkpt lat="48.79976" lon="2.2223">
        <ele>178</ele>
        <time>2020-12-05T14:07:34.095Z</time>
      </trkpt>
      <trkpt lat="48.79974" lon="2.22233">
        <ele>178</ele>
        <time>2020-12-05T14:07:35.094Z</time>
      </trkpt>
      <trkpt lat="48.79972" lon="2.22234">
        <ele>178</ele>
        <time>2020-12-05T14:07:36.094Z</time>
      </trkpt>
      <trkpt lat="48.79971" lon="2.22236">
        <ele>178</ele>
        <time>2020-12-05T14:07:37.095Z</time>
      </trkpt>
      <trkpt lat="48.79971" lon="2.22237">
        <ele>178</ele>
        <time>2020-12-05T14:07:38.094Z</time>
      </trkpt>
      <trkpt lat="48.7997" lon="2.22239">
        <ele>178</ele>
        <time>2020-12-05T14:07:39.094Z</time>
      </trkpt>
      <trkpt lat="48.7997" lon="2.22241">
        <ele>177</ele>
        <time>2020-12-05T14:07:40.095Z</time>
      </trkpt>
      <trkpt lat="48.79969" lon="2.22243">
        <ele>177</ele>
        <time>2020-12-05T14:07:41.095Z</time>
      </trkpt>
      <trkpt lat="48.79968" lon="2.22246">
        <ele>178</ele>
        <time>2020-12-05T14:07:42.094Z</time>
      </trkpt>
      <trkpt lat="48.79968" lon="2.22247">
        <ele>178</ele>
        <time>2020-12-05T14:07:43.094Z</time>
      </trkpt>
      <trkpt lat="48.79967" lon="2.22248">
        <ele>178</ele>
        <time>2020-12-05T14:07:44.095Z</time>
      </trkpt>
      <trkpt lat="48.79968" lon="2.2225">
        <ele>178</ele>
        <time>2020-12-05T14:07:45.095Z</time>
      </trkpt>
      <trkpt lat="48.79968" lon="2.22252">
        <ele>179</ele>
        <time>2020-12-05T14:07:46.095Z</time>
      </trkpt>
      <trkpt lat="48.79968" lon="2.22253">
        <ele>179</ele>
        <time>2020-12-05T14:07:47.094Z</time>
      </trkpt>
      <trkpt lat="48.79967" lon="2.22254">
        <ele>179</ele>
        <time>2020-12-05T14:07:48.094Z</time>
      </trkpt>
      <trkpt lat="48.79966" lon="2.22256">
        <ele>180</ele>
        <time>2020-12-05T14:07:49.094Z</time>
      </trkpt>
      <trkpt lat="48.79965" lon="2.22258">
        <ele>180</ele>
        <time>2020-12-05T14:07:50.095Z</time>
      </trkpt>
      <trkpt lat="48.79964" lon="2.22259">
        <ele>180</ele>
        <time>2020-12-05T14:07:51.095Z</time>
      </trkpt>
      <trkpt lat="48.79964" lon="2.22261">
        <ele>181</ele>
        <time>2020-12-05T14:07:52.095Z</time>
      </trkpt>
      <trkpt lat="48.79963" lon="2.22261">
        <ele>181</ele>
        <time>2020-12-05T14:07:53.095Z</time>
      </trkpt>
      <trkpt lat="48.79963" lon="2.22262">
        <ele>182</ele>
        <time>2020-12-05T14:07:54.095Z</time>
      </trkpt>
      <trkpt lat="48.79963" lon="2.22262">
        <ele>182</ele>
        <time>2020-12-05T14:07:55.095Z</time>
      </trkpt>
      <trkpt lat="48.79963" lon="2.22262">
        <ele>182</ele>
        <time>2020-12-05T14:07:56.094Z</time>
      </trkpt>
      <trkpt lat="48.79963" lon="2.22263">
        <ele>182</ele>
        <time>2020-12-05T14:07:57.095Z</time>
      </trkpt>
      <trkpt lat="48.79963" lon="2.22264">
        <ele>183</ele>
        <time>2020-12-05T14:07:58.095Z</time>
      </trkpt>
      <trkpt lat="48.79963" lon="2.22265">
        <ele>183</ele>
        <time>2020-12-05T14:07:59.095Z</time>
      </trkpt>
      <trkpt lat="48.79963" lon="2.22266">
        <ele>183</ele>
        <time>2020-12-05T14:08:00.095Z</time>
      </trkpt>
      <trkpt lat="48.79963" lon="2.22268">
        <ele>183</ele>
        <time>2020-12-05T14:08:01.095Z</time>
      </trkpt>
      <trkpt lat="48.79962" lon="2.2227">
        <ele>183</ele>
        <time>2020-12-05T14:08:02.095Z</time>
      </trkpt>
      <trkpt lat="48.79962" lon="2.22272">
        <ele>184</ele>
        <time>2020-12-05T14:08:03.094Z</time>
      </trkpt>
      <trkpt lat="48.79962" lon="2.22275">
        <ele>184</ele>
        <time>2020-12-05T14:08:04.095Z</time>
      </trkpt>
      <trkpt lat="48.79962" lon="2.22277">
        <ele>184</ele>
        <time>2020-12-05T14:08:05.095Z</time>
      </trkpt>
      <trkpt lat="48.79961" lon="2.22279">
        <ele>184</ele>
        <time>2020-12-05T14:08:06.095Z</time>
      </trkpt>
      <trkpt lat="48.7996" lon="2.22281">
        <ele>184</ele>
        <time>2020-12-05T14:08:07.095Z</time>
      </trkpt>
      <trkpt lat="48.79957" lon="2.22284">
        <ele>185</ele>
        <time>2020-12-05T14:08:08.095Z</time>
      </trkpt>
      <trkpt lat="48.79956" lon="2.22286">
        <ele>185</ele>
        <time>2020-12-05T14:08:09.095Z</time>
      </trkpt>
      <trkpt lat="48.79954" lon="2.22289">
        <ele>185</ele>
        <time>2020-12-05T14:08:10.095Z</time>
      </trkpt>
      <trkpt lat="48.79954" lon="2.22291">
        <ele>185</ele>
        <time>2020-12-05T14:08:11.095Z</time>
      </trkpt>
      <trkpt lat="48.79954" lon="2.22292">
        <ele>185</ele>
        <time>2020-12-05T14:08:12.095Z</time>
      </trkpt>
      <trkpt lat="48.79954" lon="2.22294">
        <ele>185</ele>
        <time>2020-12-05T14:08:13.095Z</time>
      </trkpt>
      <trkpt lat="48.79954" lon="2.22295">
        <ele>185</ele>
        <time>2020-12-05T14:08:14.095Z</time>
      </trkpt>
      <trkpt lat="48.79954" lon="2.22297">
        <ele>186</ele>
        <time>2020-12-05T14:08:15.095Z</time>
      </trkpt>
      <trkpt lat="48.79953" lon="2.22299">
        <ele>186</ele>
        <time>2020-12-05T14:08:16.095Z</time>
      </trkpt>
      <trkpt lat="48.79953" lon="2.223">
        <ele>186</ele>
        <time>2020-12-05T14:08:17.095Z</time>
      </trkpt>
      <trkpt lat="48.79952" lon="2.22302">
        <ele>186</ele>
        <time>2020-12-05T14:08:18.095Z</time>
      </trkpt>
      <trkpt lat="48.79951" lon="2.22303">
        <ele>186</ele>
        <time>2020-12-05T14:08:19.095Z</time>
      </trkpt>
      <trkpt lat="48.79951" lon="2.22305">
        <ele>186</ele>
        <time>2020-12-05T14:08:20.094Z</time>
      </trkpt>
      <trkpt lat="48.7995" lon="2.22307">
        <ele>187</ele>
        <time>2020-12-05T14:08:21.094Z</time>
      </trkpt>
      <trkpt lat="48.7995" lon="2.22309">
        <ele>187</ele>
        <time>2020-12-05T14:08:22.095Z</time>
      </trkpt>
      <trkpt lat="48.79951" lon="2.22311">
        <ele>187</ele>
        <time>2020-12-05T14:08:23.095Z</time>
      </trkpt>
      <trkpt lat="48.7995" lon="2.22312">
        <ele>187</ele>
        <time>2020-12-05T14:08:24.095Z</time>
      </trkpt>
      <trkpt lat="48.7995" lon="2.22314">
        <ele>187</ele>
        <time>2020-12-05T14:08:25.095Z</time>
      </trkpt>
      <trkpt lat="48.79949" lon="2.22316">
        <ele>187</ele>
        <time>2020-12-05T14:08:26.095Z</time>
      </trkpt>
      <trkpt lat="48.79948" lon="2.22319">
        <ele>187</ele>
        <time>2020-12-05T14:08:27.095Z</time>
      </trkpt>
      <trkpt lat="48.79947" lon="2.2232">
        <ele>188</ele>
        <time>2020-12-05T14:08:28.095Z</time>
      </trkpt>
      <trkpt lat="48.79946" lon="2.22321">
        <ele>187</ele>
        <time>2020-12-05T14:08:29.095Z</time>
      </trkpt>
      <trkpt lat="48.79945" lon="2.22322">
        <ele>187</ele>
        <time>2020-12-05T14:08:30.095Z</time>
      </trkpt>
      <trkpt lat="48.79945" lon="2.22324">
        <ele>187</ele>
        <time>2020-12-05T14:08:31.095Z</time>
      </trkpt>
      <trkpt lat="48.79945" lon="2.22326">
        <ele>187</ele>
        <time>2020-12-05T14:08:32.095Z</time>
      </trkpt>
      <trkpt lat="48.79945" lon="2.22327">
        <ele>187</ele>
        <time>2020-12-05T14:08:33.095Z</time>
      </trkpt>
      <trkpt lat="48.79945" lon="2.22329">
        <ele>187</ele>
        <time>2020-12-05T14:08:34.095Z</time>
      </trkpt>
      <trkpt lat="48.79944" lon="2.22331">
        <ele>187</ele>
        <time>2020-12-05T14:08:35.095Z</time>
      </trkpt>
      <trkpt lat="48.79944" lon="2.22333">
        <ele>187</ele>
        <time>2020-12-05T14:08:36.094Z</time>
      </trkpt>
      <trkpt lat="48.79943" lon="2.22335">
        <ele>187</ele>
        <time>2020-12-05T14:08:37.095Z</time>
      </trkpt>
      <trkpt lat="48.79943" lon="2.22337">
        <ele>187</ele>
        <time>2020-12-05T14:08:38.095Z</time>
      </trkpt>
      <trkpt lat="48.79942" lon="2.22339">
        <ele>187</ele>
        <time>2020-12-05T14:08:39.095Z</time>
      </trkpt>
      <trkpt lat="48.79942" lon="2.22342">
        <ele>187</ele>
        <time>2020-12-05T14:08:40.095Z</time>
      </trkpt>
      <trkpt lat="48.79941" lon="2.22345">
        <ele>187</ele>
        <time>2020-12-05T14:08:41.095Z</time>
      </trkpt>
      <trkpt lat="48.7994" lon="2.22348">
        <ele>187</ele>
        <time>2020-12-05T14:08:42.095Z</time>
      </trkpt>
      <trkpt lat="48.79938" lon="2.2235">
        <ele>187</ele>
        <time>2020-12-05T14:08:43.095Z</time>
      </trkpt>
      <trkpt lat="48.79938" lon="2.22352">
        <ele>187</ele>
        <time>2020-12-05T14:08:44.095Z</time>
      </trkpt>
      <trkpt lat="48.79937" lon="2.22353">
        <ele>187</ele>
        <time>2020-12-05T14:08:45.095Z</time>
      </trkpt>
      <trkpt lat="48.79936" lon="2.22355">
        <ele>187</ele>
        <time>2020-12-05T14:08:46.095Z</time>
      </trkpt>
      <trkpt lat="48.79934" lon="2.22358">
        <ele>187</ele>
        <time>2020-12-05T14:08:47.095Z</time>
      </trkpt>
      <trkpt lat="48.79934" lon="2.2236">
        <ele>187</ele>
        <time>2020-12-05T14:08:48.095Z</time>
      </trkpt>
      <trkpt lat="48.79934" lon="2.22363">
        <ele>186</ele>
        <time>2020-12-05T14:08:49.095Z</time>
      </trkpt>
      <trkpt lat="48.79933" lon="2.22364">
        <ele>186</ele>
        <time>2020-12-05T14:08:50.095Z</time>
      </trkpt>
      <trkpt lat="48.79933" lon="2.22367">
        <ele>186</ele>
        <time>2020-12-05T14:08:51.095Z</time>
      </trkpt>
      <trkpt lat="48.79933" lon="2.22369">
        <ele>186</ele>
        <time>2020-12-05T14:08:52.095Z</time>
      </trkpt>
      <trkpt lat="48.79932" lon="2.2237">
        <ele>186</ele>
        <time>2020-12-05T14:08:53.095Z</time>
      </trkpt>
      <trkpt lat="48.79932" lon="2.22371">
        <ele>185</ele>
        <time>2020-12-05T14:08:54.094Z</time>
      </trkpt>
      <trkpt lat="48.79932" lon="2.22374">
        <ele>185</ele>
        <time>2020-12-05T14:08:55.095Z</time>
      </trkpt>
      <trkpt lat="48.7993" lon="2.22376">
        <ele>185</ele>
        <time>2020-12-05T14:08:56.095Z</time>
      </trkpt>
      <trkpt lat="48.79929" lon="2.22378">
        <ele>185</ele>
        <time>2020-12-05T14:08:57.095Z</time>
      </trkpt>
      <trkpt lat="48.79927" lon="2.2238">
        <ele>184</ele>
        <time>2020-12-05T14:08:58.095Z</time>
      </trkpt>
      <trkpt lat="48.79926" lon="2.22383">
        <ele>184</ele>
        <time>2020-12-05T14:08:59.095Z</time>
      </trkpt>
      <trkpt lat="48.79925" lon="2.22385">
        <ele>184</ele>
        <time>2020-12-05T14:09:00.095Z</time>
      </trkpt>
      <trkpt lat="48.79924" lon="2.22387">
        <ele>183</ele>
        <time>2020-12-05T14:09:01.095Z</time>
      </trkpt>
      <trkpt lat="48.79923" lon="2.22389">
        <ele>183</ele>
        <time>2020-12-05T14:09:02.094Z</time>
      </trkpt>
      <trkpt lat="48.79921" lon="2.2239">
        <ele>183</ele>
        <time>2020-12-05T14:09:03.094Z</time>
      </trkpt>
      <trkpt lat="48.7992" lon="2.22392">
        <ele>182</ele>
        <time>2020-12-05T14:09:04.095Z</time>
      </trkpt>
      <trkpt lat="48.79918" lon="2.22395">
        <ele>182</ele>
        <time>2020-12-05T14:09:05.095Z</time>
      </trkpt>
      <trkpt lat="48.79917" lon="2.22397">
        <ele>182</ele>
        <time>2020-12-05T14:09:06.095Z</time>
      </trkpt>
      <trkpt lat="48.79917" lon="2.22399">
        <ele>182</ele>
        <time>2020-12-05T14:09:07.095Z</time>
      </trkpt>
      <trkpt lat="48.79916" lon="2.22401">
        <ele>182</ele>
        <time>2020-12-05T14:09:08.094Z</time>
      </trkpt>
      <trkpt lat="48.79916" lon="2.22403">
        <ele>181</ele>
        <time>2020-12-05T14:09:09.094Z</time>
      </trkpt>
      <trkpt lat="48.79916" lon="2.22406">
        <ele>181</ele>
        <time>2020-12-05T14:09:10.095Z</time>
      </trkpt>
      <trkpt lat="48.79916" lon="2.22407">
        <ele>181</ele>
        <time>2020-12-05T14:09:11.095Z</time>
      </trkpt>
      <trkpt lat="48.79916" lon="2.22408">
        <ele>181</ele>
        <time>2020-12-05T14:09:12.094Z</time>
      </trkpt>
      <trkpt lat="48.79915" lon="2.22409">
        <ele>181</ele>
        <time>2020-12-05T14:09:13.094Z</time>
      </trkpt>
      <trkpt lat="48.79915" lon="2.22411">
        <ele>181</ele>
        <time>2020-12-05T14:09:14.094Z</time>
      </trkpt>
      <trkpt lat="48.79915" lon="2.22412">
        <ele>181</ele>
        <time>2020-12-05T14:09:15.094Z</time>
      </trkpt>
      <trkpt lat="48.79915" lon="2.22414">
        <ele>181</ele>
        <time>2020-12-05T14:09:16.095Z</time>
      </trkpt>
      <trkpt lat="48.79914" lon="2.22417">
        <ele>181</ele>
        <time>2020-12-05T14:09:17.095Z</time>
      </trkpt>
      <trkpt lat="48.79913" lon="2.22419">
        <ele>181</ele>
        <time>2020-12-05T14:09:18.095Z</time>
      </trkpt>
      <trkpt lat="48.79914" lon="2.22422">
        <ele>181</ele>
        <time>2020-12-05T14:09:19.094Z</time>
      </trkpt>
      <trkpt lat="48.79913" lon="2.22424">
        <ele>181</ele>
        <time>2020-12-05T14:09:20.094Z</time>
      </trkpt>
      <trkpt lat="48.79913" lon="2.22427">
        <ele>181</ele>
        <time>2020-12-05T14:09:21.095Z</time>
      </trkpt>
      <trkpt lat="48.79913" lon="2.2243">
        <ele>181</ele>
        <time>2020-12-05T14:09:22.095Z</time>
      </trkpt>
      <trkpt lat="48.79913" lon="2.22432">
        <ele>181</ele>
        <time>2020-12-05T14:09:23.094Z</time>
      </trkpt>
      <trkpt lat="48.79913" lon="2.22435">
        <ele>181</ele>
        <time>2020-12-05T14:09:24.094Z</time>
      </trkpt>
      <trkpt lat="48.79914" lon="2.22438">
        <ele>181</ele>
        <time>2020-12-05T14:09:25.095Z</time>
      </trkpt>
      <trkpt lat="48.79914" lon="2.2244">
        <ele>181</ele>
        <time>2020-12-05T14:09:26.095Z</time>
      </trkpt>
      <trkpt lat="48.79914" lon="2.22442">
        <ele>180</ele>
        <time>2020-12-05T14:09:27.095Z</time>
      </trkpt>
      <trkpt lat="48.79914" lon="2.22445">
        <ele>180</ele>
        <time>2020-12-05T14:09:28.095Z</time>
      </trkpt>
      <trkpt lat="48.79913" lon="2.22447">
        <ele>180</ele>
        <time>2020-12-05T14:09:29.095Z</time>
      </trkpt>
      <trkpt lat="48.79913" lon="2.22449">
        <ele>180</ele>
        <time>2020-12-05T14:09:30.095Z</time>
      </trkpt>
      <trkpt lat="48.79914" lon="2.2245">
        <ele>180</ele>
        <time>2020-12-05T14:09:31.095Z</time>
      </trkpt>
      <trkpt lat="48.79915" lon="2.22452">
        <ele>180</ele>
        <time>2020-12-05T14:09:32.095Z</time>
      </trkpt>
      <trkpt lat="48.79915" lon="2.22454">
        <ele>180</ele>
        <time>2020-12-05T14:09:33.095Z</time>
      </trkpt>
      <trkpt lat="48.79916" lon="2.22456">
        <ele>180</ele>
        <time>2020-12-05T14:09:34.094Z</time>
      </trkpt>
      <trkpt lat="48.79916" lon="2.22459">
        <ele>180</ele>
        <time>2020-12-05T14:09:35.095Z</time>
      </trkpt>
      <trkpt lat="48.79916" lon="2.22462">
        <ele>180</ele>
        <time>2020-12-05T14:09:36.095Z</time>
      </trkpt>
      <trkpt lat="48.79915" lon="2.22465">
        <ele>180</ele>
        <time>2020-12-05T14:09:37.095Z</time>
      </trkpt>
      <trkpt lat="48.79915" lon="2.22466">
        <ele>181</ele>
        <time>2020-12-05T14:09:38.095Z</time>
      </trkpt>
      <trkpt lat="48.79916" lon="2.22468">
        <ele>181</ele>
        <time>2020-12-05T14:09:39.095Z</time>
      </trkpt>
      <trkpt lat="48.79917" lon="2.2247">
        <ele>181</ele>
        <time>2020-12-05T14:09:40.095Z</time>
      </trkpt>
      <trkpt lat="48.79917" lon="2.22472">
        <ele>180</ele>
        <time>2020-12-05T14:09:41.095Z</time>
      </trkpt>
      <trkpt lat="48.79917" lon="2.22474">
        <ele>180</ele>
        <time>2020-12-05T14:09:42.095Z</time>
      </trkpt>
      <trkpt lat="48.79917" lon="2.22476">
        <ele>180</ele>
        <time>2020-12-05T14:09:43.094Z</time>
      </trkpt>
      <trkpt lat="48.79916" lon="2.22478">
        <ele>180</ele>
        <time>2020-12-05T14:09:44.094Z</time>
      </trkpt>
      <trkpt lat="48.79917" lon="2.2248">
        <ele>180</ele>
        <time>2020-12-05T14:09:45.095Z</time>
      </trkpt>
      <trkpt lat="48.79917" lon="2.22482">
        <ele>180</ele>
        <time>2020-12-05T14:09:46.095Z</time>
      </trkpt>
      <trkpt lat="48.79918" lon="2.22485">
        <ele>180</ele>
        <time>2020-12-05T14:09:47.095Z</time>
      </trkpt>
      <trkpt lat="48.79918" lon="2.22487">
        <ele>180</ele>
        <time>2020-12-05T14:09:48.095Z</time>
      </trkpt>
      <trkpt lat="48.79919" lon="2.22489">
        <ele>180</ele>
        <time>2020-12-05T14:09:49.095Z</time>
      </trkpt>
      <trkpt lat="48.79919" lon="2.2249">
        <ele>180</ele>
        <time>2020-12-05T14:09:50.095Z</time>
      </trkpt>
      <trkpt lat="48.7992" lon="2.22492">
        <ele>180</ele>
        <time>2020-12-05T14:09:51.095Z</time>
      </trkpt>
      <trkpt lat="48.7992" lon="2.22495">
        <ele>180</ele>
        <time>2020-12-05T14:09:52.095Z</time>
      </trkpt>
      <trkpt lat="48.79921" lon="2.22496">
        <ele>180</ele>
        <time>2020-12-05T14:09:53.095Z</time>
      </trkpt>
      <trkpt lat="48.79921" lon="2.22498">
        <ele>180</ele>
        <time>2020-12-05T14:09:54.095Z</time>
      </trkpt>
      <trkpt lat="48.79922" lon="2.225">
        <ele>180</ele>
        <time>2020-12-05T14:09:55.094Z</time>
      </trkpt>
      <trkpt lat="48.79922" lon="2.22502">
        <ele>180</ele>
        <time>2020-12-05T14:09:56.094Z</time>
      </trkpt>
      <trkpt lat="48.79922" lon="2.22505">
        <ele>180</ele>
        <time>2020-12-05T14:09:57.094Z</time>
      </trkpt>
      <trkpt lat="48.79921" lon="2.22507">
        <ele>180</ele>
        <time>2020-12-05T14:09:58.095Z</time>
      </trkpt>
      <trkpt lat="48.79921" lon="2.22509">
        <ele>180</ele>
        <time>2020-12-05T14:09:59.094Z</time>
      </trkpt>
      <trkpt lat="48.7992" lon="2.22511">
        <ele>180</ele>
        <time>2020-12-05T14:10:00.094Z</time>
      </trkpt>
      <trkpt lat="48.79921" lon="2.22513">
        <ele>180</ele>
        <time>2020-12-05T14:10:01.095Z</time>
      </trkpt>
      <trkpt lat="48.79921" lon="2.22515">
        <ele>180</ele>
        <time>2020-12-05T14:10:02.095Z</time>
      </trkpt>
      <trkpt lat="48.79922" lon="2.22518">
        <ele>180</ele>
        <time>2020-12-05T14:10:03.095Z</time>
      </trkpt>
      <trkpt lat="48.79923" lon="2.2252">
        <ele>180</ele>
        <time>2020-12-05T14:10:04.094Z</time>
      </trkpt>
      <trkpt lat="48.79923" lon="2.22522">
        <ele>180</ele>
        <time>2020-12-05T14:10:05.095Z</time>
      </trkpt>
      <trkpt lat="48.79923" lon="2.22524">
        <ele>180</ele>
        <time>2020-12-05T14:10:06.095Z</time>
      </trkpt>
      <trkpt lat="48.79924" lon="2.22526">
        <ele>180</ele>
        <time>2020-12-05T14:10:07.095Z</time>
      </trkpt>
      <trkpt lat="48.79925" lon="2.22528">
        <ele>180</ele>
        <time>2020-12-05T14:10:08.095Z</time>
      </trkpt>
      <trkpt lat="48.79926" lon="2.2253">
        <ele>180</ele>
        <time>2020-12-05T14:10:09.094Z</time>
      </trkpt>
      <trkpt lat="48.79928" lon="2.22531">
        <ele>180</ele>
        <time>2020-12-05T14:10:10.095Z</time>
      </trkpt>
      <trkpt lat="48.79929" lon="2.22533">
        <ele>181</ele>
        <time>2020-12-05T14:10:11.095Z</time>
      </trkpt>
      <trkpt lat="48.79929" lon="2.22534">
        <ele>181</ele>
        <time>2020-12-05T14:10:12.095Z</time>
      </trkpt>
      <trkpt lat="48.7993" lon="2.22536">
        <ele>181</ele>
        <time>2020-12-05T14:10:13.095Z</time>
      </trkpt>
      <trkpt lat="48.7993" lon="2.22537">
        <ele>181</ele>
        <time>2020-12-05T14:10:14.095Z</time>
      </trkpt>
      <trkpt lat="48.79931" lon="2.22538">
        <ele>181</ele>
        <time>2020-12-05T14:10:15.095Z</time>
      </trkpt>
      <trkpt lat="48.79932" lon="2.2254">
        <ele>181</ele>
        <time>2020-12-05T14:10:16.095Z</time>
      </trkpt>
      <trkpt lat="48.79932" lon="2.22541">
        <ele>181</ele>
        <time>2020-12-05T14:10:17.095Z</time>
      </trkpt>
      <trkpt lat="48.79932" lon="2.22543">
        <ele>181</ele>
        <time>2020-12-05T14:10:18.094Z</time>
      </trkpt>
      <trkpt lat="48.79932" lon="2.22544">
        <ele>181</ele>
        <time>2020-12-05T14:10:19.094Z</time>
      </trkpt>
      <trkpt lat="48.79932" lon="2.22546">
        <ele>181</ele>
        <time>2020-12-05T14:10:20.094Z</time>
      </trkpt>
      <trkpt lat="48.79932" lon="2.22548">
        <ele>181</ele>
        <time>2020-12-05T14:10:21.095Z</time>
      </trkpt>
      <trkpt lat="48.79932" lon="2.2255">
        <ele>181</ele>
        <time>2020-12-05T14:10:22.095Z</time>
      </trkpt>
      <trkpt lat="48.79933" lon="2.22552">
        <ele>181</ele>
        <time>2020-12-05T14:10:23.095Z</time>
      </trkpt>
      <trkpt lat="48.79934" lon="2.22554">
        <ele>181</ele>
        <time>2020-12-05T14:10:24.094Z</time>
      </trkpt>
      <trkpt lat="48.79935" lon="2.22557">
        <ele>181</ele>
        <time>2020-12-05T14:10:25.094Z</time>
      </trkpt>
      <trkpt lat="48.79936" lon="2.22559">
        <ele>181</ele>
        <time>2020-12-05T14:10:26.094Z</time>
      </trkpt>
      <trkpt lat="48.79936" lon="2.22562">
        <ele>181</ele>
        <time>2020-12-05T14:10:27.094Z</time>
      </trkpt>
      <trkpt lat="48.79936" lon="2.22564">
        <ele>182</ele>
        <time>2020-12-05T14:10:28.095Z</time>
      </trkpt>
      <trkpt lat="48.79936" lon="2.22565">
        <ele>182</ele>
        <time>2020-12-05T14:10:29.095Z</time>
      </trkpt>
      <trkpt lat="48.79936" lon="2.22567">
        <ele>182</ele>
        <time>2020-12-05T14:10:30.095Z</time>
      </trkpt>
      <trkpt lat="48.79936" lon="2.22569">
        <ele>182</ele>
        <time>2020-12-05T14:10:31.095Z</time>
      </trkpt>
      <trkpt lat="48.79936" lon="2.22571">
        <ele>182</ele>
        <time>2020-12-05T14:10:32.094Z</time>
      </trkpt>
      <trkpt lat="48.79936" lon="2.22572">
        <ele>182</ele>
        <time>2020-12-05T14:10:33.094Z</time>
      </trkpt>
      <trkpt lat="48.79935" lon="2.22574">
        <ele>183</ele>
        <time>2020-12-05T14:10:34.095Z</time>
      </trkpt>
      <trkpt lat="48.79934" lon="2.22576">
        <ele>183</ele>
        <time>2020-12-05T14:10:35.095Z</time>
      </trkpt>
      <trkpt lat="48.79933" lon="2.22578">
        <ele>183</ele>
        <time>2020-12-05T14:10:36.095Z</time>
      </trkpt>
      <trkpt lat="48.79932" lon="2.2258">
        <ele>182</ele>
        <time>2020-12-05T14:10:37.095Z</time>
      </trkpt>
      <trkpt lat="48.7993" lon="2.22582">
        <ele>182</ele>
        <time>2020-12-05T14:10:38.095Z</time>
      </trkpt>
      <trkpt lat="48.7993" lon="2.22583">
        <ele>182</ele>
        <time>2020-12-05T14:10:39.095Z</time>
      </trkpt>
      <trkpt lat="48.79929" lon="2.22585">
        <ele>181</ele>
        <time>2020-12-05T14:10:40.095Z</time>
      </trkpt>
      <trkpt lat="48.79929" lon="2.22586">
        <ele>181</ele>
        <time>2020-12-05T14:10:41.094Z</time>
      </trkpt>
      <trkpt lat="48.79928" lon="2.22587">
        <ele>181</ele>
        <time>2020-12-05T14:10:42.094Z</time>
      </trkpt>
      <trkpt lat="48.79928" lon="2.22588">
        <ele>181</ele>
        <time>2020-12-05T14:10:43.095Z</time>
      </trkpt>
      <trkpt lat="48.79928" lon="2.2259">
        <ele>180</ele>
        <time>2020-12-05T14:10:44.095Z</time>
      </trkpt>
      <trkpt lat="48.79928" lon="2.22591">
        <ele>180</ele>
        <time>2020-12-05T14:10:45.095Z</time>
      </trkpt>
      <trkpt lat="48.79928" lon="2.22592">
        <ele>180</ele>
        <time>2020-12-05T14:10:46.095Z</time>
      </trkpt>
      <trkpt lat="48.79927" lon="2.22593">
        <ele>180</ele>
        <time>2020-12-05T14:10:47.095Z</time>
      </trkpt>
      <trkpt lat="48.79926" lon="2.22594">
        <ele>179</ele>
        <time>2020-12-05T14:10:48.095Z</time>
      </trkpt>
      <trkpt lat="48.79926" lon="2.22597">
        <ele>179</ele>
        <time>2020-12-05T14:10:49.095Z</time>
      </trkpt>
      <trkpt lat="48.79925" lon="2.22599">
        <ele>179</ele>
        <time>2020-12-05T14:10:50.095Z</time>
      </trkpt>
      <trkpt lat="48.79925" lon="2.22601">
        <ele>179</ele>
        <time>2020-12-05T14:10:51.095Z</time>
      </trkpt>
      <trkpt lat="48.79924" lon="2.22603">
        <ele>179</ele>
        <time>2020-12-05T14:10:52.095Z</time>
      </trkpt>
      <trkpt lat="48.79924" lon="2.22604">
        <ele>179</ele>
        <time>2020-12-05T14:10:53.095Z</time>
      </trkpt>
      <trkpt lat="48.79924" lon="2.22606">
        <ele>179</ele>
        <time>2020-12-05T14:10:54.095Z</time>
      </trkpt>
      <trkpt lat="48.79924" lon="2.22607">
        <ele>179</ele>
        <time>2020-12-05T14:10:55.095Z</time>
      </trkpt>
      <trkpt lat="48.79924" lon="2.22608">
        <ele>179</ele>
        <time>2020-12-05T14:10:56.094Z</time>
      </trkpt>
      <trkpt lat="48.79924" lon="2.2261">
        <ele>179</ele>
        <time>2020-12-05T14:10:57.095Z</time>
      </trkpt>
      <trkpt lat="48.79924" lon="2.22611">
        <ele>179</ele>
        <time>2020-12-05T14:10:58.094Z</time>
      </trkpt>
      <trkpt lat="48.79923" lon="2.22613">
        <ele>179</ele>
        <time>2020-12-05T14:10:59.094Z</time>
      </trkpt>
      <trkpt lat="48.79923" lon="2.22615">
        <ele>179</ele>
        <time>2020-12-05T14:11:00.095Z</time>
      </trkpt>
      <trkpt lat="48.79923" lon="2.22617">
        <ele>179</ele>
        <time>2020-12-05T14:11:01.095Z</time>
      </trkpt>
      <trkpt lat="48.79924" lon="2.22619">
        <ele>178</ele>
        <time>2020-12-05T14:11:02.094Z</time>
      </trkpt>
      <trkpt lat="48.79924" lon="2.22622">
        <ele>178</ele>
        <time>2020-12-05T14:11:03.094Z</time>
      </trkpt>
      <trkpt lat="48.79922" lon="2.22624">
        <ele>178</ele>
        <time>2020-12-05T14:11:04.094Z</time>
      </trkpt>
      <trkpt lat="48.7992" lon="2.22627">
        <ele>178</ele>
        <time>2020-12-05T14:11:05.094Z</time>
      </trkpt>
      <trkpt lat="48.79918" lon="2.22629">
        <ele>178</ele>
        <time>2020-12-05T14:11:06.094Z</time>
      </trkpt>
      <trkpt lat="48.79917" lon="2.22629">
        <ele>178</ele>
        <time>2020-12-05T14:11:07.094Z</time>
      </trkpt>
      <trkpt lat="48.79916" lon="2.2263">
        <ele>178</ele>
        <time>2020-12-05T14:11:08.095Z</time>
      </trkpt>
      <trkpt lat="48.79917" lon="2.22631">
        <ele>178</ele>
        <time>2020-12-05T14:11:09.094Z</time>
      </trkpt>
      <trkpt lat="48.79917" lon="2.22633">
        <ele>178</ele>
        <time>2020-12-05T14:11:10.094Z</time>
      </trkpt>
      <trkpt lat="48.79917" lon="2.22634">
        <ele>178</ele>
        <time>2020-12-05T14:11:11.095Z</time>
      </trkpt>
      <trkpt lat="48.79918" lon="2.22636">
        <ele>178</ele>
        <time>2020-12-05T14:11:12.094Z</time>
      </trkpt>
      <trkpt lat="48.79919" lon="2.22637">
        <ele>177</ele>
        <time>2020-12-05T14:11:13.095Z</time>
      </trkpt>
      <trkpt lat="48.7992" lon="2.22639">
        <ele>177</ele>
        <time>2020-12-05T14:11:14.095Z</time>
      </trkpt>
      <trkpt lat="48.7992" lon="2.2264">
        <ele>177</ele>
        <time>2020-12-05T14:11:15.095Z</time>
      </trkpt>
      <trkpt lat="48.7992" lon="2.22642">
        <ele>177</ele>
        <time>2020-12-05T14:11:16.094Z</time>
      </trkpt>
      <trkpt lat="48.7992" lon="2.22643">
        <ele>177</ele>
        <time>2020-12-05T14:11:17.094Z</time>
      </trkpt>
      <trkpt lat="48.7992" lon="2.22645">
        <ele>177</ele>
        <time>2020-12-05T14:11:18.094Z</time>
      </trkpt>
      <trkpt lat="48.7992" lon="2.22646">
        <ele>177</ele>
        <time>2020-12-05T14:11:19.094Z</time>
      </trkpt>
      <trkpt lat="48.7992" lon="2.22648">
        <ele>177</ele>
        <time>2020-12-05T14:11:20.095Z</time>
      </trkpt>
      <trkpt lat="48.7992" lon="2.2265">
        <ele>177</ele>
        <time>2020-12-05T14:11:21.095Z</time>
      </trkpt>
      <trkpt lat="48.79919" lon="2.22652">
        <ele>178</ele>
        <time>2020-12-05T14:11:22.095Z</time>
      </trkpt>
      <trkpt lat="48.79918" lon="2.22655">
        <ele>178</ele>
        <time>2020-12-05T14:11:23.095Z</time>
      </trkpt>
      <trkpt lat="48.79918" lon="2.22659">
        <ele>178</ele>
        <time>2020-12-05T14:11:24.094Z</time>
      </trkpt>
      <trkpt lat="48.79918" lon="2.22663">
        <ele>178</ele>
        <time>2020-12-05T14:11:25.094Z</time>
      </trkpt>
      <trkpt lat="48.79919" lon="2.22667">
        <ele>178</ele>
        <time>2020-12-05T14:11:26.094Z</time>
      </trkpt>
      <trkpt lat="48.79919" lon="2.22671">
        <ele>178</ele>
        <time>2020-12-05T14:11:27.094Z</time>
      </trkpt>
      <trkpt lat="48.79919" lon="2.22673">
        <ele>178</ele>
        <time>2020-12-05T14:11:28.095Z</time>
      </trkpt>
      <trkpt lat="48.79918" lon="2.22675">
        <ele>178</ele>
        <time>2020-12-05T14:11:29.095Z</time>
      </trkpt>
      <trkpt lat="48.79918" lon="2.22676">
        <ele>178</ele>
        <time>2020-12-05T14:11:30.094Z</time>
      </trkpt>
      <trkpt lat="48.79917" lon="2.22677">
        <ele>178</ele>
        <time>2020-12-05T14:11:31.094Z</time>
      </trkpt>
      <trkpt lat="48.79917" lon="2.22679">
        <ele>178</ele>
        <time>2020-12-05T14:11:32.094Z</time>
      </trkpt>
      <trkpt lat="48.79916" lon="2.22681">
        <ele>178</ele>
        <time>2020-12-05T14:11:33.095Z</time>
      </trkpt>
      <trkpt lat="48.79915" lon="2.22684">
        <ele>178</ele>
        <time>2020-12-05T14:11:34.095Z</time>
      </trkpt>
      <trkpt lat="48.79914" lon="2.22686">
        <ele>178</ele>
        <time>2020-12-05T14:11:35.095Z</time>
      </trkpt>
      <trkpt lat="48.79913" lon="2.22689">
        <ele>178</ele>
        <time>2020-12-05T14:11:36.095Z</time>
      </trkpt>
      <trkpt lat="48.79912" lon="2.22691">
        <ele>178</ele>
        <time>2020-12-05T14:11:37.095Z</time>
      </trkpt>
      <trkpt lat="48.79911" lon="2.22693">
        <ele>178</ele>
        <time>2020-12-05T14:11:38.094Z</time>
      </trkpt>
      <trkpt lat="48.7991" lon="2.22696">
        <ele>178</ele>
        <time>2020-12-05T14:11:39.094Z</time>
      </trkpt>
      <trkpt lat="48.7991" lon="2.22698">
        <ele>178</ele>
        <time>2020-12-05T14:11:40.094Z</time>
      </trkpt>
      <trkpt lat="48.79911" lon="2.227">
        <ele>178</ele>
        <time>2020-12-05T14:11:41.094Z</time>
      </trkpt>
      <trkpt lat="48.79911" lon="2.22702">
        <ele>178</ele>
        <time>2020-12-05T14:11:42.095Z</time>
      </trkpt>
      <trkpt lat="48.79911" lon="2.22705">
        <ele>178</ele>
        <time>2020-12-05T14:11:43.094Z</time>
      </trkpt>
      <trkpt lat="48.79912" lon="2.22709">
        <ele>178</ele>
        <time>2020-12-05T14:11:44.094Z</time>
      </trkpt>
      <trkpt lat="48.79913" lon="2.22712">
        <ele>178</ele>
        <time>2020-12-05T14:11:45.095Z</time>
      </trkpt>
      <trkpt lat="48.79914" lon="2.22715">
        <ele>178</ele>
        <time>2020-12-05T14:11:46.095Z</time>
      </trkpt>
      <trkpt lat="48.79915" lon="2.22717">
        <ele>179</ele>
        <time>2020-12-05T14:11:47.095Z</time>
      </trkpt>
      <trkpt lat="48.79915" lon="2.2272">
        <ele>179</ele>
        <time>2020-12-05T14:11:48.095Z</time>
      </trkpt>
      <trkpt lat="48.79914" lon="2.22723">
        <ele>179</ele>
        <time>2020-12-05T14:11:49.094Z</time>
      </trkpt>
      <trkpt lat="48.79913" lon="2.22725">
        <ele>179</ele>
        <time>2020-12-05T14:11:50.094Z</time>
      </trkpt>
      <trkpt lat="48.79912" lon="2.22728">
        <ele>179</ele>
        <time>2020-12-05T14:11:51.094Z</time>
      </trkpt>
      <trkpt lat="48.7991" lon="2.2273">
        <ele>180</ele>
        <time>2020-12-05T14:11:52.095Z</time>
      </trkpt>
      <trkpt lat="48.79909" lon="2.22732">
        <ele>180</ele>
        <time>2020-12-05T14:11:53.094Z</time>
      </trkpt>
      <trkpt lat="48.79909" lon="2.22734">
        <ele>180</ele>
        <time>2020-12-05T14:11:54.095Z</time>
      </trkpt>
      <trkpt lat="48.79908" lon="2.22736">
        <ele>180</ele>
        <time>2020-12-05T14:11:55.095Z</time>
      </trkpt>
      <trkpt lat="48.79908" lon="2.22738">
        <ele>180</ele>
        <time>2020-12-05T14:11:56.095Z</time>
      </trkpt>
      <trkpt lat="48.79908" lon="2.2274">
        <ele>180</ele>
        <time>2020-12-05T14:11:57.094Z</time>
      </trkpt>
      <trkpt lat="48.79908" lon="2.22742">
        <ele>180</ele>
        <time>2020-12-05T14:11:58.094Z</time>
      </trkpt>
      <trkpt lat="48.79907" lon="2.22744">
        <ele>180</ele>
        <time>2020-12-05T14:11:59.094Z</time>
      </trkpt>
      <trkpt lat="48.79907" lon="2.22746">
        <ele>180</ele>
        <time>2020-12-05T14:12:00.095Z</time>
      </trkpt>
      <trkpt lat="48.79906" lon="2.22748">
        <ele>180</ele>
        <time>2020-12-05T14:12:01.095Z</time>
      </trkpt>
      <trkpt lat="48.79905" lon="2.2275">
        <ele>180</ele>
        <time>2020-12-05T14:12:02.095Z</time>
      </trkpt>
      <trkpt lat="48.79905" lon="2.22752">
        <ele>180</ele>
        <time>2020-12-05T14:12:03.095Z</time>
      </trkpt>
      <trkpt lat="48.79904" lon="2.22754">
        <ele>179</ele>
        <time>2020-12-05T14:12:04.095Z</time>
      </trkpt>
      <trkpt lat="48.79904" lon="2.22756">
        <ele>179</ele>
        <time>2020-12-05T14:12:05.095Z</time>
      </trkpt>
      <trkpt lat="48.79903" lon="2.22759">
        <ele>179</ele>
        <time>2020-12-05T14:12:06.095Z</time>
      </trkpt>
      <trkpt lat="48.79903" lon="2.22761">
        <ele>179</ele>
        <time>2020-12-05T14:12:07.095Z</time>
      </trkpt>
      <trkpt lat="48.79902" lon="2.22763">
        <ele>180</ele>
        <time>2020-12-05T14:12:08.095Z</time>
      </trkpt>
      <trkpt lat="48.79902" lon="2.22764">
        <ele>180</ele>
        <time>2020-12-05T14:12:09.094Z</time>
      </trkpt>
      <trkpt lat="48.79901" lon="2.22765">
        <ele>180</ele>
        <time>2020-12-05T14:12:10.094Z</time>
      </trkpt>
      <trkpt lat="48.79901" lon="2.22767">
        <ele>180</ele>
        <time>2020-12-05T14:12:11.095Z</time>
      </trkpt>
      <trkpt lat="48.799" lon="2.22768">
        <ele>180</ele>
        <time>2020-12-05T14:12:12.095Z</time>
      </trkpt>
      <trkpt lat="48.79899" lon="2.22769">
        <ele>180</ele>
        <time>2020-12-05T14:12:13.095Z</time>
      </trkpt>
      <trkpt lat="48.79898" lon="2.22769">
        <ele>180</ele>
        <time>2020-12-05T14:12:14.094Z</time>
      </trkpt>
      <trkpt lat="48.79897" lon="2.22771">
        <ele>180</ele>
        <time>2020-12-05T14:12:15.094Z</time>
      </trkpt>
      <trkpt lat="48.79896" lon="2.22773">
        <ele>180</ele>
        <time>2020-12-05T14:12:16.094Z</time>
      </trkpt>
      <trkpt lat="48.79896" lon="2.22775">
        <ele>180</ele>
        <time>2020-12-05T14:12:17.094Z</time>
      </trkpt>
      <trkpt lat="48.79895" lon="2.22777">
        <ele>180</ele>
        <time>2020-12-05T14:12:18.095Z</time>
      </trkpt>
      <trkpt lat="48.79895" lon="2.22778">
        <ele>180</ele>
        <time>2020-12-05T14:12:19.095Z</time>
      </trkpt>
      <trkpt lat="48.79894" lon="2.2278">
        <ele>180</ele>
        <time>2020-12-05T14:12:20.095Z</time>
      </trkpt>
      <trkpt lat="48.79893" lon="2.22782">
        <ele>179</ele>
        <time>2020-12-05T14:12:21.095Z</time>
      </trkpt>
      <trkpt lat="48.79894" lon="2.22784">
        <ele>179</ele>
        <time>2020-12-05T14:12:22.095Z</time>
      </trkpt>
      <trkpt lat="48.79895" lon="2.22786">
        <ele>179</ele>
        <time>2020-12-05T14:12:23.095Z</time>
      </trkpt>
      <trkpt lat="48.79895" lon="2.2279">
        <ele>179</ele>
        <time>2020-12-05T14:12:24.095Z</time>
      </trkpt>
      <trkpt lat="48.79896" lon="2.22792">
        <ele>179</ele>
        <time>2020-12-05T14:12:25.095Z</time>
      </trkpt>
      <trkpt lat="48.79897" lon="2.22793">
        <ele>179</ele>
        <time>2020-12-05T14:12:26.095Z</time>
      </trkpt>
      <trkpt lat="48.79898" lon="2.22794">
        <ele>178</ele>
        <time>2020-12-05T14:12:27.094Z</time>
      </trkpt>
      <trkpt lat="48.79899" lon="2.22795">
        <ele>178</ele>
        <time>2020-12-05T14:12:28.094Z</time>
      </trkpt>
      <trkpt lat="48.799" lon="2.22796">
        <ele>178</ele>
        <time>2020-12-05T14:12:29.094Z</time>
      </trkpt>
      <trkpt lat="48.799" lon="2.22798">
        <ele>177</ele>
        <time>2020-12-05T14:12:30.094Z</time>
      </trkpt>
      <trkpt lat="48.79899" lon="2.22798">
        <ele>177</ele>
        <time>2020-12-05T14:12:31.094Z</time>
      </trkpt>
      <trkpt lat="48.79898" lon="2.22799">
        <ele>177</ele>
        <time>2020-12-05T14:12:32.095Z</time>
      </trkpt>
      <trkpt lat="48.79898" lon="2.22798">
        <ele>176</ele>
        <time>2020-12-05T14:12:33.094Z</time>
      </trkpt>
      <trkpt lat="48.79898" lon="2.22798">
        <ele>176</ele>
        <time>2020-12-05T14:12:34.094Z</time>
      </trkpt>
      <trkpt lat="48.79897" lon="2.22797">
        <ele>176</ele>
        <time>2020-12-05T14:12:35.094Z</time>
      </trkpt>
      <trkpt lat="48.79897" lon="2.22797">
        <ele>176</ele>
        <time>2020-12-05T14:12:36.095Z</time>
      </trkpt>
      <trkpt lat="48.79897" lon="2.22797">
        <ele>175</ele>
        <time>2020-12-05T14:12:37.095Z</time>
      </trkpt>
      <trkpt lat="48.79897" lon="2.22798">
        <ele>175</ele>
        <time>2020-12-05T14:12:38.095Z</time>
      </trkpt>
      <trkpt lat="48.79898" lon="2.22798">
        <ele>175</ele>
        <time>2020-12-05T14:12:39.095Z</time>
      </trkpt>
      <trkpt lat="48.79899" lon="2.22799">
        <ele>174</ele>
        <time>2020-12-05T14:12:40.094Z</time>
      </trkpt>
      <trkpt lat="48.79899" lon="2.22799">
        <ele>174</ele>
        <time>2020-12-05T14:12:41.095Z</time>
      </trkpt>
      <trkpt lat="48.79899" lon="2.22799">
        <ele>174</ele>
        <time>2020-12-05T14:12:42.095Z</time>
      </trkpt>
      <trkpt lat="48.79898" lon="2.228">
        <ele>174</ele>
        <time>2020-12-05T14:12:43.095Z</time>
      </trkpt>
      <trkpt lat="48.79898" lon="2.228">
        <ele>174</ele>
        <time>2020-12-05T14:12:44.095Z</time>
      </trkpt>
      <trkpt lat="48.79898" lon="2.22799">
        <ele>175</ele>
        <time>2020-12-05T14:12:45.095Z</time>
      </trkpt>
      <trkpt lat="48.79898" lon="2.22798">
        <ele>175</ele>
        <time>2020-12-05T14:12:46.095Z</time>
      </trkpt>
      <trkpt lat="48.79898" lon="2.22799">
        <ele>174</ele>
        <time>2020-12-05T14:12:47.095Z</time>
      </trkpt>
      <trkpt lat="48.79898" lon="2.228">
        <ele>174</ele>
        <time>2020-12-05T14:12:48.095Z</time>
      </trkpt>
      <trkpt lat="48.79899" lon="2.228">
        <ele>174</ele>
        <time>2020-12-05T14:12:49.094Z</time>
      </trkpt>
      <trkpt lat="48.799" lon="2.228">
        <ele>174</ele>
        <time>2020-12-05T14:12:50.095Z</time>
      </trkpt>
      <trkpt lat="48.799" lon="2.22801">
        <ele>174</ele>
        <time>2020-12-05T14:12:51.094Z</time>
      </trkpt>
      <trkpt lat="48.79901" lon="2.22801">
        <ele>174</ele>
        <time>2020-12-05T14:12:52.095Z</time>
      </trkpt>
      <trkpt lat="48.79902" lon="2.22802">
        <ele>174</ele>
        <time>2020-12-05T14:12:53.095Z</time>
      </trkpt>
      <trkpt lat="48.79904" lon="2.22803">
        <ele>174</ele>
        <time>2020-12-05T14:12:54.095Z</time>
      </trkpt>
      <trkpt lat="48.79904" lon="2.22804">
        <ele>174</ele>
        <time>2020-12-05T14:12:55.095Z</time>
      </trkpt>
      <trkpt lat="48.79905" lon="2.22805">
        <ele>174</ele>
        <time>2020-12-05T14:12:56.095Z</time>
      </trkpt>
      <trkpt lat="48.79905" lon="2.22806">
        <ele>174</ele>
        <time>2020-12-05T14:12:57.095Z</time>
      </trkpt>
      <trkpt lat="48.79906" lon="2.22806">
        <ele>174</ele>
        <time>2020-12-05T14:12:58.095Z</time>
      </trkpt>
      <trkpt lat="48.79907" lon="2.22805">
        <ele>174</ele>
        <time>2020-12-05T14:12:59.095Z</time>
      </trkpt>
      <trkpt lat="48.79908" lon="2.22805">
        <ele>174</ele>
        <time>2020-12-05T14:13:00.095Z</time>
      </trkpt>
      <trkpt lat="48.79907" lon="2.22805">
        <ele>174</ele>
        <time>2020-12-05T14:13:01.094Z</time>
      </trkpt>
      <trkpt lat="48.79905" lon="2.22806">
        <ele>174</ele>
        <time>2020-12-05T14:13:02.095Z</time>
      </trkpt>
      <trkpt lat="48.79904" lon="2.22807">
        <ele>175</ele>
        <time>2020-12-05T14:13:03.095Z</time>
      </trkpt>
      <trkpt lat="48.79903" lon="2.22808">
        <ele>175</ele>
        <time>2020-12-05T14:13:04.095Z</time>
      </trkpt>
      <trkpt lat="48.79902" lon="2.22808">
        <ele>175</ele>
        <time>2020-12-05T14:13:05.095Z</time>
      </trkpt>
      <trkpt lat="48.79902" lon="2.22808">
        <ele>175</ele>
        <time>2020-12-05T14:13:06.095Z</time>
      </trkpt>
      <trkpt lat="48.79902" lon="2.22809">
        <ele>175</ele>
        <time>2020-12-05T14:13:07.095Z</time>
      </trkpt>
      <trkpt lat="48.79902" lon="2.22809">
        <ele>175</ele>
        <time>2020-12-05T14:13:08.095Z</time>
      </trkpt>
      <trkpt lat="48.79902" lon="2.22809">
        <ele>175</ele>
        <time>2020-12-05T14:13:09.094Z</time>
      </trkpt>
      <trkpt lat="48.79902" lon="2.22809">
        <ele>175</ele>
        <time>2020-12-05T14:13:10.095Z</time>
      </trkpt>
      <trkpt lat="48.79902" lon="2.22809">
        <ele>174</ele>
        <time>2020-12-05T14:13:11.095Z</time>
      </trkpt>
      <trkpt lat="48.79901" lon="2.22809">
        <ele>174</ele>
        <time>2020-12-05T14:13:12.095Z</time>
      </trkpt>
      <trkpt lat="48.79901" lon="2.22808">
        <ele>174</ele>
        <time>2020-12-05T14:13:13.095Z</time>
      </trkpt>
      <trkpt lat="48.799" lon="2.22808">
        <ele>174</ele>
        <time>2020-12-05T14:13:14.095Z</time>
      </trkpt>
      <trkpt lat="48.799" lon="2.22807">
        <ele>174</ele>
        <time>2020-12-05T14:13:15.095Z</time>
      </trkpt>
      <trkpt lat="48.799" lon="2.22807">
        <ele>174</ele>
        <time>2020-12-05T14:13:16.095Z</time>
      </trkpt>
      <trkpt lat="48.799" lon="2.22806">
        <ele>173</ele>
        <time>2020-12-05T14:13:17.095Z</time>
      </trkpt>
      <trkpt lat="48.799" lon="2.22806">
        <ele>173</ele>
        <time>2020-12-05T14:13:18.095Z</time>
      </trkpt>
      <trkpt lat="48.799" lon="2.22807">
        <ele>173</ele>
        <time>2020-12-05T14:13:19.095Z</time>
      </trkpt>
      <trkpt lat="48.79899" lon="2.22807">
        <ele>173</ele>
        <time>2020-12-05T14:13:20.095Z</time>
      </trkpt>
      <trkpt lat="48.79898" lon="2.22807">
        <ele>173</ele>
        <time>2020-12-05T14:13:21.095Z</time>
      </trkpt>
      <trkpt lat="48.79898" lon="2.22807">
        <ele>173</ele>
        <time>2020-12-05T14:13:22.095Z</time>
      </trkpt>
      <trkpt lat="48.79897" lon="2.22807">
        <ele>173</ele>
        <time>2020-12-05T14:13:23.095Z</time>
      </trkpt>
      <trkpt lat="48.79896" lon="2.22807">
        <ele>173</ele>
        <time>2020-12-05T14:13:24.095Z</time>
      </trkpt>
      <trkpt lat="48.79896" lon="2.22807">
        <ele>173</ele>
        <time>2020-12-05T14:13:25.095Z</time>
      </trkpt>
      <trkpt lat="48.79895" lon="2.22807">
        <ele>173</ele>
        <time>2020-12-05T14:13:26.095Z</time>
      </trkpt>
      <trkpt lat="48.79894" lon="2.22807">
        <ele>173</ele>
        <time>2020-12-05T14:13:27.095Z</time>
      </trkpt>
      <trkpt lat="48.79894" lon="2.22808">
        <ele>173</ele>
        <time>2020-12-05T14:13:28.095Z</time>
      </trkpt>
      <trkpt lat="48.79893" lon="2.22808">
        <ele>173</ele>
        <time>2020-12-05T14:13:29.095Z</time>
      </trkpt>
      <trkpt lat="48.79891" lon="2.22808">
        <ele>173</ele>
        <time>2020-12-05T14:13:30.095Z</time>
      </trkpt>
      <trkpt lat="48.79889" lon="2.22808">
        <ele>173</ele>
        <time>2020-12-05T14:13:31.095Z</time>
      </trkpt>
      <trkpt lat="48.79888" lon="2.22808">
        <ele>173</ele>
        <time>2020-12-05T14:13:32.095Z</time>
      </trkpt>
      <trkpt lat="48.79885" lon="2.22809">
        <ele>173</ele>
        <time>2020-12-05T14:13:33.095Z</time>
      </trkpt>
      <trkpt lat="48.79884" lon="2.22809">
        <ele>173</ele>
        <time>2020-12-05T14:13:34.095Z</time>
      </trkpt>
      <trkpt lat="48.79882" lon="2.22808">
        <ele>173</ele>
        <time>2020-12-05T14:13:35.094Z</time>
      </trkpt>
      <trkpt lat="48.79881" lon="2.22808">
        <ele>173</ele>
        <time>2020-12-05T14:13:36.095Z</time>
      </trkpt>
      <trkpt lat="48.7988" lon="2.22808">
        <ele>173</ele>
        <time>2020-12-05T14:13:37.095Z</time>
      </trkpt>
      <trkpt lat="48.79879" lon="2.22807">
        <ele>174</ele>
        <time>2020-12-05T14:13:38.095Z</time>
      </trkpt>
      <trkpt lat="48.79878" lon="2.22807">
        <ele>174</ele>
        <time>2020-12-05T14:13:39.095Z</time>
      </trkpt>
      <trkpt lat="48.79877" lon="2.22807">
        <ele>174</ele>
        <time>2020-12-05T14:13:40.095Z</time>
      </trkpt>
      <trkpt lat="48.79875" lon="2.22808">
        <ele>174</ele>
        <time>2020-12-05T14:13:41.095Z</time>
      </trkpt>
      <trkpt lat="48.79873" lon="2.22809">
        <ele>175</ele>
        <time>2020-12-05T14:13:42.095Z</time>
      </trkpt>
      <trkpt lat="48.79873" lon="2.2281">
        <ele>175</ele>
        <time>2020-12-05T14:13:43.095Z</time>
      </trkpt>
      <trkpt lat="48.79872" lon="2.22809">
        <ele>175</ele>
        <time>2020-12-05T14:13:44.094Z</time>
      </trkpt>
      <trkpt lat="48.7987" lon="2.22809">
        <ele>175</ele>
        <time>2020-12-05T14:13:45.095Z</time>
      </trkpt>
      <trkpt lat="48.79869" lon="2.22809">
        <ele>175</ele>
        <time>2020-12-05T14:13:46.095Z</time>
      </trkpt>
      <trkpt lat="48.79868" lon="2.22809">
        <ele>176</ele>
        <time>2020-12-05T14:13:47.095Z</time>
      </trkpt>
      <trkpt lat="48.79867" lon="2.22809">
        <ele>176</ele>
        <time>2020-12-05T14:13:48.095Z</time>
      </trkpt>
      <trkpt lat="48.79866" lon="2.22809">
        <ele>176</ele>
        <time>2020-12-05T14:13:49.095Z</time>
      </trkpt>
      <trkpt lat="48.79866" lon="2.22808">
        <ele>176</ele>
        <time>2020-12-05T14:13:50.095Z</time>
      </trkpt>
      <trkpt lat="48.79865" lon="2.22807">
        <ele>176</ele>
        <time>2020-12-05T14:13:51.095Z</time>
      </trkpt>
      <trkpt lat="48.79865" lon="2.22807">
        <ele>176</ele>
        <time>2020-12-05T14:13:52.095Z</time>
      </trkpt>
      <trkpt lat="48.79864" lon="2.22806">
        <ele>176</ele>
        <time>2020-12-05T14:13:53.094Z</time>
      </trkpt>
      <trkpt lat="48.79864" lon="2.22806">
        <ele>176</ele>
        <time>2020-12-05T14:13:54.095Z</time>
      </trkpt>
      <trkpt lat="48.79863" lon="2.22806">
        <ele>176</ele>
        <time>2020-12-05T14:13:55.095Z</time>
      </trkpt>
      <trkpt lat="48.79862" lon="2.22806">
        <ele>176</ele>
        <time>2020-12-05T14:13:56.095Z</time>
      </trkpt>
      <trkpt lat="48.79861" lon="2.22806">
        <ele>175</ele>
        <time>2020-12-05T14:13:57.094Z</time>
      </trkpt>
      <trkpt lat="48.7986" lon="2.22807">
        <ele>175</ele>
        <time>2020-12-05T14:13:58.094Z</time>
      </trkpt>
      <trkpt lat="48.79859" lon="2.22807">
        <ele>175</ele>
        <time>2020-12-05T14:13:59.094Z</time>
      </trkpt>
      <trkpt lat="48.79858" lon="2.22807">
        <ele>175</ele>
        <time>2020-12-05T14:14:00.094Z</time>
      </trkpt>
      <trkpt lat="48.79858" lon="2.22806">
        <ele>175</ele>
        <time>2020-12-05T14:14:01.095Z</time>
      </trkpt>
      <trkpt lat="48.79857" lon="2.22806">
        <ele>175</ele>
        <time>2020-12-05T14:14:02.095Z</time>
      </trkpt>
      <trkpt lat="48.79857" lon="2.22806">
        <ele>175</ele>
        <time>2020-12-05T14:14:03.095Z</time>
      </trkpt>
      <trkpt lat="48.79855" lon="2.22806">
        <ele>175</ele>
        <time>2020-12-05T14:14:04.094Z</time>
      </trkpt>
      <trkpt lat="48.79853" lon="2.22807">
        <ele>175</ele>
        <time>2020-12-05T14:14:05.094Z</time>
      </trkpt>
      <trkpt lat="48.79852" lon="2.22806">
        <ele>175</ele>
        <time>2020-12-05T14:14:06.095Z</time>
      </trkpt>
      <trkpt lat="48.7985" lon="2.22806">
        <ele>175</ele>
        <time>2020-12-05T14:14:07.095Z</time>
      </trkpt>
      <trkpt lat="48.7985" lon="2.22805">
        <ele>175</ele>
        <time>2020-12-05T14:14:08.095Z</time>
      </trkpt>
      <trkpt lat="48.79849" lon="2.22805">
        <ele>175</ele>
        <time>2020-12-05T14:14:09.095Z</time>
      </trkpt>
      <trkpt lat="48.79848" lon="2.22806">
        <ele>175</ele>
        <time>2020-12-05T14:14:10.094Z</time>
      </trkpt>
      <trkpt lat="48.79847" lon="2.22806">
        <ele>175</ele>
        <time>2020-12-05T14:14:11.095Z</time>
      </trkpt>
      <trkpt lat="48.79846" lon="2.22806">
        <ele>176</ele>
        <time>2020-12-05T14:14:12.095Z</time>
      </trkpt>
      <trkpt lat="48.79845" lon="2.22806">
        <ele>176</ele>
        <time>2020-12-05T14:14:13.095Z</time>
      </trkpt>
      <trkpt lat="48.79844" lon="2.22806">
        <ele>176</ele>
        <time>2020-12-05T14:14:14.095Z</time>
      </trkpt>
      <trkpt lat="48.79844" lon="2.22806">
        <ele>176</ele>
        <time>2020-12-05T14:14:15.095Z</time>
      </trkpt>
      <trkpt lat="48.79844" lon="2.22806">
        <ele>176</ele>
        <time>2020-12-05T14:14:16.095Z</time>
      </trkpt>
      <trkpt lat="48.79844" lon="2.22806">
        <ele>176</ele>
        <time>2020-12-05T14:14:17.095Z</time>
      </trkpt>
      <trkpt lat="48.79845" lon="2.22806">
        <ele>176</ele>
        <time>2020-12-05T14:14:18.095Z</time>
      </trkpt>
      <trkpt lat="48.79846" lon="2.22806">
        <ele>176</ele>
        <time>2020-12-05T14:14:19.095Z</time>
      </trkpt>
      <trkpt lat="48.79846" lon="2.22807">
        <ele>176</ele>
        <time>2020-12-05T14:14:20.095Z</time>
      </trkpt>
      <trkpt lat="48.79846" lon="2.22807">
        <ele>176</ele>
        <time>2020-12-05T14:14:21.095Z</time>
      </trkpt>
      <trkpt lat="48.79846" lon="2.22807">
        <ele>176</ele>
        <time>2020-12-05T14:14:22.095Z</time>
      </trkpt>
      <trkpt lat="48.79846" lon="2.22807">
        <ele>176</ele>
        <time>2020-12-05T14:14:23.095Z</time>
      </trkpt>
      <trkpt lat="48.79845" lon="2.22806">
        <ele>175</ele>
        <time>2020-12-05T14:14:24.095Z</time>
      </trkpt>
      <trkpt lat="48.79845" lon="2.22806">
        <ele>175</ele>
        <time>2020-12-05T14:14:25.094Z</time>
      </trkpt>
      <trkpt lat="48.79844" lon="2.22806">
        <ele>175</ele>
        <time>2020-12-05T14:14:26.095Z</time>
      </trkpt>
      <trkpt lat="48.79843" lon="2.22805">
        <ele>175</ele>
        <time>2020-12-05T14:14:27.095Z</time>
      </trkpt>
      <trkpt lat="48.79843" lon="2.22805">
        <ele>175</ele>
        <time>2020-12-05T14:14:28.094Z</time>
      </trkpt>
      <trkpt lat="48.79842" lon="2.22804">
        <ele>175</ele>
        <time>2020-12-05T14:14:29.095Z</time>
      </trkpt>
      <trkpt lat="48.79841" lon="2.22805">
        <ele>174</ele>
        <time>2020-12-05T14:14:30.095Z</time>
      </trkpt>
      <trkpt lat="48.79841" lon="2.22804">
        <ele>174</ele>
        <time>2020-12-05T14:14:31.095Z</time>
      </trkpt>
      <trkpt lat="48.7984" lon="2.22804">
        <ele>175</ele>
        <time>2020-12-05T14:14:32.094Z</time>
      </trkpt>
      <trkpt lat="48.79839" lon="2.22804">
        <ele>175</ele>
        <time>2020-12-05T14:14:33.094Z</time>
      </trkpt>
      <trkpt lat="48.79839" lon="2.22803">
        <ele>175</ele>
        <time>2020-12-05T14:14:34.094Z</time>
      </trkpt>
      <trkpt lat="48.79838" lon="2.22803">
        <ele>175</ele>
        <time>2020-12-05T14:14:35.095Z</time>
      </trkpt>
      <trkpt lat="48.79838" lon="2.22802">
        <ele>175</ele>
        <time>2020-12-05T14:14:36.095Z</time>
      </trkpt>
      <trkpt lat="48.79837" lon="2.22802">
        <ele>175</ele>
        <time>2020-12-05T14:14:37.095Z</time>
      </trkpt>
      <trkpt lat="48.79835" lon="2.22802">
        <ele>175</ele>
        <time>2020-12-05T14:14:38.095Z</time>
      </trkpt>
      <trkpt lat="48.79834" lon="2.22802">
        <ele>175</ele>
        <time>2020-12-05T14:14:39.095Z</time>
      </trkpt>
      <trkpt lat="48.79831" lon="2.22802">
        <ele>175</ele>
        <time>2020-12-05T14:14:40.095Z</time>
      </trkpt>
      <trkpt lat="48.79829" lon="2.22801">
        <ele>174</ele>
        <time>2020-12-05T14:14:41.095Z</time>
      </trkpt>
      <trkpt lat="48.79827" lon="2.228">
        <ele>174</ele>
        <time>2020-12-05T14:14:42.095Z</time>
      </trkpt>
      <trkpt lat="48.79826" lon="2.22799">
        <ele>174</ele>
        <time>2020-12-05T14:14:43.095Z</time>
      </trkpt>
      <trkpt lat="48.79824" lon="2.22798">
        <ele>174</ele>
        <time>2020-12-05T14:14:44.095Z</time>
      </trkpt>
      <trkpt lat="48.79823" lon="2.22797">
        <ele>173</ele>
        <time>2020-12-05T14:14:45.094Z</time>
      </trkpt>
      <trkpt lat="48.79821" lon="2.22796">
        <ele>173</ele>
        <time>2020-12-05T14:14:46.095Z</time>
      </trkpt>
      <trkpt lat="48.7982" lon="2.22796">
        <ele>173</ele>
        <time>2020-12-05T14:14:47.095Z</time>
      </trkpt>
      <trkpt lat="48.79818" lon="2.22795">
        <ele>172</ele>
        <time>2020-12-05T14:14:48.095Z</time>
      </trkpt>
      <trkpt lat="48.79816" lon="2.22795">
        <ele>172</ele>
        <time>2020-12-05T14:14:49.095Z</time>
      </trkpt>
      <trkpt lat="48.79815" lon="2.22795">
        <ele>171</ele>
        <time>2020-12-05T14:14:50.095Z</time>
      </trkpt>
      <trkpt lat="48.79813" lon="2.22795">
        <ele>171</ele>
        <time>2020-12-05T14:14:51.095Z</time>
      </trkpt>
      <trkpt lat="48.79811" lon="2.22796">
        <ele>170</ele>
        <time>2020-12-05T14:14:52.095Z</time>
      </trkpt>
      <trkpt lat="48.79809" lon="2.22796">
        <ele>170</ele>
        <time>2020-12-05T14:14:53.095Z</time>
      </trkpt>
      <trkpt lat="48.79808" lon="2.22797">
        <ele>169</ele>
        <time>2020-12-05T14:14:54.095Z</time>
      </trkpt>
      <trkpt lat="48.79806" lon="2.22797">
        <ele>169</ele>
        <time>2020-12-05T14:14:55.095Z</time>
      </trkpt>
      <trkpt lat="48.79805" lon="2.22796">
        <ele>168</ele>
        <time>2020-12-05T14:14:56.095Z</time>
      </trkpt>
      <trkpt lat="48.79804" lon="2.22796">
        <ele>168</ele>
        <time>2020-12-05T14:14:57.095Z</time>
      </trkpt>
      <trkpt lat="48.79803" lon="2.22794">
        <ele>168</ele>
        <time>2020-12-05T14:14:58.095Z</time>
      </trkpt>
      <trkpt lat="48.79801" lon="2.22791">
        <ele>167</ele>
        <time>2020-12-05T14:14:59.095Z</time>
      </trkpt>
      <trkpt lat="48.79801" lon="2.22789">
        <ele>167</ele>
        <time>2020-12-05T14:15:00.095Z</time>
      </trkpt>
      <trkpt lat="48.798" lon="2.22787">
        <ele>166</ele>
        <time>2020-12-05T14:15:01.095Z</time>
      </trkpt>
      <trkpt lat="48.79799" lon="2.22787">
        <ele>166</ele>
        <time>2020-12-05T14:15:02.094Z</time>
      </trkpt>
      <trkpt lat="48.79799" lon="2.22787">
        <ele>165</ele>
        <time>2020-12-05T14:15:03.094Z</time>
      </trkpt>
      <trkpt lat="48.79798" lon="2.22787">
        <ele>165</ele>
        <time>2020-12-05T14:15:04.094Z</time>
      </trkpt>
      <trkpt lat="48.79798" lon="2.22787">
        <ele>165</ele>
        <time>2020-12-05T14:15:05.094Z</time>
      </trkpt>
      <trkpt lat="48.79796" lon="2.22787">
        <ele>164</ele>
        <time>2020-12-05T14:15:06.095Z</time>
      </trkpt>
      <trkpt lat="48.79795" lon="2.22786">
        <ele>163</ele>
        <time>2020-12-05T14:15:07.095Z</time>
      </trkpt>
      <trkpt lat="48.79793" lon="2.22786">
        <ele>162</ele>
        <time>2020-12-05T14:15:08.095Z</time>
      </trkpt>
      <trkpt lat="48.79792" lon="2.22786">
        <ele>162</ele>
        <time>2020-12-05T14:15:09.095Z</time>
      </trkpt>
      <trkpt lat="48.79792" lon="2.22785">
        <ele>161</ele>
        <time>2020-12-05T14:15:10.095Z</time>
      </trkpt>
      <trkpt lat="48.79791" lon="2.22784">
        <ele>161</ele>
        <time>2020-12-05T14:15:11.095Z</time>
      </trkpt>
      <trkpt lat="48.79791" lon="2.22783">
        <ele>161</ele>
        <time>2020-12-05T14:15:12.095Z</time>
      </trkpt>
      <trkpt lat="48.79791" lon="2.22782">
        <ele>160</ele>
        <time>2020-12-05T14:15:13.095Z</time>
      </trkpt>
      <trkpt lat="48.79791" lon="2.22782">
        <ele>160</ele>
        <time>2020-12-05T14:15:14.095Z</time>
      </trkpt>
      <trkpt lat="48.79791" lon="2.2278">
        <ele>160</ele>
        <time>2020-12-05T14:15:15.095Z</time>
      </trkpt>
      <trkpt lat="48.7979" lon="2.22779">
        <ele>160</ele>
        <time>2020-12-05T14:15:16.095Z</time>
      </trkpt>
      <trkpt lat="48.79789" lon="2.22778">
        <ele>160</ele>
        <time>2020-12-05T14:15:17.095Z</time>
      </trkpt>
      <trkpt lat="48.79788" lon="2.22777">
        <ele>160</ele>
        <time>2020-12-05T14:15:18.095Z</time>
      </trkpt>
      <trkpt lat="48.79787" lon="2.22777">
        <ele>159</ele>
        <time>2020-12-05T14:15:19.095Z</time>
      </trkpt>
      <trkpt lat="48.79785" lon="2.22777">
        <ele>159</ele>
        <time>2020-12-05T14:15:20.095Z</time>
      </trkpt>
      <trkpt lat="48.79784" lon="2.22777">
        <ele>159</ele>
        <time>2020-12-05T14:15:21.094Z</time>
      </trkpt>
      <trkpt lat="48.79783" lon="2.22777">
        <ele>159</ele>
        <time>2020-12-05T14:15:22.094Z</time>
      </trkpt>
      <trkpt lat="48.79782" lon="2.22777">
        <ele>158</ele>
        <time>2020-12-05T14:15:23.095Z</time>
      </trkpt>
      <trkpt lat="48.79782" lon="2.22777">
        <ele>158</ele>
        <time>2020-12-05T14:15:24.095Z</time>
      </trkpt>
      <trkpt lat="48.7978" lon="2.22777">
        <ele>157</ele>
        <time>2020-12-05T14:15:25.095Z</time>
      </trkpt>
      <trkpt lat="48.79779" lon="2.22777">
        <ele>156</ele>
        <time>2020-12-05T14:15:26.095Z</time>
      </trkpt>
      <trkpt lat="48.79778" lon="2.22777">
        <ele>156</ele>
        <time>2020-12-05T14:15:27.095Z</time>
      </trkpt>
      <trkpt lat="48.79777" lon="2.22777">
        <ele>155</ele>
        <time>2020-12-05T14:15:28.095Z</time>
      </trkpt>
      <trkpt lat="48.79776" lon="2.22777">
        <ele>154</ele>
        <time>2020-12-05T14:15:29.095Z</time>
      </trkpt>
      <trkpt lat="48.79775" lon="2.22777">
        <ele>154</ele>
        <time>2020-12-05T14:15:30.094Z</time>
      </trkpt>
      <trkpt lat="48.79774" lon="2.22776">
        <ele>153</ele>
        <time>2020-12-05T14:15:31.094Z</time>
      </trkpt>
      <trkpt lat="48.79773" lon="2.22775">
        <ele>153</ele>
        <time>2020-12-05T14:15:32.095Z</time>
      </trkpt>
      <trkpt lat="48.79772" lon="2.22775">
        <ele>152</ele>
        <time>2020-12-05T14:15:33.094Z</time>
      </trkpt>
      <trkpt lat="48.7977" lon="2.22775">
        <ele>152</ele>
        <time>2020-12-05T14:15:34.094Z</time>
      </trkpt>
      <trkpt lat="48.79769" lon="2.22774">
        <ele>151</ele>
        <time>2020-12-05T14:15:35.094Z</time>
      </trkpt>
      <trkpt lat="48.79768" lon="2.22774">
        <ele>150</ele>
        <time>2020-12-05T14:15:36.094Z</time>
      </trkpt>
      <trkpt lat="48.79766" lon="2.22773">
        <ele>150</ele>
        <time>2020-12-05T14:15:37.094Z</time>
      </trkpt>
      <trkpt lat="48.79763" lon="2.22773">
        <ele>150</ele>
        <time>2020-12-05T14:15:38.094Z</time>
      </trkpt>
      <trkpt lat="48.79761" lon="2.22772">
        <ele>149</ele>
        <time>2020-12-05T14:15:39.095Z</time>
      </trkpt>
      <trkpt lat="48.7976" lon="2.22771">
        <ele>150</ele>
        <time>2020-12-05T14:15:40.095Z</time>
      </trkpt>
      <trkpt lat="48.79758" lon="2.22771">
        <ele>150</ele>
        <time>2020-12-05T14:15:41.095Z</time>
      </trkpt>
      <trkpt lat="48.79757" lon="2.22771">
        <ele>150</ele>
        <time>2020-12-05T14:15:42.094Z</time>
      </trkpt>
      <trkpt lat="48.79756" lon="2.22771">
        <ele>150</ele>
        <time>2020-12-05T14:15:43.094Z</time>
      </trkpt>
      <trkpt lat="48.79755" lon="2.22772">
        <ele>150</ele>
        <time>2020-12-05T14:15:44.094Z</time>
      </trkpt>
      <trkpt lat="48.79754" lon="2.22772">
        <ele>149</ele>
        <time>2020-12-05T14:15:45.094Z</time>
      </trkpt>
      <trkpt lat="48.79754" lon="2.22772">
        <ele>149</ele>
        <time>2020-12-05T14:15:46.095Z</time>
      </trkpt>
      <trkpt lat="48.79753" lon="2.22771">
        <ele>149</ele>
        <time>2020-12-05T14:15:47.095Z</time>
      </trkpt>
      <trkpt lat="48.79753" lon="2.22771">
        <ele>149</ele>
        <time>2020-12-05T14:15:48.095Z</time>
      </trkpt>
      <trkpt lat="48.79753" lon="2.2277">
        <ele>149</ele>
        <time>2020-12-05T14:15:49.094Z</time>
      </trkpt>
      <trkpt lat="48.79753" lon="2.22771">
        <ele>149</ele>
        <time>2020-12-05T14:15:50.095Z</time>
      </trkpt>
      <trkpt lat="48.79752" lon="2.22771">
        <ele>148</ele>
        <time>2020-12-05T14:15:51.095Z</time>
      </trkpt>
      <trkpt lat="48.79752" lon="2.22772">
        <ele>148</ele>
        <time>2020-12-05T14:15:52.095Z</time>
      </trkpt>
      <trkpt lat="48.79752" lon="2.22773">
        <ele>148</ele>
        <time>2020-12-05T14:15:53.095Z</time>
      </trkpt>
      <trkpt lat="48.79752" lon="2.22773">
        <ele>148</ele>
        <time>2020-12-05T14:15:54.095Z</time>
      </trkpt>
      <trkpt lat="48.79752" lon="2.22774">
        <ele>148</ele>
        <time>2020-12-05T14:15:55.094Z</time>
      </trkpt>
      <trkpt lat="48.79752" lon="2.22773">
        <ele>148</ele>
        <time>2020-12-05T14:15:56.095Z</time>
      </trkpt>
      <trkpt lat="48.79752" lon="2.22773">
        <ele>148</ele>
        <time>2020-12-05T14:15:57.095Z</time>
      </trkpt>
      <trkpt lat="48.79752" lon="2.22773">
        <ele>148</ele>
        <time>2020-12-05T14:15:58.095Z</time>
      </trkpt>
      <trkpt lat="48.79752" lon="2.22773">
        <ele>148</ele>
        <time>2020-12-05T14:15:59.095Z</time>
      </trkpt>
      <trkpt lat="48.79752" lon="2.22773">
        <ele>148</ele>
        <time>2020-12-05T14:16:00.095Z</time>
      </trkpt>
      <trkpt lat="48.79752" lon="2.22773">
        <ele>148</ele>
        <time>2020-12-05T14:16:01.094Z</time>
      </trkpt>
      <trkpt lat="48.79752" lon="2.22772">
        <ele>149</ele>
        <time>2020-12-05T14:16:02.095Z</time>
      </trkpt>
      <trkpt lat="48.79752" lon="2.22772">
        <ele>149</ele>
        <time>2020-12-05T14:16:03.095Z</time>
      </trkpt>
      <trkpt lat="48.79751" lon="2.22773">
        <ele>149</ele>
        <time>2020-12-05T14:16:04.095Z</time>
      </trkpt>
      <trkpt lat="48.79751" lon="2.22773">
        <ele>150</ele>
        <time>2020-12-05T14:16:05.095Z</time>
      </trkpt>
      <trkpt lat="48.7975" lon="2.22773">
        <ele>150</ele>
        <time>2020-12-05T14:16:06.095Z</time>
      </trkpt>
      <trkpt lat="48.79749" lon="2.22773">
        <ele>150</ele>
        <time>2020-12-05T14:16:07.095Z</time>
      </trkpt>
      <trkpt lat="48.79748" lon="2.22774">
        <ele>151</ele>
        <time>2020-12-05T14:16:08.095Z</time>
      </trkpt>
      <trkpt lat="48.79748" lon="2.22774">
        <ele>151</ele>
        <time>2020-12-05T14:16:09.095Z</time>
      </trkpt>
      <trkpt lat="48.79748" lon="2.22774">
        <ele>151</ele>
        <time>2020-12-05T14:16:10.094Z</time>
      </trkpt>
      <trkpt lat="48.79747" lon="2.22773">
        <ele>152</ele>
        <time>2020-12-05T14:16:11.094Z</time>
      </trkpt>
      <trkpt lat="48.79747" lon="2.22773">
        <ele>152</ele>
        <time>2020-12-05T14:16:12.094Z</time>
      </trkpt>
      <trkpt lat="48.79747" lon="2.22773">
        <ele>153</ele>
        <time>2020-12-05T14:16:13.094Z</time>
      </trkpt>
      <trkpt lat="48.79748" lon="2.22772">
        <ele>153</ele>
        <time>2020-12-05T14:16:14.095Z</time>
      </trkpt>
      <trkpt lat="48.79748" lon="2.22771">
        <ele>154</ele>
        <time>2020-12-05T14:16:15.094Z</time>
      </trkpt>
      <trkpt lat="48.79748" lon="2.2277">
        <ele>154</ele>
        <time>2020-12-05T14:16:16.095Z</time>
      </trkpt>
      <trkpt lat="48.79749" lon="2.22768">
        <ele>154</ele>
        <time>2020-12-05T14:16:17.095Z</time>
      </trkpt>
      <trkpt lat="48.79749" lon="2.22766">
        <ele>154</ele>
        <time>2020-12-05T14:16:18.095Z</time>
      </trkpt>
      <trkpt lat="48.7975" lon="2.22765">
        <ele>154</ele>
        <time>2020-12-05T14:16:19.095Z</time>
      </trkpt>
      <trkpt lat="48.7975" lon="2.22763">
        <ele>154</ele>
        <time>2020-12-05T14:16:20.095Z</time>
      </trkpt>
      <trkpt lat="48.7975" lon="2.22762">
        <ele>154</ele>
        <time>2020-12-05T14:16:21.095Z</time>
      </trkpt>
      <trkpt lat="48.79749" lon="2.22761">
        <ele>154</ele>
        <time>2020-12-05T14:16:22.094Z</time>
      </trkpt>
      <trkpt lat="48.79749" lon="2.2276">
        <ele>154</ele>
        <time>2020-12-05T14:16:23.094Z</time>
      </trkpt>
      <trkpt lat="48.79748" lon="2.22759">
        <ele>154</ele>
        <time>2020-12-05T14:16:24.095Z</time>
      </trkpt>
      <trkpt lat="48.79747" lon="2.22758">
        <ele>153</ele>
        <time>2020-12-05T14:16:25.095Z</time>
      </trkpt>
      <trkpt lat="48.79747" lon="2.22758">
        <ele>153</ele>
        <time>2020-12-05T14:16:26.095Z</time>
      </trkpt>
      <trkpt lat="48.79746" lon="2.22757">
        <ele>153</ele>
        <time>2020-12-05T14:16:27.095Z</time>
      </trkpt>
      <trkpt lat="48.79745" lon="2.22757">
        <ele>152</ele>
        <time>2020-12-05T14:16:28.095Z</time>
      </trkpt>
      <trkpt lat="48.79744" lon="2.22756">
        <ele>152</ele>
        <time>2020-12-05T14:16:29.095Z</time>
      </trkpt>
      <trkpt lat="48.79744" lon="2.22756">
        <ele>152</ele>
        <time>2020-12-05T14:16:30.095Z</time>
      </trkpt>
      <trkpt lat="48.79743" lon="2.22756">
        <ele>151</ele>
        <time>2020-12-05T14:16:31.095Z</time>
      </trkpt>
      <trkpt lat="48.79743" lon="2.22756">
        <ele>151</ele>
        <time>2020-12-05T14:16:32.095Z</time>
      </trkpt>
      <trkpt lat="48.79742" lon="2.22758">
        <ele>150</ele>
        <time>2020-12-05T14:16:33.095Z</time>
      </trkpt>
      <trkpt lat="48.79742" lon="2.22759">
        <ele>150</ele>
        <time>2020-12-05T14:16:34.095Z</time>
      </trkpt>
      <trkpt lat="48.79741" lon="2.2276">
        <ele>150</ele>
        <time>2020-12-05T14:16:35.095Z</time>
      </trkpt>
      <trkpt lat="48.7974" lon="2.22762">
        <ele>150</ele>
        <time>2020-12-05T14:16:36.095Z</time>
      </trkpt>
      <trkpt lat="48.79738" lon="2.22763">
        <ele>150</ele>
        <time>2020-12-05T14:16:37.095Z</time>
      </trkpt>
      <trkpt lat="48.79737" lon="2.22764">
        <ele>149</ele>
        <time>2020-12-05T14:16:38.094Z</time>
      </trkpt>
      <trkpt lat="48.79736" lon="2.22765">
        <ele>149</ele>
        <time>2020-12-05T14:16:39.095Z</time>
      </trkpt>
      <trkpt lat="48.79735" lon="2.22765">
        <ele>149</ele>
        <time>2020-12-05T14:16:40.095Z</time>
      </trkpt>
      <trkpt lat="48.79735" lon="2.22764">
        <ele>149</ele>
        <time>2020-12-05T14:16:41.095Z</time>
      </trkpt>
      <trkpt lat="48.79735" lon="2.22764">
        <ele>148</ele>
        <time>2020-12-05T14:16:42.095Z</time>
      </trkpt>
      <trkpt lat="48.79734" lon="2.22764">
        <ele>148</ele>
        <time>2020-12-05T14:16:43.095Z</time>
      </trkpt>
      <trkpt lat="48.79733" lon="2.22765">
        <ele>147</ele>
        <time>2020-12-05T14:16:44.095Z</time>
      </trkpt>
      <trkpt lat="48.79732" lon="2.22765">
        <ele>147</ele>
        <time>2020-12-05T14:16:45.095Z</time>
      </trkpt>
      <trkpt lat="48.79731" lon="2.22766">
        <ele>147</ele>
        <time>2020-12-05T14:16:46.095Z</time>
      </trkpt>
      <trkpt lat="48.7973" lon="2.22767">
        <ele>147</ele>
        <time>2020-12-05T14:16:47.095Z</time>
      </trkpt>
      <trkpt lat="48.7973" lon="2.22767">
        <ele>147</ele>
        <time>2020-12-05T14:16:48.094Z</time>
      </trkpt>
      <trkpt lat="48.79729" lon="2.22767">
        <ele>146</ele>
        <time>2020-12-05T14:16:49.094Z</time>
      </trkpt>
      <trkpt lat="48.79728" lon="2.22768">
        <ele>146</ele>
        <time>2020-12-05T14:16:50.094Z</time>
      </trkpt>
      <trkpt lat="48.79728" lon="2.22768">
        <ele>146</ele>
        <time>2020-12-05T14:16:51.095Z</time>
      </trkpt>
      <trkpt lat="48.79728" lon="2.22767">
        <ele>145</ele>
        <time>2020-12-05T14:16:52.095Z</time>
      </trkpt>
      <trkpt lat="48.79729" lon="2.22766">
        <ele>145</ele>
        <time>2020-12-05T14:16:53.095Z</time>
      </trkpt>
      <trkpt lat="48.7973" lon="2.22764">
        <ele>145</ele>
        <time>2020-12-05T14:16:54.094Z</time>
      </trkpt>
      <trkpt lat="48.79731" lon="2.22763">
        <ele>144</ele>
        <time>2020-12-05T14:16:55.095Z</time>
      </trkpt>
      <trkpt lat="48.79732" lon="2.22762">
        <ele>144</ele>
        <time>2020-12-05T14:16:56.095Z</time>
      </trkpt>
      <trkpt lat="48.79733" lon="2.22761">
        <ele>143</ele>
        <time>2020-12-05T14:16:57.095Z</time>
      </trkpt>
      <trkpt lat="48.79734" lon="2.22761">
        <ele>143</ele>
        <time>2020-12-05T14:16:58.095Z</time>
      </trkpt>
      <trkpt lat="48.79735" lon="2.22761">
        <ele>143</ele>
        <time>2020-12-05T14:16:59.095Z</time>
      </trkpt>
      <trkpt lat="48.79737" lon="2.22761">
        <ele>142</ele>
        <time>2020-12-05T14:17:00.095Z</time>
      </trkpt>
      <trkpt lat="48.79738" lon="2.22759">
        <ele>142</ele>
        <time>2020-12-05T14:17:01.095Z</time>
      </trkpt>
      <trkpt lat="48.79739" lon="2.22758">
        <ele>141</ele>
        <time>2020-12-05T14:17:02.095Z</time>
      </trkpt>
      <trkpt lat="48.7974" lon="2.22757">
        <ele>141</ele>
        <time>2020-12-05T14:17:03.095Z</time>
      </trkpt>
      <trkpt lat="48.79742" lon="2.22756">
        <ele>141</ele>
        <time>2020-12-05T14:17:04.095Z</time>
      </trkpt>
      <trkpt lat="48.79742" lon="2.22756">
        <ele>140</ele>
        <time>2020-12-05T14:17:05.094Z</time>
      </trkpt>
      <trkpt lat="48.79743" lon="2.22755">
        <ele>140</ele>
        <time>2020-12-05T14:17:06.094Z</time>
      </trkpt>
      <trkpt lat="48.79744" lon="2.22754">
        <ele>140</ele>
        <time>2020-12-05T14:17:07.094Z</time>
      </trkpt>
      <trkpt lat="48.79745" lon="2.22753">
        <ele>140</ele>
        <time>2020-12-05T14:17:08.094Z</time>
      </trkpt>
      <trkpt lat="48.79745" lon="2.22753">
        <ele>139</ele>
        <time>2020-12-05T14:17:09.094Z</time>
      </trkpt>
      <trkpt lat="48.79746" lon="2.22753">
        <ele>139</ele>
        <time>2020-12-05T14:17:10.094Z</time>
      </trkpt>
      <trkpt lat="48.79747" lon="2.22753">
        <ele>138</ele>
        <time>2020-12-05T14:17:11.095Z</time>
      </trkpt>
      <trkpt lat="48.79749" lon="2.22753">
        <ele>138</ele>
        <time>2020-12-05T14:17:12.095Z</time>
      </trkpt>
      <trkpt lat="48.7975" lon="2.22753">
        <ele>137</ele>
        <time>2020-12-05T14:17:13.095Z</time>
      </trkpt>
      <trkpt lat="48.7975" lon="2.22753">
        <ele>137</ele>
        <time>2020-12-05T14:17:14.095Z</time>
      </trkpt>
      <trkpt lat="48.79751" lon="2.22753">
        <ele>137</ele>
        <time>2020-12-05T14:17:15.095Z</time>
      </trkpt>
      <trkpt lat="48.79752" lon="2.22753">
        <ele>137</ele>
        <time>2020-12-05T14:17:16.095Z</time>
      </trkpt>
      <trkpt lat="48.79752" lon="2.22753">
        <ele>137</ele>
        <time>2020-12-05T14:17:17.094Z</time>
      </trkpt>
      <trkpt lat="48.79752" lon="2.22754">
        <ele>137</ele>
        <time>2020-12-05T14:17:18.094Z</time>
      </trkpt>
      <trkpt lat="48.79752" lon="2.22754">
        <ele>137</ele>
        <time>2020-12-05T14:17:19.094Z</time>
      </trkpt>
      <trkpt lat="48.79751" lon="2.22754">
        <ele>136</ele>
        <time>2020-12-05T14:17:20.095Z</time>
      </trkpt>
      <trkpt lat="48.79751" lon="2.22754">
        <ele>136</ele>
        <time>2020-12-05T14:17:21.094Z</time>
      </trkpt>
      <trkpt lat="48.79752" lon="2.22755">
        <ele>136</ele>
        <time>2020-12-05T14:17:22.095Z</time>
      </trkpt>
      <trkpt lat="48.79752" lon="2.22756">
        <ele>136</ele>
        <time>2020-12-05T14:17:23.094Z</time>
      </trkpt>
      <trkpt lat="48.79753" lon="2.22757">
        <ele>136</ele>
        <time>2020-12-05T14:17:24.094Z</time>
      </trkpt>
      <trkpt lat="48.79754" lon="2.22758">
        <ele>136</ele>
        <time>2020-12-05T14:17:25.094Z</time>
      </trkpt>
      <trkpt lat="48.79755" lon="2.22758">
        <ele>136</ele>
        <time>2020-12-05T14:17:26.094Z</time>
      </trkpt>
      <trkpt lat="48.79756" lon="2.22759">
        <ele>137</ele>
        <time>2020-12-05T14:17:27.095Z</time>
      </trkpt>
      <trkpt lat="48.79756" lon="2.22759">
        <ele>137</ele>
        <time>2020-12-05T14:17:28.095Z</time>
      </trkpt>
      <trkpt lat="48.79757" lon="2.2276">
        <ele>137</ele>
        <time>2020-12-05T14:17:29.094Z</time>
      </trkpt>
      <trkpt lat="48.79757" lon="2.22761">
        <ele>137</ele>
        <time>2020-12-05T14:17:30.094Z</time>
      </trkpt>
      <trkpt lat="48.79756" lon="2.22763">
        <ele>137</ele>
        <time>2020-12-05T14:17:31.094Z</time>
      </trkpt>
      <trkpt lat="48.79756" lon="2.22765">
        <ele>138</ele>
        <time>2020-12-05T14:17:32.095Z</time>
      </trkpt>
      <trkpt lat="48.79756" lon="2.22765">
        <ele>138</ele>
        <time>2020-12-05T14:17:33.095Z</time>
      </trkpt>
      <trkpt lat="48.79755" lon="2.22767">
        <ele>138</ele>
        <time>2020-12-05T14:17:34.095Z</time>
      </trkpt>
      <trkpt lat="48.79755" lon="2.22768">
        <ele>138</ele>
        <time>2020-12-05T14:17:35.095Z</time>
      </trkpt>
      <trkpt lat="48.79755" lon="2.22769">
        <ele>138</ele>
        <time>2020-12-05T14:17:36.094Z</time>
      </trkpt>
      <trkpt lat="48.79755" lon="2.2277">
        <ele>138</ele>
        <time>2020-12-05T14:17:37.095Z</time>
      </trkpt>
      <trkpt lat="48.79755" lon="2.22771">
        <ele>138</ele>
        <time>2020-12-05T14:17:38.095Z</time>
      </trkpt>
      <trkpt lat="48.79755" lon="2.22773">
        <ele>137</ele>
        <time>2020-12-05T14:17:39.094Z</time>
      </trkpt>
      <trkpt lat="48.79754" lon="2.22774">
        <ele>137</ele>
        <time>2020-12-05T14:17:40.094Z</time>
      </trkpt>
      <trkpt lat="48.79754" lon="2.22776">
        <ele>137</ele>
        <time>2020-12-05T14:17:41.094Z</time>
      </trkpt>
      <trkpt lat="48.79754" lon="2.22777">
        <ele>137</ele>
        <time>2020-12-05T14:17:42.095Z</time>
      </trkpt>
      <trkpt lat="48.79754" lon="2.22779">
        <ele>137</ele>
        <time>2020-12-05T14:17:43.095Z</time>
      </trkpt>
      <trkpt lat="48.79754" lon="2.22781">
        <ele>137</ele>
        <time>2020-12-05T14:17:44.095Z</time>
      </trkpt>
      <trkpt lat="48.79754" lon="2.22782">
        <ele>137</ele>
        <time>2020-12-05T14:17:45.095Z</time>
      </trkpt>
      <trkpt lat="48.79754" lon="2.22784">
        <ele>137</ele>
        <time>2020-12-05T14:17:46.095Z</time>
      </trkpt>
      <trkpt lat="48.79753" lon="2.22786">
        <ele>137</ele>
        <time>2020-12-05T14:17:47.095Z</time>
      </trkpt>
      <trkpt lat="48.79753" lon="2.22788">
        <ele>137</ele>
        <time>2020-12-05T14:17:48.095Z</time>
      </trkpt>
      <trkpt lat="48.79753" lon="2.22789">
        <ele>137</ele>
        <time>2020-12-05T14:17:49.095Z</time>
      </trkpt>
      <trkpt lat="48.79753" lon="2.22791">
        <ele>137</ele>
        <time>2020-12-05T14:17:50.095Z</time>
      </trkpt>
      <trkpt lat="48.79753" lon="2.22793">
        <ele>137</ele>
        <time>2020-12-05T14:17:51.095Z</time>
      </trkpt>
      <trkpt lat="48.79752" lon="2.22795">
        <ele>137</ele>
        <time>2020-12-05T14:17:52.094Z</time>
      </trkpt>
      <trkpt lat="48.79752" lon="2.22797">
        <ele>137</ele>
        <time>2020-12-05T14:17:53.095Z</time>
      </trkpt>
      <trkpt lat="48.79751" lon="2.22799">
        <ele>137</ele>
        <time>2020-12-05T14:17:54.095Z</time>
      </trkpt>
      <trkpt lat="48.7975" lon="2.22801">
        <ele>137</ele>
        <time>2020-12-05T14:17:55.095Z</time>
      </trkpt>
      <trkpt lat="48.7975" lon="2.22803">
        <ele>137</ele>
        <time>2020-12-05T14:17:56.095Z</time>
      </trkpt>
      <trkpt lat="48.79749" lon="2.22804">
        <ele>137</ele>
        <time>2020-12-05T14:17:57.095Z</time>
      </trkpt>
      <trkpt lat="48.79748" lon="2.22806">
        <ele>137</ele>
        <time>2020-12-05T14:17:58.094Z</time>
      </trkpt>
      <trkpt lat="48.79749" lon="2.22808">
        <ele>137</ele>
        <time>2020-12-05T14:17:59.095Z</time>
      </trkpt>
      <trkpt lat="48.79749" lon="2.2281">
        <ele>137</ele>
        <time>2020-12-05T14:18:00.094Z</time>
      </trkpt>
      <trkpt lat="48.79749" lon="2.22812">
        <ele>137</ele>
        <time>2020-12-05T14:18:01.095Z</time>
      </trkpt>
      <trkpt lat="48.79749" lon="2.22814">
        <ele>137</ele>
        <time>2020-12-05T14:18:02.094Z</time>
      </trkpt>
      <trkpt lat="48.79749" lon="2.22817">
        <ele>137</ele>
        <time>2020-12-05T14:18:03.095Z</time>
      </trkpt>
      <trkpt lat="48.7975" lon="2.22819">
        <ele>137</ele>
        <time>2020-12-05T14:18:04.095Z</time>
      </trkpt>
      <trkpt lat="48.7975" lon="2.22821">
        <ele>137</ele>
        <time>2020-12-05T14:18:05.095Z</time>
      </trkpt>
      <trkpt lat="48.7975" lon="2.22823">
        <ele>137</ele>
        <time>2020-12-05T14:18:06.094Z</time>
      </trkpt>
      <trkpt lat="48.79751" lon="2.22825">
        <ele>137</ele>
        <time>2020-12-05T14:18:07.095Z</time>
      </trkpt>
      <trkpt lat="48.79751" lon="2.22827">
        <ele>137</ele>
        <time>2020-12-05T14:18:08.095Z</time>
      </trkpt>
      <trkpt lat="48.79751" lon="2.22829">
        <ele>137</ele>
        <time>2020-12-05T14:18:09.095Z</time>
      </trkpt>
      <trkpt lat="48.7975" lon="2.2283">
        <ele>137</ele>
        <time>2020-12-05T14:18:10.095Z</time>
      </trkpt>
      <trkpt lat="48.7975" lon="2.22832">
        <ele>137</ele>
        <time>2020-12-05T14:18:11.095Z</time>
      </trkpt>
      <trkpt lat="48.7975" lon="2.22834">
        <ele>138</ele>
        <time>2020-12-05T14:18:12.094Z</time>
      </trkpt>
      <trkpt lat="48.7975" lon="2.22835">
        <ele>138</ele>
        <time>2020-12-05T14:18:13.094Z</time>
      </trkpt>
      <trkpt lat="48.7975" lon="2.22837">
        <ele>138</ele>
        <time>2020-12-05T14:18:14.094Z</time>
      </trkpt>
      <trkpt lat="48.79751" lon="2.22839">
        <ele>138</ele>
        <time>2020-12-05T14:18:15.095Z</time>
      </trkpt>
      <trkpt lat="48.79752" lon="2.22841">
        <ele>139</ele>
        <time>2020-12-05T14:18:16.094Z</time>
      </trkpt>
      <trkpt lat="48.79752" lon="2.22842">
        <ele>139</ele>
        <time>2020-12-05T14:18:17.094Z</time>
      </trkpt>
      <trkpt lat="48.79752" lon="2.22844">
        <ele>139</ele>
        <time>2020-12-05T14:18:18.095Z</time>
      </trkpt>
      <trkpt lat="48.79753" lon="2.22847">
        <ele>139</ele>
        <time>2020-12-05T14:18:19.095Z</time>
      </trkpt>
      <trkpt lat="48.79753" lon="2.22848">
        <ele>139</ele>
        <time>2020-12-05T14:18:20.095Z</time>
      </trkpt>
      <trkpt lat="48.79753" lon="2.2285">
        <ele>139</ele>
        <time>2020-12-05T14:18:21.095Z</time>
      </trkpt>
      <trkpt lat="48.79753" lon="2.22852">
        <ele>138</ele>
        <time>2020-12-05T14:18:22.095Z</time>
      </trkpt>
      <trkpt lat="48.79753" lon="2.22854">
        <ele>138</ele>
        <time>2020-12-05T14:18:23.094Z</time>
      </trkpt>
      <trkpt lat="48.79753" lon="2.22857">
        <ele>138</ele>
        <time>2020-12-05T14:18:24.095Z</time>
      </trkpt>
      <trkpt lat="48.79752" lon="2.22859">
        <ele>138</ele>
        <time>2020-12-05T14:18:25.095Z</time>
      </trkpt>
      <trkpt lat="48.79752" lon="2.22861">
        <ele>138</ele>
        <time>2020-12-05T14:18:26.095Z</time>
      </trkpt>
      <trkpt lat="48.79752" lon="2.22864">
        <ele>138</ele>
        <time>2020-12-05T14:18:27.095Z</time>
      </trkpt>
      <trkpt lat="48.79752" lon="2.22866">
        <ele>137</ele>
        <time>2020-12-05T14:18:28.095Z</time>
      </trkpt>
      <trkpt lat="48.79753" lon="2.22867">
        <ele>137</ele>
        <time>2020-12-05T14:18:29.095Z</time>
      </trkpt>
      <trkpt lat="48.79753" lon="2.22869">
        <ele>137</ele>
        <time>2020-12-05T14:18:30.094Z</time>
      </trkpt>
      <trkpt lat="48.79753" lon="2.2287">
        <ele>137</ele>
        <time>2020-12-05T14:18:31.094Z</time>
      </trkpt>
      <trkpt lat="48.79752" lon="2.22872">
        <ele>137</ele>
        <time>2020-12-05T14:18:32.095Z</time>
      </trkpt>
      <trkpt lat="48.79752" lon="2.22874">
        <ele>136</ele>
        <time>2020-12-05T14:18:33.094Z</time>
      </trkpt>
      <trkpt lat="48.79752" lon="2.22875">
        <ele>136</ele>
        <time>2020-12-05T14:18:34.095Z</time>
      </trkpt>
      <trkpt lat="48.79752" lon="2.22876">
        <ele>136</ele>
        <time>2020-12-05T14:18:35.094Z</time>
      </trkpt>
      <trkpt lat="48.79753" lon="2.22877">
        <ele>136</ele>
        <time>2020-12-05T14:18:36.095Z</time>
      </trkpt>
      <trkpt lat="48.79753" lon="2.22879">
        <ele>135</ele>
        <time>2020-12-05T14:18:37.095Z</time>
      </trkpt>
      <trkpt lat="48.79754" lon="2.22881">
        <ele>135</ele>
        <time>2020-12-05T14:18:38.095Z</time>
      </trkpt>
      <trkpt lat="48.79754" lon="2.22882">
        <ele>135</ele>
        <time>2020-12-05T14:18:39.094Z</time>
      </trkpt>
      <trkpt lat="48.79754" lon="2.22883">
        <ele>135</ele>
        <time>2020-12-05T14:18:40.095Z</time>
      </trkpt>
      <trkpt lat="48.79754" lon="2.22885">
        <ele>134</ele>
        <time>2020-12-05T14:18:41.095Z</time>
      </trkpt>
      <trkpt lat="48.79754" lon="2.22886">
        <ele>134</ele>
        <time>2020-12-05T14:18:42.095Z</time>
      </trkpt>
      <trkpt lat="48.79754" lon="2.22888">
        <ele>134</ele>
        <time>2020-12-05T14:18:43.095Z</time>
      </trkpt>
      <trkpt lat="48.79754" lon="2.22891">
        <ele>134</ele>
        <time>2020-12-05T14:18:44.095Z</time>
      </trkpt>
      <trkpt lat="48.79754" lon="2.22893">
        <ele>134</ele>
        <time>2020-12-05T14:18:45.095Z</time>
      </trkpt>
      <trkpt lat="48.79754" lon="2.22895">
        <ele>133</ele>
        <time>2020-12-05T14:18:46.095Z</time>
      </trkpt>
      <trkpt lat="48.79754" lon="2.22897">
        <ele>133</ele>
        <time>2020-12-05T14:18:47.094Z</time>
      </trkpt>
      <trkpt lat="48.79754" lon="2.22899">
        <ele>133</ele>
        <time>2020-12-05T14:18:48.095Z</time>
      </trkpt>
      <trkpt lat="48.79754" lon="2.229">
        <ele>133</ele>
        <time>2020-12-05T14:18:49.095Z</time>
      </trkpt>
      <trkpt lat="48.79754" lon="2.22902">
        <ele>133</ele>
        <time>2020-12-05T14:18:50.095Z</time>
      </trkpt>
      <trkpt lat="48.79754" lon="2.22905">
        <ele>133</ele>
        <time>2020-12-05T14:18:51.094Z</time>
      </trkpt>
      <trkpt lat="48.79755" lon="2.22907">
        <ele>133</ele>
        <time>2020-12-05T14:18:52.095Z</time>
      </trkpt>
      <trkpt lat="48.79756" lon="2.22908">
        <ele>133</ele>
        <time>2020-12-05T14:18:53.095Z</time>
      </trkpt>
      <trkpt lat="48.79757" lon="2.2291">
        <ele>133</ele>
        <time>2020-12-05T14:18:54.094Z</time>
      </trkpt>
      <trkpt lat="48.79758" lon="2.22913">
        <ele>133</ele>
        <time>2020-12-05T14:18:55.095Z</time>
      </trkpt>
      <trkpt lat="48.79758" lon="2.22916">
        <ele>133</ele>
        <time>2020-12-05T14:18:56.094Z</time>
      </trkpt>
      <trkpt lat="48.79759" lon="2.22919">
        <ele>133</ele>
        <time>2020-12-05T14:18:57.094Z</time>
      </trkpt>
      <trkpt lat="48.79759" lon="2.22921">
        <ele>133</ele>
        <time>2020-12-05T14:18:58.094Z</time>
      </trkpt>
      <trkpt lat="48.7976" lon="2.22923">
        <ele>133</ele>
        <time>2020-12-05T14:18:59.095Z</time>
      </trkpt>
      <trkpt lat="48.7976" lon="2.22925">
        <ele>132</ele>
        <time>2020-12-05T14:19:00.095Z</time>
      </trkpt>
      <trkpt lat="48.79761" lon="2.22927">
        <ele>132</ele>
        <time>2020-12-05T14:19:01.095Z</time>
      </trkpt>
      <trkpt lat="48.79762" lon="2.22929">
        <ele>131</ele>
        <time>2020-12-05T14:19:02.095Z</time>
      </trkpt>
      <trkpt lat="48.79762" lon="2.22931">
        <ele>131</ele>
        <time>2020-12-05T14:19:03.094Z</time>
      </trkpt>
      <trkpt lat="48.79762" lon="2.22934">
        <ele>131</ele>
        <time>2020-12-05T14:19:04.095Z</time>
      </trkpt>
      <trkpt lat="48.79762" lon="2.22937">
        <ele>131</ele>
        <time>2020-12-05T14:19:05.094Z</time>
      </trkpt>
      <trkpt lat="48.79763" lon="2.2294">
        <ele>130</ele>
        <time>2020-12-05T14:19:06.094Z</time>
      </trkpt>
      <trkpt lat="48.79762" lon="2.22942">
        <ele>130</ele>
        <time>2020-12-05T14:19:07.095Z</time>
      </trkpt>
      <trkpt lat="48.79762" lon="2.22943">
        <ele>130</ele>
        <time>2020-12-05T14:19:08.095Z</time>
      </trkpt>
      <trkpt lat="48.79764" lon="2.22945">
        <ele>130</ele>
        <time>2020-12-05T14:19:09.095Z</time>
      </trkpt>
      <trkpt lat="48.79765" lon="2.22947">
        <ele>130</ele>
        <time>2020-12-05T14:19:10.095Z</time>
      </trkpt>
      <trkpt lat="48.79765" lon="2.2295">
        <ele>130</ele>
        <time>2020-12-05T14:19:11.095Z</time>
      </trkpt>
      <trkpt lat="48.79766" lon="2.22952">
        <ele>130</ele>
        <time>2020-12-05T14:19:12.095Z</time>
      </trkpt>
      <trkpt lat="48.79766" lon="2.22955">
        <ele>130</ele>
        <time>2020-12-05T14:19:13.095Z</time>
      </trkpt>
      <trkpt lat="48.79767" lon="2.22958">
        <ele>130</ele>
        <time>2020-12-05T14:19:14.095Z</time>
      </trkpt>
      <trkpt lat="48.79767" lon="2.22958">
        <ele>130</ele>
        <time>2020-12-05T14:19:15.095Z</time>
      </trkpt>
      <trkpt lat="48.79769" lon="2.22963">
        <ele>130</ele>
        <time>2020-12-05T14:19:16.095Z</time>
      </trkpt>
      <trkpt lat="48.79769" lon="2.22965">
        <ele>130</ele>
        <time>2020-12-05T14:19:17.095Z</time>
      </trkpt>
      <trkpt lat="48.7977" lon="2.22967">
        <ele>130</ele>
        <time>2020-12-05T14:19:18.095Z</time>
      </trkpt>
      <trkpt lat="48.79771" lon="2.22969">
        <ele>131</ele>
        <time>2020-12-05T14:19:19.094Z</time>
      </trkpt>
      <trkpt lat="48.79771" lon="2.22971">
        <ele>131</ele>
        <time>2020-12-05T14:19:20.094Z</time>
      </trkpt>
      <trkpt lat="48.79771" lon="2.22973">
        <ele>131</ele>
        <time>2020-12-05T14:19:21.095Z</time>
      </trkpt>
      <trkpt lat="48.79771" lon="2.22975">
        <ele>131</ele>
        <time>2020-12-05T14:19:22.094Z</time>
      </trkpt>
      <trkpt lat="48.79771" lon="2.22977">
        <ele>131</ele>
        <time>2020-12-05T14:19:23.095Z</time>
      </trkpt>
      <trkpt lat="48.79772" lon="2.22979">
        <ele>131</ele>
        <time>2020-12-05T14:19:24.094Z</time>
      </trkpt>
      <trkpt lat="48.79773" lon="2.22981">
        <ele>131</ele>
        <time>2020-12-05T14:19:25.094Z</time>
      </trkpt>
      <trkpt lat="48.79774" lon="2.22983">
        <ele>131</ele>
        <time>2020-12-05T14:19:26.095Z</time>
      </trkpt>
      <trkpt lat="48.79775" lon="2.22986">
        <ele>131</ele>
        <time>2020-12-05T14:19:27.094Z</time>
      </trkpt>
      <trkpt lat="48.79777" lon="2.22988">
        <ele>132</ele>
        <time>2020-12-05T14:19:28.095Z</time>
      </trkpt>
      <trkpt lat="48.79778" lon="2.2299">
        <ele>132</ele>
        <time>2020-12-05T14:19:29.095Z</time>
      </trkpt>
      <trkpt lat="48.7978" lon="2.22993">
        <ele>132</ele>
        <time>2020-12-05T14:19:30.095Z</time>
      </trkpt>
      <trkpt lat="48.79782" lon="2.22995">
        <ele>133</ele>
        <time>2020-12-05T14:19:31.095Z</time>
      </trkpt>
      <trkpt lat="48.79783" lon="2.22997">
        <ele>133</ele>
        <time>2020-12-05T14:19:32.094Z</time>
      </trkpt>
      <trkpt lat="48.79784" lon="2.22999">
        <ele>133</ele>
        <time>2020-12-05T14:19:33.094Z</time>
      </trkpt>
      <trkpt lat="48.79785" lon="2.23001">
        <ele>133</ele>
        <time>2020-12-05T14:19:34.095Z</time>
      </trkpt>
      <trkpt lat="48.79785" lon="2.23002">
        <ele>134</ele>
        <time>2020-12-05T14:19:35.095Z</time>
      </trkpt>
      <trkpt lat="48.79786" lon="2.23003">
        <ele>134</ele>
        <time>2020-12-05T14:19:36.094Z</time>
      </trkpt>
      <trkpt lat="48.79786" lon="2.23005">
        <ele>134</ele>
        <time>2020-12-05T14:19:37.094Z</time>
      </trkpt>
      <trkpt lat="48.79786" lon="2.23008">
        <ele>134</ele>
        <time>2020-12-05T14:19:38.094Z</time>
      </trkpt>
      <trkpt lat="48.79786" lon="2.23011">
        <ele>134</ele>
        <time>2020-12-05T14:19:39.095Z</time>
      </trkpt>
      <trkpt lat="48.79786" lon="2.23013">
        <ele>135</ele>
        <time>2020-12-05T14:19:40.095Z</time>
      </trkpt>
      <trkpt lat="48.79786" lon="2.23015">
        <ele>135</ele>
        <time>2020-12-05T14:19:41.095Z</time>
      </trkpt>
      <trkpt lat="48.79786" lon="2.23017">
        <ele>135</ele>
        <time>2020-12-05T14:19:42.095Z</time>
      </trkpt>
      <trkpt lat="48.79786" lon="2.23018">
        <ele>135</ele>
        <time>2020-12-05T14:19:43.094Z</time>
      </trkpt>
      <trkpt lat="48.79786" lon="2.23019">
        <ele>135</ele>
        <time>2020-12-05T14:19:44.095Z</time>
      </trkpt>
      <trkpt lat="48.79786" lon="2.23021">
        <ele>135</ele>
        <time>2020-12-05T14:19:45.094Z</time>
      </trkpt>
      <trkpt lat="48.79786" lon="2.23023">
        <ele>135</ele>
        <time>2020-12-05T14:19:46.095Z</time>
      </trkpt>
      <trkpt lat="48.79786" lon="2.23025">
        <ele>135</ele>
        <time>2020-12-05T14:19:47.094Z</time>
      </trkpt>
      <trkpt lat="48.79786" lon="2.23027">
        <ele>135</ele>
        <time>2020-12-05T14:19:48.095Z</time>
      </trkpt>
      <trkpt lat="48.79786" lon="2.23029">
        <ele>135</ele>
        <time>2020-12-05T14:19:49.094Z</time>
      </trkpt>
      <trkpt lat="48.79786" lon="2.2303">
        <ele>135</ele>
        <time>2020-12-05T14:19:50.095Z</time>
      </trkpt>
      <trkpt lat="48.79786" lon="2.23032">
        <ele>134</ele>
        <time>2020-12-05T14:19:51.094Z</time>
      </trkpt>
      <trkpt lat="48.79785" lon="2.23034">
        <ele>134</ele>
        <time>2020-12-05T14:19:52.095Z</time>
      </trkpt>
      <trkpt lat="48.79785" lon="2.23036">
        <ele>134</ele>
        <time>2020-12-05T14:19:53.094Z</time>
      </trkpt>
      <trkpt lat="48.79785" lon="2.23038">
        <ele>134</ele>
        <time>2020-12-05T14:19:54.095Z</time>
      </trkpt>
      <trkpt lat="48.79785" lon="2.2304">
        <ele>134</ele>
        <time>2020-12-05T14:19:55.094Z</time>
      </trkpt>
      <trkpt lat="48.79785" lon="2.23042">
        <ele>133</ele>
        <time>2020-12-05T14:19:56.095Z</time>
      </trkpt>
      <trkpt lat="48.79784" lon="2.23044">
        <ele>133</ele>
        <time>2020-12-05T14:19:57.095Z</time>
      </trkpt>
      <trkpt lat="48.79784" lon="2.23046">
        <ele>133</ele>
        <time>2020-12-05T14:19:58.095Z</time>
      </trkpt>
      <trkpt lat="48.79783" lon="2.23047">
        <ele>132</ele>
        <time>2020-12-05T14:19:59.095Z</time>
      </trkpt>
      <trkpt lat="48.79783" lon="2.23049">
        <ele>132</ele>
        <time>2020-12-05T14:20:00.095Z</time>
      </trkpt>
      <trkpt lat="48.79783" lon="2.23051">
        <ele>132</ele>
        <time>2020-12-05T14:20:01.095Z</time>
      </trkpt>
      <trkpt lat="48.79783" lon="2.23052">
        <ele>132</ele>
        <time>2020-12-05T14:20:02.095Z</time>
      </trkpt>
      <trkpt lat="48.79783" lon="2.23054">
        <ele>132</ele>
        <time>2020-12-05T14:20:03.094Z</time>
      </trkpt>
      <trkpt lat="48.79783" lon="2.23057">
        <ele>132</ele>
        <time>2020-12-05T14:20:04.095Z</time>
      </trkpt>
      <trkpt lat="48.79783" lon="2.23059">
        <ele>131</ele>
        <time>2020-12-05T14:20:05.094Z</time>
      </trkpt>
      <trkpt lat="48.79784" lon="2.2306">
        <ele>131</ele>
        <time>2020-12-05T14:20:06.094Z</time>
      </trkpt>
      <trkpt lat="48.79783" lon="2.23061">
        <ele>131</ele>
        <time>2020-12-05T14:20:07.095Z</time>
      </trkpt>
      <trkpt lat="48.79783" lon="2.23063">
        <ele>131</ele>
        <time>2020-12-05T14:20:08.094Z</time>
      </trkpt>
      <trkpt lat="48.79783" lon="2.23064">
        <ele>130</ele>
        <time>2020-12-05T14:20:09.095Z</time>
      </trkpt>
      <trkpt lat="48.79783" lon="2.23064">
        <ele>130</ele>
        <time>2020-12-05T14:20:10.094Z</time>
      </trkpt>
      <trkpt lat="48.79783" lon="2.23065">
        <ele>130</ele>
        <time>2020-12-05T14:20:11.095Z</time>
      </trkpt>
      <trkpt lat="48.79783" lon="2.23065">
        <ele>129</ele>
        <time>2020-12-05T14:20:12.095Z</time>
      </trkpt>
      <trkpt lat="48.79783" lon="2.23066">
        <ele>129</ele>
        <time>2020-12-05T14:20:13.095Z</time>
      </trkpt>
      <trkpt lat="48.79784" lon="2.23066">
        <ele>129</ele>
        <time>2020-12-05T14:20:14.095Z</time>
      </trkpt>
      <trkpt lat="48.79785" lon="2.23066">
        <ele>128</ele>
        <time>2020-12-05T14:20:15.095Z</time>
      </trkpt>
      <trkpt lat="48.79785" lon="2.23066">
        <ele>128</ele>
        <time>2020-12-05T14:20:16.095Z</time>
      </trkpt>
      <trkpt lat="48.79786" lon="2.23066">
        <ele>128</ele>
        <time>2020-12-05T14:20:17.094Z</time>
      </trkpt>
      <trkpt lat="48.79786" lon="2.23067">
        <ele>127</ele>
        <time>2020-12-05T14:20:18.095Z</time>
      </trkpt>
      <trkpt lat="48.79786" lon="2.23068">
        <ele>127</ele>
        <time>2020-12-05T14:20:19.094Z</time>
      </trkpt>
      <trkpt lat="48.79786" lon="2.23068">
        <ele>127</ele>
        <time>2020-12-05T14:20:20.094Z</time>
      </trkpt>
      <trkpt lat="48.79784" lon="2.2307">
        <ele>127</ele>
        <time>2020-12-05T14:20:21.094Z</time>
      </trkpt>
      <trkpt lat="48.79783" lon="2.23071">
        <ele>127</ele>
        <time>2020-12-05T14:20:22.094Z</time>
      </trkpt>
      <trkpt lat="48.79784" lon="2.23073">
        <ele>127</ele>
        <time>2020-12-05T14:20:23.095Z</time>
      </trkpt>
      <trkpt lat="48.79784" lon="2.23074">
        <ele>127</ele>
        <time>2020-12-05T14:20:24.095Z</time>
      </trkpt>
      <trkpt lat="48.79784" lon="2.23075">
        <ele>127</ele>
        <time>2020-12-05T14:20:25.095Z</time>
      </trkpt>
      <trkpt lat="48.79784" lon="2.23075">
        <ele>127</ele>
        <time>2020-12-05T14:20:26.095Z</time>
      </trkpt>
      <trkpt lat="48.79783" lon="2.23079">
        <ele>127</ele>
        <time>2020-12-05T14:20:27.095Z</time>
      </trkpt>
      <trkpt lat="48.79783" lon="2.23081">
        <ele>127</ele>
        <time>2020-12-05T14:20:28.094Z</time>
      </trkpt>
      <trkpt lat="48.79783" lon="2.23082">
        <ele>127</ele>
        <time>2020-12-05T14:20:29.094Z</time>
      </trkpt>
      <trkpt lat="48.79783" lon="2.23084">
        <ele>127</ele>
        <time>2020-12-05T14:20:30.095Z</time>
      </trkpt>
      <trkpt lat="48.79783" lon="2.23085">
        <ele>127</ele>
        <time>2020-12-05T14:20:31.095Z</time>
      </trkpt>
      <trkpt lat="48.79783" lon="2.23087">
        <ele>127</ele>
        <time>2020-12-05T14:20:32.095Z</time>
      </trkpt>
      <trkpt lat="48.79783" lon="2.23089">
        <ele>127</ele>
        <time>2020-12-05T14:20:33.094Z</time>
      </trkpt>
      <trkpt lat="48.79782" lon="2.23091">
        <ele>127</ele>
        <time>2020-12-05T14:20:34.095Z</time>
      </trkpt>
      <trkpt lat="48.79782" lon="2.23093">
        <ele>127</ele>
        <time>2020-12-05T14:20:35.095Z</time>
      </trkpt>
      <trkpt lat="48.79782" lon="2.23095">
        <ele>127</ele>
        <time>2020-12-05T14:20:36.094Z</time>
      </trkpt>
      <trkpt lat="48.79781" lon="2.23097">
        <ele>127</ele>
        <time>2020-12-05T14:20:37.094Z</time>
      </trkpt>
      <trkpt lat="48.79781" lon="2.23099">
        <ele>127</ele>
        <time>2020-12-05T14:20:38.094Z</time>
      </trkpt>
      <trkpt lat="48.79781" lon="2.23101">
        <ele>127</ele>
        <time>2020-12-05T14:20:39.094Z</time>
      </trkpt>
      <trkpt lat="48.79781" lon="2.23103">
        <ele>127</ele>
        <time>2020-12-05T14:20:40.095Z</time>
      </trkpt>
      <trkpt lat="48.79781" lon="2.23105">
        <ele>127</ele>
        <time>2020-12-05T14:20:41.094Z</time>
      </trkpt>
      <trkpt lat="48.79779" lon="2.23106">
        <ele>127</ele>
        <time>2020-12-05T14:20:42.095Z</time>
      </trkpt>
      <trkpt lat="48.79779" lon="2.23108">
        <ele>127</ele>
        <time>2020-12-05T14:20:43.094Z</time>
      </trkpt>
      <trkpt lat="48.79779" lon="2.2311">
        <ele>127</ele>
        <time>2020-12-05T14:20:44.095Z</time>
      </trkpt>
      <trkpt lat="48.79778" lon="2.23113">
        <ele>127</ele>
        <time>2020-12-05T14:20:45.095Z</time>
      </trkpt>
      <trkpt lat="48.79779" lon="2.23115">
        <ele>127</ele>
        <time>2020-12-05T14:20:46.095Z</time>
      </trkpt>
      <trkpt lat="48.79779" lon="2.23117">
        <ele>127</ele>
        <time>2020-12-05T14:20:47.095Z</time>
      </trkpt>
      <trkpt lat="48.79779" lon="2.23119">
        <ele>127</ele>
        <time>2020-12-05T14:20:48.094Z</time>
      </trkpt>
      <trkpt lat="48.79779" lon="2.2312">
        <ele>127</ele>
        <time>2020-12-05T14:20:49.095Z</time>
      </trkpt>
      <trkpt lat="48.79779" lon="2.23122">
        <ele>127</ele>
        <time>2020-12-05T14:20:50.095Z</time>
      </trkpt>
      <trkpt lat="48.79779" lon="2.23123">
        <ele>127</ele>
        <time>2020-12-05T14:20:51.095Z</time>
      </trkpt>
      <trkpt lat="48.79779" lon="2.23125">
        <ele>127</ele>
        <time>2020-12-05T14:20:52.094Z</time>
      </trkpt>
      <trkpt lat="48.79778" lon="2.23126">
        <ele>127</ele>
        <time>2020-12-05T14:20:53.094Z</time>
      </trkpt>
      <trkpt lat="48.79777" lon="2.23127">
        <ele>127</ele>
        <time>2020-12-05T14:20:54.095Z</time>
      </trkpt>
      <trkpt lat="48.79776" lon="2.23127">
        <ele>126</ele>
        <time>2020-12-05T14:20:55.095Z</time>
      </trkpt>
      <trkpt lat="48.79775" lon="2.23128">
        <ele>126</ele>
        <time>2020-12-05T14:20:56.094Z</time>
      </trkpt>
      <trkpt lat="48.79774" lon="2.23129">
        <ele>126</ele>
        <time>2020-12-05T14:20:57.095Z</time>
      </trkpt>
      <trkpt lat="48.79773" lon="2.2313">
        <ele>125</ele>
        <time>2020-12-05T14:20:58.095Z</time>
      </trkpt>
      <trkpt lat="48.79773" lon="2.23132">
        <ele>125</ele>
        <time>2020-12-05T14:20:59.094Z</time>
      </trkpt>
      <trkpt lat="48.79772" lon="2.23134">
        <ele>125</ele>
        <time>2020-12-05T14:21:00.094Z</time>
      </trkpt>
      <trkpt lat="48.79772" lon="2.23136">
        <ele>124</ele>
        <time>2020-12-05T14:21:01.094Z</time>
      </trkpt>
      <trkpt lat="48.79772" lon="2.23138">
        <ele>124</ele>
        <time>2020-12-05T14:21:02.095Z</time>
      </trkpt>
      <trkpt lat="48.79771" lon="2.2314">
        <ele>124</ele>
        <time>2020-12-05T14:21:03.095Z</time>
      </trkpt>
      <trkpt lat="48.7977" lon="2.23141">
        <ele>124</ele>
        <time>2020-12-05T14:21:04.095Z</time>
      </trkpt>
      <trkpt lat="48.7977" lon="2.23142">
        <ele>124</ele>
        <time>2020-12-05T14:21:05.095Z</time>
      </trkpt>
      <trkpt lat="48.79769" lon="2.23143">
        <ele>124</ele>
        <time>2020-12-05T14:21:06.095Z</time>
      </trkpt>
      <trkpt lat="48.79768" lon="2.23145">
        <ele>124</ele>
        <time>2020-12-05T14:21:07.095Z</time>
      </trkpt>
      <trkpt lat="48.79768" lon="2.23147">
        <ele>123</ele>
        <time>2020-12-05T14:21:08.095Z</time>
      </trkpt>
      <trkpt lat="48.79767" lon="2.23149">
        <ele>123</ele>
        <time>2020-12-05T14:21:09.095Z</time>
      </trkpt>
      <trkpt lat="48.79767" lon="2.23151">
        <ele>123</ele>
        <time>2020-12-05T14:21:10.095Z</time>
      </trkpt>
      <trkpt lat="48.79767" lon="2.23152">
        <ele>123</ele>
        <time>2020-12-05T14:21:11.095Z</time>
      </trkpt>
      <trkpt lat="48.79767" lon="2.23154">
        <ele>123</ele>
        <time>2020-12-05T14:21:12.094Z</time>
      </trkpt>
      <trkpt lat="48.79766" lon="2.23156">
        <ele>124</ele>
        <time>2020-12-05T14:21:13.094Z</time>
      </trkpt>
      <trkpt lat="48.79766" lon="2.23157">
        <ele>124</ele>
        <time>2020-12-05T14:21:14.095Z</time>
      </trkpt>
      <trkpt lat="48.79766" lon="2.23159">
        <ele>124</ele>
        <time>2020-12-05T14:21:15.095Z</time>
      </trkpt>
      <trkpt lat="48.79765" lon="2.23161">
        <ele>124</ele>
        <time>2020-12-05T14:21:16.095Z</time>
      </trkpt>
      <trkpt lat="48.79764" lon="2.23162">
        <ele>124</ele>
        <time>2020-12-05T14:21:17.094Z</time>
      </trkpt>
      <trkpt lat="48.79764" lon="2.23164">
        <ele>124</ele>
        <time>2020-12-05T14:21:18.095Z</time>
      </trkpt>
      <trkpt lat="48.79763" lon="2.23165">
        <ele>125</ele>
        <time>2020-12-05T14:21:19.095Z</time>
      </trkpt>
      <trkpt lat="48.79763" lon="2.23167">
        <ele>125</ele>
        <time>2020-12-05T14:21:20.095Z</time>
      </trkpt>
      <trkpt lat="48.79762" lon="2.2317">
        <ele>125</ele>
        <time>2020-12-05T14:21:21.094Z</time>
      </trkpt>
      <trkpt lat="48.79762" lon="2.23172">
        <ele>125</ele>
        <time>2020-12-05T14:21:22.094Z</time>
      </trkpt>
      <trkpt lat="48.79762" lon="2.23176">
        <ele>125</ele>
        <time>2020-12-05T14:21:23.095Z</time>
      </trkpt>
      <trkpt lat="48.79762" lon="2.23178">
        <ele>125</ele>
        <time>2020-12-05T14:21:24.095Z</time>
      </trkpt>
      <trkpt lat="48.79761" lon="2.23181">
        <ele>125</ele>
        <time>2020-12-05T14:21:25.095Z</time>
      </trkpt>
      <trkpt lat="48.7976" lon="2.23184">
        <ele>125</ele>
        <time>2020-12-05T14:21:26.095Z</time>
      </trkpt>
      <trkpt lat="48.7976" lon="2.23185">
        <ele>125</ele>
        <time>2020-12-05T14:21:27.095Z</time>
      </trkpt>
      <trkpt lat="48.7976" lon="2.23186">
        <ele>125</ele>
        <time>2020-12-05T14:21:28.095Z</time>
      </trkpt>
      <trkpt lat="48.79759" lon="2.23186">
        <ele>125</ele>
        <time>2020-12-05T14:21:29.095Z</time>
      </trkpt>
      <trkpt lat="48.79759" lon="2.23186">
        <ele>125</ele>
        <time>2020-12-05T14:21:30.095Z</time>
      </trkpt>
      <trkpt lat="48.79758" lon="2.23186">
        <ele>125</ele>
        <time>2020-12-05T14:21:31.095Z</time>
      </trkpt>
      <trkpt lat="48.79758" lon="2.23186">
        <ele>125</ele>
        <time>2020-12-05T14:21:32.095Z</time>
      </trkpt>
      <trkpt lat="48.79758" lon="2.23186">
        <ele>125</ele>
        <time>2020-12-05T14:21:33.094Z</time>
      </trkpt>
      <trkpt lat="48.79758" lon="2.23187">
        <ele>125</ele>
        <time>2020-12-05T14:21:34.095Z</time>
      </trkpt>
      <trkpt lat="48.79759" lon="2.23187">
        <ele>125</ele>
        <time>2020-12-05T14:21:35.095Z</time>
      </trkpt>
      <trkpt lat="48.79759" lon="2.23187">
        <ele>125</ele>
        <time>2020-12-05T14:21:36.095Z</time>
      </trkpt>
      <trkpt lat="48.79758" lon="2.23188">
        <ele>125</ele>
        <time>2020-12-05T14:21:37.095Z</time>
      </trkpt>
      <trkpt lat="48.79757" lon="2.23188">
        <ele>125</ele>
        <time>2020-12-05T14:21:38.095Z</time>
      </trkpt>
      <trkpt lat="48.79756" lon="2.23188">
        <ele>125</ele>
        <time>2020-12-05T14:21:39.095Z</time>
      </trkpt>
      <trkpt lat="48.79755" lon="2.2319">
        <ele>124</ele>
        <time>2020-12-05T14:21:40.095Z</time>
      </trkpt>
      <trkpt lat="48.79755" lon="2.23192">
        <ele>124</ele>
        <time>2020-12-05T14:21:41.095Z</time>
      </trkpt>
      <trkpt lat="48.79755" lon="2.23193">
        <ele>124</ele>
        <time>2020-12-05T14:21:42.095Z</time>
      </trkpt>
      <trkpt lat="48.79754" lon="2.23192">
        <ele>124</ele>
        <time>2020-12-05T14:21:43.095Z</time>
      </trkpt>
      <trkpt lat="48.79754" lon="2.23191">
        <ele>124</ele>
        <time>2020-12-05T14:21:44.095Z</time>
      </trkpt>
      <trkpt lat="48.79754" lon="2.23191">
        <ele>124</ele>
        <time>2020-12-05T14:21:45.095Z</time>
      </trkpt>
      <trkpt lat="48.79755" lon="2.23192">
        <ele>124</ele>
        <time>2020-12-05T14:21:46.095Z</time>
      </trkpt>
      <trkpt lat="48.79755" lon="2.23193">
        <ele>124</ele>
        <time>2020-12-05T14:21:47.095Z</time>
      </trkpt>
      <trkpt lat="48.79755" lon="2.23193">
        <ele>123</ele>
        <time>2020-12-05T14:21:48.095Z</time>
      </trkpt>
      <trkpt lat="48.79756" lon="2.23193">
        <ele>123</ele>
        <time>2020-12-05T14:21:49.095Z</time>
      </trkpt>
      <trkpt lat="48.79756" lon="2.23194">
        <ele>123</ele>
        <time>2020-12-05T14:21:50.095Z</time>
      </trkpt>
      <trkpt lat="48.79757" lon="2.23194">
        <ele>123</ele>
        <time>2020-12-05T14:21:51.095Z</time>
      </trkpt>
      <trkpt lat="48.79756" lon="2.23195">
        <ele>122</ele>
        <time>2020-12-05T14:21:52.095Z</time>
      </trkpt>
      <trkpt lat="48.79756" lon="2.23195">
        <ele>122</ele>
        <time>2020-12-05T14:21:53.095Z</time>
      </trkpt>
      <trkpt lat="48.79756" lon="2.23196">
        <ele>121</ele>
        <time>2020-12-05T14:21:54.095Z</time>
      </trkpt>
      <trkpt lat="48.79756" lon="2.23197">
        <ele>120</ele>
        <time>2020-12-05T14:21:55.095Z</time>
      </trkpt>
      <trkpt lat="48.79756" lon="2.23198">
        <ele>120</ele>
        <time>2020-12-05T14:21:56.095Z</time>
      </trkpt>
      <trkpt lat="48.79756" lon="2.23199">
        <ele>119</ele>
        <time>2020-12-05T14:21:57.095Z</time>
      </trkpt>
      <trkpt lat="48.79756" lon="2.23201">
        <ele>118</ele>
        <time>2020-12-05T14:21:58.095Z</time>
      </trkpt>
      <trkpt lat="48.79756" lon="2.23202">
        <ele>118</ele>
        <time>2020-12-05T14:21:59.095Z</time>
      </trkpt>
      <trkpt lat="48.79755" lon="2.23204">
        <ele>117</ele>
        <time>2020-12-05T14:22:00.094Z</time>
      </trkpt>
      <trkpt lat="48.79754" lon="2.23206">
        <ele>116</ele>
        <time>2020-12-05T14:22:01.094Z</time>
      </trkpt>
      <trkpt lat="48.79754" lon="2.23208">
        <ele>115</ele>
        <time>2020-12-05T14:22:02.095Z</time>
      </trkpt>
      <trkpt lat="48.79753" lon="2.2321">
        <ele>115</ele>
        <time>2020-12-05T14:22:03.095Z</time>
      </trkpt>
      <trkpt lat="48.79753" lon="2.23211">
        <ele>114</ele>
        <time>2020-12-05T14:22:04.095Z</time>
      </trkpt>
      <trkpt lat="48.79753" lon="2.23211">
        <ele>114</ele>
        <time>2020-12-05T14:22:05.095Z</time>
      </trkpt>
      <trkpt lat="48.79754" lon="2.23212">
        <ele>113</ele>
        <time>2020-12-05T14:22:06.095Z</time>
      </trkpt>
      <trkpt lat="48.79755" lon="2.23213">
        <ele>112</ele>
        <time>2020-12-05T14:22:07.095Z</time>
      </trkpt>
      <trkpt lat="48.79756" lon="2.23214">
        <ele>112</ele>
        <time>2020-12-05T14:22:08.095Z</time>
      </trkpt>
      <trkpt lat="48.79757" lon="2.23216">
        <ele>112</ele>
        <time>2020-12-05T14:22:09.095Z</time>
      </trkpt>
      <trkpt lat="48.79758" lon="2.23216">
        <ele>111</ele>
        <time>2020-12-05T14:22:10.095Z</time>
      </trkpt>
      <trkpt lat="48.79758" lon="2.23217">
        <ele>111</ele>
        <time>2020-12-05T14:22:11.095Z</time>
      </trkpt>
      <trkpt lat="48.79758" lon="2.23217">
        <ele>111</ele>
        <time>2020-12-05T14:22:12.095Z</time>
      </trkpt>
      <trkpt lat="48.79757" lon="2.23218">
        <ele>111</ele>
        <time>2020-12-05T14:22:13.095Z</time>
      </trkpt>
      <trkpt lat="48.79757" lon="2.23219">
        <ele>111</ele>
        <time>2020-12-05T14:22:14.095Z</time>
      </trkpt>
      <trkpt lat="48.79757" lon="2.2322">
        <ele>110</ele>
        <time>2020-12-05T14:22:15.095Z</time>
      </trkpt>
      <trkpt lat="48.79756" lon="2.2322">
        <ele>110</ele>
        <time>2020-12-05T14:22:16.094Z</time>
      </trkpt>
      <trkpt lat="48.79755" lon="2.23221">
        <ele>110</ele>
        <time>2020-12-05T14:22:17.095Z</time>
      </trkpt>
      <trkpt lat="48.79756" lon="2.23222">
        <ele>110</ele>
        <time>2020-12-05T14:22:18.095Z</time>
      </trkpt>
      <trkpt lat="48.79756" lon="2.23223">
        <ele>110</ele>
        <time>2020-12-05T14:22:19.094Z</time>
      </trkpt>
      <trkpt lat="48.79757" lon="2.23224">
        <ele>110</ele>
        <time>2020-12-05T14:22:20.094Z</time>
      </trkpt>
      <trkpt lat="48.79758" lon="2.23227">
        <ele>110</ele>
        <time>2020-12-05T14:22:21.095Z</time>
      </trkpt>
      <trkpt lat="48.79757" lon="2.23227">
        <ele>110</ele>
        <time>2020-12-05T14:22:22.095Z</time>
      </trkpt>
      <trkpt lat="48.79757" lon="2.23227">
        <ele>110</ele>
        <time>2020-12-05T14:22:23.094Z</time>
      </trkpt>
      <trkpt lat="48.79757" lon="2.23225">
        <ele>110</ele>
        <time>2020-12-05T14:22:24.094Z</time>
      </trkpt>
      <trkpt lat="48.79758" lon="2.23225">
        <ele>109</ele>
        <time>2020-12-05T14:22:25.094Z</time>
      </trkpt>
      <trkpt lat="48.79757" lon="2.23224">
        <ele>110</ele>
        <time>2020-12-05T14:22:26.095Z</time>
      </trkpt>
      <trkpt lat="48.79756" lon="2.23225">
        <ele>110</ele>
        <time>2020-12-05T14:22:27.095Z</time>
      </trkpt>
      <trkpt lat="48.79756" lon="2.23225">
        <ele>110</ele>
        <time>2020-12-05T14:22:28.094Z</time>
      </trkpt>
      <trkpt lat="48.79755" lon="2.23225">
        <ele>110</ele>
        <time>2020-12-05T14:22:29.094Z</time>
      </trkpt>
      <trkpt lat="48.79754" lon="2.23225">
        <ele>111</ele>
        <time>2020-12-05T14:22:30.094Z</time>
      </trkpt>
      <trkpt lat="48.79754" lon="2.23224">
        <ele>112</ele>
        <time>2020-12-05T14:22:31.094Z</time>
      </trkpt>
      <trkpt lat="48.79755" lon="2.23225">
        <ele>112</ele>
        <time>2020-12-05T14:22:32.095Z</time>
      </trkpt>
      <trkpt lat="48.79756" lon="2.23226">
        <ele>113</ele>
        <time>2020-12-05T14:22:33.095Z</time>
      </trkpt>
      <trkpt lat="48.79756" lon="2.23226">
        <ele>113</ele>
        <time>2020-12-05T14:22:34.094Z</time>
      </trkpt>
      <trkpt lat="48.79756" lon="2.23228">
        <ele>113</ele>
        <time>2020-12-05T14:22:35.095Z</time>
      </trkpt>
      <trkpt lat="48.79756" lon="2.23231">
        <ele>113</ele>
        <time>2020-12-05T14:22:36.094Z</time>
      </trkpt>
      <trkpt lat="48.79756" lon="2.23234">
        <ele>114</ele>
        <time>2020-12-05T14:22:37.095Z</time>
      </trkpt>
      <trkpt lat="48.79756" lon="2.23238">
        <ele>114</ele>
        <time>2020-12-05T14:22:38.095Z</time>
      </trkpt>
      <trkpt lat="48.79755" lon="2.23243">
        <ele>114</ele>
        <time>2020-12-05T14:22:39.095Z</time>
      </trkpt>
      <trkpt lat="48.79755" lon="2.23243">
        <ele>114</ele>
        <time>2020-12-05T14:22:40.094Z</time>
      </trkpt>
      <trkpt lat="48.79753" lon="2.23246">
        <ele>115</ele>
        <time>2020-12-05T14:22:41.095Z</time>
      </trkpt>
      <trkpt lat="48.79752" lon="2.23246">
        <ele>115</ele>
        <time>2020-12-05T14:22:42.095Z</time>
      </trkpt>
      <trkpt lat="48.7975" lon="2.23246">
        <ele>115</ele>
        <time>2020-12-05T14:22:43.095Z</time>
      </trkpt>
      <trkpt lat="48.79749" lon="2.23246">
        <ele>116</ele>
        <time>2020-12-05T14:22:44.094Z</time>
      </trkpt>
      <trkpt lat="48.79749" lon="2.23246">
        <ele>116</ele>
        <time>2020-12-05T14:22:45.095Z</time>
      </trkpt>
      <trkpt lat="48.79747" lon="2.23246">
        <ele>116</ele>
        <time>2020-12-05T14:22:46.095Z</time>
      </trkpt>
      <trkpt lat="48.79747" lon="2.23246">
        <ele>116</ele>
        <time>2020-12-05T14:22:47.095Z</time>
      </trkpt>
      <trkpt lat="48.79747" lon="2.23246">
        <ele>116</ele>
        <time>2020-12-05T14:22:48.094Z</time>
      </trkpt>
      <trkpt lat="48.79746" lon="2.23247">
        <ele>117</ele>
        <time>2020-12-05T14:22:49.094Z</time>
      </trkpt>
      <trkpt lat="48.79746" lon="2.23247">
        <ele>117</ele>
        <time>2020-12-05T14:22:50.094Z</time>
      </trkpt>
      <trkpt lat="48.79745" lon="2.23248">
        <ele>117</ele>
        <time>2020-12-05T14:22:51.095Z</time>
      </trkpt>
      <trkpt lat="48.79744" lon="2.23249">
        <ele>117</ele>
        <time>2020-12-05T14:22:52.095Z</time>
      </trkpt>
      <trkpt lat="48.79744" lon="2.2325">
        <ele>117</ele>
        <time>2020-12-05T14:22:53.095Z</time>
      </trkpt>
      <trkpt lat="48.79744" lon="2.23251">
        <ele>117</ele>
        <time>2020-12-05T14:22:54.095Z</time>
      </trkpt>
      <trkpt lat="48.79744" lon="2.23251">
        <ele>117</ele>
        <time>2020-12-05T14:22:55.094Z</time>
      </trkpt>
      <trkpt lat="48.79744" lon="2.23252">
        <ele>116</ele>
        <time>2020-12-05T14:22:56.095Z</time>
      </trkpt>
      <trkpt lat="48.79744" lon="2.23252">
        <ele>116</ele>
        <time>2020-12-05T14:22:57.095Z</time>
      </trkpt>
      <trkpt lat="48.79745" lon="2.2325">
        <ele>116</ele>
        <time>2020-12-05T14:22:58.095Z</time>
      </trkpt>
      <trkpt lat="48.79745" lon="2.2325">
        <ele>116</ele>
        <time>2020-12-05T14:22:59.094Z</time>
      </trkpt>
      <trkpt lat="48.79745" lon="2.23248">
        <ele>115</ele>
        <time>2020-12-05T14:23:00.094Z</time>
      </trkpt>
      <trkpt lat="48.79746" lon="2.23247">
        <ele>115</ele>
        <time>2020-12-05T14:23:01.095Z</time>
      </trkpt>
      <trkpt lat="48.79746" lon="2.23247">
        <ele>114</ele>
        <time>2020-12-05T14:23:02.095Z</time>
      </trkpt>
      <trkpt lat="48.79745" lon="2.23247">
        <ele>114</ele>
        <time>2020-12-05T14:23:03.094Z</time>
      </trkpt>
      <trkpt lat="48.79745" lon="2.23247">
        <ele>114</ele>
        <time>2020-12-05T14:23:04.095Z</time>
      </trkpt>
      <trkpt lat="48.79745" lon="2.23248">
        <ele>114</ele>
        <time>2020-12-05T14:23:05.094Z</time>
      </trkpt>
      <trkpt lat="48.79745" lon="2.23248">
        <ele>114</ele>
        <time>2020-12-05T14:23:06.094Z</time>
      </trkpt>
      <trkpt lat="48.79745" lon="2.23248">
        <ele>113</ele>
        <time>2020-12-05T14:23:07.095Z</time>
      </trkpt>
      <trkpt lat="48.79745" lon="2.23248">
        <ele>113</ele>
        <time>2020-12-05T14:23:08.095Z</time>
      </trkpt>
      <trkpt lat="48.79745" lon="2.23248">
        <ele>112</ele>
        <time>2020-12-05T14:23:09.095Z</time>
      </trkpt>
      <trkpt lat="48.79746" lon="2.23248">
        <ele>112</ele>
        <time>2020-12-05T14:23:10.094Z</time>
      </trkpt>
      <trkpt lat="48.79747" lon="2.23248">
        <ele>112</ele>
        <time>2020-12-05T14:23:11.095Z</time>
      </trkpt>
      <trkpt lat="48.79748" lon="2.23247">
        <ele>113</ele>
        <time>2020-12-05T14:23:12.095Z</time>
      </trkpt>
      <trkpt lat="48.79748" lon="2.23247">
        <ele>113</ele>
        <time>2020-12-05T14:23:13.095Z</time>
      </trkpt>
      <trkpt lat="48.79748" lon="2.23247">
        <ele>113</ele>
        <time>2020-12-05T14:23:14.094Z</time>
      </trkpt>
      <trkpt lat="48.79747" lon="2.23246">
        <ele>113</ele>
        <time>2020-12-05T14:23:15.094Z</time>
      </trkpt>
      <trkpt lat="48.79746" lon="2.23245">
        <ele>113</ele>
        <time>2020-12-05T14:23:16.095Z</time>
      </trkpt>
      <trkpt lat="48.79746" lon="2.23246">
        <ele>113</ele>
        <time>2020-12-05T14:23:17.095Z</time>
      </trkpt>
      <trkpt lat="48.79747" lon="2.23246">
        <ele>113</ele>
        <time>2020-12-05T14:23:18.094Z</time>
      </trkpt>
      <trkpt lat="48.79747" lon="2.23246">
        <ele>113</ele>
        <time>2020-12-05T14:23:19.095Z</time>
      </trkpt>
      <trkpt lat="48.79747" lon="2.23246">
        <ele>113</ele>
        <time>2020-12-05T14:23:20.094Z</time>
      </trkpt>
      <trkpt lat="48.79748" lon="2.23246">
        <ele>113</ele>
        <time>2020-12-05T14:23:21.095Z</time>
      </trkpt>
      <trkpt lat="48.79748" lon="2.23246">
        <ele>113</ele>
        <time>2020-12-05T14:23:22.095Z</time>
      </trkpt>
      <trkpt lat="48.79748" lon="2.23246">
        <ele>113</ele>
        <time>2020-12-05T14:23:23.095Z</time>
      </trkpt>
      <trkpt lat="48.79749" lon="2.23246">
        <ele>113</ele>
        <time>2020-12-05T14:23:24.094Z</time>
      </trkpt>
      <trkpt lat="48.79749" lon="2.23246">
        <ele>113</ele>
        <time>2020-12-05T14:23:25.094Z</time>
      </trkpt>
      <trkpt lat="48.79749" lon="2.23247">
        <ele>113</ele>
        <time>2020-12-05T14:23:26.094Z</time>
      </trkpt>
      <trkpt lat="48.79749" lon="2.23247">
        <ele>113</ele>
        <time>2020-12-05T14:23:27.095Z</time>
      </trkpt>
      <trkpt lat="48.79749" lon="2.23247">
        <ele>114</ele>
        <time>2020-12-05T14:23:28.094Z</time>
      </trkpt>
      <trkpt lat="48.79749" lon="2.23248">
        <ele>114</ele>
        <time>2020-12-05T14:23:29.095Z</time>
      </trkpt>
      <trkpt lat="48.79748" lon="2.23249">
        <ele>114</ele>
        <time>2020-12-05T14:23:30.095Z</time>
      </trkpt>
      <trkpt lat="48.79748" lon="2.23249">
        <ele>115</ele>
        <time>2020-12-05T14:23:31.095Z</time>
      </trkpt>
      <trkpt lat="48.79747" lon="2.2325">
        <ele>115</ele>
        <time>2020-12-05T14:23:32.094Z</time>
      </trkpt>
      <trkpt lat="48.79746" lon="2.2325">
        <ele>115</ele>
        <time>2020-12-05T14:23:33.095Z</time>
      </trkpt>
      <trkpt lat="48.79746" lon="2.23251">
        <ele>114</ele>
        <time>2020-12-05T14:23:34.095Z</time>
      </trkpt>
      <trkpt lat="48.79746" lon="2.23252">
        <ele>114</ele>
        <time>2020-12-05T14:23:35.095Z</time>
      </trkpt>
      <trkpt lat="48.79746" lon="2.23252">
        <ele>114</ele>
        <time>2020-12-05T14:23:36.095Z</time>
      </trkpt>
      <trkpt lat="48.79746" lon="2.23253">
        <ele>114</ele>
        <time>2020-12-05T14:23:37.095Z</time>
      </trkpt>
      <trkpt lat="48.79746" lon="2.23253">
        <ele>114</ele>
        <time>2020-12-05T14:23:38.094Z</time>
      </trkpt>
      <trkpt lat="48.79746" lon="2.23253">
        <ele>114</ele>
        <time>2020-12-05T14:23:39.095Z</time>
      </trkpt>
      <trkpt lat="48.79746" lon="2.23253">
        <ele>114</ele>
        <time>2020-12-05T14:23:40.094Z</time>
      </trkpt>
      <trkpt lat="48.79746" lon="2.23254">
        <ele>114</ele>
        <time>2020-12-05T14:23:41.094Z</time>
      </trkpt>
      <trkpt lat="48.79746" lon="2.23254">
        <ele>114</ele>
        <time>2020-12-05T14:23:42.094Z</time>
      </trkpt>
      <trkpt lat="48.79746" lon="2.23254">
        <ele>113</ele>
        <time>2020-12-05T14:23:43.095Z</time>
      </trkpt>
      <trkpt lat="48.79746" lon="2.23254">
        <ele>113</ele>
        <time>2020-12-05T14:23:44.095Z</time>
      </trkpt>
      <trkpt lat="48.79746" lon="2.23255">
        <ele>112</ele>
        <time>2020-12-05T14:23:45.095Z</time>
      </trkpt>
      <trkpt lat="48.79745" lon="2.23255">
        <ele>111</ele>
        <time>2020-12-05T14:23:46.095Z</time>
      </trkpt>
      <trkpt lat="48.79745" lon="2.23255">
        <ele>110</ele>
        <time>2020-12-05T14:23:47.095Z</time>
      </trkpt>
      <trkpt lat="48.79746" lon="2.23255">
        <ele>110</ele>
        <time>2020-12-05T14:23:48.094Z</time>
      </trkpt>
      <trkpt lat="48.79746" lon="2.23256">
        <ele>109</ele>
        <time>2020-12-05T14:23:49.095Z</time>
      </trkpt>
      <trkpt lat="48.79746" lon="2.23256">
        <ele>109</ele>
        <time>2020-12-05T14:23:50.095Z</time>
      </trkpt>
      <trkpt lat="48.79746" lon="2.23256">
        <ele>109</ele>
        <time>2020-12-05T14:23:51.094Z</time>
      </trkpt>
      <trkpt lat="48.79747" lon="2.23257">
        <ele>109</ele>
        <time>2020-12-05T14:23:52.095Z</time>
      </trkpt>
      <trkpt lat="48.79747" lon="2.23257">
        <ele>109</ele>
        <time>2020-12-05T14:23:53.095Z</time>
      </trkpt>
      <trkpt lat="48.79748" lon="2.23257">
        <ele>109</ele>
        <time>2020-12-05T14:23:54.095Z</time>
      </trkpt>
      <trkpt lat="48.79748" lon="2.23257">
        <ele>109</ele>
        <time>2020-12-05T14:23:55.095Z</time>
      </trkpt>
      <trkpt lat="48.79749" lon="2.23257">
        <ele>108</ele>
        <time>2020-12-05T14:23:56.095Z</time>
      </trkpt>
      <trkpt lat="48.79749" lon="2.23258">
        <ele>108</ele>
        <time>2020-12-05T14:23:57.095Z</time>
      </trkpt>
      <trkpt lat="48.79749" lon="2.23258">
        <ele>108</ele>
        <time>2020-12-05T14:23:58.095Z</time>
      </trkpt>
      <trkpt lat="48.79749" lon="2.23258">
        <ele>107</ele>
        <time>2020-12-05T14:23:59.094Z</time>
      </trkpt>
      <trkpt lat="48.79749" lon="2.23258">
        <ele>107</ele>
        <time>2020-12-05T14:24:00.094Z</time>
      </trkpt>
      <trkpt lat="48.79749" lon="2.23258">
        <ele>107</ele>
        <time>2020-12-05T14:24:01.095Z</time>
      </trkpt>
      <trkpt lat="48.79749" lon="2.23258">
        <ele>106</ele>
        <time>2020-12-05T14:24:02.095Z</time>
      </trkpt>
      <trkpt lat="48.79749" lon="2.23258">
        <ele>106</ele>
        <time>2020-12-05T14:24:03.094Z</time>
      </trkpt>
      <trkpt lat="48.79749" lon="2.23258">
        <ele>106</ele>
        <time>2020-12-05T14:24:04.094Z</time>
      </trkpt>
      <trkpt lat="48.79749" lon="2.23258">
        <ele>105</ele>
        <time>2020-12-05T14:24:05.095Z</time>
      </trkpt>
      <trkpt lat="48.79749" lon="2.23258">
        <ele>105</ele>
        <time>2020-12-05T14:24:06.095Z</time>
      </trkpt>
      <trkpt lat="48.79749" lon="2.23258">
        <ele>105</ele>
        <time>2020-12-05T14:24:07.094Z</time>
      </trkpt>
      <trkpt lat="48.79749" lon="2.23258">
        <ele>105</ele>
        <time>2020-12-05T14:24:08.094Z</time>
      </trkpt>
      <trkpt lat="48.79749" lon="2.23258">
        <ele>105</ele>
        <time>2020-12-05T14:24:09.095Z</time>
      </trkpt>
      <trkpt lat="48.79749" lon="2.23258">
        <ele>105</ele>
        <time>2020-12-05T14:24:10.095Z</time>
      </trkpt>
      <trkpt lat="48.79749" lon="2.23258">
        <ele>105</ele>
        <time>2020-12-05T14:24:11.095Z</time>
      </trkpt>
      <trkpt lat="48.79749" lon="2.23258">
        <ele>105</ele>
        <time>2020-12-05T14:24:12.095Z</time>
      </trkpt>
      <trkpt lat="48.79749" lon="2.23258">
        <ele>105</ele>
        <time>2020-12-05T14:24:13.095Z</time>
      </trkpt>
      <trkpt lat="48.79749" lon="2.23258">
        <ele>105</ele>
        <time>2020-12-05T14:24:14.095Z</time>
      </trkpt>
      <trkpt lat="48.79749" lon="2.23258">
        <ele>105</ele>
        <time>2020-12-05T14:24:15.095Z</time>
      </trkpt>
      <trkpt lat="48.79749" lon="2.23258">
        <ele>105</ele>
        <time>2020-12-05T14:24:16.095Z</time>
      </trkpt>
      <trkpt lat="48.79749" lon="2.23258">
        <ele>105</ele>
        <time>2020-12-05T14:24:17.095Z</time>
      </trkpt>
      <trkpt lat="48.79749" lon="2.23258">
        <ele>105</ele>
        <time>2020-12-05T14:24:18.095Z</time>
      </trkpt>
      <trkpt lat="48.79749" lon="2.23258">
        <ele>105</ele>
        <time>2020-12-05T14:24:19.095Z</time>
      </trkpt>
      <trkpt lat="48.79749" lon="2.23258">
        <ele>105</ele>
        <time>2020-12-05T14:24:20.095Z</time>
      </trkpt>
      <trkpt lat="48.79749" lon="2.23258">
        <ele>105</ele>
        <time>2020-12-05T14:24:21.095Z</time>
      </trkpt>
      <trkpt lat="48.79749" lon="2.23258">
        <ele>105</ele>
        <time>2020-12-05T14:24:22.095Z</time>
      </trkpt>
      <trkpt lat="48.79749" lon="2.23258">
        <ele>105</ele>
        <time>2020-12-05T14:24:23.095Z</time>
      </trkpt>
      <trkpt lat="48.79749" lon="2.23258">
        <ele>105</ele>
        <time>2020-12-05T14:24:24.095Z</time>
      </trkpt>
      <trkpt lat="48.79749" lon="2.23258">
        <ele>105</ele>
        <time>2020-12-05T14:24:25.094Z</time>
      </trkpt>
      <trkpt lat="48.79749" lon="2.23258">
        <ele>105</ele>
        <time>2020-12-05T14:24:26.094Z</time>
      </trkpt>
      <trkpt lat="48.79748" lon="2.23258">
        <ele>105</ele>
        <time>2020-12-05T14:24:27.095Z</time>
      </trkpt>
      <trkpt lat="48.79747" lon="2.23257">
        <ele>105</ele>
        <time>2020-12-05T14:24:28.095Z</time>
      </trkpt>
      <trkpt lat="48.79744" lon="2.23256">
        <ele>105</ele>
        <time>2020-12-05T14:24:29.095Z</time>
      </trkpt>
      <trkpt lat="48.79742" lon="2.23254">
        <ele>105</ele>
        <time>2020-12-05T14:24:30.094Z</time>
      </trkpt>
      <trkpt lat="48.7974" lon="2.23253">
        <ele>105</ele>
        <time>2020-12-05T14:24:31.095Z</time>
      </trkpt>
      <trkpt lat="48.79738" lon="2.23253">
        <ele>105</ele>
        <time>2020-12-05T14:24:32.094Z</time>
      </trkpt>
      <trkpt lat="48.79737" lon="2.23252">
        <ele>106</ele>
        <time>2020-12-05T14:24:33.094Z</time>
      </trkpt>
      <trkpt lat="48.79737" lon="2.23251">
        <ele>106</ele>
        <time>2020-12-05T14:24:34.095Z</time>
      </trkpt>
      <trkpt lat="48.79738" lon="2.23251">
        <ele>106</ele>
        <time>2020-12-05T14:24:35.095Z</time>
      </trkpt>
      <trkpt lat="48.79738" lon="2.23252">
        <ele>106</ele>
        <time>2020-12-05T14:24:36.095Z</time>
      </trkpt>
      <trkpt lat="48.79738" lon="2.23253">
        <ele>106</ele>
        <time>2020-12-05T14:24:37.094Z</time>
      </trkpt>
      <trkpt lat="48.79737" lon="2.23254">
        <ele>107</ele>
        <time>2020-12-05T14:24:38.095Z</time>
      </trkpt>
      <trkpt lat="48.79736" lon="2.23255">
        <ele>107</ele>
        <time>2020-12-05T14:24:39.095Z</time>
      </trkpt>
      <trkpt lat="48.79735" lon="2.23256">
        <ele>107</ele>
        <time>2020-12-05T14:24:40.095Z</time>
      </trkpt>
      <trkpt lat="48.79734" lon="2.23256">
        <ele>108</ele>
        <time>2020-12-05T14:24:41.095Z</time>
      </trkpt>
      <trkpt lat="48.79734" lon="2.23257">
        <ele>108</ele>
        <time>2020-12-05T14:24:42.095Z</time>
      </trkpt>
      <trkpt lat="48.79733" lon="2.23258">
        <ele>109</ele>
        <time>2020-12-05T14:24:43.095Z</time>
      </trkpt>
      <trkpt lat="48.79733" lon="2.23258">
        <ele>109</ele>
        <time>2020-12-05T14:24:44.095Z</time>
      </trkpt>
      <trkpt lat="48.79733" lon="2.23258">
        <ele>110</ele>
        <time>2020-12-05T14:24:45.095Z</time>
      </trkpt>
      <trkpt lat="48.79734" lon="2.23258">
        <ele>110</ele>
        <time>2020-12-05T14:24:46.094Z</time>
      </trkpt>
      <trkpt lat="48.79734" lon="2.23258">
        <ele>111</ele>
        <time>2020-12-05T14:24:47.095Z</time>
      </trkpt>
      <trkpt lat="48.79735" lon="2.23258">
        <ele>111</ele>
        <time>2020-12-05T14:24:48.095Z</time>
      </trkpt>
      <trkpt lat="48.79735" lon="2.23258">
        <ele>112</ele>
        <time>2020-12-05T14:24:49.095Z</time>
      </trkpt>
      <trkpt lat="48.79734" lon="2.23258">
        <ele>112</ele>
        <time>2020-12-05T14:24:50.095Z</time>
      </trkpt>
      <trkpt lat="48.79734" lon="2.23258">
        <ele>112</ele>
        <time>2020-12-05T14:24:51.095Z</time>
      </trkpt>
      <trkpt lat="48.79733" lon="2.23258">
        <ele>113</ele>
        <time>2020-12-05T14:24:52.095Z</time>
      </trkpt>
      <trkpt lat="48.79731" lon="2.23258">
        <ele>113</ele>
        <time>2020-12-05T14:24:53.095Z</time>
      </trkpt>
      <trkpt lat="48.79729" lon="2.23259">
        <ele>113</ele>
        <time>2020-12-05T14:24:54.094Z</time>
      </trkpt>
      <trkpt lat="48.79727" lon="2.2326">
        <ele>113</ele>
        <time>2020-12-05T14:24:55.094Z</time>
      </trkpt>
      <trkpt lat="48.79725" lon="2.23261">
        <ele>113</ele>
        <time>2020-12-05T14:24:56.094Z</time>
      </trkpt>
      <trkpt lat="48.79723" lon="2.23263">
        <ele>113</ele>
        <time>2020-12-05T14:24:57.095Z</time>
      </trkpt>
      <trkpt lat="48.7972" lon="2.23265">
        <ele>113</ele>
        <time>2020-12-05T14:24:58.095Z</time>
      </trkpt>
      <trkpt lat="48.79719" lon="2.23267">
        <ele>113</ele>
        <time>2020-12-05T14:24:59.095Z</time>
      </trkpt>
      <trkpt lat="48.79718" lon="2.23268">
        <ele>114</ele>
        <time>2020-12-05T14:25:00.095Z</time>
      </trkpt>
      <trkpt lat="48.79717" lon="2.2327">
        <ele>114</ele>
        <time>2020-12-05T14:25:01.094Z</time>
      </trkpt>
      <trkpt lat="48.79717" lon="2.23272">
        <ele>115</ele>
        <time>2020-12-05T14:25:02.094Z</time>
      </trkpt>
      <trkpt lat="48.79718" lon="2.23274">
        <ele>115</ele>
        <time>2020-12-05T14:25:03.095Z</time>
      </trkpt>
      <trkpt lat="48.79717" lon="2.23276">
        <ele>116</ele>
        <time>2020-12-05T14:25:04.095Z</time>
      </trkpt>
      <trkpt lat="48.79717" lon="2.23278">
        <ele>117</ele>
        <time>2020-12-05T14:25:05.095Z</time>
      </trkpt>
      <trkpt lat="48.79716" lon="2.2328">
        <ele>117</ele>
        <time>2020-12-05T14:25:06.095Z</time>
      </trkpt>
      <trkpt lat="48.79715" lon="2.23281">
        <ele>118</ele>
        <time>2020-12-05T14:25:07.094Z</time>
      </trkpt>
      <trkpt lat="48.79715" lon="2.23283">
        <ele>118</ele>
        <time>2020-12-05T14:25:08.095Z</time>
      </trkpt>
      <trkpt lat="48.79714" lon="2.23285">
        <ele>118</ele>
        <time>2020-12-05T14:25:09.094Z</time>
      </trkpt>
      <trkpt lat="48.79713" lon="2.23287">
        <ele>118</ele>
        <time>2020-12-05T14:25:10.094Z</time>
      </trkpt>
      <trkpt lat="48.79712" lon="2.23288">
        <ele>118</ele>
        <time>2020-12-05T14:25:11.095Z</time>
      </trkpt>
      <trkpt lat="48.79711" lon="2.2329">
        <ele>119</ele>
        <time>2020-12-05T14:25:12.094Z</time>
      </trkpt>
      <trkpt lat="48.79711" lon="2.23291">
        <ele>119</ele>
        <time>2020-12-05T14:25:13.095Z</time>
      </trkpt>
      <trkpt lat="48.7971" lon="2.23292">
        <ele>119</ele>
        <time>2020-12-05T14:25:14.095Z</time>
      </trkpt>
      <trkpt lat="48.79709" lon="2.23294">
        <ele>119</ele>
        <time>2020-12-05T14:25:15.095Z</time>
      </trkpt>
      <trkpt lat="48.79708" lon="2.23296">
        <ele>120</ele>
        <time>2020-12-05T14:25:16.095Z</time>
      </trkpt>
      <trkpt lat="48.79706" lon="2.23298">
        <ele>120</ele>
        <time>2020-12-05T14:25:17.095Z</time>
      </trkpt>
      <trkpt lat="48.79705" lon="2.23299">
        <ele>121</ele>
        <time>2020-12-05T14:25:18.095Z</time>
      </trkpt>
      <trkpt lat="48.79704" lon="2.233">
        <ele>121</ele>
        <time>2020-12-05T14:25:19.095Z</time>
      </trkpt>
      <trkpt lat="48.79702" lon="2.23301">
        <ele>121</ele>
        <time>2020-12-05T14:25:20.094Z</time>
      </trkpt>
      <trkpt lat="48.79701" lon="2.23302">
        <ele>121</ele>
        <time>2020-12-05T14:25:21.095Z</time>
      </trkpt>
      <trkpt lat="48.797" lon="2.23303">
        <ele>120</ele>
        <time>2020-12-05T14:25:22.095Z</time>
      </trkpt>
      <trkpt lat="48.79699" lon="2.23304">
        <ele>120</ele>
        <time>2020-12-05T14:25:23.095Z</time>
      </trkpt>
      <trkpt lat="48.79698" lon="2.23305">
        <ele>120</ele>
        <time>2020-12-05T14:25:24.095Z</time>
      </trkpt>
      <trkpt lat="48.79697" lon="2.23306">
        <ele>120</ele>
        <time>2020-12-05T14:25:25.094Z</time>
      </trkpt>
      <trkpt lat="48.79696" lon="2.23307">
        <ele>120</ele>
        <time>2020-12-05T14:25:26.095Z</time>
      </trkpt>
      <trkpt lat="48.79693" lon="2.23308">
        <ele>120</ele>
        <time>2020-12-05T14:25:27.094Z</time>
      </trkpt>
      <trkpt lat="48.79691" lon="2.23309">
        <ele>120</ele>
        <time>2020-12-05T14:25:28.094Z</time>
      </trkpt>
      <trkpt lat="48.79688" lon="2.23311">
        <ele>120</ele>
        <time>2020-12-05T14:25:29.095Z</time>
      </trkpt>
      <trkpt lat="48.79686" lon="2.23313">
        <ele>119</ele>
        <time>2020-12-05T14:25:30.095Z</time>
      </trkpt>
      <trkpt lat="48.79684" lon="2.23314">
        <ele>119</ele>
        <time>2020-12-05T14:25:31.094Z</time>
      </trkpt>
      <trkpt lat="48.79682" lon="2.23315">
        <ele>119</ele>
        <time>2020-12-05T14:25:32.094Z</time>
      </trkpt>
      <trkpt lat="48.79681" lon="2.23316">
        <ele>119</ele>
        <time>2020-12-05T14:25:33.095Z</time>
      </trkpt>
      <trkpt lat="48.7968" lon="2.23317">
        <ele>119</ele>
        <time>2020-12-05T14:25:34.094Z</time>
      </trkpt>
      <trkpt lat="48.79679" lon="2.23318">
        <ele>119</ele>
        <time>2020-12-05T14:25:35.095Z</time>
      </trkpt>
      <trkpt lat="48.79678" lon="2.2332">
        <ele>119</ele>
        <time>2020-12-05T14:25:36.095Z</time>
      </trkpt>
      <trkpt lat="48.79677" lon="2.23322">
        <ele>119</ele>
        <time>2020-12-05T14:25:37.095Z</time>
      </trkpt>
      <trkpt lat="48.79676" lon="2.23323">
        <ele>119</ele>
        <time>2020-12-05T14:25:38.095Z</time>
      </trkpt>
      <trkpt lat="48.79674" lon="2.23324">
        <ele>119</ele>
        <time>2020-12-05T14:25:39.094Z</time>
      </trkpt>
      <trkpt lat="48.79674" lon="2.23326">
        <ele>119</ele>
        <time>2020-12-05T14:25:40.094Z</time>
      </trkpt>
      <trkpt lat="48.79674" lon="2.23327">
        <ele>119</ele>
        <time>2020-12-05T14:25:41.095Z</time>
      </trkpt>
      <trkpt lat="48.79672" lon="2.23329">
        <ele>119</ele>
        <time>2020-12-05T14:25:42.094Z</time>
      </trkpt>
      <trkpt lat="48.79672" lon="2.23331">
        <ele>119</ele>
        <time>2020-12-05T14:25:43.095Z</time>
      </trkpt>
      <trkpt lat="48.7967" lon="2.23332">
        <ele>119</ele>
        <time>2020-12-05T14:25:44.095Z</time>
      </trkpt>
      <trkpt lat="48.79669" lon="2.23334">
        <ele>119</ele>
        <time>2020-12-05T14:25:45.094Z</time>
      </trkpt>
      <trkpt lat="48.79668" lon="2.23336">
        <ele>120</ele>
        <time>2020-12-05T14:25:46.095Z</time>
      </trkpt>
      <trkpt lat="48.79667" lon="2.23338">
        <ele>120</ele>
        <time>2020-12-05T14:25:47.095Z</time>
      </trkpt>
      <trkpt lat="48.79667" lon="2.23339">
        <ele>120</ele>
        <time>2020-12-05T14:25:48.095Z</time>
      </trkpt>
      <trkpt lat="48.79667" lon="2.23341">
        <ele>120</ele>
        <time>2020-12-05T14:25:49.095Z</time>
      </trkpt>
      <trkpt lat="48.79665" lon="2.23343">
        <ele>120</ele>
        <time>2020-12-05T14:25:50.095Z</time>
      </trkpt>
      <trkpt lat="48.79664" lon="2.23345">
        <ele>120</ele>
        <time>2020-12-05T14:25:51.094Z</time>
      </trkpt>
      <trkpt lat="48.79663" lon="2.23346">
        <ele>120</ele>
        <time>2020-12-05T14:25:52.095Z</time>
      </trkpt>
      <trkpt lat="48.79661" lon="2.23347">
        <ele>120</ele>
        <time>2020-12-05T14:25:53.095Z</time>
      </trkpt>
      <trkpt lat="48.79658" lon="2.23349">
        <ele>120</ele>
        <time>2020-12-05T14:25:54.094Z</time>
      </trkpt>
      <trkpt lat="48.79656" lon="2.2335">
        <ele>119</ele>
        <time>2020-12-05T14:25:55.095Z</time>
      </trkpt>
      <trkpt lat="48.79655" lon="2.23351">
        <ele>119</ele>
        <time>2020-12-05T14:25:56.095Z</time>
      </trkpt>
      <trkpt lat="48.79654" lon="2.23351">
        <ele>119</ele>
        <time>2020-12-05T14:25:57.094Z</time>
      </trkpt>
      <trkpt lat="48.79652" lon="2.23353">
        <ele>120</ele>
        <time>2020-12-05T14:25:58.095Z</time>
      </trkpt>
      <trkpt lat="48.79651" lon="2.23355">
        <ele>120</ele>
        <time>2020-12-05T14:25:59.095Z</time>
      </trkpt>
      <trkpt lat="48.7965" lon="2.23357">
        <ele>120</ele>
        <time>2020-12-05T14:26:00.095Z</time>
      </trkpt>
      <trkpt lat="48.7965" lon="2.23359">
        <ele>120</ele>
        <time>2020-12-05T14:26:01.095Z</time>
      </trkpt>
      <trkpt lat="48.79649" lon="2.23361">
        <ele>120</ele>
        <time>2020-12-05T14:26:02.094Z</time>
      </trkpt>
      <trkpt lat="48.79649" lon="2.23363">
        <ele>120</ele>
        <time>2020-12-05T14:26:03.094Z</time>
      </trkpt>
      <trkpt lat="48.79648" lon="2.23365">
        <ele>120</ele>
        <time>2020-12-05T14:26:04.095Z</time>
      </trkpt>
      <trkpt lat="48.79647" lon="2.23366">
        <ele>119</ele>
        <time>2020-12-05T14:26:05.094Z</time>
      </trkpt>
      <trkpt lat="48.79645" lon="2.23367">
        <ele>119</ele>
        <time>2020-12-05T14:26:06.095Z</time>
      </trkpt>
      <trkpt lat="48.79643" lon="2.23368">
        <ele>119</ele>
        <time>2020-12-05T14:26:07.095Z</time>
      </trkpt>
      <trkpt lat="48.79642" lon="2.23369">
        <ele>119</ele>
        <time>2020-12-05T14:26:08.095Z</time>
      </trkpt>
      <trkpt lat="48.79641" lon="2.2337">
        <ele>118</ele>
        <time>2020-12-05T14:26:09.095Z</time>
      </trkpt>
      <trkpt lat="48.79641" lon="2.23371">
        <ele>118</ele>
        <time>2020-12-05T14:26:10.095Z</time>
      </trkpt>
      <trkpt lat="48.7964" lon="2.23372">
        <ele>118</ele>
        <time>2020-12-05T14:26:11.095Z</time>
      </trkpt>
      <trkpt lat="48.79639" lon="2.23372">
        <ele>117</ele>
        <time>2020-12-05T14:26:12.094Z</time>
      </trkpt>
      <trkpt lat="48.79638" lon="2.23372">
        <ele>117</ele>
        <time>2020-12-05T14:26:13.095Z</time>
      </trkpt>
      <trkpt lat="48.79636" lon="2.23373">
        <ele>117</ele>
        <time>2020-12-05T14:26:14.095Z</time>
      </trkpt>
      <trkpt lat="48.79635" lon="2.23374">
        <ele>117</ele>
        <time>2020-12-05T14:26:15.094Z</time>
      </trkpt>
      <trkpt lat="48.79634" lon="2.23376">
        <ele>117</ele>
        <time>2020-12-05T14:26:16.095Z</time>
      </trkpt>
      <trkpt lat="48.79633" lon="2.23377">
        <ele>117</ele>
        <time>2020-12-05T14:26:17.095Z</time>
      </trkpt>
      <trkpt lat="48.79632" lon="2.23378">
        <ele>116</ele>
        <time>2020-12-05T14:26:18.095Z</time>
      </trkpt>
      <trkpt lat="48.7963" lon="2.23378">
        <ele>116</ele>
        <time>2020-12-05T14:26:19.095Z</time>
      </trkpt>
      <trkpt lat="48.79628" lon="2.2338">
        <ele>116</ele>
        <time>2020-12-05T14:26:20.095Z</time>
      </trkpt>
      <trkpt lat="48.79626" lon="2.23381">
        <ele>115</ele>
        <time>2020-12-05T14:26:21.094Z</time>
      </trkpt>
      <trkpt lat="48.79625" lon="2.23383">
        <ele>115</ele>
        <time>2020-12-05T14:26:22.095Z</time>
      </trkpt>
      <trkpt lat="48.79624" lon="2.23385">
        <ele>115</ele>
        <time>2020-12-05T14:26:23.095Z</time>
      </trkpt>
      <trkpt lat="48.79623" lon="2.23387">
        <ele>114</ele>
        <time>2020-12-05T14:26:24.095Z</time>
      </trkpt>
      <trkpt lat="48.79623" lon="2.23389">
        <ele>114</ele>
        <time>2020-12-05T14:26:25.095Z</time>
      </trkpt>
      <trkpt lat="48.79621" lon="2.2339">
        <ele>113</ele>
        <time>2020-12-05T14:26:26.095Z</time>
      </trkpt>
      <trkpt lat="48.7962" lon="2.23392">
        <ele>113</ele>
        <time>2020-12-05T14:26:27.095Z</time>
      </trkpt>
      <trkpt lat="48.79618" lon="2.23394">
        <ele>113</ele>
        <time>2020-12-05T14:26:28.094Z</time>
      </trkpt>
      <trkpt lat="48.79617" lon="2.23395">
        <ele>113</ele>
        <time>2020-12-05T14:26:29.095Z</time>
      </trkpt>
      <trkpt lat="48.79616" lon="2.23397">
        <ele>113</ele>
        <time>2020-12-05T14:26:30.095Z</time>
      </trkpt>
      <trkpt lat="48.79614" lon="2.23398">
        <ele>113</ele>
        <time>2020-12-05T14:26:31.095Z</time>
      </trkpt>
      <trkpt lat="48.79613" lon="2.23399">
        <ele>113</ele>
        <time>2020-12-05T14:26:32.095Z</time>
      </trkpt>
      <trkpt lat="48.79612" lon="2.234">
        <ele>114</ele>
        <time>2020-12-05T14:26:33.094Z</time>
      </trkpt>
      <trkpt lat="48.79611" lon="2.23401">
        <ele>114</ele>
        <time>2020-12-05T14:26:34.095Z</time>
      </trkpt>
      <trkpt lat="48.79611" lon="2.23402">
        <ele>114</ele>
        <time>2020-12-05T14:26:35.094Z</time>
      </trkpt>
      <trkpt lat="48.7961" lon="2.23402">
        <ele>115</ele>
        <time>2020-12-05T14:26:36.094Z</time>
      </trkpt>
      <trkpt lat="48.79609" lon="2.23403">
        <ele>115</ele>
        <time>2020-12-05T14:26:37.095Z</time>
      </trkpt>
      <trkpt lat="48.79608" lon="2.23404">
        <ele>115</ele>
        <time>2020-12-05T14:26:38.094Z</time>
      </trkpt>
      <trkpt lat="48.79607" lon="2.23404">
        <ele>115</ele>
        <time>2020-12-05T14:26:39.095Z</time>
      </trkpt>
      <trkpt lat="48.79606" lon="2.23405">
        <ele>115</ele>
        <time>2020-12-05T14:26:40.095Z</time>
      </trkpt>
      <trkpt lat="48.79605" lon="2.23405">
        <ele>116</ele>
        <time>2020-12-05T14:26:41.095Z</time>
      </trkpt>
      <trkpt lat="48.79605" lon="2.23405">
        <ele>116</ele>
        <time>2020-12-05T14:26:42.095Z</time>
      </trkpt>
      <trkpt lat="48.79604" lon="2.23405">
        <ele>115</ele>
        <time>2020-12-05T14:26:43.095Z</time>
      </trkpt>
      <trkpt lat="48.79602" lon="2.23406">
        <ele>115</ele>
        <time>2020-12-05T14:26:44.095Z</time>
      </trkpt>
      <trkpt lat="48.79601" lon="2.23407">
        <ele>115</ele>
        <time>2020-12-05T14:26:45.095Z</time>
      </trkpt>
      <trkpt lat="48.796" lon="2.23408">
        <ele>115</ele>
        <time>2020-12-05T14:26:46.095Z</time>
      </trkpt>
      <trkpt lat="48.79599" lon="2.23408">
        <ele>114</ele>
        <time>2020-12-05T14:26:47.095Z</time>
      </trkpt>
      <trkpt lat="48.79598" lon="2.2341">
        <ele>114</ele>
        <time>2020-12-05T14:26:48.095Z</time>
      </trkpt>
      <trkpt lat="48.79597" lon="2.23411">
        <ele>114</ele>
        <time>2020-12-05T14:26:49.095Z</time>
      </trkpt>
      <trkpt lat="48.79596" lon="2.23412">
        <ele>114</ele>
        <time>2020-12-05T14:26:50.094Z</time>
      </trkpt>
      <trkpt lat="48.79594" lon="2.23413">
        <ele>114</ele>
        <time>2020-12-05T14:26:51.094Z</time>
      </trkpt>
      <trkpt lat="48.79593" lon="2.23414">
        <ele>113</ele>
        <time>2020-12-05T14:26:52.095Z</time>
      </trkpt>
      <trkpt lat="48.79592" lon="2.23416">
        <ele>113</ele>
        <time>2020-12-05T14:26:53.095Z</time>
      </trkpt>
      <trkpt lat="48.79591" lon="2.23417">
        <ele>113</ele>
        <time>2020-12-05T14:26:54.095Z</time>
      </trkpt>
      <trkpt lat="48.7959" lon="2.23419">
        <ele>113</ele>
        <time>2020-12-05T14:26:55.095Z</time>
      </trkpt>
      <trkpt lat="48.79589" lon="2.2342">
        <ele>113</ele>
        <time>2020-12-05T14:26:56.095Z</time>
      </trkpt>
      <trkpt lat="48.79589" lon="2.23421">
        <ele>113</ele>
        <time>2020-12-05T14:26:57.095Z</time>
      </trkpt>
      <trkpt lat="48.7959" lon="2.23423">
        <ele>113</ele>
        <time>2020-12-05T14:26:58.095Z</time>
      </trkpt>
      <trkpt lat="48.79589" lon="2.23425">
        <ele>113</ele>
        <time>2020-12-05T14:26:59.095Z</time>
      </trkpt>
      <trkpt lat="48.79588" lon="2.23427">
        <ele>113</ele>
        <time>2020-12-05T14:27:00.095Z</time>
      </trkpt>
      <trkpt lat="48.79587" lon="2.23428">
        <ele>114</ele>
        <time>2020-12-05T14:27:01.095Z</time>
      </trkpt>
      <trkpt lat="48.79585" lon="2.23429">
        <ele>114</ele>
        <time>2020-12-05T14:27:02.095Z</time>
      </trkpt>
      <trkpt lat="48.79584" lon="2.2343">
        <ele>115</ele>
        <time>2020-12-05T14:27:03.095Z</time>
      </trkpt>
      <trkpt lat="48.79583" lon="2.23431">
        <ele>115</ele>
        <time>2020-12-05T14:27:04.094Z</time>
      </trkpt>
      <trkpt lat="48.79582" lon="2.23432">
        <ele>115</ele>
        <time>2020-12-05T14:27:05.095Z</time>
      </trkpt>
      <trkpt lat="48.79581" lon="2.23432">
        <ele>116</ele>
        <time>2020-12-05T14:27:06.095Z</time>
      </trkpt>
      <trkpt lat="48.79579" lon="2.23433">
        <ele>116</ele>
        <time>2020-12-05T14:27:07.094Z</time>
      </trkpt>
      <trkpt lat="48.79578" lon="2.23434">
        <ele>116</ele>
        <time>2020-12-05T14:27:08.095Z</time>
      </trkpt>
      <trkpt lat="48.79576" lon="2.23436">
        <ele>116</ele>
        <time>2020-12-05T14:27:09.095Z</time>
      </trkpt>
      <trkpt lat="48.79575" lon="2.23437">
        <ele>117</ele>
        <time>2020-12-05T14:27:10.095Z</time>
      </trkpt>
      <trkpt lat="48.79574" lon="2.2344">
        <ele>117</ele>
        <time>2020-12-05T14:27:11.095Z</time>
      </trkpt>
      <trkpt lat="48.79572" lon="2.23442">
        <ele>117</ele>
        <time>2020-12-05T14:27:12.095Z</time>
      </trkpt>
      <trkpt lat="48.79572" lon="2.23444">
        <ele>117</ele>
        <time>2020-12-05T14:27:13.094Z</time>
      </trkpt>
      <trkpt lat="48.79571" lon="2.23447">
        <ele>117</ele>
        <time>2020-12-05T14:27:14.094Z</time>
      </trkpt>
      <trkpt lat="48.7957" lon="2.23448">
        <ele>117</ele>
        <time>2020-12-05T14:27:15.094Z</time>
      </trkpt>
      <trkpt lat="48.79568" lon="2.23449">
        <ele>117</ele>
        <time>2020-12-05T14:27:16.095Z</time>
      </trkpt>
      <trkpt lat="48.79567" lon="2.2345">
        <ele>117</ele>
        <time>2020-12-05T14:27:17.094Z</time>
      </trkpt>
      <trkpt lat="48.79565" lon="2.23451">
        <ele>116</ele>
        <time>2020-12-05T14:27:18.095Z</time>
      </trkpt>
      <trkpt lat="48.79565" lon="2.23452">
        <ele>116</ele>
        <time>2020-12-05T14:27:19.095Z</time>
      </trkpt>
      <trkpt lat="48.79564" lon="2.23452">
        <ele>116</ele>
        <time>2020-12-05T14:27:20.095Z</time>
      </trkpt>
      <trkpt lat="48.79563" lon="2.23453">
        <ele>115</ele>
        <time>2020-12-05T14:27:21.094Z</time>
      </trkpt>
      <trkpt lat="48.79563" lon="2.23454">
        <ele>115</ele>
        <time>2020-12-05T14:27:22.095Z</time>
      </trkpt>
      <trkpt lat="48.79562" lon="2.23455">
        <ele>115</ele>
        <time>2020-12-05T14:27:23.094Z</time>
      </trkpt>
      <trkpt lat="48.79561" lon="2.23456">
        <ele>115</ele>
        <time>2020-12-05T14:27:24.095Z</time>
      </trkpt>
      <trkpt lat="48.79561" lon="2.23458">
        <ele>115</ele>
        <time>2020-12-05T14:27:25.095Z</time>
      </trkpt>
      <trkpt lat="48.7956" lon="2.2346">
        <ele>114</ele>
        <time>2020-12-05T14:27:26.095Z</time>
      </trkpt>
      <trkpt lat="48.7956" lon="2.23461">
        <ele>114</ele>
        <time>2020-12-05T14:27:27.094Z</time>
      </trkpt>
      <trkpt lat="48.79559" lon="2.23462">
        <ele>114</ele>
        <time>2020-12-05T14:27:28.095Z</time>
      </trkpt>
      <trkpt lat="48.79558" lon="2.23463">
        <ele>113</ele>
        <time>2020-12-05T14:27:29.095Z</time>
      </trkpt>
      <trkpt lat="48.79556" lon="2.23464">
        <ele>113</ele>
        <time>2020-12-05T14:27:30.094Z</time>
      </trkpt>
      <trkpt lat="48.79553" lon="2.23464">
        <ele>112</ele>
        <time>2020-12-05T14:27:31.095Z</time>
      </trkpt>
      <trkpt lat="48.7955" lon="2.23465">
        <ele>112</ele>
        <time>2020-12-05T14:27:32.095Z</time>
      </trkpt>
      <trkpt lat="48.79548" lon="2.23466">
        <ele>112</ele>
        <time>2020-12-05T14:27:33.094Z</time>
      </trkpt>
      <trkpt lat="48.79546" lon="2.23467">
        <ele>112</ele>
        <time>2020-12-05T14:27:34.095Z</time>
      </trkpt>
      <trkpt lat="48.79545" lon="2.23467">
        <ele>112</ele>
        <time>2020-12-05T14:27:35.095Z</time>
      </trkpt>
      <trkpt lat="48.79544" lon="2.23467">
        <ele>112</ele>
        <time>2020-12-05T14:27:36.094Z</time>
      </trkpt>
      <trkpt lat="48.79543" lon="2.23467">
        <ele>111</ele>
        <time>2020-12-05T14:27:37.095Z</time>
      </trkpt>
      <trkpt lat="48.79542" lon="2.23467">
        <ele>111</ele>
        <time>2020-12-05T14:27:38.094Z</time>
      </trkpt>
      <trkpt lat="48.79541" lon="2.23467">
        <ele>110</ele>
        <time>2020-12-05T14:27:39.095Z</time>
      </trkpt>
      <trkpt lat="48.79539" lon="2.23467">
        <ele>110</ele>
        <time>2020-12-05T14:27:40.094Z</time>
      </trkpt>
      <trkpt lat="48.79538" lon="2.23467">
        <ele>110</ele>
        <time>2020-12-05T14:27:41.094Z</time>
      </trkpt>
      <trkpt lat="48.79537" lon="2.23467">
        <ele>109</ele>
        <time>2020-12-05T14:27:42.095Z</time>
      </trkpt>
      <trkpt lat="48.79536" lon="2.23466">
        <ele>109</ele>
        <time>2020-12-05T14:27:43.094Z</time>
      </trkpt>
      <trkpt lat="48.79534" lon="2.23466">
        <ele>109</ele>
        <time>2020-12-05T14:27:44.095Z</time>
      </trkpt>
      <trkpt lat="48.79533" lon="2.23465">
        <ele>108</ele>
        <time>2020-12-05T14:27:45.095Z</time>
      </trkpt>
      <trkpt lat="48.79532" lon="2.23464">
        <ele>108</ele>
        <time>2020-12-05T14:27:46.095Z</time>
      </trkpt>
      <trkpt lat="48.79531" lon="2.23464">
        <ele>108</ele>
        <time>2020-12-05T14:27:47.095Z</time>
      </trkpt>
      <trkpt lat="48.79529" lon="2.23464">
        <ele>108</ele>
        <time>2020-12-05T14:27:48.095Z</time>
      </trkpt>
      <trkpt lat="48.79527" lon="2.23463">
        <ele>107</ele>
        <time>2020-12-05T14:27:49.095Z</time>
      </trkpt>
      <trkpt lat="48.79526" lon="2.23463">
        <ele>108</ele>
        <time>2020-12-05T14:27:50.095Z</time>
      </trkpt>
      <trkpt lat="48.79525" lon="2.23462">
        <ele>108</ele>
        <time>2020-12-05T14:27:51.094Z</time>
      </trkpt>
      <trkpt lat="48.79523" lon="2.23462">
        <ele>108</ele>
        <time>2020-12-05T14:27:52.094Z</time>
      </trkpt>
      <trkpt lat="48.79521" lon="2.23462">
        <ele>108</ele>
        <time>2020-12-05T14:27:53.094Z</time>
      </trkpt>
      <trkpt lat="48.7952" lon="2.23463">
        <ele>109</ele>
        <time>2020-12-05T14:27:54.095Z</time>
      </trkpt>
      <trkpt lat="48.7952" lon="2.23463">
        <ele>109</ele>
        <time>2020-12-05T14:27:55.095Z</time>
      </trkpt>
      <trkpt lat="48.7952" lon="2.23464">
        <ele>109</ele>
        <time>2020-12-05T14:27:56.094Z</time>
      </trkpt>
      <trkpt lat="48.79522" lon="2.23464">
        <ele>109</ele>
        <time>2020-12-05T14:27:57.095Z</time>
      </trkpt>
      <trkpt lat="48.79524" lon="2.23464">
        <ele>109</ele>
        <time>2020-12-05T14:27:58.094Z</time>
      </trkpt>
      <trkpt lat="48.79525" lon="2.23464">
        <ele>109</ele>
        <time>2020-12-05T14:27:59.095Z</time>
      </trkpt>
      <trkpt lat="48.79526" lon="2.23464">
        <ele>109</ele>
        <time>2020-12-05T14:28:00.094Z</time>
      </trkpt>
      <trkpt lat="48.79527" lon="2.23464">
        <ele>109</ele>
        <time>2020-12-05T14:28:01.095Z</time>
      </trkpt>
      <trkpt lat="48.79528" lon="2.23465">
        <ele>109</ele>
        <time>2020-12-05T14:28:02.095Z</time>
      </trkpt>
      <trkpt lat="48.79529" lon="2.23465">
        <ele>109</ele>
        <time>2020-12-05T14:28:03.095Z</time>
      </trkpt>
      <trkpt lat="48.79531" lon="2.23466">
        <ele>110</ele>
        <time>2020-12-05T14:28:04.095Z</time>
      </trkpt>
      <trkpt lat="48.79532" lon="2.23468">
        <ele>110</ele>
        <time>2020-12-05T14:28:05.095Z</time>
      </trkpt>
      <trkpt lat="48.79532" lon="2.23469">
        <ele>110</ele>
        <time>2020-12-05T14:28:06.095Z</time>
      </trkpt>
      <trkpt lat="48.79533" lon="2.23471">
        <ele>111</ele>
        <time>2020-12-05T14:28:07.095Z</time>
      </trkpt>
      <trkpt lat="48.79533" lon="2.23472">
        <ele>111</ele>
        <time>2020-12-05T14:28:08.095Z</time>
      </trkpt>
      <trkpt lat="48.79533" lon="2.23474">
        <ele>111</ele>
        <time>2020-12-05T14:28:09.095Z</time>
      </trkpt>
      <trkpt lat="48.79533" lon="2.23476">
        <ele>111</ele>
        <time>2020-12-05T14:28:10.095Z</time>
      </trkpt>
      <trkpt lat="48.79533" lon="2.23478">
        <ele>112</ele>
        <time>2020-12-05T14:28:11.095Z</time>
      </trkpt>
      <trkpt lat="48.79533" lon="2.23479">
        <ele>112</ele>
        <time>2020-12-05T14:28:12.095Z</time>
      </trkpt>
      <trkpt lat="48.79534" lon="2.23481">
        <ele>113</ele>
        <time>2020-12-05T14:28:13.095Z</time>
      </trkpt>
      <trkpt lat="48.79535" lon="2.23483">
        <ele>113</ele>
        <time>2020-12-05T14:28:14.094Z</time>
      </trkpt>
      <trkpt lat="48.79536" lon="2.23485">
        <ele>114</ele>
        <time>2020-12-05T14:28:15.095Z</time>
      </trkpt>
      <trkpt lat="48.79537" lon="2.23487">
        <ele>115</ele>
        <time>2020-12-05T14:28:16.095Z</time>
      </trkpt>
      <trkpt lat="48.79538" lon="2.23488">
        <ele>116</ele>
        <time>2020-12-05T14:28:17.095Z</time>
      </trkpt>
      <trkpt lat="48.7954" lon="2.23491">
        <ele>116</ele>
        <time>2020-12-05T14:28:18.095Z</time>
      </trkpt>
      <trkpt lat="48.79541" lon="2.23493">
        <ele>117</ele>
        <time>2020-12-05T14:28:19.095Z</time>
      </trkpt>
      <trkpt lat="48.79542" lon="2.23495">
        <ele>118</ele>
        <time>2020-12-05T14:28:20.095Z</time>
      </trkpt>
      <trkpt lat="48.79542" lon="2.23497">
        <ele>118</ele>
        <time>2020-12-05T14:28:21.095Z</time>
      </trkpt>
      <trkpt lat="48.79543" lon="2.23499">
        <ele>119</ele>
        <time>2020-12-05T14:28:22.094Z</time>
      </trkpt>
      <trkpt lat="48.79544" lon="2.23501">
        <ele>119</ele>
        <time>2020-12-05T14:28:23.094Z</time>
      </trkpt>
      <trkpt lat="48.79545" lon="2.23503">
        <ele>120</ele>
        <time>2020-12-05T14:28:24.095Z</time>
      </trkpt>
      <trkpt lat="48.79545" lon="2.23506">
        <ele>120</ele>
        <time>2020-12-05T14:28:25.095Z</time>
      </trkpt>
      <trkpt lat="48.79546" lon="2.23508">
        <ele>120</ele>
        <time>2020-12-05T14:28:26.095Z</time>
      </trkpt>
      <trkpt lat="48.79547" lon="2.2351">
        <ele>121</ele>
        <time>2020-12-05T14:28:27.095Z</time>
      </trkpt>
      <trkpt lat="48.79547" lon="2.23512">
        <ele>121</ele>
        <time>2020-12-05T14:28:28.095Z</time>
      </trkpt>
      <trkpt lat="48.79547" lon="2.23514">
        <ele>121</ele>
        <time>2020-12-05T14:28:29.095Z</time>
      </trkpt>
      <trkpt lat="48.79548" lon="2.23515">
        <ele>120</ele>
        <time>2020-12-05T14:28:30.095Z</time>
      </trkpt>
      <trkpt lat="48.79548" lon="2.23517">
        <ele>119</ele>
        <time>2020-12-05T14:28:31.095Z</time>
      </trkpt>
      <trkpt lat="48.79549" lon="2.23519">
        <ele>119</ele>
        <time>2020-12-05T14:28:32.095Z</time>
      </trkpt>
      <trkpt lat="48.79549" lon="2.23522">
        <ele>118</ele>
        <time>2020-12-05T14:28:33.094Z</time>
      </trkpt>
      <trkpt lat="48.7955" lon="2.23525">
        <ele>118</ele>
        <time>2020-12-05T14:28:34.095Z</time>
      </trkpt>
      <trkpt lat="48.7955" lon="2.23527">
        <ele>117</ele>
        <time>2020-12-05T14:28:35.095Z</time>
      </trkpt>
      <trkpt lat="48.79551" lon="2.2353">
        <ele>117</ele>
        <time>2020-12-05T14:28:36.094Z</time>
      </trkpt>
      <trkpt lat="48.79551" lon="2.23532">
        <ele>117</ele>
        <time>2020-12-05T14:28:37.095Z</time>
      </trkpt>
      <trkpt lat="48.79552" lon="2.23534">
        <ele>117</ele>
        <time>2020-12-05T14:28:38.095Z</time>
      </trkpt>
      <trkpt lat="48.79552" lon="2.23536">
        <ele>117</ele>
        <time>2020-12-05T14:28:39.095Z</time>
      </trkpt>
      <trkpt lat="48.79552" lon="2.23538">
        <ele>117</ele>
        <time>2020-12-05T14:28:40.094Z</time>
      </trkpt>
      <trkpt lat="48.79552" lon="2.23539">
        <ele>117</ele>
        <time>2020-12-05T14:28:41.095Z</time>
      </trkpt>
      <trkpt lat="48.79552" lon="2.23541">
        <ele>117</ele>
        <time>2020-12-05T14:28:42.095Z</time>
      </trkpt>
      <trkpt lat="48.79552" lon="2.23543">
        <ele>116</ele>
        <time>2020-12-05T14:28:43.095Z</time>
      </trkpt>
      <trkpt lat="48.79553" lon="2.23545">
        <ele>117</ele>
        <time>2020-12-05T14:28:44.095Z</time>
      </trkpt>
      <trkpt lat="48.79552" lon="2.23547">
        <ele>117</ele>
        <time>2020-12-05T14:28:45.095Z</time>
      </trkpt>
      <trkpt lat="48.79552" lon="2.23548">
        <ele>117</ele>
        <time>2020-12-05T14:28:46.095Z</time>
      </trkpt>
      <trkpt lat="48.79552" lon="2.2355">
        <ele>116</ele>
        <time>2020-12-05T14:28:47.094Z</time>
      </trkpt>
      <trkpt lat="48.79552" lon="2.23551">
        <ele>116</ele>
        <time>2020-12-05T14:28:48.094Z</time>
      </trkpt>
      <trkpt lat="48.79552" lon="2.23553">
        <ele>116</ele>
        <time>2020-12-05T14:28:49.095Z</time>
      </trkpt>
      <trkpt lat="48.79552" lon="2.23555">
        <ele>115</ele>
        <time>2020-12-05T14:28:50.095Z</time>
      </trkpt>
      <trkpt lat="48.79551" lon="2.23557">
        <ele>115</ele>
        <time>2020-12-05T14:28:51.094Z</time>
      </trkpt>
      <trkpt lat="48.79552" lon="2.23559">
        <ele>115</ele>
        <time>2020-12-05T14:28:52.094Z</time>
      </trkpt>
      <trkpt lat="48.79552" lon="2.23561">
        <ele>114</ele>
        <time>2020-12-05T14:28:53.094Z</time>
      </trkpt>
      <trkpt lat="48.79553" lon="2.23562">
        <ele>114</ele>
        <time>2020-12-05T14:28:54.095Z</time>
      </trkpt>
      <trkpt lat="48.79553" lon="2.23564">
        <ele>114</ele>
        <time>2020-12-05T14:28:55.095Z</time>
      </trkpt>
      <trkpt lat="48.79555" lon="2.23565">
        <ele>114</ele>
        <time>2020-12-05T14:28:56.095Z</time>
      </trkpt>
      <trkpt lat="48.79555" lon="2.23567">
        <ele>114</ele>
        <time>2020-12-05T14:28:57.095Z</time>
      </trkpt>
      <trkpt lat="48.79556" lon="2.23569">
        <ele>113</ele>
        <time>2020-12-05T14:28:58.095Z</time>
      </trkpt>
      <trkpt lat="48.79557" lon="2.23571">
        <ele>113</ele>
        <time>2020-12-05T14:28:59.094Z</time>
      </trkpt>
      <trkpt lat="48.79557" lon="2.23573">
        <ele>113</ele>
        <time>2020-12-05T14:29:00.095Z</time>
      </trkpt>
      <trkpt lat="48.79558" lon="2.23575">
        <ele>113</ele>
        <time>2020-12-05T14:29:01.095Z</time>
      </trkpt>
      <trkpt lat="48.79558" lon="2.23577">
        <ele>113</ele>
        <time>2020-12-05T14:29:02.095Z</time>
      </trkpt>
      <trkpt lat="48.79559" lon="2.23579">
        <ele>113</ele>
        <time>2020-12-05T14:29:03.095Z</time>
      </trkpt>
      <trkpt lat="48.7956" lon="2.23581">
        <ele>113</ele>
        <time>2020-12-05T14:29:04.095Z</time>
      </trkpt>
      <trkpt lat="48.7956" lon="2.23584">
        <ele>114</ele>
        <time>2020-12-05T14:29:05.095Z</time>
      </trkpt>
      <trkpt lat="48.79561" lon="2.23586">
        <ele>113</ele>
        <time>2020-12-05T14:29:06.094Z</time>
      </trkpt>
      <trkpt lat="48.79561" lon="2.23587">
        <ele>114</ele>
        <time>2020-12-05T14:29:07.094Z</time>
      </trkpt>
      <trkpt lat="48.79561" lon="2.23589">
        <ele>114</ele>
        <time>2020-12-05T14:29:08.095Z</time>
      </trkpt>
      <trkpt lat="48.7956" lon="2.23591">
        <ele>114</ele>
        <time>2020-12-05T14:29:09.094Z</time>
      </trkpt>
      <trkpt lat="48.79561" lon="2.23593">
        <ele>114</ele>
        <time>2020-12-05T14:29:10.095Z</time>
      </trkpt>
      <trkpt lat="48.79561" lon="2.23594">
        <ele>114</ele>
        <time>2020-12-05T14:29:11.094Z</time>
      </trkpt>
      <trkpt lat="48.79561" lon="2.23596">
        <ele>114</ele>
        <time>2020-12-05T14:29:12.095Z</time>
      </trkpt>
      <trkpt lat="48.79561" lon="2.23599">
        <ele>114</ele>
        <time>2020-12-05T14:29:13.095Z</time>
      </trkpt>
      <trkpt lat="48.79561" lon="2.23601">
        <ele>113</ele>
        <time>2020-12-05T14:29:14.094Z</time>
      </trkpt>
      <trkpt lat="48.79561" lon="2.23603">
        <ele>113</ele>
        <time>2020-12-05T14:29:15.095Z</time>
      </trkpt>
      <trkpt lat="48.79562" lon="2.23605">
        <ele>113</ele>
        <time>2020-12-05T14:29:16.095Z</time>
      </trkpt>
      <trkpt lat="48.79562" lon="2.23606">
        <ele>113</ele>
        <time>2020-12-05T14:29:17.095Z</time>
      </trkpt>
      <trkpt lat="48.79562" lon="2.23608">
        <ele>113</ele>
        <time>2020-12-05T14:29:18.095Z</time>
      </trkpt>
      <trkpt lat="48.79563" lon="2.2361">
        <ele>113</ele>
        <time>2020-12-05T14:29:19.095Z</time>
      </trkpt>
      <trkpt lat="48.79563" lon="2.23611">
        <ele>113</ele>
        <time>2020-12-05T14:29:20.094Z</time>
      </trkpt>
      <trkpt lat="48.79563" lon="2.23613">
        <ele>112</ele>
        <time>2020-12-05T14:29:21.095Z</time>
      </trkpt>
      <trkpt lat="48.79564" lon="2.23615">
        <ele>113</ele>
        <time>2020-12-05T14:29:22.095Z</time>
      </trkpt>
      <trkpt lat="48.79564" lon="2.23617">
        <ele>113</ele>
        <time>2020-12-05T14:29:23.095Z</time>
      </trkpt>
      <trkpt lat="48.79564" lon="2.23618">
        <ele>113</ele>
        <time>2020-12-05T14:29:24.095Z</time>
      </trkpt>
      <trkpt lat="48.79565" lon="2.23621">
        <ele>113</ele>
        <time>2020-12-05T14:29:25.095Z</time>
      </trkpt>
      <trkpt lat="48.79566" lon="2.23623">
        <ele>113</ele>
        <time>2020-12-05T14:29:26.095Z</time>
      </trkpt>
      <trkpt lat="48.79566" lon="2.23624">
        <ele>113</ele>
        <time>2020-12-05T14:29:27.095Z</time>
      </trkpt>
      <trkpt lat="48.79567" lon="2.23625">
        <ele>114</ele>
        <time>2020-12-05T14:29:28.095Z</time>
      </trkpt>
      <trkpt lat="48.79568" lon="2.23626">
        <ele>113</ele>
        <time>2020-12-05T14:29:29.095Z</time>
      </trkpt>
      <trkpt lat="48.79568" lon="2.23626">
        <ele>113</ele>
        <time>2020-12-05T14:29:30.094Z</time>
      </trkpt>
      <trkpt lat="48.79569" lon="2.23626">
        <ele>113</ele>
        <time>2020-12-05T14:29:31.095Z</time>
      </trkpt>
      <trkpt lat="48.79569" lon="2.23626">
        <ele>113</ele>
        <time>2020-12-05T14:29:32.095Z</time>
      </trkpt>
      <trkpt lat="48.79569" lon="2.23626">
        <ele>113</ele>
        <time>2020-12-05T14:29:33.095Z</time>
      </trkpt>
      <trkpt lat="48.79569" lon="2.23627">
        <ele>113</ele>
        <time>2020-12-05T14:29:34.094Z</time>
      </trkpt>
      <trkpt lat="48.7957" lon="2.23627">
        <ele>113</ele>
        <time>2020-12-05T14:29:35.095Z</time>
      </trkpt>
      <trkpt lat="48.79569" lon="2.23628">
        <ele>112</ele>
        <time>2020-12-05T14:29:36.094Z</time>
      </trkpt>
      <trkpt lat="48.79569" lon="2.23628">
        <ele>112</ele>
        <time>2020-12-05T14:29:37.094Z</time>
      </trkpt>
      <trkpt lat="48.7957" lon="2.23629">
        <ele>112</ele>
        <time>2020-12-05T14:29:38.094Z</time>
      </trkpt>
      <trkpt lat="48.7957" lon="2.23628">
        <ele>112</ele>
        <time>2020-12-05T14:29:39.095Z</time>
      </trkpt>
      <trkpt lat="48.79571" lon="2.23628">
        <ele>112</ele>
        <time>2020-12-05T14:29:40.094Z</time>
      </trkpt>
      <trkpt lat="48.79572" lon="2.23628">
        <ele>112</ele>
        <time>2020-12-05T14:29:41.095Z</time>
      </trkpt>
      <trkpt lat="48.79572" lon="2.23628">
        <ele>112</ele>
        <time>2020-12-05T14:29:42.095Z</time>
      </trkpt>
      <trkpt lat="48.79572" lon="2.23628">
        <ele>112</ele>
        <time>2020-12-05T14:29:43.095Z</time>
      </trkpt>
      <trkpt lat="48.79571" lon="2.23627">
        <ele>112</ele>
        <time>2020-12-05T14:29:44.095Z</time>
      </trkpt>
      <trkpt lat="48.79571" lon="2.23627">
        <ele>112</ele>
        <time>2020-12-05T14:29:45.094Z</time>
      </trkpt>
      <trkpt lat="48.79571" lon="2.23626">
        <ele>112</ele>
        <time>2020-12-05T14:29:46.095Z</time>
      </trkpt>
      <trkpt lat="48.7957" lon="2.23627">
        <ele>112</ele>
        <time>2020-12-05T14:29:47.095Z</time>
      </trkpt>
      <trkpt lat="48.7957" lon="2.23627">
        <ele>111</ele>
        <time>2020-12-05T14:29:48.095Z</time>
      </trkpt>
      <trkpt lat="48.7957" lon="2.23627">
        <ele>111</ele>
        <time>2020-12-05T14:29:49.095Z</time>
      </trkpt>
      <trkpt lat="48.7957" lon="2.23627">
        <ele>111</ele>
        <time>2020-12-05T14:29:50.095Z</time>
      </trkpt>
      <trkpt lat="48.7957" lon="2.23627">
        <ele>111</ele>
        <time>2020-12-05T14:29:51.095Z</time>
      </trkpt>
      <trkpt lat="48.7957" lon="2.23627">
        <ele>111</ele>
        <time>2020-12-05T14:29:52.095Z</time>
      </trkpt>
      <trkpt lat="48.7957" lon="2.23628">
        <ele>111</ele>
        <time>2020-12-05T14:29:53.094Z</time>
      </trkpt>
      <trkpt lat="48.79571" lon="2.23629">
        <ele>111</ele>
        <time>2020-12-05T14:29:54.094Z</time>
      </trkpt>
      <trkpt lat="48.79571" lon="2.23631">
        <ele>111</ele>
        <time>2020-12-05T14:29:55.095Z</time>
      </trkpt>
      <trkpt lat="48.79571" lon="2.23632">
        <ele>111</ele>
        <time>2020-12-05T14:29:56.095Z</time>
      </trkpt>
      <trkpt lat="48.7957" lon="2.23634">
        <ele>111</ele>
        <time>2020-12-05T14:29:57.094Z</time>
      </trkpt>
      <trkpt lat="48.7957" lon="2.23636">
        <ele>111</ele>
        <time>2020-12-05T14:29:58.094Z</time>
      </trkpt>
      <trkpt lat="48.7957" lon="2.23638">
        <ele>111</ele>
        <time>2020-12-05T14:29:59.095Z</time>
      </trkpt>
      <trkpt lat="48.7957" lon="2.2364">
        <ele>111</ele>
        <time>2020-12-05T14:30:00.095Z</time>
      </trkpt>
      <trkpt lat="48.79571" lon="2.23642">
        <ele>111</ele>
        <time>2020-12-05T14:30:01.095Z</time>
      </trkpt>
      <trkpt lat="48.79571" lon="2.23644">
        <ele>111</ele>
        <time>2020-12-05T14:30:02.095Z</time>
      </trkpt>
      <trkpt lat="48.79571" lon="2.23647">
        <ele>111</ele>
        <time>2020-12-05T14:30:03.095Z</time>
      </trkpt>
      <trkpt lat="48.7957" lon="2.2365">
        <ele>112</ele>
        <time>2020-12-05T14:30:04.095Z</time>
      </trkpt>
      <trkpt lat="48.79569" lon="2.23652">
        <ele>112</ele>
        <time>2020-12-05T14:30:05.094Z</time>
      </trkpt>
      <trkpt lat="48.79569" lon="2.23655">
        <ele>113</ele>
        <time>2020-12-05T14:30:06.095Z</time>
      </trkpt>
      <trkpt lat="48.79569" lon="2.23657">
        <ele>113</ele>
        <time>2020-12-05T14:30:07.094Z</time>
      </trkpt>
      <trkpt lat="48.79569" lon="2.23659">
        <ele>113</ele>
        <time>2020-12-05T14:30:08.094Z</time>
      </trkpt>
      <trkpt lat="48.79569" lon="2.23661">
        <ele>113</ele>
        <time>2020-12-05T14:30:09.094Z</time>
      </trkpt>
      <trkpt lat="48.79568" lon="2.23663">
        <ele>113</ele>
        <time>2020-12-05T14:30:10.094Z</time>
      </trkpt>
      <trkpt lat="48.79567" lon="2.23665">
        <ele>113</ele>
        <time>2020-12-05T14:30:11.095Z</time>
      </trkpt>
      <trkpt lat="48.79567" lon="2.23667">
        <ele>113</ele>
        <time>2020-12-05T14:30:12.094Z</time>
      </trkpt>
      <trkpt lat="48.79566" lon="2.23669">
        <ele>113</ele>
        <time>2020-12-05T14:30:13.095Z</time>
      </trkpt>
      <trkpt lat="48.79565" lon="2.23672">
        <ele>113</ele>
        <time>2020-12-05T14:30:14.095Z</time>
      </trkpt>
      <trkpt lat="48.79564" lon="2.23675">
        <ele>114</ele>
        <time>2020-12-05T14:30:15.094Z</time>
      </trkpt>
      <trkpt lat="48.79563" lon="2.23678">
        <ele>114</ele>
        <time>2020-12-05T14:30:16.095Z</time>
      </trkpt>
      <trkpt lat="48.79562" lon="2.2368">
        <ele>114</ele>
        <time>2020-12-05T14:30:17.094Z</time>
      </trkpt>
      <trkpt lat="48.79561" lon="2.23683">
        <ele>115</ele>
        <time>2020-12-05T14:30:18.095Z</time>
      </trkpt>
      <trkpt lat="48.7956" lon="2.23685">
        <ele>115</ele>
        <time>2020-12-05T14:30:19.095Z</time>
      </trkpt>
      <trkpt lat="48.79559" lon="2.23688">
        <ele>115</ele>
        <time>2020-12-05T14:30:20.094Z</time>
      </trkpt>
      <trkpt lat="48.79559" lon="2.23689">
        <ele>115</ele>
        <time>2020-12-05T14:30:21.095Z</time>
      </trkpt>
      <trkpt lat="48.79558" lon="2.23691">
        <ele>116</ele>
        <time>2020-12-05T14:30:22.095Z</time>
      </trkpt>
      <trkpt lat="48.79558" lon="2.23693">
        <ele>116</ele>
        <time>2020-12-05T14:30:23.094Z</time>
      </trkpt>
      <trkpt lat="48.79558" lon="2.23695">
        <ele>117</ele>
        <time>2020-12-05T14:30:24.095Z</time>
      </trkpt>
      <trkpt lat="48.79557" lon="2.23697">
        <ele>117</ele>
        <time>2020-12-05T14:30:25.094Z</time>
      </trkpt>
      <trkpt lat="48.79556" lon="2.23699">
        <ele>118</ele>
        <time>2020-12-05T14:30:26.095Z</time>
      </trkpt>
      <trkpt lat="48.79555" lon="2.23701">
        <ele>118</ele>
        <time>2020-12-05T14:30:27.094Z</time>
      </trkpt>
      <trkpt lat="48.79554" lon="2.23704">
        <ele>119</ele>
        <time>2020-12-05T14:30:28.094Z</time>
      </trkpt>
      <trkpt lat="48.79553" lon="2.23705">
        <ele>119</ele>
        <time>2020-12-05T14:30:29.095Z</time>
      </trkpt>
      <trkpt lat="48.79553" lon="2.23707">
        <ele>119</ele>
        <time>2020-12-05T14:30:30.094Z</time>
      </trkpt>
      <trkpt lat="48.79552" lon="2.23708">
        <ele>119</ele>
        <time>2020-12-05T14:30:31.094Z</time>
      </trkpt>
      <trkpt lat="48.79551" lon="2.2371">
        <ele>119</ele>
        <time>2020-12-05T14:30:32.095Z</time>
      </trkpt>
      <trkpt lat="48.7955" lon="2.23712">
        <ele>119</ele>
        <time>2020-12-05T14:30:33.095Z</time>
      </trkpt>
      <trkpt lat="48.7955" lon="2.23713">
        <ele>119</ele>
        <time>2020-12-05T14:30:34.094Z</time>
      </trkpt>
      <trkpt lat="48.7955" lon="2.23716">
        <ele>120</ele>
        <time>2020-12-05T14:30:35.095Z</time>
      </trkpt>
      <trkpt lat="48.7955" lon="2.23718">
        <ele>120</ele>
        <time>2020-12-05T14:30:36.095Z</time>
      </trkpt>
      <trkpt lat="48.79549" lon="2.23721">
        <ele>119</ele>
        <time>2020-12-05T14:30:37.094Z</time>
      </trkpt>
      <trkpt lat="48.79549" lon="2.23723">
        <ele>119</ele>
        <time>2020-12-05T14:30:38.095Z</time>
      </trkpt>
      <trkpt lat="48.79549" lon="2.23724">
        <ele>119</ele>
        <time>2020-12-05T14:30:39.095Z</time>
      </trkpt>
      <trkpt lat="48.79548" lon="2.23726">
        <ele>118</ele>
        <time>2020-12-05T14:30:40.095Z</time>
      </trkpt>
      <trkpt lat="48.79546" lon="2.23728">
        <ele>118</ele>
        <time>2020-12-05T14:30:41.095Z</time>
      </trkpt>
      <trkpt lat="48.79544" lon="2.23731">
        <ele>118</ele>
        <time>2020-12-05T14:30:42.094Z</time>
      </trkpt>
      <trkpt lat="48.79543" lon="2.23733">
        <ele>118</ele>
        <time>2020-12-05T14:30:43.095Z</time>
      </trkpt>
      <trkpt lat="48.79542" lon="2.23734">
        <ele>117</ele>
        <time>2020-12-05T14:30:44.095Z</time>
      </trkpt>
      <trkpt lat="48.79541" lon="2.23736">
        <ele>117</ele>
        <time>2020-12-05T14:30:45.095Z</time>
      </trkpt>
      <trkpt lat="48.79541" lon="2.23738">
        <ele>117</ele>
        <time>2020-12-05T14:30:46.095Z</time>
      </trkpt>
      <trkpt lat="48.7954" lon="2.23739">
        <ele>117</ele>
        <time>2020-12-05T14:30:47.094Z</time>
      </trkpt>
      <trkpt lat="48.7954" lon="2.2374">
        <ele>117</ele>
        <time>2020-12-05T14:30:48.095Z</time>
      </trkpt>
      <trkpt lat="48.79541" lon="2.23742">
        <ele>117</ele>
        <time>2020-12-05T14:30:49.095Z</time>
      </trkpt>
      <trkpt lat="48.79542" lon="2.23744">
        <ele>118</ele>
        <time>2020-12-05T14:30:50.095Z</time>
      </trkpt>
      <trkpt lat="48.79542" lon="2.23746">
        <ele>118</ele>
        <time>2020-12-05T14:30:51.095Z</time>
      </trkpt>
      <trkpt lat="48.79542" lon="2.23747">
        <ele>118</ele>
        <time>2020-12-05T14:30:52.095Z</time>
      </trkpt>
      <trkpt lat="48.79542" lon="2.23748">
        <ele>118</ele>
        <time>2020-12-05T14:30:53.095Z</time>
      </trkpt>
      <trkpt lat="48.79542" lon="2.2375">
        <ele>118</ele>
        <time>2020-12-05T14:30:54.095Z</time>
      </trkpt>
      <trkpt lat="48.79542" lon="2.23752">
        <ele>118</ele>
        <time>2020-12-05T14:30:55.094Z</time>
      </trkpt>
      <trkpt lat="48.79541" lon="2.23754">
        <ele>119</ele>
        <time>2020-12-05T14:30:56.095Z</time>
      </trkpt>
      <trkpt lat="48.7954" lon="2.23755">
        <ele>119</ele>
        <time>2020-12-05T14:30:57.095Z</time>
      </trkpt>
      <trkpt lat="48.79539" lon="2.23757">
        <ele>119</ele>
        <time>2020-12-05T14:30:58.095Z</time>
      </trkpt>
      <trkpt lat="48.79539" lon="2.23758">
        <ele>120</ele>
        <time>2020-12-05T14:30:59.095Z</time>
      </trkpt>
      <trkpt lat="48.79538" lon="2.23759">
        <ele>120</ele>
        <time>2020-12-05T14:31:00.095Z</time>
      </trkpt>
      <trkpt lat="48.79537" lon="2.2376">
        <ele>120</ele>
        <time>2020-12-05T14:31:01.095Z</time>
      </trkpt>
      <trkpt lat="48.79536" lon="2.23761">
        <ele>119</ele>
        <time>2020-12-05T14:31:02.095Z</time>
      </trkpt>
      <trkpt lat="48.79535" lon="2.23762">
        <ele>119</ele>
        <time>2020-12-05T14:31:03.095Z</time>
      </trkpt>
      <trkpt lat="48.79534" lon="2.23764">
        <ele>119</ele>
        <time>2020-12-05T14:31:04.095Z</time>
      </trkpt>
      <trkpt lat="48.79533" lon="2.23765">
        <ele>119</ele>
        <time>2020-12-05T14:31:05.095Z</time>
      </trkpt>
      <trkpt lat="48.79532" lon="2.23767">
        <ele>119</ele>
        <time>2020-12-05T14:31:06.094Z</time>
      </trkpt>
      <trkpt lat="48.79532" lon="2.23768">
        <ele>119</ele>
        <time>2020-12-05T14:31:07.095Z</time>
      </trkpt>
      <trkpt lat="48.79531" lon="2.2377">
        <ele>119</ele>
        <time>2020-12-05T14:31:08.095Z</time>
      </trkpt>
      <trkpt lat="48.79531" lon="2.23772">
        <ele>119</ele>
        <time>2020-12-05T14:31:09.094Z</time>
      </trkpt>
      <trkpt lat="48.79531" lon="2.23774">
        <ele>119</ele>
        <time>2020-12-05T14:31:10.095Z</time>
      </trkpt>
      <trkpt lat="48.79531" lon="2.23775">
        <ele>120</ele>
        <time>2020-12-05T14:31:11.094Z</time>
      </trkpt>
      <trkpt lat="48.7953" lon="2.23776">
        <ele>120</ele>
        <time>2020-12-05T14:31:12.095Z</time>
      </trkpt>
      <trkpt lat="48.7953" lon="2.23778">
        <ele>121</ele>
        <time>2020-12-05T14:31:13.094Z</time>
      </trkpt>
      <trkpt lat="48.79529" lon="2.2378">
        <ele>122</ele>
        <time>2020-12-05T14:31:14.094Z</time>
      </trkpt>
      <trkpt lat="48.79528" lon="2.23781">
        <ele>122</ele>
        <time>2020-12-05T14:31:15.095Z</time>
      </trkpt>
      <trkpt lat="48.79527" lon="2.23783">
        <ele>123</ele>
        <time>2020-12-05T14:31:16.095Z</time>
      </trkpt>
      <trkpt lat="48.79526" lon="2.23785">
        <ele>123</ele>
        <time>2020-12-05T14:31:17.095Z</time>
      </trkpt>
      <trkpt lat="48.79525" lon="2.23787">
        <ele>123</ele>
        <time>2020-12-05T14:31:18.094Z</time>
      </trkpt>
      <trkpt lat="48.79524" lon="2.23789">
        <ele>123</ele>
        <time>2020-12-05T14:31:19.095Z</time>
      </trkpt>
      <trkpt lat="48.79523" lon="2.2379">
        <ele>123</ele>
        <time>2020-12-05T14:31:20.095Z</time>
      </trkpt>
      <trkpt lat="48.79522" lon="2.23792">
        <ele>124</ele>
        <time>2020-12-05T14:31:21.095Z</time>
      </trkpt>
      <trkpt lat="48.7952" lon="2.23795">
        <ele>124</ele>
        <time>2020-12-05T14:31:22.094Z</time>
      </trkpt>
      <trkpt lat="48.79519" lon="2.23797">
        <ele>124</ele>
        <time>2020-12-05T14:31:23.095Z</time>
      </trkpt>
      <trkpt lat="48.79518" lon="2.23799">
        <ele>124</ele>
        <time>2020-12-05T14:31:24.095Z</time>
      </trkpt>
      <trkpt lat="48.79518" lon="2.23801">
        <ele>124</ele>
        <time>2020-12-05T14:31:25.094Z</time>
      </trkpt>
      <trkpt lat="48.79517" lon="2.23804">
        <ele>124</ele>
        <time>2020-12-05T14:31:26.095Z</time>
      </trkpt>
      <trkpt lat="48.79517" lon="2.23806">
        <ele>124</ele>
        <time>2020-12-05T14:31:27.094Z</time>
      </trkpt>
      <trkpt lat="48.79517" lon="2.23808">
        <ele>124</ele>
        <time>2020-12-05T14:31:28.095Z</time>
      </trkpt>
      <trkpt lat="48.79517" lon="2.2381">
        <ele>124</ele>
        <time>2020-12-05T14:31:29.094Z</time>
      </trkpt>
      <trkpt lat="48.79516" lon="2.23812">
        <ele>124</ele>
        <time>2020-12-05T14:31:30.095Z</time>
      </trkpt>
      <trkpt lat="48.79515" lon="2.23814">
        <ele>124</ele>
        <time>2020-12-05T14:31:31.095Z</time>
      </trkpt>
      <trkpt lat="48.79514" lon="2.23816">
        <ele>124</ele>
        <time>2020-12-05T14:31:32.095Z</time>
      </trkpt>
      <trkpt lat="48.79513" lon="2.23818">
        <ele>125</ele>
        <time>2020-12-05T14:31:33.095Z</time>
      </trkpt>
      <trkpt lat="48.79512" lon="2.2382">
        <ele>126</ele>
        <time>2020-12-05T14:31:34.095Z</time>
      </trkpt>
      <trkpt lat="48.7951" lon="2.23821">
        <ele>126</ele>
        <time>2020-12-05T14:31:35.094Z</time>
      </trkpt>
      <trkpt lat="48.79507" lon="2.23823">
        <ele>127</ele>
        <time>2020-12-05T14:31:36.094Z</time>
      </trkpt>
      <trkpt lat="48.79505" lon="2.23824">
        <ele>127</ele>
        <time>2020-12-05T14:31:37.095Z</time>
      </trkpt>
      <trkpt lat="48.79503" lon="2.23825">
        <ele>127</ele>
        <time>2020-12-05T14:31:38.095Z</time>
      </trkpt>
      <trkpt lat="48.79502" lon="2.23826">
        <ele>127</ele>
        <time>2020-12-05T14:31:39.095Z</time>
      </trkpt>
      <trkpt lat="48.79501" lon="2.23827">
        <ele>127</ele>
        <time>2020-12-05T14:31:40.095Z</time>
      </trkpt>
      <trkpt lat="48.79501" lon="2.23829">
        <ele>127</ele>
        <time>2020-12-05T14:31:41.095Z</time>
      </trkpt>
      <trkpt lat="48.79501" lon="2.23831">
        <ele>127</ele>
        <time>2020-12-05T14:31:42.094Z</time>
      </trkpt>
      <trkpt lat="48.795" lon="2.23834">
        <ele>127</ele>
        <time>2020-12-05T14:31:43.095Z</time>
      </trkpt>
      <trkpt lat="48.795" lon="2.23836">
        <ele>127</ele>
        <time>2020-12-05T14:31:44.094Z</time>
      </trkpt>
      <trkpt lat="48.795" lon="2.23838">
        <ele>127</ele>
        <time>2020-12-05T14:31:45.095Z</time>
      </trkpt>
      <trkpt lat="48.79499" lon="2.2384">
        <ele>127</ele>
        <time>2020-12-05T14:31:46.095Z</time>
      </trkpt>
      <trkpt lat="48.79499" lon="2.23842">
        <ele>127</ele>
        <time>2020-12-05T14:31:47.095Z</time>
      </trkpt>
      <trkpt lat="48.79498" lon="2.23844">
        <ele>127</ele>
        <time>2020-12-05T14:31:48.094Z</time>
      </trkpt>
      <trkpt lat="48.79498" lon="2.23846">
        <ele>127</ele>
        <time>2020-12-05T14:31:49.095Z</time>
      </trkpt>
      <trkpt lat="48.79497" lon="2.23847">
        <ele>126</ele>
        <time>2020-12-05T14:31:50.095Z</time>
      </trkpt>
      <trkpt lat="48.79497" lon="2.23848">
        <ele>126</ele>
        <time>2020-12-05T14:31:51.095Z</time>
      </trkpt>
      <trkpt lat="48.79496" lon="2.23848">
        <ele>125</ele>
        <time>2020-12-05T14:31:52.095Z</time>
      </trkpt>
      <trkpt lat="48.79496" lon="2.23849">
        <ele>125</ele>
        <time>2020-12-05T14:31:53.095Z</time>
      </trkpt>
      <trkpt lat="48.79495" lon="2.2385">
        <ele>125</ele>
        <time>2020-12-05T14:31:54.095Z</time>
      </trkpt>
      <trkpt lat="48.79495" lon="2.2385">
        <ele>124</ele>
        <time>2020-12-05T14:31:55.095Z</time>
      </trkpt>
      <trkpt lat="48.79494" lon="2.2385">
        <ele>124</ele>
        <time>2020-12-05T14:31:56.095Z</time>
      </trkpt>
      <trkpt lat="48.79493" lon="2.2385">
        <ele>124</ele>
        <time>2020-12-05T14:31:57.095Z</time>
      </trkpt>
      <trkpt lat="48.79492" lon="2.2385">
        <ele>124</ele>
        <time>2020-12-05T14:31:58.095Z</time>
      </trkpt>
      <trkpt lat="48.79491" lon="2.23851">
        <ele>124</ele>
        <time>2020-12-05T14:31:59.095Z</time>
      </trkpt>
      <trkpt lat="48.79491" lon="2.23851">
        <ele>124</ele>
        <time>2020-12-05T14:32:00.095Z</time>
      </trkpt>
      <trkpt lat="48.79492" lon="2.23851">
        <ele>125</ele>
        <time>2020-12-05T14:32:01.095Z</time>
      </trkpt>
      <trkpt lat="48.79491" lon="2.23852">
        <ele>125</ele>
        <time>2020-12-05T14:32:02.095Z</time>
      </trkpt>
      <trkpt lat="48.79491" lon="2.23853">
        <ele>125</ele>
        <time>2020-12-05T14:32:03.094Z</time>
      </trkpt>
      <trkpt lat="48.79491" lon="2.23856">
        <ele>125</ele>
        <time>2020-12-05T14:32:04.095Z</time>
      </trkpt>
      <trkpt lat="48.79492" lon="2.23858">
        <ele>125</ele>
        <time>2020-12-05T14:32:05.095Z</time>
      </trkpt>
      <trkpt lat="48.79492" lon="2.2386">
        <ele>125</ele>
        <time>2020-12-05T14:32:06.095Z</time>
      </trkpt>
      <trkpt lat="48.79493" lon="2.23863">
        <ele>125</ele>
        <time>2020-12-05T14:32:07.095Z</time>
      </trkpt>
      <trkpt lat="48.79493" lon="2.23865">
        <ele>125</ele>
        <time>2020-12-05T14:32:08.094Z</time>
      </trkpt>
      <trkpt lat="48.79494" lon="2.23867">
        <ele>125</ele>
        <time>2020-12-05T14:32:09.095Z</time>
      </trkpt>
      <trkpt lat="48.79495" lon="2.23868">
        <ele>125</ele>
        <time>2020-12-05T14:32:10.094Z</time>
      </trkpt>
      <trkpt lat="48.79497" lon="2.23871">
        <ele>125</ele>
        <time>2020-12-05T14:32:11.095Z</time>
      </trkpt>
      <trkpt lat="48.79497" lon="2.23873">
        <ele>126</ele>
        <time>2020-12-05T14:32:12.094Z</time>
      </trkpt>
      <trkpt lat="48.79498" lon="2.23876">
        <ele>126</ele>
        <time>2020-12-05T14:32:13.095Z</time>
      </trkpt>
      <trkpt lat="48.79499" lon="2.23878">
        <ele>126</ele>
        <time>2020-12-05T14:32:14.094Z</time>
      </trkpt>
      <trkpt lat="48.795" lon="2.2388">
        <ele>126</ele>
        <time>2020-12-05T14:32:15.094Z</time>
      </trkpt>
      <trkpt lat="48.79501" lon="2.23881">
        <ele>126</ele>
        <time>2020-12-05T14:32:16.095Z</time>
      </trkpt>
      <trkpt lat="48.79503" lon="2.23883">
        <ele>126</ele>
        <time>2020-12-05T14:32:17.094Z</time>
      </trkpt>
      <trkpt lat="48.79504" lon="2.23884">
        <ele>126</ele>
        <time>2020-12-05T14:32:18.095Z</time>
      </trkpt>
      <trkpt lat="48.79505" lon="2.23886">
        <ele>126</ele>
        <time>2020-12-05T14:32:19.095Z</time>
      </trkpt>
      <trkpt lat="48.79505" lon="2.23889">
        <ele>126</ele>
        <time>2020-12-05T14:32:20.094Z</time>
      </trkpt>
      <trkpt lat="48.79505" lon="2.23892">
        <ele>126</ele>
        <time>2020-12-05T14:32:21.095Z</time>
      </trkpt>
      <trkpt lat="48.79506" lon="2.23894">
        <ele>126</ele>
        <time>2020-12-05T14:32:22.095Z</time>
      </trkpt>
      <trkpt lat="48.79506" lon="2.23897">
        <ele>126</ele>
        <time>2020-12-05T14:32:23.095Z</time>
      </trkpt>
      <trkpt lat="48.79505" lon="2.23899">
        <ele>125</ele>
        <time>2020-12-05T14:32:24.094Z</time>
      </trkpt>
      <trkpt lat="48.79505" lon="2.23901">
        <ele>125</ele>
        <time>2020-12-05T14:32:25.095Z</time>
      </trkpt>
      <trkpt lat="48.79505" lon="2.23902">
        <ele>125</ele>
        <time>2020-12-05T14:32:26.095Z</time>
      </trkpt>
      <trkpt lat="48.79504" lon="2.23903">
        <ele>125</ele>
        <time>2020-12-05T14:32:27.094Z</time>
      </trkpt>
      <trkpt lat="48.79504" lon="2.23904">
        <ele>125</ele>
        <time>2020-12-05T14:32:28.095Z</time>
      </trkpt>
      <trkpt lat="48.79504" lon="2.23905">
        <ele>125</ele>
        <time>2020-12-05T14:32:29.094Z</time>
      </trkpt>
      <trkpt lat="48.79503" lon="2.23907">
        <ele>124</ele>
        <time>2020-12-05T14:32:30.095Z</time>
      </trkpt>
      <trkpt lat="48.79502" lon="2.23908">
        <ele>123</ele>
        <time>2020-12-05T14:32:31.095Z</time>
      </trkpt>
      <trkpt lat="48.79501" lon="2.23909">
        <ele>122</ele>
        <time>2020-12-05T14:32:32.094Z</time>
      </trkpt>
      <trkpt lat="48.79501" lon="2.2391">
        <ele>121</ele>
        <time>2020-12-05T14:32:33.095Z</time>
      </trkpt>
      <trkpt lat="48.79501" lon="2.2391">
        <ele>121</ele>
        <time>2020-12-05T14:32:34.095Z</time>
      </trkpt>
      <trkpt lat="48.79501" lon="2.2391">
        <ele>120</ele>
        <time>2020-12-05T14:32:35.094Z</time>
      </trkpt>
      <trkpt lat="48.79501" lon="2.23909">
        <ele>119</ele>
        <time>2020-12-05T14:32:36.095Z</time>
      </trkpt>
      <trkpt lat="48.795" lon="2.23909">
        <ele>119</ele>
        <time>2020-12-05T14:32:37.094Z</time>
      </trkpt>
      <trkpt lat="48.795" lon="2.23909">
        <ele>118</ele>
        <time>2020-12-05T14:32:38.095Z</time>
      </trkpt>
      <trkpt lat="48.795" lon="2.23909">
        <ele>118</ele>
        <time>2020-12-05T14:32:39.095Z</time>
      </trkpt>
      <trkpt lat="48.795" lon="2.23908">
        <ele>118</ele>
        <time>2020-12-05T14:32:40.095Z</time>
      </trkpt>
      <trkpt lat="48.795" lon="2.23908">
        <ele>118</ele>
        <time>2020-12-05T14:32:41.094Z</time>
      </trkpt>
      <trkpt lat="48.79499" lon="2.23908">
        <ele>118</ele>
        <time>2020-12-05T14:32:42.095Z</time>
      </trkpt>
      <trkpt lat="48.79498" lon="2.23908">
        <ele>119</ele>
        <time>2020-12-05T14:32:43.095Z</time>
      </trkpt>
      <trkpt lat="48.79498" lon="2.23908">
        <ele>119</ele>
        <time>2020-12-05T14:32:44.095Z</time>
      </trkpt>
      <trkpt lat="48.79498" lon="2.23908">
        <ele>119</ele>
        <time>2020-12-05T14:32:45.095Z</time>
      </trkpt>
      <trkpt lat="48.79498" lon="2.23908">
        <ele>119</ele>
        <time>2020-12-05T14:32:46.095Z</time>
      </trkpt>
      <trkpt lat="48.79498" lon="2.23908">
        <ele>120</ele>
        <time>2020-12-05T14:32:47.095Z</time>
      </trkpt>
      <trkpt lat="48.79498" lon="2.23908">
        <ele>120</ele>
        <time>2020-12-05T14:32:48.095Z</time>
      </trkpt>
      <trkpt lat="48.79498" lon="2.23908">
        <ele>120</ele>
        <time>2020-12-05T14:32:49.095Z</time>
      </trkpt>
      <trkpt lat="48.79498" lon="2.23908">
        <ele>120</ele>
        <time>2020-12-05T14:32:50.094Z</time>
      </trkpt>
      <trkpt lat="48.79498" lon="2.23908">
        <ele>121</ele>
        <time>2020-12-05T14:32:51.095Z</time>
      </trkpt>
      <trkpt lat="48.79498" lon="2.23908">
        <ele>121</ele>
        <time>2020-12-05T14:32:52.094Z</time>
      </trkpt>
      <trkpt lat="48.79498" lon="2.23908">
        <ele>121</ele>
        <time>2020-12-05T14:32:53.095Z</time>
      </trkpt>
      <trkpt lat="48.79498" lon="2.23908">
        <ele>121</ele>
        <time>2020-12-05T14:32:54.095Z</time>
      </trkpt>
      <trkpt lat="48.79498" lon="2.23908">
        <ele>121</ele>
        <time>2020-12-05T14:32:55.095Z</time>
      </trkpt>
      <trkpt lat="48.79498" lon="2.23909">
        <ele>121</ele>
        <time>2020-12-05T14:32:56.095Z</time>
      </trkpt>
      <trkpt lat="48.79499" lon="2.2391">
        <ele>121</ele>
        <time>2020-12-05T14:32:57.095Z</time>
      </trkpt>
      <trkpt lat="48.795" lon="2.23911">
        <ele>122</ele>
        <time>2020-12-05T14:32:58.095Z</time>
      </trkpt>
      <trkpt lat="48.79501" lon="2.23913">
        <ele>122</ele>
        <time>2020-12-05T14:32:59.095Z</time>
      </trkpt>
      <trkpt lat="48.79502" lon="2.23914">
        <ele>122</ele>
        <time>2020-12-05T14:33:00.095Z</time>
      </trkpt>
      <trkpt lat="48.79502" lon="2.23915">
        <ele>122</ele>
        <time>2020-12-05T14:33:01.095Z</time>
      </trkpt>
      <trkpt lat="48.79502" lon="2.23917">
        <ele>122</ele>
        <time>2020-12-05T14:33:02.094Z</time>
      </trkpt>
      <trkpt lat="48.79502" lon="2.23919">
        <ele>122</ele>
        <time>2020-12-05T14:33:03.095Z</time>
      </trkpt>
      <trkpt lat="48.79503" lon="2.23921">
        <ele>122</ele>
        <time>2020-12-05T14:33:04.095Z</time>
      </trkpt>
      <trkpt lat="48.79503" lon="2.23923">
        <ele>122</ele>
        <time>2020-12-05T14:33:05.094Z</time>
      </trkpt>
      <trkpt lat="48.79504" lon="2.23924">
        <ele>122</ele>
        <time>2020-12-05T14:33:06.094Z</time>
      </trkpt>
      <trkpt lat="48.79504" lon="2.23926">
        <ele>122</ele>
        <time>2020-12-05T14:33:07.095Z</time>
      </trkpt>
      <trkpt lat="48.79505" lon="2.23928">
        <ele>122</ele>
        <time>2020-12-05T14:33:08.095Z</time>
      </trkpt>
      <trkpt lat="48.79505" lon="2.23929">
        <ele>122</ele>
        <time>2020-12-05T14:33:09.095Z</time>
      </trkpt>
      <trkpt lat="48.79506" lon="2.23932">
        <ele>122</ele>
        <time>2020-12-05T14:33:10.094Z</time>
      </trkpt>
      <trkpt lat="48.79507" lon="2.23934">
        <ele>122</ele>
        <time>2020-12-05T14:33:11.095Z</time>
      </trkpt>
      <trkpt lat="48.79508" lon="2.23937">
        <ele>122</ele>
        <time>2020-12-05T14:33:12.094Z</time>
      </trkpt>
      <trkpt lat="48.79509" lon="2.23939">
        <ele>121</ele>
        <time>2020-12-05T14:33:13.095Z</time>
      </trkpt>
      <trkpt lat="48.79509" lon="2.2394">
        <ele>121</ele>
        <time>2020-12-05T14:33:14.095Z</time>
      </trkpt>
      <trkpt lat="48.7951" lon="2.23943">
        <ele>121</ele>
        <time>2020-12-05T14:33:15.095Z</time>
      </trkpt>
      <trkpt lat="48.79511" lon="2.23945">
        <ele>121</ele>
        <time>2020-12-05T14:33:16.095Z</time>
      </trkpt>
      <trkpt lat="48.79511" lon="2.23946">
        <ele>121</ele>
        <time>2020-12-05T14:33:17.094Z</time>
      </trkpt>
      <trkpt lat="48.79512" lon="2.23948">
        <ele>121</ele>
        <time>2020-12-05T14:33:18.094Z</time>
      </trkpt>
      <trkpt lat="48.79513" lon="2.23949">
        <ele>121</ele>
        <time>2020-12-05T14:33:19.095Z</time>
      </trkpt>
      <trkpt lat="48.79513" lon="2.23951">
        <ele>121</ele>
        <time>2020-12-05T14:33:20.095Z</time>
      </trkpt>
      <trkpt lat="48.79515" lon="2.23953">
        <ele>120</ele>
        <time>2020-12-05T14:33:21.095Z</time>
      </trkpt>
      <trkpt lat="48.79515" lon="2.23955">
        <ele>120</ele>
        <time>2020-12-05T14:33:22.094Z</time>
      </trkpt>
      <trkpt lat="48.79516" lon="2.23958">
        <ele>120</ele>
        <time>2020-12-05T14:33:23.095Z</time>
      </trkpt>
      <trkpt lat="48.79517" lon="2.23962">
        <ele>120</ele>
        <time>2020-12-05T14:33:24.095Z</time>
      </trkpt>
      <trkpt lat="48.79517" lon="2.23965">
        <ele>119</ele>
        <time>2020-12-05T14:33:25.095Z</time>
      </trkpt>
      <trkpt lat="48.79517" lon="2.23967">
        <ele>119</ele>
        <time>2020-12-05T14:33:26.095Z</time>
      </trkpt>
      <trkpt lat="48.79518" lon="2.23969">
        <ele>119</ele>
        <time>2020-12-05T14:33:27.095Z</time>
      </trkpt>
      <trkpt lat="48.79518" lon="2.23971">
        <ele>119</ele>
        <time>2020-12-05T14:33:28.095Z</time>
      </trkpt>
      <trkpt lat="48.79518" lon="2.23973">
        <ele>119</ele>
        <time>2020-12-05T14:33:29.095Z</time>
      </trkpt>
      <trkpt lat="48.79519" lon="2.23975">
        <ele>119</ele>
        <time>2020-12-05T14:33:30.095Z</time>
      </trkpt>
      <trkpt lat="48.79519" lon="2.23978">
        <ele>119</ele>
        <time>2020-12-05T14:33:31.095Z</time>
      </trkpt>
      <trkpt lat="48.79519" lon="2.2398">
        <ele>119</ele>
        <time>2020-12-05T14:33:32.095Z</time>
      </trkpt>
      <trkpt lat="48.79519" lon="2.23982">
        <ele>119</ele>
        <time>2020-12-05T14:33:33.095Z</time>
      </trkpt>
      <trkpt lat="48.7952" lon="2.23984">
        <ele>119</ele>
        <time>2020-12-05T14:33:34.095Z</time>
      </trkpt>
      <trkpt lat="48.79521" lon="2.23986">
        <ele>120</ele>
        <time>2020-12-05T14:33:35.095Z</time>
      </trkpt>
      <trkpt lat="48.79522" lon="2.23988">
        <ele>120</ele>
        <time>2020-12-05T14:33:36.095Z</time>
      </trkpt>
      <trkpt lat="48.79522" lon="2.23989">
        <ele>120</ele>
        <time>2020-12-05T14:33:37.095Z</time>
      </trkpt>
      <trkpt lat="48.79522" lon="2.23991">
        <ele>120</ele>
        <time>2020-12-05T14:33:38.094Z</time>
      </trkpt>
      <trkpt lat="48.79522" lon="2.23992">
        <ele>120</ele>
        <time>2020-12-05T14:33:39.094Z</time>
      </trkpt>
      <trkpt lat="48.7952" lon="2.23994">
        <ele>120</ele>
        <time>2020-12-05T14:33:40.095Z</time>
      </trkpt>
      <trkpt lat="48.7952" lon="2.23995">
        <ele>119</ele>
        <time>2020-12-05T14:33:41.094Z</time>
      </trkpt>
      <trkpt lat="48.79521" lon="2.23995">
        <ele>119</ele>
        <time>2020-12-05T14:33:42.094Z</time>
      </trkpt>
      <trkpt lat="48.79521" lon="2.23995">
        <ele>118</ele>
        <time>2020-12-05T14:33:43.095Z</time>
      </trkpt>
      <trkpt lat="48.79521" lon="2.23995">
        <ele>118</ele>
        <time>2020-12-05T14:33:44.095Z</time>
      </trkpt>
      <trkpt lat="48.79521" lon="2.23995">
        <ele>117</ele>
        <time>2020-12-05T14:33:45.095Z</time>
      </trkpt>
      <trkpt lat="48.79521" lon="2.23995">
        <ele>116</ele>
        <time>2020-12-05T14:33:46.095Z</time>
      </trkpt>
      <trkpt lat="48.7952" lon="2.23995">
        <ele>116</ele>
        <time>2020-12-05T14:33:47.094Z</time>
      </trkpt>
      <trkpt lat="48.79519" lon="2.23995">
        <ele>115</ele>
        <time>2020-12-05T14:33:48.095Z</time>
      </trkpt>
      <trkpt lat="48.79518" lon="2.23996">
        <ele>115</ele>
        <time>2020-12-05T14:33:49.094Z</time>
      </trkpt>
      <trkpt lat="48.79517" lon="2.23996">
        <ele>115</ele>
        <time>2020-12-05T14:33:50.095Z</time>
      </trkpt>
      <trkpt lat="48.79517" lon="2.23997">
        <ele>115</ele>
        <time>2020-12-05T14:33:51.095Z</time>
      </trkpt>
      <trkpt lat="48.79517" lon="2.23998">
        <ele>115</ele>
        <time>2020-12-05T14:33:52.095Z</time>
      </trkpt>
      <trkpt lat="48.79516" lon="2.23998">
        <ele>115</ele>
        <time>2020-12-05T14:33:53.094Z</time>
      </trkpt>
      <trkpt lat="48.79516" lon="2.23998">
        <ele>115</ele>
        <time>2020-12-05T14:33:54.095Z</time>
      </trkpt>
      <trkpt lat="48.79516" lon="2.23998">
        <ele>115</ele>
        <time>2020-12-05T14:33:55.095Z</time>
      </trkpt>
      <trkpt lat="48.79516" lon="2.23998">
        <ele>115</ele>
        <time>2020-12-05T14:33:56.095Z</time>
      </trkpt>
      <trkpt lat="48.79516" lon="2.23998">
        <ele>115</ele>
        <time>2020-12-05T14:33:57.095Z</time>
      </trkpt>
      <trkpt lat="48.79516" lon="2.23998">
        <ele>114</ele>
        <time>2020-12-05T14:33:58.095Z</time>
      </trkpt>
      <trkpt lat="48.79516" lon="2.23998">
        <ele>114</ele>
        <time>2020-12-05T14:33:59.095Z</time>
      </trkpt>
      <trkpt lat="48.79516" lon="2.23998">
        <ele>114</ele>
        <time>2020-12-05T14:34:00.095Z</time>
      </trkpt>
      <trkpt lat="48.79516" lon="2.23998">
        <ele>113</ele>
        <time>2020-12-05T14:34:01.094Z</time>
      </trkpt>
      <trkpt lat="48.79516" lon="2.23998">
        <ele>113</ele>
        <time>2020-12-05T14:34:02.095Z</time>
      </trkpt>
      <trkpt lat="48.79516" lon="2.23998">
        <ele>113</ele>
        <time>2020-12-05T14:34:03.095Z</time>
      </trkpt>
      <trkpt lat="48.79516" lon="2.23998">
        <ele>113</ele>
        <time>2020-12-05T14:34:04.095Z</time>
      </trkpt>
      <trkpt lat="48.79517" lon="2.23998">
        <ele>113</ele>
        <time>2020-12-05T14:34:05.095Z</time>
      </trkpt>
      <trkpt lat="48.79517" lon="2.23998">
        <ele>113</ele>
        <time>2020-12-05T14:34:06.095Z</time>
      </trkpt>
      <trkpt lat="48.79517" lon="2.23998">
        <ele>112</ele>
        <time>2020-12-05T14:34:07.095Z</time>
      </trkpt>
      <trkpt lat="48.79517" lon="2.23998">
        <ele>112</ele>
        <time>2020-12-05T14:34:08.095Z</time>
      </trkpt>
      <trkpt lat="48.79517" lon="2.23998">
        <ele>112</ele>
        <time>2020-12-05T14:34:09.095Z</time>
      </trkpt>
      <trkpt lat="48.79517" lon="2.23998">
        <ele>112</ele>
        <time>2020-12-05T14:34:10.095Z</time>
      </trkpt>
      <trkpt lat="48.79517" lon="2.23998">
        <ele>112</ele>
        <time>2020-12-05T14:34:11.095Z</time>
      </trkpt>
      <trkpt lat="48.79517" lon="2.23998">
        <ele>112</ele>
        <time>2020-12-05T14:34:12.095Z</time>
      </trkpt>
      <trkpt lat="48.79518" lon="2.23998">
        <ele>112</ele>
        <time>2020-12-05T14:34:13.095Z</time>
      </trkpt>
      <trkpt lat="48.79518" lon="2.23997">
        <ele>112</ele>
        <time>2020-12-05T14:34:14.095Z</time>
      </trkpt>
      <trkpt lat="48.79518" lon="2.23997">
        <ele>112</ele>
        <time>2020-12-05T14:34:15.095Z</time>
      </trkpt>
      <trkpt lat="48.79518" lon="2.23997">
        <ele>113</ele>
        <time>2020-12-05T14:34:16.094Z</time>
      </trkpt>
      <trkpt lat="48.79518" lon="2.23998">
        <ele>113</ele>
        <time>2020-12-05T14:34:17.095Z</time>
      </trkpt>
      <trkpt lat="48.79518" lon="2.23998">
        <ele>113</ele>
        <time>2020-12-05T14:34:18.094Z</time>
      </trkpt>
      <trkpt lat="48.79518" lon="2.23998">
        <ele>113</ele>
        <time>2020-12-05T14:34:19.094Z</time>
      </trkpt>
      <trkpt lat="48.79519" lon="2.24">
        <ele>113</ele>
        <time>2020-12-05T14:34:20.095Z</time>
      </trkpt>
      <trkpt lat="48.7952" lon="2.24002">
        <ele>113</ele>
        <time>2020-12-05T14:34:21.095Z</time>
      </trkpt>
      <trkpt lat="48.79521" lon="2.24005">
        <ele>113</ele>
        <time>2020-12-05T14:34:22.094Z</time>
      </trkpt>
      <trkpt lat="48.79522" lon="2.24007">
        <ele>113</ele>
        <time>2020-12-05T14:34:23.094Z</time>
      </trkpt>
      <trkpt lat="48.79523" lon="2.24009">
        <ele>113</ele>
        <time>2020-12-05T14:34:24.095Z</time>
      </trkpt>
      <trkpt lat="48.79524" lon="2.24011">
        <ele>113</ele>
        <time>2020-12-05T14:34:25.094Z</time>
      </trkpt>
      <trkpt lat="48.79524" lon="2.24013">
        <ele>113</ele>
        <time>2020-12-05T14:34:26.095Z</time>
      </trkpt>
      <trkpt lat="48.79525" lon="2.24016">
        <ele>113</ele>
        <time>2020-12-05T14:34:27.095Z</time>
      </trkpt>
      <trkpt lat="48.79526" lon="2.24018">
        <ele>113</ele>
        <time>2020-12-05T14:34:28.095Z</time>
      </trkpt>
      <trkpt lat="48.79526" lon="2.24019">
        <ele>113</ele>
        <time>2020-12-05T14:34:29.095Z</time>
      </trkpt>
      <trkpt lat="48.79526" lon="2.24021">
        <ele>113</ele>
        <time>2020-12-05T14:34:30.094Z</time>
      </trkpt>
      <trkpt lat="48.79527" lon="2.24023">
        <ele>113</ele>
        <time>2020-12-05T14:34:31.095Z</time>
      </trkpt>
      <trkpt lat="48.79527" lon="2.24026">
        <ele>114</ele>
        <time>2020-12-05T14:34:32.095Z</time>
      </trkpt>
      <trkpt lat="48.79528" lon="2.24028">
        <ele>114</ele>
        <time>2020-12-05T14:34:33.095Z</time>
      </trkpt>
      <trkpt lat="48.79529" lon="2.2403">
        <ele>115</ele>
        <time>2020-12-05T14:34:34.095Z</time>
      </trkpt>
      <trkpt lat="48.7953" lon="2.24032">
        <ele>115</ele>
        <time>2020-12-05T14:34:35.095Z</time>
      </trkpt>
      <trkpt lat="48.79531" lon="2.24034">
        <ele>115</ele>
        <time>2020-12-05T14:34:36.095Z</time>
      </trkpt>
      <trkpt lat="48.79532" lon="2.24036">
        <ele>116</ele>
        <time>2020-12-05T14:34:37.095Z</time>
      </trkpt>
      <trkpt lat="48.79532" lon="2.24038">
        <ele>116</ele>
        <time>2020-12-05T14:34:38.095Z</time>
      </trkpt>
      <trkpt lat="48.79533" lon="2.2404">
        <ele>117</ele>
        <time>2020-12-05T14:34:39.095Z</time>
      </trkpt>
      <trkpt lat="48.79534" lon="2.24042">
        <ele>117</ele>
        <time>2020-12-05T14:34:40.095Z</time>
      </trkpt>
      <trkpt lat="48.79534" lon="2.24045">
        <ele>117</ele>
        <time>2020-12-05T14:34:41.095Z</time>
      </trkpt>
      <trkpt lat="48.79535" lon="2.24047">
        <ele>118</ele>
        <time>2020-12-05T14:34:42.095Z</time>
      </trkpt>
      <trkpt lat="48.79536" lon="2.2405">
        <ele>118</ele>
        <time>2020-12-05T14:34:43.095Z</time>
      </trkpt>
      <trkpt lat="48.79537" lon="2.24051">
        <ele>119</ele>
        <time>2020-12-05T14:34:44.095Z</time>
      </trkpt>
      <trkpt lat="48.79537" lon="2.24053">
        <ele>119</ele>
        <time>2020-12-05T14:34:45.095Z</time>
      </trkpt>
      <trkpt lat="48.79538" lon="2.24054">
        <ele>120</ele>
        <time>2020-12-05T14:34:46.095Z</time>
      </trkpt>
      <trkpt lat="48.79538" lon="2.24055">
        <ele>121</ele>
        <time>2020-12-05T14:34:47.095Z</time>
      </trkpt>
      <trkpt lat="48.79538" lon="2.24057">
        <ele>121</ele>
        <time>2020-12-05T14:34:48.094Z</time>
      </trkpt>
      <trkpt lat="48.79538" lon="2.24059">
        <ele>122</ele>
        <time>2020-12-05T14:34:49.095Z</time>
      </trkpt>
      <trkpt lat="48.79538" lon="2.2406">
        <ele>122</ele>
        <time>2020-12-05T14:34:50.094Z</time>
      </trkpt>
      <trkpt lat="48.79537" lon="2.24062">
        <ele>122</ele>
        <time>2020-12-05T14:34:51.095Z</time>
      </trkpt>
      <trkpt lat="48.79537" lon="2.24063">
        <ele>122</ele>
        <time>2020-12-05T14:34:52.095Z</time>
      </trkpt>
      <trkpt lat="48.79537" lon="2.24065">
        <ele>123</ele>
        <time>2020-12-05T14:34:53.095Z</time>
      </trkpt>
      <trkpt lat="48.79537" lon="2.24067">
        <ele>123</ele>
        <time>2020-12-05T14:34:54.095Z</time>
      </trkpt>
      <trkpt lat="48.79538" lon="2.24069">
        <ele>123</ele>
        <time>2020-12-05T14:34:55.095Z</time>
      </trkpt>
      <trkpt lat="48.79539" lon="2.24071">
        <ele>123</ele>
        <time>2020-12-05T14:34:56.095Z</time>
      </trkpt>
      <trkpt lat="48.79539" lon="2.24072">
        <ele>123</ele>
        <time>2020-12-05T14:34:57.094Z</time>
      </trkpt>
      <trkpt lat="48.79539" lon="2.24074">
        <ele>122</ele>
        <time>2020-12-05T14:34:58.095Z</time>
      </trkpt>
      <trkpt lat="48.7954" lon="2.24076">
        <ele>122</ele>
        <time>2020-12-05T14:34:59.095Z</time>
      </trkpt>
      <trkpt lat="48.7954" lon="2.24078">
        <ele>122</ele>
        <time>2020-12-05T14:35:00.095Z</time>
      </trkpt>
      <trkpt lat="48.7954" lon="2.2408">
        <ele>121</ele>
        <time>2020-12-05T14:35:01.094Z</time>
      </trkpt>
      <trkpt lat="48.79541" lon="2.24082">
        <ele>121</ele>
        <time>2020-12-05T14:35:02.095Z</time>
      </trkpt>
      <trkpt lat="48.79541" lon="2.24084">
        <ele>121</ele>
        <time>2020-12-05T14:35:03.095Z</time>
      </trkpt>
      <trkpt lat="48.79542" lon="2.24085">
        <ele>120</ele>
        <time>2020-12-05T14:35:04.095Z</time>
      </trkpt>
      <trkpt lat="48.79543" lon="2.24087">
        <ele>120</ele>
        <time>2020-12-05T14:35:05.094Z</time>
      </trkpt>
      <trkpt lat="48.79544" lon="2.24089">
        <ele>120</ele>
        <time>2020-12-05T14:35:06.095Z</time>
      </trkpt>
      <trkpt lat="48.79544" lon="2.24091">
        <ele>120</ele>
        <time>2020-12-05T14:35:07.095Z</time>
      </trkpt>
      <trkpt lat="48.79545" lon="2.24093">
        <ele>120</ele>
        <time>2020-12-05T14:35:08.094Z</time>
      </trkpt>
      <trkpt lat="48.79546" lon="2.24094">
        <ele>119</ele>
        <time>2020-12-05T14:35:09.095Z</time>
      </trkpt>
      <trkpt lat="48.79547" lon="2.24097">
        <ele>119</ele>
        <time>2020-12-05T14:35:10.095Z</time>
      </trkpt>
      <trkpt lat="48.79547" lon="2.24099">
        <ele>119</ele>
        <time>2020-12-05T14:35:11.095Z</time>
      </trkpt>
      <trkpt lat="48.79548" lon="2.24101">
        <ele>118</ele>
        <time>2020-12-05T14:35:12.095Z</time>
      </trkpt>
      <trkpt lat="48.79547" lon="2.24103">
        <ele>118</ele>
        <time>2020-12-05T14:35:13.095Z</time>
      </trkpt>
      <trkpt lat="48.79547" lon="2.24105">
        <ele>117</ele>
        <time>2020-12-05T14:35:14.095Z</time>
      </trkpt>
      <trkpt lat="48.79547" lon="2.24106">
        <ele>117</ele>
        <time>2020-12-05T14:35:15.095Z</time>
      </trkpt>
      <trkpt lat="48.79547" lon="2.24108">
        <ele>116</ele>
        <time>2020-12-05T14:35:16.095Z</time>
      </trkpt>
      <trkpt lat="48.79547" lon="2.2411">
        <ele>116</ele>
        <time>2020-12-05T14:35:17.095Z</time>
      </trkpt>
      <trkpt lat="48.79547" lon="2.24111">
        <ele>115</ele>
        <time>2020-12-05T14:35:18.094Z</time>
      </trkpt>
      <trkpt lat="48.79547" lon="2.24111">
        <ele>115</ele>
        <time>2020-12-05T14:35:19.095Z</time>
      </trkpt>
      <trkpt lat="48.79548" lon="2.24112">
        <ele>115</ele>
        <time>2020-12-05T14:35:20.094Z</time>
      </trkpt>
      <trkpt lat="48.79548" lon="2.24113">
        <ele>115</ele>
        <time>2020-12-05T14:35:21.095Z</time>
      </trkpt>
      <trkpt lat="48.79548" lon="2.24114">
        <ele>115</ele>
        <time>2020-12-05T14:35:22.094Z</time>
      </trkpt>
      <trkpt lat="48.79548" lon="2.24114">
        <ele>115</ele>
        <time>2020-12-05T14:35:23.094Z</time>
      </trkpt>
      <trkpt lat="48.79548" lon="2.24115">
        <ele>115</ele>
        <time>2020-12-05T14:35:24.095Z</time>
      </trkpt>
      <trkpt lat="48.79548" lon="2.24115">
        <ele>115</ele>
        <time>2020-12-05T14:35:25.095Z</time>
      </trkpt>
      <trkpt lat="48.79548" lon="2.24115">
        <ele>115</ele>
        <time>2020-12-05T14:35:26.095Z</time>
      </trkpt>
      <trkpt lat="48.79548" lon="2.24115">
        <ele>115</ele>
        <time>2020-12-05T14:35:27.095Z</time>
      </trkpt>
      <trkpt lat="48.79548" lon="2.24114">
        <ele>115</ele>
        <time>2020-12-05T14:35:28.095Z</time>
      </trkpt>
      <trkpt lat="48.79548" lon="2.24114">
        <ele>116</ele>
        <time>2020-12-05T14:35:29.095Z</time>
      </trkpt>
      <trkpt lat="48.79548" lon="2.24114">
        <ele>116</ele>
        <time>2020-12-05T14:35:30.095Z</time>
      </trkpt>
      <trkpt lat="48.79548" lon="2.24115">
        <ele>116</ele>
        <time>2020-12-05T14:35:31.095Z</time>
      </trkpt>
      <trkpt lat="48.79549" lon="2.24116">
        <ele>117</ele>
        <time>2020-12-05T14:35:32.095Z</time>
      </trkpt>
      <trkpt lat="48.79549" lon="2.24117">
        <ele>118</ele>
        <time>2020-12-05T14:35:33.095Z</time>
      </trkpt>
      <trkpt lat="48.79549" lon="2.24117">
        <ele>118</ele>
        <time>2020-12-05T14:35:34.095Z</time>
      </trkpt>
      <trkpt lat="48.79548" lon="2.24118">
        <ele>119</ele>
        <time>2020-12-05T14:35:35.095Z</time>
      </trkpt>
      <trkpt lat="48.79548" lon="2.24119">
        <ele>119</ele>
        <time>2020-12-05T14:35:36.095Z</time>
      </trkpt>
      <trkpt lat="48.79547" lon="2.24119">
        <ele>120</ele>
        <time>2020-12-05T14:35:37.095Z</time>
      </trkpt>
      <trkpt lat="48.79548" lon="2.24119">
        <ele>120</ele>
        <time>2020-12-05T14:35:38.094Z</time>
      </trkpt>
      <trkpt lat="48.79548" lon="2.24119">
        <ele>120</ele>
        <time>2020-12-05T14:35:39.095Z</time>
      </trkpt>
      <trkpt lat="48.79548" lon="2.2412">
        <ele>121</ele>
        <time>2020-12-05T14:35:40.094Z</time>
      </trkpt>
      <trkpt lat="48.79548" lon="2.24122">
        <ele>121</ele>
        <time>2020-12-05T14:35:41.094Z</time>
      </trkpt>
      <trkpt lat="48.79548" lon="2.24123">
        <ele>121</ele>
        <time>2020-12-05T14:35:42.095Z</time>
      </trkpt>
      <trkpt lat="48.79549" lon="2.24123">
        <ele>121</ele>
        <time>2020-12-05T14:35:43.095Z</time>
      </trkpt>
      <trkpt lat="48.79549" lon="2.24123">
        <ele>122</ele>
        <time>2020-12-05T14:35:44.095Z</time>
      </trkpt>
      <trkpt lat="48.79549" lon="2.24123">
        <ele>122</ele>
        <time>2020-12-05T14:35:45.095Z</time>
      </trkpt>
      <trkpt lat="48.7955" lon="2.24123">
        <ele>122</ele>
        <time>2020-12-05T14:35:46.095Z</time>
      </trkpt>
      <trkpt lat="48.7955" lon="2.24125">
        <ele>122</ele>
        <time>2020-12-05T14:35:47.095Z</time>
      </trkpt>
      <trkpt lat="48.79551" lon="2.24126">
        <ele>123</ele>
        <time>2020-12-05T14:35:48.095Z</time>
      </trkpt>
      <trkpt lat="48.79551" lon="2.24127">
        <ele>123</ele>
        <time>2020-12-05T14:35:49.094Z</time>
      </trkpt>
      <trkpt lat="48.79552" lon="2.24127">
        <ele>123</ele>
        <time>2020-12-05T14:35:50.095Z</time>
      </trkpt>
      <trkpt lat="48.79553" lon="2.24127">
        <ele>124</ele>
        <time>2020-12-05T14:35:51.094Z</time>
      </trkpt>
      <trkpt lat="48.79554" lon="2.24127">
        <ele>124</ele>
        <time>2020-12-05T14:35:52.095Z</time>
      </trkpt>
      <trkpt lat="48.79555" lon="2.24126">
        <ele>124</ele>
        <time>2020-12-05T14:35:53.094Z</time>
      </trkpt>
      <trkpt lat="48.79557" lon="2.24126">
        <ele>124</ele>
        <time>2020-12-05T14:35:54.095Z</time>
      </trkpt>
      <trkpt lat="48.79558" lon="2.24126">
        <ele>124</ele>
        <time>2020-12-05T14:35:55.095Z</time>
      </trkpt>
      <trkpt lat="48.79559" lon="2.24126">
        <ele>123</ele>
        <time>2020-12-05T14:35:56.095Z</time>
      </trkpt>
      <trkpt lat="48.7956" lon="2.24125">
        <ele>123</ele>
        <time>2020-12-05T14:35:57.095Z</time>
      </trkpt>
      <trkpt lat="48.79561" lon="2.24123">
        <ele>123</ele>
        <time>2020-12-05T14:35:58.094Z</time>
      </trkpt>
      <trkpt lat="48.79562" lon="2.24121">
        <ele>124</ele>
        <time>2020-12-05T14:35:59.095Z</time>
      </trkpt>
      <trkpt lat="48.79563" lon="2.24119">
        <ele>124</ele>
        <time>2020-12-05T14:36:00.095Z</time>
      </trkpt>
      <trkpt lat="48.79563" lon="2.24117">
        <ele>124</ele>
        <time>2020-12-05T14:36:01.095Z</time>
      </trkpt>
      <trkpt lat="48.79564" lon="2.24116">
        <ele>125</ele>
        <time>2020-12-05T14:36:02.094Z</time>
      </trkpt>
      <trkpt lat="48.79565" lon="2.24115">
        <ele>125</ele>
        <time>2020-12-05T14:36:03.095Z</time>
      </trkpt>
      <trkpt lat="48.79566" lon="2.24113">
        <ele>125</ele>
        <time>2020-12-05T14:36:04.094Z</time>
      </trkpt>
      <trkpt lat="48.79566" lon="2.24111">
        <ele>126</ele>
        <time>2020-12-05T14:36:05.095Z</time>
      </trkpt>
      <trkpt lat="48.79567" lon="2.2411">
        <ele>126</ele>
        <time>2020-12-05T14:36:06.094Z</time>
      </trkpt>
      <trkpt lat="48.79568" lon="2.24109">
        <ele>126</ele>
        <time>2020-12-05T14:36:07.095Z</time>
      </trkpt>
      <trkpt lat="48.79569" lon="2.24108">
        <ele>126</ele>
        <time>2020-12-05T14:36:08.095Z</time>
      </trkpt>
      <trkpt lat="48.7957" lon="2.24108">
        <ele>126</ele>
        <time>2020-12-05T14:36:09.095Z</time>
      </trkpt>
      <trkpt lat="48.79571" lon="2.24107">
        <ele>127</ele>
        <time>2020-12-05T14:36:10.095Z</time>
      </trkpt>
      <trkpt lat="48.79572" lon="2.24108">
        <ele>127</ele>
        <time>2020-12-05T14:36:11.095Z</time>
      </trkpt>
      <trkpt lat="48.79573" lon="2.24109">
        <ele>127</ele>
        <time>2020-12-05T14:36:12.095Z</time>
      </trkpt>
      <trkpt lat="48.79575" lon="2.2411">
        <ele>128</ele>
        <time>2020-12-05T14:36:13.094Z</time>
      </trkpt>
      <trkpt lat="48.79576" lon="2.2411">
        <ele>128</ele>
        <time>2020-12-05T14:36:14.095Z</time>
      </trkpt>
      <trkpt lat="48.79578" lon="2.24111">
        <ele>129</ele>
        <time>2020-12-05T14:36:15.094Z</time>
      </trkpt>
      <trkpt lat="48.79579" lon="2.24111">
        <ele>129</ele>
        <time>2020-12-05T14:36:16.095Z</time>
      </trkpt>
      <trkpt lat="48.7958" lon="2.2411">
        <ele>130</ele>
        <time>2020-12-05T14:36:17.094Z</time>
      </trkpt>
      <trkpt lat="48.79581" lon="2.2411">
        <ele>131</ele>
        <time>2020-12-05T14:36:18.095Z</time>
      </trkpt>
      <trkpt lat="48.79581" lon="2.24111">
        <ele>131</ele>
        <time>2020-12-05T14:36:19.095Z</time>
      </trkpt>
      <trkpt lat="48.79581" lon="2.24111">
        <ele>132</ele>
        <time>2020-12-05T14:36:20.095Z</time>
      </trkpt>
      <trkpt lat="48.79581" lon="2.24112">
        <ele>133</ele>
        <time>2020-12-05T14:36:21.094Z</time>
      </trkpt>
      <trkpt lat="48.79582" lon="2.24112">
        <ele>134</ele>
        <time>2020-12-05T14:36:22.095Z</time>
      </trkpt>
      <trkpt lat="48.79583" lon="2.24112">
        <ele>135</ele>
        <time>2020-12-05T14:36:23.095Z</time>
      </trkpt>
      <trkpt lat="48.79583" lon="2.24112">
        <ele>135</ele>
        <time>2020-12-05T14:36:24.095Z</time>
      </trkpt>
      <trkpt lat="48.79584" lon="2.24113">
        <ele>135</ele>
        <time>2020-12-05T14:36:25.094Z</time>
      </trkpt>
      <trkpt lat="48.79584" lon="2.24112">
        <ele>136</ele>
        <time>2020-12-05T14:36:26.094Z</time>
      </trkpt>
      <trkpt lat="48.79585" lon="2.24113">
        <ele>136</ele>
        <time>2020-12-05T14:36:27.094Z</time>
      </trkpt>
      <trkpt lat="48.79586" lon="2.24113">
        <ele>136</ele>
        <time>2020-12-05T14:36:28.095Z</time>
      </trkpt>
      <trkpt lat="48.79587" lon="2.24113">
        <ele>136</ele>
        <time>2020-12-05T14:36:29.095Z</time>
      </trkpt>
      <trkpt lat="48.79588" lon="2.24113">
        <ele>136</ele>
        <time>2020-12-05T14:36:30.095Z</time>
      </trkpt>
      <trkpt lat="48.79588" lon="2.24113">
        <ele>136</ele>
        <time>2020-12-05T14:36:31.094Z</time>
      </trkpt>
      <trkpt lat="48.79589" lon="2.24114">
        <ele>136</ele>
        <time>2020-12-05T14:36:32.095Z</time>
      </trkpt>
      <trkpt lat="48.7959" lon="2.24114">
        <ele>136</ele>
        <time>2020-12-05T14:36:33.094Z</time>
      </trkpt>
      <trkpt lat="48.79591" lon="2.24116">
        <ele>136</ele>
        <time>2020-12-05T14:36:34.095Z</time>
      </trkpt>
      <trkpt lat="48.79592" lon="2.24117">
        <ele>136</ele>
        <time>2020-12-05T14:36:35.095Z</time>
      </trkpt>
      <trkpt lat="48.79593" lon="2.24117">
        <ele>136</ele>
        <time>2020-12-05T14:36:36.095Z</time>
      </trkpt>
      <trkpt lat="48.79594" lon="2.24118">
        <ele>136</ele>
        <time>2020-12-05T14:36:37.094Z</time>
      </trkpt>
      <trkpt lat="48.79595" lon="2.24118">
        <ele>136</ele>
        <time>2020-12-05T14:36:38.094Z</time>
      </trkpt>
      <trkpt lat="48.79596" lon="2.24118">
        <ele>136</ele>
        <time>2020-12-05T14:36:39.095Z</time>
      </trkpt>
      <trkpt lat="48.79597" lon="2.24119">
        <ele>136</ele>
        <time>2020-12-05T14:36:40.095Z</time>
      </trkpt>
      <trkpt lat="48.79597" lon="2.24119">
        <ele>135</ele>
        <time>2020-12-05T14:36:41.094Z</time>
      </trkpt>
      <trkpt lat="48.79598" lon="2.24119">
        <ele>135</ele>
        <time>2020-12-05T14:36:42.095Z</time>
      </trkpt>
      <trkpt lat="48.79599" lon="2.2412">
        <ele>134</ele>
        <time>2020-12-05T14:36:43.095Z</time>
      </trkpt>
      <trkpt lat="48.796" lon="2.2412">
        <ele>134</ele>
        <time>2020-12-05T14:36:44.095Z</time>
      </trkpt>
      <trkpt lat="48.79601" lon="2.2412">
        <ele>133</ele>
        <time>2020-12-05T14:36:45.094Z</time>
      </trkpt>
      <trkpt lat="48.79601" lon="2.2412">
        <ele>133</ele>
        <time>2020-12-05T14:36:46.094Z</time>
      </trkpt>
      <trkpt lat="48.79602" lon="2.2412">
        <ele>133</ele>
        <time>2020-12-05T14:36:47.094Z</time>
      </trkpt>
      <trkpt lat="48.79603" lon="2.24119">
        <ele>132</ele>
        <time>2020-12-05T14:36:48.095Z</time>
      </trkpt>
      <trkpt lat="48.79604" lon="2.24119">
        <ele>132</ele>
        <time>2020-12-05T14:36:49.094Z</time>
      </trkpt>
      <trkpt lat="48.79605" lon="2.2412">
        <ele>132</ele>
        <time>2020-12-05T14:36:50.094Z</time>
      </trkpt>
      <trkpt lat="48.79606" lon="2.2412">
        <ele>132</ele>
        <time>2020-12-05T14:36:51.094Z</time>
      </trkpt>
      <trkpt lat="48.79608" lon="2.2412">
        <ele>132</ele>
        <time>2020-12-05T14:36:52.095Z</time>
      </trkpt>
      <trkpt lat="48.7961" lon="2.2412">
        <ele>132</ele>
        <time>2020-12-05T14:36:53.095Z</time>
      </trkpt>
      <trkpt lat="48.79612" lon="2.2412">
        <ele>131</ele>
        <time>2020-12-05T14:36:54.095Z</time>
      </trkpt>
      <trkpt lat="48.79613" lon="2.24119">
        <ele>131</ele>
        <time>2020-12-05T14:36:55.095Z</time>
      </trkpt>
      <trkpt lat="48.79613" lon="2.2412">
        <ele>130</ele>
        <time>2020-12-05T14:36:56.095Z</time>
      </trkpt>
      <trkpt lat="48.79614" lon="2.2412">
        <ele>130</ele>
        <time>2020-12-05T14:36:57.095Z</time>
      </trkpt>
      <trkpt lat="48.79615" lon="2.2412">
        <ele>130</ele>
        <time>2020-12-05T14:36:58.095Z</time>
      </trkpt>
      <trkpt lat="48.79617" lon="2.2412">
        <ele>130</ele>
        <time>2020-12-05T14:36:59.095Z</time>
      </trkpt>
      <trkpt lat="48.79619" lon="2.2412">
        <ele>130</ele>
        <time>2020-12-05T14:37:00.095Z</time>
      </trkpt>
      <trkpt lat="48.79621" lon="2.2412">
        <ele>130</ele>
        <time>2020-12-05T14:37:01.095Z</time>
      </trkpt>
      <trkpt lat="48.79622" lon="2.24119">
        <ele>131</ele>
        <time>2020-12-05T14:37:02.095Z</time>
      </trkpt>
      <trkpt lat="48.79623" lon="2.24118">
        <ele>131</ele>
        <time>2020-12-05T14:37:03.094Z</time>
      </trkpt>
      <trkpt lat="48.79624" lon="2.24118">
        <ele>131</ele>
        <time>2020-12-05T14:37:04.094Z</time>
      </trkpt>
      <trkpt lat="48.79625" lon="2.24117">
        <ele>131</ele>
        <time>2020-12-05T14:37:05.095Z</time>
      </trkpt>
      <trkpt lat="48.79626" lon="2.24116">
        <ele>131</ele>
        <time>2020-12-05T14:37:06.095Z</time>
      </trkpt>
      <trkpt lat="48.79627" lon="2.24115">
        <ele>132</ele>
        <time>2020-12-05T14:37:07.095Z</time>
      </trkpt>
      <trkpt lat="48.79628" lon="2.24115">
        <ele>132</ele>
        <time>2020-12-05T14:37:08.095Z</time>
      </trkpt>
      <trkpt lat="48.79629" lon="2.24115">
        <ele>133</ele>
        <time>2020-12-05T14:37:09.094Z</time>
      </trkpt>
      <trkpt lat="48.7963" lon="2.24115">
        <ele>133</ele>
        <time>2020-12-05T14:37:10.095Z</time>
      </trkpt>
      <trkpt lat="48.7963" lon="2.24115">
        <ele>134</ele>
        <time>2020-12-05T14:37:11.095Z</time>
      </trkpt>
      <trkpt lat="48.7963" lon="2.24115">
        <ele>134</ele>
        <time>2020-12-05T14:37:12.095Z</time>
      </trkpt>
      <trkpt lat="48.7963" lon="2.24114">
        <ele>135</ele>
        <time>2020-12-05T14:37:13.095Z</time>
      </trkpt>
      <trkpt lat="48.79631" lon="2.24114">
        <ele>135</ele>
        <time>2020-12-05T14:37:14.095Z</time>
      </trkpt>
      <trkpt lat="48.79632" lon="2.24114">
        <ele>135</ele>
        <time>2020-12-05T14:37:15.095Z</time>
      </trkpt>
      <trkpt lat="48.79632" lon="2.24114">
        <ele>136</ele>
        <time>2020-12-05T14:37:16.095Z</time>
      </trkpt>
      <trkpt lat="48.79633" lon="2.24114">
        <ele>136</ele>
        <time>2020-12-05T14:37:17.095Z</time>
      </trkpt>
      <trkpt lat="48.79633" lon="2.24114">
        <ele>137</ele>
        <time>2020-12-05T14:37:18.094Z</time>
      </trkpt>
      <trkpt lat="48.79634" lon="2.24114">
        <ele>137</ele>
        <time>2020-12-05T14:37:19.095Z</time>
      </trkpt>
      <trkpt lat="48.79635" lon="2.24113">
        <ele>138</ele>
        <time>2020-12-05T14:37:20.094Z</time>
      </trkpt>
      <trkpt lat="48.79635" lon="2.24113">
        <ele>139</ele>
        <time>2020-12-05T14:37:21.094Z</time>
      </trkpt>
      <trkpt lat="48.79634" lon="2.24113">
        <ele>139</ele>
        <time>2020-12-05T14:37:22.095Z</time>
      </trkpt>
      <trkpt lat="48.79633" lon="2.24113">
        <ele>140</ele>
        <time>2020-12-05T14:37:23.095Z</time>
      </trkpt>
      <trkpt lat="48.79633" lon="2.24113">
        <ele>141</ele>
        <time>2020-12-05T14:37:24.094Z</time>
      </trkpt>
      <trkpt lat="48.79632" lon="2.24114">
        <ele>141</ele>
        <time>2020-12-05T14:37:25.095Z</time>
      </trkpt>
      <trkpt lat="48.79632" lon="2.24115">
        <ele>142</ele>
        <time>2020-12-05T14:37:26.094Z</time>
      </trkpt>
      <trkpt lat="48.79632" lon="2.24115">
        <ele>142</ele>
        <time>2020-12-05T14:37:27.095Z</time>
      </trkpt>
      <trkpt lat="48.79632" lon="2.24115">
        <ele>143</ele>
        <time>2020-12-05T14:37:28.094Z</time>
      </trkpt>
      <trkpt lat="48.79632" lon="2.24115">
        <ele>144</ele>
        <time>2020-12-05T14:37:29.095Z</time>
      </trkpt>
      <trkpt lat="48.79632" lon="2.24115">
        <ele>144</ele>
        <time>2020-12-05T14:37:30.094Z</time>
      </trkpt>
      <trkpt lat="48.79632" lon="2.24115">
        <ele>145</ele>
        <time>2020-12-05T14:37:31.095Z</time>
      </trkpt>
      <trkpt lat="48.79631" lon="2.24115">
        <ele>145</ele>
        <time>2020-12-05T14:37:32.094Z</time>
      </trkpt>
      <trkpt lat="48.79631" lon="2.24115">
        <ele>146</ele>
        <time>2020-12-05T14:37:33.094Z</time>
      </trkpt>
      <trkpt lat="48.79632" lon="2.24115">
        <ele>146</ele>
        <time>2020-12-05T14:37:34.095Z</time>
      </trkpt>
      <trkpt lat="48.79633" lon="2.24114">
        <ele>146</ele>
        <time>2020-12-05T14:37:35.094Z</time>
      </trkpt>
      <trkpt lat="48.79635" lon="2.24115">
        <ele>146</ele>
        <time>2020-12-05T14:37:36.095Z</time>
      </trkpt>
      <trkpt lat="48.79638" lon="2.24114">
        <ele>146</ele>
        <time>2020-12-05T14:37:37.095Z</time>
      </trkpt>
      <trkpt lat="48.79639" lon="2.24115">
        <ele>145</ele>
        <time>2020-12-05T14:37:38.095Z</time>
      </trkpt>
      <trkpt lat="48.79641" lon="2.24115">
        <ele>145</ele>
        <time>2020-12-05T14:37:39.095Z</time>
      </trkpt>
      <trkpt lat="48.79643" lon="2.24116">
        <ele>144</ele>
        <time>2020-12-05T14:37:40.095Z</time>
      </trkpt>
      <trkpt lat="48.79644" lon="2.24117">
        <ele>144</ele>
        <time>2020-12-05T14:37:41.095Z</time>
      </trkpt>
      <trkpt lat="48.79646" lon="2.24117">
        <ele>143</ele>
        <time>2020-12-05T14:37:42.095Z</time>
      </trkpt>
      <trkpt lat="48.79647" lon="2.24118">
        <ele>143</ele>
        <time>2020-12-05T14:37:43.094Z</time>
      </trkpt>
      <trkpt lat="48.79648" lon="2.24119">
        <ele>143</ele>
        <time>2020-12-05T14:37:44.094Z</time>
      </trkpt>
      <trkpt lat="48.79649" lon="2.2412">
        <ele>142</ele>
        <time>2020-12-05T14:37:45.095Z</time>
      </trkpt>
      <trkpt lat="48.79649" lon="2.2412">
        <ele>142</ele>
        <time>2020-12-05T14:37:46.094Z</time>
      </trkpt>
      <trkpt lat="48.7965" lon="2.24121">
        <ele>142</ele>
        <time>2020-12-05T14:37:47.095Z</time>
      </trkpt>
      <trkpt lat="48.79651" lon="2.24121">
        <ele>142</ele>
        <time>2020-12-05T14:37:48.095Z</time>
      </trkpt>
      <trkpt lat="48.79652" lon="2.24121">
        <ele>142</ele>
        <time>2020-12-05T14:37:49.095Z</time>
      </trkpt>
      <trkpt lat="48.79653" lon="2.24121">
        <ele>142</ele>
        <time>2020-12-05T14:37:50.095Z</time>
      </trkpt>
      <trkpt lat="48.79654" lon="2.2412">
        <ele>142</ele>
        <time>2020-12-05T14:37:51.095Z</time>
      </trkpt>
      <trkpt lat="48.79655" lon="2.2412">
        <ele>142</ele>
        <time>2020-12-05T14:37:52.095Z</time>
      </trkpt>
      <trkpt lat="48.79655" lon="2.2412">
        <ele>141</ele>
        <time>2020-12-05T14:37:53.095Z</time>
      </trkpt>
      <trkpt lat="48.79655" lon="2.2412">
        <ele>141</ele>
        <time>2020-12-05T14:37:54.095Z</time>
      </trkpt>
      <trkpt lat="48.79655" lon="2.24119">
        <ele>140</ele>
        <time>2020-12-05T14:37:55.095Z</time>
      </trkpt>
      <trkpt lat="48.79655" lon="2.24118">
        <ele>140</ele>
        <time>2020-12-05T14:37:56.095Z</time>
      </trkpt>
      <trkpt lat="48.79656" lon="2.24118">
        <ele>139</ele>
        <time>2020-12-05T14:37:57.094Z</time>
      </trkpt>
      <trkpt lat="48.79657" lon="2.24118">
        <ele>138</ele>
        <time>2020-12-05T14:37:58.094Z</time>
      </trkpt>
      <trkpt lat="48.79658" lon="2.24118">
        <ele>137</ele>
        <time>2020-12-05T14:37:59.095Z</time>
      </trkpt>
      <trkpt lat="48.79658" lon="2.24119">
        <ele>136</ele>
        <time>2020-12-05T14:38:00.094Z</time>
      </trkpt>
      <trkpt lat="48.79658" lon="2.24119">
        <ele>135</ele>
        <time>2020-12-05T14:38:01.095Z</time>
      </trkpt>
      <trkpt lat="48.79658" lon="2.24119">
        <ele>134</ele>
        <time>2020-12-05T14:38:02.094Z</time>
      </trkpt>
      <trkpt lat="48.79658" lon="2.24119">
        <ele>133</ele>
        <time>2020-12-05T14:38:03.094Z</time>
      </trkpt>
      <trkpt lat="48.79658" lon="2.24118">
        <ele>132</ele>
        <time>2020-12-05T14:38:04.094Z</time>
      </trkpt>
      <trkpt lat="48.79658" lon="2.24117">
        <ele>131</ele>
        <time>2020-12-05T14:38:05.094Z</time>
      </trkpt>
      <trkpt lat="48.79658" lon="2.24115">
        <ele>131</ele>
        <time>2020-12-05T14:38:06.095Z</time>
      </trkpt>
      <trkpt lat="48.79658" lon="2.24115">
        <ele>130</ele>
        <time>2020-12-05T14:38:07.094Z</time>
      </trkpt>
      <trkpt lat="48.79658" lon="2.24113">
        <ele>129</ele>
        <time>2020-12-05T14:38:08.095Z</time>
      </trkpt>
      <trkpt lat="48.79657" lon="2.24112">
        <ele>129</ele>
        <time>2020-12-05T14:38:09.095Z</time>
      </trkpt>
      <trkpt lat="48.79657" lon="2.24112">
        <ele>128</ele>
        <time>2020-12-05T14:38:10.094Z</time>
      </trkpt>
      <trkpt lat="48.79657" lon="2.24111">
        <ele>128</ele>
        <time>2020-12-05T14:38:11.094Z</time>
      </trkpt>
      <trkpt lat="48.79657" lon="2.24112">
        <ele>127</ele>
        <time>2020-12-05T14:38:12.095Z</time>
      </trkpt>
      <trkpt lat="48.79657" lon="2.24114">
        <ele>127</ele>
        <time>2020-12-05T14:38:13.095Z</time>
      </trkpt>
      <trkpt lat="48.79658" lon="2.24117">
        <ele>126</ele>
        <time>2020-12-05T14:38:14.095Z</time>
      </trkpt>
      <trkpt lat="48.79659" lon="2.24118">
        <ele>126</ele>
        <time>2020-12-05T14:38:15.095Z</time>
      </trkpt>
      <trkpt lat="48.7966" lon="2.24119">
        <ele>126</ele>
        <time>2020-12-05T14:38:16.095Z</time>
      </trkpt>
      <trkpt lat="48.79661" lon="2.2412">
        <ele>126</ele>
        <time>2020-12-05T14:38:17.095Z</time>
      </trkpt>
      <trkpt lat="48.79662" lon="2.2412">
        <ele>126</ele>
        <time>2020-12-05T14:38:18.095Z</time>
      </trkpt>
      <trkpt lat="48.79663" lon="2.24121">
        <ele>127</ele>
        <time>2020-12-05T14:38:19.095Z</time>
      </trkpt>
      <trkpt lat="48.79664" lon="2.24121">
        <ele>128</ele>
        <time>2020-12-05T14:38:20.095Z</time>
      </trkpt>
      <trkpt lat="48.79664" lon="2.24122">
        <ele>128</ele>
        <time>2020-12-05T14:38:21.094Z</time>
      </trkpt>
      <trkpt lat="48.79665" lon="2.24122">
        <ele>129</ele>
        <time>2020-12-05T14:38:22.095Z</time>
      </trkpt>
      <trkpt lat="48.79666" lon="2.24123">
        <ele>130</ele>
        <time>2020-12-05T14:38:23.095Z</time>
      </trkpt>
      <trkpt lat="48.79667" lon="2.24123">
        <ele>131</ele>
        <time>2020-12-05T14:38:24.095Z</time>
      </trkpt>
      <trkpt lat="48.79669" lon="2.24123">
        <ele>131</ele>
        <time>2020-12-05T14:38:25.095Z</time>
      </trkpt>
      <trkpt lat="48.7967" lon="2.24123">
        <ele>132</ele>
        <time>2020-12-05T14:38:26.095Z</time>
      </trkpt>
      <trkpt lat="48.79671" lon="2.24125">
        <ele>132</ele>
        <time>2020-12-05T14:38:27.095Z</time>
      </trkpt>
      <trkpt lat="48.79673" lon="2.24125">
        <ele>133</ele>
        <time>2020-12-05T14:38:28.095Z</time>
      </trkpt>
      <trkpt lat="48.79674" lon="2.24126">
        <ele>134</ele>
        <time>2020-12-05T14:38:29.095Z</time>
      </trkpt>
      <trkpt lat="48.79676" lon="2.24126">
        <ele>134</ele>
        <time>2020-12-05T14:38:30.095Z</time>
      </trkpt>
      <trkpt lat="48.79678" lon="2.24126">
        <ele>135</ele>
        <time>2020-12-05T14:38:31.095Z</time>
      </trkpt>
      <trkpt lat="48.79679" lon="2.24126">
        <ele>135</ele>
        <time>2020-12-05T14:38:32.094Z</time>
      </trkpt>
      <trkpt lat="48.7968" lon="2.24126">
        <ele>135</ele>
        <time>2020-12-05T14:38:33.095Z</time>
      </trkpt>
      <trkpt lat="48.79682" lon="2.24126">
        <ele>135</ele>
        <time>2020-12-05T14:38:34.094Z</time>
      </trkpt>
      <trkpt lat="48.79683" lon="2.24127">
        <ele>136</ele>
        <time>2020-12-05T14:38:35.095Z</time>
      </trkpt>
      <trkpt lat="48.79684" lon="2.24128">
        <ele>136</ele>
        <time>2020-12-05T14:38:36.095Z</time>
      </trkpt>
      <trkpt lat="48.79685" lon="2.24128">
        <ele>136</ele>
        <time>2020-12-05T14:38:37.095Z</time>
      </trkpt>
      <trkpt lat="48.79686" lon="2.24128">
        <ele>137</ele>
        <time>2020-12-05T14:38:38.095Z</time>
      </trkpt>
      <trkpt lat="48.79687" lon="2.2413">
        <ele>137</ele>
        <time>2020-12-05T14:38:39.095Z</time>
      </trkpt>
      <trkpt lat="48.79689" lon="2.24131">
        <ele>137</ele>
        <time>2020-12-05T14:38:40.095Z</time>
      </trkpt>
      <trkpt lat="48.79691" lon="2.24132">
        <ele>137</ele>
        <time>2020-12-05T14:38:41.094Z</time>
      </trkpt>
      <trkpt lat="48.79693" lon="2.24133">
        <ele>137</ele>
        <time>2020-12-05T14:38:42.095Z</time>
      </trkpt>
      <trkpt lat="48.79696" lon="2.24132">
        <ele>137</ele>
        <time>2020-12-05T14:38:43.094Z</time>
      </trkpt>
      <trkpt lat="48.79698" lon="2.24131">
        <ele>137</ele>
        <time>2020-12-05T14:38:44.094Z</time>
      </trkpt>
      <trkpt lat="48.79699" lon="2.24131">
        <ele>136</ele>
        <time>2020-12-05T14:38:45.094Z</time>
      </trkpt>
      <trkpt lat="48.797" lon="2.24131">
        <ele>136</ele>
        <time>2020-12-05T14:38:46.094Z</time>
      </trkpt>
      <trkpt lat="48.797" lon="2.24131">
        <ele>136</ele>
        <time>2020-12-05T14:38:47.095Z</time>
      </trkpt>
      <trkpt lat="48.79701" lon="2.2413">
        <ele>137</ele>
        <time>2020-12-05T14:38:48.094Z</time>
      </trkpt>
      <trkpt lat="48.79702" lon="2.2413">
        <ele>137</ele>
        <time>2020-12-05T14:38:49.095Z</time>
      </trkpt>
      <trkpt lat="48.79703" lon="2.2413">
        <ele>137</ele>
        <time>2020-12-05T14:38:50.094Z</time>
      </trkpt>
      <trkpt lat="48.79704" lon="2.2413">
        <ele>137</ele>
        <time>2020-12-05T14:38:51.095Z</time>
      </trkpt>
      <trkpt lat="48.79706" lon="2.2413">
        <ele>138</ele>
        <time>2020-12-05T14:38:52.095Z</time>
      </trkpt>
      <trkpt lat="48.79707" lon="2.2413">
        <ele>138</ele>
        <time>2020-12-05T14:38:53.094Z</time>
      </trkpt>
      <trkpt lat="48.79709" lon="2.24131">
        <ele>138</ele>
        <time>2020-12-05T14:38:54.095Z</time>
      </trkpt>
      <trkpt lat="48.79709" lon="2.24131">
        <ele>138</ele>
        <time>2020-12-05T14:38:55.094Z</time>
      </trkpt>
      <trkpt lat="48.7971" lon="2.24131">
        <ele>138</ele>
        <time>2020-12-05T14:38:56.094Z</time>
      </trkpt>
      <trkpt lat="48.79711" lon="2.24131">
        <ele>139</ele>
        <time>2020-12-05T14:38:57.095Z</time>
      </trkpt>
      <trkpt lat="48.79712" lon="2.24132">
        <ele>139</ele>
        <time>2020-12-05T14:38:58.095Z</time>
      </trkpt>
      <trkpt lat="48.79713" lon="2.24133">
        <ele>140</ele>
        <time>2020-12-05T14:38:59.094Z</time>
      </trkpt>
      <trkpt lat="48.79714" lon="2.24134">
        <ele>140</ele>
        <time>2020-12-05T14:39:00.095Z</time>
      </trkpt>
      <trkpt lat="48.79714" lon="2.24134">
        <ele>140</ele>
        <time>2020-12-05T14:39:01.095Z</time>
      </trkpt>
      <trkpt lat="48.79715" lon="2.24135">
        <ele>141</ele>
        <time>2020-12-05T14:39:02.095Z</time>
      </trkpt>
      <trkpt lat="48.79717" lon="2.24134">
        <ele>141</ele>
        <time>2020-12-05T14:39:03.095Z</time>
      </trkpt>
      <trkpt lat="48.79717" lon="2.24134">
        <ele>141</ele>
        <time>2020-12-05T14:39:04.095Z</time>
      </trkpt>
      <trkpt lat="48.79718" lon="2.24135">
        <ele>141</ele>
        <time>2020-12-05T14:39:05.094Z</time>
      </trkpt>
      <trkpt lat="48.79719" lon="2.24134">
        <ele>141</ele>
        <time>2020-12-05T14:39:06.094Z</time>
      </trkpt>
      <trkpt lat="48.7972" lon="2.24134">
        <ele>142</ele>
        <time>2020-12-05T14:39:07.094Z</time>
      </trkpt>
      <trkpt lat="48.79722" lon="2.24134">
        <ele>142</ele>
        <time>2020-12-05T14:39:08.095Z</time>
      </trkpt>
      <trkpt lat="48.79723" lon="2.24134">
        <ele>142</ele>
        <time>2020-12-05T14:39:09.094Z</time>
      </trkpt>
      <trkpt lat="48.79724" lon="2.24134">
        <ele>142</ele>
        <time>2020-12-05T14:39:10.094Z</time>
      </trkpt>
      <trkpt lat="48.79724" lon="2.24134">
        <ele>142</ele>
        <time>2020-12-05T14:39:11.095Z</time>
      </trkpt>
      <trkpt lat="48.79725" lon="2.24135">
        <ele>142</ele>
        <time>2020-12-05T14:39:12.095Z</time>
      </trkpt>
      <trkpt lat="48.79725" lon="2.24135">
        <ele>143</ele>
        <time>2020-12-05T14:39:13.095Z</time>
      </trkpt>
      <trkpt lat="48.79726" lon="2.24134">
        <ele>143</ele>
        <time>2020-12-05T14:39:14.095Z</time>
      </trkpt>
      <trkpt lat="48.79726" lon="2.24134">
        <ele>143</ele>
        <time>2020-12-05T14:39:15.095Z</time>
      </trkpt>
      <trkpt lat="48.79727" lon="2.24134">
        <ele>143</ele>
        <time>2020-12-05T14:39:16.095Z</time>
      </trkpt>
      <trkpt lat="48.79729" lon="2.24134">
        <ele>143</ele>
        <time>2020-12-05T14:39:17.094Z</time>
      </trkpt>
      <trkpt lat="48.79729" lon="2.24134">
        <ele>144</ele>
        <time>2020-12-05T14:39:18.095Z</time>
      </trkpt>
      <trkpt lat="48.7973" lon="2.24135">
        <ele>144</ele>
        <time>2020-12-05T14:39:19.094Z</time>
      </trkpt>
      <trkpt lat="48.79731" lon="2.24135">
        <ele>144</ele>
        <time>2020-12-05T14:39:20.095Z</time>
      </trkpt>
      <trkpt lat="48.79732" lon="2.24136">
        <ele>143</ele>
        <time>2020-12-05T14:39:21.094Z</time>
      </trkpt>
      <trkpt lat="48.79733" lon="2.24136">
        <ele>143</ele>
        <time>2020-12-05T14:39:22.094Z</time>
      </trkpt>
      <trkpt lat="48.79734" lon="2.24136">
        <ele>143</ele>
        <time>2020-12-05T14:39:23.095Z</time>
      </trkpt>
      <trkpt lat="48.79735" lon="2.24136">
        <ele>143</ele>
        <time>2020-12-05T14:39:24.095Z</time>
      </trkpt>
      <trkpt lat="48.79736" lon="2.24137">
        <ele>142</ele>
        <time>2020-12-05T14:39:25.095Z</time>
      </trkpt>
      <trkpt lat="48.79738" lon="2.24137">
        <ele>142</ele>
        <time>2020-12-05T14:39:26.095Z</time>
      </trkpt>
      <trkpt lat="48.79739" lon="2.24137">
        <ele>142</ele>
        <time>2020-12-05T14:39:27.095Z</time>
      </trkpt>
      <trkpt lat="48.7974" lon="2.24137">
        <ele>143</ele>
        <time>2020-12-05T14:39:28.095Z</time>
      </trkpt>
      <trkpt lat="48.79741" lon="2.24137">
        <ele>143</ele>
        <time>2020-12-05T14:39:29.095Z</time>
      </trkpt>
      <trkpt lat="48.79741" lon="2.24137">
        <ele>143</ele>
        <time>2020-12-05T14:39:30.095Z</time>
      </trkpt>
      <trkpt lat="48.79742" lon="2.24139">
        <ele>144</ele>
        <time>2020-12-05T14:39:31.095Z</time>
      </trkpt>
      <trkpt lat="48.79743" lon="2.24141">
        <ele>145</ele>
        <time>2020-12-05T14:39:32.095Z</time>
      </trkpt>
      <trkpt lat="48.79744" lon="2.24142">
        <ele>145</ele>
        <time>2020-12-05T14:39:33.095Z</time>
      </trkpt>
      <trkpt lat="48.79746" lon="2.24142">
        <ele>146</ele>
        <time>2020-12-05T14:39:34.094Z</time>
      </trkpt>
      <trkpt lat="48.79747" lon="2.24142">
        <ele>146</ele>
        <time>2020-12-05T14:39:35.095Z</time>
      </trkpt>
      <trkpt lat="48.79749" lon="2.24143">
        <ele>147</ele>
        <time>2020-12-05T14:39:36.094Z</time>
      </trkpt>
      <trkpt lat="48.79751" lon="2.24144">
        <ele>147</ele>
        <time>2020-12-05T14:39:37.094Z</time>
      </trkpt>
      <trkpt lat="48.79752" lon="2.24145">
        <ele>148</ele>
        <time>2020-12-05T14:39:38.095Z</time>
      </trkpt>
      <trkpt lat="48.79754" lon="2.24145">
        <ele>148</ele>
        <time>2020-12-05T14:39:39.094Z</time>
      </trkpt>
      <trkpt lat="48.79755" lon="2.24146">
        <ele>148</ele>
        <time>2020-12-05T14:39:40.095Z</time>
      </trkpt>
      <trkpt lat="48.79757" lon="2.24147">
        <ele>149</ele>
        <time>2020-12-05T14:39:41.095Z</time>
      </trkpt>
      <trkpt lat="48.79758" lon="2.24148">
        <ele>149</ele>
        <time>2020-12-05T14:39:42.095Z</time>
      </trkpt>
      <trkpt lat="48.79759" lon="2.24149">
        <ele>149</ele>
        <time>2020-12-05T14:39:43.094Z</time>
      </trkpt>
      <trkpt lat="48.7976" lon="2.24151">
        <ele>149</ele>
        <time>2020-12-05T14:39:44.095Z</time>
      </trkpt>
      <trkpt lat="48.79761" lon="2.24152">
        <ele>149</ele>
        <time>2020-12-05T14:39:45.095Z</time>
      </trkpt>
      <trkpt lat="48.79763" lon="2.24153">
        <ele>150</ele>
        <time>2020-12-05T14:39:46.095Z</time>
      </trkpt>
      <trkpt lat="48.79765" lon="2.24154">
        <ele>150</ele>
        <time>2020-12-05T14:39:47.095Z</time>
      </trkpt>
      <trkpt lat="48.79768" lon="2.24155">
        <ele>150</ele>
        <time>2020-12-05T14:39:48.095Z</time>
      </trkpt>
      <trkpt lat="48.79771" lon="2.24154">
        <ele>149</ele>
        <time>2020-12-05T14:39:49.095Z</time>
      </trkpt>
      <trkpt lat="48.79772" lon="2.24154">
        <ele>149</ele>
        <time>2020-12-05T14:39:50.095Z</time>
      </trkpt>
      <trkpt lat="48.79773" lon="2.24154">
        <ele>149</ele>
        <time>2020-12-05T14:39:51.094Z</time>
      </trkpt>
      <trkpt lat="48.79774" lon="2.24155">
        <ele>150</ele>
        <time>2020-12-05T14:39:52.095Z</time>
      </trkpt>
      <trkpt lat="48.79774" lon="2.24155">
        <ele>150</ele>
        <time>2020-12-05T14:39:53.095Z</time>
      </trkpt>
      <trkpt lat="48.79775" lon="2.24155">
        <ele>150</ele>
        <time>2020-12-05T14:39:54.094Z</time>
      </trkpt>
      <trkpt lat="48.79775" lon="2.24155">
        <ele>150</ele>
        <time>2020-12-05T14:39:55.095Z</time>
      </trkpt>
      <trkpt lat="48.79775" lon="2.24155">
        <ele>150</ele>
        <time>2020-12-05T14:39:56.095Z</time>
      </trkpt>
      <trkpt lat="48.79775" lon="2.24155">
        <ele>150</ele>
        <time>2020-12-05T14:39:57.095Z</time>
      </trkpt>
      <trkpt lat="48.79776" lon="2.24155">
        <ele>150</ele>
        <time>2020-12-05T14:39:58.095Z</time>
      </trkpt>
      <trkpt lat="48.79778" lon="2.24156">
        <ele>151</ele>
        <time>2020-12-05T14:39:59.095Z</time>
      </trkpt>
      <trkpt lat="48.79779" lon="2.24156">
        <ele>151</ele>
        <time>2020-12-05T14:40:00.094Z</time>
      </trkpt>
      <trkpt lat="48.7978" lon="2.24157">
        <ele>151</ele>
        <time>2020-12-05T14:40:01.095Z</time>
      </trkpt>
      <trkpt lat="48.79781" lon="2.24159">
        <ele>152</ele>
        <time>2020-12-05T14:40:02.095Z</time>
      </trkpt>
      <trkpt lat="48.79781" lon="2.2416">
        <ele>152</ele>
        <time>2020-12-05T14:40:03.095Z</time>
      </trkpt>
      <trkpt lat="48.79782" lon="2.24162">
        <ele>152</ele>
        <time>2020-12-05T14:40:04.095Z</time>
      </trkpt>
      <trkpt lat="48.79782" lon="2.24163">
        <ele>152</ele>
        <time>2020-12-05T14:40:05.095Z</time>
      </trkpt>
      <trkpt lat="48.79783" lon="2.24164">
        <ele>152</ele>
        <time>2020-12-05T14:40:06.095Z</time>
      </trkpt>
      <trkpt lat="48.79783" lon="2.24165">
        <ele>152</ele>
        <time>2020-12-05T14:40:07.095Z</time>
      </trkpt>
      <trkpt lat="48.79783" lon="2.24165">
        <ele>152</ele>
        <time>2020-12-05T14:40:08.095Z</time>
      </trkpt>
      <trkpt lat="48.79783" lon="2.24165">
        <ele>152</ele>
        <time>2020-12-05T14:40:09.095Z</time>
      </trkpt>
      <trkpt lat="48.79784" lon="2.24166">
        <ele>152</ele>
        <time>2020-12-05T14:40:10.095Z</time>
      </trkpt>
      <trkpt lat="48.79785" lon="2.24167">
        <ele>151</ele>
        <time>2020-12-05T14:40:11.095Z</time>
      </trkpt>
      <trkpt lat="48.79784" lon="2.24167">
        <ele>151</ele>
        <time>2020-12-05T14:40:12.095Z</time>
      </trkpt>
      <trkpt lat="48.79784" lon="2.24168">
        <ele>151</ele>
        <time>2020-12-05T14:40:13.095Z</time>
      </trkpt>
      <trkpt lat="48.79782" lon="2.24168">
        <ele>151</ele>
        <time>2020-12-05T14:40:14.095Z</time>
      </trkpt>
      <trkpt lat="48.79782" lon="2.2417">
        <ele>150</ele>
        <time>2020-12-05T14:40:15.095Z</time>
      </trkpt>
      <trkpt lat="48.79781" lon="2.2417">
        <ele>151</ele>
        <time>2020-12-05T14:40:16.095Z</time>
      </trkpt>
      <trkpt lat="48.79781" lon="2.24171">
        <ele>151</ele>
        <time>2020-12-05T14:40:17.095Z</time>
      </trkpt>
      <trkpt lat="48.79782" lon="2.24171">
        <ele>151</ele>
        <time>2020-12-05T14:40:18.095Z</time>
      </trkpt>
      <trkpt lat="48.79783" lon="2.24171">
        <ele>151</ele>
        <time>2020-12-05T14:40:19.095Z</time>
      </trkpt>
      <trkpt lat="48.79783" lon="2.24172">
        <ele>151</ele>
        <time>2020-12-05T14:40:20.095Z</time>
      </trkpt>
      <trkpt lat="48.79782" lon="2.24172">
        <ele>152</ele>
        <time>2020-12-05T14:40:21.095Z</time>
      </trkpt>
      <trkpt lat="48.79782" lon="2.24173">
        <ele>152</ele>
        <time>2020-12-05T14:40:22.095Z</time>
      </trkpt>
      <trkpt lat="48.79782" lon="2.24173">
        <ele>152</ele>
        <time>2020-12-05T14:40:23.094Z</time>
      </trkpt>
      <trkpt lat="48.79782" lon="2.24173">
        <ele>152</ele>
        <time>2020-12-05T14:40:24.094Z</time>
      </trkpt>
      <trkpt lat="48.79783" lon="2.24172">
        <ele>153</ele>
        <time>2020-12-05T14:40:25.095Z</time>
      </trkpt>
      <trkpt lat="48.79783" lon="2.24172">
        <ele>153</ele>
        <time>2020-12-05T14:40:26.094Z</time>
      </trkpt>
      <trkpt lat="48.79784" lon="2.24172">
        <ele>153</ele>
        <time>2020-12-05T14:40:27.095Z</time>
      </trkpt>
      <trkpt lat="48.79784" lon="2.24171">
        <ele>154</ele>
        <time>2020-12-05T14:40:28.095Z</time>
      </trkpt>
      <trkpt lat="48.79785" lon="2.24172">
        <ele>154</ele>
        <time>2020-12-05T14:40:29.095Z</time>
      </trkpt>
      <trkpt lat="48.79785" lon="2.24172">
        <ele>153</ele>
        <time>2020-12-05T14:40:30.095Z</time>
      </trkpt>
      <trkpt lat="48.79784" lon="2.24172">
        <ele>153</ele>
        <time>2020-12-05T14:40:31.095Z</time>
      </trkpt>
      <trkpt lat="48.79784" lon="2.24172">
        <ele>152</ele>
        <time>2020-12-05T14:40:32.095Z</time>
      </trkpt>
      <trkpt lat="48.79784" lon="2.24172">
        <ele>152</ele>
        <time>2020-12-05T14:40:33.095Z</time>
      </trkpt>
      <trkpt lat="48.79784" lon="2.24172">
        <ele>152</ele>
        <time>2020-12-05T14:40:34.094Z</time>
      </trkpt>
      <trkpt lat="48.79784" lon="2.24172">
        <ele>151</ele>
        <time>2020-12-05T14:40:35.094Z</time>
      </trkpt>
      <trkpt lat="48.79783" lon="2.24172">
        <ele>151</ele>
        <time>2020-12-05T14:40:36.095Z</time>
      </trkpt>
      <trkpt lat="48.79782" lon="2.24172">
        <ele>151</ele>
        <time>2020-12-05T14:40:37.095Z</time>
      </trkpt>
      <trkpt lat="48.79781" lon="2.24172">
        <ele>151</ele>
        <time>2020-12-05T14:40:38.095Z</time>
      </trkpt>
      <trkpt lat="48.79781" lon="2.24172">
        <ele>151</ele>
        <time>2020-12-05T14:40:39.095Z</time>
      </trkpt>
      <trkpt lat="48.7978" lon="2.24172">
        <ele>151</ele>
        <time>2020-12-05T14:40:40.095Z</time>
      </trkpt>
      <trkpt lat="48.7978" lon="2.24172">
        <ele>152</ele>
        <time>2020-12-05T14:40:41.095Z</time>
      </trkpt>
      <trkpt lat="48.7978" lon="2.24172">
        <ele>152</ele>
        <time>2020-12-05T14:40:42.094Z</time>
      </trkpt>
      <trkpt lat="48.79781" lon="2.24173">
        <ele>153</ele>
        <time>2020-12-05T14:40:43.094Z</time>
      </trkpt>
      <trkpt lat="48.79782" lon="2.24174">
        <ele>153</ele>
        <time>2020-12-05T14:40:44.095Z</time>
      </trkpt>
      <trkpt lat="48.79782" lon="2.24175">
        <ele>154</ele>
        <time>2020-12-05T14:40:45.095Z</time>
      </trkpt>
      <trkpt lat="48.79782" lon="2.24176">
        <ele>154</ele>
        <time>2020-12-05T14:40:46.095Z</time>
      </trkpt>
      <trkpt lat="48.79782" lon="2.24177">
        <ele>154</ele>
        <time>2020-12-05T14:40:47.095Z</time>
      </trkpt>
      <trkpt lat="48.79782" lon="2.24177">
        <ele>154</ele>
        <time>2020-12-05T14:40:48.095Z</time>
      </trkpt>
      <trkpt lat="48.79781" lon="2.24177">
        <ele>154</ele>
        <time>2020-12-05T14:40:49.095Z</time>
      </trkpt>
      <trkpt lat="48.79781" lon="2.24177">
        <ele>154</ele>
        <time>2020-12-05T14:40:50.095Z</time>
      </trkpt>
      <trkpt lat="48.79781" lon="2.24178">
        <ele>154</ele>
        <time>2020-12-05T14:40:51.094Z</time>
      </trkpt>
      <trkpt lat="48.79781" lon="2.24179">
        <ele>154</ele>
        <time>2020-12-05T14:40:52.095Z</time>
      </trkpt>
      <trkpt lat="48.79781" lon="2.2418">
        <ele>154</ele>
        <time>2020-12-05T14:40:53.095Z</time>
      </trkpt>
      <trkpt lat="48.79781" lon="2.24181">
        <ele>155</ele>
        <time>2020-12-05T14:40:54.095Z</time>
      </trkpt>
      <trkpt lat="48.7978" lon="2.24181">
        <ele>155</ele>
        <time>2020-12-05T14:40:55.095Z</time>
      </trkpt>
      <trkpt lat="48.79781" lon="2.2418">
        <ele>156</ele>
        <time>2020-12-05T14:40:56.095Z</time>
      </trkpt>
      <trkpt lat="48.79782" lon="2.2418">
        <ele>156</ele>
        <time>2020-12-05T14:40:57.094Z</time>
      </trkpt>
      <trkpt lat="48.79784" lon="2.2418">
        <ele>156</ele>
        <time>2020-12-05T14:40:58.095Z</time>
      </trkpt>
      <trkpt lat="48.79785" lon="2.2418">
        <ele>157</ele>
        <time>2020-12-05T14:40:59.094Z</time>
      </trkpt>
      <trkpt lat="48.79785" lon="2.24179">
        <ele>157</ele>
        <time>2020-12-05T14:41:00.094Z</time>
      </trkpt>
      <trkpt lat="48.79785" lon="2.24179">
        <ele>158</ele>
        <time>2020-12-05T14:41:01.095Z</time>
      </trkpt>
      <trkpt lat="48.79785" lon="2.24178">
        <ele>158</ele>
        <time>2020-12-05T14:41:02.095Z</time>
      </trkpt>
      <trkpt lat="48.79785" lon="2.24178">
        <ele>159</ele>
        <time>2020-12-05T14:41:03.095Z</time>
      </trkpt>
      <trkpt lat="48.79785" lon="2.24178">
        <ele>159</ele>
        <time>2020-12-05T14:41:04.095Z</time>
      </trkpt>
      <trkpt lat="48.79785" lon="2.24178">
        <ele>159</ele>
        <time>2020-12-05T14:41:05.095Z</time>
      </trkpt>
      <trkpt lat="48.79785" lon="2.24178">
        <ele>159</ele>
        <time>2020-12-05T14:41:06.095Z</time>
      </trkpt>
      <trkpt lat="48.79785" lon="2.24178">
        <ele>159</ele>
        <time>2020-12-05T14:41:07.094Z</time>
      </trkpt>
      <trkpt lat="48.79785" lon="2.24178">
        <ele>159</ele>
        <time>2020-12-05T14:41:08.095Z</time>
      </trkpt>
      <trkpt lat="48.79785" lon="2.24178">
        <ele>159</ele>
        <time>2020-12-05T14:41:09.094Z</time>
      </trkpt>
      <trkpt lat="48.79785" lon="2.24178">
        <ele>159</ele>
        <time>2020-12-05T14:41:10.094Z</time>
      </trkpt>
      <trkpt lat="48.79785" lon="2.24178">
        <ele>159</ele>
        <time>2020-12-05T14:41:11.095Z</time>
      </trkpt>
      <trkpt lat="48.79785" lon="2.24178">
        <ele>159</ele>
        <time>2020-12-05T14:41:12.095Z</time>
      </trkpt>
      <trkpt lat="48.79785" lon="2.24178">
        <ele>159</ele>
        <time>2020-12-05T14:41:13.095Z</time>
      </trkpt>
      <trkpt lat="48.79785" lon="2.24178">
        <ele>160</ele>
        <time>2020-12-05T14:41:14.095Z</time>
      </trkpt>
      <trkpt lat="48.79785" lon="2.24178">
        <ele>160</ele>
        <time>2020-12-05T14:41:15.095Z</time>
      </trkpt>
      <trkpt lat="48.79785" lon="2.24178">
        <ele>160</ele>
        <time>2020-12-05T14:41:16.095Z</time>
      </trkpt>
      <trkpt lat="48.79785" lon="2.24179">
        <ele>160</ele>
        <time>2020-12-05T14:41:17.095Z</time>
      </trkpt>
      <trkpt lat="48.79785" lon="2.24179">
        <ele>160</ele>
        <time>2020-12-05T14:41:18.094Z</time>
      </trkpt>
      <trkpt lat="48.79785" lon="2.24179">
        <ele>160</ele>
        <time>2020-12-05T14:41:19.095Z</time>
      </trkpt>
      <trkpt lat="48.79785" lon="2.24179">
        <ele>160</ele>
        <time>2020-12-05T14:41:20.094Z</time>
      </trkpt>
      <trkpt lat="48.79785" lon="2.24179">
        <ele>160</ele>
        <time>2020-12-05T14:41:21.094Z</time>
      </trkpt>
      <trkpt lat="48.79786" lon="2.24179">
        <ele>160</ele>
        <time>2020-12-05T14:41:22.095Z</time>
      </trkpt>
      <trkpt lat="48.79786" lon="2.24179">
        <ele>159</ele>
        <time>2020-12-05T14:41:23.094Z</time>
      </trkpt>
      <trkpt lat="48.79786" lon="2.24179">
        <ele>159</ele>
        <time>2020-12-05T14:41:24.095Z</time>
      </trkpt>
      <trkpt lat="48.79786" lon="2.24179">
        <ele>159</ele>
        <time>2020-12-05T14:41:25.095Z</time>
      </trkpt>
      <trkpt lat="48.79786" lon="2.24179">
        <ele>159</ele>
        <time>2020-12-05T14:41:26.095Z</time>
      </trkpt>
      <trkpt lat="48.79787" lon="2.2418">
        <ele>159</ele>
        <time>2020-12-05T14:41:27.095Z</time>
      </trkpt>
      <trkpt lat="48.79788" lon="2.2418">
        <ele>159</ele>
        <time>2020-12-05T14:41:28.095Z</time>
      </trkpt>
      <trkpt lat="48.7979" lon="2.24181">
        <ele>158</ele>
        <time>2020-12-05T14:41:29.095Z</time>
      </trkpt>
      <trkpt lat="48.79791" lon="2.24182">
        <ele>158</ele>
        <time>2020-12-05T14:41:30.095Z</time>
      </trkpt>
      <trkpt lat="48.79792" lon="2.24183">
        <ele>158</ele>
        <time>2020-12-05T14:41:31.095Z</time>
      </trkpt>
      <trkpt lat="48.79794" lon="2.24184">
        <ele>158</ele>
        <time>2020-12-05T14:41:32.094Z</time>
      </trkpt>
      <trkpt lat="48.79795" lon="2.24185">
        <ele>157</ele>
        <time>2020-12-05T14:41:33.094Z</time>
      </trkpt>
      <trkpt lat="48.79795" lon="2.24187">
        <ele>157</ele>
        <time>2020-12-05T14:41:34.095Z</time>
      </trkpt>
      <trkpt lat="48.79796" lon="2.24187">
        <ele>156</ele>
        <time>2020-12-05T14:41:35.095Z</time>
      </trkpt>
      <trkpt lat="48.79796" lon="2.24188">
        <ele>156</ele>
        <time>2020-12-05T14:41:36.094Z</time>
      </trkpt>
      <trkpt lat="48.79796" lon="2.24189">
        <ele>155</ele>
        <time>2020-12-05T14:41:37.095Z</time>
      </trkpt>
      <trkpt lat="48.79797" lon="2.24188">
        <ele>154</ele>
        <time>2020-12-05T14:41:38.094Z</time>
      </trkpt>
      <trkpt lat="48.79798" lon="2.24188">
        <ele>154</ele>
        <time>2020-12-05T14:41:39.095Z</time>
      </trkpt>
      <trkpt lat="48.798" lon="2.24189">
        <ele>153</ele>
        <time>2020-12-05T14:41:40.095Z</time>
      </trkpt>
      <trkpt lat="48.79801" lon="2.2419">
        <ele>152</ele>
        <time>2020-12-05T14:41:41.094Z</time>
      </trkpt>
      <trkpt lat="48.79802" lon="2.24192">
        <ele>151</ele>
        <time>2020-12-05T14:41:42.095Z</time>
      </trkpt>
      <trkpt lat="48.79804" lon="2.24193">
        <ele>150</ele>
        <time>2020-12-05T14:41:43.095Z</time>
      </trkpt>
      <trkpt lat="48.79805" lon="2.24194">
        <ele>150</ele>
        <time>2020-12-05T14:41:44.095Z</time>
      </trkpt>
      <trkpt lat="48.79806" lon="2.24194">
        <ele>149</ele>
        <time>2020-12-05T14:41:45.095Z</time>
      </trkpt>
      <trkpt lat="48.79806" lon="2.24195">
        <ele>149</ele>
        <time>2020-12-05T14:41:46.095Z</time>
      </trkpt>
      <trkpt lat="48.79807" lon="2.24196">
        <ele>149</ele>
        <time>2020-12-05T14:41:47.095Z</time>
      </trkpt>
      <trkpt lat="48.79808" lon="2.24197">
        <ele>148</ele>
        <time>2020-12-05T14:41:48.095Z</time>
      </trkpt>
      <trkpt lat="48.79807" lon="2.24197">
        <ele>148</ele>
        <time>2020-12-05T14:41:49.095Z</time>
      </trkpt>
      <trkpt lat="48.79807" lon="2.24196">
        <ele>148</ele>
        <time>2020-12-05T14:41:50.095Z</time>
      </trkpt>
      <trkpt lat="48.79807" lon="2.24197">
        <ele>147</ele>
        <time>2020-12-05T14:41:51.095Z</time>
      </trkpt>
      <trkpt lat="48.79807" lon="2.24198">
        <ele>147</ele>
        <time>2020-12-05T14:41:52.095Z</time>
      </trkpt>
      <trkpt lat="48.79809" lon="2.24198">
        <ele>147</ele>
        <time>2020-12-05T14:41:53.095Z</time>
      </trkpt>
      <trkpt lat="48.79811" lon="2.24199">
        <ele>146</ele>
        <time>2020-12-05T14:41:54.095Z</time>
      </trkpt>
      <trkpt lat="48.79812" lon="2.24199">
        <ele>145</ele>
        <time>2020-12-05T14:41:55.095Z</time>
      </trkpt>
      <trkpt lat="48.79813" lon="2.24199">
        <ele>145</ele>
        <time>2020-12-05T14:41:56.095Z</time>
      </trkpt>
      <trkpt lat="48.79814" lon="2.24199">
        <ele>144</ele>
        <time>2020-12-05T14:41:57.095Z</time>
      </trkpt>
      <trkpt lat="48.79814" lon="2.24198">
        <ele>144</ele>
        <time>2020-12-05T14:41:58.095Z</time>
      </trkpt>
      <trkpt lat="48.79815" lon="2.24198">
        <ele>144</ele>
        <time>2020-12-05T14:41:59.095Z</time>
      </trkpt>
      <trkpt lat="48.79815" lon="2.24198">
        <ele>144</ele>
        <time>2020-12-05T14:42:00.095Z</time>
      </trkpt>
      <trkpt lat="48.79816" lon="2.24198">
        <ele>144</ele>
        <time>2020-12-05T14:42:01.095Z</time>
      </trkpt>
      <trkpt lat="48.79816" lon="2.24198">
        <ele>144</ele>
        <time>2020-12-05T14:42:02.095Z</time>
      </trkpt>
      <trkpt lat="48.79817" lon="2.24198">
        <ele>143</ele>
        <time>2020-12-05T14:42:03.094Z</time>
      </trkpt>
      <trkpt lat="48.79818" lon="2.24198">
        <ele>144</ele>
        <time>2020-12-05T14:42:04.095Z</time>
      </trkpt>
      <trkpt lat="48.79818" lon="2.24199">
        <ele>144</ele>
        <time>2020-12-05T14:42:05.095Z</time>
      </trkpt>
      <trkpt lat="48.79819" lon="2.24199">
        <ele>144</ele>
        <time>2020-12-05T14:42:06.095Z</time>
      </trkpt>
      <trkpt lat="48.7982" lon="2.242">
        <ele>144</ele>
        <time>2020-12-05T14:42:07.095Z</time>
      </trkpt>
      <trkpt lat="48.79821" lon="2.24199">
        <ele>143</ele>
        <time>2020-12-05T14:42:08.095Z</time>
      </trkpt>
      <trkpt lat="48.79823" lon="2.24199">
        <ele>143</ele>
        <time>2020-12-05T14:42:09.095Z</time>
      </trkpt>
      <trkpt lat="48.79824" lon="2.24199">
        <ele>143</ele>
        <time>2020-12-05T14:42:10.095Z</time>
      </trkpt>
      <trkpt lat="48.79825" lon="2.24199">
        <ele>143</ele>
        <time>2020-12-05T14:42:11.095Z</time>
      </trkpt>
      <trkpt lat="48.79827" lon="2.24199">
        <ele>143</ele>
        <time>2020-12-05T14:42:12.094Z</time>
      </trkpt>
      <trkpt lat="48.79828" lon="2.24199">
        <ele>143</ele>
        <time>2020-12-05T14:42:13.095Z</time>
      </trkpt>
      <trkpt lat="48.79829" lon="2.242">
        <ele>143</ele>
        <time>2020-12-05T14:42:14.095Z</time>
      </trkpt>
      <trkpt lat="48.79831" lon="2.242">
        <ele>143</ele>
        <time>2020-12-05T14:42:15.095Z</time>
      </trkpt>
      <trkpt lat="48.79833" lon="2.242">
        <ele>143</ele>
        <time>2020-12-05T14:42:16.095Z</time>
      </trkpt>
      <trkpt lat="48.79834" lon="2.24199">
        <ele>142</ele>
        <time>2020-12-05T14:42:17.094Z</time>
      </trkpt>
      <trkpt lat="48.79834" lon="2.242">
        <ele>143</ele>
        <time>2020-12-05T14:42:18.095Z</time>
      </trkpt>
      <trkpt lat="48.79836" lon="2.242">
        <ele>143</ele>
        <time>2020-12-05T14:42:19.094Z</time>
      </trkpt>
      <trkpt lat="48.79839" lon="2.242">
        <ele>143</ele>
        <time>2020-12-05T14:42:20.095Z</time>
      </trkpt>
      <trkpt lat="48.79842" lon="2.24198">
        <ele>143</ele>
        <time>2020-12-05T14:42:21.095Z</time>
      </trkpt>
      <trkpt lat="48.79845" lon="2.24199">
        <ele>142</ele>
        <time>2020-12-05T14:42:22.095Z</time>
      </trkpt>
      <trkpt lat="48.79848" lon="2.24201">
        <ele>142</ele>
        <time>2020-12-05T14:42:23.095Z</time>
      </trkpt>
      <trkpt lat="48.79848" lon="2.24202">
        <ele>142</ele>
        <time>2020-12-05T14:42:24.095Z</time>
      </trkpt>
      <trkpt lat="48.79847" lon="2.24203">
        <ele>142</ele>
        <time>2020-12-05T14:42:25.095Z</time>
      </trkpt>
      <trkpt lat="48.79847" lon="2.24202">
        <ele>142</ele>
        <time>2020-12-05T14:42:26.095Z</time>
      </trkpt>
      <trkpt lat="48.79846" lon="2.24202">
        <ele>142</ele>
        <time>2020-12-05T14:42:27.095Z</time>
      </trkpt>
      <trkpt lat="48.79847" lon="2.24202">
        <ele>143</ele>
        <time>2020-12-05T14:42:28.095Z</time>
      </trkpt>
      <trkpt lat="48.79847" lon="2.24202">
        <ele>143</ele>
        <time>2020-12-05T14:42:29.095Z</time>
      </trkpt>
      <trkpt lat="48.79846" lon="2.24203">
        <ele>143</ele>
        <time>2020-12-05T14:42:30.095Z</time>
      </trkpt>
      <trkpt lat="48.79845" lon="2.24203">
        <ele>143</ele>
        <time>2020-12-05T14:42:31.095Z</time>
      </trkpt>
      <trkpt lat="48.79845" lon="2.24204">
        <ele>144</ele>
        <time>2020-12-05T14:42:32.095Z</time>
      </trkpt>
      <trkpt lat="48.79845" lon="2.24204">
        <ele>144</ele>
        <time>2020-12-05T14:42:33.095Z</time>
      </trkpt>
      <trkpt lat="48.79845" lon="2.24204">
        <ele>144</ele>
        <time>2020-12-05T14:42:34.094Z</time>
      </trkpt>
      <trkpt lat="48.79846" lon="2.24204">
        <ele>144</ele>
        <time>2020-12-05T14:42:35.095Z</time>
      </trkpt>
      <trkpt lat="48.79846" lon="2.24203">
        <ele>144</ele>
        <time>2020-12-05T14:42:36.094Z</time>
      </trkpt>
      <trkpt lat="48.79847" lon="2.24203">
        <ele>145</ele>
        <time>2020-12-05T14:42:37.095Z</time>
      </trkpt>
      <trkpt lat="48.79847" lon="2.24203">
        <ele>145</ele>
        <time>2020-12-05T14:42:38.095Z</time>
      </trkpt>
      <trkpt lat="48.79847" lon="2.24203">
        <ele>145</ele>
        <time>2020-12-05T14:42:39.095Z</time>
      </trkpt>
      <trkpt lat="48.79848" lon="2.24203">
        <ele>145</ele>
        <time>2020-12-05T14:42:40.094Z</time>
      </trkpt>
      <trkpt lat="48.79849" lon="2.24203">
        <ele>144</ele>
        <time>2020-12-05T14:42:41.095Z</time>
      </trkpt>
      <trkpt lat="48.7985" lon="2.24203">
        <ele>144</ele>
        <time>2020-12-05T14:42:42.095Z</time>
      </trkpt>
      <trkpt lat="48.7985" lon="2.24203">
        <ele>144</ele>
        <time>2020-12-05T14:42:43.095Z</time>
      </trkpt>
      <trkpt lat="48.79851" lon="2.24204">
        <ele>143</ele>
        <time>2020-12-05T14:42:44.094Z</time>
      </trkpt>
      <trkpt lat="48.79851" lon="2.24204">
        <ele>143</ele>
        <time>2020-12-05T14:42:45.095Z</time>
      </trkpt>
      <trkpt lat="48.79851" lon="2.24205">
        <ele>143</ele>
        <time>2020-12-05T14:42:46.094Z</time>
      </trkpt>
      <trkpt lat="48.79851" lon="2.24205">
        <ele>142</ele>
        <time>2020-12-05T14:42:47.095Z</time>
      </trkpt>
      <trkpt lat="48.79851" lon="2.24206">
        <ele>142</ele>
        <time>2020-12-05T14:42:48.094Z</time>
      </trkpt>
      <trkpt lat="48.79851" lon="2.24207">
        <ele>142</ele>
        <time>2020-12-05T14:42:49.095Z</time>
      </trkpt>
      <trkpt lat="48.7985" lon="2.24207">
        <ele>141</ele>
        <time>2020-12-05T14:42:50.094Z</time>
      </trkpt>
      <trkpt lat="48.7985" lon="2.24208">
        <ele>141</ele>
        <time>2020-12-05T14:42:51.095Z</time>
      </trkpt>
      <trkpt lat="48.79851" lon="2.24208">
        <ele>140</ele>
        <time>2020-12-05T14:42:52.094Z</time>
      </trkpt>
      <trkpt lat="48.79851" lon="2.24209">
        <ele>140</ele>
        <time>2020-12-05T14:42:53.095Z</time>
      </trkpt>
      <trkpt lat="48.79851" lon="2.24209">
        <ele>140</ele>
        <time>2020-12-05T14:42:54.095Z</time>
      </trkpt>
      <trkpt lat="48.79851" lon="2.24209">
        <ele>140</ele>
        <time>2020-12-05T14:42:55.095Z</time>
      </trkpt>
      <trkpt lat="48.79851" lon="2.2421">
        <ele>140</ele>
        <time>2020-12-05T14:42:56.095Z</time>
      </trkpt>
      <trkpt lat="48.79851" lon="2.2421">
        <ele>140</ele>
        <time>2020-12-05T14:42:57.095Z</time>
      </trkpt>
      <trkpt lat="48.79851" lon="2.24208">
        <ele>140</ele>
        <time>2020-12-05T14:42:58.095Z</time>
      </trkpt>
      <trkpt lat="48.7985" lon="2.24208">
        <ele>140</ele>
        <time>2020-12-05T14:42:59.095Z</time>
      </trkpt>
      <trkpt lat="48.79851" lon="2.24208">
        <ele>140</ele>
        <time>2020-12-05T14:43:00.094Z</time>
      </trkpt>
      <trkpt lat="48.79851" lon="2.24209">
        <ele>140</ele>
        <time>2020-12-05T14:43:01.095Z</time>
      </trkpt>
      <trkpt lat="48.79851" lon="2.24209">
        <ele>140</ele>
        <time>2020-12-05T14:43:02.095Z</time>
      </trkpt>
      <trkpt lat="48.79851" lon="2.24209">
        <ele>140</ele>
        <time>2020-12-05T14:43:03.095Z</time>
      </trkpt>
      <trkpt lat="48.79851" lon="2.24209">
        <ele>139</ele>
        <time>2020-12-05T14:43:04.095Z</time>
      </trkpt>
      <trkpt lat="48.79851" lon="2.24209">
        <ele>139</ele>
        <time>2020-12-05T14:43:05.095Z</time>
      </trkpt>
      <trkpt lat="48.79851" lon="2.24209">
        <ele>139</ele>
        <time>2020-12-05T14:43:06.095Z</time>
      </trkpt>
      <trkpt lat="48.79851" lon="2.24209">
        <ele>139</ele>
        <time>2020-12-05T14:43:07.095Z</time>
      </trkpt>
      <trkpt lat="48.79851" lon="2.24209">
        <ele>139</ele>
        <time>2020-12-05T14:43:08.095Z</time>
      </trkpt>
      <trkpt lat="48.79851" lon="2.24209">
        <ele>139</ele>
        <time>2020-12-05T14:43:09.095Z</time>
      </trkpt>
      <trkpt lat="48.79851" lon="2.24209">
        <ele>139</ele>
        <time>2020-12-05T14:43:10.095Z</time>
      </trkpt>
      <trkpt lat="48.79851" lon="2.24209">
        <ele>140</ele>
        <time>2020-12-05T14:43:11.095Z</time>
      </trkpt>
      <trkpt lat="48.79851" lon="2.24209">
        <ele>140</ele>
        <time>2020-12-05T14:43:12.095Z</time>
      </trkpt>
      <trkpt lat="48.79851" lon="2.24209">
        <ele>140</ele>
        <time>2020-12-05T14:43:13.094Z</time>
      </trkpt>
      <trkpt lat="48.79851" lon="2.24209">
        <ele>140</ele>
        <time>2020-12-05T14:43:14.094Z</time>
      </trkpt>
      <trkpt lat="48.79851" lon="2.24209">
        <ele>140</ele>
        <time>2020-12-05T14:43:15.094Z</time>
      </trkpt>
      <trkpt lat="48.79851" lon="2.24209">
        <ele>140</ele>
        <time>2020-12-05T14:43:16.095Z</time>
      </trkpt>
      <trkpt lat="48.79851" lon="2.24209">
        <ele>140</ele>
        <time>2020-12-05T14:43:17.094Z</time>
      </trkpt>
      <trkpt lat="48.79852" lon="2.24209">
        <ele>140</ele>
        <time>2020-12-05T14:43:18.095Z</time>
      </trkpt>
      <trkpt lat="48.79854" lon="2.24209">
        <ele>140</ele>
        <time>2020-12-05T14:43:19.095Z</time>
      </trkpt>
      <trkpt lat="48.79855" lon="2.2421">
        <ele>140</ele>
        <time>2020-12-05T14:43:20.094Z</time>
      </trkpt>
      <trkpt lat="48.79856" lon="2.24211">
        <ele>140</ele>
        <time>2020-12-05T14:43:21.095Z</time>
      </trkpt>
      <trkpt lat="48.79856" lon="2.24211">
        <ele>141</ele>
        <time>2020-12-05T14:43:22.095Z</time>
      </trkpt>
      <trkpt lat="48.79858" lon="2.24211">
        <ele>141</ele>
        <time>2020-12-05T14:43:23.095Z</time>
      </trkpt>
      <trkpt lat="48.79859" lon="2.24211">
        <ele>141</ele>
        <time>2020-12-05T14:43:24.095Z</time>
      </trkpt>
      <trkpt lat="48.7986" lon="2.24211">
        <ele>141</ele>
        <time>2020-12-05T14:43:25.095Z</time>
      </trkpt>
      <trkpt lat="48.79861" lon="2.24212">
        <ele>142</ele>
        <time>2020-12-05T14:43:26.094Z</time>
      </trkpt>
      <trkpt lat="48.79863" lon="2.24212">
        <ele>142</ele>
        <time>2020-12-05T14:43:27.095Z</time>
      </trkpt>
      <trkpt lat="48.79863" lon="2.24211">
        <ele>142</ele>
        <time>2020-12-05T14:43:28.094Z</time>
      </trkpt>
      <trkpt lat="48.79862" lon="2.24211">
        <ele>142</ele>
        <time>2020-12-05T14:43:29.095Z</time>
      </trkpt>
      <trkpt lat="48.79862" lon="2.24211">
        <ele>142</ele>
        <time>2020-12-05T14:43:30.094Z</time>
      </trkpt>
      <trkpt lat="48.79862" lon="2.24211">
        <ele>142</ele>
        <time>2020-12-05T14:43:31.095Z</time>
      </trkpt>
      <trkpt lat="48.79862" lon="2.24211">
        <ele>142</ele>
        <time>2020-12-05T14:43:32.095Z</time>
      </trkpt>
      <trkpt lat="48.7986" lon="2.24211">
        <ele>142</ele>
        <time>2020-12-05T14:43:33.095Z</time>
      </trkpt>
      <trkpt lat="48.79859" lon="2.24211">
        <ele>142</ele>
        <time>2020-12-05T14:43:34.095Z</time>
      </trkpt>
      <trkpt lat="48.79858" lon="2.24211">
        <ele>142</ele>
        <time>2020-12-05T14:43:35.094Z</time>
      </trkpt>
      <trkpt lat="48.79857" lon="2.24212">
        <ele>142</ele>
        <time>2020-12-05T14:43:36.095Z</time>
      </trkpt>
      <trkpt lat="48.79857" lon="2.24211">
        <ele>141</ele>
        <time>2020-12-05T14:43:37.095Z</time>
      </trkpt>
      <trkpt lat="48.79857" lon="2.24211">
        <ele>141</ele>
        <time>2020-12-05T14:43:38.095Z</time>
      </trkpt>
      <trkpt lat="48.79856" lon="2.24211">
        <ele>141</ele>
        <time>2020-12-05T14:43:39.095Z</time>
      </trkpt>
      <trkpt lat="48.79855" lon="2.24211">
        <ele>140</ele>
        <time>2020-12-05T14:43:40.095Z</time>
      </trkpt>
      <trkpt lat="48.79855" lon="2.24211">
        <ele>139</ele>
        <time>2020-12-05T14:43:41.094Z</time>
      </trkpt>
      <trkpt lat="48.79854" lon="2.24211">
        <ele>138</ele>
        <time>2020-12-05T14:43:42.095Z</time>
      </trkpt>
      <trkpt lat="48.79852" lon="2.24211">
        <ele>138</ele>
        <time>2020-12-05T14:43:43.094Z</time>
      </trkpt>
      <trkpt lat="48.79851" lon="2.24211">
        <ele>137</ele>
        <time>2020-12-05T14:43:44.095Z</time>
      </trkpt>
      <trkpt lat="48.79851" lon="2.2421">
        <ele>136</ele>
        <time>2020-12-05T14:43:45.095Z</time>
      </trkpt>
      <trkpt lat="48.79852" lon="2.2421">
        <ele>135</ele>
        <time>2020-12-05T14:43:46.095Z</time>
      </trkpt>
      <trkpt lat="48.79853" lon="2.2421">
        <ele>134</ele>
        <time>2020-12-05T14:43:47.094Z</time>
      </trkpt>
      <trkpt lat="48.79854" lon="2.2421">
        <ele>133</ele>
        <time>2020-12-05T14:43:48.095Z</time>
      </trkpt>
      <trkpt lat="48.79854" lon="2.24211">
        <ele>133</ele>
        <time>2020-12-05T14:43:49.094Z</time>
      </trkpt>
      <trkpt lat="48.79854" lon="2.24211">
        <ele>132</ele>
        <time>2020-12-05T14:43:50.095Z</time>
      </trkpt>
      <trkpt lat="48.79855" lon="2.24212">
        <ele>132</ele>
        <time>2020-12-05T14:43:51.094Z</time>
      </trkpt>
      <trkpt lat="48.79855" lon="2.24212">
        <ele>131</ele>
        <time>2020-12-05T14:43:52.095Z</time>
      </trkpt>
      <trkpt lat="48.79856" lon="2.24211">
        <ele>131</ele>
        <time>2020-12-05T14:43:53.094Z</time>
      </trkpt>
      <trkpt lat="48.79856" lon="2.2421">
        <ele>131</ele>
        <time>2020-12-05T14:43:54.095Z</time>
      </trkpt>
      <trkpt lat="48.79856" lon="2.2421">
        <ele>131</ele>
        <time>2020-12-05T14:43:55.095Z</time>
      </trkpt>
      <trkpt lat="48.79856" lon="2.2421">
        <ele>131</ele>
        <time>2020-12-05T14:43:56.095Z</time>
      </trkpt>
      <trkpt lat="48.79856" lon="2.2421">
        <ele>131</ele>
        <time>2020-12-05T14:43:57.095Z</time>
      </trkpt>
      <trkpt lat="48.79856" lon="2.2421">
        <ele>131</ele>
        <time>2020-12-05T14:43:58.094Z</time>
      </trkpt>
      <trkpt lat="48.79856" lon="2.2421">
        <ele>132</ele>
        <time>2020-12-05T14:43:59.095Z</time>
      </trkpt>
      <trkpt lat="48.79856" lon="2.2421">
        <ele>132</ele>
        <time>2020-12-05T14:44:00.095Z</time>
      </trkpt>
      <trkpt lat="48.79856" lon="2.2421">
        <ele>132</ele>
        <time>2020-12-05T14:44:01.095Z</time>
      </trkpt>
      <trkpt lat="48.79856" lon="2.2421">
        <ele>132</ele>
        <time>2020-12-05T14:44:02.095Z</time>
      </trkpt>
      <trkpt lat="48.79856" lon="2.2421">
        <ele>132</ele>
        <time>2020-12-05T14:44:03.095Z</time>
      </trkpt>
      <trkpt lat="48.79856" lon="2.2421">
        <ele>132</ele>
        <time>2020-12-05T14:44:04.094Z</time>
      </trkpt>
      <trkpt lat="48.79856" lon="2.2421">
        <ele>132</ele>
        <time>2020-12-05T14:44:05.094Z</time>
      </trkpt>
      <trkpt lat="48.79856" lon="2.2421">
        <ele>132</ele>
        <time>2020-12-05T14:44:06.094Z</time>
      </trkpt>
      <trkpt lat="48.79856" lon="2.2421">
        <ele>132</ele>
        <time>2020-12-05T14:44:07.094Z</time>
      </trkpt>
      <trkpt lat="48.79856" lon="2.2421">
        <ele>132</ele>
        <time>2020-12-05T14:44:08.095Z</time>
      </trkpt>
      <trkpt lat="48.79856" lon="2.2421">
        <ele>132</ele>
        <time>2020-12-05T14:44:09.094Z</time>
      </trkpt>
      <trkpt lat="48.79856" lon="2.2421">
        <ele>132</ele>
        <time>2020-12-05T14:44:10.095Z</time>
      </trkpt>
      <trkpt lat="48.79856" lon="2.2421">
        <ele>133</ele>
        <time>2020-12-05T14:44:11.094Z</time>
      </trkpt>
      <trkpt lat="48.79856" lon="2.2421">
        <ele>133</ele>
        <time>2020-12-05T14:44:12.094Z</time>
      </trkpt>
      <trkpt lat="48.79856" lon="2.2421">
        <ele>133</ele>
        <time>2020-12-05T14:44:13.094Z</time>
      </trkpt>
      <trkpt lat="48.79856" lon="2.2421">
        <ele>133</ele>
        <time>2020-12-05T14:44:14.094Z</time>
      </trkpt>
      <trkpt lat="48.79856" lon="2.2421">
        <ele>133</ele>
        <time>2020-12-05T14:44:15.094Z</time>
      </trkpt>
      <trkpt lat="48.79856" lon="2.2421">
        <ele>133</ele>
        <time>2020-12-05T14:44:16.094Z</time>
      </trkpt>
      <trkpt lat="48.79856" lon="2.24209">
        <ele>134</ele>
        <time>2020-12-05T14:44:17.094Z</time>
      </trkpt>
      <trkpt lat="48.79857" lon="2.24209">
        <ele>134</ele>
        <time>2020-12-05T14:44:18.095Z</time>
      </trkpt>
      <trkpt lat="48.79857" lon="2.24209">
        <ele>134</ele>
        <time>2020-12-05T14:44:19.094Z</time>
      </trkpt>
      <trkpt lat="48.79857" lon="2.24209">
        <ele>134</ele>
        <time>2020-12-05T14:44:20.095Z</time>
      </trkpt>
      <trkpt lat="48.79857" lon="2.24209">
        <ele>134</ele>
        <time>2020-12-05T14:44:21.095Z</time>
      </trkpt>
      <trkpt lat="48.79857" lon="2.24209">
        <ele>134</ele>
        <time>2020-12-05T14:44:22.094Z</time>
      </trkpt>
      <trkpt lat="48.79857" lon="2.24209">
        <ele>134</ele>
        <time>2020-12-05T14:44:23.095Z</time>
      </trkpt>
      <trkpt lat="48.79857" lon="2.24209">
        <ele>134</ele>
        <time>2020-12-05T14:44:24.095Z</time>
      </trkpt>
      <trkpt lat="48.79857" lon="2.24209">
        <ele>134</ele>
        <time>2020-12-05T14:44:25.095Z</time>
      </trkpt>
      <trkpt lat="48.79857" lon="2.24209">
        <ele>134</ele>
        <time>2020-12-05T14:44:26.095Z</time>
      </trkpt>
      <trkpt lat="48.79857" lon="2.24209">
        <ele>134</ele>
        <time>2020-12-05T14:44:27.095Z</time>
      </trkpt>
      <trkpt lat="48.79857" lon="2.24209">
        <ele>134</ele>
        <time>2020-12-05T14:44:28.094Z</time>
      </trkpt>
      <trkpt lat="48.79857" lon="2.24209">
        <ele>134</ele>
        <time>2020-12-05T14:44:29.095Z</time>
      </trkpt>
      <trkpt lat="48.79857" lon="2.24209">
        <ele>135</ele>
        <time>2020-12-05T14:44:30.095Z</time>
      </trkpt>
      <trkpt lat="48.79857" lon="2.24209">
        <ele>135</ele>
        <time>2020-12-05T14:44:31.095Z</time>
      </trkpt>
      <trkpt lat="48.79857" lon="2.24209">
        <ele>135</ele>
        <time>2020-12-05T14:44:32.095Z</time>
      </trkpt>
      <trkpt lat="48.79857" lon="2.24209">
        <ele>135</ele>
        <time>2020-12-05T14:44:33.095Z</time>
      </trkpt>
      <trkpt lat="48.79857" lon="2.24209">
        <ele>135</ele>
        <time>2020-12-05T14:44:34.095Z</time>
      </trkpt>
      <trkpt lat="48.79857" lon="2.24209">
        <ele>135</ele>
        <time>2020-12-05T14:44:35.094Z</time>
      </trkpt>
      <trkpt lat="48.79857" lon="2.24209">
        <ele>135</ele>
        <time>2020-12-05T14:44:36.094Z</time>
      </trkpt>
      <trkpt lat="48.79857" lon="2.24209">
        <ele>135</ele>
        <time>2020-12-05T14:44:37.095Z</time>
      </trkpt>
      <trkpt lat="48.79857" lon="2.24209">
        <ele>135</ele>
        <time>2020-12-05T14:44:38.094Z</time>
      </trkpt>
      <trkpt lat="48.79857" lon="2.24209">
        <ele>135</ele>
        <time>2020-12-05T14:44:39.094Z</time>
      </trkpt>
      <trkpt lat="48.79857" lon="2.2421">
        <ele>135</ele>
        <time>2020-12-05T14:44:40.095Z</time>
      </trkpt>
      <trkpt lat="48.79857" lon="2.2421">
        <ele>135</ele>
        <time>2020-12-05T14:44:41.095Z</time>
      </trkpt>
      <trkpt lat="48.79857" lon="2.24211">
        <ele>135</ele>
        <time>2020-12-05T14:44:42.094Z</time>
      </trkpt>
      <trkpt lat="48.79857" lon="2.24212">
        <ele>135</ele>
        <time>2020-12-05T14:44:43.095Z</time>
      </trkpt>
      <trkpt lat="48.79857" lon="2.24212">
        <ele>135</ele>
        <time>2020-12-05T14:44:44.095Z</time>
      </trkpt>
      <trkpt lat="48.79857" lon="2.24212">
        <ele>135</ele>
        <time>2020-12-05T14:44:45.095Z</time>
      </trkpt>
      <trkpt lat="48.79857" lon="2.24212">
        <ele>135</ele>
        <time>2020-12-05T14:44:46.094Z</time>
      </trkpt>
      <trkpt lat="48.79857" lon="2.24212">
        <ele>135</ele>
        <time>2020-12-05T14:44:47.095Z</time>
      </trkpt>
      <trkpt lat="48.79857" lon="2.24212">
        <ele>135</ele>
        <time>2020-12-05T14:44:48.094Z</time>
      </trkpt>
      <trkpt lat="48.79857" lon="2.24212">
        <ele>135</ele>
        <time>2020-12-05T14:44:49.095Z</time>
      </trkpt>
      <trkpt lat="48.79857" lon="2.24212">
        <ele>136</ele>
        <time>2020-12-05T14:44:50.094Z</time>
      </trkpt>
      <trkpt lat="48.79857" lon="2.24212">
        <ele>136</ele>
        <time>2020-12-05T14:44:51.095Z</time>
      </trkpt>
      <trkpt lat="48.79857" lon="2.24212">
        <ele>136</ele>
        <time>2020-12-05T14:44:52.094Z</time>
      </trkpt>
      <trkpt lat="48.79857" lon="2.24212">
        <ele>136</ele>
        <time>2020-12-05T14:44:53.094Z</time>
      </trkpt>
      <trkpt lat="48.79857" lon="2.24212">
        <ele>136</ele>
        <time>2020-12-05T14:44:54.095Z</time>
      </trkpt>
      <trkpt lat="48.79857" lon="2.24212">
        <ele>136</ele>
        <time>2020-12-05T14:44:55.094Z</time>
      </trkpt>
      <trkpt lat="48.79857" lon="2.24212">
        <ele>136</ele>
        <time>2020-12-05T14:44:56.095Z</time>
      </trkpt>
      <trkpt lat="48.79857" lon="2.24212">
        <ele>136</ele>
        <time>2020-12-05T14:44:57.094Z</time>
      </trkpt>
      <trkpt lat="48.79857" lon="2.24212">
        <ele>136</ele>
        <time>2020-12-05T14:44:58.095Z</time>
      </trkpt>
      <trkpt lat="48.79857" lon="2.24212">
        <ele>136</ele>
        <time>2020-12-05T14:44:59.094Z</time>
      </trkpt>
      <trkpt lat="48.79857" lon="2.24212">
        <ele>136</ele>
        <time>2020-12-05T14:45:00.095Z</time>
      </trkpt>
      <trkpt lat="48.79857" lon="2.24212">
        <ele>136</ele>
        <time>2020-12-05T14:45:01.094Z</time>
      </trkpt>
      <trkpt lat="48.79858" lon="2.24212">
        <ele>136</ele>
        <time>2020-12-05T14:45:02.095Z</time>
      </trkpt>
      <trkpt lat="48.79858" lon="2.24212">
        <ele>136</ele>
        <time>2020-12-05T14:45:03.094Z</time>
      </trkpt>
      <trkpt lat="48.79858" lon="2.24212">
        <ele>136</ele>
        <time>2020-12-05T14:45:04.094Z</time>
      </trkpt>
      <trkpt lat="48.79858" lon="2.24212">
        <ele>136</ele>
        <time>2020-12-05T14:45:05.094Z</time>
      </trkpt>
      <trkpt lat="48.79858" lon="2.24212">
        <ele>136</ele>
        <time>2020-12-05T14:45:06.095Z</time>
      </trkpt>
      <trkpt lat="48.79858" lon="2.24212">
        <ele>136</ele>
        <time>2020-12-05T14:45:07.095Z</time>
      </trkpt>
      <trkpt lat="48.79858" lon="2.24212">
        <ele>136</ele>
        <time>2020-12-05T14:45:08.095Z</time>
      </trkpt>
      <trkpt lat="48.79858" lon="2.24212">
        <ele>136</ele>
        <time>2020-12-05T14:45:09.095Z</time>
      </trkpt>
      <trkpt lat="48.79858" lon="2.24212">
        <ele>136</ele>
        <time>2020-12-05T14:45:10.095Z</time>
      </trkpt>
      <trkpt lat="48.79858" lon="2.24212">
        <ele>136</ele>
        <time>2020-12-05T14:45:11.094Z</time>
      </trkpt>
      <trkpt lat="48.79858" lon="2.24212">
        <ele>136</ele>
        <time>2020-12-05T14:45:12.094Z</time>
      </trkpt>
      <trkpt lat="48.79858" lon="2.24212">
        <ele>136</ele>
        <time>2020-12-05T14:45:13.095Z</time>
      </trkpt>
      <trkpt lat="48.79858" lon="2.24212">
        <ele>136</ele>
        <time>2020-12-05T14:45:14.094Z</time>
      </trkpt>
      <trkpt lat="48.79858" lon="2.24212">
        <ele>136</ele>
        <time>2020-12-05T14:45:15.094Z</time>
      </trkpt>
      <trkpt lat="48.79858" lon="2.24213">
        <ele>136</ele>
        <time>2020-12-05T14:45:16.095Z</time>
      </trkpt>
      <trkpt lat="48.79858" lon="2.24213">
        <ele>136</ele>
        <time>2020-12-05T14:45:17.095Z</time>
      </trkpt>
      <trkpt lat="48.79858" lon="2.24214">
        <ele>136</ele>
        <time>2020-12-05T14:45:18.095Z</time>
      </trkpt>
      <trkpt lat="48.79858" lon="2.24215">
        <ele>136</ele>
        <time>2020-12-05T14:45:19.095Z</time>
      </trkpt>
      <trkpt lat="48.79858" lon="2.24215">
        <ele>136</ele>
        <time>2020-12-05T14:45:20.095Z</time>
      </trkpt>
      <trkpt lat="48.79858" lon="2.24215">
        <ele>136</ele>
        <time>2020-12-05T14:45:21.095Z</time>
      </trkpt>
      <trkpt lat="48.79858" lon="2.24215">
        <ele>136</ele>
        <time>2020-12-05T14:45:22.094Z</time>
      </trkpt>
      <trkpt lat="48.79859" lon="2.24215">
        <ele>136</ele>
        <time>2020-12-05T14:45:23.095Z</time>
      </trkpt>
      <trkpt lat="48.79859" lon="2.24215">
        <ele>136</ele>
        <time>2020-12-05T14:45:24.094Z</time>
      </trkpt>
      <trkpt lat="48.79859" lon="2.24215">
        <ele>136</ele>
        <time>2020-12-05T14:45:25.094Z</time>
      </trkpt>
      <trkpt lat="48.79859" lon="2.24215">
        <ele>136</ele>
        <time>2020-12-05T14:45:26.095Z</time>
      </trkpt>
      <trkpt lat="48.7986" lon="2.24215">
        <ele>136</ele>
        <time>2020-12-05T14:45:27.094Z</time>
      </trkpt>
      <trkpt lat="48.7986" lon="2.24216">
        <ele>136</ele>
        <time>2020-12-05T14:45:28.095Z</time>
      </trkpt>
      <trkpt lat="48.7986" lon="2.24216">
        <ele>136</ele>
        <time>2020-12-05T14:45:29.094Z</time>
      </trkpt>
      <trkpt lat="48.7986" lon="2.24216">
        <ele>136</ele>
        <time>2020-12-05T14:45:30.094Z</time>
      </trkpt>
      <trkpt lat="48.7986" lon="2.24216">
        <ele>136</ele>
        <time>2020-12-05T14:45:31.095Z</time>
      </trkpt>
      <trkpt lat="48.7986" lon="2.24216">
        <ele>136</ele>
        <time>2020-12-05T14:45:32.094Z</time>
      </trkpt>
      <trkpt lat="48.79861" lon="2.24216">
        <ele>136</ele>
        <time>2020-12-05T14:45:33.095Z</time>
      </trkpt>
      <trkpt lat="48.79861" lon="2.24216">
        <ele>136</ele>
        <time>2020-12-05T14:45:34.095Z</time>
      </trkpt>
      <trkpt lat="48.79861" lon="2.24216">
        <ele>136</ele>
        <time>2020-12-05T14:45:35.095Z</time>
      </trkpt>
      <trkpt lat="48.79861" lon="2.24216">
        <ele>136</ele>
        <time>2020-12-05T14:45:36.095Z</time>
      </trkpt>
      <trkpt lat="48.79861" lon="2.24216">
        <ele>136</ele>
        <time>2020-12-05T14:45:37.095Z</time>
      </trkpt>
      <trkpt lat="48.79861" lon="2.24216">
        <ele>136</ele>
        <time>2020-12-05T14:45:38.094Z</time>
      </trkpt>
      <trkpt lat="48.79861" lon="2.24216">
        <ele>136</ele>
        <time>2020-12-05T14:45:39.094Z</time>
      </trkpt>
      <trkpt lat="48.79861" lon="2.24216">
        <ele>136</ele>
        <time>2020-12-05T14:45:40.094Z</time>
      </trkpt>
      <trkpt lat="48.79861" lon="2.24216">
        <ele>136</ele>
        <time>2020-12-05T14:45:41.095Z</time>
      </trkpt>
      <trkpt lat="48.79861" lon="2.24216">
        <ele>136</ele>
        <time>2020-12-05T14:45:42.095Z</time>
      </trkpt>
      <trkpt lat="48.79861" lon="2.24216">
        <ele>136</ele>
        <time>2020-12-05T14:45:43.095Z</time>
      </trkpt>
      <trkpt lat="48.79861" lon="2.24216">
        <ele>136</ele>
        <time>2020-12-05T14:45:44.095Z</time>
      </trkpt>
      <trkpt lat="48.79861" lon="2.24216">
        <ele>136</ele>
        <time>2020-12-05T14:45:45.095Z</time>
      </trkpt>
      <trkpt lat="48.79861" lon="2.24216">
        <ele>136</ele>
        <time>2020-12-05T14:45:46.095Z</time>
      </trkpt>
      <trkpt lat="48.79861" lon="2.24216">
        <ele>136</ele>
        <time>2020-12-05T14:45:47.095Z</time>
      </trkpt>
      <trkpt lat="48.79861" lon="2.24216">
        <ele>136</ele>
        <time>2020-12-05T14:45:48.095Z</time>
      </trkpt>
      <trkpt lat="48.79861" lon="2.24217">
        <ele>136</ele>
        <time>2020-12-05T14:45:49.095Z</time>
      </trkpt>
      <trkpt lat="48.79861" lon="2.24217">
        <ele>136</ele>
        <time>2020-12-05T14:45:50.094Z</time>
      </trkpt>
      <trkpt lat="48.79861" lon="2.24217">
        <ele>136</ele>
        <time>2020-12-05T14:45:51.095Z</time>
      </trkpt>
      <trkpt lat="48.79861" lon="2.24217">
        <ele>136</ele>
        <time>2020-12-05T14:45:52.094Z</time>
      </trkpt>
      <trkpt lat="48.79861" lon="2.24217">
        <ele>136</ele>
        <time>2020-12-05T14:45:53.095Z</time>
      </trkpt>
      <trkpt lat="48.79861" lon="2.24217">
        <ele>136</ele>
        <time>2020-12-05T14:45:54.094Z</time>
      </trkpt>
      <trkpt lat="48.79861" lon="2.24217">
        <ele>136</ele>
        <time>2020-12-05T14:45:55.095Z</time>
      </trkpt>
      <trkpt lat="48.79861" lon="2.24217">
        <ele>136</ele>
        <time>2020-12-05T14:45:56.095Z</time>
      </trkpt>
      <trkpt lat="48.7986" lon="2.24218">
        <ele>136</ele>
        <time>2020-12-05T14:45:57.095Z</time>
      </trkpt>
      <trkpt lat="48.79859" lon="2.24218">
        <ele>136</ele>
        <time>2020-12-05T14:45:58.095Z</time>
      </trkpt>
      <trkpt lat="48.79857" lon="2.24218">
        <ele>136</ele>
        <time>2020-12-05T14:45:59.095Z</time>
      </trkpt>
      <trkpt lat="48.79854" lon="2.24219">
        <ele>136</ele>
        <time>2020-12-05T14:46:00.095Z</time>
      </trkpt>
      <trkpt lat="48.79851" lon="2.24218">
        <ele>136</ele>
        <time>2020-12-05T14:46:01.095Z</time>
      </trkpt>
      <trkpt lat="48.79851" lon="2.24217">
        <ele>136</ele>
        <time>2020-12-05T14:46:02.095Z</time>
      </trkpt>
      <trkpt lat="48.79851" lon="2.24217">
        <ele>136</ele>
        <time>2020-12-05T14:46:03.095Z</time>
      </trkpt>
      <trkpt lat="48.7985" lon="2.24217">
        <ele>136</ele>
        <time>2020-12-05T14:46:04.095Z</time>
      </trkpt>
      <trkpt lat="48.79849" lon="2.24218">
        <ele>136</ele>
        <time>2020-12-05T14:46:05.094Z</time>
      </trkpt>
      <trkpt lat="48.79846" lon="2.24217">
        <ele>136</ele>
        <time>2020-12-05T14:46:06.094Z</time>
      </trkpt>
      <trkpt lat="48.79845" lon="2.24217">
        <ele>136</ele>
        <time>2020-12-05T14:46:07.095Z</time>
      </trkpt>
      <trkpt lat="48.79843" lon="2.24217">
        <ele>136</ele>
        <time>2020-12-05T14:46:08.095Z</time>
      </trkpt>
      <trkpt lat="48.79841" lon="2.24217">
        <ele>136</ele>
        <time>2020-12-05T14:46:09.095Z</time>
      </trkpt>
      <trkpt lat="48.7984" lon="2.24216">
        <ele>136</ele>
        <time>2020-12-05T14:46:10.094Z</time>
      </trkpt>
      <trkpt lat="48.79841" lon="2.24219">
        <ele>136</ele>
        <time>2020-12-05T14:46:11.095Z</time>
      </trkpt>
      <trkpt lat="48.79844" lon="2.2422">
        <ele>136</ele>
        <time>2020-12-05T14:46:12.094Z</time>
      </trkpt>
      <trkpt lat="48.79845" lon="2.24221">
        <ele>135</ele>
        <time>2020-12-05T14:46:13.095Z</time>
      </trkpt>
      <trkpt lat="48.79846" lon="2.24222">
        <ele>135</ele>
        <time>2020-12-05T14:46:14.094Z</time>
      </trkpt>
      <trkpt lat="48.79845" lon="2.24222">
        <ele>135</ele>
        <time>2020-12-05T14:46:15.095Z</time>
      </trkpt>
      <trkpt lat="48.79846" lon="2.24221">
        <ele>135</ele>
        <time>2020-12-05T14:46:16.094Z</time>
      </trkpt>
      <trkpt lat="48.79847" lon="2.24221">
        <ele>135</ele>
        <time>2020-12-05T14:46:17.095Z</time>
      </trkpt>
      <trkpt lat="48.79848" lon="2.24222">
        <ele>135</ele>
        <time>2020-12-05T14:46:18.095Z</time>
      </trkpt>
      <trkpt lat="48.79846" lon="2.24224">
        <ele>135</ele>
        <time>2020-12-05T14:46:19.095Z</time>
      </trkpt>
      <trkpt lat="48.79846" lon="2.24226">
        <ele>134</ele>
        <time>2020-12-05T14:46:20.095Z</time>
      </trkpt>
      <trkpt lat="48.79847" lon="2.24224">
        <ele>134</ele>
        <time>2020-12-05T14:46:21.095Z</time>
      </trkpt>
      <trkpt lat="48.79848" lon="2.24223">
        <ele>134</ele>
        <time>2020-12-05T14:46:22.095Z</time>
      </trkpt>
      <trkpt lat="48.79847" lon="2.24223">
        <ele>134</ele>
        <time>2020-12-05T14:46:23.094Z</time>
      </trkpt>
      <trkpt lat="48.79851" lon="2.24222">
        <ele>133</ele>
        <time>2020-12-05T14:46:24.095Z</time>
      </trkpt>
      <trkpt lat="48.79854" lon="2.24221">
        <ele>133</ele>
        <time>2020-12-05T14:46:25.095Z</time>
      </trkpt>
      <trkpt lat="48.79848" lon="2.24221">
        <ele>132</ele>
        <time>2020-12-05T14:46:26.095Z</time>
      </trkpt>
      <trkpt lat="48.79845" lon="2.24221">
        <ele>132</ele>
        <time>2020-12-05T14:46:27.095Z</time>
      </trkpt>
      <trkpt lat="48.79842" lon="2.2422">
        <ele>132</ele>
        <time>2020-12-05T14:46:28.095Z</time>
      </trkpt>
      <trkpt lat="48.79841" lon="2.24222">
        <ele>132</ele>
        <time>2020-12-05T14:46:29.095Z</time>
      </trkpt>
      <trkpt lat="48.79841" lon="2.24222">
        <ele>131</ele>
        <time>2020-12-05T14:46:30.094Z</time>
      </trkpt>
      <trkpt lat="48.79842" lon="2.24223">
        <ele>131</ele>
        <time>2020-12-05T14:46:31.095Z</time>
      </trkpt>
      <trkpt lat="48.79843" lon="2.24223">
        <ele>131</ele>
        <time>2020-12-05T14:46:32.094Z</time>
      </trkpt>
      <trkpt lat="48.79843" lon="2.24223">
        <ele>131</ele>
        <time>2020-12-05T14:46:33.095Z</time>
      </trkpt>
      <trkpt lat="48.79842" lon="2.24224">
        <ele>130</ele>
        <time>2020-12-05T14:46:34.095Z</time>
      </trkpt>
      <trkpt lat="48.79842" lon="2.24224">
        <ele>130</ele>
        <time>2020-12-05T14:46:35.095Z</time>
      </trkpt>
      <trkpt lat="48.79841" lon="2.24224">
        <ele>130</ele>
        <time>2020-12-05T14:46:36.095Z</time>
      </trkpt>
      <trkpt lat="48.79841" lon="2.24224">
        <ele>130</ele>
        <time>2020-12-05T14:46:37.095Z</time>
      </trkpt>
      <trkpt lat="48.79841" lon="2.24224">
        <ele>129</ele>
        <time>2020-12-05T14:46:38.095Z</time>
      </trkpt>
      <trkpt lat="48.7984" lon="2.24224">
        <ele>129</ele>
        <time>2020-12-05T14:46:39.095Z</time>
      </trkpt>
      <trkpt lat="48.7984" lon="2.24224">
        <ele>128</ele>
        <time>2020-12-05T14:46:40.094Z</time>
      </trkpt>
      <trkpt lat="48.79839" lon="2.24225">
        <ele>128</ele>
        <time>2020-12-05T14:46:41.095Z</time>
      </trkpt>
      <trkpt lat="48.79839" lon="2.24225">
        <ele>128</ele>
        <time>2020-12-05T14:46:42.095Z</time>
      </trkpt>
      <trkpt lat="48.79839" lon="2.24226">
        <ele>127</ele>
        <time>2020-12-05T14:46:43.095Z</time>
      </trkpt>
      <trkpt lat="48.79839" lon="2.24226">
        <ele>127</ele>
        <time>2020-12-05T14:46:44.094Z</time>
      </trkpt>
      <trkpt lat="48.79836" lon="2.24226">
        <ele>127</ele>
        <time>2020-12-05T14:46:45.094Z</time>
      </trkpt>
      <trkpt lat="48.79835" lon="2.24225">
        <ele>127</ele>
        <time>2020-12-05T14:46:46.095Z</time>
      </trkpt>
      <trkpt lat="48.79836" lon="2.24224">
        <ele>127</ele>
        <time>2020-12-05T14:46:47.095Z</time>
      </trkpt>
      <trkpt lat="48.79837" lon="2.24224">
        <ele>127</ele>
        <time>2020-12-05T14:46:48.095Z</time>
      </trkpt>
      <trkpt lat="48.79839" lon="2.24223">
        <ele>127</ele>
        <time>2020-12-05T14:46:49.095Z</time>
      </trkpt>
      <trkpt lat="48.7984" lon="2.24221">
        <ele>127</ele>
        <time>2020-12-05T14:46:50.095Z</time>
      </trkpt>
      <trkpt lat="48.79842" lon="2.24221">
        <ele>127</ele>
        <time>2020-12-05T14:46:51.095Z</time>
      </trkpt>
      <trkpt lat="48.79841" lon="2.24223">
        <ele>127</ele>
        <time>2020-12-05T14:46:52.094Z</time>
      </trkpt>
      <trkpt lat="48.79843" lon="2.24224">
        <ele>127</ele>
        <time>2020-12-05T14:46:53.095Z</time>
      </trkpt>
      <trkpt lat="48.79845" lon="2.24224">
        <ele>128</ele>
        <time>2020-12-05T14:46:54.094Z</time>
      </trkpt>
      <trkpt lat="48.79846" lon="2.24224">
        <ele>128</ele>
        <time>2020-12-05T14:46:55.095Z</time>
      </trkpt>
      <trkpt lat="48.79847" lon="2.24223">
        <ele>128</ele>
        <time>2020-12-05T14:46:56.095Z</time>
      </trkpt>
      <trkpt lat="48.79848" lon="2.24222">
        <ele>128</ele>
        <time>2020-12-05T14:46:57.095Z</time>
      </trkpt>
      <trkpt lat="48.7985" lon="2.2422">
        <ele>128</ele>
        <time>2020-12-05T14:46:58.095Z</time>
      </trkpt>
      <trkpt lat="48.79851" lon="2.2422">
        <ele>129</ele>
        <time>2020-12-05T14:46:59.095Z</time>
      </trkpt>
      <trkpt lat="48.79851" lon="2.24219">
        <ele>129</ele>
        <time>2020-12-05T14:47:00.095Z</time>
      </trkpt>
      <trkpt lat="48.7985" lon="2.24218">
        <ele>130</ele>
        <time>2020-12-05T14:47:01.095Z</time>
      </trkpt>
      <trkpt lat="48.79849" lon="2.24217">
        <ele>131</ele>
        <time>2020-12-05T14:47:02.095Z</time>
      </trkpt>
      <trkpt lat="48.79848" lon="2.24218">
        <ele>131</ele>
        <time>2020-12-05T14:47:03.095Z</time>
      </trkpt>
      <trkpt lat="48.79848" lon="2.24218">
        <ele>132</ele>
        <time>2020-12-05T14:47:04.095Z</time>
      </trkpt>
      <trkpt lat="48.79847" lon="2.24218">
        <ele>133</ele>
        <time>2020-12-05T14:47:05.094Z</time>
      </trkpt>
      <trkpt lat="48.79847" lon="2.24218">
        <ele>134</ele>
        <time>2020-12-05T14:47:06.095Z</time>
      </trkpt>
      <trkpt lat="48.79847" lon="2.24219">
        <ele>134</ele>
        <time>2020-12-05T14:47:07.095Z</time>
      </trkpt>
      <trkpt lat="48.79847" lon="2.24219">
        <ele>135</ele>
        <time>2020-12-05T14:47:08.095Z</time>
      </trkpt>
      <trkpt lat="48.79847" lon="2.24219">
        <ele>136</ele>
        <time>2020-12-05T14:47:09.094Z</time>
      </trkpt>
      <trkpt lat="48.79847" lon="2.2422">
        <ele>137</ele>
        <time>2020-12-05T14:47:10.094Z</time>
      </trkpt>
      <trkpt lat="48.79847" lon="2.24221">
        <ele>137</ele>
        <time>2020-12-05T14:47:11.094Z</time>
      </trkpt>
      <trkpt lat="48.79848" lon="2.24221">
        <ele>138</ele>
        <time>2020-12-05T14:47:12.094Z</time>
      </trkpt>
      <trkpt lat="48.7985" lon="2.24221">
        <ele>138</ele>
        <time>2020-12-05T14:47:13.095Z</time>
      </trkpt>
      <trkpt lat="48.79851" lon="2.24221">
        <ele>139</ele>
        <time>2020-12-05T14:47:14.095Z</time>
      </trkpt>
      <trkpt lat="48.79852" lon="2.24221">
        <ele>139</ele>
        <time>2020-12-05T14:47:15.094Z</time>
      </trkpt>
      <trkpt lat="48.79852" lon="2.24221">
        <ele>139</ele>
        <time>2020-12-05T14:47:16.094Z</time>
      </trkpt>
      <trkpt lat="48.79853" lon="2.24221">
        <ele>140</ele>
        <time>2020-12-05T14:47:17.095Z</time>
      </trkpt>
      <trkpt lat="48.79852" lon="2.24221">
        <ele>140</ele>
        <time>2020-12-05T14:47:18.095Z</time>
      </trkpt>
      <trkpt lat="48.79852" lon="2.24221">
        <ele>141</ele>
        <time>2020-12-05T14:47:19.094Z</time>
      </trkpt>
      <trkpt lat="48.79852" lon="2.24221">
        <ele>141</ele>
        <time>2020-12-05T14:47:20.094Z</time>
      </trkpt>
      <trkpt lat="48.79852" lon="2.24221">
        <ele>142</ele>
        <time>2020-12-05T14:47:21.094Z</time>
      </trkpt>
      <trkpt lat="48.79852" lon="2.24221">
        <ele>143</ele>
        <time>2020-12-05T14:47:22.094Z</time>
      </trkpt>
      <trkpt lat="48.79852" lon="2.24221">
        <ele>143</ele>
        <time>2020-12-05T14:47:23.094Z</time>
      </trkpt>
      <trkpt lat="48.79852" lon="2.24221">
        <ele>144</ele>
        <time>2020-12-05T14:47:24.095Z</time>
      </trkpt>
      <trkpt lat="48.79852" lon="2.24221">
        <ele>144</ele>
        <time>2020-12-05T14:47:25.094Z</time>
      </trkpt>
      <trkpt lat="48.79852" lon="2.24223">
        <ele>145</ele>
        <time>2020-12-05T14:47:26.095Z</time>
      </trkpt>
      <trkpt lat="48.79851" lon="2.24225">
        <ele>145</ele>
        <time>2020-12-05T14:47:27.094Z</time>
      </trkpt>
      <trkpt lat="48.79852" lon="2.24226">
        <ele>145</ele>
        <time>2020-12-05T14:47:28.095Z</time>
      </trkpt>
      <trkpt lat="48.79852" lon="2.24226">
        <ele>146</ele>
        <time>2020-12-05T14:47:29.094Z</time>
      </trkpt>
      <trkpt lat="48.79851" lon="2.24227">
        <ele>146</ele>
        <time>2020-12-05T14:47:30.095Z</time>
      </trkpt>
      <trkpt lat="48.79852" lon="2.24226">
        <ele>146</ele>
        <time>2020-12-05T14:47:31.094Z</time>
      </trkpt>
      <trkpt lat="48.79852" lon="2.24225">
        <ele>146</ele>
        <time>2020-12-05T14:47:32.095Z</time>
      </trkpt>
      <trkpt lat="48.79853" lon="2.24225">
        <ele>146</ele>
        <time>2020-12-05T14:47:33.094Z</time>
      </trkpt>
      <trkpt lat="48.79853" lon="2.24225">
        <ele>147</ele>
        <time>2020-12-05T14:47:34.094Z</time>
      </trkpt>
      <trkpt lat="48.79854" lon="2.24224">
        <ele>147</ele>
        <time>2020-12-05T14:47:35.095Z</time>
      </trkpt>
      <trkpt lat="48.79857" lon="2.24224">
        <ele>147</ele>
        <time>2020-12-05T14:47:36.095Z</time>
      </trkpt>
      <trkpt lat="48.79861" lon="2.24223">
        <ele>147</ele>
        <time>2020-12-05T14:47:37.095Z</time>
      </trkpt>
      <trkpt lat="48.79862" lon="2.24222">
        <ele>148</ele>
        <time>2020-12-05T14:47:38.095Z</time>
      </trkpt>
      <trkpt lat="48.79865" lon="2.24221">
        <ele>148</ele>
        <time>2020-12-05T14:47:39.095Z</time>
      </trkpt>
      <trkpt lat="48.79867" lon="2.24219">
        <ele>148</ele>
        <time>2020-12-05T14:47:40.094Z</time>
      </trkpt>
      <trkpt lat="48.79867" lon="2.24218">
        <ele>148</ele>
        <time>2020-12-05T14:47:41.095Z</time>
      </trkpt>
      <trkpt lat="48.79867" lon="2.24217">
        <ele>148</ele>
        <time>2020-12-05T14:47:42.094Z</time>
      </trkpt>
      <trkpt lat="48.79866" lon="2.24216">
        <ele>148</ele>
        <time>2020-12-05T14:47:43.095Z</time>
      </trkpt>
      <trkpt lat="48.79865" lon="2.24214">
        <ele>148</ele>
        <time>2020-12-05T14:47:44.094Z</time>
      </trkpt>
      <trkpt lat="48.79864" lon="2.24214">
        <ele>149</ele>
        <time>2020-12-05T14:47:45.095Z</time>
      </trkpt>
      <trkpt lat="48.79864" lon="2.24213">
        <ele>149</ele>
        <time>2020-12-05T14:47:46.095Z</time>
      </trkpt>
      <trkpt lat="48.79863" lon="2.24213">
        <ele>149</ele>
        <time>2020-12-05T14:47:47.095Z</time>
      </trkpt>
      <trkpt lat="48.79863" lon="2.24214">
        <ele>150</ele>
        <time>2020-12-05T14:47:48.094Z</time>
      </trkpt>
      <trkpt lat="48.79864" lon="2.24212">
        <ele>150</ele>
        <time>2020-12-05T14:47:49.094Z</time>
      </trkpt>
      <trkpt lat="48.79864" lon="2.24212">
        <ele>150</ele>
        <time>2020-12-05T14:47:50.095Z</time>
      </trkpt>
      <trkpt lat="48.79865" lon="2.24212">
        <ele>151</ele>
        <time>2020-12-05T14:47:51.094Z</time>
      </trkpt>
      <trkpt lat="48.79865" lon="2.24212">
        <ele>151</ele>
        <time>2020-12-05T14:47:52.095Z</time>
      </trkpt>
      <trkpt lat="48.79864" lon="2.24212">
        <ele>152</ele>
        <time>2020-12-05T14:47:53.095Z</time>
      </trkpt>
      <trkpt lat="48.79864" lon="2.24213">
        <ele>152</ele>
        <time>2020-12-05T14:47:54.095Z</time>
      </trkpt>
      <trkpt lat="48.79864" lon="2.24213">
        <ele>152</ele>
        <time>2020-12-05T14:47:55.095Z</time>
      </trkpt>
      <trkpt lat="48.79865" lon="2.24213">
        <ele>152</ele>
        <time>2020-12-05T14:47:56.094Z</time>
      </trkpt>
      <trkpt lat="48.79865" lon="2.24212">
        <ele>152</ele>
        <time>2020-12-05T14:47:57.095Z</time>
      </trkpt>
      <trkpt lat="48.79865" lon="2.24212">
        <ele>152</ele>
        <time>2020-12-05T14:47:58.095Z</time>
      </trkpt>
      <trkpt lat="48.79864" lon="2.24213">
        <ele>152</ele>
        <time>2020-12-05T14:47:59.094Z</time>
      </trkpt>
      <trkpt lat="48.79864" lon="2.24214">
        <ele>151</ele>
        <time>2020-12-05T14:48:00.094Z</time>
      </trkpt>
      <trkpt lat="48.79863" lon="2.24214">
        <ele>151</ele>
        <time>2020-12-05T14:48:01.095Z</time>
      </trkpt>
      <trkpt lat="48.79862" lon="2.24214">
        <ele>150</ele>
        <time>2020-12-05T14:48:02.094Z</time>
      </trkpt>
      <trkpt lat="48.79862" lon="2.24214">
        <ele>150</ele>
        <time>2020-12-05T14:48:03.094Z</time>
      </trkpt>
      <trkpt lat="48.79862" lon="2.24214">
        <ele>150</ele>
        <time>2020-12-05T14:48:04.094Z</time>
      </trkpt>
      <trkpt lat="48.79862" lon="2.24214">
        <ele>150</ele>
        <time>2020-12-05T14:48:05.095Z</time>
      </trkpt>
      <trkpt lat="48.79862" lon="2.24214">
        <ele>150</ele>
        <time>2020-12-05T14:48:06.095Z</time>
      </trkpt>
      <trkpt lat="48.79862" lon="2.24214">
        <ele>150</ele>
        <time>2020-12-05T14:48:07.094Z</time>
      </trkpt>
      <trkpt lat="48.79862" lon="2.24214">
        <ele>150</ele>
        <time>2020-12-05T14:48:08.094Z</time>
      </trkpt>
      <trkpt lat="48.79862" lon="2.24214">
        <ele>150</ele>
        <time>2020-12-05T14:48:09.095Z</time>
      </trkpt>
      <trkpt lat="48.79862" lon="2.24214">
        <ele>150</ele>
        <time>2020-12-05T14:48:10.095Z</time>
      </trkpt>
      <trkpt lat="48.79862" lon="2.24214">
        <ele>150</ele>
        <time>2020-12-05T14:48:11.095Z</time>
      </trkpt>
      <trkpt lat="48.79862" lon="2.24214">
        <ele>149</ele>
        <time>2020-12-05T14:48:12.095Z</time>
      </trkpt>
      <trkpt lat="48.79863" lon="2.24214">
        <ele>149</ele>
        <time>2020-12-05T14:48:13.095Z</time>
      </trkpt>
      <trkpt lat="48.79863" lon="2.24214">
        <ele>149</ele>
        <time>2020-12-05T14:48:14.095Z</time>
      </trkpt>
      <trkpt lat="48.79863" lon="2.24214">
        <ele>149</ele>
        <time>2020-12-05T14:48:15.095Z</time>
      </trkpt>
      <trkpt lat="48.79863" lon="2.24214">
        <ele>148</ele>
        <time>2020-12-05T14:48:16.095Z</time>
      </trkpt>
      <trkpt lat="48.79863" lon="2.24214">
        <ele>148</ele>
        <time>2020-12-05T14:48:17.095Z</time>
      </trkpt>
      <trkpt lat="48.79863" lon="2.24214">
        <ele>148</ele>
        <time>2020-12-05T14:48:18.095Z</time>
      </trkpt>
      <trkpt lat="48.79863" lon="2.24214">
        <ele>148</ele>
        <time>2020-12-05T14:48:19.095Z</time>
      </trkpt>
      <trkpt lat="48.79863" lon="2.24214">
        <ele>148</ele>
        <time>2020-12-05T14:48:20.094Z</time>
      </trkpt>
      <trkpt lat="48.79863" lon="2.24215">
        <ele>148</ele>
        <time>2020-12-05T14:48:21.095Z</time>
      </trkpt>
      <trkpt lat="48.79863" lon="2.24216">
        <ele>148</ele>
        <time>2020-12-05T14:48:22.095Z</time>
      </trkpt>
      <trkpt lat="48.79863" lon="2.24216">
        <ele>148</ele>
        <time>2020-12-05T14:48:23.095Z</time>
      </trkpt>
      <trkpt lat="48.79863" lon="2.24216">
        <ele>148</ele>
        <time>2020-12-05T14:48:24.095Z</time>
      </trkpt>
      <trkpt lat="48.79863" lon="2.24216">
        <ele>148</ele>
        <time>2020-12-05T14:48:25.095Z</time>
      </trkpt>
      <trkpt lat="48.79863" lon="2.24216">
        <ele>148</ele>
        <time>2020-12-05T14:48:26.095Z</time>
      </trkpt>
      <trkpt lat="48.79863" lon="2.24216">
        <ele>148</ele>
        <time>2020-12-05T14:48:27.094Z</time>
      </trkpt>
      <trkpt lat="48.79863" lon="2.24216">
        <ele>148</ele>
        <time>2020-12-05T14:48:28.095Z</time>
      </trkpt>
      <trkpt lat="48.79863" lon="2.24217">
        <ele>148</ele>
        <time>2020-12-05T14:48:29.095Z</time>
      </trkpt>
      <trkpt lat="48.79863" lon="2.24217">
        <ele>148</ele>
        <time>2020-12-05T14:48:30.094Z</time>
      </trkpt>
      <trkpt lat="48.79863" lon="2.24217">
        <ele>148</ele>
        <time>2020-12-05T14:48:31.095Z</time>
      </trkpt>
      <trkpt lat="48.79863" lon="2.24217">
        <ele>148</ele>
        <time>2020-12-05T14:48:32.094Z</time>
      </trkpt>
      <trkpt lat="48.79863" lon="2.24217">
        <ele>148</ele>
        <time>2020-12-05T14:48:33.095Z</time>
      </trkpt>
      <trkpt lat="48.79863" lon="2.24217">
        <ele>148</ele>
        <time>2020-12-05T14:48:34.095Z</time>
      </trkpt>
      <trkpt lat="48.79863" lon="2.24217">
        <ele>148</ele>
        <time>2020-12-05T14:48:35.095Z</time>
      </trkpt>
      <trkpt lat="48.79863" lon="2.24217">
        <ele>148</ele>
        <time>2020-12-05T14:48:36.095Z</time>
      </trkpt>
      <trkpt lat="48.79863" lon="2.24217">
        <ele>148</ele>
        <time>2020-12-05T14:48:37.095Z</time>
      </trkpt>
      <trkpt lat="48.79863" lon="2.24217">
        <ele>148</ele>
        <time>2020-12-05T14:48:38.095Z</time>
      </trkpt>
      <trkpt lat="48.79863" lon="2.24217">
        <ele>148</ele>
        <time>2020-12-05T14:48:39.095Z</time>
      </trkpt>
      <trkpt lat="48.79863" lon="2.24217">
        <ele>148</ele>
        <time>2020-12-05T14:48:40.095Z</time>
      </trkpt>
      <trkpt lat="48.79863" lon="2.24218">
        <ele>148</ele>
        <time>2020-12-05T14:48:41.095Z</time>
      </trkpt>
      <trkpt lat="48.79863" lon="2.24218">
        <ele>148</ele>
        <time>2020-12-05T14:48:42.094Z</time>
      </trkpt>
      <trkpt lat="48.79863" lon="2.24218">
        <ele>148</ele>
        <time>2020-12-05T14:48:43.095Z</time>
      </trkpt>
      <trkpt lat="48.79863" lon="2.24218">
        <ele>148</ele>
        <time>2020-12-05T14:48:44.095Z</time>
      </trkpt>
      <trkpt lat="48.79863" lon="2.24218">
        <ele>148</ele>
        <time>2020-12-05T14:48:45.094Z</time>
      </trkpt>
      <trkpt lat="48.79863" lon="2.24218">
        <ele>148</ele>
        <time>2020-12-05T14:48:46.094Z</time>
      </trkpt>
      <trkpt lat="48.79863" lon="2.24218">
        <ele>148</ele>
        <time>2020-12-05T14:48:47.095Z</time>
      </trkpt>
      <trkpt lat="48.79863" lon="2.24218">
        <ele>148</ele>
        <time>2020-12-05T14:48:48.094Z</time>
      </trkpt>
      <trkpt lat="48.79863" lon="2.24218">
        <ele>148</ele>
        <time>2020-12-05T14:48:49.095Z</time>
      </trkpt>
      <trkpt lat="48.79863" lon="2.24218">
        <ele>148</ele>
        <time>2020-12-05T14:48:50.094Z</time>
      </trkpt>
      <trkpt lat="48.79863" lon="2.24218">
        <ele>148</ele>
        <time>2020-12-05T14:48:51.095Z</time>
      </trkpt>
      <trkpt lat="48.79863" lon="2.24218">
        <ele>148</ele>
        <time>2020-12-05T14:48:52.094Z</time>
      </trkpt>
      <trkpt lat="48.79863" lon="2.24218">
        <ele>148</ele>
        <time>2020-12-05T14:48:53.095Z</time>
      </trkpt>
      <trkpt lat="48.79863" lon="2.24218">
        <ele>148</ele>
        <time>2020-12-05T14:48:54.095Z</time>
      </trkpt>
      <trkpt lat="48.79864" lon="2.24218">
        <ele>148</ele>
        <time>2020-12-05T14:48:55.095Z</time>
      </trkpt>
      <trkpt lat="48.79864" lon="2.24218">
        <ele>148</ele>
        <time>2020-12-05T14:48:56.095Z</time>
      </trkpt>
      <trkpt lat="48.79864" lon="2.24218">
        <ele>148</ele>
        <time>2020-12-05T14:48:57.095Z</time>
      </trkpt>
      <trkpt lat="48.79863" lon="2.24218">
        <ele>148</ele>
        <time>2020-12-05T14:48:58.095Z</time>
      </trkpt>
      <trkpt lat="48.79864" lon="2.24217">
        <ele>148</ele>
        <time>2020-12-05T14:48:59.095Z</time>
      </trkpt>
      <trkpt lat="48.79863" lon="2.24216">
        <ele>148</ele>
        <time>2020-12-05T14:49:00.095Z</time>
      </trkpt>
      <trkpt lat="48.79863" lon="2.24215">
        <ele>147</ele>
        <time>2020-12-05T14:49:01.095Z</time>
      </trkpt>
      <trkpt lat="48.79863" lon="2.24214">
        <ele>147</ele>
        <time>2020-12-05T14:49:02.094Z</time>
      </trkpt>
      <trkpt lat="48.79862" lon="2.24214">
        <ele>146</ele>
        <time>2020-12-05T14:49:03.095Z</time>
      </trkpt>
      <trkpt lat="48.79862" lon="2.24214">
        <ele>146</ele>
        <time>2020-12-05T14:49:04.095Z</time>
      </trkpt>
      <trkpt lat="48.79861" lon="2.24215">
        <ele>145</ele>
        <time>2020-12-05T14:49:05.095Z</time>
      </trkpt>
      <trkpt lat="48.79861" lon="2.24215">
        <ele>145</ele>
        <time>2020-12-05T14:49:06.095Z</time>
      </trkpt>
      <trkpt lat="48.79861" lon="2.24216">
        <ele>144</ele>
        <time>2020-12-05T14:49:07.095Z</time>
      </trkpt>
      <trkpt lat="48.7986" lon="2.24216">
        <ele>144</ele>
        <time>2020-12-05T14:49:08.095Z</time>
      </trkpt>
      <trkpt lat="48.7986" lon="2.24216">
        <ele>144</ele>
        <time>2020-12-05T14:49:09.095Z</time>
      </trkpt>
      <trkpt lat="48.79859" lon="2.24216">
        <ele>143</ele>
        <time>2020-12-05T14:49:10.095Z</time>
      </trkpt>
      <trkpt lat="48.79857" lon="2.24217">
        <ele>143</ele>
        <time>2020-12-05T14:49:11.095Z</time>
      </trkpt>
      <trkpt lat="48.79857" lon="2.24217">
        <ele>143</ele>
        <time>2020-12-05T14:49:12.095Z</time>
      </trkpt>
      <trkpt lat="48.79856" lon="2.24217">
        <ele>143</ele>
        <time>2020-12-05T14:49:13.095Z</time>
      </trkpt>
      <trkpt lat="48.79856" lon="2.24217">
        <ele>143</ele>
        <time>2020-12-05T14:49:14.095Z</time>
      </trkpt>
      <trkpt lat="48.79856" lon="2.24218">
        <ele>143</ele>
        <time>2020-12-05T14:49:15.094Z</time>
      </trkpt>
      <trkpt lat="48.79856" lon="2.24219">
        <ele>143</ele>
        <time>2020-12-05T14:49:16.095Z</time>
      </trkpt>
      <trkpt lat="48.79856" lon="2.24219">
        <ele>143</ele>
        <time>2020-12-05T14:49:17.095Z</time>
      </trkpt>
      <trkpt lat="48.79856" lon="2.24219">
        <ele>143</ele>
        <time>2020-12-05T14:49:18.095Z</time>
      </trkpt>
      <trkpt lat="48.79856" lon="2.2422">
        <ele>143</ele>
        <time>2020-12-05T14:49:19.095Z</time>
      </trkpt>
      <trkpt lat="48.79855" lon="2.24221">
        <ele>143</ele>
        <time>2020-12-05T14:49:20.095Z</time>
      </trkpt>
      <trkpt lat="48.79854" lon="2.24221">
        <ele>143</ele>
        <time>2020-12-05T14:49:21.095Z</time>
      </trkpt>
      <trkpt lat="48.79853" lon="2.24222">
        <ele>143</ele>
        <time>2020-12-05T14:49:22.095Z</time>
      </trkpt>
      <trkpt lat="48.79853" lon="2.24222">
        <ele>143</ele>
        <time>2020-12-05T14:49:23.094Z</time>
      </trkpt>
      <trkpt lat="48.79853" lon="2.24221">
        <ele>143</ele>
        <time>2020-12-05T14:49:24.095Z</time>
      </trkpt>
      <trkpt lat="48.79853" lon="2.24221">
        <ele>143</ele>
        <time>2020-12-05T14:49:25.094Z</time>
      </trkpt>
      <trkpt lat="48.79853" lon="2.24221">
        <ele>143</ele>
        <time>2020-12-05T14:49:26.095Z</time>
      </trkpt>
      <trkpt lat="48.79853" lon="2.24222">
        <ele>143</ele>
        <time>2020-12-05T14:49:27.094Z</time>
      </trkpt>
      <trkpt lat="48.79853" lon="2.24222">
        <ele>142</ele>
        <time>2020-12-05T14:49:28.094Z</time>
      </trkpt>
      <trkpt lat="48.79852" lon="2.24223">
        <ele>142</ele>
        <time>2020-12-05T14:49:29.095Z</time>
      </trkpt>
      <trkpt lat="48.79851" lon="2.24224">
        <ele>142</ele>
        <time>2020-12-05T14:49:30.095Z</time>
      </trkpt>
      <trkpt lat="48.7985" lon="2.24224">
        <ele>142</ele>
        <time>2020-12-05T14:49:31.095Z</time>
      </trkpt>
      <trkpt lat="48.7985" lon="2.24224">
        <ele>142</ele>
        <time>2020-12-05T14:49:32.095Z</time>
      </trkpt>
      <trkpt lat="48.7985" lon="2.24224">
        <ele>142</ele>
        <time>2020-12-05T14:49:33.095Z</time>
      </trkpt>
      <trkpt lat="48.79851" lon="2.24223">
        <ele>142</ele>
        <time>2020-12-05T14:49:34.095Z</time>
      </trkpt>
      <trkpt lat="48.79852" lon="2.24222">
        <ele>142</ele>
        <time>2020-12-05T14:49:35.095Z</time>
      </trkpt>
      <trkpt lat="48.79852" lon="2.24222">
        <ele>143</ele>
        <time>2020-12-05T14:49:36.095Z</time>
      </trkpt>
      <trkpt lat="48.79852" lon="2.24222">
        <ele>143</ele>
        <time>2020-12-05T14:49:37.095Z</time>
      </trkpt>
      <trkpt lat="48.79852" lon="2.24222">
        <ele>143</ele>
        <time>2020-12-05T14:49:38.095Z</time>
      </trkpt>
      <trkpt lat="48.79852" lon="2.24222">
        <ele>143</ele>
        <time>2020-12-05T14:49:39.095Z</time>
      </trkpt>
      <trkpt lat="48.79852" lon="2.24222">
        <ele>143</ele>
        <time>2020-12-05T14:49:40.095Z</time>
      </trkpt>
      <trkpt lat="48.79852" lon="2.24222">
        <ele>143</ele>
        <time>2020-12-05T14:49:41.095Z</time>
      </trkpt>
      <trkpt lat="48.79852" lon="2.24222">
        <ele>143</ele>
        <time>2020-12-05T14:49:42.094Z</time>
      </trkpt>
      <trkpt lat="48.79852" lon="2.24222">
        <ele>143</ele>
        <time>2020-12-05T14:49:43.095Z</time>
      </trkpt>
      <trkpt lat="48.79852" lon="2.24222">
        <ele>143</ele>
        <time>2020-12-05T14:49:44.095Z</time>
      </trkpt>
      <trkpt lat="48.79852" lon="2.24222">
        <ele>143</ele>
        <time>2020-12-05T14:49:45.094Z</time>
      </trkpt>
      <trkpt lat="48.79852" lon="2.24222">
        <ele>144</ele>
        <time>2020-12-05T14:49:46.095Z</time>
      </trkpt>
      <trkpt lat="48.79852" lon="2.24222">
        <ele>144</ele>
        <time>2020-12-05T14:49:47.094Z</time>
      </trkpt>
      <trkpt lat="48.79852" lon="2.24222">
        <ele>144</ele>
        <time>2020-12-05T14:49:48.095Z</time>
      </trkpt>
      <trkpt lat="48.79852" lon="2.24222">
        <ele>144</ele>
        <time>2020-12-05T14:49:49.095Z</time>
      </trkpt>
      <trkpt lat="48.79852" lon="2.24222">
        <ele>144</ele>
        <time>2020-12-05T14:49:50.095Z</time>
      </trkpt>
      <trkpt lat="48.79852" lon="2.24222">
        <ele>144</ele>
        <time>2020-12-05T14:49:51.094Z</time>
      </trkpt>
      <trkpt lat="48.79852" lon="2.24221">
        <ele>144</ele>
        <time>2020-12-05T14:49:52.095Z</time>
      </trkpt>
      <trkpt lat="48.79852" lon="2.24221">
        <ele>144</ele>
        <time>2020-12-05T14:49:53.095Z</time>
      </trkpt>
      <trkpt lat="48.79852" lon="2.2422">
        <ele>144</ele>
        <time>2020-12-05T14:49:54.095Z</time>
      </trkpt>
      <trkpt lat="48.79852" lon="2.2422">
        <ele>145</ele>
        <time>2020-12-05T14:49:55.094Z</time>
      </trkpt>
      <trkpt lat="48.79852" lon="2.2422">
        <ele>145</ele>
        <time>2020-12-05T14:49:56.094Z</time>
      </trkpt>
      <trkpt lat="48.79852" lon="2.2422">
        <ele>145</ele>
        <time>2020-12-05T14:49:57.095Z</time>
      </trkpt>
      <trkpt lat="48.79852" lon="2.2422">
        <ele>145</ele>
        <time>2020-12-05T14:49:58.095Z</time>
      </trkpt>
      <trkpt lat="48.79852" lon="2.2422">
        <ele>145</ele>
        <time>2020-12-05T14:49:59.095Z</time>
      </trkpt>
      <trkpt lat="48.79852" lon="2.2422">
        <ele>145</ele>
        <time>2020-12-05T14:50:00.095Z</time>
      </trkpt>
      <trkpt lat="48.79852" lon="2.2422">
        <ele>145</ele>
        <time>2020-12-05T14:50:01.095Z</time>
      </trkpt>
      <trkpt lat="48.79852" lon="2.2422">
        <ele>145</ele>
        <time>2020-12-05T14:50:02.095Z</time>
      </trkpt>
      <trkpt lat="48.79852" lon="2.2422">
        <ele>145</ele>
        <time>2020-12-05T14:50:03.095Z</time>
      </trkpt>
      <trkpt lat="48.79853" lon="2.2422">
        <ele>145</ele>
        <time>2020-12-05T14:50:04.095Z</time>
      </trkpt>
      <trkpt lat="48.79853" lon="2.2422">
        <ele>145</ele>
        <time>2020-12-05T14:50:05.095Z</time>
      </trkpt>
      <trkpt lat="48.79853" lon="2.2422">
        <ele>145</ele>
        <time>2020-12-05T14:50:06.095Z</time>
      </trkpt>
      <trkpt lat="48.79853" lon="2.2422">
        <ele>145</ele>
        <time>2020-12-05T14:50:07.095Z</time>
      </trkpt>
      <trkpt lat="48.79853" lon="2.2422">
        <ele>145</ele>
        <time>2020-12-05T14:50:08.094Z</time>
      </trkpt>
      <trkpt lat="48.79853" lon="2.2422">
        <ele>145</ele>
        <time>2020-12-05T14:50:09.094Z</time>
      </trkpt>
      <trkpt lat="48.79853" lon="2.2422">
        <ele>145</ele>
        <time>2020-12-05T14:50:10.095Z</time>
      </trkpt>
      <trkpt lat="48.79853" lon="2.2422">
        <ele>145</ele>
        <time>2020-12-05T14:50:11.094Z</time>
      </trkpt>
      <trkpt lat="48.79853" lon="2.2422">
        <ele>145</ele>
        <time>2020-12-05T14:50:12.095Z</time>
      </trkpt>
      <trkpt lat="48.79853" lon="2.24221">
        <ele>145</ele>
        <time>2020-12-05T14:50:13.095Z</time>
      </trkpt>
      <trkpt lat="48.79854" lon="2.24221">
        <ele>145</ele>
        <time>2020-12-05T14:50:14.094Z</time>
      </trkpt>
      <trkpt lat="48.79855" lon="2.24221">
        <ele>145</ele>
        <time>2020-12-05T14:50:15.095Z</time>
      </trkpt>
      <trkpt lat="48.79855" lon="2.24221">
        <ele>145</ele>
        <time>2020-12-05T14:50:16.094Z</time>
      </trkpt>
      <trkpt lat="48.79855" lon="2.24221">
        <ele>145</ele>
        <time>2020-12-05T14:50:17.095Z</time>
      </trkpt>
      <trkpt lat="48.79855" lon="2.24221">
        <ele>145</ele>
        <time>2020-12-05T14:50:18.094Z</time>
      </trkpt>
      <trkpt lat="48.79855" lon="2.24221">
        <ele>145</ele>
        <time>2020-12-05T14:50:19.095Z</time>
      </trkpt>
      <trkpt lat="48.79855" lon="2.24221">
        <ele>145</ele>
        <time>2020-12-05T14:50:20.095Z</time>
      </trkpt>
      <trkpt lat="48.79856" lon="2.24221">
        <ele>145</ele>
        <time>2020-12-05T14:50:21.095Z</time>
      </trkpt>
      <trkpt lat="48.79856" lon="2.24221">
        <ele>145</ele>
        <time>2020-12-05T14:50:22.095Z</time>
      </trkpt>
      <trkpt lat="48.79856" lon="2.24221">
        <ele>145</ele>
        <time>2020-12-05T14:50:23.095Z</time>
      </trkpt>
      <trkpt lat="48.79856" lon="2.2422">
        <ele>145</ele>
        <time>2020-12-05T14:50:24.094Z</time>
      </trkpt>
      <trkpt lat="48.79858" lon="2.24218">
        <ele>145</ele>
        <time>2020-12-05T14:50:25.095Z</time>
      </trkpt>
      <trkpt lat="48.79861" lon="2.24217">
        <ele>145</ele>
        <time>2020-12-05T14:50:26.095Z</time>
      </trkpt>
      <trkpt lat="48.79863" lon="2.24216">
        <ele>145</ele>
        <time>2020-12-05T14:50:27.095Z</time>
      </trkpt>
      <trkpt lat="48.79866" lon="2.24215">
        <ele>144</ele>
        <time>2020-12-05T14:50:28.095Z</time>
      </trkpt>
      <trkpt lat="48.79868" lon="2.24214">
        <ele>144</ele>
        <time>2020-12-05T14:50:29.095Z</time>
      </trkpt>
      <trkpt lat="48.79869" lon="2.24213">
        <ele>144</ele>
        <time>2020-12-05T14:50:30.095Z</time>
      </trkpt>
      <trkpt lat="48.79871" lon="2.24213">
        <ele>144</ele>
        <time>2020-12-05T14:50:31.094Z</time>
      </trkpt>
      <trkpt lat="48.79872" lon="2.24213">
        <ele>144</ele>
        <time>2020-12-05T14:50:32.095Z</time>
      </trkpt>
      <trkpt lat="48.79873" lon="2.24212">
        <ele>143</ele>
        <time>2020-12-05T14:50:33.095Z</time>
      </trkpt>
      <trkpt lat="48.79875" lon="2.24212">
        <ele>143</ele>
        <time>2020-12-05T14:50:34.095Z</time>
      </trkpt>
      <trkpt lat="48.79875" lon="2.24212">
        <ele>143</ele>
        <time>2020-12-05T14:50:35.095Z</time>
      </trkpt>
      <trkpt lat="48.79876" lon="2.24212">
        <ele>142</ele>
        <time>2020-12-05T14:50:36.095Z</time>
      </trkpt>
      <trkpt lat="48.79877" lon="2.24212">
        <ele>142</ele>
        <time>2020-12-05T14:50:37.094Z</time>
      </trkpt>
      <trkpt lat="48.79878" lon="2.24212">
        <ele>142</ele>
        <time>2020-12-05T14:50:38.095Z</time>
      </trkpt>
      <trkpt lat="48.79879" lon="2.24212">
        <ele>142</ele>
        <time>2020-12-05T14:50:39.095Z</time>
      </trkpt>
      <trkpt lat="48.79881" lon="2.24212">
        <ele>142</ele>
        <time>2020-12-05T14:50:40.094Z</time>
      </trkpt>
      <trkpt lat="48.79883" lon="2.24213">
        <ele>142</ele>
        <time>2020-12-05T14:50:41.095Z</time>
      </trkpt>
      <trkpt lat="48.79885" lon="2.24214">
        <ele>142</ele>
        <time>2020-12-05T14:50:42.095Z</time>
      </trkpt>
      <trkpt lat="48.79886" lon="2.24215">
        <ele>142</ele>
        <time>2020-12-05T14:50:43.095Z</time>
      </trkpt>
      <trkpt lat="48.79888" lon="2.24216">
        <ele>142</ele>
        <time>2020-12-05T14:50:44.095Z</time>
      </trkpt>
      <trkpt lat="48.79889" lon="2.24216">
        <ele>143</ele>
        <time>2020-12-05T14:50:45.094Z</time>
      </trkpt>
      <trkpt lat="48.7989" lon="2.24216">
        <ele>143</ele>
        <time>2020-12-05T14:50:46.095Z</time>
      </trkpt>
      <trkpt lat="48.79892" lon="2.24216">
        <ele>143</ele>
        <time>2020-12-05T14:50:47.094Z</time>
      </trkpt>
      <trkpt lat="48.79893" lon="2.24215">
        <ele>142</ele>
        <time>2020-12-05T14:50:48.095Z</time>
      </trkpt>
      <trkpt lat="48.79894" lon="2.24214">
        <ele>142</ele>
        <time>2020-12-05T14:50:49.095Z</time>
      </trkpt>
      <trkpt lat="48.79896" lon="2.24213">
        <ele>142</ele>
        <time>2020-12-05T14:50:50.095Z</time>
      </trkpt>
      <trkpt lat="48.79897" lon="2.24212">
        <ele>141</ele>
        <time>2020-12-05T14:50:51.095Z</time>
      </trkpt>
      <trkpt lat="48.79899" lon="2.24212">
        <ele>141</ele>
        <time>2020-12-05T14:50:52.095Z</time>
      </trkpt>
      <trkpt lat="48.79901" lon="2.24212">
        <ele>140</ele>
        <time>2020-12-05T14:50:53.095Z</time>
      </trkpt>
      <trkpt lat="48.79902" lon="2.24211">
        <ele>140</ele>
        <time>2020-12-05T14:50:54.095Z</time>
      </trkpt>
      <trkpt lat="48.79903" lon="2.24211">
        <ele>140</ele>
        <time>2020-12-05T14:50:55.095Z</time>
      </trkpt>
      <trkpt lat="48.79904" lon="2.2421">
        <ele>140</ele>
        <time>2020-12-05T14:50:56.095Z</time>
      </trkpt>
      <trkpt lat="48.79905" lon="2.2421">
        <ele>139</ele>
        <time>2020-12-05T14:50:57.095Z</time>
      </trkpt>
      <trkpt lat="48.79906" lon="2.24209">
        <ele>139</ele>
        <time>2020-12-05T14:50:58.095Z</time>
      </trkpt>
      <trkpt lat="48.79908" lon="2.24209">
        <ele>139</ele>
        <time>2020-12-05T14:50:59.095Z</time>
      </trkpt>
      <trkpt lat="48.79909" lon="2.24208">
        <ele>139</ele>
        <time>2020-12-05T14:51:00.095Z</time>
      </trkpt>
      <trkpt lat="48.79911" lon="2.24207">
        <ele>139</ele>
        <time>2020-12-05T14:51:01.095Z</time>
      </trkpt>
      <trkpt lat="48.79912" lon="2.24206">
        <ele>139</ele>
        <time>2020-12-05T14:51:02.095Z</time>
      </trkpt>
      <trkpt lat="48.79912" lon="2.24205">
        <ele>139</ele>
        <time>2020-12-05T14:51:03.095Z</time>
      </trkpt>
      <trkpt lat="48.79913" lon="2.24205">
        <ele>139</ele>
        <time>2020-12-05T14:51:04.095Z</time>
      </trkpt>
      <trkpt lat="48.79914" lon="2.24204">
        <ele>140</ele>
        <time>2020-12-05T14:51:05.094Z</time>
      </trkpt>
      <trkpt lat="48.79915" lon="2.24203">
        <ele>140</ele>
        <time>2020-12-05T14:51:06.094Z</time>
      </trkpt>
      <trkpt lat="48.79917" lon="2.24202">
        <ele>140</ele>
        <time>2020-12-05T14:51:07.095Z</time>
      </trkpt>
      <trkpt lat="48.7992" lon="2.24201">
        <ele>141</ele>
        <time>2020-12-05T14:51:08.095Z</time>
      </trkpt>
      <trkpt lat="48.79922" lon="2.24199">
        <ele>141</ele>
        <time>2020-12-05T14:51:09.095Z</time>
      </trkpt>
      <trkpt lat="48.79924" lon="2.24198">
        <ele>141</ele>
        <time>2020-12-05T14:51:10.095Z</time>
      </trkpt>
      <trkpt lat="48.79925" lon="2.24197">
        <ele>141</ele>
        <time>2020-12-05T14:51:11.095Z</time>
      </trkpt>
      <trkpt lat="48.79926" lon="2.24196">
        <ele>141</ele>
        <time>2020-12-05T14:51:12.095Z</time>
      </trkpt>
      <trkpt lat="48.79927" lon="2.24196">
        <ele>141</ele>
        <time>2020-12-05T14:51:13.095Z</time>
      </trkpt>
      <trkpt lat="48.79928" lon="2.24196">
        <ele>141</ele>
        <time>2020-12-05T14:51:14.095Z</time>
      </trkpt>
      <trkpt lat="48.79929" lon="2.24196">
        <ele>141</ele>
        <time>2020-12-05T14:51:15.095Z</time>
      </trkpt>
      <trkpt lat="48.7993" lon="2.24196">
        <ele>141</ele>
        <time>2020-12-05T14:51:16.095Z</time>
      </trkpt>
      <trkpt lat="48.79931" lon="2.24196">
        <ele>141</ele>
        <time>2020-12-05T14:51:17.095Z</time>
      </trkpt>
      <trkpt lat="48.79932" lon="2.24195">
        <ele>141</ele>
        <time>2020-12-05T14:51:18.094Z</time>
      </trkpt>
      <trkpt lat="48.79933" lon="2.24195">
        <ele>141</ele>
        <time>2020-12-05T14:51:19.095Z</time>
      </trkpt>
      <trkpt lat="48.79933" lon="2.24195">
        <ele>142</ele>
        <time>2020-12-05T14:51:20.095Z</time>
      </trkpt>
      <trkpt lat="48.79935" lon="2.24194">
        <ele>142</ele>
        <time>2020-12-05T14:51:21.095Z</time>
      </trkpt>
      <trkpt lat="48.79936" lon="2.24194">
        <ele>143</ele>
        <time>2020-12-05T14:51:22.095Z</time>
      </trkpt>
      <trkpt lat="48.79937" lon="2.24193">
        <ele>143</ele>
        <time>2020-12-05T14:51:23.095Z</time>
      </trkpt>
      <trkpt lat="48.79937" lon="2.24193">
        <ele>143</ele>
        <time>2020-12-05T14:51:24.095Z</time>
      </trkpt>
      <trkpt lat="48.79938" lon="2.24193">
        <ele>143</ele>
        <time>2020-12-05T14:51:25.095Z</time>
      </trkpt>
      <trkpt lat="48.7994" lon="2.24192">
        <ele>143</ele>
        <time>2020-12-05T14:51:26.095Z</time>
      </trkpt>
      <trkpt lat="48.79941" lon="2.24191">
        <ele>144</ele>
        <time>2020-12-05T14:51:27.095Z</time>
      </trkpt>
      <trkpt lat="48.79943" lon="2.24191">
        <ele>144</ele>
        <time>2020-12-05T14:51:28.095Z</time>
      </trkpt>
      <trkpt lat="48.79945" lon="2.24191">
        <ele>144</ele>
        <time>2020-12-05T14:51:29.095Z</time>
      </trkpt>
      <trkpt lat="48.79947" lon="2.24191">
        <ele>144</ele>
        <time>2020-12-05T14:51:30.094Z</time>
      </trkpt>
      <trkpt lat="48.79949" lon="2.24192">
        <ele>143</ele>
        <time>2020-12-05T14:51:31.095Z</time>
      </trkpt>
      <trkpt lat="48.79951" lon="2.24192">
        <ele>143</ele>
        <time>2020-12-05T14:51:32.095Z</time>
      </trkpt>
      <trkpt lat="48.79952" lon="2.24192">
        <ele>143</ele>
        <time>2020-12-05T14:51:33.095Z</time>
      </trkpt>
      <trkpt lat="48.79954" lon="2.24191">
        <ele>143</ele>
        <time>2020-12-05T14:51:34.095Z</time>
      </trkpt>
      <trkpt lat="48.79956" lon="2.24191">
        <ele>143</ele>
        <time>2020-12-05T14:51:35.095Z</time>
      </trkpt>
      <trkpt lat="48.79957" lon="2.24191">
        <ele>143</ele>
        <time>2020-12-05T14:51:36.095Z</time>
      </trkpt>
      <trkpt lat="48.79959" lon="2.24191">
        <ele>143</ele>
        <time>2020-12-05T14:51:37.095Z</time>
      </trkpt>
      <trkpt lat="48.7996" lon="2.2419">
        <ele>143</ele>
        <time>2020-12-05T14:51:38.095Z</time>
      </trkpt>
      <trkpt lat="48.79961" lon="2.24189">
        <ele>143</ele>
        <time>2020-12-05T14:51:39.095Z</time>
      </trkpt>
      <trkpt lat="48.79963" lon="2.24189">
        <ele>143</ele>
        <time>2020-12-05T14:51:40.095Z</time>
      </trkpt>
      <trkpt lat="48.79965" lon="2.24188">
        <ele>143</ele>
        <time>2020-12-05T14:51:41.095Z</time>
      </trkpt>
      <trkpt lat="48.79966" lon="2.24188">
        <ele>143</ele>
        <time>2020-12-05T14:51:42.095Z</time>
      </trkpt>
      <trkpt lat="48.79969" lon="2.24189">
        <ele>143</ele>
        <time>2020-12-05T14:51:43.095Z</time>
      </trkpt>
      <trkpt lat="48.79971" lon="2.24191">
        <ele>143</ele>
        <time>2020-12-05T14:51:44.094Z</time>
      </trkpt>
      <trkpt lat="48.79973" lon="2.24192">
        <ele>142</ele>
        <time>2020-12-05T14:51:45.094Z</time>
      </trkpt>
      <trkpt lat="48.79976" lon="2.24192">
        <ele>142</ele>
        <time>2020-12-05T14:51:46.095Z</time>
      </trkpt>
      <trkpt lat="48.79977" lon="2.24191">
        <ele>142</ele>
        <time>2020-12-05T14:51:47.095Z</time>
      </trkpt>
      <trkpt lat="48.79978" lon="2.2419">
        <ele>142</ele>
        <time>2020-12-05T14:51:48.094Z</time>
      </trkpt>
      <trkpt lat="48.79979" lon="2.2419">
        <ele>141</ele>
        <time>2020-12-05T14:51:49.095Z</time>
      </trkpt>
      <trkpt lat="48.7998" lon="2.24189">
        <ele>141</ele>
        <time>2020-12-05T14:51:50.095Z</time>
      </trkpt>
      <trkpt lat="48.7998" lon="2.24189">
        <ele>141</ele>
        <time>2020-12-05T14:51:51.095Z</time>
      </trkpt>
      <trkpt lat="48.79981" lon="2.2419">
        <ele>141</ele>
        <time>2020-12-05T14:51:52.094Z</time>
      </trkpt>
      <trkpt lat="48.79981" lon="2.2419">
        <ele>141</ele>
        <time>2020-12-05T14:51:53.094Z</time>
      </trkpt>
      <trkpt lat="48.79982" lon="2.2419">
        <ele>141</ele>
        <time>2020-12-05T14:51:54.094Z</time>
      </trkpt>
      <trkpt lat="48.79982" lon="2.2419">
        <ele>140</ele>
        <time>2020-12-05T14:51:55.095Z</time>
      </trkpt>
      <trkpt lat="48.79982" lon="2.2419">
        <ele>140</ele>
        <time>2020-12-05T14:51:56.095Z</time>
      </trkpt>
      <trkpt lat="48.79982" lon="2.2419">
        <ele>140</ele>
        <time>2020-12-05T14:51:57.095Z</time>
      </trkpt>
      <trkpt lat="48.79982" lon="2.2419">
        <ele>140</ele>
        <time>2020-12-05T14:51:58.095Z</time>
      </trkpt>
      <trkpt lat="48.79983" lon="2.2419">
        <ele>139</ele>
        <time>2020-12-05T14:51:59.095Z</time>
      </trkpt>
      <trkpt lat="48.79984" lon="2.2419">
        <ele>139</ele>
        <time>2020-12-05T14:52:00.095Z</time>
      </trkpt>
      <trkpt lat="48.79985" lon="2.2419">
        <ele>139</ele>
        <time>2020-12-05T14:52:01.095Z</time>
      </trkpt>
      <trkpt lat="48.79987" lon="2.2419">
        <ele>139</ele>
        <time>2020-12-05T14:52:02.094Z</time>
      </trkpt>
      <trkpt lat="48.79987" lon="2.2419">
        <ele>138</ele>
        <time>2020-12-05T14:52:03.094Z</time>
      </trkpt>
      <trkpt lat="48.79988" lon="2.2419">
        <ele>138</ele>
        <time>2020-12-05T14:52:04.094Z</time>
      </trkpt>
      <trkpt lat="48.79988" lon="2.2419">
        <ele>138</ele>
        <time>2020-12-05T14:52:05.095Z</time>
      </trkpt>
      <trkpt lat="48.79989" lon="2.2419">
        <ele>138</ele>
        <time>2020-12-05T14:52:06.095Z</time>
      </trkpt>
      <trkpt lat="48.7999" lon="2.24191">
        <ele>138</ele>
        <time>2020-12-05T14:52:07.095Z</time>
      </trkpt>
      <trkpt lat="48.79991" lon="2.24192">
        <ele>138</ele>
        <time>2020-12-05T14:52:08.095Z</time>
      </trkpt>
      <trkpt lat="48.79992" lon="2.24193">
        <ele>138</ele>
        <time>2020-12-05T14:52:09.095Z</time>
      </trkpt>
      <trkpt lat="48.79993" lon="2.24194">
        <ele>138</ele>
        <time>2020-12-05T14:52:10.095Z</time>
      </trkpt>
      <trkpt lat="48.79993" lon="2.24195">
        <ele>138</ele>
        <time>2020-12-05T14:52:11.095Z</time>
      </trkpt>
      <trkpt lat="48.79994" lon="2.24196">
        <ele>138</ele>
        <time>2020-12-05T14:52:12.094Z</time>
      </trkpt>
      <trkpt lat="48.79993" lon="2.24198">
        <ele>138</ele>
        <time>2020-12-05T14:52:13.094Z</time>
      </trkpt>
      <trkpt lat="48.79992" lon="2.24199">
        <ele>138</ele>
        <time>2020-12-05T14:52:14.094Z</time>
      </trkpt>
      <trkpt lat="48.79991" lon="2.242">
        <ele>138</ele>
        <time>2020-12-05T14:52:15.094Z</time>
      </trkpt>
      <trkpt lat="48.79992" lon="2.242">
        <ele>138</ele>
        <time>2020-12-05T14:52:16.094Z</time>
      </trkpt>
      <trkpt lat="48.79992" lon="2.24201">
        <ele>138</ele>
        <time>2020-12-05T14:52:17.094Z</time>
      </trkpt>
      <trkpt lat="48.79992" lon="2.242">
        <ele>139</ele>
        <time>2020-12-05T14:52:18.094Z</time>
      </trkpt>
      <trkpt lat="48.79993" lon="2.24201">
        <ele>139</ele>
        <time>2020-12-05T14:52:19.094Z</time>
      </trkpt>
      <trkpt lat="48.79993" lon="2.24201">
        <ele>140</ele>
        <time>2020-12-05T14:52:20.094Z</time>
      </trkpt>
      <trkpt lat="48.79993" lon="2.24202">
        <ele>140</ele>
        <time>2020-12-05T14:52:21.094Z</time>
      </trkpt>
      <trkpt lat="48.79993" lon="2.24201">
        <ele>140</ele>
        <time>2020-12-05T14:52:22.094Z</time>
      </trkpt>
      <trkpt lat="48.79994" lon="2.24201">
        <ele>140</ele>
        <time>2020-12-05T14:52:23.095Z</time>
      </trkpt>
      <trkpt lat="48.79994" lon="2.24201">
        <ele>140</ele>
        <time>2020-12-05T14:52:24.094Z</time>
      </trkpt>
      <trkpt lat="48.79995" lon="2.24201">
        <ele>141</ele>
        <time>2020-12-05T14:52:25.094Z</time>
      </trkpt>
      <trkpt lat="48.79995" lon="2.24202">
        <ele>141</ele>
        <time>2020-12-05T14:52:26.094Z</time>
      </trkpt>
      <trkpt lat="48.79995" lon="2.24203">
        <ele>141</ele>
        <time>2020-12-05T14:52:27.095Z</time>
      </trkpt>
      <trkpt lat="48.79996" lon="2.24204">
        <ele>141</ele>
        <time>2020-12-05T14:52:28.094Z</time>
      </trkpt>
      <trkpt lat="48.79996" lon="2.24204">
        <ele>141</ele>
        <time>2020-12-05T14:52:29.094Z</time>
      </trkpt>
      <trkpt lat="48.79997" lon="2.24206">
        <ele>141</ele>
        <time>2020-12-05T14:52:30.094Z</time>
      </trkpt>
      <trkpt lat="48.79998" lon="2.24207">
        <ele>141</ele>
        <time>2020-12-05T14:52:31.095Z</time>
      </trkpt>
      <trkpt lat="48.79998" lon="2.24208">
        <ele>141</ele>
        <time>2020-12-05T14:52:32.095Z</time>
      </trkpt>
      <trkpt lat="48.79998" lon="2.2421">
        <ele>141</ele>
        <time>2020-12-05T14:52:33.095Z</time>
      </trkpt>
      <trkpt lat="48.79999" lon="2.24212">
        <ele>141</ele>
        <time>2020-12-05T14:52:34.095Z</time>
      </trkpt>
      <trkpt lat="48.8" lon="2.24214">
        <ele>141</ele>
        <time>2020-12-05T14:52:35.094Z</time>
      </trkpt>
      <trkpt lat="48.8" lon="2.24216">
        <ele>141</ele>
        <time>2020-12-05T14:52:36.094Z</time>
      </trkpt>
      <trkpt lat="48.80001" lon="2.24218">
        <ele>141</ele>
        <time>2020-12-05T14:52:37.094Z</time>
      </trkpt>
      <trkpt lat="48.80001" lon="2.2422">
        <ele>140</ele>
        <time>2020-12-05T14:52:38.094Z</time>
      </trkpt>
      <trkpt lat="48.80002" lon="2.24222">
        <ele>140</ele>
        <time>2020-12-05T14:52:39.094Z</time>
      </trkpt>
      <trkpt lat="48.80003" lon="2.24224">
        <ele>140</ele>
        <time>2020-12-05T14:52:40.094Z</time>
      </trkpt>
      <trkpt lat="48.80003" lon="2.24225">
        <ele>140</ele>
        <time>2020-12-05T14:52:41.095Z</time>
      </trkpt>
      <trkpt lat="48.80003" lon="2.24227">
        <ele>140</ele>
        <time>2020-12-05T14:52:42.095Z</time>
      </trkpt>
      <trkpt lat="48.80004" lon="2.24229">
        <ele>140</ele>
        <time>2020-12-05T14:52:43.095Z</time>
      </trkpt>
      <trkpt lat="48.80005" lon="2.2423">
        <ele>140</ele>
        <time>2020-12-05T14:52:44.095Z</time>
      </trkpt>
      <trkpt lat="48.80006" lon="2.24232">
        <ele>140</ele>
        <time>2020-12-05T14:52:45.094Z</time>
      </trkpt>
      <trkpt lat="48.80006" lon="2.24235">
        <ele>141</ele>
        <time>2020-12-05T14:52:46.094Z</time>
      </trkpt>
      <trkpt lat="48.80007" lon="2.24236">
        <ele>141</ele>
        <time>2020-12-05T14:52:47.095Z</time>
      </trkpt>
      <trkpt lat="48.80008" lon="2.24238">
        <ele>141</ele>
        <time>2020-12-05T14:52:48.095Z</time>
      </trkpt>
      <trkpt lat="48.80009" lon="2.24239">
        <ele>141</ele>
        <time>2020-12-05T14:52:49.095Z</time>
      </trkpt>
      <trkpt lat="48.8001" lon="2.24241">
        <ele>142</ele>
        <time>2020-12-05T14:52:50.095Z</time>
      </trkpt>
      <trkpt lat="48.80011" lon="2.24242">
        <ele>142</ele>
        <time>2020-12-05T14:52:51.095Z</time>
      </trkpt>
      <trkpt lat="48.80012" lon="2.24244">
        <ele>143</ele>
        <time>2020-12-05T14:52:52.095Z</time>
      </trkpt>
      <trkpt lat="48.80013" lon="2.24246">
        <ele>143</ele>
        <time>2020-12-05T14:52:53.095Z</time>
      </trkpt>
      <trkpt lat="48.80014" lon="2.24248">
        <ele>143</ele>
        <time>2020-12-05T14:52:54.095Z</time>
      </trkpt>
      <trkpt lat="48.80015" lon="2.24248">
        <ele>143</ele>
        <time>2020-12-05T14:52:55.095Z</time>
      </trkpt>
      <trkpt lat="48.80016" lon="2.24249">
        <ele>144</ele>
        <time>2020-12-05T14:52:56.095Z</time>
      </trkpt>
      <trkpt lat="48.80017" lon="2.24252">
        <ele>144</ele>
        <time>2020-12-05T14:52:57.095Z</time>
      </trkpt>
      <trkpt lat="48.80019" lon="2.24253">
        <ele>144</ele>
        <time>2020-12-05T14:52:58.095Z</time>
      </trkpt>
      <trkpt lat="48.8002" lon="2.24255">
        <ele>144</ele>
        <time>2020-12-05T14:52:59.095Z</time>
      </trkpt>
      <trkpt lat="48.80021" lon="2.24257">
        <ele>144</ele>
        <time>2020-12-05T14:53:00.094Z</time>
      </trkpt>
      <trkpt lat="48.80022" lon="2.24259">
        <ele>144</ele>
        <time>2020-12-05T14:53:01.094Z</time>
      </trkpt>
      <trkpt lat="48.80022" lon="2.24261">
        <ele>144</ele>
        <time>2020-12-05T14:53:02.094Z</time>
      </trkpt>
      <trkpt lat="48.80023" lon="2.24262">
        <ele>144</ele>
        <time>2020-12-05T14:53:03.095Z</time>
      </trkpt>
      <trkpt lat="48.80023" lon="2.24262">
        <ele>145</ele>
        <time>2020-12-05T14:53:04.095Z</time>
      </trkpt>
      <trkpt lat="48.80024" lon="2.24263">
        <ele>145</ele>
        <time>2020-12-05T14:53:05.094Z</time>
      </trkpt>
      <trkpt lat="48.80024" lon="2.24263">
        <ele>145</ele>
        <time>2020-12-05T14:53:06.095Z</time>
      </trkpt>
      <trkpt lat="48.80025" lon="2.24264">
        <ele>145</ele>
        <time>2020-12-05T14:53:07.095Z</time>
      </trkpt>
      <trkpt lat="48.80026" lon="2.24264">
        <ele>145</ele>
        <time>2020-12-05T14:53:08.094Z</time>
      </trkpt>
      <trkpt lat="48.80026" lon="2.24264">
        <ele>145</ele>
        <time>2020-12-05T14:53:09.095Z</time>
      </trkpt>
      <trkpt lat="48.80027" lon="2.24264">
        <ele>145</ele>
        <time>2020-12-05T14:53:10.095Z</time>
      </trkpt>
      <trkpt lat="48.80028" lon="2.24264">
        <ele>145</ele>
        <time>2020-12-05T14:53:11.094Z</time>
      </trkpt>
      <trkpt lat="48.80028" lon="2.24264">
        <ele>144</ele>
        <time>2020-12-05T14:53:12.095Z</time>
      </trkpt>
      <trkpt lat="48.80027" lon="2.24265">
        <ele>144</ele>
        <time>2020-12-05T14:53:13.095Z</time>
      </trkpt>
      <trkpt lat="48.80027" lon="2.24265">
        <ele>145</ele>
        <time>2020-12-05T14:53:14.094Z</time>
      </trkpt>
      <trkpt lat="48.80026" lon="2.24263">
        <ele>145</ele>
        <time>2020-12-05T14:53:15.095Z</time>
      </trkpt>
      <trkpt lat="48.80025" lon="2.24262">
        <ele>145</ele>
        <time>2020-12-05T14:53:16.095Z</time>
      </trkpt>
      <trkpt lat="48.80024" lon="2.24263">
        <ele>145</ele>
        <time>2020-12-05T14:53:17.094Z</time>
      </trkpt>
      <trkpt lat="48.80023" lon="2.24264">
        <ele>145</ele>
        <time>2020-12-05T14:53:18.094Z</time>
      </trkpt>
      <trkpt lat="48.80023" lon="2.24266">
        <ele>145</ele>
        <time>2020-12-05T14:53:19.095Z</time>
      </trkpt>
      <trkpt lat="48.80024" lon="2.24267">
        <ele>146</ele>
        <time>2020-12-05T14:53:20.095Z</time>
      </trkpt>
      <trkpt lat="48.80025" lon="2.24267">
        <ele>146</ele>
        <time>2020-12-05T14:53:21.095Z</time>
      </trkpt>
      <trkpt lat="48.80026" lon="2.24269">
        <ele>146</ele>
        <time>2020-12-05T14:53:22.095Z</time>
      </trkpt>
      <trkpt lat="48.80026" lon="2.2427">
        <ele>147</ele>
        <time>2020-12-05T14:53:23.095Z</time>
      </trkpt>
      <trkpt lat="48.80026" lon="2.24272">
        <ele>147</ele>
        <time>2020-12-05T14:53:24.095Z</time>
      </trkpt>
      <trkpt lat="48.80026" lon="2.24274">
        <ele>147</ele>
        <time>2020-12-05T14:53:25.095Z</time>
      </trkpt>
      <trkpt lat="48.80026" lon="2.24276">
        <ele>147</ele>
        <time>2020-12-05T14:53:26.095Z</time>
      </trkpt>
      <trkpt lat="48.80026" lon="2.24277">
        <ele>147</ele>
        <time>2020-12-05T14:53:27.094Z</time>
      </trkpt>
      <trkpt lat="48.80025" lon="2.24278">
        <ele>148</ele>
        <time>2020-12-05T14:53:28.095Z</time>
      </trkpt>
      <trkpt lat="48.80025" lon="2.24279">
        <ele>148</ele>
        <time>2020-12-05T14:53:29.094Z</time>
      </trkpt>
      <trkpt lat="48.80024" lon="2.2428">
        <ele>149</ele>
        <time>2020-12-05T14:53:30.095Z</time>
      </trkpt>
      <trkpt lat="48.80023" lon="2.24282">
        <ele>149</ele>
        <time>2020-12-05T14:53:31.094Z</time>
      </trkpt>
      <trkpt lat="48.80023" lon="2.24283">
        <ele>149</ele>
        <time>2020-12-05T14:53:32.094Z</time>
      </trkpt>
      <trkpt lat="48.80023" lon="2.24284">
        <ele>149</ele>
        <time>2020-12-05T14:53:33.095Z</time>
      </trkpt>
      <trkpt lat="48.80024" lon="2.24286">
        <ele>149</ele>
        <time>2020-12-05T14:53:34.094Z</time>
      </trkpt>
      <trkpt lat="48.80024" lon="2.2429">
        <ele>149</ele>
        <time>2020-12-05T14:53:35.095Z</time>
      </trkpt>
      <trkpt lat="48.80024" lon="2.24293">
        <ele>149</ele>
        <time>2020-12-05T14:53:36.095Z</time>
      </trkpt>
      <trkpt lat="48.80024" lon="2.24296">
        <ele>149</ele>
        <time>2020-12-05T14:53:37.095Z</time>
      </trkpt>
      <trkpt lat="48.80024" lon="2.24298">
        <ele>149</ele>
        <time>2020-12-05T14:53:38.095Z</time>
      </trkpt>
      <trkpt lat="48.80024" lon="2.243">
        <ele>149</ele>
        <time>2020-12-05T14:53:39.095Z</time>
      </trkpt>
      <trkpt lat="48.80024" lon="2.24301">
        <ele>150</ele>
        <time>2020-12-05T14:53:40.095Z</time>
      </trkpt>
      <trkpt lat="48.80025" lon="2.24302">
        <ele>150</ele>
        <time>2020-12-05T14:53:41.095Z</time>
      </trkpt>
      <trkpt lat="48.80025" lon="2.24304">
        <ele>150</ele>
        <time>2020-12-05T14:53:42.095Z</time>
      </trkpt>
      <trkpt lat="48.80025" lon="2.24306">
        <ele>150</ele>
        <time>2020-12-05T14:53:43.095Z</time>
      </trkpt>
      <trkpt lat="48.80025" lon="2.24308">
        <ele>150</ele>
        <time>2020-12-05T14:53:44.095Z</time>
      </trkpt>
      <trkpt lat="48.80025" lon="2.2431">
        <ele>150</ele>
        <time>2020-12-05T14:53:45.095Z</time>
      </trkpt>
      <trkpt lat="48.80024" lon="2.24312">
        <ele>149</ele>
        <time>2020-12-05T14:53:46.094Z</time>
      </trkpt>
      <trkpt lat="48.80024" lon="2.24313">
        <ele>149</ele>
        <time>2020-12-05T14:53:47.095Z</time>
      </trkpt>
      <trkpt lat="48.80024" lon="2.24314">
        <ele>149</ele>
        <time>2020-12-05T14:53:48.094Z</time>
      </trkpt>
      <trkpt lat="48.80023" lon="2.24315">
        <ele>148</ele>
        <time>2020-12-05T14:53:49.095Z</time>
      </trkpt>
      <trkpt lat="48.80023" lon="2.24316">
        <ele>148</ele>
        <time>2020-12-05T14:53:50.094Z</time>
      </trkpt>
      <trkpt lat="48.80023" lon="2.24317">
        <ele>148</ele>
        <time>2020-12-05T14:53:51.095Z</time>
      </trkpt>
      <trkpt lat="48.80024" lon="2.24318">
        <ele>147</ele>
        <time>2020-12-05T14:53:52.095Z</time>
      </trkpt>
      <trkpt lat="48.80025" lon="2.24318">
        <ele>147</ele>
        <time>2020-12-05T14:53:53.094Z</time>
      </trkpt>
      <trkpt lat="48.80026" lon="2.24319">
        <ele>147</ele>
        <time>2020-12-05T14:53:54.095Z</time>
      </trkpt>
      <trkpt lat="48.80027" lon="2.24319">
        <ele>147</ele>
        <time>2020-12-05T14:53:55.095Z</time>
      </trkpt>
      <trkpt lat="48.80028" lon="2.24319">
        <ele>147</ele>
        <time>2020-12-05T14:53:56.095Z</time>
      </trkpt>
      <trkpt lat="48.80028" lon="2.2432">
        <ele>147</ele>
        <time>2020-12-05T14:53:57.095Z</time>
      </trkpt>
      <trkpt lat="48.80029" lon="2.2432">
        <ele>147</ele>
        <time>2020-12-05T14:53:58.095Z</time>
      </trkpt>
      <trkpt lat="48.8003" lon="2.2432">
        <ele>147</ele>
        <time>2020-12-05T14:53:59.095Z</time>
      </trkpt>
      <trkpt lat="48.80031" lon="2.24321">
        <ele>147</ele>
        <time>2020-12-05T14:54:00.095Z</time>
      </trkpt>
      <trkpt lat="48.80031" lon="2.24321">
        <ele>147</ele>
        <time>2020-12-05T14:54:01.095Z</time>
      </trkpt>
      <trkpt lat="48.80031" lon="2.24321">
        <ele>147</ele>
        <time>2020-12-05T14:54:02.095Z</time>
      </trkpt>
      <trkpt lat="48.80031" lon="2.24322">
        <ele>147</ele>
        <time>2020-12-05T14:54:03.094Z</time>
      </trkpt>
      <trkpt lat="48.80032" lon="2.24323">
        <ele>147</ele>
        <time>2020-12-05T14:54:04.095Z</time>
      </trkpt>
      <trkpt lat="48.80033" lon="2.24324">
        <ele>148</ele>
        <time>2020-12-05T14:54:05.095Z</time>
      </trkpt>
      <trkpt lat="48.80035" lon="2.24325">
        <ele>148</ele>
        <time>2020-12-05T14:54:06.094Z</time>
      </trkpt>
      <trkpt lat="48.80037" lon="2.24326">
        <ele>148</ele>
        <time>2020-12-05T14:54:07.095Z</time>
      </trkpt>
      <trkpt lat="48.80039" lon="2.24329">
        <ele>148</ele>
        <time>2020-12-05T14:54:08.095Z</time>
      </trkpt>
      <trkpt lat="48.8004" lon="2.24331">
        <ele>148</ele>
        <time>2020-12-05T14:54:09.095Z</time>
      </trkpt>
      <trkpt lat="48.80042" lon="2.24332">
        <ele>148</ele>
        <time>2020-12-05T14:54:10.095Z</time>
      </trkpt>
      <trkpt lat="48.80043" lon="2.24333">
        <ele>148</ele>
        <time>2020-12-05T14:54:11.095Z</time>
      </trkpt>
      <trkpt lat="48.80043" lon="2.24333">
        <ele>148</ele>
        <time>2020-12-05T14:54:12.095Z</time>
      </trkpt>
      <trkpt lat="48.80043" lon="2.24333">
        <ele>148</ele>
        <time>2020-12-05T14:54:13.095Z</time>
      </trkpt>
      <trkpt lat="48.80044" lon="2.24333">
        <ele>148</ele>
        <time>2020-12-05T14:54:14.095Z</time>
      </trkpt>
      <trkpt lat="48.80045" lon="2.24333">
        <ele>148</ele>
        <time>2020-12-05T14:54:15.095Z</time>
      </trkpt>
      <trkpt lat="48.80045" lon="2.24334">
        <ele>148</ele>
        <time>2020-12-05T14:54:16.095Z</time>
      </trkpt>
      <trkpt lat="48.80046" lon="2.24334">
        <ele>148</ele>
        <time>2020-12-05T14:54:17.095Z</time>
      </trkpt>
      <trkpt lat="48.80048" lon="2.24334">
        <ele>148</ele>
        <time>2020-12-05T14:54:18.095Z</time>
      </trkpt>
      <trkpt lat="48.80049" lon="2.24334">
        <ele>147</ele>
        <time>2020-12-05T14:54:19.095Z</time>
      </trkpt>
      <trkpt lat="48.8005" lon="2.24334">
        <ele>147</ele>
        <time>2020-12-05T14:54:20.094Z</time>
      </trkpt>
      <trkpt lat="48.80052" lon="2.24334">
        <ele>147</ele>
        <time>2020-12-05T14:54:21.095Z</time>
      </trkpt>
      <trkpt lat="48.80053" lon="2.24334">
        <ele>146</ele>
        <time>2020-12-05T14:54:22.094Z</time>
      </trkpt>
      <trkpt lat="48.80054" lon="2.24334">
        <ele>146</ele>
        <time>2020-12-05T14:54:23.094Z</time>
      </trkpt>
      <trkpt lat="48.80055" lon="2.24335">
        <ele>146</ele>
        <time>2020-12-05T14:54:24.095Z</time>
      </trkpt>
      <trkpt lat="48.80056" lon="2.24335">
        <ele>146</ele>
        <time>2020-12-05T14:54:25.095Z</time>
      </trkpt>
      <trkpt lat="48.80058" lon="2.24335">
        <ele>146</ele>
        <time>2020-12-05T14:54:26.094Z</time>
      </trkpt>
      <trkpt lat="48.80059" lon="2.24336">
        <ele>146</ele>
        <time>2020-12-05T14:54:27.095Z</time>
      </trkpt>
      <trkpt lat="48.8006" lon="2.24336">
        <ele>146</ele>
        <time>2020-12-05T14:54:28.094Z</time>
      </trkpt>
      <trkpt lat="48.8006" lon="2.24337">
        <ele>146</ele>
        <time>2020-12-05T14:54:29.095Z</time>
      </trkpt>
      <trkpt lat="48.8006" lon="2.24338">
        <ele>146</ele>
        <time>2020-12-05T14:54:30.095Z</time>
      </trkpt>
      <trkpt lat="48.8006" lon="2.2434">
        <ele>146</ele>
        <time>2020-12-05T14:54:31.095Z</time>
      </trkpt>
      <trkpt lat="48.80062" lon="2.24341">
        <ele>145</ele>
        <time>2020-12-05T14:54:32.095Z</time>
      </trkpt>
      <trkpt lat="48.80063" lon="2.24341">
        <ele>145</ele>
        <time>2020-12-05T14:54:33.094Z</time>
      </trkpt>
      <trkpt lat="48.80065" lon="2.24342">
        <ele>145</ele>
        <time>2020-12-05T14:54:34.095Z</time>
      </trkpt>
      <trkpt lat="48.80066" lon="2.24342">
        <ele>145</ele>
        <time>2020-12-05T14:54:35.095Z</time>
      </trkpt>
      <trkpt lat="48.80067" lon="2.24343">
        <ele>145</ele>
        <time>2020-12-05T14:54:36.095Z</time>
      </trkpt>
      <trkpt lat="48.80068" lon="2.24343">
        <ele>145</ele>
        <time>2020-12-05T14:54:37.095Z</time>
      </trkpt>
      <trkpt lat="48.80069" lon="2.24343">
        <ele>145</ele>
        <time>2020-12-05T14:54:38.094Z</time>
      </trkpt>
      <trkpt lat="48.8007" lon="2.24344">
        <ele>145</ele>
        <time>2020-12-05T14:54:39.094Z</time>
      </trkpt>
      <trkpt lat="48.80071" lon="2.24344">
        <ele>145</ele>
        <time>2020-12-05T14:54:40.095Z</time>
      </trkpt>
      <trkpt lat="48.80072" lon="2.24345">
        <ele>145</ele>
        <time>2020-12-05T14:54:41.095Z</time>
      </trkpt>
      <trkpt lat="48.80073" lon="2.24345">
        <ele>145</ele>
        <time>2020-12-05T14:54:42.095Z</time>
      </trkpt>
      <trkpt lat="48.80074" lon="2.24346">
        <ele>145</ele>
        <time>2020-12-05T14:54:43.095Z</time>
      </trkpt>
      <trkpt lat="48.80075" lon="2.24347">
        <ele>145</ele>
        <time>2020-12-05T14:54:44.094Z</time>
      </trkpt>
      <trkpt lat="48.80076" lon="2.24347">
        <ele>145</ele>
        <time>2020-12-05T14:54:45.095Z</time>
      </trkpt>
      <trkpt lat="48.80077" lon="2.24348">
        <ele>146</ele>
        <time>2020-12-05T14:54:46.094Z</time>
      </trkpt>
      <trkpt lat="48.80078" lon="2.24349">
        <ele>146</ele>
        <time>2020-12-05T14:54:47.095Z</time>
      </trkpt>
      <trkpt lat="48.80079" lon="2.24351">
        <ele>146</ele>
        <time>2020-12-05T14:54:48.094Z</time>
      </trkpt>
      <trkpt lat="48.80081" lon="2.24351">
        <ele>147</ele>
        <time>2020-12-05T14:54:49.095Z</time>
      </trkpt>
      <trkpt lat="48.80082" lon="2.24352">
        <ele>147</ele>
        <time>2020-12-05T14:54:50.094Z</time>
      </trkpt>
      <trkpt lat="48.80083" lon="2.24353">
        <ele>147</ele>
        <time>2020-12-05T14:54:51.095Z</time>
      </trkpt>
      <trkpt lat="48.80082" lon="2.24355">
        <ele>147</ele>
        <time>2020-12-05T14:54:52.095Z</time>
      </trkpt>
      <trkpt lat="48.80083" lon="2.24356">
        <ele>148</ele>
        <time>2020-12-05T14:54:53.095Z</time>
      </trkpt>
      <trkpt lat="48.80084" lon="2.24356">
        <ele>148</ele>
        <time>2020-12-05T14:54:54.094Z</time>
      </trkpt>
      <trkpt lat="48.80085" lon="2.24357">
        <ele>149</ele>
        <time>2020-12-05T14:54:55.094Z</time>
      </trkpt>
      <trkpt lat="48.80086" lon="2.24357">
        <ele>149</ele>
        <time>2020-12-05T14:54:56.095Z</time>
      </trkpt>
      <trkpt lat="48.80087" lon="2.24357">
        <ele>150</ele>
        <time>2020-12-05T14:54:57.095Z</time>
      </trkpt>
      <trkpt lat="48.80088" lon="2.24356">
        <ele>150</ele>
        <time>2020-12-05T14:54:58.095Z</time>
      </trkpt>
      <trkpt lat="48.80089" lon="2.24356">
        <ele>151</ele>
        <time>2020-12-05T14:54:59.095Z</time>
      </trkpt>
      <trkpt lat="48.8009" lon="2.24356">
        <ele>151</ele>
        <time>2020-12-05T14:55:00.094Z</time>
      </trkpt>
      <trkpt lat="48.8009" lon="2.24357">
        <ele>152</ele>
        <time>2020-12-05T14:55:01.095Z</time>
      </trkpt>
      <trkpt lat="48.80091" lon="2.24358">
        <ele>152</ele>
        <time>2020-12-05T14:55:02.094Z</time>
      </trkpt>
      <trkpt lat="48.80091" lon="2.24357">
        <ele>153</ele>
        <time>2020-12-05T14:55:03.095Z</time>
      </trkpt>
      <trkpt lat="48.80092" lon="2.24358">
        <ele>154</ele>
        <time>2020-12-05T14:55:04.095Z</time>
      </trkpt>
      <trkpt lat="48.80092" lon="2.24358">
        <ele>154</ele>
        <time>2020-12-05T14:55:05.095Z</time>
      </trkpt>
      <trkpt lat="48.80093" lon="2.24358">
        <ele>155</ele>
        <time>2020-12-05T14:55:06.095Z</time>
      </trkpt>
      <trkpt lat="48.80094" lon="2.24358">
        <ele>155</ele>
        <time>2020-12-05T14:55:07.095Z</time>
      </trkpt>
      <trkpt lat="48.80094" lon="2.24358">
        <ele>155</ele>
        <time>2020-12-05T14:55:08.095Z</time>
      </trkpt>
      <trkpt lat="48.80094" lon="2.24359">
        <ele>155</ele>
        <time>2020-12-05T14:55:09.094Z</time>
      </trkpt>
      <trkpt lat="48.80095" lon="2.24361">
        <ele>155</ele>
        <time>2020-12-05T14:55:10.095Z</time>
      </trkpt>
      <trkpt lat="48.80095" lon="2.24363">
        <ele>155</ele>
        <time>2020-12-05T14:55:11.094Z</time>
      </trkpt>
      <trkpt lat="48.80095" lon="2.24365">
        <ele>155</ele>
        <time>2020-12-05T14:55:12.095Z</time>
      </trkpt>
      <trkpt lat="48.80095" lon="2.24366">
        <ele>155</ele>
        <time>2020-12-05T14:55:13.095Z</time>
      </trkpt>
      <trkpt lat="48.80096" lon="2.24367">
        <ele>155</ele>
        <time>2020-12-05T14:55:14.095Z</time>
      </trkpt>
      <trkpt lat="48.80096" lon="2.24367">
        <ele>154</ele>
        <time>2020-12-05T14:55:15.095Z</time>
      </trkpt>
      <trkpt lat="48.80097" lon="2.24368">
        <ele>154</ele>
        <time>2020-12-05T14:55:16.095Z</time>
      </trkpt>
      <trkpt lat="48.80097" lon="2.24368">
        <ele>154</ele>
        <time>2020-12-05T14:55:17.094Z</time>
      </trkpt>
      <trkpt lat="48.80097" lon="2.24369">
        <ele>154</ele>
        <time>2020-12-05T14:55:18.095Z</time>
      </trkpt>
      <trkpt lat="48.80097" lon="2.24369">
        <ele>154</ele>
        <time>2020-12-05T14:55:19.095Z</time>
      </trkpt>
      <trkpt lat="48.80097" lon="2.24369">
        <ele>153</ele>
        <time>2020-12-05T14:55:20.095Z</time>
      </trkpt>
      <trkpt lat="48.80097" lon="2.2437">
        <ele>153</ele>
        <time>2020-12-05T14:55:21.095Z</time>
      </trkpt>
      <trkpt lat="48.80097" lon="2.24371">
        <ele>153</ele>
        <time>2020-12-05T14:55:22.095Z</time>
      </trkpt>
      <trkpt lat="48.80097" lon="2.24372">
        <ele>153</ele>
        <time>2020-12-05T14:55:23.095Z</time>
      </trkpt>
      <trkpt lat="48.80097" lon="2.24372">
        <ele>153</ele>
        <time>2020-12-05T14:55:24.095Z</time>
      </trkpt>
      <trkpt lat="48.80097" lon="2.24372">
        <ele>153</ele>
        <time>2020-12-05T14:55:25.095Z</time>
      </trkpt>
      <trkpt lat="48.80098" lon="2.24372">
        <ele>153</ele>
        <time>2020-12-05T14:55:26.094Z</time>
      </trkpt>
      <trkpt lat="48.80099" lon="2.24372">
        <ele>153</ele>
        <time>2020-12-05T14:55:27.094Z</time>
      </trkpt>
      <trkpt lat="48.801" lon="2.24372">
        <ele>154</ele>
        <time>2020-12-05T14:55:28.094Z</time>
      </trkpt>
      <trkpt lat="48.80101" lon="2.24372">
        <ele>154</ele>
        <time>2020-12-05T14:55:29.095Z</time>
      </trkpt>
      <trkpt lat="48.80102" lon="2.24371">
        <ele>155</ele>
        <time>2020-12-05T14:55:30.095Z</time>
      </trkpt>
      <trkpt lat="48.80104" lon="2.24371">
        <ele>155</ele>
        <time>2020-12-05T14:55:31.095Z</time>
      </trkpt>
      <trkpt lat="48.80106" lon="2.24371">
        <ele>155</ele>
        <time>2020-12-05T14:55:32.095Z</time>
      </trkpt>
      <trkpt lat="48.80107" lon="2.24372">
        <ele>155</ele>
        <time>2020-12-05T14:55:33.095Z</time>
      </trkpt>
      <trkpt lat="48.80109" lon="2.24373">
        <ele>155</ele>
        <time>2020-12-05T14:55:34.095Z</time>
      </trkpt>
      <trkpt lat="48.8011" lon="2.24374">
        <ele>156</ele>
        <time>2020-12-05T14:55:35.095Z</time>
      </trkpt>
      <trkpt lat="48.80111" lon="2.24374">
        <ele>156</ele>
        <time>2020-12-05T14:55:36.095Z</time>
      </trkpt>
      <trkpt lat="48.80112" lon="2.24374">
        <ele>156</ele>
        <time>2020-12-05T14:55:37.094Z</time>
      </trkpt>
      <trkpt lat="48.80112" lon="2.24374">
        <ele>156</ele>
        <time>2020-12-05T14:55:38.095Z</time>
      </trkpt>
      <trkpt lat="48.80113" lon="2.24374">
        <ele>155</ele>
        <time>2020-12-05T14:55:39.095Z</time>
      </trkpt>
      <trkpt lat="48.80114" lon="2.24374">
        <ele>155</ele>
        <time>2020-12-05T14:55:40.094Z</time>
      </trkpt>
      <trkpt lat="48.80115" lon="2.24375">
        <ele>155</ele>
        <time>2020-12-05T14:55:41.095Z</time>
      </trkpt>
      <trkpt lat="48.80116" lon="2.24376">
        <ele>154</ele>
        <time>2020-12-05T14:55:42.095Z</time>
      </trkpt>
      <trkpt lat="48.80117" lon="2.24378">
        <ele>154</ele>
        <time>2020-12-05T14:55:43.095Z</time>
      </trkpt>
      <trkpt lat="48.80119" lon="2.2438">
        <ele>154</ele>
        <time>2020-12-05T14:55:44.095Z</time>
      </trkpt>
      <trkpt lat="48.8012" lon="2.24381">
        <ele>153</ele>
        <time>2020-12-05T14:55:45.095Z</time>
      </trkpt>
      <trkpt lat="48.80121" lon="2.24383">
        <ele>153</ele>
        <time>2020-12-05T14:55:46.095Z</time>
      </trkpt>
      <trkpt lat="48.80122" lon="2.24384">
        <ele>152</ele>
        <time>2020-12-05T14:55:47.095Z</time>
      </trkpt>
      <trkpt lat="48.80122" lon="2.24384">
        <ele>152</ele>
        <time>2020-12-05T14:55:48.095Z</time>
      </trkpt>
      <trkpt lat="48.80123" lon="2.24384">
        <ele>152</ele>
        <time>2020-12-05T14:55:49.095Z</time>
      </trkpt>
      <trkpt lat="48.80123" lon="2.24385">
        <ele>152</ele>
        <time>2020-12-05T14:55:50.095Z</time>
      </trkpt>
      <trkpt lat="48.80124" lon="2.24385">
        <ele>152</ele>
        <time>2020-12-05T14:55:51.095Z</time>
      </trkpt>
      <trkpt lat="48.80124" lon="2.24385">
        <ele>152</ele>
        <time>2020-12-05T14:55:52.094Z</time>
      </trkpt>
      <trkpt lat="48.80124" lon="2.24385">
        <ele>152</ele>
        <time>2020-12-05T14:55:53.094Z</time>
      </trkpt>
      <trkpt lat="48.80124" lon="2.24385">
        <ele>152</ele>
        <time>2020-12-05T14:55:54.095Z</time>
      </trkpt>
      <trkpt lat="48.80125" lon="2.24385">
        <ele>152</ele>
        <time>2020-12-05T14:55:55.095Z</time>
      </trkpt>
      <trkpt lat="48.80125" lon="2.24386">
        <ele>152</ele>
        <time>2020-12-05T14:55:56.095Z</time>
      </trkpt>
      <trkpt lat="48.80125" lon="2.24386">
        <ele>152</ele>
        <time>2020-12-05T14:55:57.095Z</time>
      </trkpt>
      <trkpt lat="48.80125" lon="2.24386">
        <ele>152</ele>
        <time>2020-12-05T14:55:58.095Z</time>
      </trkpt>
      <trkpt lat="48.80126" lon="2.24387">
        <ele>152</ele>
        <time>2020-12-05T14:55:59.095Z</time>
      </trkpt>
      <trkpt lat="48.80128" lon="2.24387">
        <ele>152</ele>
        <time>2020-12-05T14:56:00.095Z</time>
      </trkpt>
      <trkpt lat="48.80129" lon="2.24387">
        <ele>152</ele>
        <time>2020-12-05T14:56:01.095Z</time>
      </trkpt>
      <trkpt lat="48.8013" lon="2.24388">
        <ele>152</ele>
        <time>2020-12-05T14:56:02.095Z</time>
      </trkpt>
      <trkpt lat="48.80131" lon="2.24388">
        <ele>151</ele>
        <time>2020-12-05T14:56:03.094Z</time>
      </trkpt>
      <trkpt lat="48.80133" lon="2.24389">
        <ele>151</ele>
        <time>2020-12-05T14:56:04.095Z</time>
      </trkpt>
      <trkpt lat="48.80134" lon="2.2439">
        <ele>151</ele>
        <time>2020-12-05T14:56:05.094Z</time>
      </trkpt>
      <trkpt lat="48.80135" lon="2.24391">
        <ele>151</ele>
        <time>2020-12-05T14:56:06.095Z</time>
      </trkpt>
      <trkpt lat="48.80136" lon="2.24393">
        <ele>152</ele>
        <time>2020-12-05T14:56:07.094Z</time>
      </trkpt>
      <trkpt lat="48.80137" lon="2.24395">
        <ele>152</ele>
        <time>2020-12-05T14:56:08.094Z</time>
      </trkpt>
      <trkpt lat="48.80138" lon="2.24396">
        <ele>152</ele>
        <time>2020-12-05T14:56:09.095Z</time>
      </trkpt>
      <trkpt lat="48.8014" lon="2.24398">
        <ele>152</ele>
        <time>2020-12-05T14:56:10.094Z</time>
      </trkpt>
      <trkpt lat="48.80141" lon="2.24398">
        <ele>152</ele>
        <time>2020-12-05T14:56:11.095Z</time>
      </trkpt>
      <trkpt lat="48.80143" lon="2.24398">
        <ele>152</ele>
        <time>2020-12-05T14:56:12.095Z</time>
      </trkpt>
      <trkpt lat="48.80144" lon="2.244">
        <ele>152</ele>
        <time>2020-12-05T14:56:13.095Z</time>
      </trkpt>
      <trkpt lat="48.80145" lon="2.24401">
        <ele>152</ele>
        <time>2020-12-05T14:56:14.094Z</time>
      </trkpt>
      <trkpt lat="48.80147" lon="2.24402">
        <ele>152</ele>
        <time>2020-12-05T14:56:15.095Z</time>
      </trkpt>
      <trkpt lat="48.80148" lon="2.24404">
        <ele>152</ele>
        <time>2020-12-05T14:56:16.095Z</time>
      </trkpt>
      <trkpt lat="48.8015" lon="2.24405">
        <ele>152</ele>
        <time>2020-12-05T14:56:17.095Z</time>
      </trkpt>
      <trkpt lat="48.80151" lon="2.24407">
        <ele>152</ele>
        <time>2020-12-05T14:56:18.095Z</time>
      </trkpt>
      <trkpt lat="48.80152" lon="2.24407">
        <ele>151</ele>
        <time>2020-12-05T14:56:19.094Z</time>
      </trkpt>
      <trkpt lat="48.80152" lon="2.24407">
        <ele>151</ele>
        <time>2020-12-05T14:56:20.095Z</time>
      </trkpt>
      <trkpt lat="48.80152" lon="2.24408">
        <ele>151</ele>
        <time>2020-12-05T14:56:21.094Z</time>
      </trkpt>
      <trkpt lat="48.80153" lon="2.24408">
        <ele>152</ele>
        <time>2020-12-05T14:56:22.095Z</time>
      </trkpt>
      <trkpt lat="48.80155" lon="2.2441">
        <ele>152</ele>
        <time>2020-12-05T14:56:23.094Z</time>
      </trkpt>
      <trkpt lat="48.80157" lon="2.24411">
        <ele>152</ele>
        <time>2020-12-05T14:56:24.094Z</time>
      </trkpt>
      <trkpt lat="48.80159" lon="2.24412">
        <ele>151</ele>
        <time>2020-12-05T14:56:25.095Z</time>
      </trkpt>
      <trkpt lat="48.80161" lon="2.24413">
        <ele>151</ele>
        <time>2020-12-05T14:56:26.095Z</time>
      </trkpt>
      <trkpt lat="48.80162" lon="2.24414">
        <ele>150</ele>
        <time>2020-12-05T14:56:27.095Z</time>
      </trkpt>
      <trkpt lat="48.80164" lon="2.24414">
        <ele>150</ele>
        <time>2020-12-05T14:56:28.095Z</time>
      </trkpt>
      <trkpt lat="48.80164" lon="2.24415">
        <ele>150</ele>
        <time>2020-12-05T14:56:29.094Z</time>
      </trkpt>
      <trkpt lat="48.80164" lon="2.24415">
        <ele>149</ele>
        <time>2020-12-05T14:56:30.095Z</time>
      </trkpt>
      <trkpt lat="48.80164" lon="2.24415">
        <ele>149</ele>
        <time>2020-12-05T14:56:31.095Z</time>
      </trkpt>
      <trkpt lat="48.80165" lon="2.24415">
        <ele>149</ele>
        <time>2020-12-05T14:56:32.095Z</time>
      </trkpt>
      <trkpt lat="48.80165" lon="2.24415">
        <ele>149</ele>
        <time>2020-12-05T14:56:33.095Z</time>
      </trkpt>
      <trkpt lat="48.80165" lon="2.24416">
        <ele>150</ele>
        <time>2020-12-05T14:56:34.095Z</time>
      </trkpt>
      <trkpt lat="48.80166" lon="2.24417">
        <ele>150</ele>
        <time>2020-12-05T14:56:35.095Z</time>
      </trkpt>
      <trkpt lat="48.80167" lon="2.24418">
        <ele>150</ele>
        <time>2020-12-05T14:56:36.095Z</time>
      </trkpt>
      <trkpt lat="48.80167" lon="2.24419">
        <ele>150</ele>
        <time>2020-12-05T14:56:37.095Z</time>
      </trkpt>
      <trkpt lat="48.80168" lon="2.2442">
        <ele>151</ele>
        <time>2020-12-05T14:56:38.095Z</time>
      </trkpt>
      <trkpt lat="48.80168" lon="2.2442">
        <ele>151</ele>
        <time>2020-12-05T14:56:39.095Z</time>
      </trkpt>
      <trkpt lat="48.80169" lon="2.2442">
        <ele>151</ele>
        <time>2020-12-05T14:56:40.095Z</time>
      </trkpt>
      <trkpt lat="48.80169" lon="2.24421">
        <ele>151</ele>
        <time>2020-12-05T14:56:41.095Z</time>
      </trkpt>
      <trkpt lat="48.8017" lon="2.24421">
        <ele>151</ele>
        <time>2020-12-05T14:56:42.095Z</time>
      </trkpt>
      <trkpt lat="48.80171" lon="2.24422">
        <ele>151</ele>
        <time>2020-12-05T14:56:43.095Z</time>
      </trkpt>
      <trkpt lat="48.80173" lon="2.24423">
        <ele>152</ele>
        <time>2020-12-05T14:56:44.095Z</time>
      </trkpt>
      <trkpt lat="48.80174" lon="2.24424">
        <ele>152</ele>
        <time>2020-12-05T14:56:45.094Z</time>
      </trkpt>
      <trkpt lat="48.80175" lon="2.24425">
        <ele>152</ele>
        <time>2020-12-05T14:56:46.095Z</time>
      </trkpt>
      <trkpt lat="48.80176" lon="2.24428">
        <ele>152</ele>
        <time>2020-12-05T14:56:47.094Z</time>
      </trkpt>
      <trkpt lat="48.80177" lon="2.24429">
        <ele>153</ele>
        <time>2020-12-05T14:56:48.095Z</time>
      </trkpt>
      <trkpt lat="48.80178" lon="2.2443">
        <ele>153</ele>
        <time>2020-12-05T14:56:49.094Z</time>
      </trkpt>
      <trkpt lat="48.80178" lon="2.24432">
        <ele>153</ele>
        <time>2020-12-05T14:56:50.095Z</time>
      </trkpt>
      <trkpt lat="48.80179" lon="2.24433">
        <ele>153</ele>
        <time>2020-12-05T14:56:51.095Z</time>
      </trkpt>
      <trkpt lat="48.8018" lon="2.24434">
        <ele>152</ele>
        <time>2020-12-05T14:56:52.095Z</time>
      </trkpt>
      <trkpt lat="48.80182" lon="2.24436">
        <ele>152</ele>
        <time>2020-12-05T14:56:53.095Z</time>
      </trkpt>
      <trkpt lat="48.80183" lon="2.24437">
        <ele>152</ele>
        <time>2020-12-05T14:56:54.095Z</time>
      </trkpt>
      <trkpt lat="48.80184" lon="2.24439">
        <ele>152</ele>
        <time>2020-12-05T14:56:55.095Z</time>
      </trkpt>
      <trkpt lat="48.80185" lon="2.2444">
        <ele>152</ele>
        <time>2020-12-05T14:56:56.094Z</time>
      </trkpt>
      <trkpt lat="48.80186" lon="2.24441">
        <ele>152</ele>
        <time>2020-12-05T14:56:57.094Z</time>
      </trkpt>
      <trkpt lat="48.80187" lon="2.24442">
        <ele>152</ele>
        <time>2020-12-05T14:56:58.095Z</time>
      </trkpt>
      <trkpt lat="48.80188" lon="2.24443">
        <ele>152</ele>
        <time>2020-12-05T14:56:59.094Z</time>
      </trkpt>
      <trkpt lat="48.80188" lon="2.24444">
        <ele>152</ele>
        <time>2020-12-05T14:57:00.095Z</time>
      </trkpt>
      <trkpt lat="48.80188" lon="2.24445">
        <ele>152</ele>
        <time>2020-12-05T14:57:01.095Z</time>
      </trkpt>
      <trkpt lat="48.80188" lon="2.24446">
        <ele>152</ele>
        <time>2020-12-05T14:57:02.095Z</time>
      </trkpt>
      <trkpt lat="48.80188" lon="2.24447">
        <ele>152</ele>
        <time>2020-12-05T14:57:03.095Z</time>
      </trkpt>
      <trkpt lat="48.80188" lon="2.24448">
        <ele>152</ele>
        <time>2020-12-05T14:57:04.094Z</time>
      </trkpt>
      <trkpt lat="48.80189" lon="2.24448">
        <ele>152</ele>
        <time>2020-12-05T14:57:05.094Z</time>
      </trkpt>
      <trkpt lat="48.80189" lon="2.24448">
        <ele>152</ele>
        <time>2020-12-05T14:57:06.095Z</time>
      </trkpt>
      <trkpt lat="48.8019" lon="2.24449">
        <ele>152</ele>
        <time>2020-12-05T14:57:07.095Z</time>
      </trkpt>
      <trkpt lat="48.80192" lon="2.2445">
        <ele>152</ele>
        <time>2020-12-05T14:57:08.095Z</time>
      </trkpt>
      <trkpt lat="48.80194" lon="2.24451">
        <ele>152</ele>
        <time>2020-12-05T14:57:09.095Z</time>
      </trkpt>
      <trkpt lat="48.80196" lon="2.24452">
        <ele>152</ele>
        <time>2020-12-05T14:57:10.094Z</time>
      </trkpt>
      <trkpt lat="48.80197" lon="2.24453">
        <ele>152</ele>
        <time>2020-12-05T14:57:11.095Z</time>
      </trkpt>
      <trkpt lat="48.80198" lon="2.24454">
        <ele>152</ele>
        <time>2020-12-05T14:57:12.095Z</time>
      </trkpt>
      <trkpt lat="48.80198" lon="2.24454">
        <ele>152</ele>
        <time>2020-12-05T14:57:13.095Z</time>
      </trkpt>
      <trkpt lat="48.802" lon="2.24455">
        <ele>152</ele>
        <time>2020-12-05T14:57:14.095Z</time>
      </trkpt>
      <trkpt lat="48.80201" lon="2.24456">
        <ele>152</ele>
        <time>2020-12-05T14:57:15.094Z</time>
      </trkpt>
      <trkpt lat="48.80202" lon="2.24457">
        <ele>152</ele>
        <time>2020-12-05T14:57:16.095Z</time>
      </trkpt>
      <trkpt lat="48.80203" lon="2.24459">
        <ele>152</ele>
        <time>2020-12-05T14:57:17.094Z</time>
      </trkpt>
      <trkpt lat="48.80204" lon="2.2446">
        <ele>153</ele>
        <time>2020-12-05T14:57:18.095Z</time>
      </trkpt>
      <trkpt lat="48.80204" lon="2.24461">
        <ele>153</ele>
        <time>2020-12-05T14:57:19.095Z</time>
      </trkpt>
      <trkpt lat="48.80205" lon="2.24462">
        <ele>153</ele>
        <time>2020-12-05T14:57:20.094Z</time>
      </trkpt>
      <trkpt lat="48.80207" lon="2.24463">
        <ele>153</ele>
        <time>2020-12-05T14:57:21.095Z</time>
      </trkpt>
      <trkpt lat="48.80208" lon="2.24464">
        <ele>154</ele>
        <time>2020-12-05T14:57:22.094Z</time>
      </trkpt>
      <trkpt lat="48.80209" lon="2.24465">
        <ele>154</ele>
        <time>2020-12-05T14:57:23.095Z</time>
      </trkpt>
      <trkpt lat="48.8021" lon="2.24465">
        <ele>154</ele>
        <time>2020-12-05T14:57:24.094Z</time>
      </trkpt>
      <trkpt lat="48.80212" lon="2.24467">
        <ele>155</ele>
        <time>2020-12-05T14:57:25.095Z</time>
      </trkpt>
      <trkpt lat="48.80214" lon="2.24468">
        <ele>155</ele>
        <time>2020-12-05T14:57:26.094Z</time>
      </trkpt>
      <trkpt lat="48.80214" lon="2.24469">
        <ele>155</ele>
        <time>2020-12-05T14:57:27.095Z</time>
      </trkpt>
      <trkpt lat="48.80215" lon="2.24471">
        <ele>156</ele>
        <time>2020-12-05T14:57:28.095Z</time>
      </trkpt>
      <trkpt lat="48.80216" lon="2.24472">
        <ele>156</ele>
        <time>2020-12-05T14:57:29.095Z</time>
      </trkpt>
      <trkpt lat="48.80216" lon="2.24473">
        <ele>157</ele>
        <time>2020-12-05T14:57:30.095Z</time>
      </trkpt>
      <trkpt lat="48.80216" lon="2.24475">
        <ele>157</ele>
        <time>2020-12-05T14:57:31.094Z</time>
      </trkpt>
      <trkpt lat="48.80217" lon="2.24476">
        <ele>157</ele>
        <time>2020-12-05T14:57:32.095Z</time>
      </trkpt>
      <trkpt lat="48.80217" lon="2.24478">
        <ele>158</ele>
        <time>2020-12-05T14:57:33.095Z</time>
      </trkpt>
      <trkpt lat="48.80217" lon="2.2448">
        <ele>158</ele>
        <time>2020-12-05T14:57:34.095Z</time>
      </trkpt>
      <trkpt lat="48.80218" lon="2.24482">
        <ele>158</ele>
        <time>2020-12-05T14:57:35.095Z</time>
      </trkpt>
      <trkpt lat="48.80219" lon="2.24484">
        <ele>158</ele>
        <time>2020-12-05T14:57:36.095Z</time>
      </trkpt>
      <trkpt lat="48.80219" lon="2.24485">
        <ele>159</ele>
        <time>2020-12-05T14:57:37.095Z</time>
      </trkpt>
      <trkpt lat="48.8022" lon="2.24487">
        <ele>159</ele>
        <time>2020-12-05T14:57:38.095Z</time>
      </trkpt>
      <trkpt lat="48.8022" lon="2.24488">
        <ele>159</ele>
        <time>2020-12-05T14:57:39.095Z</time>
      </trkpt>
      <trkpt lat="48.8022" lon="2.2449">
        <ele>159</ele>
        <time>2020-12-05T14:57:40.095Z</time>
      </trkpt>
      <trkpt lat="48.8022" lon="2.24492">
        <ele>159</ele>
        <time>2020-12-05T14:57:41.095Z</time>
      </trkpt>
      <trkpt lat="48.80221" lon="2.24494">
        <ele>159</ele>
        <time>2020-12-05T14:57:42.095Z</time>
      </trkpt>
      <trkpt lat="48.80222" lon="2.24496">
        <ele>159</ele>
        <time>2020-12-05T14:57:43.095Z</time>
      </trkpt>
      <trkpt lat="48.80223" lon="2.24498">
        <ele>159</ele>
        <time>2020-12-05T14:57:44.095Z</time>
      </trkpt>
      <trkpt lat="48.80224" lon="2.24499">
        <ele>159</ele>
        <time>2020-12-05T14:57:45.095Z</time>
      </trkpt>
      <trkpt lat="48.80224" lon="2.245">
        <ele>159</ele>
        <time>2020-12-05T14:57:46.095Z</time>
      </trkpt>
      <trkpt lat="48.80225" lon="2.24502">
        <ele>159</ele>
        <time>2020-12-05T14:57:47.094Z</time>
      </trkpt>
      <trkpt lat="48.80226" lon="2.24504">
        <ele>159</ele>
        <time>2020-12-05T14:57:48.095Z</time>
      </trkpt>
      <trkpt lat="48.80228" lon="2.24505">
        <ele>159</ele>
        <time>2020-12-05T14:57:49.094Z</time>
      </trkpt>
      <trkpt lat="48.80229" lon="2.24506">
        <ele>159</ele>
        <time>2020-12-05T14:57:50.094Z</time>
      </trkpt>
      <trkpt lat="48.80231" lon="2.24508">
        <ele>159</ele>
        <time>2020-12-05T14:57:51.094Z</time>
      </trkpt>
      <trkpt lat="48.80232" lon="2.24509">
        <ele>159</ele>
        <time>2020-12-05T14:57:52.094Z</time>
      </trkpt>
      <trkpt lat="48.80233" lon="2.2451">
        <ele>159</ele>
        <time>2020-12-05T14:57:53.095Z</time>
      </trkpt>
      <trkpt lat="48.80233" lon="2.24511">
        <ele>159</ele>
        <time>2020-12-05T14:57:54.095Z</time>
      </trkpt>
      <trkpt lat="48.80233" lon="2.24512">
        <ele>159</ele>
        <time>2020-12-05T14:57:55.095Z</time>
      </trkpt>
      <trkpt lat="48.80233" lon="2.24514">
        <ele>159</ele>
        <time>2020-12-05T14:57:56.095Z</time>
      </trkpt>
      <trkpt lat="48.80233" lon="2.24515">
        <ele>159</ele>
        <time>2020-12-05T14:57:57.095Z</time>
      </trkpt>
      <trkpt lat="48.80234" lon="2.24516">
        <ele>160</ele>
        <time>2020-12-05T14:57:58.095Z</time>
      </trkpt>
      <trkpt lat="48.80235" lon="2.24518">
        <ele>160</ele>
        <time>2020-12-05T14:57:59.094Z</time>
      </trkpt>
      <trkpt lat="48.80235" lon="2.2452">
        <ele>160</ele>
        <time>2020-12-05T14:58:00.095Z</time>
      </trkpt>
      <trkpt lat="48.80236" lon="2.24521">
        <ele>160</ele>
        <time>2020-12-05T14:58:01.094Z</time>
      </trkpt>
      <trkpt lat="48.80235" lon="2.24523">
        <ele>160</ele>
        <time>2020-12-05T14:58:02.095Z</time>
      </trkpt>
      <trkpt lat="48.80236" lon="2.24524">
        <ele>161</ele>
        <time>2020-12-05T14:58:03.095Z</time>
      </trkpt>
      <trkpt lat="48.80236" lon="2.24525">
        <ele>161</ele>
        <time>2020-12-05T14:58:04.095Z</time>
      </trkpt>
      <trkpt lat="48.80236" lon="2.24525">
        <ele>161</ele>
        <time>2020-12-05T14:58:05.095Z</time>
      </trkpt>
      <trkpt lat="48.80236" lon="2.24525">
        <ele>161</ele>
        <time>2020-12-05T14:58:06.094Z</time>
      </trkpt>
      <trkpt lat="48.80237" lon="2.24527">
        <ele>161</ele>
        <time>2020-12-05T14:58:07.095Z</time>
      </trkpt>
      <trkpt lat="48.80237" lon="2.24529">
        <ele>161</ele>
        <time>2020-12-05T14:58:08.094Z</time>
      </trkpt>
      <trkpt lat="48.80238" lon="2.2453">
        <ele>161</ele>
        <time>2020-12-05T14:58:09.095Z</time>
      </trkpt>
      <trkpt lat="48.80238" lon="2.24532">
        <ele>161</ele>
        <time>2020-12-05T14:58:10.094Z</time>
      </trkpt>
      <trkpt lat="48.80238" lon="2.24533">
        <ele>161</ele>
        <time>2020-12-05T14:58:11.095Z</time>
      </trkpt>
      <trkpt lat="48.80238" lon="2.24534">
        <ele>161</ele>
        <time>2020-12-05T14:58:12.095Z</time>
      </trkpt>
      <trkpt lat="48.80239" lon="2.24536">
        <ele>161</ele>
        <time>2020-12-05T14:58:13.094Z</time>
      </trkpt>
      <trkpt lat="48.80239" lon="2.24538">
        <ele>160</ele>
        <time>2020-12-05T14:58:14.094Z</time>
      </trkpt>
      <trkpt lat="48.8024" lon="2.2454">
        <ele>160</ele>
        <time>2020-12-05T14:58:15.094Z</time>
      </trkpt>
      <trkpt lat="48.8024" lon="2.24542">
        <ele>160</ele>
        <time>2020-12-05T14:58:16.094Z</time>
      </trkpt>
      <trkpt lat="48.80239" lon="2.24544">
        <ele>160</ele>
        <time>2020-12-05T14:58:17.094Z</time>
      </trkpt>
      <trkpt lat="48.80239" lon="2.24546">
        <ele>160</ele>
        <time>2020-12-05T14:58:18.095Z</time>
      </trkpt>
      <trkpt lat="48.80239" lon="2.24548">
        <ele>160</ele>
        <time>2020-12-05T14:58:19.094Z</time>
      </trkpt>
      <trkpt lat="48.8024" lon="2.24549">
        <ele>160</ele>
        <time>2020-12-05T14:58:20.095Z</time>
      </trkpt>
      <trkpt lat="48.80242" lon="2.2455">
        <ele>160</ele>
        <time>2020-12-05T14:58:21.095Z</time>
      </trkpt>
      <trkpt lat="48.80243" lon="2.24552">
        <ele>160</ele>
        <time>2020-12-05T14:58:22.094Z</time>
      </trkpt>
      <trkpt lat="48.80244" lon="2.24553">
        <ele>160</ele>
        <time>2020-12-05T14:58:23.094Z</time>
      </trkpt>
      <trkpt lat="48.80244" lon="2.24554">
        <ele>161</ele>
        <time>2020-12-05T14:58:24.095Z</time>
      </trkpt>
      <trkpt lat="48.80245" lon="2.24555">
        <ele>161</ele>
        <time>2020-12-05T14:58:25.094Z</time>
      </trkpt>
      <trkpt lat="48.80245" lon="2.24555">
        <ele>161</ele>
        <time>2020-12-05T14:58:26.095Z</time>
      </trkpt>
      <trkpt lat="48.80246" lon="2.24556">
        <ele>161</ele>
        <time>2020-12-05T14:58:27.095Z</time>
      </trkpt>
      <trkpt lat="48.80246" lon="2.24558">
        <ele>161</ele>
        <time>2020-12-05T14:58:28.095Z</time>
      </trkpt>
      <trkpt lat="48.80246" lon="2.24559">
        <ele>161</ele>
        <time>2020-12-05T14:58:29.095Z</time>
      </trkpt>
      <trkpt lat="48.80246" lon="2.24561">
        <ele>161</ele>
        <time>2020-12-05T14:58:30.095Z</time>
      </trkpt>
      <trkpt lat="48.80246" lon="2.24562">
        <ele>161</ele>
        <time>2020-12-05T14:58:31.095Z</time>
      </trkpt>
      <trkpt lat="48.80246" lon="2.24562">
        <ele>161</ele>
        <time>2020-12-05T14:58:32.095Z</time>
      </trkpt>
      <trkpt lat="48.80246" lon="2.24563">
        <ele>161</ele>
        <time>2020-12-05T14:58:33.094Z</time>
      </trkpt>
      <trkpt lat="48.80246" lon="2.24564">
        <ele>161</ele>
        <time>2020-12-05T14:58:34.095Z</time>
      </trkpt>
      <trkpt lat="48.80247" lon="2.24564">
        <ele>161</ele>
        <time>2020-12-05T14:58:35.095Z</time>
      </trkpt>
      <trkpt lat="48.80247" lon="2.24565">
        <ele>161</ele>
        <time>2020-12-05T14:58:36.095Z</time>
      </trkpt>
      <trkpt lat="48.80247" lon="2.24566">
        <ele>160</ele>
        <time>2020-12-05T14:58:37.095Z</time>
      </trkpt>
      <trkpt lat="48.80248" lon="2.24567">
        <ele>160</ele>
        <time>2020-12-05T14:58:38.095Z</time>
      </trkpt>
      <trkpt lat="48.80248" lon="2.24568">
        <ele>160</ele>
        <time>2020-12-05T14:58:39.095Z</time>
      </trkpt>
      <trkpt lat="48.80249" lon="2.24568">
        <ele>160</ele>
        <time>2020-12-05T14:58:40.095Z</time>
      </trkpt>
      <trkpt lat="48.80249" lon="2.24569">
        <ele>159</ele>
        <time>2020-12-05T14:58:41.095Z</time>
      </trkpt>
      <trkpt lat="48.80249" lon="2.24569">
        <ele>159</ele>
        <time>2020-12-05T14:58:42.095Z</time>
      </trkpt>
      <trkpt lat="48.80249" lon="2.24569">
        <ele>159</ele>
        <time>2020-12-05T14:58:43.095Z</time>
      </trkpt>
      <trkpt lat="48.80249" lon="2.2457">
        <ele>159</ele>
        <time>2020-12-05T14:58:44.095Z</time>
      </trkpt>
      <trkpt lat="48.8025" lon="2.2457">
        <ele>159</ele>
        <time>2020-12-05T14:58:45.095Z</time>
      </trkpt>
      <trkpt lat="48.8025" lon="2.24571">
        <ele>159</ele>
        <time>2020-12-05T14:58:46.094Z</time>
      </trkpt>
      <trkpt lat="48.80251" lon="2.24571">
        <ele>159</ele>
        <time>2020-12-05T14:58:47.095Z</time>
      </trkpt>
      <trkpt lat="48.80251" lon="2.24571">
        <ele>159</ele>
        <time>2020-12-05T14:58:48.095Z</time>
      </trkpt>
      <trkpt lat="48.80252" lon="2.24571">
        <ele>159</ele>
        <time>2020-12-05T14:58:49.095Z</time>
      </trkpt>
      <trkpt lat="48.80252" lon="2.24571">
        <ele>159</ele>
        <time>2020-12-05T14:58:50.095Z</time>
      </trkpt>
      <trkpt lat="48.80253" lon="2.24571">
        <ele>159</ele>
        <time>2020-12-05T14:58:51.095Z</time>
      </trkpt>
      <trkpt lat="48.80255" lon="2.24571">
        <ele>159</ele>
        <time>2020-12-05T14:58:52.094Z</time>
      </trkpt>
      <trkpt lat="48.80256" lon="2.2457">
        <ele>160</ele>
        <time>2020-12-05T14:58:53.095Z</time>
      </trkpt>
      <trkpt lat="48.80257" lon="2.24568">
        <ele>160</ele>
        <time>2020-12-05T14:58:54.094Z</time>
      </trkpt>
      <trkpt lat="48.80258" lon="2.24567">
        <ele>161</ele>
        <time>2020-12-05T14:58:55.095Z</time>
      </trkpt>
      <trkpt lat="48.8026" lon="2.24566">
        <ele>161</ele>
        <time>2020-12-05T14:58:56.095Z</time>
      </trkpt>
      <trkpt lat="48.80261" lon="2.24565">
        <ele>161</ele>
        <time>2020-12-05T14:58:57.095Z</time>
      </trkpt>
      <trkpt lat="48.80262" lon="2.24565">
        <ele>161</ele>
        <time>2020-12-05T14:58:58.095Z</time>
      </trkpt>
      <trkpt lat="48.80263" lon="2.24565">
        <ele>161</ele>
        <time>2020-12-05T14:58:59.095Z</time>
      </trkpt>
      <trkpt lat="48.80264" lon="2.24565">
        <ele>161</ele>
        <time>2020-12-05T14:59:00.095Z</time>
      </trkpt>
      <trkpt lat="48.80265" lon="2.24565">
        <ele>161</ele>
        <time>2020-12-05T14:59:01.095Z</time>
      </trkpt>
      <trkpt lat="48.80265" lon="2.24565">
        <ele>161</ele>
        <time>2020-12-05T14:59:02.095Z</time>
      </trkpt>
      <trkpt lat="48.80265" lon="2.24565">
        <ele>161</ele>
        <time>2020-12-05T14:59:03.095Z</time>
      </trkpt>
      <trkpt lat="48.80265" lon="2.24565">
        <ele>161</ele>
        <time>2020-12-05T14:59:04.095Z</time>
      </trkpt>
      <trkpt lat="48.80265" lon="2.24565">
        <ele>161</ele>
        <time>2020-12-05T14:59:05.095Z</time>
      </trkpt>
      <trkpt lat="48.80266" lon="2.24565">
        <ele>161</ele>
        <time>2020-12-05T14:59:06.095Z</time>
      </trkpt>
      <trkpt lat="48.80267" lon="2.24566">
        <ele>161</ele>
        <time>2020-12-05T14:59:07.095Z</time>
      </trkpt>
      <trkpt lat="48.80268" lon="2.24567">
        <ele>161</ele>
        <time>2020-12-05T14:59:08.095Z</time>
      </trkpt>
      <trkpt lat="48.80269" lon="2.24567">
        <ele>161</ele>
        <time>2020-12-05T14:59:09.095Z</time>
      </trkpt>
      <trkpt lat="48.8027" lon="2.24568">
        <ele>162</ele>
        <time>2020-12-05T14:59:10.095Z</time>
      </trkpt>
      <trkpt lat="48.80271" lon="2.24568">
        <ele>162</ele>
        <time>2020-12-05T14:59:11.095Z</time>
      </trkpt>
      <trkpt lat="48.80273" lon="2.24568">
        <ele>162</ele>
        <time>2020-12-05T14:59:12.095Z</time>
      </trkpt>
      <trkpt lat="48.80275" lon="2.24569">
        <ele>162</ele>
        <time>2020-12-05T14:59:13.095Z</time>
      </trkpt>
      <trkpt lat="48.80276" lon="2.2457">
        <ele>162</ele>
        <time>2020-12-05T14:59:14.094Z</time>
      </trkpt>
      <trkpt lat="48.80278" lon="2.24572">
        <ele>162</ele>
        <time>2020-12-05T14:59:15.095Z</time>
      </trkpt>
      <trkpt lat="48.80279" lon="2.24574">
        <ele>162</ele>
        <time>2020-12-05T14:59:16.095Z</time>
      </trkpt>
      <trkpt lat="48.80279" lon="2.24577">
        <ele>162</ele>
        <time>2020-12-05T14:59:17.095Z</time>
      </trkpt>
      <trkpt lat="48.80278" lon="2.2458">
        <ele>162</ele>
        <time>2020-12-05T14:59:18.095Z</time>
      </trkpt>
      <trkpt lat="48.80278" lon="2.24583">
        <ele>162</ele>
        <time>2020-12-05T14:59:19.095Z</time>
      </trkpt>
      <trkpt lat="48.80278" lon="2.24585">
        <ele>162</ele>
        <time>2020-12-05T14:59:20.095Z</time>
      </trkpt>
      <trkpt lat="48.80278" lon="2.24587">
        <ele>162</ele>
        <time>2020-12-05T14:59:21.095Z</time>
      </trkpt>
      <trkpt lat="48.80278" lon="2.24589">
        <ele>162</ele>
        <time>2020-12-05T14:59:22.094Z</time>
      </trkpt>
      <trkpt lat="48.80279" lon="2.24591">
        <ele>162</ele>
        <time>2020-12-05T14:59:23.095Z</time>
      </trkpt>
      <trkpt lat="48.80279" lon="2.24593">
        <ele>162</ele>
        <time>2020-12-05T14:59:24.094Z</time>
      </trkpt>
      <trkpt lat="48.80279" lon="2.24594">
        <ele>162</ele>
        <time>2020-12-05T14:59:25.094Z</time>
      </trkpt>
      <trkpt lat="48.80278" lon="2.24596">
        <ele>161</ele>
        <time>2020-12-05T14:59:26.095Z</time>
      </trkpt>
      <trkpt lat="48.80278" lon="2.24598">
        <ele>161</ele>
        <time>2020-12-05T14:59:27.094Z</time>
      </trkpt>
      <trkpt lat="48.80276" lon="2.24601">
        <ele>161</ele>
        <time>2020-12-05T14:59:28.095Z</time>
      </trkpt>
      <trkpt lat="48.80276" lon="2.24604">
        <ele>161</ele>
        <time>2020-12-05T14:59:29.095Z</time>
      </trkpt>
      <trkpt lat="48.80276" lon="2.24606">
        <ele>161</ele>
        <time>2020-12-05T14:59:30.094Z</time>
      </trkpt>
      <trkpt lat="48.80276" lon="2.24609">
        <ele>162</ele>
        <time>2020-12-05T14:59:31.095Z</time>
      </trkpt>
      <trkpt lat="48.80276" lon="2.2461">
        <ele>162</ele>
        <time>2020-12-05T14:59:32.095Z</time>
      </trkpt>
      <trkpt lat="48.80276" lon="2.24613">
        <ele>162</ele>
        <time>2020-12-05T14:59:33.094Z</time>
      </trkpt>
      <trkpt lat="48.80277" lon="2.24615">
        <ele>162</ele>
        <time>2020-12-05T14:59:34.094Z</time>
      </trkpt>
      <trkpt lat="48.80277" lon="2.24617">
        <ele>162</ele>
        <time>2020-12-05T14:59:35.094Z</time>
      </trkpt>
      <trkpt lat="48.80277" lon="2.24618">
        <ele>162</ele>
        <time>2020-12-05T14:59:36.095Z</time>
      </trkpt>
      <trkpt lat="48.80277" lon="2.2462">
        <ele>162</ele>
        <time>2020-12-05T14:59:37.095Z</time>
      </trkpt>
      <trkpt lat="48.80277" lon="2.24622">
        <ele>162</ele>
        <time>2020-12-05T14:59:38.094Z</time>
      </trkpt>
      <trkpt lat="48.80277" lon="2.24624">
        <ele>163</ele>
        <time>2020-12-05T14:59:39.095Z</time>
      </trkpt>
      <trkpt lat="48.80278" lon="2.24626">
        <ele>163</ele>
        <time>2020-12-05T14:59:40.095Z</time>
      </trkpt>
      <trkpt lat="48.80279" lon="2.24628">
        <ele>164</ele>
        <time>2020-12-05T14:59:41.094Z</time>
      </trkpt>
      <trkpt lat="48.80279" lon="2.2463">
        <ele>164</ele>
        <time>2020-12-05T14:59:42.095Z</time>
      </trkpt>
      <trkpt lat="48.8028" lon="2.24633">
        <ele>164</ele>
        <time>2020-12-05T14:59:43.095Z</time>
      </trkpt>
      <trkpt lat="48.80281" lon="2.24635">
        <ele>164</ele>
        <time>2020-12-05T14:59:44.095Z</time>
      </trkpt>
      <trkpt lat="48.80282" lon="2.24637">
        <ele>165</ele>
        <time>2020-12-05T14:59:45.094Z</time>
      </trkpt>
      <trkpt lat="48.80283" lon="2.24639">
        <ele>165</ele>
        <time>2020-12-05T14:59:46.095Z</time>
      </trkpt>
      <trkpt lat="48.80284" lon="2.24642">
        <ele>164</ele>
        <time>2020-12-05T14:59:47.095Z</time>
      </trkpt>
      <trkpt lat="48.80285" lon="2.24644">
        <ele>164</ele>
        <time>2020-12-05T14:59:48.095Z</time>
      </trkpt>
      <trkpt lat="48.80286" lon="2.24646">
        <ele>164</ele>
        <time>2020-12-05T14:59:49.095Z</time>
      </trkpt>
      <trkpt lat="48.80286" lon="2.24648">
        <ele>164</ele>
        <time>2020-12-05T14:59:50.095Z</time>
      </trkpt>
      <trkpt lat="48.80287" lon="2.24649">
        <ele>163</ele>
        <time>2020-12-05T14:59:51.094Z</time>
      </trkpt>
      <trkpt lat="48.80287" lon="2.2465">
        <ele>163</ele>
        <time>2020-12-05T14:59:52.095Z</time>
      </trkpt>
      <trkpt lat="48.80287" lon="2.24653">
        <ele>163</ele>
        <time>2020-12-05T14:59:53.094Z</time>
      </trkpt>
      <trkpt lat="48.80286" lon="2.24656">
        <ele>163</ele>
        <time>2020-12-05T14:59:54.094Z</time>
      </trkpt>
      <trkpt lat="48.80284" lon="2.24659">
        <ele>163</ele>
        <time>2020-12-05T14:59:55.094Z</time>
      </trkpt>
      <trkpt lat="48.80284" lon="2.24661">
        <ele>163</ele>
        <time>2020-12-05T14:59:56.095Z</time>
      </trkpt>
      <trkpt lat="48.80283" lon="2.24662">
        <ele>162</ele>
        <time>2020-12-05T14:59:57.095Z</time>
      </trkpt>
      <trkpt lat="48.80283" lon="2.24663">
        <ele>162</ele>
        <time>2020-12-05T14:59:58.095Z</time>
      </trkpt>
      <trkpt lat="48.80283" lon="2.24664">
        <ele>162</ele>
        <time>2020-12-05T14:59:59.095Z</time>
      </trkpt>
      <trkpt lat="48.80282" lon="2.24665">
        <ele>161</ele>
        <time>2020-12-05T15:00:00.095Z</time>
      </trkpt>
      <trkpt lat="48.80281" lon="2.24666">
        <ele>161</ele>
        <time>2020-12-05T15:00:01.095Z</time>
      </trkpt>
      <trkpt lat="48.80281" lon="2.24667">
        <ele>161</ele>
        <time>2020-12-05T15:00:02.095Z</time>
      </trkpt>
      <trkpt lat="48.8028" lon="2.24669">
        <ele>161</ele>
        <time>2020-12-05T15:00:03.095Z</time>
      </trkpt>
      <trkpt lat="48.8028" lon="2.24671">
        <ele>161</ele>
        <time>2020-12-05T15:00:04.094Z</time>
      </trkpt>
      <trkpt lat="48.8028" lon="2.24672">
        <ele>161</ele>
        <time>2020-12-05T15:00:05.095Z</time>
      </trkpt>
      <trkpt lat="48.8028" lon="2.24673">
        <ele>161</ele>
        <time>2020-12-05T15:00:06.095Z</time>
      </trkpt>
      <trkpt lat="48.8028" lon="2.24675">
        <ele>161</ele>
        <time>2020-12-05T15:00:07.095Z</time>
      </trkpt>
      <trkpt lat="48.8028" lon="2.24677">
        <ele>161</ele>
        <time>2020-12-05T15:00:08.095Z</time>
      </trkpt>
      <trkpt lat="48.8028" lon="2.24679">
        <ele>161</ele>
        <time>2020-12-05T15:00:09.095Z</time>
      </trkpt>
      <trkpt lat="48.80281" lon="2.24681">
        <ele>161</ele>
        <time>2020-12-05T15:00:10.095Z</time>
      </trkpt>
      <trkpt lat="48.80283" lon="2.24682">
        <ele>161</ele>
        <time>2020-12-05T15:00:11.095Z</time>
      </trkpt>
      <trkpt lat="48.80284" lon="2.24685">
        <ele>161</ele>
        <time>2020-12-05T15:00:12.095Z</time>
      </trkpt>
      <trkpt lat="48.80286" lon="2.24688">
        <ele>161</ele>
        <time>2020-12-05T15:00:13.095Z</time>
      </trkpt>
      <trkpt lat="48.80287" lon="2.2469">
        <ele>161</ele>
        <time>2020-12-05T15:00:14.095Z</time>
      </trkpt>
      <trkpt lat="48.80287" lon="2.24692">
        <ele>161</ele>
        <time>2020-12-05T15:00:15.095Z</time>
      </trkpt>
      <trkpt lat="48.80286" lon="2.24693">
        <ele>161</ele>
        <time>2020-12-05T15:00:16.094Z</time>
      </trkpt>
      <trkpt lat="48.80285" lon="2.24694">
        <ele>161</ele>
        <time>2020-12-05T15:00:17.095Z</time>
      </trkpt>
      <trkpt lat="48.80286" lon="2.24696">
        <ele>161</ele>
        <time>2020-12-05T15:00:18.095Z</time>
      </trkpt>
      <trkpt lat="48.80287" lon="2.24697">
        <ele>161</ele>
        <time>2020-12-05T15:00:19.095Z</time>
      </trkpt>
      <trkpt lat="48.80287" lon="2.24698">
        <ele>161</ele>
        <time>2020-12-05T15:00:20.094Z</time>
      </trkpt>
      <trkpt lat="48.80288" lon="2.247">
        <ele>161</ele>
        <time>2020-12-05T15:00:21.095Z</time>
      </trkpt>
      <trkpt lat="48.80288" lon="2.24701">
        <ele>160</ele>
        <time>2020-12-05T15:00:22.095Z</time>
      </trkpt>
      <trkpt lat="48.80288" lon="2.24703">
        <ele>160</ele>
        <time>2020-12-05T15:00:23.095Z</time>
      </trkpt>
      <trkpt lat="48.80289" lon="2.24704">
        <ele>160</ele>
        <time>2020-12-05T15:00:24.095Z</time>
      </trkpt>
      <trkpt lat="48.80289" lon="2.24705">
        <ele>160</ele>
        <time>2020-12-05T15:00:25.095Z</time>
      </trkpt>
      <trkpt lat="48.80289" lon="2.24706">
        <ele>160</ele>
        <time>2020-12-05T15:00:26.095Z</time>
      </trkpt>
      <trkpt lat="48.80289" lon="2.24708">
        <ele>160</ele>
        <time>2020-12-05T15:00:27.094Z</time>
      </trkpt>
      <trkpt lat="48.80289" lon="2.24709">
        <ele>159</ele>
        <time>2020-12-05T15:00:28.094Z</time>
      </trkpt>
      <trkpt lat="48.80289" lon="2.2471">
        <ele>159</ele>
        <time>2020-12-05T15:00:29.095Z</time>
      </trkpt>
      <trkpt lat="48.80289" lon="2.24711">
        <ele>159</ele>
        <time>2020-12-05T15:00:30.095Z</time>
      </trkpt>
      <trkpt lat="48.8029" lon="2.24712">
        <ele>159</ele>
        <time>2020-12-05T15:00:31.095Z</time>
      </trkpt>
      <trkpt lat="48.8029" lon="2.24713">
        <ele>159</ele>
        <time>2020-12-05T15:00:32.095Z</time>
      </trkpt>
      <trkpt lat="48.80291" lon="2.24713">
        <ele>159</ele>
        <time>2020-12-05T15:00:33.094Z</time>
      </trkpt>
      <trkpt lat="48.80291" lon="2.24714">
        <ele>159</ele>
        <time>2020-12-05T15:00:34.095Z</time>
      </trkpt>
      <trkpt lat="48.8029" lon="2.24714">
        <ele>160</ele>
        <time>2020-12-05T15:00:35.095Z</time>
      </trkpt>
      <trkpt lat="48.8029" lon="2.24714">
        <ele>160</ele>
        <time>2020-12-05T15:00:36.095Z</time>
      </trkpt>
      <trkpt lat="48.8029" lon="2.24715">
        <ele>160</ele>
        <time>2020-12-05T15:00:37.095Z</time>
      </trkpt>
      <trkpt lat="48.8029" lon="2.24716">
        <ele>161</ele>
        <time>2020-12-05T15:00:38.094Z</time>
      </trkpt>
      <trkpt lat="48.8029" lon="2.24717">
        <ele>161</ele>
        <time>2020-12-05T15:00:39.094Z</time>
      </trkpt>
      <trkpt lat="48.80289" lon="2.24718">
        <ele>162</ele>
        <time>2020-12-05T15:00:40.094Z</time>
      </trkpt>
      <trkpt lat="48.80289" lon="2.24719">
        <ele>162</ele>
        <time>2020-12-05T15:00:41.094Z</time>
      </trkpt>
      <trkpt lat="48.80289" lon="2.2472">
        <ele>163</ele>
        <time>2020-12-05T15:00:42.095Z</time>
      </trkpt>
      <trkpt lat="48.8029" lon="2.2472">
        <ele>163</ele>
        <time>2020-12-05T15:00:43.095Z</time>
      </trkpt>
      <trkpt lat="48.8029" lon="2.24721">
        <ele>163</ele>
        <time>2020-12-05T15:00:44.095Z</time>
      </trkpt>
      <trkpt lat="48.8029" lon="2.24721">
        <ele>164</ele>
        <time>2020-12-05T15:00:45.095Z</time>
      </trkpt>
      <trkpt lat="48.8029" lon="2.24721">
        <ele>164</ele>
        <time>2020-12-05T15:00:46.095Z</time>
      </trkpt>
      <trkpt lat="48.80289" lon="2.2472">
        <ele>165</ele>
        <time>2020-12-05T15:00:47.095Z</time>
      </trkpt>
      <trkpt lat="48.80289" lon="2.24721">
        <ele>165</ele>
        <time>2020-12-05T15:00:48.095Z</time>
      </trkpt>
      <trkpt lat="48.80288" lon="2.24721">
        <ele>165</ele>
        <time>2020-12-05T15:00:49.095Z</time>
      </trkpt>
      <trkpt lat="48.80288" lon="2.24722">
        <ele>166</ele>
        <time>2020-12-05T15:00:50.094Z</time>
      </trkpt>
      <trkpt lat="48.80288" lon="2.24722">
        <ele>166</ele>
        <time>2020-12-05T15:00:51.094Z</time>
      </trkpt>
      <trkpt lat="48.80289" lon="2.24722">
        <ele>167</ele>
        <time>2020-12-05T15:00:52.094Z</time>
      </trkpt>
      <trkpt lat="48.80289" lon="2.24722">
        <ele>168</ele>
        <time>2020-12-05T15:00:53.095Z</time>
      </trkpt>
      <trkpt lat="48.80289" lon="2.24722">
        <ele>168</ele>
        <time>2020-12-05T15:00:54.095Z</time>
      </trkpt>
      <trkpt lat="48.80289" lon="2.24722">
        <ele>169</ele>
        <time>2020-12-05T15:00:55.095Z</time>
      </trkpt>
      <trkpt lat="48.80289" lon="2.24722">
        <ele>169</ele>
        <time>2020-12-05T15:00:56.095Z</time>
      </trkpt>
      <trkpt lat="48.80289" lon="2.24722">
        <ele>170</ele>
        <time>2020-12-05T15:00:57.095Z</time>
      </trkpt>
      <trkpt lat="48.80289" lon="2.24722">
        <ele>170</ele>
        <time>2020-12-05T15:00:58.094Z</time>
      </trkpt>
      <trkpt lat="48.80289" lon="2.24722">
        <ele>171</ele>
        <time>2020-12-05T15:00:59.094Z</time>
      </trkpt>
      <trkpt lat="48.80289" lon="2.24722">
        <ele>171</ele>
        <time>2020-12-05T15:01:00.094Z</time>
      </trkpt>
      <trkpt lat="48.80289" lon="2.24722">
        <ele>171</ele>
        <time>2020-12-05T15:01:01.094Z</time>
      </trkpt>
      <trkpt lat="48.80289" lon="2.24722">
        <ele>171</ele>
        <time>2020-12-05T15:01:02.095Z</time>
      </trkpt>
      <trkpt lat="48.80289" lon="2.24722">
        <ele>172</ele>
        <time>2020-12-05T15:01:03.095Z</time>
      </trkpt>
      <trkpt lat="48.80289" lon="2.24722">
        <ele>172</ele>
        <time>2020-12-05T15:01:04.094Z</time>
      </trkpt>
      <trkpt lat="48.80289" lon="2.24722">
        <ele>172</ele>
        <time>2020-12-05T15:01:05.094Z</time>
      </trkpt>
      <trkpt lat="48.80289" lon="2.24722">
        <ele>172</ele>
        <time>2020-12-05T15:01:06.094Z</time>
      </trkpt>
      <trkpt lat="48.80289" lon="2.24722">
        <ele>172</ele>
        <time>2020-12-05T15:01:07.095Z</time>
      </trkpt>
      <trkpt lat="48.80289" lon="2.24722">
        <ele>172</ele>
        <time>2020-12-05T15:01:08.095Z</time>
      </trkpt>
      <trkpt lat="48.80289" lon="2.24722">
        <ele>172</ele>
        <time>2020-12-05T15:01:09.095Z</time>
      </trkpt>
      <trkpt lat="48.80289" lon="2.24722">
        <ele>172</ele>
        <time>2020-12-05T15:01:10.095Z</time>
      </trkpt>
      <trkpt lat="48.8029" lon="2.24722">
        <ele>172</ele>
        <time>2020-12-05T15:01:11.095Z</time>
      </trkpt>
      <trkpt lat="48.8029" lon="2.24722">
        <ele>172</ele>
        <time>2020-12-05T15:01:12.095Z</time>
      </trkpt>
      <trkpt lat="48.8029" lon="2.24722">
        <ele>172</ele>
        <time>2020-12-05T15:01:13.094Z</time>
      </trkpt>
      <trkpt lat="48.8029" lon="2.24722">
        <ele>172</ele>
        <time>2020-12-05T15:01:14.094Z</time>
      </trkpt>
      <trkpt lat="48.8029" lon="2.24722">
        <ele>172</ele>
        <time>2020-12-05T15:01:15.095Z</time>
      </trkpt>
      <trkpt lat="48.8029" lon="2.24722">
        <ele>172</ele>
        <time>2020-12-05T15:01:16.095Z</time>
      </trkpt>
      <trkpt lat="48.80291" lon="2.24722">
        <ele>172</ele>
        <time>2020-12-05T15:01:17.095Z</time>
      </trkpt>
      <trkpt lat="48.80291" lon="2.24722">
        <ele>172</ele>
        <time>2020-12-05T15:01:18.095Z</time>
      </trkpt>
      <trkpt lat="48.80291" lon="2.24722">
        <ele>172</ele>
        <time>2020-12-05T15:01:19.095Z</time>
      </trkpt>
      <trkpt lat="48.80291" lon="2.24722">
        <ele>172</ele>
        <time>2020-12-05T15:01:20.095Z</time>
      </trkpt>
      <trkpt lat="48.80291" lon="2.24722">
        <ele>172</ele>
        <time>2020-12-05T15:01:21.095Z</time>
      </trkpt>
      <trkpt lat="48.80291" lon="2.24722">
        <ele>172</ele>
        <time>2020-12-05T15:01:22.095Z</time>
      </trkpt>
      <trkpt lat="48.80291" lon="2.24722">
        <ele>172</ele>
        <time>2020-12-05T15:01:23.095Z</time>
      </trkpt>
      <trkpt lat="48.80291" lon="2.24722">
        <ele>172</ele>
        <time>2020-12-05T15:01:24.095Z</time>
      </trkpt>
      <trkpt lat="48.80291" lon="2.24722">
        <ele>172</ele>
        <time>2020-12-05T15:01:25.095Z</time>
      </trkpt>
      <trkpt lat="48.80292" lon="2.24722">
        <ele>172</ele>
        <time>2020-12-05T15:01:26.094Z</time>
      </trkpt>
      <trkpt lat="48.80292" lon="2.24722">
        <ele>172</ele>
        <time>2020-12-05T15:01:27.094Z</time>
      </trkpt>
      <trkpt lat="48.80293" lon="2.24723">
        <ele>172</ele>
        <time>2020-12-05T15:01:28.095Z</time>
      </trkpt>
      <trkpt lat="48.80293" lon="2.24725">
        <ele>172</ele>
        <time>2020-12-05T15:01:29.095Z</time>
      </trkpt>
      <trkpt lat="48.80294" lon="2.24726">
        <ele>172</ele>
        <time>2020-12-05T15:01:30.095Z</time>
      </trkpt>
      <trkpt lat="48.80295" lon="2.24727">
        <ele>172</ele>
        <time>2020-12-05T15:01:31.094Z</time>
      </trkpt>
      <trkpt lat="48.80295" lon="2.24727">
        <ele>172</ele>
        <time>2020-12-05T15:01:32.095Z</time>
      </trkpt>
      <trkpt lat="48.80295" lon="2.24727">
        <ele>172</ele>
        <time>2020-12-05T15:01:33.094Z</time>
      </trkpt>
      <trkpt lat="48.80295" lon="2.24727">
        <ele>172</ele>
        <time>2020-12-05T15:01:34.094Z</time>
      </trkpt>
      <trkpt lat="48.80295" lon="2.24729">
        <ele>172</ele>
        <time>2020-12-05T15:01:35.094Z</time>
      </trkpt>
      <trkpt lat="48.80295" lon="2.24729">
        <ele>172</ele>
        <time>2020-12-05T15:01:36.094Z</time>
      </trkpt>
      <trkpt lat="48.80296" lon="2.2473">
        <ele>172</ele>
        <time>2020-12-05T15:01:37.095Z</time>
      </trkpt>
      <trkpt lat="48.80297" lon="2.24729">
        <ele>172</ele>
        <time>2020-12-05T15:01:38.095Z</time>
      </trkpt>
      <trkpt lat="48.80298" lon="2.24729">
        <ele>171</ele>
        <time>2020-12-05T15:01:39.094Z</time>
      </trkpt>
      <trkpt lat="48.80299" lon="2.24729">
        <ele>171</ele>
        <time>2020-12-05T15:01:40.094Z</time>
      </trkpt>
      <trkpt lat="48.803" lon="2.24729">
        <ele>171</ele>
        <time>2020-12-05T15:01:41.094Z</time>
      </trkpt>
      <trkpt lat="48.803" lon="2.2473">
        <ele>170</ele>
        <time>2020-12-05T15:01:42.094Z</time>
      </trkpt>
      <trkpt lat="48.80301" lon="2.2473">
        <ele>170</ele>
        <time>2020-12-05T15:01:43.095Z</time>
      </trkpt>
      <trkpt lat="48.80301" lon="2.2473">
        <ele>169</ele>
        <time>2020-12-05T15:01:44.095Z</time>
      </trkpt>
      <trkpt lat="48.80299" lon="2.24731">
        <ele>169</ele>
        <time>2020-12-05T15:01:45.095Z</time>
      </trkpt>
      <trkpt lat="48.80298" lon="2.24732">
        <ele>169</ele>
        <time>2020-12-05T15:01:46.095Z</time>
      </trkpt>
      <trkpt lat="48.80297" lon="2.24733">
        <ele>168</ele>
        <time>2020-12-05T15:01:47.095Z</time>
      </trkpt>
      <trkpt lat="48.80296" lon="2.24733">
        <ele>168</ele>
        <time>2020-12-05T15:01:48.094Z</time>
      </trkpt>
      <trkpt lat="48.80295" lon="2.24733">
        <ele>167</ele>
        <time>2020-12-05T15:01:49.094Z</time>
      </trkpt>
      <trkpt lat="48.80295" lon="2.24733">
        <ele>167</ele>
        <time>2020-12-05T15:01:50.094Z</time>
      </trkpt>
      <trkpt lat="48.80294" lon="2.24733">
        <ele>166</ele>
        <time>2020-12-05T15:01:51.095Z</time>
      </trkpt>
      <trkpt lat="48.80294" lon="2.24731">
        <ele>166</ele>
        <time>2020-12-05T15:01:52.095Z</time>
      </trkpt>
      <trkpt lat="48.80295" lon="2.2473">
        <ele>166</ele>
        <time>2020-12-05T15:01:53.094Z</time>
      </trkpt>
      <trkpt lat="48.80297" lon="2.2473">
        <ele>165</ele>
        <time>2020-12-05T15:01:54.094Z</time>
      </trkpt>
      <trkpt lat="48.80298" lon="2.2473">
        <ele>165</ele>
        <time>2020-12-05T15:01:55.095Z</time>
      </trkpt>
      <trkpt lat="48.80299" lon="2.24731">
        <ele>164</ele>
        <time>2020-12-05T15:01:56.095Z</time>
      </trkpt>
      <trkpt lat="48.803" lon="2.24732">
        <ele>164</ele>
        <time>2020-12-05T15:01:57.095Z</time>
      </trkpt>
      <trkpt lat="48.80299" lon="2.24731">
        <ele>163</ele>
        <time>2020-12-05T15:01:58.094Z</time>
      </trkpt>
      <trkpt lat="48.80298" lon="2.2473">
        <ele>163</ele>
        <time>2020-12-05T15:01:59.094Z</time>
      </trkpt>
      <trkpt lat="48.80297" lon="2.24729">
        <ele>162</ele>
        <time>2020-12-05T15:02:00.094Z</time>
      </trkpt>
      <trkpt lat="48.80295" lon="2.24728">
        <ele>162</ele>
        <time>2020-12-05T15:02:01.094Z</time>
      </trkpt>
      <trkpt lat="48.80295" lon="2.24729">
        <ele>161</ele>
        <time>2020-12-05T15:02:02.095Z</time>
      </trkpt>
      <trkpt lat="48.80295" lon="2.24731">
        <ele>160</ele>
        <time>2020-12-05T15:02:03.095Z</time>
      </trkpt>
      <trkpt lat="48.80294" lon="2.24732">
        <ele>160</ele>
        <time>2020-12-05T15:02:04.095Z</time>
      </trkpt>
      <trkpt lat="48.80293" lon="2.24732">
        <ele>159</ele>
        <time>2020-12-05T15:02:05.095Z</time>
      </trkpt>
      <trkpt lat="48.80292" lon="2.24732">
        <ele>159</ele>
        <time>2020-12-05T15:02:06.095Z</time>
      </trkpt>
      <trkpt lat="48.80291" lon="2.24732">
        <ele>159</ele>
        <time>2020-12-05T15:02:07.095Z</time>
      </trkpt>
      <trkpt lat="48.8029" lon="2.24732">
        <ele>160</ele>
        <time>2020-12-05T15:02:08.095Z</time>
      </trkpt>
      <trkpt lat="48.8029" lon="2.24733">
        <ele>160</ele>
        <time>2020-12-05T15:02:09.095Z</time>
      </trkpt>
      <trkpt lat="48.8029" lon="2.24734">
        <ele>160</ele>
        <time>2020-12-05T15:02:10.095Z</time>
      </trkpt>
      <trkpt lat="48.80292" lon="2.24735">
        <ele>161</ele>
        <time>2020-12-05T15:02:11.094Z</time>
      </trkpt>
      <trkpt lat="48.80292" lon="2.24735">
        <ele>161</ele>
        <time>2020-12-05T15:02:12.094Z</time>
      </trkpt>
      <trkpt lat="48.80293" lon="2.24736">
        <ele>162</ele>
        <time>2020-12-05T15:02:13.095Z</time>
      </trkpt>
      <trkpt lat="48.80294" lon="2.24737">
        <ele>162</ele>
        <time>2020-12-05T15:02:14.095Z</time>
      </trkpt>
      <trkpt lat="48.80295" lon="2.24738">
        <ele>163</ele>
        <time>2020-12-05T15:02:15.095Z</time>
      </trkpt>
      <trkpt lat="48.80296" lon="2.24738">
        <ele>163</ele>
        <time>2020-12-05T15:02:16.095Z</time>
      </trkpt>
      <trkpt lat="48.80297" lon="2.24739">
        <ele>163</ele>
        <time>2020-12-05T15:02:17.095Z</time>
      </trkpt>
      <trkpt lat="48.80298" lon="2.2474">
        <ele>164</ele>
        <time>2020-12-05T15:02:18.094Z</time>
      </trkpt>
      <trkpt lat="48.80298" lon="2.2474">
        <ele>164</ele>
        <time>2020-12-05T15:02:19.095Z</time>
      </trkpt>
      <trkpt lat="48.80298" lon="2.24741">
        <ele>164</ele>
        <time>2020-12-05T15:02:20.095Z</time>
      </trkpt>
      <trkpt lat="48.80297" lon="2.24741">
        <ele>164</ele>
        <time>2020-12-05T15:02:21.095Z</time>
      </trkpt>
      <trkpt lat="48.80297" lon="2.24741">
        <ele>164</ele>
        <time>2020-12-05T15:02:22.095Z</time>
      </trkpt>
      <trkpt lat="48.80296" lon="2.24741">
        <ele>164</ele>
        <time>2020-12-05T15:02:23.095Z</time>
      </trkpt>
      <trkpt lat="48.80296" lon="2.24741">
        <ele>164</ele>
        <time>2020-12-05T15:02:24.094Z</time>
      </trkpt>
      <trkpt lat="48.80296" lon="2.24741">
        <ele>164</ele>
        <time>2020-12-05T15:02:25.094Z</time>
      </trkpt>
      <trkpt lat="48.80295" lon="2.24741">
        <ele>163</ele>
        <time>2020-12-05T15:02:26.095Z</time>
      </trkpt>
      <trkpt lat="48.80295" lon="2.24741">
        <ele>163</ele>
        <time>2020-12-05T15:02:27.095Z</time>
      </trkpt>
      <trkpt lat="48.80295" lon="2.24741">
        <ele>163</ele>
        <time>2020-12-05T15:02:28.095Z</time>
      </trkpt>
      <trkpt lat="48.80295" lon="2.24742">
        <ele>162</ele>
        <time>2020-12-05T15:02:29.095Z</time>
      </trkpt>
      <trkpt lat="48.80295" lon="2.24742">
        <ele>162</ele>
        <time>2020-12-05T15:02:30.095Z</time>
      </trkpt>
      <trkpt lat="48.80295" lon="2.24742">
        <ele>162</ele>
        <time>2020-12-05T15:02:31.095Z</time>
      </trkpt>
      <trkpt lat="48.80295" lon="2.24741">
        <ele>162</ele>
        <time>2020-12-05T15:02:32.095Z</time>
      </trkpt>
      <trkpt lat="48.80295" lon="2.24741">
        <ele>162</ele>
        <time>2020-12-05T15:02:33.095Z</time>
      </trkpt>
      <trkpt lat="48.80295" lon="2.24741">
        <ele>161</ele>
        <time>2020-12-05T15:02:34.095Z</time>
      </trkpt>
      <trkpt lat="48.80296" lon="2.24741">
        <ele>162</ele>
        <time>2020-12-05T15:02:35.095Z</time>
      </trkpt>
      <trkpt lat="48.80296" lon="2.24743">
        <ele>162</ele>
        <time>2020-12-05T15:02:36.095Z</time>
      </trkpt>
      <trkpt lat="48.80297" lon="2.24744">
        <ele>162</ele>
        <time>2020-12-05T15:02:37.094Z</time>
      </trkpt>
      <trkpt lat="48.80299" lon="2.24746">
        <ele>162</ele>
        <time>2020-12-05T15:02:38.094Z</time>
      </trkpt>
      <trkpt lat="48.803" lon="2.24748">
        <ele>162</ele>
        <time>2020-12-05T15:02:39.095Z</time>
      </trkpt>
      <trkpt lat="48.80301" lon="2.24749">
        <ele>163</ele>
        <time>2020-12-05T15:02:40.095Z</time>
      </trkpt>
      <trkpt lat="48.80301" lon="2.24751">
        <ele>163</ele>
        <time>2020-12-05T15:02:41.094Z</time>
      </trkpt>
      <trkpt lat="48.80302" lon="2.24753">
        <ele>163</ele>
        <time>2020-12-05T15:02:42.094Z</time>
      </trkpt>
      <trkpt lat="48.80303" lon="2.24755">
        <ele>164</ele>
        <time>2020-12-05T15:02:43.095Z</time>
      </trkpt>
      <trkpt lat="48.80304" lon="2.24757">
        <ele>164</ele>
        <time>2020-12-05T15:02:44.095Z</time>
      </trkpt>
      <trkpt lat="48.80305" lon="2.24759">
        <ele>165</ele>
        <time>2020-12-05T15:02:45.095Z</time>
      </trkpt>
      <trkpt lat="48.80307" lon="2.24761">
        <ele>165</ele>
        <time>2020-12-05T15:02:46.095Z</time>
      </trkpt>
      <trkpt lat="48.80308" lon="2.24762">
        <ele>165</ele>
        <time>2020-12-05T15:02:47.094Z</time>
      </trkpt>
      <trkpt lat="48.80309" lon="2.24764">
        <ele>165</ele>
        <time>2020-12-05T15:02:48.094Z</time>
      </trkpt>
      <trkpt lat="48.80311" lon="2.24766">
        <ele>165</ele>
        <time>2020-12-05T15:02:49.094Z</time>
      </trkpt>
      <trkpt lat="48.80311" lon="2.24767">
        <ele>166</ele>
        <time>2020-12-05T15:02:50.095Z</time>
      </trkpt>
      <trkpt lat="48.80312" lon="2.24768">
        <ele>166</ele>
        <time>2020-12-05T15:02:51.095Z</time>
      </trkpt>
      <trkpt lat="48.80314" lon="2.24769">
        <ele>166</ele>
        <time>2020-12-05T15:02:52.095Z</time>
      </trkpt>
      <trkpt lat="48.80315" lon="2.24771">
        <ele>166</ele>
        <time>2020-12-05T15:02:53.095Z</time>
      </trkpt>
      <trkpt lat="48.80316" lon="2.24772">
        <ele>166</ele>
        <time>2020-12-05T15:02:54.095Z</time>
      </trkpt>
      <trkpt lat="48.80317" lon="2.24774">
        <ele>167</ele>
        <time>2020-12-05T15:02:55.094Z</time>
      </trkpt>
      <trkpt lat="48.80317" lon="2.24774">
        <ele>167</ele>
        <time>2020-12-05T15:02:56.094Z</time>
      </trkpt>
      <trkpt lat="48.80317" lon="2.24775">
        <ele>167</ele>
        <time>2020-12-05T15:02:57.094Z</time>
      </trkpt>
      <trkpt lat="48.80317" lon="2.24775">
        <ele>167</ele>
        <time>2020-12-05T15:02:58.094Z</time>
      </trkpt>
      <trkpt lat="48.80318" lon="2.24776">
        <ele>167</ele>
        <time>2020-12-05T15:02:59.095Z</time>
      </trkpt>
      <trkpt lat="48.80319" lon="2.24777">
        <ele>167</ele>
        <time>2020-12-05T15:03:00.095Z</time>
      </trkpt>
      <trkpt lat="48.8032" lon="2.24779">
        <ele>167</ele>
        <time>2020-12-05T15:03:01.095Z</time>
      </trkpt>
      <trkpt lat="48.80321" lon="2.24781">
        <ele>167</ele>
        <time>2020-12-05T15:03:02.095Z</time>
      </trkpt>
      <trkpt lat="48.80322" lon="2.24782">
        <ele>167</ele>
        <time>2020-12-05T15:03:03.095Z</time>
      </trkpt>
      <trkpt lat="48.80323" lon="2.24783">
        <ele>167</ele>
        <time>2020-12-05T15:03:04.095Z</time>
      </trkpt>
      <trkpt lat="48.80323" lon="2.24784">
        <ele>168</ele>
        <time>2020-12-05T15:03:05.095Z</time>
      </trkpt>
      <trkpt lat="48.80326" lon="2.24784">
        <ele>168</ele>
        <time>2020-12-05T15:03:06.095Z</time>
      </trkpt>
      <trkpt lat="48.80327" lon="2.24785">
        <ele>168</ele>
        <time>2020-12-05T15:03:07.095Z</time>
      </trkpt>
      <trkpt lat="48.80329" lon="2.24786">
        <ele>168</ele>
        <time>2020-12-05T15:03:08.095Z</time>
      </trkpt>
      <trkpt lat="48.8033" lon="2.24787">
        <ele>168</ele>
        <time>2020-12-05T15:03:09.095Z</time>
      </trkpt>
      <trkpt lat="48.80332" lon="2.24789">
        <ele>168</ele>
        <time>2020-12-05T15:03:10.095Z</time>
      </trkpt>
      <trkpt lat="48.80333" lon="2.2479">
        <ele>168</ele>
        <time>2020-12-05T15:03:11.094Z</time>
      </trkpt>
      <trkpt lat="48.80335" lon="2.24791">
        <ele>168</ele>
        <time>2020-12-05T15:03:12.095Z</time>
      </trkpt>
      <trkpt lat="48.80336" lon="2.24792">
        <ele>169</ele>
        <time>2020-12-05T15:03:13.094Z</time>
      </trkpt>
      <trkpt lat="48.80337" lon="2.24793">
        <ele>169</ele>
        <time>2020-12-05T15:03:14.095Z</time>
      </trkpt>
      <trkpt lat="48.80337" lon="2.24794">
        <ele>169</ele>
        <time>2020-12-05T15:03:15.095Z</time>
      </trkpt>
      <trkpt lat="48.80337" lon="2.24795">
        <ele>169</ele>
        <time>2020-12-05T15:03:16.095Z</time>
      </trkpt>
      <trkpt lat="48.80338" lon="2.24797">
        <ele>169</ele>
        <time>2020-12-05T15:03:17.095Z</time>
      </trkpt>
      <trkpt lat="48.80339" lon="2.24798">
        <ele>170</ele>
        <time>2020-12-05T15:03:18.095Z</time>
      </trkpt>
      <trkpt lat="48.80341" lon="2.24801">
        <ele>170</ele>
        <time>2020-12-05T15:03:19.094Z</time>
      </trkpt>
      <trkpt lat="48.80343" lon="2.24803">
        <ele>170</ele>
        <time>2020-12-05T15:03:20.094Z</time>
      </trkpt>
      <trkpt lat="48.80345" lon="2.24806">
        <ele>170</ele>
        <time>2020-12-05T15:03:21.094Z</time>
      </trkpt>
      <trkpt lat="48.80346" lon="2.24807">
        <ele>170</ele>
        <time>2020-12-05T15:03:22.094Z</time>
      </trkpt>
      <trkpt lat="48.80347" lon="2.24808">
        <ele>169</ele>
        <time>2020-12-05T15:03:23.095Z</time>
      </trkpt>
      <trkpt lat="48.80347" lon="2.24809">
        <ele>169</ele>
        <time>2020-12-05T15:03:24.095Z</time>
      </trkpt>
      <trkpt lat="48.80347" lon="2.2481">
        <ele>168</ele>
        <time>2020-12-05T15:03:25.095Z</time>
      </trkpt>
      <trkpt lat="48.80348" lon="2.24811">
        <ele>167</ele>
        <time>2020-12-05T15:03:26.095Z</time>
      </trkpt>
      <trkpt lat="48.80349" lon="2.24813">
        <ele>167</ele>
        <time>2020-12-05T15:03:27.095Z</time>
      </trkpt>
      <trkpt lat="48.8035" lon="2.24814">
        <ele>167</ele>
        <time>2020-12-05T15:03:28.095Z</time>
      </trkpt>
      <trkpt lat="48.80351" lon="2.24816">
        <ele>166</ele>
        <time>2020-12-05T15:03:29.095Z</time>
      </trkpt>
      <trkpt lat="48.80352" lon="2.24817">
        <ele>166</ele>
        <time>2020-12-05T15:03:30.094Z</time>
      </trkpt>
      <trkpt lat="48.80353" lon="2.24819">
        <ele>166</ele>
        <time>2020-12-05T15:03:31.095Z</time>
      </trkpt>
      <trkpt lat="48.80353" lon="2.24819">
        <ele>166</ele>
        <time>2020-12-05T15:03:32.095Z</time>
      </trkpt>
      <trkpt lat="48.80354" lon="2.2482">
        <ele>166</ele>
        <time>2020-12-05T15:03:33.094Z</time>
      </trkpt>
      <trkpt lat="48.80353" lon="2.24821">
        <ele>166</ele>
        <time>2020-12-05T15:03:34.094Z</time>
      </trkpt>
      <trkpt lat="48.80353" lon="2.24821">
        <ele>166</ele>
        <time>2020-12-05T15:03:35.094Z</time>
      </trkpt>
      <trkpt lat="48.80351" lon="2.24822">
        <ele>166</ele>
        <time>2020-12-05T15:03:36.094Z</time>
      </trkpt>
      <trkpt lat="48.8035" lon="2.24822">
        <ele>165</ele>
        <time>2020-12-05T15:03:37.095Z</time>
      </trkpt>
      <trkpt lat="48.8035" lon="2.24821">
        <ele>165</ele>
        <time>2020-12-05T15:03:38.095Z</time>
      </trkpt>
      <trkpt lat="48.8035" lon="2.24821">
        <ele>165</ele>
        <time>2020-12-05T15:03:39.095Z</time>
      </trkpt>
      <trkpt lat="48.80349" lon="2.24822">
        <ele>165</ele>
        <time>2020-12-05T15:03:40.095Z</time>
      </trkpt>
      <trkpt lat="48.80348" lon="2.24822">
        <ele>164</ele>
        <time>2020-12-05T15:03:41.094Z</time>
      </trkpt>
      <trkpt lat="48.80348" lon="2.24824">
        <ele>164</ele>
        <time>2020-12-05T15:03:42.094Z</time>
      </trkpt>
      <trkpt lat="48.80348" lon="2.24825">
        <ele>163</ele>
        <time>2020-12-05T15:03:43.094Z</time>
      </trkpt>
      <trkpt lat="48.80348" lon="2.24826">
        <ele>163</ele>
        <time>2020-12-05T15:03:44.095Z</time>
      </trkpt>
      <trkpt lat="48.80348" lon="2.24828">
        <ele>162</ele>
        <time>2020-12-05T15:03:45.094Z</time>
      </trkpt>
      <trkpt lat="48.80347" lon="2.24829">
        <ele>162</ele>
        <time>2020-12-05T15:03:46.094Z</time>
      </trkpt>
      <trkpt lat="48.80347" lon="2.2483">
        <ele>161</ele>
        <time>2020-12-05T15:03:47.094Z</time>
      </trkpt>
      <trkpt lat="48.80348" lon="2.24831">
        <ele>160</ele>
        <time>2020-12-05T15:03:48.095Z</time>
      </trkpt>
      <trkpt lat="48.80349" lon="2.24833">
        <ele>160</ele>
        <time>2020-12-05T15:03:49.095Z</time>
      </trkpt>
      <trkpt lat="48.8035" lon="2.24834">
        <ele>160</ele>
        <time>2020-12-05T15:03:50.095Z</time>
      </trkpt>
      <trkpt lat="48.80351" lon="2.24836">
        <ele>160</ele>
        <time>2020-12-05T15:03:51.095Z</time>
      </trkpt>
      <trkpt lat="48.80352" lon="2.24837">
        <ele>159</ele>
        <time>2020-12-05T15:03:52.095Z</time>
      </trkpt>
      <trkpt lat="48.80352" lon="2.24839">
        <ele>159</ele>
        <time>2020-12-05T15:03:53.095Z</time>
      </trkpt>
      <trkpt lat="48.80353" lon="2.2484">
        <ele>159</ele>
        <time>2020-12-05T15:03:54.094Z</time>
      </trkpt>
      <trkpt lat="48.80355" lon="2.24842">
        <ele>159</ele>
        <time>2020-12-05T15:03:55.094Z</time>
      </trkpt>
      <trkpt lat="48.80356" lon="2.24843">
        <ele>159</ele>
        <time>2020-12-05T15:03:56.094Z</time>
      </trkpt>
      <trkpt lat="48.80357" lon="2.24845">
        <ele>159</ele>
        <time>2020-12-05T15:03:57.094Z</time>
      </trkpt>
      <trkpt lat="48.80357" lon="2.24847">
        <ele>159</ele>
        <time>2020-12-05T15:03:58.095Z</time>
      </trkpt>
      <trkpt lat="48.80357" lon="2.24849">
        <ele>159</ele>
        <time>2020-12-05T15:03:59.094Z</time>
      </trkpt>
      <trkpt lat="48.80358" lon="2.24852">
        <ele>160</ele>
        <time>2020-12-05T15:04:00.095Z</time>
      </trkpt>
      <trkpt lat="48.80359" lon="2.24853">
        <ele>160</ele>
        <time>2020-12-05T15:04:01.094Z</time>
      </trkpt>
      <trkpt lat="48.8036" lon="2.24855">
        <ele>160</ele>
        <time>2020-12-05T15:04:02.095Z</time>
      </trkpt>
      <trkpt lat="48.80361" lon="2.24857">
        <ele>161</ele>
        <time>2020-12-05T15:04:03.094Z</time>
      </trkpt>
      <trkpt lat="48.8036" lon="2.24859">
        <ele>161</ele>
        <time>2020-12-05T15:04:04.094Z</time>
      </trkpt>
      <trkpt lat="48.8036" lon="2.2486">
        <ele>161</ele>
        <time>2020-12-05T15:04:05.095Z</time>
      </trkpt>
      <trkpt lat="48.8036" lon="2.24862">
        <ele>162</ele>
        <time>2020-12-05T15:04:06.095Z</time>
      </trkpt>
      <trkpt lat="48.80361" lon="2.24864">
        <ele>162</ele>
        <time>2020-12-05T15:04:07.095Z</time>
      </trkpt>
      <trkpt lat="48.80362" lon="2.24866">
        <ele>162</ele>
        <time>2020-12-05T15:04:08.095Z</time>
      </trkpt>
      <trkpt lat="48.80364" lon="2.24868">
        <ele>162</ele>
        <time>2020-12-05T15:04:09.094Z</time>
      </trkpt>
      <trkpt lat="48.80364" lon="2.2487">
        <ele>162</ele>
        <time>2020-12-05T15:04:10.095Z</time>
      </trkpt>
      <trkpt lat="48.80365" lon="2.24872">
        <ele>163</ele>
        <time>2020-12-05T15:04:11.095Z</time>
      </trkpt>
      <trkpt lat="48.80365" lon="2.24875">
        <ele>163</ele>
        <time>2020-12-05T15:04:12.094Z</time>
      </trkpt>
      <trkpt lat="48.80366" lon="2.24876">
        <ele>163</ele>
        <time>2020-12-05T15:04:13.094Z</time>
      </trkpt>
      <trkpt lat="48.80366" lon="2.24878">
        <ele>162</ele>
        <time>2020-12-05T15:04:14.095Z</time>
      </trkpt>
      <trkpt lat="48.80367" lon="2.2488">
        <ele>162</ele>
        <time>2020-12-05T15:04:15.095Z</time>
      </trkpt>
      <trkpt lat="48.80367" lon="2.24881">
        <ele>162</ele>
        <time>2020-12-05T15:04:16.095Z</time>
      </trkpt>
      <trkpt lat="48.80367" lon="2.24883">
        <ele>162</ele>
        <time>2020-12-05T15:04:17.095Z</time>
      </trkpt>
      <trkpt lat="48.80366" lon="2.24885">
        <ele>162</ele>
        <time>2020-12-05T15:04:18.095Z</time>
      </trkpt>
      <trkpt lat="48.80366" lon="2.24887">
        <ele>162</ele>
        <time>2020-12-05T15:04:19.095Z</time>
      </trkpt>
      <trkpt lat="48.80366" lon="2.2489">
        <ele>162</ele>
        <time>2020-12-05T15:04:20.095Z</time>
      </trkpt>
      <trkpt lat="48.80365" lon="2.24892">
        <ele>162</ele>
        <time>2020-12-05T15:04:21.095Z</time>
      </trkpt>
      <trkpt lat="48.80365" lon="2.24894">
        <ele>162</ele>
        <time>2020-12-05T15:04:22.095Z</time>
      </trkpt>
      <trkpt lat="48.80365" lon="2.24896">
        <ele>162</ele>
        <time>2020-12-05T15:04:23.095Z</time>
      </trkpt>
      <trkpt lat="48.80365" lon="2.24897">
        <ele>162</ele>
        <time>2020-12-05T15:04:24.095Z</time>
      </trkpt>
      <trkpt lat="48.80365" lon="2.24899">
        <ele>163</ele>
        <time>2020-12-05T15:04:25.095Z</time>
      </trkpt>
      <trkpt lat="48.80366" lon="2.24901">
        <ele>163</ele>
        <time>2020-12-05T15:04:26.095Z</time>
      </trkpt>
      <trkpt lat="48.80367" lon="2.24903">
        <ele>163</ele>
        <time>2020-12-05T15:04:27.095Z</time>
      </trkpt>
      <trkpt lat="48.80368" lon="2.24904">
        <ele>163</ele>
        <time>2020-12-05T15:04:28.094Z</time>
      </trkpt>
      <trkpt lat="48.80369" lon="2.24906">
        <ele>163</ele>
        <time>2020-12-05T15:04:29.095Z</time>
      </trkpt>
      <trkpt lat="48.80369" lon="2.24908">
        <ele>163</ele>
        <time>2020-12-05T15:04:30.095Z</time>
      </trkpt>
      <trkpt lat="48.80369" lon="2.2491">
        <ele>163</ele>
        <time>2020-12-05T15:04:31.094Z</time>
      </trkpt>
      <trkpt lat="48.80369" lon="2.24912">
        <ele>164</ele>
        <time>2020-12-05T15:04:32.094Z</time>
      </trkpt>
      <trkpt lat="48.80369" lon="2.24914">
        <ele>164</ele>
        <time>2020-12-05T15:04:33.094Z</time>
      </trkpt>
      <trkpt lat="48.80369" lon="2.24916">
        <ele>164</ele>
        <time>2020-12-05T15:04:34.094Z</time>
      </trkpt>
      <trkpt lat="48.80369" lon="2.24918">
        <ele>164</ele>
        <time>2020-12-05T15:04:35.094Z</time>
      </trkpt>
      <trkpt lat="48.80369" lon="2.2492">
        <ele>164</ele>
        <time>2020-12-05T15:04:36.095Z</time>
      </trkpt>
      <trkpt lat="48.80368" lon="2.24922">
        <ele>165</ele>
        <time>2020-12-05T15:04:37.095Z</time>
      </trkpt>
      <trkpt lat="48.80367" lon="2.24924">
        <ele>165</ele>
        <time>2020-12-05T15:04:38.094Z</time>
      </trkpt>
      <trkpt lat="48.80367" lon="2.24926">
        <ele>165</ele>
        <time>2020-12-05T15:04:39.095Z</time>
      </trkpt>
      <trkpt lat="48.80367" lon="2.24928">
        <ele>165</ele>
        <time>2020-12-05T15:04:40.094Z</time>
      </trkpt>
      <trkpt lat="48.80366" lon="2.2493">
        <ele>165</ele>
        <time>2020-12-05T15:04:41.094Z</time>
      </trkpt>
      <trkpt lat="48.80364" lon="2.24933">
        <ele>165</ele>
        <time>2020-12-05T15:04:42.095Z</time>
      </trkpt>
      <trkpt lat="48.80364" lon="2.24936">
        <ele>165</ele>
        <time>2020-12-05T15:04:43.095Z</time>
      </trkpt>
      <trkpt lat="48.80363" lon="2.24939">
        <ele>165</ele>
        <time>2020-12-05T15:04:44.094Z</time>
      </trkpt>
      <trkpt lat="48.80362" lon="2.24942">
        <ele>165</ele>
        <time>2020-12-05T15:04:45.095Z</time>
      </trkpt>
      <trkpt lat="48.80362" lon="2.24946">
        <ele>165</ele>
        <time>2020-12-05T15:04:46.095Z</time>
      </trkpt>
      <trkpt lat="48.80362" lon="2.24948">
        <ele>165</ele>
        <time>2020-12-05T15:04:47.094Z</time>
      </trkpt>
      <trkpt lat="48.80362" lon="2.24951">
        <ele>166</ele>
        <time>2020-12-05T15:04:48.094Z</time>
      </trkpt>
      <trkpt lat="48.80362" lon="2.24953">
        <ele>166</ele>
        <time>2020-12-05T15:04:49.094Z</time>
      </trkpt>
      <trkpt lat="48.80361" lon="2.24955">
        <ele>166</ele>
        <time>2020-12-05T15:04:50.094Z</time>
      </trkpt>
      <trkpt lat="48.80361" lon="2.24958">
        <ele>166</ele>
        <time>2020-12-05T15:04:51.094Z</time>
      </trkpt>
      <trkpt lat="48.80362" lon="2.2496">
        <ele>166</ele>
        <time>2020-12-05T15:04:52.094Z</time>
      </trkpt>
      <trkpt lat="48.80363" lon="2.24961">
        <ele>166</ele>
        <time>2020-12-05T15:04:53.095Z</time>
      </trkpt>
      <trkpt lat="48.80364" lon="2.24962">
        <ele>166</ele>
        <time>2020-12-05T15:04:54.095Z</time>
      </trkpt>
      <trkpt lat="48.80365" lon="2.24963">
        <ele>167</ele>
        <time>2020-12-05T15:04:55.095Z</time>
      </trkpt>
      <trkpt lat="48.80366" lon="2.24964">
        <ele>167</ele>
        <time>2020-12-05T15:04:56.095Z</time>
      </trkpt>
      <trkpt lat="48.80367" lon="2.24965">
        <ele>167</ele>
        <time>2020-12-05T15:04:57.095Z</time>
      </trkpt>
      <trkpt lat="48.80367" lon="2.24966">
        <ele>167</ele>
        <time>2020-12-05T15:04:58.095Z</time>
      </trkpt>
      <trkpt lat="48.80367" lon="2.24967">
        <ele>167</ele>
        <time>2020-12-05T15:04:59.095Z</time>
      </trkpt>
      <trkpt lat="48.80367" lon="2.2497">
        <ele>167</ele>
        <time>2020-12-05T15:05:00.095Z</time>
      </trkpt>
      <trkpt lat="48.80366" lon="2.24971">
        <ele>167</ele>
        <time>2020-12-05T15:05:01.095Z</time>
      </trkpt>
      <trkpt lat="48.80367" lon="2.24973">
        <ele>168</ele>
        <time>2020-12-05T15:05:02.094Z</time>
      </trkpt>
      <trkpt lat="48.80367" lon="2.24973">
        <ele>168</ele>
        <time>2020-12-05T15:05:03.094Z</time>
      </trkpt>
      <trkpt lat="48.80368" lon="2.24974">
        <ele>168</ele>
        <time>2020-12-05T15:05:04.095Z</time>
      </trkpt>
      <trkpt lat="48.80367" lon="2.24974">
        <ele>168</ele>
        <time>2020-12-05T15:05:05.095Z</time>
      </trkpt>
      <trkpt lat="48.80367" lon="2.24974">
        <ele>168</ele>
        <time>2020-12-05T15:05:06.095Z</time>
      </trkpt>
      <trkpt lat="48.80367" lon="2.24975">
        <ele>169</ele>
        <time>2020-12-05T15:05:07.095Z</time>
      </trkpt>
      <trkpt lat="48.80367" lon="2.24976">
        <ele>169</ele>
        <time>2020-12-05T15:05:08.095Z</time>
      </trkpt>
      <trkpt lat="48.80367" lon="2.24977">
        <ele>169</ele>
        <time>2020-12-05T15:05:09.095Z</time>
      </trkpt>
      <trkpt lat="48.80367" lon="2.24978">
        <ele>169</ele>
        <time>2020-12-05T15:05:10.095Z</time>
      </trkpt>
      <trkpt lat="48.80366" lon="2.24978">
        <ele>169</ele>
        <time>2020-12-05T15:05:11.094Z</time>
      </trkpt>
      <trkpt lat="48.80366" lon="2.24978">
        <ele>169</ele>
        <time>2020-12-05T15:05:12.095Z</time>
      </trkpt>
      <trkpt lat="48.80366" lon="2.24979">
        <ele>169</ele>
        <time>2020-12-05T15:05:13.095Z</time>
      </trkpt>
      <trkpt lat="48.80367" lon="2.2498">
        <ele>169</ele>
        <time>2020-12-05T15:05:14.094Z</time>
      </trkpt>
      <trkpt lat="48.80367" lon="2.24982">
        <ele>169</ele>
        <time>2020-12-05T15:05:15.095Z</time>
      </trkpt>
      <trkpt lat="48.80367" lon="2.24983">
        <ele>169</ele>
        <time>2020-12-05T15:05:16.095Z</time>
      </trkpt>
      <trkpt lat="48.80367" lon="2.24983">
        <ele>169</ele>
        <time>2020-12-05T15:05:17.095Z</time>
      </trkpt>
      <trkpt lat="48.80367" lon="2.24983">
        <ele>169</ele>
        <time>2020-12-05T15:05:18.095Z</time>
      </trkpt>
      <trkpt lat="48.80366" lon="2.24985">
        <ele>169</ele>
        <time>2020-12-05T15:05:19.095Z</time>
      </trkpt>
      <trkpt lat="48.80365" lon="2.24986">
        <ele>169</ele>
        <time>2020-12-05T15:05:20.094Z</time>
      </trkpt>
      <trkpt lat="48.80364" lon="2.24988">
        <ele>169</ele>
        <time>2020-12-05T15:05:21.094Z</time>
      </trkpt>
      <trkpt lat="48.80363" lon="2.2499">
        <ele>169</ele>
        <time>2020-12-05T15:05:22.095Z</time>
      </trkpt>
      <trkpt lat="48.80362" lon="2.24991">
        <ele>169</ele>
        <time>2020-12-05T15:05:23.095Z</time>
      </trkpt>
      <trkpt lat="48.80362" lon="2.24992">
        <ele>169</ele>
        <time>2020-12-05T15:05:24.095Z</time>
      </trkpt>
      <trkpt lat="48.80361" lon="2.24993">
        <ele>169</ele>
        <time>2020-12-05T15:05:25.094Z</time>
      </trkpt>
      <trkpt lat="48.80361" lon="2.24993">
        <ele>168</ele>
        <time>2020-12-05T15:05:26.095Z</time>
      </trkpt>
      <trkpt lat="48.80361" lon="2.24993">
        <ele>168</ele>
        <time>2020-12-05T15:05:27.095Z</time>
      </trkpt>
      <trkpt lat="48.8036" lon="2.24994">
        <ele>168</ele>
        <time>2020-12-05T15:05:28.095Z</time>
      </trkpt>
      <trkpt lat="48.80361" lon="2.24994">
        <ele>168</ele>
        <time>2020-12-05T15:05:29.095Z</time>
      </trkpt>
      <trkpt lat="48.80362" lon="2.24995">
        <ele>168</ele>
        <time>2020-12-05T15:05:30.094Z</time>
      </trkpt>
      <trkpt lat="48.80362" lon="2.24995">
        <ele>167</ele>
        <time>2020-12-05T15:05:31.094Z</time>
      </trkpt>
      <trkpt lat="48.80362" lon="2.24995">
        <ele>167</ele>
        <time>2020-12-05T15:05:32.094Z</time>
      </trkpt>
      <trkpt lat="48.80362" lon="2.24995">
        <ele>166</ele>
        <time>2020-12-05T15:05:33.095Z</time>
      </trkpt>
      <trkpt lat="48.80362" lon="2.24995">
        <ele>166</ele>
        <time>2020-12-05T15:05:34.094Z</time>
      </trkpt>
      <trkpt lat="48.80361" lon="2.24995">
        <ele>166</ele>
        <time>2020-12-05T15:05:35.095Z</time>
      </trkpt>
      <trkpt lat="48.80361" lon="2.24996">
        <ele>166</ele>
        <time>2020-12-05T15:05:36.095Z</time>
      </trkpt>
      <trkpt lat="48.80361" lon="2.24996">
        <ele>166</ele>
        <time>2020-12-05T15:05:37.095Z</time>
      </trkpt>
      <trkpt lat="48.8036" lon="2.24995">
        <ele>165</ele>
        <time>2020-12-05T15:05:38.095Z</time>
      </trkpt>
      <trkpt lat="48.8036" lon="2.24995">
        <ele>165</ele>
        <time>2020-12-05T15:05:39.094Z</time>
      </trkpt>
      <trkpt lat="48.8036" lon="2.24993">
        <ele>166</ele>
        <time>2020-12-05T15:05:40.094Z</time>
      </trkpt>
      <trkpt lat="48.8036" lon="2.24991">
        <ele>166</ele>
        <time>2020-12-05T15:05:41.095Z</time>
      </trkpt>
      <trkpt lat="48.80361" lon="2.2499">
        <ele>166</ele>
        <time>2020-12-05T15:05:42.095Z</time>
      </trkpt>
      <trkpt lat="48.80361" lon="2.24991">
        <ele>166</ele>
        <time>2020-12-05T15:05:43.095Z</time>
      </trkpt>
      <trkpt lat="48.80361" lon="2.24993">
        <ele>166</ele>
        <time>2020-12-05T15:05:44.095Z</time>
      </trkpt>
      <trkpt lat="48.80361" lon="2.24995">
        <ele>166</ele>
        <time>2020-12-05T15:05:45.095Z</time>
      </trkpt>
      <trkpt lat="48.80361" lon="2.24996">
        <ele>166</ele>
        <time>2020-12-05T15:05:46.094Z</time>
      </trkpt>
      <trkpt lat="48.80361" lon="2.24997">
        <ele>167</ele>
        <time>2020-12-05T15:05:47.094Z</time>
      </trkpt>
      <trkpt lat="48.80362" lon="2.24997">
        <ele>167</ele>
        <time>2020-12-05T15:05:48.094Z</time>
      </trkpt>
      <trkpt lat="48.80362" lon="2.24998">
        <ele>167</ele>
        <time>2020-12-05T15:05:49.094Z</time>
      </trkpt>
      <trkpt lat="48.80363" lon="2.24999">
        <ele>167</ele>
        <time>2020-12-05T15:05:50.095Z</time>
      </trkpt>
      <trkpt lat="48.80364" lon="2.25">
        <ele>167</ele>
        <time>2020-12-05T15:05:51.095Z</time>
      </trkpt>
      <trkpt lat="48.80365" lon="2.25001">
        <ele>167</ele>
        <time>2020-12-05T15:05:52.095Z</time>
      </trkpt>
      <trkpt lat="48.80365" lon="2.25003">
        <ele>167</ele>
        <time>2020-12-05T15:05:53.094Z</time>
      </trkpt>
      <trkpt lat="48.80364" lon="2.25004">
        <ele>167</ele>
        <time>2020-12-05T15:05:54.095Z</time>
      </trkpt>
      <trkpt lat="48.80363" lon="2.25006">
        <ele>167</ele>
        <time>2020-12-05T15:05:55.095Z</time>
      </trkpt>
      <trkpt lat="48.80363" lon="2.25007">
        <ele>168</ele>
        <time>2020-12-05T15:05:56.095Z</time>
      </trkpt>
      <trkpt lat="48.80362" lon="2.25008">
        <ele>168</ele>
        <time>2020-12-05T15:05:57.094Z</time>
      </trkpt>
      <trkpt lat="48.8036" lon="2.25009">
        <ele>168</ele>
        <time>2020-12-05T15:05:58.094Z</time>
      </trkpt>
      <trkpt lat="48.80357" lon="2.25009">
        <ele>168</ele>
        <time>2020-12-05T15:05:59.094Z</time>
      </trkpt>
      <trkpt lat="48.80355" lon="2.25009">
        <ele>169</ele>
        <time>2020-12-05T15:06:00.094Z</time>
      </trkpt>
      <trkpt lat="48.80353" lon="2.2501">
        <ele>169</ele>
        <time>2020-12-05T15:06:01.095Z</time>
      </trkpt>
      <trkpt lat="48.80352" lon="2.25011">
        <ele>169</ele>
        <time>2020-12-05T15:06:02.094Z</time>
      </trkpt>
      <trkpt lat="48.80352" lon="2.25011">
        <ele>169</ele>
        <time>2020-12-05T15:06:03.095Z</time>
      </trkpt>
      <trkpt lat="48.80352" lon="2.25012">
        <ele>170</ele>
        <time>2020-12-05T15:06:04.095Z</time>
      </trkpt>
      <trkpt lat="48.80352" lon="2.25012">
        <ele>170</ele>
        <time>2020-12-05T15:06:05.094Z</time>
      </trkpt>
      <trkpt lat="48.80354" lon="2.25011">
        <ele>170</ele>
        <time>2020-12-05T15:06:06.094Z</time>
      </trkpt>
      <trkpt lat="48.80355" lon="2.25011">
        <ele>170</ele>
        <time>2020-12-05T15:06:07.095Z</time>
      </trkpt>
      <trkpt lat="48.80355" lon="2.25011">
        <ele>170</ele>
        <time>2020-12-05T15:06:08.095Z</time>
      </trkpt>
      <trkpt lat="48.80355" lon="2.25011">
        <ele>170</ele>
        <time>2020-12-05T15:06:09.095Z</time>
      </trkpt>
      <trkpt lat="48.80353" lon="2.25012">
        <ele>170</ele>
        <time>2020-12-05T15:06:10.095Z</time>
      </trkpt>
      <trkpt lat="48.80353" lon="2.25011">
        <ele>170</ele>
        <time>2020-12-05T15:06:11.095Z</time>
      </trkpt>
      <trkpt lat="48.80353" lon="2.25009">
        <ele>170</ele>
        <time>2020-12-05T15:06:12.095Z</time>
      </trkpt>
      <trkpt lat="48.80353" lon="2.2501">
        <ele>170</ele>
        <time>2020-12-05T15:06:13.095Z</time>
      </trkpt>
      <trkpt lat="48.80354" lon="2.25011">
        <ele>170</ele>
        <time>2020-12-05T15:06:14.095Z</time>
      </trkpt>
      <trkpt lat="48.80354" lon="2.25011">
        <ele>170</ele>
        <time>2020-12-05T15:06:15.095Z</time>
      </trkpt>
      <trkpt lat="48.80354" lon="2.25012">
        <ele>170</ele>
        <time>2020-12-05T15:06:16.095Z</time>
      </trkpt>
      <trkpt lat="48.80354" lon="2.25013">
        <ele>170</ele>
        <time>2020-12-05T15:06:17.095Z</time>
      </trkpt>
      <trkpt lat="48.80354" lon="2.25015">
        <ele>170</ele>
        <time>2020-12-05T15:06:18.095Z</time>
      </trkpt>
      <trkpt lat="48.80355" lon="2.25017">
        <ele>170</ele>
        <time>2020-12-05T15:06:19.095Z</time>
      </trkpt>
      <trkpt lat="48.80355" lon="2.25019">
        <ele>170</ele>
        <time>2020-12-05T15:06:20.095Z</time>
      </trkpt>
      <trkpt lat="48.80356" lon="2.25021">
        <ele>170</ele>
        <time>2020-12-05T15:06:21.095Z</time>
      </trkpt>
      <trkpt lat="48.80356" lon="2.25022">
        <ele>170</ele>
        <time>2020-12-05T15:06:22.095Z</time>
      </trkpt>
      <trkpt lat="48.80357" lon="2.25024">
        <ele>170</ele>
        <time>2020-12-05T15:06:23.095Z</time>
      </trkpt>
      <trkpt lat="48.80358" lon="2.25027">
        <ele>170</ele>
        <time>2020-12-05T15:06:24.095Z</time>
      </trkpt>
      <trkpt lat="48.80358" lon="2.25029">
        <ele>170</ele>
        <time>2020-12-05T15:06:25.095Z</time>
      </trkpt>
      <trkpt lat="48.80358" lon="2.25032">
        <ele>170</ele>
        <time>2020-12-05T15:06:26.095Z</time>
      </trkpt>
      <trkpt lat="48.80359" lon="2.25034">
        <ele>171</ele>
        <time>2020-12-05T15:06:27.095Z</time>
      </trkpt>
      <trkpt lat="48.8036" lon="2.25036">
        <ele>170</ele>
        <time>2020-12-05T15:06:28.094Z</time>
      </trkpt>
      <trkpt lat="48.8036" lon="2.25038">
        <ele>170</ele>
        <time>2020-12-05T15:06:29.095Z</time>
      </trkpt>
      <trkpt lat="48.8036" lon="2.25039">
        <ele>170</ele>
        <time>2020-12-05T15:06:30.095Z</time>
      </trkpt>
      <trkpt lat="48.80359" lon="2.25041">
        <ele>170</ele>
        <time>2020-12-05T15:06:31.095Z</time>
      </trkpt>
      <trkpt lat="48.80359" lon="2.25043">
        <ele>170</ele>
        <time>2020-12-05T15:06:32.095Z</time>
      </trkpt>
      <trkpt lat="48.8036" lon="2.25044">
        <ele>170</ele>
        <time>2020-12-05T15:06:33.095Z</time>
      </trkpt>
      <trkpt lat="48.8036" lon="2.25046">
        <ele>170</ele>
        <time>2020-12-05T15:06:34.095Z</time>
      </trkpt>
      <trkpt lat="48.8036" lon="2.25048">
        <ele>171</ele>
        <time>2020-12-05T15:06:35.095Z</time>
      </trkpt>
      <trkpt lat="48.80359" lon="2.2505">
        <ele>171</ele>
        <time>2020-12-05T15:06:36.094Z</time>
      </trkpt>
      <trkpt lat="48.80359" lon="2.25053">
        <ele>171</ele>
        <time>2020-12-05T15:06:37.094Z</time>
      </trkpt>
      <trkpt lat="48.80358" lon="2.25054">
        <ele>171</ele>
        <time>2020-12-05T15:06:38.095Z</time>
      </trkpt>
      <trkpt lat="48.80358" lon="2.25056">
        <ele>171</ele>
        <time>2020-12-05T15:06:39.095Z</time>
      </trkpt>
      <trkpt lat="48.80357" lon="2.25057">
        <ele>171</ele>
        <time>2020-12-05T15:06:40.095Z</time>
      </trkpt>
      <trkpt lat="48.80357" lon="2.25058">
        <ele>171</ele>
        <time>2020-12-05T15:06:41.095Z</time>
      </trkpt>
      <trkpt lat="48.80356" lon="2.25059">
        <ele>171</ele>
        <time>2020-12-05T15:06:42.094Z</time>
      </trkpt>
      <trkpt lat="48.80355" lon="2.2506">
        <ele>171</ele>
        <time>2020-12-05T15:06:43.095Z</time>
      </trkpt>
      <trkpt lat="48.80354" lon="2.25061">
        <ele>171</ele>
        <time>2020-12-05T15:06:44.095Z</time>
      </trkpt>
      <trkpt lat="48.80353" lon="2.25062">
        <ele>171</ele>
        <time>2020-12-05T15:06:45.095Z</time>
      </trkpt>
      <trkpt lat="48.80352" lon="2.25063">
        <ele>171</ele>
        <time>2020-12-05T15:06:46.095Z</time>
      </trkpt>
      <trkpt lat="48.80352" lon="2.25064">
        <ele>171</ele>
        <time>2020-12-05T15:06:47.095Z</time>
      </trkpt>
      <trkpt lat="48.80351" lon="2.25065">
        <ele>171</ele>
        <time>2020-12-05T15:06:48.095Z</time>
      </trkpt>
      <trkpt lat="48.8035" lon="2.25066">
        <ele>171</ele>
        <time>2020-12-05T15:06:49.095Z</time>
      </trkpt>
      <trkpt lat="48.8035" lon="2.25066">
        <ele>171</ele>
        <time>2020-12-05T15:06:50.095Z</time>
      </trkpt>
      <trkpt lat="48.80349" lon="2.25066">
        <ele>171</ele>
        <time>2020-12-05T15:06:51.094Z</time>
      </trkpt>
      <trkpt lat="48.80349" lon="2.25066">
        <ele>170</ele>
        <time>2020-12-05T15:06:52.094Z</time>
      </trkpt>
      <trkpt lat="48.80349" lon="2.25065">
        <ele>170</ele>
        <time>2020-12-05T15:06:53.095Z</time>
      </trkpt>
      <trkpt lat="48.80349" lon="2.25065">
        <ele>170</ele>
        <time>2020-12-05T15:06:54.095Z</time>
      </trkpt>
      <trkpt lat="48.8035" lon="2.25066">
        <ele>170</ele>
        <time>2020-12-05T15:06:55.095Z</time>
      </trkpt>
      <trkpt lat="48.8035" lon="2.25066">
        <ele>170</ele>
        <time>2020-12-05T15:06:56.095Z</time>
      </trkpt>
      <trkpt lat="48.80351" lon="2.25067">
        <ele>170</ele>
        <time>2020-12-05T15:06:57.094Z</time>
      </trkpt>
      <trkpt lat="48.80352" lon="2.25066">
        <ele>170</ele>
        <time>2020-12-05T15:06:58.095Z</time>
      </trkpt>
      <trkpt lat="48.80352" lon="2.25066">
        <ele>169</ele>
        <time>2020-12-05T15:06:59.095Z</time>
      </trkpt>
      <trkpt lat="48.80351" lon="2.25065">
        <ele>169</ele>
        <time>2020-12-05T15:07:00.095Z</time>
      </trkpt>
      <trkpt lat="48.80351" lon="2.25065">
        <ele>169</ele>
        <time>2020-12-05T15:07:01.095Z</time>
      </trkpt>
      <trkpt lat="48.80351" lon="2.25062">
        <ele>169</ele>
        <time>2020-12-05T15:07:02.095Z</time>
      </trkpt>
      <trkpt lat="48.80351" lon="2.25057">
        <ele>168</ele>
        <time>2020-12-05T15:07:03.095Z</time>
      </trkpt>
      <trkpt lat="48.80351" lon="2.25053">
        <ele>168</ele>
        <time>2020-12-05T15:07:04.095Z</time>
      </trkpt>
      <trkpt lat="48.80351" lon="2.25052">
        <ele>168</ele>
        <time>2020-12-05T15:07:05.095Z</time>
      </trkpt>
      <trkpt lat="48.80351" lon="2.25052">
        <ele>167</ele>
        <time>2020-12-05T15:07:06.095Z</time>
      </trkpt>
      <trkpt lat="48.8035" lon="2.25052">
        <ele>167</ele>
        <time>2020-12-05T15:07:07.095Z</time>
      </trkpt>
      <trkpt lat="48.80349" lon="2.25053">
        <ele>167</ele>
        <time>2020-12-05T15:07:08.095Z</time>
      </trkpt>
      <trkpt lat="48.80349" lon="2.25055">
        <ele>167</ele>
        <time>2020-12-05T15:07:09.095Z</time>
      </trkpt>
      <trkpt lat="48.8035" lon="2.25056">
        <ele>167</ele>
        <time>2020-12-05T15:07:10.095Z</time>
      </trkpt>
      <trkpt lat="48.8035" lon="2.25058">
        <ele>167</ele>
        <time>2020-12-05T15:07:11.094Z</time>
      </trkpt>
      <trkpt lat="48.8035" lon="2.2506">
        <ele>166</ele>
        <time>2020-12-05T15:07:12.094Z</time>
      </trkpt>
      <trkpt lat="48.80351" lon="2.25061">
        <ele>166</ele>
        <time>2020-12-05T15:07:13.094Z</time>
      </trkpt>
      <trkpt lat="48.80351" lon="2.25063">
        <ele>166</ele>
        <time>2020-12-05T15:07:14.095Z</time>
      </trkpt>
      <trkpt lat="48.80351" lon="2.25064">
        <ele>166</ele>
        <time>2020-12-05T15:07:15.095Z</time>
      </trkpt>
      <trkpt lat="48.80351" lon="2.25065">
        <ele>165</ele>
        <time>2020-12-05T15:07:16.095Z</time>
      </trkpt>
      <trkpt lat="48.80351" lon="2.25067">
        <ele>165</ele>
        <time>2020-12-05T15:07:17.094Z</time>
      </trkpt>
      <trkpt lat="48.80351" lon="2.25067">
        <ele>165</ele>
        <time>2020-12-05T15:07:18.094Z</time>
      </trkpt>
      <trkpt lat="48.80351" lon="2.25067">
        <ele>164</ele>
        <time>2020-12-05T15:07:19.095Z</time>
      </trkpt>
      <trkpt lat="48.80351" lon="2.25067">
        <ele>164</ele>
        <time>2020-12-05T15:07:20.095Z</time>
      </trkpt>
      <trkpt lat="48.80351" lon="2.25067">
        <ele>163</ele>
        <time>2020-12-05T15:07:21.095Z</time>
      </trkpt>
      <trkpt lat="48.80351" lon="2.25067">
        <ele>163</ele>
        <time>2020-12-05T15:07:22.095Z</time>
      </trkpt>
      <trkpt lat="48.80351" lon="2.25067">
        <ele>162</ele>
        <time>2020-12-05T15:07:23.095Z</time>
      </trkpt>
      <trkpt lat="48.80351" lon="2.25067">
        <ele>162</ele>
        <time>2020-12-05T15:07:24.095Z</time>
      </trkpt>
      <trkpt lat="48.80351" lon="2.25067">
        <ele>161</ele>
        <time>2020-12-05T15:07:25.095Z</time>
      </trkpt>
      <trkpt lat="48.80351" lon="2.25067">
        <ele>161</ele>
        <time>2020-12-05T15:07:26.095Z</time>
      </trkpt>
      <trkpt lat="48.80351" lon="2.25067">
        <ele>161</ele>
        <time>2020-12-05T15:07:27.094Z</time>
      </trkpt>
      <trkpt lat="48.80351" lon="2.25067">
        <ele>160</ele>
        <time>2020-12-05T15:07:28.094Z</time>
      </trkpt>
      <trkpt lat="48.80351" lon="2.25067">
        <ele>160</ele>
        <time>2020-12-05T15:07:29.095Z</time>
      </trkpt>
      <trkpt lat="48.80351" lon="2.25067">
        <ele>159</ele>
        <time>2020-12-05T15:07:30.095Z</time>
      </trkpt>
      <trkpt lat="48.80351" lon="2.25067">
        <ele>159</ele>
        <time>2020-12-05T15:07:31.094Z</time>
      </trkpt>
      <trkpt lat="48.80351" lon="2.25067">
        <ele>159</ele>
        <time>2020-12-05T15:07:32.095Z</time>
      </trkpt>
      <trkpt lat="48.80351" lon="2.25067">
        <ele>159</ele>
        <time>2020-12-05T15:07:33.095Z</time>
      </trkpt>
      <trkpt lat="48.80351" lon="2.25068">
        <ele>159</ele>
        <time>2020-12-05T15:07:34.095Z</time>
      </trkpt>
      <trkpt lat="48.80351" lon="2.25069">
        <ele>158</ele>
        <time>2020-12-05T15:07:35.095Z</time>
      </trkpt>
      <trkpt lat="48.80351" lon="2.2507">
        <ele>158</ele>
        <time>2020-12-05T15:07:36.095Z</time>
      </trkpt>
      <trkpt lat="48.80351" lon="2.25071">
        <ele>158</ele>
        <time>2020-12-05T15:07:37.095Z</time>
      </trkpt>
      <trkpt lat="48.80351" lon="2.25071">
        <ele>158</ele>
        <time>2020-12-05T15:07:38.095Z</time>
      </trkpt>
      <trkpt lat="48.80351" lon="2.25072">
        <ele>158</ele>
        <time>2020-12-05T15:07:39.095Z</time>
      </trkpt>
      <trkpt lat="48.80351" lon="2.25072">
        <ele>158</ele>
        <time>2020-12-05T15:07:40.095Z</time>
      </trkpt>
      <trkpt lat="48.80351" lon="2.25073">
        <ele>158</ele>
        <time>2020-12-05T15:07:41.095Z</time>
      </trkpt>
      <trkpt lat="48.80351" lon="2.25073">
        <ele>158</ele>
        <time>2020-12-05T15:07:42.095Z</time>
      </trkpt>
      <trkpt lat="48.80351" lon="2.25073">
        <ele>158</ele>
        <time>2020-12-05T15:07:43.094Z</time>
      </trkpt>
      <trkpt lat="48.80351" lon="2.25074">
        <ele>158</ele>
        <time>2020-12-05T15:07:44.095Z</time>
      </trkpt>
      <trkpt lat="48.80351" lon="2.25075">
        <ele>158</ele>
        <time>2020-12-05T15:07:45.095Z</time>
      </trkpt>
      <trkpt lat="48.80351" lon="2.25076">
        <ele>158</ele>
        <time>2020-12-05T15:07:46.095Z</time>
      </trkpt>
      <trkpt lat="48.8035" lon="2.25077">
        <ele>158</ele>
        <time>2020-12-05T15:07:47.094Z</time>
      </trkpt>
      <trkpt lat="48.8035" lon="2.25079">
        <ele>158</ele>
        <time>2020-12-05T15:07:48.094Z</time>
      </trkpt>
      <trkpt lat="48.80349" lon="2.2508">
        <ele>158</ele>
        <time>2020-12-05T15:07:49.094Z</time>
      </trkpt>
      <trkpt lat="48.80349" lon="2.25081">
        <ele>158</ele>
        <time>2020-12-05T15:07:50.095Z</time>
      </trkpt>
      <trkpt lat="48.80349" lon="2.25082">
        <ele>158</ele>
        <time>2020-12-05T15:07:51.094Z</time>
      </trkpt>
      <trkpt lat="48.80349" lon="2.25083">
        <ele>158</ele>
        <time>2020-12-05T15:07:52.095Z</time>
      </trkpt>
      <trkpt lat="48.80349" lon="2.25083">
        <ele>158</ele>
        <time>2020-12-05T15:07:53.095Z</time>
      </trkpt>
      <trkpt lat="48.80349" lon="2.25083">
        <ele>158</ele>
        <time>2020-12-05T15:07:54.095Z</time>
      </trkpt>
      <trkpt lat="48.80349" lon="2.25083">
        <ele>158</ele>
        <time>2020-12-05T15:07:55.095Z</time>
      </trkpt>
      <trkpt lat="48.80349" lon="2.25083">
        <ele>158</ele>
        <time>2020-12-05T15:07:56.095Z</time>
      </trkpt>
      <trkpt lat="48.80349" lon="2.25083">
        <ele>158</ele>
        <time>2020-12-05T15:07:57.095Z</time>
      </trkpt>
      <trkpt lat="48.80349" lon="2.25083">
        <ele>158</ele>
        <time>2020-12-05T15:07:58.095Z</time>
      </trkpt>
      <trkpt lat="48.80349" lon="2.25083">
        <ele>158</ele>
        <time>2020-12-05T15:07:59.095Z</time>
      </trkpt>
      <trkpt lat="48.80349" lon="2.25083">
        <ele>158</ele>
        <time>2020-12-05T15:08:00.095Z</time>
      </trkpt>
      <trkpt lat="48.80349" lon="2.25083">
        <ele>158</ele>
        <time>2020-12-05T15:08:01.095Z</time>
      </trkpt>
      <trkpt lat="48.80349" lon="2.25083">
        <ele>158</ele>
        <time>2020-12-05T15:08:02.094Z</time>
      </trkpt>
      <trkpt lat="48.80349" lon="2.25083">
        <ele>158</ele>
        <time>2020-12-05T15:08:03.094Z</time>
      </trkpt>
      <trkpt lat="48.80349" lon="2.25083">
        <ele>158</ele>
        <time>2020-12-05T15:08:04.094Z</time>
      </trkpt>
      <trkpt lat="48.80349" lon="2.25083">
        <ele>158</ele>
        <time>2020-12-05T15:08:05.095Z</time>
      </trkpt>
      <trkpt lat="48.80348" lon="2.25082">
        <ele>158</ele>
        <time>2020-12-05T15:08:06.095Z</time>
      </trkpt>
      <trkpt lat="48.80348" lon="2.25082">
        <ele>158</ele>
        <time>2020-12-05T15:08:07.095Z</time>
      </trkpt>
      <trkpt lat="48.80347" lon="2.25082">
        <ele>158</ele>
        <time>2020-12-05T15:08:08.095Z</time>
      </trkpt>
      <trkpt lat="48.80347" lon="2.25082">
        <ele>158</ele>
        <time>2020-12-05T15:08:09.095Z</time>
      </trkpt>
      <trkpt lat="48.80347" lon="2.25082">
        <ele>158</ele>
        <time>2020-12-05T15:08:10.095Z</time>
      </trkpt>
      <trkpt lat="48.80347" lon="2.25083">
        <ele>158</ele>
        <time>2020-12-05T15:08:11.094Z</time>
      </trkpt>
      <trkpt lat="48.80347" lon="2.25083">
        <ele>158</ele>
        <time>2020-12-05T15:08:12.095Z</time>
      </trkpt>
      <trkpt lat="48.80347" lon="2.25083">
        <ele>158</ele>
        <time>2020-12-05T15:08:13.095Z</time>
      </trkpt>
      <trkpt lat="48.80347" lon="2.25083">
        <ele>158</ele>
        <time>2020-12-05T15:08:14.095Z</time>
      </trkpt>
      <trkpt lat="48.80347" lon="2.25083">
        <ele>158</ele>
        <time>2020-12-05T15:08:15.095Z</time>
      </trkpt>
      <trkpt lat="48.80347" lon="2.25083">
        <ele>158</ele>
        <time>2020-12-05T15:08:16.095Z</time>
      </trkpt>
      <trkpt lat="48.80346" lon="2.25084">
        <ele>158</ele>
        <time>2020-12-05T15:08:17.095Z</time>
      </trkpt>
      <trkpt lat="48.80346" lon="2.25084">
        <ele>158</ele>
        <time>2020-12-05T15:08:18.094Z</time>
      </trkpt>
      <trkpt lat="48.80346" lon="2.25084">
        <ele>159</ele>
        <time>2020-12-05T15:08:19.094Z</time>
      </trkpt>
      <trkpt lat="48.80346" lon="2.25084">
        <ele>159</ele>
        <time>2020-12-05T15:08:20.094Z</time>
      </trkpt>
      <trkpt lat="48.80346" lon="2.25084">
        <ele>159</ele>
        <time>2020-12-05T15:08:21.095Z</time>
      </trkpt>
      <trkpt lat="48.80346" lon="2.25084">
        <ele>159</ele>
        <time>2020-12-05T15:08:22.095Z</time>
      </trkpt>
      <trkpt lat="48.80346" lon="2.25084">
        <ele>159</ele>
        <time>2020-12-05T15:08:23.095Z</time>
      </trkpt>
      <trkpt lat="48.80346" lon="2.25084">
        <ele>159</ele>
        <time>2020-12-05T15:08:24.095Z</time>
      </trkpt>
      <trkpt lat="48.80346" lon="2.25084">
        <ele>158</ele>
        <time>2020-12-05T15:08:25.095Z</time>
      </trkpt>
      <trkpt lat="48.80346" lon="2.25084">
        <ele>158</ele>
        <time>2020-12-05T15:08:26.095Z</time>
      </trkpt>
      <trkpt lat="48.80346" lon="2.25084">
        <ele>158</ele>
        <time>2020-12-05T15:08:27.095Z</time>
      </trkpt>
      <trkpt lat="48.80346" lon="2.25085">
        <ele>158</ele>
        <time>2020-12-05T15:08:28.095Z</time>
      </trkpt>
      <trkpt lat="48.80346" lon="2.25085">
        <ele>158</ele>
        <time>2020-12-05T15:08:29.094Z</time>
      </trkpt>
      <trkpt lat="48.80345" lon="2.25086">
        <ele>158</ele>
        <time>2020-12-05T15:08:30.094Z</time>
      </trkpt>
      <trkpt lat="48.80345" lon="2.25087">
        <ele>158</ele>
        <time>2020-12-05T15:08:31.094Z</time>
      </trkpt>
      <trkpt lat="48.80345" lon="2.25088">
        <ele>158</ele>
        <time>2020-12-05T15:08:32.095Z</time>
      </trkpt>
      <trkpt lat="48.80345" lon="2.25088">
        <ele>158</ele>
        <time>2020-12-05T15:08:33.095Z</time>
      </trkpt>
      <trkpt lat="48.80345" lon="2.25088">
        <ele>158</ele>
        <time>2020-12-05T15:08:34.095Z</time>
      </trkpt>
      <trkpt lat="48.80345" lon="2.25088">
        <ele>158</ele>
        <time>2020-12-05T15:08:35.095Z</time>
      </trkpt>
      <trkpt lat="48.80345" lon="2.25088">
        <ele>158</ele>
        <time>2020-12-05T15:08:36.095Z</time>
      </trkpt>
      <trkpt lat="48.80345" lon="2.25088">
        <ele>158</ele>
        <time>2020-12-05T15:08:37.095Z</time>
      </trkpt>
      <trkpt lat="48.80345" lon="2.25088">
        <ele>158</ele>
        <time>2020-12-05T15:08:38.095Z</time>
      </trkpt>
      <trkpt lat="48.80345" lon="2.25088">
        <ele>158</ele>
        <time>2020-12-05T15:08:39.095Z</time>
      </trkpt>
      <trkpt lat="48.80345" lon="2.25088">
        <ele>158</ele>
        <time>2020-12-05T15:08:40.095Z</time>
      </trkpt>
      <trkpt lat="48.80345" lon="2.25088">
        <ele>158</ele>
        <time>2020-12-05T15:08:41.095Z</time>
      </trkpt>
      <trkpt lat="48.80345" lon="2.25088">
        <ele>158</ele>
        <time>2020-12-05T15:08:42.095Z</time>
      </trkpt>
      <trkpt lat="48.80345" lon="2.25088">
        <ele>158</ele>
        <time>2020-12-05T15:08:43.095Z</time>
      </trkpt>
      <trkpt lat="48.80345" lon="2.25088">
        <ele>158</ele>
        <time>2020-12-05T15:08:44.095Z</time>
      </trkpt>
      <trkpt lat="48.80345" lon="2.25088">
        <ele>158</ele>
        <time>2020-12-05T15:08:45.095Z</time>
      </trkpt>
      <trkpt lat="48.80345" lon="2.25088">
        <ele>158</ele>
        <time>2020-12-05T15:08:46.095Z</time>
      </trkpt>
      <trkpt lat="48.80345" lon="2.25088">
        <ele>158</ele>
        <time>2020-12-05T15:08:47.095Z</time>
      </trkpt>
      <trkpt lat="48.80345" lon="2.25088">
        <ele>158</ele>
        <time>2020-12-05T15:08:48.095Z</time>
      </trkpt>
      <trkpt lat="48.80345" lon="2.25088">
        <ele>158</ele>
        <time>2020-12-05T15:08:49.095Z</time>
      </trkpt>
      <trkpt lat="48.80346" lon="2.25087">
        <ele>158</ele>
        <time>2020-12-05T15:08:50.095Z</time>
      </trkpt>
      <trkpt lat="48.80346" lon="2.25086">
        <ele>158</ele>
        <time>2020-12-05T15:08:51.095Z</time>
      </trkpt>
      <trkpt lat="48.80346" lon="2.25085">
        <ele>158</ele>
        <time>2020-12-05T15:08:52.095Z</time>
      </trkpt>
      <trkpt lat="48.80346" lon="2.25085">
        <ele>158</ele>
        <time>2020-12-05T15:08:53.094Z</time>
      </trkpt>
      <trkpt lat="48.80346" lon="2.25084">
        <ele>158</ele>
        <time>2020-12-05T15:08:54.094Z</time>
      </trkpt>
      <trkpt lat="48.80347" lon="2.25083">
        <ele>158</ele>
        <time>2020-12-05T15:08:55.095Z</time>
      </trkpt>
      <trkpt lat="48.80347" lon="2.25082">
        <ele>158</ele>
        <time>2020-12-05T15:08:56.095Z</time>
      </trkpt>
      <trkpt lat="48.80348" lon="2.2508">
        <ele>158</ele>
        <time>2020-12-05T15:08:57.095Z</time>
      </trkpt>
      <trkpt lat="48.80348" lon="2.25079">
        <ele>158</ele>
        <time>2020-12-05T15:08:58.094Z</time>
      </trkpt>
      <trkpt lat="48.80349" lon="2.25078">
        <ele>158</ele>
        <time>2020-12-05T15:08:59.095Z</time>
      </trkpt>
      <trkpt lat="48.80349" lon="2.25078">
        <ele>157</ele>
        <time>2020-12-05T15:09:00.095Z</time>
      </trkpt>
      <trkpt lat="48.80347" lon="2.25078">
        <ele>157</ele>
        <time>2020-12-05T15:09:01.094Z</time>
      </trkpt>
      <trkpt lat="48.80345" lon="2.25078">
        <ele>157</ele>
        <time>2020-12-05T15:09:02.094Z</time>
      </trkpt>
      <trkpt lat="48.80343" lon="2.25078">
        <ele>157</ele>
        <time>2020-12-05T15:09:03.095Z</time>
      </trkpt>
      <trkpt lat="48.80342" lon="2.25079">
        <ele>157</ele>
        <time>2020-12-05T15:09:04.095Z</time>
      </trkpt>
      <trkpt lat="48.80342" lon="2.2508">
        <ele>156</ele>
        <time>2020-12-05T15:09:05.095Z</time>
      </trkpt>
      <trkpt lat="48.80341" lon="2.25081">
        <ele>156</ele>
        <time>2020-12-05T15:09:06.094Z</time>
      </trkpt>
      <trkpt lat="48.8034" lon="2.25082">
        <ele>156</ele>
        <time>2020-12-05T15:09:07.094Z</time>
      </trkpt>
      <trkpt lat="48.80339" lon="2.25082">
        <ele>156</ele>
        <time>2020-12-05T15:09:08.095Z</time>
      </trkpt>
      <trkpt lat="48.80338" lon="2.25083">
        <ele>156</ele>
        <time>2020-12-05T15:09:09.095Z</time>
      </trkpt>
      <trkpt lat="48.80337" lon="2.25083">
        <ele>156</ele>
        <time>2020-12-05T15:09:10.095Z</time>
      </trkpt>
      <trkpt lat="48.80336" lon="2.25084">
        <ele>156</ele>
        <time>2020-12-05T15:09:11.095Z</time>
      </trkpt>
      <trkpt lat="48.80335" lon="2.25085">
        <ele>157</ele>
        <time>2020-12-05T15:09:12.095Z</time>
      </trkpt>
      <trkpt lat="48.80334" lon="2.25086">
        <ele>157</ele>
        <time>2020-12-05T15:09:13.095Z</time>
      </trkpt>
      <trkpt lat="48.80333" lon="2.25086">
        <ele>157</ele>
        <time>2020-12-05T15:09:14.095Z</time>
      </trkpt>
      <trkpt lat="48.80332" lon="2.25086">
        <ele>158</ele>
        <time>2020-12-05T15:09:15.095Z</time>
      </trkpt>
      <trkpt lat="48.80332" lon="2.25087">
        <ele>158</ele>
        <time>2020-12-05T15:09:16.095Z</time>
      </trkpt>
      <trkpt lat="48.80331" lon="2.25087">
        <ele>158</ele>
        <time>2020-12-05T15:09:17.095Z</time>
      </trkpt>
      <trkpt lat="48.80331" lon="2.25088">
        <ele>158</ele>
        <time>2020-12-05T15:09:18.095Z</time>
      </trkpt>
      <trkpt lat="48.8033" lon="2.25089">
        <ele>159</ele>
        <time>2020-12-05T15:09:19.095Z</time>
      </trkpt>
      <trkpt lat="48.80329" lon="2.2509">
        <ele>159</ele>
        <time>2020-12-05T15:09:20.094Z</time>
      </trkpt>
      <trkpt lat="48.80328" lon="2.2509">
        <ele>159</ele>
        <time>2020-12-05T15:09:21.095Z</time>
      </trkpt>
      <trkpt lat="48.80327" lon="2.25091">
        <ele>159</ele>
        <time>2020-12-05T15:09:22.095Z</time>
      </trkpt>
      <trkpt lat="48.80326" lon="2.25091">
        <ele>159</ele>
        <time>2020-12-05T15:09:23.095Z</time>
      </trkpt>
      <trkpt lat="48.80325" lon="2.25092">
        <ele>159</ele>
        <time>2020-12-05T15:09:24.095Z</time>
      </trkpt>
      <trkpt lat="48.80322" lon="2.25093">
        <ele>159</ele>
        <time>2020-12-05T15:09:25.094Z</time>
      </trkpt>
      <trkpt lat="48.80319" lon="2.25094">
        <ele>159</ele>
        <time>2020-12-05T15:09:26.095Z</time>
      </trkpt>
      <trkpt lat="48.80316" lon="2.25094">
        <ele>159</ele>
        <time>2020-12-05T15:09:27.095Z</time>
      </trkpt>
      <trkpt lat="48.80313" lon="2.25095">
        <ele>159</ele>
        <time>2020-12-05T15:09:28.095Z</time>
      </trkpt>
      <trkpt lat="48.80313" lon="2.25096">
        <ele>159</ele>
        <time>2020-12-05T15:09:29.095Z</time>
      </trkpt>
      <trkpt lat="48.80312" lon="2.25096">
        <ele>159</ele>
        <time>2020-12-05T15:09:30.095Z</time>
      </trkpt>
      <trkpt lat="48.80311" lon="2.25096">
        <ele>159</ele>
        <time>2020-12-05T15:09:31.095Z</time>
      </trkpt>
      <trkpt lat="48.80309" lon="2.25095">
        <ele>159</ele>
        <time>2020-12-05T15:09:32.095Z</time>
      </trkpt>
      <trkpt lat="48.80307" lon="2.25094">
        <ele>159</ele>
        <time>2020-12-05T15:09:33.095Z</time>
      </trkpt>
      <trkpt lat="48.80306" lon="2.25092">
        <ele>160</ele>
        <time>2020-12-05T15:09:34.095Z</time>
      </trkpt>
      <trkpt lat="48.80305" lon="2.25091">
        <ele>160</ele>
        <time>2020-12-05T15:09:35.095Z</time>
      </trkpt>
      <trkpt lat="48.80305" lon="2.25089">
        <ele>160</ele>
        <time>2020-12-05T15:09:36.095Z</time>
      </trkpt>
      <trkpt lat="48.80305" lon="2.25088">
        <ele>161</ele>
        <time>2020-12-05T15:09:37.094Z</time>
      </trkpt>
      <trkpt lat="48.80305" lon="2.25088">
        <ele>161</ele>
        <time>2020-12-05T15:09:38.094Z</time>
      </trkpt>
      <trkpt lat="48.80305" lon="2.25087">
        <ele>161</ele>
        <time>2020-12-05T15:09:39.095Z</time>
      </trkpt>
      <trkpt lat="48.80304" lon="2.25086">
        <ele>161</ele>
        <time>2020-12-05T15:09:40.095Z</time>
      </trkpt>
      <trkpt lat="48.80303" lon="2.25085">
        <ele>162</ele>
        <time>2020-12-05T15:09:41.095Z</time>
      </trkpt>
      <trkpt lat="48.80303" lon="2.25084">
        <ele>162</ele>
        <time>2020-12-05T15:09:42.095Z</time>
      </trkpt>
      <trkpt lat="48.80303" lon="2.25083">
        <ele>162</ele>
        <time>2020-12-05T15:09:43.095Z</time>
      </trkpt>
      <trkpt lat="48.80302" lon="2.25082">
        <ele>163</ele>
        <time>2020-12-05T15:09:44.094Z</time>
      </trkpt>
      <trkpt lat="48.80301" lon="2.25081">
        <ele>163</ele>
        <time>2020-12-05T15:09:45.094Z</time>
      </trkpt>
      <trkpt lat="48.80301" lon="2.25081">
        <ele>163</ele>
        <time>2020-12-05T15:09:46.095Z</time>
      </trkpt>
      <trkpt lat="48.803" lon="2.2508">
        <ele>164</ele>
        <time>2020-12-05T15:09:47.095Z</time>
      </trkpt>
      <trkpt lat="48.80299" lon="2.25079">
        <ele>164</ele>
        <time>2020-12-05T15:09:48.095Z</time>
      </trkpt>
      <trkpt lat="48.80298" lon="2.25078">
        <ele>165</ele>
        <time>2020-12-05T15:09:49.095Z</time>
      </trkpt>
      <trkpt lat="48.80296" lon="2.25078">
        <ele>165</ele>
        <time>2020-12-05T15:09:50.095Z</time>
      </trkpt>
      <trkpt lat="48.80295" lon="2.25078">
        <ele>165</ele>
        <time>2020-12-05T15:09:51.095Z</time>
      </trkpt>
      <trkpt lat="48.80294" lon="2.25077">
        <ele>166</ele>
        <time>2020-12-05T15:09:52.095Z</time>
      </trkpt>
      <trkpt lat="48.80293" lon="2.25077">
        <ele>166</ele>
        <time>2020-12-05T15:09:53.095Z</time>
      </trkpt>
      <trkpt lat="48.80293" lon="2.25076">
        <ele>166</ele>
        <time>2020-12-05T15:09:54.095Z</time>
      </trkpt>
      <trkpt lat="48.80292" lon="2.25076">
        <ele>166</ele>
        <time>2020-12-05T15:09:55.095Z</time>
      </trkpt>
      <trkpt lat="48.80291" lon="2.25074">
        <ele>166</ele>
        <time>2020-12-05T15:09:56.094Z</time>
      </trkpt>
      <trkpt lat="48.8029" lon="2.25073">
        <ele>167</ele>
        <time>2020-12-05T15:09:57.094Z</time>
      </trkpt>
      <trkpt lat="48.8029" lon="2.25072">
        <ele>167</ele>
        <time>2020-12-05T15:09:58.095Z</time>
      </trkpt>
      <trkpt lat="48.8029" lon="2.25071">
        <ele>168</ele>
        <time>2020-12-05T15:09:59.095Z</time>
      </trkpt>
      <trkpt lat="48.80289" lon="2.2507">
        <ele>168</ele>
        <time>2020-12-05T15:10:00.095Z</time>
      </trkpt>
      <trkpt lat="48.80288" lon="2.2507">
        <ele>169</ele>
        <time>2020-12-05T15:10:01.094Z</time>
      </trkpt>
      <trkpt lat="48.80286" lon="2.25069">
        <ele>169</ele>
        <time>2020-12-05T15:10:02.094Z</time>
      </trkpt>
      <trkpt lat="48.80284" lon="2.25068">
        <ele>170</ele>
        <time>2020-12-05T15:10:03.095Z</time>
      </trkpt>
      <trkpt lat="48.80283" lon="2.25067">
        <ele>170</ele>
        <time>2020-12-05T15:10:04.094Z</time>
      </trkpt>
      <trkpt lat="48.80283" lon="2.25066">
        <ele>171</ele>
        <time>2020-12-05T15:10:05.094Z</time>
      </trkpt>
      <trkpt lat="48.80281" lon="2.25065">
        <ele>172</ele>
        <time>2020-12-05T15:10:06.094Z</time>
      </trkpt>
      <trkpt lat="48.8028" lon="2.25063">
        <ele>172</ele>
        <time>2020-12-05T15:10:07.095Z</time>
      </trkpt>
      <trkpt lat="48.80279" lon="2.25062">
        <ele>173</ele>
        <time>2020-12-05T15:10:08.095Z</time>
      </trkpt>
      <trkpt lat="48.80279" lon="2.25061">
        <ele>174</ele>
        <time>2020-12-05T15:10:09.095Z</time>
      </trkpt>
      <trkpt lat="48.80278" lon="2.25061">
        <ele>174</ele>
        <time>2020-12-05T15:10:10.094Z</time>
      </trkpt>
      <trkpt lat="48.80277" lon="2.2506">
        <ele>174</ele>
        <time>2020-12-05T15:10:11.094Z</time>
      </trkpt>
      <trkpt lat="48.80276" lon="2.25059">
        <ele>174</ele>
        <time>2020-12-05T15:10:12.094Z</time>
      </trkpt>
      <trkpt lat="48.80275" lon="2.25059">
        <ele>175</ele>
        <time>2020-12-05T15:10:13.095Z</time>
      </trkpt>
      <trkpt lat="48.80274" lon="2.25059">
        <ele>175</ele>
        <time>2020-12-05T15:10:14.094Z</time>
      </trkpt>
      <trkpt lat="48.80272" lon="2.25059">
        <ele>175</ele>
        <time>2020-12-05T15:10:15.094Z</time>
      </trkpt>
      <trkpt lat="48.80271" lon="2.25058">
        <ele>175</ele>
        <time>2020-12-05T15:10:16.094Z</time>
      </trkpt>
      <trkpt lat="48.8027" lon="2.25058">
        <ele>175</ele>
        <time>2020-12-05T15:10:17.094Z</time>
      </trkpt>
      <trkpt lat="48.80269" lon="2.25058">
        <ele>176</ele>
        <time>2020-12-05T15:10:18.095Z</time>
      </trkpt>
      <trkpt lat="48.80268" lon="2.25058">
        <ele>176</ele>
        <time>2020-12-05T15:10:19.095Z</time>
      </trkpt>
      <trkpt lat="48.80267" lon="2.25059">
        <ele>176</ele>
        <time>2020-12-05T15:10:20.094Z</time>
      </trkpt>
      <trkpt lat="48.80265" lon="2.25059">
        <ele>176</ele>
        <time>2020-12-05T15:10:21.094Z</time>
      </trkpt>
      <trkpt lat="48.80263" lon="2.2506">
        <ele>177</ele>
        <time>2020-12-05T15:10:22.095Z</time>
      </trkpt>
      <trkpt lat="48.80262" lon="2.25061">
        <ele>177</ele>
        <time>2020-12-05T15:10:23.094Z</time>
      </trkpt>
      <trkpt lat="48.80261" lon="2.25062">
        <ele>177</ele>
        <time>2020-12-05T15:10:24.094Z</time>
      </trkpt>
      <trkpt lat="48.8026" lon="2.25062">
        <ele>177</ele>
        <time>2020-12-05T15:10:25.094Z</time>
      </trkpt>
      <trkpt lat="48.8026" lon="2.25063">
        <ele>177</ele>
        <time>2020-12-05T15:10:26.094Z</time>
      </trkpt>
      <trkpt lat="48.80259" lon="2.25064">
        <ele>177</ele>
        <time>2020-12-05T15:10:27.094Z</time>
      </trkpt>
      <trkpt lat="48.80258" lon="2.25064">
        <ele>177</ele>
        <time>2020-12-05T15:10:28.094Z</time>
      </trkpt>
      <trkpt lat="48.80257" lon="2.25065">
        <ele>177</ele>
        <time>2020-12-05T15:10:29.094Z</time>
      </trkpt>
      <trkpt lat="48.80255" lon="2.25065">
        <ele>177</ele>
        <time>2020-12-05T15:10:30.094Z</time>
      </trkpt>
      <trkpt lat="48.80254" lon="2.25067">
        <ele>176</ele>
        <time>2020-12-05T15:10:31.095Z</time>
      </trkpt>
      <trkpt lat="48.80252" lon="2.25068">
        <ele>176</ele>
        <time>2020-12-05T15:10:32.095Z</time>
      </trkpt>
      <trkpt lat="48.80251" lon="2.25069">
        <ele>176</ele>
        <time>2020-12-05T15:10:33.095Z</time>
      </trkpt>
      <trkpt lat="48.80249" lon="2.25071">
        <ele>175</ele>
        <time>2020-12-05T15:10:34.095Z</time>
      </trkpt>
      <trkpt lat="48.80248" lon="2.25072">
        <ele>175</ele>
        <time>2020-12-05T15:10:35.094Z</time>
      </trkpt>
      <trkpt lat="48.80247" lon="2.25073">
        <ele>175</ele>
        <time>2020-12-05T15:10:36.094Z</time>
      </trkpt>
      <trkpt lat="48.80247" lon="2.25073">
        <ele>175</ele>
        <time>2020-12-05T15:10:37.095Z</time>
      </trkpt>
      <trkpt lat="48.80246" lon="2.25074">
        <ele>174</ele>
        <time>2020-12-05T15:10:38.095Z</time>
      </trkpt>
      <trkpt lat="48.80245" lon="2.25075">
        <ele>174</ele>
        <time>2020-12-05T15:10:39.094Z</time>
      </trkpt>
      <trkpt lat="48.80244" lon="2.25076">
        <ele>174</ele>
        <time>2020-12-05T15:10:40.094Z</time>
      </trkpt>
      <trkpt lat="48.80243" lon="2.25078">
        <ele>173</ele>
        <time>2020-12-05T15:10:41.095Z</time>
      </trkpt>
      <trkpt lat="48.80242" lon="2.2508">
        <ele>173</ele>
        <time>2020-12-05T15:10:42.095Z</time>
      </trkpt>
      <trkpt lat="48.80241" lon="2.25082">
        <ele>172</ele>
        <time>2020-12-05T15:10:43.095Z</time>
      </trkpt>
      <trkpt lat="48.8024" lon="2.25084">
        <ele>172</ele>
        <time>2020-12-05T15:10:44.095Z</time>
      </trkpt>
      <trkpt lat="48.80239" lon="2.25086">
        <ele>171</ele>
        <time>2020-12-05T15:10:45.095Z</time>
      </trkpt>
      <trkpt lat="48.80238" lon="2.25088">
        <ele>171</ele>
        <time>2020-12-05T15:10:46.095Z</time>
      </trkpt>
      <trkpt lat="48.80237" lon="2.25089">
        <ele>170</ele>
        <time>2020-12-05T15:10:47.095Z</time>
      </trkpt>
      <trkpt lat="48.80236" lon="2.2509">
        <ele>170</ele>
        <time>2020-12-05T15:10:48.095Z</time>
      </trkpt>
      <trkpt lat="48.80236" lon="2.25092">
        <ele>169</ele>
        <time>2020-12-05T15:10:49.095Z</time>
      </trkpt>
      <trkpt lat="48.80236" lon="2.25094">
        <ele>169</ele>
        <time>2020-12-05T15:10:50.095Z</time>
      </trkpt>
      <trkpt lat="48.80234" lon="2.25097">
        <ele>168</ele>
        <time>2020-12-05T15:10:51.095Z</time>
      </trkpt>
      <trkpt lat="48.80233" lon="2.25099">
        <ele>168</ele>
        <time>2020-12-05T15:10:52.094Z</time>
      </trkpt>
      <trkpt lat="48.80233" lon="2.25101">
        <ele>167</ele>
        <time>2020-12-05T15:10:53.094Z</time>
      </trkpt>
      <trkpt lat="48.80233" lon="2.25103">
        <ele>167</ele>
        <time>2020-12-05T15:10:54.094Z</time>
      </trkpt>
      <trkpt lat="48.80233" lon="2.25105">
        <ele>167</ele>
        <time>2020-12-05T15:10:55.095Z</time>
      </trkpt>
      <trkpt lat="48.80232" lon="2.25107">
        <ele>167</ele>
        <time>2020-12-05T15:10:56.094Z</time>
      </trkpt>
      <trkpt lat="48.80232" lon="2.25108">
        <ele>167</ele>
        <time>2020-12-05T15:10:57.094Z</time>
      </trkpt>
      <trkpt lat="48.80232" lon="2.2511">
        <ele>167</ele>
        <time>2020-12-05T15:10:58.095Z</time>
      </trkpt>
      <trkpt lat="48.80231" lon="2.25112">
        <ele>167</ele>
        <time>2020-12-05T15:10:59.095Z</time>
      </trkpt>
      <trkpt lat="48.80231" lon="2.25114">
        <ele>167</ele>
        <time>2020-12-05T15:11:00.095Z</time>
      </trkpt>
      <trkpt lat="48.80231" lon="2.25118">
        <ele>167</ele>
        <time>2020-12-05T15:11:01.095Z</time>
      </trkpt>
      <trkpt lat="48.80232" lon="2.25121">
        <ele>167</ele>
        <time>2020-12-05T15:11:02.094Z</time>
      </trkpt>
      <trkpt lat="48.80232" lon="2.25123">
        <ele>167</ele>
        <time>2020-12-05T15:11:03.095Z</time>
      </trkpt>
      <trkpt lat="48.80231" lon="2.25124">
        <ele>167</ele>
        <time>2020-12-05T15:11:04.095Z</time>
      </trkpt>
      <trkpt lat="48.8023" lon="2.25126">
        <ele>167</ele>
        <time>2020-12-05T15:11:05.095Z</time>
      </trkpt>
      <trkpt lat="48.80229" lon="2.25128">
        <ele>168</ele>
        <time>2020-12-05T15:11:06.095Z</time>
      </trkpt>
      <trkpt lat="48.80229" lon="2.25129">
        <ele>168</ele>
        <time>2020-12-05T15:11:07.095Z</time>
      </trkpt>
      <trkpt lat="48.80228" lon="2.25131">
        <ele>168</ele>
        <time>2020-12-05T15:11:08.095Z</time>
      </trkpt>
      <trkpt lat="48.80228" lon="2.25133">
        <ele>168</ele>
        <time>2020-12-05T15:11:09.095Z</time>
      </trkpt>
      <trkpt lat="48.80228" lon="2.25135">
        <ele>168</ele>
        <time>2020-12-05T15:11:10.095Z</time>
      </trkpt>
      <trkpt lat="48.80228" lon="2.25136">
        <ele>168</ele>
        <time>2020-12-05T15:11:11.094Z</time>
      </trkpt>
      <trkpt lat="48.80227" lon="2.25137">
        <ele>168</ele>
        <time>2020-12-05T15:11:12.095Z</time>
      </trkpt>
      <trkpt lat="48.80226" lon="2.25138">
        <ele>168</ele>
        <time>2020-12-05T15:11:13.095Z</time>
      </trkpt>
      <trkpt lat="48.80225" lon="2.25138">
        <ele>168</ele>
        <time>2020-12-05T15:11:14.095Z</time>
      </trkpt>
      <trkpt lat="48.80224" lon="2.25139">
        <ele>169</ele>
        <time>2020-12-05T15:11:15.094Z</time>
      </trkpt>
      <trkpt lat="48.80223" lon="2.25139">
        <ele>169</ele>
        <time>2020-12-05T15:11:16.094Z</time>
      </trkpt>
      <trkpt lat="48.80223" lon="2.25139">
        <ele>169</ele>
        <time>2020-12-05T15:11:17.095Z</time>
      </trkpt>
      <trkpt lat="48.80223" lon="2.2514">
        <ele>169</ele>
        <time>2020-12-05T15:11:18.094Z</time>
      </trkpt>
      <trkpt lat="48.80223" lon="2.25141">
        <ele>169</ele>
        <time>2020-12-05T15:11:19.094Z</time>
      </trkpt>
      <trkpt lat="48.80223" lon="2.25142">
        <ele>169</ele>
        <time>2020-12-05T15:11:20.094Z</time>
      </trkpt>
      <trkpt lat="48.80222" lon="2.25143">
        <ele>168</ele>
        <time>2020-12-05T15:11:21.094Z</time>
      </trkpt>
      <trkpt lat="48.80222" lon="2.25144">
        <ele>168</ele>
        <time>2020-12-05T15:11:22.095Z</time>
      </trkpt>
      <trkpt lat="48.80221" lon="2.25145">
        <ele>168</ele>
        <time>2020-12-05T15:11:23.094Z</time>
      </trkpt>
      <trkpt lat="48.8022" lon="2.25146">
        <ele>168</ele>
        <time>2020-12-05T15:11:24.094Z</time>
      </trkpt>
      <trkpt lat="48.80219" lon="2.25147">
        <ele>168</ele>
        <time>2020-12-05T15:11:25.094Z</time>
      </trkpt>
      <trkpt lat="48.80218" lon="2.25147">
        <ele>168</ele>
        <time>2020-12-05T15:11:26.095Z</time>
      </trkpt>
      <trkpt lat="48.80216" lon="2.25148">
        <ele>168</ele>
        <time>2020-12-05T15:11:27.095Z</time>
      </trkpt>
      <trkpt lat="48.80214" lon="2.2515">
        <ele>168</ele>
        <time>2020-12-05T15:11:28.095Z</time>
      </trkpt>
      <trkpt lat="48.80211" lon="2.25152">
        <ele>168</ele>
        <time>2020-12-05T15:11:29.095Z</time>
      </trkpt>
      <trkpt lat="48.80209" lon="2.25153">
        <ele>168</ele>
        <time>2020-12-05T15:11:30.095Z</time>
      </trkpt>
      <trkpt lat="48.80207" lon="2.25154">
        <ele>168</ele>
        <time>2020-12-05T15:11:31.094Z</time>
      </trkpt>
      <trkpt lat="48.80206" lon="2.25155">
        <ele>168</ele>
        <time>2020-12-05T15:11:32.094Z</time>
      </trkpt>
      <trkpt lat="48.80205" lon="2.25156">
        <ele>168</ele>
        <time>2020-12-05T15:11:33.095Z</time>
      </trkpt>
      <trkpt lat="48.80203" lon="2.25156">
        <ele>168</ele>
        <time>2020-12-05T15:11:34.095Z</time>
      </trkpt>
      <trkpt lat="48.80202" lon="2.25157">
        <ele>169</ele>
        <time>2020-12-05T15:11:35.095Z</time>
      </trkpt>
      <trkpt lat="48.80199" lon="2.25157">
        <ele>169</ele>
        <time>2020-12-05T15:11:36.095Z</time>
      </trkpt>
      <trkpt lat="48.80198" lon="2.25157">
        <ele>169</ele>
        <time>2020-12-05T15:11:37.095Z</time>
      </trkpt>
      <trkpt lat="48.80197" lon="2.25157">
        <ele>169</ele>
        <time>2020-12-05T15:11:38.094Z</time>
      </trkpt>
      <trkpt lat="48.80195" lon="2.25157">
        <ele>170</ele>
        <time>2020-12-05T15:11:39.094Z</time>
      </trkpt>
      <trkpt lat="48.80193" lon="2.25157">
        <ele>170</ele>
        <time>2020-12-05T15:11:40.095Z</time>
      </trkpt>
      <trkpt lat="48.80192" lon="2.25157">
        <ele>170</ele>
        <time>2020-12-05T15:11:41.095Z</time>
      </trkpt>
      <trkpt lat="48.8019" lon="2.25157">
        <ele>170</ele>
        <time>2020-12-05T15:11:42.094Z</time>
      </trkpt>
      <trkpt lat="48.80188" lon="2.25156">
        <ele>170</ele>
        <time>2020-12-05T15:11:43.095Z</time>
      </trkpt>
      <trkpt lat="48.80187" lon="2.25155">
        <ele>170</ele>
        <time>2020-12-05T15:11:44.095Z</time>
      </trkpt>
      <trkpt lat="48.80186" lon="2.25154">
        <ele>170</ele>
        <time>2020-12-05T15:11:45.095Z</time>
      </trkpt>
      <trkpt lat="48.80185" lon="2.25153">
        <ele>170</ele>
        <time>2020-12-05T15:11:46.095Z</time>
      </trkpt>
      <trkpt lat="48.80184" lon="2.25152">
        <ele>170</ele>
        <time>2020-12-05T15:11:47.095Z</time>
      </trkpt>
      <trkpt lat="48.80183" lon="2.25151">
        <ele>170</ele>
        <time>2020-12-05T15:11:48.095Z</time>
      </trkpt>
      <trkpt lat="48.80181" lon="2.25151">
        <ele>170</ele>
        <time>2020-12-05T15:11:49.095Z</time>
      </trkpt>
      <trkpt lat="48.8018" lon="2.2515">
        <ele>169</ele>
        <time>2020-12-05T15:11:50.095Z</time>
      </trkpt>
      <trkpt lat="48.80179" lon="2.25149">
        <ele>169</ele>
        <time>2020-12-05T15:11:51.095Z</time>
      </trkpt>
      <trkpt lat="48.80178" lon="2.25149">
        <ele>169</ele>
        <time>2020-12-05T15:11:52.094Z</time>
      </trkpt>
      <trkpt lat="48.80177" lon="2.25148">
        <ele>169</ele>
        <time>2020-12-05T15:11:53.095Z</time>
      </trkpt>
      <trkpt lat="48.80175" lon="2.25148">
        <ele>168</ele>
        <time>2020-12-05T15:11:54.095Z</time>
      </trkpt>
      <trkpt lat="48.80174" lon="2.25148">
        <ele>168</ele>
        <time>2020-12-05T15:11:55.095Z</time>
      </trkpt>
      <trkpt lat="48.80172" lon="2.25148">
        <ele>168</ele>
        <time>2020-12-05T15:11:56.095Z</time>
      </trkpt>
      <trkpt lat="48.80171" lon="2.25148">
        <ele>168</ele>
        <time>2020-12-05T15:11:57.095Z</time>
      </trkpt>
      <trkpt lat="48.8017" lon="2.25148">
        <ele>169</ele>
        <time>2020-12-05T15:11:58.095Z</time>
      </trkpt>
      <trkpt lat="48.80169" lon="2.25147">
        <ele>169</ele>
        <time>2020-12-05T15:11:59.094Z</time>
      </trkpt>
      <trkpt lat="48.80167" lon="2.25147">
        <ele>169</ele>
        <time>2020-12-05T15:12:00.094Z</time>
      </trkpt>
      <trkpt lat="48.80166" lon="2.25147">
        <ele>169</ele>
        <time>2020-12-05T15:12:01.095Z</time>
      </trkpt>
      <trkpt lat="48.80165" lon="2.25147">
        <ele>169</ele>
        <time>2020-12-05T15:12:02.095Z</time>
      </trkpt>
      <trkpt lat="48.80164" lon="2.25148">
        <ele>169</ele>
        <time>2020-12-05T15:12:03.094Z</time>
      </trkpt>
      <trkpt lat="48.80163" lon="2.25148">
        <ele>169</ele>
        <time>2020-12-05T15:12:04.094Z</time>
      </trkpt>
      <trkpt lat="48.80161" lon="2.25149">
        <ele>169</ele>
        <time>2020-12-05T15:12:05.095Z</time>
      </trkpt>
      <trkpt lat="48.80159" lon="2.25149">
        <ele>169</ele>
        <time>2020-12-05T15:12:06.095Z</time>
      </trkpt>
      <trkpt lat="48.80157" lon="2.25149">
        <ele>169</ele>
        <time>2020-12-05T15:12:07.095Z</time>
      </trkpt>
      <trkpt lat="48.80155" lon="2.25148">
        <ele>169</ele>
        <time>2020-12-05T15:12:08.094Z</time>
      </trkpt>
      <trkpt lat="48.80153" lon="2.25147">
        <ele>169</ele>
        <time>2020-12-05T15:12:09.094Z</time>
      </trkpt>
      <trkpt lat="48.80152" lon="2.25146">
        <ele>169</ele>
        <time>2020-12-05T15:12:10.095Z</time>
      </trkpt>
      <trkpt lat="48.80151" lon="2.25145">
        <ele>169</ele>
        <time>2020-12-05T15:12:11.095Z</time>
      </trkpt>
      <trkpt lat="48.8015" lon="2.25145">
        <ele>169</ele>
        <time>2020-12-05T15:12:12.094Z</time>
      </trkpt>
      <trkpt lat="48.80149" lon="2.25144">
        <ele>170</ele>
        <time>2020-12-05T15:12:13.095Z</time>
      </trkpt>
      <trkpt lat="48.80147" lon="2.25144">
        <ele>170</ele>
        <time>2020-12-05T15:12:14.094Z</time>
      </trkpt>
      <trkpt lat="48.80146" lon="2.25143">
        <ele>170</ele>
        <time>2020-12-05T15:12:15.095Z</time>
      </trkpt>
      <trkpt lat="48.80145" lon="2.25143">
        <ele>170</ele>
        <time>2020-12-05T15:12:16.095Z</time>
      </trkpt>
      <trkpt lat="48.80144" lon="2.25143">
        <ele>170</ele>
        <time>2020-12-05T15:12:17.095Z</time>
      </trkpt>
      <trkpt lat="48.80143" lon="2.25143">
        <ele>170</ele>
        <time>2020-12-05T15:12:18.095Z</time>
      </trkpt>
      <trkpt lat="48.80143" lon="2.25142">
        <ele>170</ele>
        <time>2020-12-05T15:12:19.095Z</time>
      </trkpt>
      <trkpt lat="48.80142" lon="2.25142">
        <ele>170</ele>
        <time>2020-12-05T15:12:20.095Z</time>
      </trkpt>
      <trkpt lat="48.80141" lon="2.25141">
        <ele>170</ele>
        <time>2020-12-05T15:12:21.095Z</time>
      </trkpt>
      <trkpt lat="48.80141" lon="2.25141">
        <ele>171</ele>
        <time>2020-12-05T15:12:22.095Z</time>
      </trkpt>
      <trkpt lat="48.8014" lon="2.2514">
        <ele>171</ele>
        <time>2020-12-05T15:12:23.095Z</time>
      </trkpt>
      <trkpt lat="48.80139" lon="2.25139">
        <ele>171</ele>
        <time>2020-12-05T15:12:24.095Z</time>
      </trkpt>
      <trkpt lat="48.80138" lon="2.25138">
        <ele>171</ele>
        <time>2020-12-05T15:12:25.095Z</time>
      </trkpt>
      <trkpt lat="48.80137" lon="2.25137">
        <ele>172</ele>
        <time>2020-12-05T15:12:26.094Z</time>
      </trkpt>
      <trkpt lat="48.80136" lon="2.25136">
        <ele>172</ele>
        <time>2020-12-05T15:12:27.094Z</time>
      </trkpt>
      <trkpt lat="48.80135" lon="2.25136">
        <ele>172</ele>
        <time>2020-12-05T15:12:28.094Z</time>
      </trkpt>
      <trkpt lat="48.80134" lon="2.25134">
        <ele>172</ele>
        <time>2020-12-05T15:12:29.095Z</time>
      </trkpt>
      <trkpt lat="48.80134" lon="2.25133">
        <ele>172</ele>
        <time>2020-12-05T15:12:30.094Z</time>
      </trkpt>
      <trkpt lat="48.80133" lon="2.25132">
        <ele>172</ele>
        <time>2020-12-05T15:12:31.094Z</time>
      </trkpt>
      <trkpt lat="48.80132" lon="2.25132">
        <ele>172</ele>
        <time>2020-12-05T15:12:32.095Z</time>
      </trkpt>
      <trkpt lat="48.80131" lon="2.25133">
        <ele>172</ele>
        <time>2020-12-05T15:12:33.094Z</time>
      </trkpt>
      <trkpt lat="48.80131" lon="2.25134">
        <ele>172</ele>
        <time>2020-12-05T15:12:34.094Z</time>
      </trkpt>
      <trkpt lat="48.80132" lon="2.25135">
        <ele>172</ele>
        <time>2020-12-05T15:12:35.094Z</time>
      </trkpt>
      <trkpt lat="48.80134" lon="2.25136">
        <ele>173</ele>
        <time>2020-12-05T15:12:36.095Z</time>
      </trkpt>
      <trkpt lat="48.80137" lon="2.25136">
        <ele>173</ele>
        <time>2020-12-05T15:12:37.095Z</time>
      </trkpt>
      <trkpt lat="48.80142" lon="2.25135">
        <ele>173</ele>
        <time>2020-12-05T15:12:38.095Z</time>
      </trkpt>
      <trkpt lat="48.80148" lon="2.25133">
        <ele>173</ele>
        <time>2020-12-05T15:12:39.094Z</time>
      </trkpt>
      <trkpt lat="48.80155" lon="2.25131">
        <ele>173</ele>
        <time>2020-12-05T15:12:40.094Z</time>
      </trkpt>
      <trkpt lat="48.80161" lon="2.25128">
        <ele>173</ele>
        <time>2020-12-05T15:12:41.094Z</time>
      </trkpt>
      <trkpt lat="48.80163" lon="2.25128">
        <ele>173</ele>
        <time>2020-12-05T15:12:42.095Z</time>
      </trkpt>
      <trkpt lat="48.80163" lon="2.25128">
        <ele>172</ele>
        <time>2020-12-05T15:12:43.095Z</time>
      </trkpt>
      <trkpt lat="48.80163" lon="2.25128">
        <ele>172</ele>
        <time>2020-12-05T15:12:44.095Z</time>
      </trkpt>
      <trkpt lat="48.80162" lon="2.25129">
        <ele>172</ele>
        <time>2020-12-05T15:12:45.095Z</time>
      </trkpt>
      <trkpt lat="48.80161" lon="2.2513">
        <ele>172</ele>
        <time>2020-12-05T15:12:46.094Z</time>
      </trkpt>
      <trkpt lat="48.8016" lon="2.2513">
        <ele>171</ele>
        <time>2020-12-05T15:12:47.094Z</time>
      </trkpt>
      <trkpt lat="48.80159" lon="2.2513">
        <ele>171</ele>
        <time>2020-12-05T15:12:48.094Z</time>
      </trkpt>
      <trkpt lat="48.80158" lon="2.25129">
        <ele>171</ele>
        <time>2020-12-05T15:12:49.094Z</time>
      </trkpt>
      <trkpt lat="48.80156" lon="2.25128">
        <ele>170</ele>
        <time>2020-12-05T15:12:50.095Z</time>
      </trkpt>
      <trkpt lat="48.80155" lon="2.25127">
        <ele>170</ele>
        <time>2020-12-05T15:12:51.095Z</time>
      </trkpt>
      <trkpt lat="48.80153" lon="2.25126">
        <ele>170</ele>
        <time>2020-12-05T15:12:52.095Z</time>
      </trkpt>
      <trkpt lat="48.80152" lon="2.25125">
        <ele>170</ele>
        <time>2020-12-05T15:12:53.095Z</time>
      </trkpt>
      <trkpt lat="48.80152" lon="2.25125">
        <ele>170</ele>
        <time>2020-12-05T15:12:54.095Z</time>
      </trkpt>
      <trkpt lat="48.80152" lon="2.25124">
        <ele>170</ele>
        <time>2020-12-05T15:12:55.094Z</time>
      </trkpt>
      <trkpt lat="48.80152" lon="2.25123">
        <ele>170</ele>
        <time>2020-12-05T15:12:56.094Z</time>
      </trkpt>
      <trkpt lat="48.80151" lon="2.25122">
        <ele>171</ele>
        <time>2020-12-05T15:12:57.095Z</time>
      </trkpt>
      <trkpt lat="48.80151" lon="2.25121">
        <ele>171</ele>
        <time>2020-12-05T15:12:58.095Z</time>
      </trkpt>
      <trkpt lat="48.8015" lon="2.2512">
        <ele>171</ele>
        <time>2020-12-05T15:12:59.095Z</time>
      </trkpt>
      <trkpt lat="48.80148" lon="2.25119">
        <ele>172</ele>
        <time>2020-12-05T15:13:00.095Z</time>
      </trkpt>
      <trkpt lat="48.80147" lon="2.25117">
        <ele>172</ele>
        <time>2020-12-05T15:13:01.095Z</time>
      </trkpt>
      <trkpt lat="48.80145" lon="2.25116">
        <ele>172</ele>
        <time>2020-12-05T15:13:02.095Z</time>
      </trkpt>
      <trkpt lat="48.80143" lon="2.25114">
        <ele>172</ele>
        <time>2020-12-05T15:13:03.095Z</time>
      </trkpt>
      <trkpt lat="48.80142" lon="2.25112">
        <ele>172</ele>
        <time>2020-12-05T15:13:04.095Z</time>
      </trkpt>
      <trkpt lat="48.8014" lon="2.25109">
        <ele>172</ele>
        <time>2020-12-05T15:13:05.095Z</time>
      </trkpt>
      <trkpt lat="48.80136" lon="2.25105">
        <ele>173</ele>
        <time>2020-12-05T15:13:06.095Z</time>
      </trkpt>
      <trkpt lat="48.80132" lon="2.25102">
        <ele>173</ele>
        <time>2020-12-05T15:13:07.095Z</time>
      </trkpt>
      <trkpt lat="48.80128" lon="2.251">
        <ele>173</ele>
        <time>2020-12-05T15:13:08.095Z</time>
      </trkpt>
      <trkpt lat="48.80125" lon="2.25098">
        <ele>173</ele>
        <time>2020-12-05T15:13:09.095Z</time>
      </trkpt>
      <trkpt lat="48.80122" lon="2.25096">
        <ele>173</ele>
        <time>2020-12-05T15:13:10.095Z</time>
      </trkpt>
      <trkpt lat="48.8012" lon="2.25094">
        <ele>174</ele>
        <time>2020-12-05T15:13:11.095Z</time>
      </trkpt>
      <trkpt lat="48.80118" lon="2.25092">
        <ele>174</ele>
        <time>2020-12-05T15:13:12.094Z</time>
      </trkpt>
      <trkpt lat="48.80116" lon="2.25091">
        <ele>174</ele>
        <time>2020-12-05T15:13:13.095Z</time>
      </trkpt>
      <trkpt lat="48.80115" lon="2.2509">
        <ele>174</ele>
        <time>2020-12-05T15:13:14.095Z</time>
      </trkpt>
      <trkpt lat="48.80113" lon="2.25087">
        <ele>174</ele>
        <time>2020-12-05T15:13:15.095Z</time>
      </trkpt>
      <trkpt lat="48.80111" lon="2.25085">
        <ele>174</ele>
        <time>2020-12-05T15:13:16.095Z</time>
      </trkpt>
      <trkpt lat="48.80109" lon="2.25083">
        <ele>175</ele>
        <time>2020-12-05T15:13:17.095Z</time>
      </trkpt>
      <trkpt lat="48.80108" lon="2.25081">
        <ele>175</ele>
        <time>2020-12-05T15:13:18.095Z</time>
      </trkpt>
      <trkpt lat="48.80107" lon="2.25079">
        <ele>175</ele>
        <time>2020-12-05T15:13:19.095Z</time>
      </trkpt>
      <trkpt lat="48.80106" lon="2.25077">
        <ele>175</ele>
        <time>2020-12-05T15:13:20.095Z</time>
      </trkpt>
      <trkpt lat="48.80106" lon="2.25074">
        <ele>175</ele>
        <time>2020-12-05T15:13:21.095Z</time>
      </trkpt>
      <trkpt lat="48.80105" lon="2.25073">
        <ele>175</ele>
        <time>2020-12-05T15:13:22.094Z</time>
      </trkpt>
      <trkpt lat="48.80105" lon="2.2507">
        <ele>176</ele>
        <time>2020-12-05T15:13:23.094Z</time>
      </trkpt>
      <trkpt lat="48.80106" lon="2.25068">
        <ele>176</ele>
        <time>2020-12-05T15:13:24.095Z</time>
      </trkpt>
      <trkpt lat="48.80106" lon="2.25066">
        <ele>176</ele>
        <time>2020-12-05T15:13:25.095Z</time>
      </trkpt>
      <trkpt lat="48.80105" lon="2.25064">
        <ele>177</ele>
        <time>2020-12-05T15:13:26.095Z</time>
      </trkpt>
      <trkpt lat="48.80105" lon="2.25063">
        <ele>177</ele>
        <time>2020-12-05T15:13:27.094Z</time>
      </trkpt>
      <trkpt lat="48.80104" lon="2.25062">
        <ele>176</ele>
        <time>2020-12-05T15:13:28.095Z</time>
      </trkpt>
      <trkpt lat="48.80103" lon="2.2506">
        <ele>176</ele>
        <time>2020-12-05T15:13:29.095Z</time>
      </trkpt>
      <trkpt lat="48.80102" lon="2.25058">
        <ele>176</ele>
        <time>2020-12-05T15:13:30.094Z</time>
      </trkpt>
      <trkpt lat="48.80101" lon="2.25056">
        <ele>176</ele>
        <time>2020-12-05T15:13:31.095Z</time>
      </trkpt>
      <trkpt lat="48.801" lon="2.25055">
        <ele>176</ele>
        <time>2020-12-05T15:13:32.095Z</time>
      </trkpt>
      <trkpt lat="48.80099" lon="2.25053">
        <ele>176</ele>
        <time>2020-12-05T15:13:33.095Z</time>
      </trkpt>
      <trkpt lat="48.80098" lon="2.25051">
        <ele>177</ele>
        <time>2020-12-05T15:13:34.094Z</time>
      </trkpt>
      <trkpt lat="48.80097" lon="2.25051">
        <ele>177</ele>
        <time>2020-12-05T15:13:35.095Z</time>
      </trkpt>
      <trkpt lat="48.80096" lon="2.2505">
        <ele>177</ele>
        <time>2020-12-05T15:13:36.095Z</time>
      </trkpt>
      <trkpt lat="48.80095" lon="2.25049">
        <ele>177</ele>
        <time>2020-12-05T15:13:37.095Z</time>
      </trkpt>
      <trkpt lat="48.80093" lon="2.25047">
        <ele>177</ele>
        <time>2020-12-05T15:13:38.094Z</time>
      </trkpt>
      <trkpt lat="48.80092" lon="2.25045">
        <ele>177</ele>
        <time>2020-12-05T15:13:39.094Z</time>
      </trkpt>
      <trkpt lat="48.80091" lon="2.25042">
        <ele>178</ele>
        <time>2020-12-05T15:13:40.094Z</time>
      </trkpt>
      <trkpt lat="48.8009" lon="2.25039">
        <ele>178</ele>
        <time>2020-12-05T15:13:41.094Z</time>
      </trkpt>
      <trkpt lat="48.80089" lon="2.25036">
        <ele>178</ele>
        <time>2020-12-05T15:13:42.095Z</time>
      </trkpt>
      <trkpt lat="48.80088" lon="2.25035">
        <ele>178</ele>
        <time>2020-12-05T15:13:43.095Z</time>
      </trkpt>
      <trkpt lat="48.80088" lon="2.25034">
        <ele>178</ele>
        <time>2020-12-05T15:13:44.095Z</time>
      </trkpt>
      <trkpt lat="48.80088" lon="2.25032">
        <ele>178</ele>
        <time>2020-12-05T15:13:45.095Z</time>
      </trkpt>
      <trkpt lat="48.80089" lon="2.25031">
        <ele>178</ele>
        <time>2020-12-05T15:13:46.095Z</time>
      </trkpt>
      <trkpt lat="48.80089" lon="2.2503">
        <ele>178</ele>
        <time>2020-12-05T15:13:47.095Z</time>
      </trkpt>
      <trkpt lat="48.80089" lon="2.25029">
        <ele>177</ele>
        <time>2020-12-05T15:13:48.095Z</time>
      </trkpt>
      <trkpt lat="48.80088" lon="2.25027">
        <ele>177</ele>
        <time>2020-12-05T15:13:49.095Z</time>
      </trkpt>
      <trkpt lat="48.80087" lon="2.25025">
        <ele>177</ele>
        <time>2020-12-05T15:13:50.094Z</time>
      </trkpt>
      <trkpt lat="48.80086" lon="2.25023">
        <ele>176</ele>
        <time>2020-12-05T15:13:51.094Z</time>
      </trkpt>
      <trkpt lat="48.80086" lon="2.25021">
        <ele>176</ele>
        <time>2020-12-05T15:13:52.094Z</time>
      </trkpt>
      <trkpt lat="48.80085" lon="2.25019">
        <ele>176</ele>
        <time>2020-12-05T15:13:53.095Z</time>
      </trkpt>
      <trkpt lat="48.80084" lon="2.25017">
        <ele>177</ele>
        <time>2020-12-05T15:13:54.095Z</time>
      </trkpt>
      <trkpt lat="48.80083" lon="2.25014">
        <ele>177</ele>
        <time>2020-12-05T15:13:55.095Z</time>
      </trkpt>
      <trkpt lat="48.80082" lon="2.25012">
        <ele>176</ele>
        <time>2020-12-05T15:13:56.095Z</time>
      </trkpt>
      <trkpt lat="48.80081" lon="2.25011">
        <ele>176</ele>
        <time>2020-12-05T15:13:57.095Z</time>
      </trkpt>
      <trkpt lat="48.80081" lon="2.25009">
        <ele>176</ele>
        <time>2020-12-05T15:13:58.095Z</time>
      </trkpt>
      <trkpt lat="48.8008" lon="2.25007">
        <ele>176</ele>
        <time>2020-12-05T15:13:59.095Z</time>
      </trkpt>
      <trkpt lat="48.8008" lon="2.25005">
        <ele>176</ele>
        <time>2020-12-05T15:14:00.095Z</time>
      </trkpt>
      <trkpt lat="48.80079" lon="2.25003">
        <ele>176</ele>
        <time>2020-12-05T15:14:01.094Z</time>
      </trkpt>
      <trkpt lat="48.80079" lon="2.25001">
        <ele>177</ele>
        <time>2020-12-05T15:14:02.094Z</time>
      </trkpt>
      <trkpt lat="48.80079" lon="2.24999">
        <ele>177</ele>
        <time>2020-12-05T15:14:03.094Z</time>
      </trkpt>
      <trkpt lat="48.80078" lon="2.24996">
        <ele>177</ele>
        <time>2020-12-05T15:14:04.095Z</time>
      </trkpt>
      <trkpt lat="48.80078" lon="2.24994">
        <ele>177</ele>
        <time>2020-12-05T15:14:05.095Z</time>
      </trkpt>
      <trkpt lat="48.80077" lon="2.24992">
        <ele>177</ele>
        <time>2020-12-05T15:14:06.094Z</time>
      </trkpt>
      <trkpt lat="48.80077" lon="2.2499">
        <ele>177</ele>
        <time>2020-12-05T15:14:07.094Z</time>
      </trkpt>
      <trkpt lat="48.80076" lon="2.24989">
        <ele>177</ele>
        <time>2020-12-05T15:14:08.094Z</time>
      </trkpt>
      <trkpt lat="48.80076" lon="2.24987">
        <ele>177</ele>
        <time>2020-12-05T15:14:09.095Z</time>
      </trkpt>
      <trkpt lat="48.80076" lon="2.24984">
        <ele>176</ele>
        <time>2020-12-05T15:14:10.095Z</time>
      </trkpt>
      <trkpt lat="48.80075" lon="2.24981">
        <ele>176</ele>
        <time>2020-12-05T15:14:11.095Z</time>
      </trkpt>
      <trkpt lat="48.80076" lon="2.24979">
        <ele>176</ele>
        <time>2020-12-05T15:14:12.095Z</time>
      </trkpt>
      <trkpt lat="48.80075" lon="2.24977">
        <ele>176</ele>
        <time>2020-12-05T15:14:13.095Z</time>
      </trkpt>
      <trkpt lat="48.80075" lon="2.24974">
        <ele>176</ele>
        <time>2020-12-05T15:14:14.095Z</time>
      </trkpt>
      <trkpt lat="48.80076" lon="2.24972">
        <ele>176</ele>
        <time>2020-12-05T15:14:15.095Z</time>
      </trkpt>
      <trkpt lat="48.80077" lon="2.2497">
        <ele>175</ele>
        <time>2020-12-05T15:14:16.095Z</time>
      </trkpt>
      <trkpt lat="48.80078" lon="2.24968">
        <ele>175</ele>
        <time>2020-12-05T15:14:17.095Z</time>
      </trkpt>
      <trkpt lat="48.80079" lon="2.24966">
        <ele>175</ele>
        <time>2020-12-05T15:14:18.095Z</time>
      </trkpt>
      <trkpt lat="48.80079" lon="2.24965">
        <ele>175</ele>
        <time>2020-12-05T15:14:19.095Z</time>
      </trkpt>
      <trkpt lat="48.80078" lon="2.24963">
        <ele>175</ele>
        <time>2020-12-05T15:14:20.094Z</time>
      </trkpt>
      <trkpt lat="48.80078" lon="2.2496">
        <ele>175</ele>
        <time>2020-12-05T15:14:21.094Z</time>
      </trkpt>
      <trkpt lat="48.80078" lon="2.24958">
        <ele>175</ele>
        <time>2020-12-05T15:14:22.094Z</time>
      </trkpt>
      <trkpt lat="48.80078" lon="2.24957">
        <ele>175</ele>
        <time>2020-12-05T15:14:23.094Z</time>
      </trkpt>
      <trkpt lat="48.80078" lon="2.24955">
        <ele>175</ele>
        <time>2020-12-05T15:14:24.095Z</time>
      </trkpt>
      <trkpt lat="48.80078" lon="2.24953">
        <ele>175</ele>
        <time>2020-12-05T15:14:25.095Z</time>
      </trkpt>
      <trkpt lat="48.80078" lon="2.24951">
        <ele>175</ele>
        <time>2020-12-05T15:14:26.094Z</time>
      </trkpt>
      <trkpt lat="48.80077" lon="2.24949">
        <ele>175</ele>
        <time>2020-12-05T15:14:27.094Z</time>
      </trkpt>
      <trkpt lat="48.80076" lon="2.24948">
        <ele>176</ele>
        <time>2020-12-05T15:14:28.094Z</time>
      </trkpt>
      <trkpt lat="48.80076" lon="2.24946">
        <ele>176</ele>
        <time>2020-12-05T15:14:29.094Z</time>
      </trkpt>
      <trkpt lat="48.80075" lon="2.24945">
        <ele>176</ele>
        <time>2020-12-05T15:14:30.095Z</time>
      </trkpt>
      <trkpt lat="48.80075" lon="2.24943">
        <ele>176</ele>
        <time>2020-12-05T15:14:31.095Z</time>
      </trkpt>
      <trkpt lat="48.80075" lon="2.2494">
        <ele>176</ele>
        <time>2020-12-05T15:14:32.095Z</time>
      </trkpt>
      <trkpt lat="48.80075" lon="2.24938">
        <ele>176</ele>
        <time>2020-12-05T15:14:33.094Z</time>
      </trkpt>
      <trkpt lat="48.80074" lon="2.24936">
        <ele>176</ele>
        <time>2020-12-05T15:14:34.095Z</time>
      </trkpt>
      <trkpt lat="48.80074" lon="2.24933">
        <ele>176</ele>
        <time>2020-12-05T15:14:35.095Z</time>
      </trkpt>
      <trkpt lat="48.80073" lon="2.24931">
        <ele>176</ele>
        <time>2020-12-05T15:14:36.095Z</time>
      </trkpt>
      <trkpt lat="48.80073" lon="2.24928">
        <ele>176</ele>
        <time>2020-12-05T15:14:37.095Z</time>
      </trkpt>
      <trkpt lat="48.80073" lon="2.24926">
        <ele>175</ele>
        <time>2020-12-05T15:14:38.094Z</time>
      </trkpt>
      <trkpt lat="48.80073" lon="2.24924">
        <ele>175</ele>
        <time>2020-12-05T15:14:39.094Z</time>
      </trkpt>
      <trkpt lat="48.80073" lon="2.24922">
        <ele>175</ele>
        <time>2020-12-05T15:14:40.094Z</time>
      </trkpt>
      <trkpt lat="48.80073" lon="2.2492">
        <ele>175</ele>
        <time>2020-12-05T15:14:41.095Z</time>
      </trkpt>
      <trkpt lat="48.80072" lon="2.24917">
        <ele>174</ele>
        <time>2020-12-05T15:14:42.095Z</time>
      </trkpt>
      <trkpt lat="48.80071" lon="2.24915">
        <ele>174</ele>
        <time>2020-12-05T15:14:43.095Z</time>
      </trkpt>
      <trkpt lat="48.8007" lon="2.24914">
        <ele>174</ele>
        <time>2020-12-05T15:14:44.094Z</time>
      </trkpt>
      <trkpt lat="48.8007" lon="2.24911">
        <ele>174</ele>
        <time>2020-12-05T15:14:45.094Z</time>
      </trkpt>
      <trkpt lat="48.80069" lon="2.2491">
        <ele>173</ele>
        <time>2020-12-05T15:14:46.094Z</time>
      </trkpt>
      <trkpt lat="48.80069" lon="2.24908">
        <ele>173</ele>
        <time>2020-12-05T15:14:47.094Z</time>
      </trkpt>
      <trkpt lat="48.80068" lon="2.24906">
        <ele>173</ele>
        <time>2020-12-05T15:14:48.094Z</time>
      </trkpt>
      <trkpt lat="48.80068" lon="2.24905">
        <ele>172</ele>
        <time>2020-12-05T15:14:49.095Z</time>
      </trkpt>
      <trkpt lat="48.80068" lon="2.24904">
        <ele>172</ele>
        <time>2020-12-05T15:14:50.095Z</time>
      </trkpt>
      <trkpt lat="48.80068" lon="2.24904">
        <ele>172</ele>
        <time>2020-12-05T15:14:51.095Z</time>
      </trkpt>
      <trkpt lat="48.80068" lon="2.24903">
        <ele>171</ele>
        <time>2020-12-05T15:14:52.095Z</time>
      </trkpt>
      <trkpt lat="48.80068" lon="2.24903">
        <ele>171</ele>
        <time>2020-12-05T15:14:53.095Z</time>
      </trkpt>
      <trkpt lat="48.80068" lon="2.24903">
        <ele>172</ele>
        <time>2020-12-05T15:14:54.095Z</time>
      </trkpt>
      <trkpt lat="48.80067" lon="2.24903">
        <ele>172</ele>
        <time>2020-12-05T15:14:55.095Z</time>
      </trkpt>
      <trkpt lat="48.80066" lon="2.24903">
        <ele>172</ele>
        <time>2020-12-05T15:14:56.095Z</time>
      </trkpt>
      <trkpt lat="48.80065" lon="2.24903">
        <ele>172</ele>
        <time>2020-12-05T15:14:57.095Z</time>
      </trkpt>
      <trkpt lat="48.80064" lon="2.24903">
        <ele>172</ele>
        <time>2020-12-05T15:14:58.094Z</time>
      </trkpt>
      <trkpt lat="48.80063" lon="2.24903">
        <ele>172</ele>
        <time>2020-12-05T15:14:59.094Z</time>
      </trkpt>
      <trkpt lat="48.80062" lon="2.24902">
        <ele>172</ele>
        <time>2020-12-05T15:15:00.095Z</time>
      </trkpt>
      <trkpt lat="48.80062" lon="2.24901">
        <ele>172</ele>
        <time>2020-12-05T15:15:01.095Z</time>
      </trkpt>
      <trkpt lat="48.80062" lon="2.24901">
        <ele>172</ele>
        <time>2020-12-05T15:15:02.095Z</time>
      </trkpt>
      <trkpt lat="48.80061" lon="2.24899">
        <ele>172</ele>
        <time>2020-12-05T15:15:03.095Z</time>
      </trkpt>
      <trkpt lat="48.8006" lon="2.24898">
        <ele>173</ele>
        <time>2020-12-05T15:15:04.094Z</time>
      </trkpt>
      <trkpt lat="48.8006" lon="2.24897">
        <ele>173</ele>
        <time>2020-12-05T15:15:05.095Z</time>
      </trkpt>
      <trkpt lat="48.80059" lon="2.24895">
        <ele>174</ele>
        <time>2020-12-05T15:15:06.095Z</time>
      </trkpt>
      <trkpt lat="48.80059" lon="2.24893">
        <ele>174</ele>
        <time>2020-12-05T15:15:07.094Z</time>
      </trkpt>
      <trkpt lat="48.80058" lon="2.24891">
        <ele>174</ele>
        <time>2020-12-05T15:15:08.095Z</time>
      </trkpt>
      <trkpt lat="48.80058" lon="2.2489">
        <ele>175</ele>
        <time>2020-12-05T15:15:09.095Z</time>
      </trkpt>
      <trkpt lat="48.80058" lon="2.24888">
        <ele>175</ele>
        <time>2020-12-05T15:15:10.095Z</time>
      </trkpt>
      <trkpt lat="48.80058" lon="2.24886">
        <ele>175</ele>
        <time>2020-12-05T15:15:11.094Z</time>
      </trkpt>
      <trkpt lat="48.80058" lon="2.24885">
        <ele>175</ele>
        <time>2020-12-05T15:15:12.094Z</time>
      </trkpt>
      <trkpt lat="48.80058" lon="2.24884">
        <ele>175</ele>
        <time>2020-12-05T15:15:13.094Z</time>
      </trkpt>
      <trkpt lat="48.80058" lon="2.24884">
        <ele>174</ele>
        <time>2020-12-05T15:15:14.095Z</time>
      </trkpt>
      <trkpt lat="48.80058" lon="2.24883">
        <ele>174</ele>
        <time>2020-12-05T15:15:15.095Z</time>
      </trkpt>
      <trkpt lat="48.80058" lon="2.24882">
        <ele>174</ele>
        <time>2020-12-05T15:15:16.095Z</time>
      </trkpt>
      <trkpt lat="48.80058" lon="2.24882">
        <ele>173</ele>
        <time>2020-12-05T15:15:17.095Z</time>
      </trkpt>
      <trkpt lat="48.80058" lon="2.24882">
        <ele>173</ele>
        <time>2020-12-05T15:15:18.095Z</time>
      </trkpt>
      <trkpt lat="48.80058" lon="2.24882">
        <ele>172</ele>
        <time>2020-12-05T15:15:19.094Z</time>
      </trkpt>
      <trkpt lat="48.80058" lon="2.24883">
        <ele>172</ele>
        <time>2020-12-05T15:15:20.094Z</time>
      </trkpt>
      <trkpt lat="48.80057" lon="2.24883">
        <ele>171</ele>
        <time>2020-12-05T15:15:21.095Z</time>
      </trkpt>
      <trkpt lat="48.80057" lon="2.24883">
        <ele>170</ele>
        <time>2020-12-05T15:15:22.095Z</time>
      </trkpt>
      <trkpt lat="48.80057" lon="2.24883">
        <ele>170</ele>
        <time>2020-12-05T15:15:23.095Z</time>
      </trkpt>
      <trkpt lat="48.80057" lon="2.24882">
        <ele>169</ele>
        <time>2020-12-05T15:15:24.095Z</time>
      </trkpt>
      <trkpt lat="48.80057" lon="2.24881">
        <ele>169</ele>
        <time>2020-12-05T15:15:25.095Z</time>
      </trkpt>
      <trkpt lat="48.80058" lon="2.2488">
        <ele>168</ele>
        <time>2020-12-05T15:15:26.095Z</time>
      </trkpt>
      <trkpt lat="48.80058" lon="2.24879">
        <ele>168</ele>
        <time>2020-12-05T15:15:27.094Z</time>
      </trkpt>
      <trkpt lat="48.80059" lon="2.24879">
        <ele>167</ele>
        <time>2020-12-05T15:15:28.094Z</time>
      </trkpt>
      <trkpt lat="48.80059" lon="2.24879">
        <ele>167</ele>
        <time>2020-12-05T15:15:29.094Z</time>
      </trkpt>
      <trkpt lat="48.80059" lon="2.24879">
        <ele>166</ele>
        <time>2020-12-05T15:15:30.095Z</time>
      </trkpt>
      <trkpt lat="48.80059" lon="2.24879">
        <ele>165</ele>
        <time>2020-12-05T15:15:31.095Z</time>
      </trkpt>
      <trkpt lat="48.80059" lon="2.24879">
        <ele>165</ele>
        <time>2020-12-05T15:15:32.095Z</time>
      </trkpt>
      <trkpt lat="48.80059" lon="2.24879">
        <ele>164</ele>
        <time>2020-12-05T15:15:33.095Z</time>
      </trkpt>
      <trkpt lat="48.80059" lon="2.24879">
        <ele>164</ele>
        <time>2020-12-05T15:15:34.094Z</time>
      </trkpt>
      <trkpt lat="48.80059" lon="2.24879">
        <ele>163</ele>
        <time>2020-12-05T15:15:35.095Z</time>
      </trkpt>
      <trkpt lat="48.80059" lon="2.24879">
        <ele>163</ele>
        <time>2020-12-05T15:15:36.095Z</time>
      </trkpt>
      <trkpt lat="48.80059" lon="2.24879">
        <ele>162</ele>
        <time>2020-12-05T15:15:37.095Z</time>
      </trkpt>
      <trkpt lat="48.80059" lon="2.24879">
        <ele>162</ele>
        <time>2020-12-05T15:15:38.095Z</time>
      </trkpt>
      <trkpt lat="48.80059" lon="2.24879">
        <ele>162</ele>
        <time>2020-12-05T15:15:39.095Z</time>
      </trkpt>
      <trkpt lat="48.80059" lon="2.2488">
        <ele>162</ele>
        <time>2020-12-05T15:15:40.095Z</time>
      </trkpt>
      <trkpt lat="48.80059" lon="2.2488">
        <ele>162</ele>
        <time>2020-12-05T15:15:41.095Z</time>
      </trkpt>
      <trkpt lat="48.80059" lon="2.2488">
        <ele>162</ele>
        <time>2020-12-05T15:15:42.095Z</time>
      </trkpt>
      <trkpt lat="48.80059" lon="2.2488">
        <ele>162</ele>
        <time>2020-12-05T15:15:43.095Z</time>
      </trkpt>
      <trkpt lat="48.80059" lon="2.2488">
        <ele>162</ele>
        <time>2020-12-05T15:15:44.094Z</time>
      </trkpt>
      <trkpt lat="48.80059" lon="2.2488">
        <ele>162</ele>
        <time>2020-12-05T15:15:45.095Z</time>
      </trkpt>
      <trkpt lat="48.80059" lon="2.24879">
        <ele>161</ele>
        <time>2020-12-05T15:15:46.094Z</time>
      </trkpt>
      <trkpt lat="48.80057" lon="2.2488">
        <ele>161</ele>
        <time>2020-12-05T15:15:47.094Z</time>
      </trkpt>
      <trkpt lat="48.80056" lon="2.2488">
        <ele>161</ele>
        <time>2020-12-05T15:15:48.095Z</time>
      </trkpt>
      <trkpt lat="48.80054" lon="2.24882">
        <ele>161</ele>
        <time>2020-12-05T15:15:49.094Z</time>
      </trkpt>
      <trkpt lat="48.80053" lon="2.24883">
        <ele>161</ele>
        <time>2020-12-05T15:15:50.095Z</time>
      </trkpt>
      <trkpt lat="48.80052" lon="2.24885">
        <ele>161</ele>
        <time>2020-12-05T15:15:51.094Z</time>
      </trkpt>
      <trkpt lat="48.8005" lon="2.24885">
        <ele>161</ele>
        <time>2020-12-05T15:15:52.095Z</time>
      </trkpt>
      <trkpt lat="48.80048" lon="2.24886">
        <ele>161</ele>
        <time>2020-12-05T15:15:53.095Z</time>
      </trkpt>
      <trkpt lat="48.80046" lon="2.24887">
        <ele>160</ele>
        <time>2020-12-05T15:15:54.094Z</time>
      </trkpt>
      <trkpt lat="48.80045" lon="2.24888">
        <ele>160</ele>
        <time>2020-12-05T15:15:55.094Z</time>
      </trkpt>
      <trkpt lat="48.80044" lon="2.2489">
        <ele>160</ele>
        <time>2020-12-05T15:15:56.094Z</time>
      </trkpt>
      <trkpt lat="48.80042" lon="2.24891">
        <ele>159</ele>
        <time>2020-12-05T15:15:57.095Z</time>
      </trkpt>
      <trkpt lat="48.80041" lon="2.24893">
        <ele>159</ele>
        <time>2020-12-05T15:15:58.095Z</time>
      </trkpt>
      <trkpt lat="48.8004" lon="2.24894">
        <ele>158</ele>
        <time>2020-12-05T15:15:59.094Z</time>
      </trkpt>
      <trkpt lat="48.8004" lon="2.24894">
        <ele>158</ele>
        <time>2020-12-05T15:16:00.095Z</time>
      </trkpt>
      <trkpt lat="48.80039" lon="2.24895">
        <ele>158</ele>
        <time>2020-12-05T15:16:01.095Z</time>
      </trkpt>
      <trkpt lat="48.80038" lon="2.24896">
        <ele>157</ele>
        <time>2020-12-05T15:16:02.095Z</time>
      </trkpt>
      <trkpt lat="48.80037" lon="2.24898">
        <ele>157</ele>
        <time>2020-12-05T15:16:03.094Z</time>
      </trkpt>
      <trkpt lat="48.80036" lon="2.24899">
        <ele>156</ele>
        <time>2020-12-05T15:16:04.094Z</time>
      </trkpt>
      <trkpt lat="48.80034" lon="2.24901">
        <ele>156</ele>
        <time>2020-12-05T15:16:05.095Z</time>
      </trkpt>
      <trkpt lat="48.80033" lon="2.24902">
        <ele>155</ele>
        <time>2020-12-05T15:16:06.095Z</time>
      </trkpt>
      <trkpt lat="48.80031" lon="2.24904">
        <ele>155</ele>
        <time>2020-12-05T15:16:07.095Z</time>
      </trkpt>
      <trkpt lat="48.8003" lon="2.24905">
        <ele>155</ele>
        <time>2020-12-05T15:16:08.095Z</time>
      </trkpt>
      <trkpt lat="48.80029" lon="2.24907">
        <ele>155</ele>
        <time>2020-12-05T15:16:09.095Z</time>
      </trkpt>
      <trkpt lat="48.80028" lon="2.24908">
        <ele>155</ele>
        <time>2020-12-05T15:16:10.095Z</time>
      </trkpt>
      <trkpt lat="48.80027" lon="2.24908">
        <ele>155</ele>
        <time>2020-12-05T15:16:11.095Z</time>
      </trkpt>
      <trkpt lat="48.80025" lon="2.24909">
        <ele>155</ele>
        <time>2020-12-05T15:16:12.095Z</time>
      </trkpt>
      <trkpt lat="48.80024" lon="2.2491">
        <ele>155</ele>
        <time>2020-12-05T15:16:13.095Z</time>
      </trkpt>
      <trkpt lat="48.80023" lon="2.2491">
        <ele>155</ele>
        <time>2020-12-05T15:16:14.095Z</time>
      </trkpt>
      <trkpt lat="48.80022" lon="2.2491">
        <ele>155</ele>
        <time>2020-12-05T15:16:15.095Z</time>
      </trkpt>
      <trkpt lat="48.8002" lon="2.2491">
        <ele>156</ele>
        <time>2020-12-05T15:16:16.094Z</time>
      </trkpt>
      <trkpt lat="48.8002" lon="2.2491">
        <ele>156</ele>
        <time>2020-12-05T15:16:17.095Z</time>
      </trkpt>
      <trkpt lat="48.80019" lon="2.24909">
        <ele>156</ele>
        <time>2020-12-05T15:16:18.095Z</time>
      </trkpt>
      <trkpt lat="48.80017" lon="2.24909">
        <ele>157</ele>
        <time>2020-12-05T15:16:19.095Z</time>
      </trkpt>
      <trkpt lat="48.80015" lon="2.24908">
        <ele>158</ele>
        <time>2020-12-05T15:16:20.094Z</time>
      </trkpt>
      <trkpt lat="48.80014" lon="2.24908">
        <ele>158</ele>
        <time>2020-12-05T15:16:21.095Z</time>
      </trkpt>
      <trkpt lat="48.80012" lon="2.24908">
        <ele>158</ele>
        <time>2020-12-05T15:16:22.094Z</time>
      </trkpt>
      <trkpt lat="48.80012" lon="2.24908">
        <ele>158</ele>
        <time>2020-12-05T15:16:23.095Z</time>
      </trkpt>
      <trkpt lat="48.80012" lon="2.24908">
        <ele>159</ele>
        <time>2020-12-05T15:16:24.095Z</time>
      </trkpt>
      <trkpt lat="48.80013" lon="2.24909">
        <ele>159</ele>
        <time>2020-12-05T15:16:25.095Z</time>
      </trkpt>
      <trkpt lat="48.80014" lon="2.2491">
        <ele>159</ele>
        <time>2020-12-05T15:16:26.094Z</time>
      </trkpt>
      <trkpt lat="48.80014" lon="2.24911">
        <ele>160</ele>
        <time>2020-12-05T15:16:27.094Z</time>
      </trkpt>
      <trkpt lat="48.80014" lon="2.24913">
        <ele>160</ele>
        <time>2020-12-05T15:16:28.095Z</time>
      </trkpt>
      <trkpt lat="48.80015" lon="2.24914">
        <ele>160</ele>
        <time>2020-12-05T15:16:29.095Z</time>
      </trkpt>
      <trkpt lat="48.80015" lon="2.24914">
        <ele>161</ele>
        <time>2020-12-05T15:16:30.094Z</time>
      </trkpt>
      <trkpt lat="48.80015" lon="2.24915">
        <ele>161</ele>
        <time>2020-12-05T15:16:31.094Z</time>
      </trkpt>
      <trkpt lat="48.80016" lon="2.24915">
        <ele>161</ele>
        <time>2020-12-05T15:16:32.094Z</time>
      </trkpt>
      <trkpt lat="48.80016" lon="2.24916">
        <ele>162</ele>
        <time>2020-12-05T15:16:33.095Z</time>
      </trkpt>
      <trkpt lat="48.80016" lon="2.24916">
        <ele>163</ele>
        <time>2020-12-05T15:16:34.095Z</time>
      </trkpt>
      <trkpt lat="48.80016" lon="2.24917">
        <ele>163</ele>
        <time>2020-12-05T15:16:35.095Z</time>
      </trkpt>
      <trkpt lat="48.80016" lon="2.24917">
        <ele>164</ele>
        <time>2020-12-05T15:16:36.094Z</time>
      </trkpt>
      <trkpt lat="48.80015" lon="2.24918">
        <ele>164</ele>
        <time>2020-12-05T15:16:37.095Z</time>
      </trkpt>
      <trkpt lat="48.80015" lon="2.24919">
        <ele>164</ele>
        <time>2020-12-05T15:16:38.094Z</time>
      </trkpt>
      <trkpt lat="48.80014" lon="2.2492">
        <ele>165</ele>
        <time>2020-12-05T15:16:39.094Z</time>
      </trkpt>
      <trkpt lat="48.80014" lon="2.2492">
        <ele>165</ele>
        <time>2020-12-05T15:16:40.095Z</time>
      </trkpt>
      <trkpt lat="48.80014" lon="2.24921">
        <ele>164</ele>
        <time>2020-12-05T15:16:41.094Z</time>
      </trkpt>
      <trkpt lat="48.80013" lon="2.24922">
        <ele>164</ele>
        <time>2020-12-05T15:16:42.095Z</time>
      </trkpt>
      <trkpt lat="48.80012" lon="2.24923">
        <ele>164</ele>
        <time>2020-12-05T15:16:43.094Z</time>
      </trkpt>
      <trkpt lat="48.80011" lon="2.24924">
        <ele>163</ele>
        <time>2020-12-05T15:16:44.095Z</time>
      </trkpt>
      <trkpt lat="48.80011" lon="2.24926">
        <ele>163</ele>
        <time>2020-12-05T15:16:45.094Z</time>
      </trkpt>
      <trkpt lat="48.80011" lon="2.24928">
        <ele>162</ele>
        <time>2020-12-05T15:16:46.095Z</time>
      </trkpt>
      <trkpt lat="48.80011" lon="2.24929">
        <ele>162</ele>
        <time>2020-12-05T15:16:47.095Z</time>
      </trkpt>
      <trkpt lat="48.8001" lon="2.24931">
        <ele>161</ele>
        <time>2020-12-05T15:16:48.094Z</time>
      </trkpt>
      <trkpt lat="48.8001" lon="2.24933">
        <ele>161</ele>
        <time>2020-12-05T15:16:49.094Z</time>
      </trkpt>
      <trkpt lat="48.8001" lon="2.24935">
        <ele>161</ele>
        <time>2020-12-05T15:16:50.095Z</time>
      </trkpt>
      <trkpt lat="48.8001" lon="2.24937">
        <ele>160</ele>
        <time>2020-12-05T15:16:51.095Z</time>
      </trkpt>
      <trkpt lat="48.8001" lon="2.2494">
        <ele>160</ele>
        <time>2020-12-05T15:16:52.095Z</time>
      </trkpt>
      <trkpt lat="48.8001" lon="2.24942">
        <ele>160</ele>
        <time>2020-12-05T15:16:53.095Z</time>
      </trkpt>
      <trkpt lat="48.80009" lon="2.24944">
        <ele>160</ele>
        <time>2020-12-05T15:16:54.095Z</time>
      </trkpt>
      <trkpt lat="48.80009" lon="2.24946">
        <ele>160</ele>
        <time>2020-12-05T15:16:55.095Z</time>
      </trkpt>
      <trkpt lat="48.80009" lon="2.24947">
        <ele>160</ele>
        <time>2020-12-05T15:16:56.095Z</time>
      </trkpt>
      <trkpt lat="48.80009" lon="2.24949">
        <ele>160</ele>
        <time>2020-12-05T15:16:57.094Z</time>
      </trkpt>
      <trkpt lat="48.80008" lon="2.24951">
        <ele>160</ele>
        <time>2020-12-05T15:16:58.095Z</time>
      </trkpt>
      <trkpt lat="48.80007" lon="2.24953">
        <ele>161</ele>
        <time>2020-12-05T15:16:59.095Z</time>
      </trkpt>
      <trkpt lat="48.80007" lon="2.24955">
        <ele>161</ele>
        <time>2020-12-05T15:17:00.095Z</time>
      </trkpt>
      <trkpt lat="48.80007" lon="2.24957">
        <ele>161</ele>
        <time>2020-12-05T15:17:01.095Z</time>
      </trkpt>
      <trkpt lat="48.80007" lon="2.24959">
        <ele>161</ele>
        <time>2020-12-05T15:17:02.094Z</time>
      </trkpt>
      <trkpt lat="48.80006" lon="2.24961">
        <ele>162</ele>
        <time>2020-12-05T15:17:03.095Z</time>
      </trkpt>
      <trkpt lat="48.80006" lon="2.24964">
        <ele>162</ele>
        <time>2020-12-05T15:17:04.095Z</time>
      </trkpt>
      <trkpt lat="48.80007" lon="2.24966">
        <ele>162</ele>
        <time>2020-12-05T15:17:05.095Z</time>
      </trkpt>
      <trkpt lat="48.80007" lon="2.24969">
        <ele>163</ele>
        <time>2020-12-05T15:17:06.094Z</time>
      </trkpt>
      <trkpt lat="48.80006" lon="2.24971">
        <ele>163</ele>
        <time>2020-12-05T15:17:07.095Z</time>
      </trkpt>
      <trkpt lat="48.80006" lon="2.24973">
        <ele>163</ele>
        <time>2020-12-05T15:17:08.095Z</time>
      </trkpt>
      <trkpt lat="48.80005" lon="2.24974">
        <ele>163</ele>
        <time>2020-12-05T15:17:09.094Z</time>
      </trkpt>
      <trkpt lat="48.80005" lon="2.24976">
        <ele>163</ele>
        <time>2020-12-05T15:17:10.094Z</time>
      </trkpt>
      <trkpt lat="48.80004" lon="2.24978">
        <ele>163</ele>
        <time>2020-12-05T15:17:11.095Z</time>
      </trkpt>
      <trkpt lat="48.80005" lon="2.24979">
        <ele>163</ele>
        <time>2020-12-05T15:17:12.095Z</time>
      </trkpt>
      <trkpt lat="48.80005" lon="2.24981">
        <ele>164</ele>
        <time>2020-12-05T15:17:13.094Z</time>
      </trkpt>
      <trkpt lat="48.80006" lon="2.24982">
        <ele>164</ele>
        <time>2020-12-05T15:17:14.095Z</time>
      </trkpt>
      <trkpt lat="48.80006" lon="2.24984">
        <ele>164</ele>
        <time>2020-12-05T15:17:15.094Z</time>
      </trkpt>
      <trkpt lat="48.80006" lon="2.24985">
        <ele>164</ele>
        <time>2020-12-05T15:17:16.095Z</time>
      </trkpt>
      <trkpt lat="48.80007" lon="2.24986">
        <ele>164</ele>
        <time>2020-12-05T15:17:17.094Z</time>
      </trkpt>
      <trkpt lat="48.80006" lon="2.24988">
        <ele>163</ele>
        <time>2020-12-05T15:17:18.095Z</time>
      </trkpt>
      <trkpt lat="48.80005" lon="2.24989">
        <ele>163</ele>
        <time>2020-12-05T15:17:19.095Z</time>
      </trkpt>
      <trkpt lat="48.80005" lon="2.2499">
        <ele>163</ele>
        <time>2020-12-05T15:17:20.095Z</time>
      </trkpt>
      <trkpt lat="48.80005" lon="2.24991">
        <ele>164</ele>
        <time>2020-12-05T15:17:21.095Z</time>
      </trkpt>
      <trkpt lat="48.80005" lon="2.24993">
        <ele>164</ele>
        <time>2020-12-05T15:17:22.095Z</time>
      </trkpt>
      <trkpt lat="48.80005" lon="2.24996">
        <ele>164</ele>
        <time>2020-12-05T15:17:23.095Z</time>
      </trkpt>
      <trkpt lat="48.80005" lon="2.24998">
        <ele>164</ele>
        <time>2020-12-05T15:17:24.095Z</time>
      </trkpt>
      <trkpt lat="48.80005" lon="2.24999">
        <ele>165</ele>
        <time>2020-12-05T15:17:25.095Z</time>
      </trkpt>
      <trkpt lat="48.80005" lon="2.25001">
        <ele>165</ele>
        <time>2020-12-05T15:17:26.095Z</time>
      </trkpt>
      <trkpt lat="48.80005" lon="2.25003">
        <ele>166</ele>
        <time>2020-12-05T15:17:27.095Z</time>
      </trkpt>
      <trkpt lat="48.80004" lon="2.25006">
        <ele>166</ele>
        <time>2020-12-05T15:17:28.095Z</time>
      </trkpt>
      <trkpt lat="48.80004" lon="2.25008">
        <ele>167</ele>
        <time>2020-12-05T15:17:29.095Z</time>
      </trkpt>
      <trkpt lat="48.80003" lon="2.2501">
        <ele>167</ele>
        <time>2020-12-05T15:17:30.095Z</time>
      </trkpt>
      <trkpt lat="48.80003" lon="2.25012">
        <ele>168</ele>
        <time>2020-12-05T15:17:31.095Z</time>
      </trkpt>
      <trkpt lat="48.80002" lon="2.25014">
        <ele>168</ele>
        <time>2020-12-05T15:17:32.094Z</time>
      </trkpt>
      <trkpt lat="48.80001" lon="2.25016">
        <ele>168</ele>
        <time>2020-12-05T15:17:33.095Z</time>
      </trkpt>
      <trkpt lat="48.80001" lon="2.25018">
        <ele>168</ele>
        <time>2020-12-05T15:17:34.094Z</time>
      </trkpt>
      <trkpt lat="48.80001" lon="2.2502">
        <ele>168</ele>
        <time>2020-12-05T15:17:35.094Z</time>
      </trkpt>
      <trkpt lat="48.8" lon="2.25022">
        <ele>168</ele>
        <time>2020-12-05T15:17:36.095Z</time>
      </trkpt>
      <trkpt lat="48.79999" lon="2.25023">
        <ele>169</ele>
        <time>2020-12-05T15:17:37.095Z</time>
      </trkpt>
      <trkpt lat="48.79999" lon="2.25024">
        <ele>169</ele>
        <time>2020-12-05T15:17:38.095Z</time>
      </trkpt>
      <trkpt lat="48.79999" lon="2.25025">
        <ele>169</ele>
        <time>2020-12-05T15:17:39.094Z</time>
      </trkpt>
      <trkpt lat="48.79999" lon="2.25027">
        <ele>169</ele>
        <time>2020-12-05T15:17:40.095Z</time>
      </trkpt>
      <trkpt lat="48.8" lon="2.25029">
        <ele>169</ele>
        <time>2020-12-05T15:17:41.095Z</time>
      </trkpt>
      <trkpt lat="48.80001" lon="2.25031">
        <ele>169</ele>
        <time>2020-12-05T15:17:42.094Z</time>
      </trkpt>
      <trkpt lat="48.8" lon="2.25032">
        <ele>169</ele>
        <time>2020-12-05T15:17:43.095Z</time>
      </trkpt>
      <trkpt lat="48.79999" lon="2.25034">
        <ele>169</ele>
        <time>2020-12-05T15:17:44.095Z</time>
      </trkpt>
      <trkpt lat="48.79998" lon="2.25037">
        <ele>170</ele>
        <time>2020-12-05T15:17:45.095Z</time>
      </trkpt>
      <trkpt lat="48.79998" lon="2.25039">
        <ele>170</ele>
        <time>2020-12-05T15:17:46.094Z</time>
      </trkpt>
      <trkpt lat="48.79999" lon="2.25041">
        <ele>170</ele>
        <time>2020-12-05T15:17:47.095Z</time>
      </trkpt>
      <trkpt lat="48.79998" lon="2.25043">
        <ele>170</ele>
        <time>2020-12-05T15:17:48.095Z</time>
      </trkpt>
      <trkpt lat="48.79998" lon="2.25045">
        <ele>170</ele>
        <time>2020-12-05T15:17:49.094Z</time>
      </trkpt>
      <trkpt lat="48.79998" lon="2.25046">
        <ele>170</ele>
        <time>2020-12-05T15:17:50.095Z</time>
      </trkpt>
      <trkpt lat="48.79997" lon="2.25048">
        <ele>170</ele>
        <time>2020-12-05T15:17:51.095Z</time>
      </trkpt>
      <trkpt lat="48.79996" lon="2.25051">
        <ele>169</ele>
        <time>2020-12-05T15:17:52.094Z</time>
      </trkpt>
      <trkpt lat="48.79996" lon="2.25054">
        <ele>169</ele>
        <time>2020-12-05T15:17:53.095Z</time>
      </trkpt>
      <trkpt lat="48.79995" lon="2.25056">
        <ele>169</ele>
        <time>2020-12-05T15:17:54.095Z</time>
      </trkpt>
      <trkpt lat="48.79995" lon="2.25058">
        <ele>169</ele>
        <time>2020-12-05T15:17:55.094Z</time>
      </trkpt>
      <trkpt lat="48.79995" lon="2.2506">
        <ele>170</ele>
        <time>2020-12-05T15:17:56.094Z</time>
      </trkpt>
      <trkpt lat="48.79995" lon="2.25062">
        <ele>170</ele>
        <time>2020-12-05T15:17:57.094Z</time>
      </trkpt>
      <trkpt lat="48.79994" lon="2.25063">
        <ele>170</ele>
        <time>2020-12-05T15:17:58.094Z</time>
      </trkpt>
      <trkpt lat="48.79994" lon="2.25065">
        <ele>171</ele>
        <time>2020-12-05T15:17:59.094Z</time>
      </trkpt>
      <trkpt lat="48.79994" lon="2.25067">
        <ele>171</ele>
        <time>2020-12-05T15:18:00.094Z</time>
      </trkpt>
      <trkpt lat="48.79993" lon="2.2507">
        <ele>171</ele>
        <time>2020-12-05T15:18:01.094Z</time>
      </trkpt>
      <trkpt lat="48.79993" lon="2.25072">
        <ele>172</ele>
        <time>2020-12-05T15:18:02.095Z</time>
      </trkpt>
      <trkpt lat="48.79992" lon="2.25075">
        <ele>172</ele>
        <time>2020-12-05T15:18:03.094Z</time>
      </trkpt>
      <trkpt lat="48.79991" lon="2.25076">
        <ele>172</ele>
        <time>2020-12-05T15:18:04.095Z</time>
      </trkpt>
      <trkpt lat="48.7999" lon="2.25078">
        <ele>172</ele>
        <time>2020-12-05T15:18:05.094Z</time>
      </trkpt>
      <trkpt lat="48.7999" lon="2.2508">
        <ele>172</ele>
        <time>2020-12-05T15:18:06.095Z</time>
      </trkpt>
      <trkpt lat="48.7999" lon="2.25082">
        <ele>172</ele>
        <time>2020-12-05T15:18:07.094Z</time>
      </trkpt>
      <trkpt lat="48.7999" lon="2.25084">
        <ele>172</ele>
        <time>2020-12-05T15:18:08.095Z</time>
      </trkpt>
      <trkpt lat="48.79991" lon="2.25086">
        <ele>173</ele>
        <time>2020-12-05T15:18:09.095Z</time>
      </trkpt>
      <trkpt lat="48.79991" lon="2.25088">
        <ele>173</ele>
        <time>2020-12-05T15:18:10.095Z</time>
      </trkpt>
      <trkpt lat="48.7999" lon="2.2509">
        <ele>173</ele>
        <time>2020-12-05T15:18:11.095Z</time>
      </trkpt>
      <trkpt lat="48.79989" lon="2.25092">
        <ele>173</ele>
        <time>2020-12-05T15:18:12.095Z</time>
      </trkpt>
      <trkpt lat="48.79988" lon="2.25094">
        <ele>173</ele>
        <time>2020-12-05T15:18:13.095Z</time>
      </trkpt>
      <trkpt lat="48.79988" lon="2.25096">
        <ele>173</ele>
        <time>2020-12-05T15:18:14.095Z</time>
      </trkpt>
      <trkpt lat="48.79988" lon="2.25099">
        <ele>174</ele>
        <time>2020-12-05T15:18:15.094Z</time>
      </trkpt>
      <trkpt lat="48.79987" lon="2.25101">
        <ele>174</ele>
        <time>2020-12-05T15:18:16.094Z</time>
      </trkpt>
      <trkpt lat="48.79986" lon="2.25102">
        <ele>174</ele>
        <time>2020-12-05T15:18:17.095Z</time>
      </trkpt>
      <trkpt lat="48.79986" lon="2.25102">
        <ele>174</ele>
        <time>2020-12-05T15:18:18.094Z</time>
      </trkpt>
      <trkpt lat="48.79986" lon="2.25103">
        <ele>174</ele>
        <time>2020-12-05T15:18:19.095Z</time>
      </trkpt>
      <trkpt lat="48.79986" lon="2.25104">
        <ele>174</ele>
        <time>2020-12-05T15:18:20.094Z</time>
      </trkpt>
      <trkpt lat="48.79986" lon="2.25105">
        <ele>174</ele>
        <time>2020-12-05T15:18:21.095Z</time>
      </trkpt>
      <trkpt lat="48.79986" lon="2.25106">
        <ele>174</ele>
        <time>2020-12-05T15:18:22.094Z</time>
      </trkpt>
      <trkpt lat="48.79986" lon="2.25106">
        <ele>174</ele>
        <time>2020-12-05T15:18:23.095Z</time>
      </trkpt>
      <trkpt lat="48.79986" lon="2.25107">
        <ele>174</ele>
        <time>2020-12-05T15:18:24.094Z</time>
      </trkpt>
      <trkpt lat="48.79986" lon="2.25107">
        <ele>174</ele>
        <time>2020-12-05T15:18:25.095Z</time>
      </trkpt>
      <trkpt lat="48.79987" lon="2.25108">
        <ele>174</ele>
        <time>2020-12-05T15:18:26.095Z</time>
      </trkpt>
      <trkpt lat="48.79987" lon="2.25109">
        <ele>174</ele>
        <time>2020-12-05T15:18:27.095Z</time>
      </trkpt>
      <trkpt lat="48.79987" lon="2.25109">
        <ele>174</ele>
        <time>2020-12-05T15:18:28.095Z</time>
      </trkpt>
      <trkpt lat="48.79986" lon="2.25109">
        <ele>174</ele>
        <time>2020-12-05T15:18:29.095Z</time>
      </trkpt>
      <trkpt lat="48.79985" lon="2.25109">
        <ele>174</ele>
        <time>2020-12-05T15:18:30.095Z</time>
      </trkpt>
      <trkpt lat="48.79984" lon="2.2511">
        <ele>174</ele>
        <time>2020-12-05T15:18:31.094Z</time>
      </trkpt>
      <trkpt lat="48.79983" lon="2.25111">
        <ele>174</ele>
        <time>2020-12-05T15:18:32.095Z</time>
      </trkpt>
      <trkpt lat="48.79982" lon="2.25112">
        <ele>173</ele>
        <time>2020-12-05T15:18:33.095Z</time>
      </trkpt>
      <trkpt lat="48.79981" lon="2.25113">
        <ele>173</ele>
        <time>2020-12-05T15:18:34.095Z</time>
      </trkpt>
      <trkpt lat="48.79981" lon="2.25114">
        <ele>173</ele>
        <time>2020-12-05T15:18:35.095Z</time>
      </trkpt>
      <trkpt lat="48.7998" lon="2.25114">
        <ele>173</ele>
        <time>2020-12-05T15:18:36.095Z</time>
      </trkpt>
      <trkpt lat="48.7998" lon="2.25114">
        <ele>173</ele>
        <time>2020-12-05T15:18:37.095Z</time>
      </trkpt>
      <trkpt lat="48.7998" lon="2.25113">
        <ele>173</ele>
        <time>2020-12-05T15:18:38.094Z</time>
      </trkpt>
      <trkpt lat="48.79981" lon="2.25112">
        <ele>173</ele>
        <time>2020-12-05T15:18:39.095Z</time>
      </trkpt>
      <trkpt lat="48.79981" lon="2.25112">
        <ele>173</ele>
        <time>2020-12-05T15:18:40.094Z</time>
      </trkpt>
      <trkpt lat="48.79981" lon="2.25111">
        <ele>173</ele>
        <time>2020-12-05T15:18:41.095Z</time>
      </trkpt>
      <trkpt lat="48.79981" lon="2.2511">
        <ele>173</ele>
        <time>2020-12-05T15:18:42.095Z</time>
      </trkpt>
      <trkpt lat="48.79981" lon="2.2511">
        <ele>173</ele>
        <time>2020-12-05T15:18:43.094Z</time>
      </trkpt>
      <trkpt lat="48.79981" lon="2.25109">
        <ele>173</ele>
        <time>2020-12-05T15:18:44.095Z</time>
      </trkpt>
      <trkpt lat="48.79982" lon="2.25108">
        <ele>173</ele>
        <time>2020-12-05T15:18:45.095Z</time>
      </trkpt>
      <trkpt lat="48.79982" lon="2.25108">
        <ele>173</ele>
        <time>2020-12-05T15:18:46.095Z</time>
      </trkpt>
      <trkpt lat="48.79982" lon="2.25107">
        <ele>173</ele>
        <time>2020-12-05T15:18:47.094Z</time>
      </trkpt>
      <trkpt lat="48.79982" lon="2.25107">
        <ele>173</ele>
        <time>2020-12-05T15:18:48.095Z</time>
      </trkpt>
      <trkpt lat="48.79983" lon="2.25108">
        <ele>173</ele>
        <time>2020-12-05T15:18:49.095Z</time>
      </trkpt>
      <trkpt lat="48.79983" lon="2.25108">
        <ele>173</ele>
        <time>2020-12-05T15:18:50.094Z</time>
      </trkpt>
      <trkpt lat="48.79982" lon="2.25108">
        <ele>173</ele>
        <time>2020-12-05T15:18:51.095Z</time>
      </trkpt>
      <trkpt lat="48.79982" lon="2.25109">
        <ele>173</ele>
        <time>2020-12-05T15:18:52.095Z</time>
      </trkpt>
      <trkpt lat="48.79982" lon="2.25109">
        <ele>173</ele>
        <time>2020-12-05T15:18:53.094Z</time>
      </trkpt>
      <trkpt lat="48.79981" lon="2.25109">
        <ele>173</ele>
        <time>2020-12-05T15:18:54.095Z</time>
      </trkpt>
      <trkpt lat="48.79981" lon="2.2511">
        <ele>173</ele>
        <time>2020-12-05T15:18:55.094Z</time>
      </trkpt>
      <trkpt lat="48.79981" lon="2.2511">
        <ele>173</ele>
        <time>2020-12-05T15:18:56.095Z</time>
      </trkpt>
      <trkpt lat="48.7998" lon="2.2511">
        <ele>174</ele>
        <time>2020-12-05T15:18:57.094Z</time>
      </trkpt>
      <trkpt lat="48.7998" lon="2.25111">
        <ele>174</ele>
        <time>2020-12-05T15:18:58.095Z</time>
      </trkpt>
      <trkpt lat="48.7998" lon="2.25112">
        <ele>174</ele>
        <time>2020-12-05T15:18:59.095Z</time>
      </trkpt>
      <trkpt lat="48.79978" lon="2.25114">
        <ele>174</ele>
        <time>2020-12-05T15:19:00.094Z</time>
      </trkpt>
      <trkpt lat="48.79977" lon="2.25115">
        <ele>174</ele>
        <time>2020-12-05T15:19:01.094Z</time>
      </trkpt>
      <trkpt lat="48.79977" lon="2.25116">
        <ele>174</ele>
        <time>2020-12-05T15:19:02.094Z</time>
      </trkpt>
      <trkpt lat="48.79978" lon="2.25116">
        <ele>174</ele>
        <time>2020-12-05T15:19:03.095Z</time>
      </trkpt>
      <trkpt lat="48.79978" lon="2.25117">
        <ele>174</ele>
        <time>2020-12-05T15:19:04.095Z</time>
      </trkpt>
      <trkpt lat="48.79978" lon="2.25117">
        <ele>174</ele>
        <time>2020-12-05T15:19:05.094Z</time>
      </trkpt>
      <trkpt lat="48.79978" lon="2.25117">
        <ele>174</ele>
        <time>2020-12-05T15:19:06.094Z</time>
      </trkpt>
      <trkpt lat="48.79977" lon="2.25117">
        <ele>174</ele>
        <time>2020-12-05T15:19:07.095Z</time>
      </trkpt>
      <trkpt lat="48.79978" lon="2.25117">
        <ele>174</ele>
        <time>2020-12-05T15:19:08.095Z</time>
      </trkpt>
      <trkpt lat="48.79977" lon="2.25118">
        <ele>174</ele>
        <time>2020-12-05T15:19:09.094Z</time>
      </trkpt>
      <trkpt lat="48.79976" lon="2.25119">
        <ele>174</ele>
        <time>2020-12-05T15:19:10.095Z</time>
      </trkpt>
      <trkpt lat="48.79974" lon="2.2512">
        <ele>174</ele>
        <time>2020-12-05T15:19:11.094Z</time>
      </trkpt>
      <trkpt lat="48.79975" lon="2.25119">
        <ele>174</ele>
        <time>2020-12-05T15:19:12.095Z</time>
      </trkpt>
      <trkpt lat="48.79976" lon="2.25118">
        <ele>174</ele>
        <time>2020-12-05T15:19:13.095Z</time>
      </trkpt>
      <trkpt lat="48.79975" lon="2.25118">
        <ele>174</ele>
        <time>2020-12-05T15:19:14.095Z</time>
      </trkpt>
      <trkpt lat="48.79975" lon="2.25119">
        <ele>174</ele>
        <time>2020-12-05T15:19:15.095Z</time>
      </trkpt>
      <trkpt lat="48.79975" lon="2.25119">
        <ele>174</ele>
        <time>2020-12-05T15:19:16.094Z</time>
      </trkpt>
      <trkpt lat="48.79975" lon="2.25119">
        <ele>174</ele>
        <time>2020-12-05T15:19:17.095Z</time>
      </trkpt>
      <trkpt lat="48.79977" lon="2.25117">
        <ele>173</ele>
        <time>2020-12-05T15:19:18.095Z</time>
      </trkpt>
      <trkpt lat="48.79978" lon="2.25117">
        <ele>173</ele>
        <time>2020-12-05T15:19:19.094Z</time>
      </trkpt>
      <trkpt lat="48.79978" lon="2.25119">
        <ele>173</ele>
        <time>2020-12-05T15:19:20.095Z</time>
      </trkpt>
      <trkpt lat="48.79979" lon="2.25119">
        <ele>173</ele>
        <time>2020-12-05T15:19:21.094Z</time>
      </trkpt>
      <trkpt lat="48.79979" lon="2.25119">
        <ele>172</ele>
        <time>2020-12-05T15:19:22.095Z</time>
      </trkpt>
      <trkpt lat="48.79979" lon="2.2512">
        <ele>172</ele>
        <time>2020-12-05T15:19:23.095Z</time>
      </trkpt>
      <trkpt lat="48.79979" lon="2.2512">
        <ele>172</ele>
        <time>2020-12-05T15:19:24.095Z</time>
      </trkpt>
      <trkpt lat="48.79979" lon="2.2512">
        <ele>172</ele>
        <time>2020-12-05T15:19:25.095Z</time>
      </trkpt>
      <trkpt lat="48.79979" lon="2.25119">
        <ele>171</ele>
        <time>2020-12-05T15:19:26.095Z</time>
      </trkpt>
      <trkpt lat="48.79979" lon="2.25118">
        <ele>171</ele>
        <time>2020-12-05T15:19:27.094Z</time>
      </trkpt>
      <trkpt lat="48.7998" lon="2.25117">
        <ele>171</ele>
        <time>2020-12-05T15:19:28.095Z</time>
      </trkpt>
      <trkpt lat="48.7998" lon="2.25117">
        <ele>171</ele>
        <time>2020-12-05T15:19:29.094Z</time>
      </trkpt>
      <trkpt lat="48.7998" lon="2.25117">
        <ele>171</ele>
        <time>2020-12-05T15:19:30.095Z</time>
      </trkpt>
      <trkpt lat="48.7998" lon="2.25118">
        <ele>171</ele>
        <time>2020-12-05T15:19:31.095Z</time>
      </trkpt>
      <trkpt lat="48.79979" lon="2.25118">
        <ele>171</ele>
        <time>2020-12-05T15:19:32.095Z</time>
      </trkpt>
      <trkpt lat="48.79979" lon="2.25119">
        <ele>171</ele>
        <time>2020-12-05T15:19:33.094Z</time>
      </trkpt>
      <trkpt lat="48.7998" lon="2.2512">
        <ele>171</ele>
        <time>2020-12-05T15:19:34.094Z</time>
      </trkpt>
      <trkpt lat="48.7998" lon="2.2512">
        <ele>170</ele>
        <time>2020-12-05T15:19:35.095Z</time>
      </trkpt>
      <trkpt lat="48.79979" lon="2.25121">
        <ele>170</ele>
        <time>2020-12-05T15:19:36.095Z</time>
      </trkpt>
      <trkpt lat="48.79978" lon="2.25121">
        <ele>170</ele>
        <time>2020-12-05T15:19:37.095Z</time>
      </trkpt>
      <trkpt lat="48.79978" lon="2.25122">
        <ele>170</ele>
        <time>2020-12-05T15:19:38.095Z</time>
      </trkpt>
      <trkpt lat="48.79978" lon="2.25122">
        <ele>170</ele>
        <time>2020-12-05T15:19:39.095Z</time>
      </trkpt>
      <trkpt lat="48.79977" lon="2.25123">
        <ele>170</ele>
        <time>2020-12-05T15:19:40.094Z</time>
      </trkpt>
      <trkpt lat="48.79976" lon="2.25124">
        <ele>170</ele>
        <time>2020-12-05T15:19:41.095Z</time>
      </trkpt>
      <trkpt lat="48.79976" lon="2.25124">
        <ele>169</ele>
        <time>2020-12-05T15:19:42.095Z</time>
      </trkpt>
      <trkpt lat="48.79976" lon="2.25125">
        <ele>169</ele>
        <time>2020-12-05T15:19:43.094Z</time>
      </trkpt>
      <trkpt lat="48.79976" lon="2.25125">
        <ele>169</ele>
        <time>2020-12-05T15:19:44.095Z</time>
      </trkpt>
      <trkpt lat="48.79976" lon="2.25125">
        <ele>169</ele>
        <time>2020-12-05T15:19:45.094Z</time>
      </trkpt>
      <trkpt lat="48.79976" lon="2.25124">
        <ele>169</ele>
        <time>2020-12-05T15:19:46.095Z</time>
      </trkpt>
      <trkpt lat="48.79976" lon="2.25124">
        <ele>169</ele>
        <time>2020-12-05T15:19:47.095Z</time>
      </trkpt>
      <trkpt lat="48.79978" lon="2.25123">
        <ele>169</ele>
        <time>2020-12-05T15:19:48.094Z</time>
      </trkpt>
      <trkpt lat="48.7998" lon="2.25123">
        <ele>169</ele>
        <time>2020-12-05T15:19:49.095Z</time>
      </trkpt>
      <trkpt lat="48.79981" lon="2.25122">
        <ele>169</ele>
        <time>2020-12-05T15:19:50.095Z</time>
      </trkpt>
      <trkpt lat="48.79982" lon="2.25119">
        <ele>169</ele>
        <time>2020-12-05T15:19:51.095Z</time>
      </trkpt>
      <trkpt lat="48.79984" lon="2.25117">
        <ele>169</ele>
        <time>2020-12-05T15:19:52.095Z</time>
      </trkpt>
      <trkpt lat="48.79986" lon="2.25116">
        <ele>169</ele>
        <time>2020-12-05T15:19:53.095Z</time>
      </trkpt>
      <trkpt lat="48.79988" lon="2.25116">
        <ele>169</ele>
        <time>2020-12-05T15:19:54.094Z</time>
      </trkpt>
      <trkpt lat="48.79987" lon="2.25117">
        <ele>169</ele>
        <time>2020-12-05T15:19:55.095Z</time>
      </trkpt>
      <trkpt lat="48.79987" lon="2.25117">
        <ele>169</ele>
        <time>2020-12-05T15:19:56.094Z</time>
      </trkpt>
      <trkpt lat="48.79986" lon="2.25118">
        <ele>169</ele>
        <time>2020-12-05T15:19:57.095Z</time>
      </trkpt>
      <trkpt lat="48.79984" lon="2.2512">
        <ele>168</ele>
        <time>2020-12-05T15:19:58.094Z</time>
      </trkpt>
      <trkpt lat="48.79983" lon="2.25121">
        <ele>168</ele>
        <time>2020-12-05T15:19:59.095Z</time>
      </trkpt>
      <trkpt lat="48.79982" lon="2.25122">
        <ele>167</ele>
        <time>2020-12-05T15:20:00.095Z</time>
      </trkpt>
      <trkpt lat="48.79982" lon="2.25124">
        <ele>167</ele>
        <time>2020-12-05T15:20:01.094Z</time>
      </trkpt>
      <trkpt lat="48.79982" lon="2.25126">
        <ele>166</ele>
        <time>2020-12-05T15:20:02.094Z</time>
      </trkpt>
      <trkpt lat="48.79981" lon="2.25127">
        <ele>165</ele>
        <time>2020-12-05T15:20:03.095Z</time>
      </trkpt>
      <trkpt lat="48.7998" lon="2.25129">
        <ele>165</ele>
        <time>2020-12-05T15:20:04.095Z</time>
      </trkpt>
      <trkpt lat="48.7998" lon="2.25131">
        <ele>164</ele>
        <time>2020-12-05T15:20:05.095Z</time>
      </trkpt>
      <trkpt lat="48.7998" lon="2.25132">
        <ele>163</ele>
        <time>2020-12-05T15:20:06.095Z</time>
      </trkpt>
      <trkpt lat="48.79981" lon="2.25134">
        <ele>163</ele>
        <time>2020-12-05T15:20:07.095Z</time>
      </trkpt>
      <trkpt lat="48.79981" lon="2.25135">
        <ele>162</ele>
        <time>2020-12-05T15:20:08.095Z</time>
      </trkpt>
      <trkpt lat="48.79981" lon="2.25137">
        <ele>162</ele>
        <time>2020-12-05T15:20:09.095Z</time>
      </trkpt>
      <trkpt lat="48.79982" lon="2.2514">
        <ele>161</ele>
        <time>2020-12-05T15:20:10.095Z</time>
      </trkpt>
      <trkpt lat="48.79983" lon="2.25142">
        <ele>161</ele>
        <time>2020-12-05T15:20:11.095Z</time>
      </trkpt>
      <trkpt lat="48.79984" lon="2.25144">
        <ele>160</ele>
        <time>2020-12-05T15:20:12.095Z</time>
      </trkpt>
      <trkpt lat="48.79984" lon="2.25144">
        <ele>160</ele>
        <time>2020-12-05T15:20:13.094Z</time>
      </trkpt>
      <trkpt lat="48.79985" lon="2.25145">
        <ele>160</ele>
        <time>2020-12-05T15:20:14.095Z</time>
      </trkpt>
      <trkpt lat="48.79986" lon="2.25146">
        <ele>160</ele>
        <time>2020-12-05T15:20:15.095Z</time>
      </trkpt>
      <trkpt lat="48.79986" lon="2.25146">
        <ele>160</ele>
        <time>2020-12-05T15:20:16.095Z</time>
      </trkpt>
      <trkpt lat="48.79986" lon="2.25147">
        <ele>160</ele>
        <time>2020-12-05T15:20:17.095Z</time>
      </trkpt>
      <trkpt lat="48.79985" lon="2.25146">
        <ele>160</ele>
        <time>2020-12-05T15:20:18.095Z</time>
      </trkpt>
      <trkpt lat="48.79984" lon="2.25146">
        <ele>160</ele>
        <time>2020-12-05T15:20:19.095Z</time>
      </trkpt>
      <trkpt lat="48.79983" lon="2.25146">
        <ele>160</ele>
        <time>2020-12-05T15:20:20.095Z</time>
      </trkpt>
      <trkpt lat="48.79983" lon="2.25146">
        <ele>160</ele>
        <time>2020-12-05T15:20:21.095Z</time>
      </trkpt>
      <trkpt lat="48.79982" lon="2.25146">
        <ele>160</ele>
        <time>2020-12-05T15:20:22.094Z</time>
      </trkpt>
      <trkpt lat="48.79982" lon="2.25145">
        <ele>161</ele>
        <time>2020-12-05T15:20:23.095Z</time>
      </trkpt>
      <trkpt lat="48.79983" lon="2.25145">
        <ele>161</ele>
        <time>2020-12-05T15:20:24.095Z</time>
      </trkpt>
      <trkpt lat="48.79983" lon="2.25146">
        <ele>161</ele>
        <time>2020-12-05T15:20:25.095Z</time>
      </trkpt>
      <trkpt lat="48.79982" lon="2.25147">
        <ele>162</ele>
        <time>2020-12-05T15:20:26.095Z</time>
      </trkpt>
      <trkpt lat="48.79983" lon="2.25147">
        <ele>162</ele>
        <time>2020-12-05T15:20:27.094Z</time>
      </trkpt>
      <trkpt lat="48.79983" lon="2.25147">
        <ele>162</ele>
        <time>2020-12-05T15:20:28.095Z</time>
      </trkpt>
      <trkpt lat="48.79983" lon="2.25147">
        <ele>162</ele>
        <time>2020-12-05T15:20:29.094Z</time>
      </trkpt>
      <trkpt lat="48.79983" lon="2.25148">
        <ele>162</ele>
        <time>2020-12-05T15:20:30.094Z</time>
      </trkpt>
      <trkpt lat="48.79983" lon="2.25148">
        <ele>162</ele>
        <time>2020-12-05T15:20:31.094Z</time>
      </trkpt>
      <trkpt lat="48.79983" lon="2.25148">
        <ele>162</ele>
        <time>2020-12-05T15:20:32.094Z</time>
      </trkpt>
      <trkpt lat="48.79983" lon="2.25149">
        <ele>162</ele>
        <time>2020-12-05T15:20:33.094Z</time>
      </trkpt>
      <trkpt lat="48.79985" lon="2.25149">
        <ele>162</ele>
        <time>2020-12-05T15:20:34.095Z</time>
      </trkpt>
      <trkpt lat="48.79986" lon="2.2515">
        <ele>162</ele>
        <time>2020-12-05T15:20:35.095Z</time>
      </trkpt>
      <trkpt lat="48.79988" lon="2.25151">
        <ele>162</ele>
        <time>2020-12-05T15:20:36.094Z</time>
      </trkpt>
      <trkpt lat="48.79988" lon="2.25152">
        <ele>161</ele>
        <time>2020-12-05T15:20:37.094Z</time>
      </trkpt>
      <trkpt lat="48.79989" lon="2.25154">
        <ele>161</ele>
        <time>2020-12-05T15:20:38.094Z</time>
      </trkpt>
      <trkpt lat="48.79994" lon="2.25154">
        <ele>161</ele>
        <time>2020-12-05T15:20:39.094Z</time>
      </trkpt>
      <trkpt lat="48.79998" lon="2.25157">
        <ele>161</ele>
        <time>2020-12-05T15:20:40.095Z</time>
      </trkpt>
      <trkpt lat="48.80001" lon="2.2516">
        <ele>161</ele>
        <time>2020-12-05T15:20:41.095Z</time>
      </trkpt>
      <trkpt lat="48.80001" lon="2.25162">
        <ele>161</ele>
        <time>2020-12-05T15:20:42.095Z</time>
      </trkpt>
      <trkpt lat="48.8" lon="2.25163">
        <ele>161</ele>
        <time>2020-12-05T15:20:43.095Z</time>
      </trkpt>
      <trkpt lat="48.79999" lon="2.25164">
        <ele>161</ele>
        <time>2020-12-05T15:20:44.095Z</time>
      </trkpt>
      <trkpt lat="48.79998" lon="2.25164">
        <ele>161</ele>
        <time>2020-12-05T15:20:45.095Z</time>
      </trkpt>
      <trkpt lat="48.79998" lon="2.25164">
        <ele>161</ele>
        <time>2020-12-05T15:20:46.095Z</time>
      </trkpt>
      <trkpt lat="48.79998" lon="2.25163">
        <ele>162</ele>
        <time>2020-12-05T15:20:47.094Z</time>
      </trkpt>
      <trkpt lat="48.79998" lon="2.25163">
        <ele>162</ele>
        <time>2020-12-05T15:20:48.095Z</time>
      </trkpt>
      <trkpt lat="48.79998" lon="2.25162">
        <ele>162</ele>
        <time>2020-12-05T15:20:49.095Z</time>
      </trkpt>
      <trkpt lat="48.79997" lon="2.25162">
        <ele>162</ele>
        <time>2020-12-05T15:20:50.095Z</time>
      </trkpt>
      <trkpt lat="48.79997" lon="2.25161">
        <ele>162</ele>
        <time>2020-12-05T15:20:51.094Z</time>
      </trkpt>
      <trkpt lat="48.79996" lon="2.2516">
        <ele>162</ele>
        <time>2020-12-05T15:20:52.094Z</time>
      </trkpt>
      <trkpt lat="48.79994" lon="2.2516">
        <ele>162</ele>
        <time>2020-12-05T15:20:53.094Z</time>
      </trkpt>
      <trkpt lat="48.79993" lon="2.25159">
        <ele>162</ele>
        <time>2020-12-05T15:20:54.094Z</time>
      </trkpt>
      <trkpt lat="48.79992" lon="2.25159">
        <ele>162</ele>
        <time>2020-12-05T15:20:55.095Z</time>
      </trkpt>
      <trkpt lat="48.79991" lon="2.2516">
        <ele>162</ele>
        <time>2020-12-05T15:20:56.095Z</time>
      </trkpt>
      <trkpt lat="48.79991" lon="2.2516">
        <ele>162</ele>
        <time>2020-12-05T15:20:57.095Z</time>
      </trkpt>
      <trkpt lat="48.7999" lon="2.25161">
        <ele>162</ele>
        <time>2020-12-05T15:20:58.095Z</time>
      </trkpt>
      <trkpt lat="48.79989" lon="2.25161">
        <ele>162</ele>
        <time>2020-12-05T15:20:59.094Z</time>
      </trkpt>
      <trkpt lat="48.79987" lon="2.25162">
        <ele>162</ele>
        <time>2020-12-05T15:21:00.095Z</time>
      </trkpt>
      <trkpt lat="48.79986" lon="2.25163">
        <ele>162</ele>
        <time>2020-12-05T15:21:01.094Z</time>
      </trkpt>
      <trkpt lat="48.79985" lon="2.25163">
        <ele>162</ele>
        <time>2020-12-05T15:21:02.094Z</time>
      </trkpt>
      <trkpt lat="48.79985" lon="2.25163">
        <ele>162</ele>
        <time>2020-12-05T15:21:03.094Z</time>
      </trkpt>
      <trkpt lat="48.79985" lon="2.25164">
        <ele>162</ele>
        <time>2020-12-05T15:21:04.095Z</time>
      </trkpt>
      <trkpt lat="48.79985" lon="2.25166">
        <ele>162</ele>
        <time>2020-12-05T15:21:05.095Z</time>
      </trkpt>
      <trkpt lat="48.79985" lon="2.25168">
        <ele>162</ele>
        <time>2020-12-05T15:21:06.095Z</time>
      </trkpt>
      <trkpt lat="48.79984" lon="2.25169">
        <ele>162</ele>
        <time>2020-12-05T15:21:07.095Z</time>
      </trkpt>
      <trkpt lat="48.79983" lon="2.2517">
        <ele>161</ele>
        <time>2020-12-05T15:21:08.095Z</time>
      </trkpt>
      <trkpt lat="48.79982" lon="2.25171">
        <ele>161</ele>
        <time>2020-12-05T15:21:09.094Z</time>
      </trkpt>
      <trkpt lat="48.79982" lon="2.25172">
        <ele>161</ele>
        <time>2020-12-05T15:21:10.095Z</time>
      </trkpt>
      <trkpt lat="48.79981" lon="2.25173">
        <ele>161</ele>
        <time>2020-12-05T15:21:11.095Z</time>
      </trkpt>
      <trkpt lat="48.79981" lon="2.25175">
        <ele>161</ele>
        <time>2020-12-05T15:21:12.094Z</time>
      </trkpt>
      <trkpt lat="48.79981" lon="2.25177">
        <ele>160</ele>
        <time>2020-12-05T15:21:13.095Z</time>
      </trkpt>
      <trkpt lat="48.79981" lon="2.25178">
        <ele>160</ele>
        <time>2020-12-05T15:21:14.095Z</time>
      </trkpt>
      <trkpt lat="48.7998" lon="2.2518">
        <ele>160</ele>
        <time>2020-12-05T15:21:15.095Z</time>
      </trkpt>
      <trkpt lat="48.7998" lon="2.25182">
        <ele>160</ele>
        <time>2020-12-05T15:21:16.095Z</time>
      </trkpt>
      <trkpt lat="48.7998" lon="2.25184">
        <ele>160</ele>
        <time>2020-12-05T15:21:17.095Z</time>
      </trkpt>
      <trkpt lat="48.79979" lon="2.25185">
        <ele>160</ele>
        <time>2020-12-05T15:21:18.095Z</time>
      </trkpt>
      <trkpt lat="48.79979" lon="2.25187">
        <ele>161</ele>
        <time>2020-12-05T15:21:19.095Z</time>
      </trkpt>
      <trkpt lat="48.79978" lon="2.2519">
        <ele>162</ele>
        <time>2020-12-05T15:21:20.095Z</time>
      </trkpt>
      <trkpt lat="48.79977" lon="2.25193">
        <ele>162</ele>
        <time>2020-12-05T15:21:21.095Z</time>
      </trkpt>
      <trkpt lat="48.79977" lon="2.25195">
        <ele>163</ele>
        <time>2020-12-05T15:21:22.095Z</time>
      </trkpt>
      <trkpt lat="48.79976" lon="2.25198">
        <ele>164</ele>
        <time>2020-12-05T15:21:23.095Z</time>
      </trkpt>
      <trkpt lat="48.79975" lon="2.252">
        <ele>164</ele>
        <time>2020-12-05T15:21:24.095Z</time>
      </trkpt>
      <trkpt lat="48.79974" lon="2.25202">
        <ele>164</ele>
        <time>2020-12-05T15:21:25.095Z</time>
      </trkpt>
      <trkpt lat="48.79974" lon="2.25205">
        <ele>165</ele>
        <time>2020-12-05T15:21:26.095Z</time>
      </trkpt>
      <trkpt lat="48.79973" lon="2.25208">
        <ele>165</ele>
        <time>2020-12-05T15:21:27.095Z</time>
      </trkpt>
      <trkpt lat="48.79973" lon="2.2521">
        <ele>166</ele>
        <time>2020-12-05T15:21:28.095Z</time>
      </trkpt>
      <trkpt lat="48.79972" lon="2.25213">
        <ele>166</ele>
        <time>2020-12-05T15:21:29.095Z</time>
      </trkpt>
      <trkpt lat="48.79972" lon="2.25215">
        <ele>167</ele>
        <time>2020-12-05T15:21:30.095Z</time>
      </trkpt>
      <trkpt lat="48.79971" lon="2.25218">
        <ele>167</ele>
        <time>2020-12-05T15:21:31.095Z</time>
      </trkpt>
      <trkpt lat="48.79971" lon="2.25219">
        <ele>168</ele>
        <time>2020-12-05T15:21:32.095Z</time>
      </trkpt>
      <trkpt lat="48.79971" lon="2.25221">
        <ele>168</ele>
        <time>2020-12-05T15:21:33.095Z</time>
      </trkpt>
      <trkpt lat="48.79971" lon="2.25223">
        <ele>168</ele>
        <time>2020-12-05T15:21:34.095Z</time>
      </trkpt>
      <trkpt lat="48.7997" lon="2.25225">
        <ele>169</ele>
        <time>2020-12-05T15:21:35.095Z</time>
      </trkpt>
      <trkpt lat="48.7997" lon="2.25226">
        <ele>169</ele>
        <time>2020-12-05T15:21:36.095Z</time>
      </trkpt>
      <trkpt lat="48.79969" lon="2.25227">
        <ele>169</ele>
        <time>2020-12-05T15:21:37.095Z</time>
      </trkpt>
      <trkpt lat="48.79968" lon="2.25229">
        <ele>169</ele>
        <time>2020-12-05T15:21:38.094Z</time>
      </trkpt>
      <trkpt lat="48.79967" lon="2.2523">
        <ele>170</ele>
        <time>2020-12-05T15:21:39.095Z</time>
      </trkpt>
      <trkpt lat="48.79966" lon="2.25231">
        <ele>170</ele>
        <time>2020-12-05T15:21:40.095Z</time>
      </trkpt>
      <trkpt lat="48.79966" lon="2.25233">
        <ele>170</ele>
        <time>2020-12-05T15:21:41.095Z</time>
      </trkpt>
      <trkpt lat="48.79966" lon="2.25234">
        <ele>170</ele>
        <time>2020-12-05T15:21:42.095Z</time>
      </trkpt>
      <trkpt lat="48.79965" lon="2.25236">
        <ele>170</ele>
        <time>2020-12-05T15:21:43.095Z</time>
      </trkpt>
      <trkpt lat="48.79965" lon="2.25238">
        <ele>170</ele>
        <time>2020-12-05T15:21:44.095Z</time>
      </trkpt>
      <trkpt lat="48.79965" lon="2.2524">
        <ele>169</ele>
        <time>2020-12-05T15:21:45.095Z</time>
      </trkpt>
      <trkpt lat="48.79965" lon="2.25242">
        <ele>169</ele>
        <time>2020-12-05T15:21:46.095Z</time>
      </trkpt>
      <trkpt lat="48.79964" lon="2.25243">
        <ele>169</ele>
        <time>2020-12-05T15:21:47.095Z</time>
      </trkpt>
      <trkpt lat="48.79961" lon="2.25243">
        <ele>169</ele>
        <time>2020-12-05T15:21:48.095Z</time>
      </trkpt>
      <trkpt lat="48.7996" lon="2.25245">
        <ele>169</ele>
        <time>2020-12-05T15:21:49.094Z</time>
      </trkpt>
      <trkpt lat="48.79958" lon="2.25246">
        <ele>169</ele>
        <time>2020-12-05T15:21:50.094Z</time>
      </trkpt>
      <trkpt lat="48.79958" lon="2.25249">
        <ele>169</ele>
        <time>2020-12-05T15:21:51.094Z</time>
      </trkpt>
      <trkpt lat="48.79958" lon="2.25251">
        <ele>168</ele>
        <time>2020-12-05T15:21:52.095Z</time>
      </trkpt>
      <trkpt lat="48.79958" lon="2.25253">
        <ele>168</ele>
        <time>2020-12-05T15:21:53.095Z</time>
      </trkpt>
      <trkpt lat="48.79957" lon="2.25254">
        <ele>168</ele>
        <time>2020-12-05T15:21:54.094Z</time>
      </trkpt>
      <trkpt lat="48.79957" lon="2.25255">
        <ele>168</ele>
        <time>2020-12-05T15:21:55.094Z</time>
      </trkpt>
      <trkpt lat="48.79957" lon="2.25257">
        <ele>168</ele>
        <time>2020-12-05T15:21:56.094Z</time>
      </trkpt>
      <trkpt lat="48.79956" lon="2.25258">
        <ele>168</ele>
        <time>2020-12-05T15:21:57.095Z</time>
      </trkpt>
      <trkpt lat="48.79956" lon="2.2526">
        <ele>168</ele>
        <time>2020-12-05T15:21:58.095Z</time>
      </trkpt>
      <trkpt lat="48.79956" lon="2.25262">
        <ele>169</ele>
        <time>2020-12-05T15:21:59.095Z</time>
      </trkpt>
      <trkpt lat="48.79956" lon="2.25264">
        <ele>169</ele>
        <time>2020-12-05T15:22:00.095Z</time>
      </trkpt>
      <trkpt lat="48.79956" lon="2.25265">
        <ele>169</ele>
        <time>2020-12-05T15:22:01.095Z</time>
      </trkpt>
      <trkpt lat="48.79955" lon="2.25266">
        <ele>170</ele>
        <time>2020-12-05T15:22:02.095Z</time>
      </trkpt>
      <trkpt lat="48.79955" lon="2.25267">
        <ele>170</ele>
        <time>2020-12-05T15:22:03.095Z</time>
      </trkpt>
      <trkpt lat="48.79955" lon="2.25268">
        <ele>170</ele>
        <time>2020-12-05T15:22:04.095Z</time>
      </trkpt>
      <trkpt lat="48.79955" lon="2.25269">
        <ele>170</ele>
        <time>2020-12-05T15:22:05.094Z</time>
      </trkpt>
      <trkpt lat="48.79955" lon="2.25271">
        <ele>171</ele>
        <time>2020-12-05T15:22:06.094Z</time>
      </trkpt>
      <trkpt lat="48.79954" lon="2.25273">
        <ele>171</ele>
        <time>2020-12-05T15:22:07.095Z</time>
      </trkpt>
      <trkpt lat="48.79954" lon="2.25276">
        <ele>171</ele>
        <time>2020-12-05T15:22:08.095Z</time>
      </trkpt>
      <trkpt lat="48.79954" lon="2.25278">
        <ele>171</ele>
        <time>2020-12-05T15:22:09.095Z</time>
      </trkpt>
      <trkpt lat="48.79954" lon="2.2528">
        <ele>170</ele>
        <time>2020-12-05T15:22:10.095Z</time>
      </trkpt>
      <trkpt lat="48.79953" lon="2.25283">
        <ele>170</ele>
        <time>2020-12-05T15:22:11.095Z</time>
      </trkpt>
      <trkpt lat="48.79953" lon="2.25284">
        <ele>170</ele>
        <time>2020-12-05T15:22:12.095Z</time>
      </trkpt>
      <trkpt lat="48.79953" lon="2.25286">
        <ele>170</ele>
        <time>2020-12-05T15:22:13.095Z</time>
      </trkpt>
      <trkpt lat="48.79952" lon="2.25286">
        <ele>169</ele>
        <time>2020-12-05T15:22:14.095Z</time>
      </trkpt>
      <trkpt lat="48.79951" lon="2.25288">
        <ele>169</ele>
        <time>2020-12-05T15:22:15.095Z</time>
      </trkpt>
      <trkpt lat="48.79951" lon="2.25291">
        <ele>168</ele>
        <time>2020-12-05T15:22:16.095Z</time>
      </trkpt>
      <trkpt lat="48.79951" lon="2.25294">
        <ele>167</ele>
        <time>2020-12-05T15:22:17.095Z</time>
      </trkpt>
      <trkpt lat="48.79951" lon="2.25296">
        <ele>167</ele>
        <time>2020-12-05T15:22:18.094Z</time>
      </trkpt>
      <trkpt lat="48.7995" lon="2.25298">
        <ele>166</ele>
        <time>2020-12-05T15:22:19.095Z</time>
      </trkpt>
      <trkpt lat="48.79949" lon="2.253">
        <ele>166</ele>
        <time>2020-12-05T15:22:20.095Z</time>
      </trkpt>
      <trkpt lat="48.79948" lon="2.25301">
        <ele>165</ele>
        <time>2020-12-05T15:22:21.095Z</time>
      </trkpt>
      <trkpt lat="48.79947" lon="2.25302">
        <ele>165</ele>
        <time>2020-12-05T15:22:22.095Z</time>
      </trkpt>
      <trkpt lat="48.79948" lon="2.25302">
        <ele>165</ele>
        <time>2020-12-05T15:22:23.095Z</time>
      </trkpt>
      <trkpt lat="48.79948" lon="2.25303">
        <ele>164</ele>
        <time>2020-12-05T15:22:24.095Z</time>
      </trkpt>
      <trkpt lat="48.7995" lon="2.25304">
        <ele>164</ele>
        <time>2020-12-05T15:22:25.094Z</time>
      </trkpt>
      <trkpt lat="48.7995" lon="2.25305">
        <ele>164</ele>
        <time>2020-12-05T15:22:26.095Z</time>
      </trkpt>
      <trkpt lat="48.7995" lon="2.25305">
        <ele>164</ele>
        <time>2020-12-05T15:22:27.095Z</time>
      </trkpt>
      <trkpt lat="48.7995" lon="2.25304">
        <ele>164</ele>
        <time>2020-12-05T15:22:28.094Z</time>
      </trkpt>
      <trkpt lat="48.79949" lon="2.25303">
        <ele>164</ele>
        <time>2020-12-05T15:22:29.094Z</time>
      </trkpt>
      <trkpt lat="48.79948" lon="2.25302">
        <ele>164</ele>
        <time>2020-12-05T15:22:30.095Z</time>
      </trkpt>
      <trkpt lat="48.79947" lon="2.25301">
        <ele>164</ele>
        <time>2020-12-05T15:22:31.095Z</time>
      </trkpt>
      <trkpt lat="48.79947" lon="2.25301">
        <ele>165</ele>
        <time>2020-12-05T15:22:32.095Z</time>
      </trkpt>
      <trkpt lat="48.79947" lon="2.253">
        <ele>165</ele>
        <time>2020-12-05T15:22:33.095Z</time>
      </trkpt>
      <trkpt lat="48.79947" lon="2.253">
        <ele>165</ele>
        <time>2020-12-05T15:22:34.095Z</time>
      </trkpt>
      <trkpt lat="48.79948" lon="2.253">
        <ele>165</ele>
        <time>2020-12-05T15:22:35.094Z</time>
      </trkpt>
      <trkpt lat="48.79948" lon="2.253">
        <ele>165</ele>
        <time>2020-12-05T15:22:36.094Z</time>
      </trkpt>
      <trkpt lat="48.79949" lon="2.253">
        <ele>165</ele>
        <time>2020-12-05T15:22:37.094Z</time>
      </trkpt>
      <trkpt lat="48.79949" lon="2.253">
        <ele>165</ele>
        <time>2020-12-05T15:22:38.095Z</time>
      </trkpt>
      <trkpt lat="48.7995" lon="2.25299">
        <ele>166</ele>
        <time>2020-12-05T15:22:39.095Z</time>
      </trkpt>
      <trkpt lat="48.7995" lon="2.25299">
        <ele>166</ele>
        <time>2020-12-05T15:22:40.094Z</time>
      </trkpt>
      <trkpt lat="48.7995" lon="2.25299">
        <ele>166</ele>
        <time>2020-12-05T15:22:41.094Z</time>
      </trkpt>
      <trkpt lat="48.79951" lon="2.25299">
        <ele>166</ele>
        <time>2020-12-05T15:22:42.095Z</time>
      </trkpt>
      <trkpt lat="48.79951" lon="2.253">
        <ele>166</ele>
        <time>2020-12-05T15:22:43.095Z</time>
      </trkpt>
      <trkpt lat="48.79952" lon="2.25301">
        <ele>166</ele>
        <time>2020-12-05T15:22:44.095Z</time>
      </trkpt>
      <trkpt lat="48.79953" lon="2.25301">
        <ele>166</ele>
        <time>2020-12-05T15:22:45.095Z</time>
      </trkpt>
      <trkpt lat="48.79953" lon="2.25302">
        <ele>167</ele>
        <time>2020-12-05T15:22:46.095Z</time>
      </trkpt>
      <trkpt lat="48.79953" lon="2.25304">
        <ele>167</ele>
        <time>2020-12-05T15:22:47.095Z</time>
      </trkpt>
      <trkpt lat="48.79953" lon="2.25304">
        <ele>167</ele>
        <time>2020-12-05T15:22:48.095Z</time>
      </trkpt>
      <trkpt lat="48.79954" lon="2.25304">
        <ele>167</ele>
        <time>2020-12-05T15:22:49.095Z</time>
      </trkpt>
      <trkpt lat="48.79954" lon="2.25304">
        <ele>167</ele>
        <time>2020-12-05T15:22:50.095Z</time>
      </trkpt>
      <trkpt lat="48.79954" lon="2.25305">
        <ele>167</ele>
        <time>2020-12-05T15:22:51.095Z</time>
      </trkpt>
      <trkpt lat="48.79953" lon="2.25306">
        <ele>167</ele>
        <time>2020-12-05T15:22:52.094Z</time>
      </trkpt>
      <trkpt lat="48.79952" lon="2.25307">
        <ele>167</ele>
        <time>2020-12-05T15:22:53.095Z</time>
      </trkpt>
      <trkpt lat="48.79951" lon="2.25307">
        <ele>167</ele>
        <time>2020-12-05T15:22:54.094Z</time>
      </trkpt>
      <trkpt lat="48.79951" lon="2.25308">
        <ele>167</ele>
        <time>2020-12-05T15:22:55.095Z</time>
      </trkpt>
      <trkpt lat="48.7995" lon="2.2531">
        <ele>167</ele>
        <time>2020-12-05T15:22:56.095Z</time>
      </trkpt>
      <trkpt lat="48.79948" lon="2.2531">
        <ele>167</ele>
        <time>2020-12-05T15:22:57.094Z</time>
      </trkpt>
      <trkpt lat="48.79947" lon="2.25312">
        <ele>168</ele>
        <time>2020-12-05T15:22:58.095Z</time>
      </trkpt>
      <trkpt lat="48.79948" lon="2.25313">
        <ele>168</ele>
        <time>2020-12-05T15:22:59.095Z</time>
      </trkpt>
      <trkpt lat="48.79949" lon="2.25314">
        <ele>168</ele>
        <time>2020-12-05T15:23:00.095Z</time>
      </trkpt>
      <trkpt lat="48.79949" lon="2.25315">
        <ele>169</ele>
        <time>2020-12-05T15:23:01.095Z</time>
      </trkpt>
      <trkpt lat="48.79948" lon="2.25316">
        <ele>169</ele>
        <time>2020-12-05T15:23:02.094Z</time>
      </trkpt>
      <trkpt lat="48.79948" lon="2.25317">
        <ele>169</ele>
        <time>2020-12-05T15:23:03.094Z</time>
      </trkpt>
      <trkpt lat="48.79949" lon="2.25317">
        <ele>169</ele>
        <time>2020-12-05T15:23:04.094Z</time>
      </trkpt>
      <trkpt lat="48.79949" lon="2.25318">
        <ele>169</ele>
        <time>2020-12-05T15:23:05.095Z</time>
      </trkpt>
      <trkpt lat="48.79949" lon="2.25319">
        <ele>169</ele>
        <time>2020-12-05T15:23:06.095Z</time>
      </trkpt>
      <trkpt lat="48.7995" lon="2.25319">
        <ele>169</ele>
        <time>2020-12-05T15:23:07.094Z</time>
      </trkpt>
      <trkpt lat="48.7995" lon="2.25318">
        <ele>169</ele>
        <time>2020-12-05T15:23:08.094Z</time>
      </trkpt>
      <trkpt lat="48.7995" lon="2.25318">
        <ele>169</ele>
        <time>2020-12-05T15:23:09.095Z</time>
      </trkpt>
      <trkpt lat="48.79949" lon="2.25318">
        <ele>169</ele>
        <time>2020-12-05T15:23:10.095Z</time>
      </trkpt>
      <trkpt lat="48.79949" lon="2.25318">
        <ele>169</ele>
        <time>2020-12-05T15:23:11.095Z</time>
      </trkpt>
      <trkpt lat="48.79949" lon="2.25319">
        <ele>169</ele>
        <time>2020-12-05T15:23:12.095Z</time>
      </trkpt>
      <trkpt lat="48.79949" lon="2.2532">
        <ele>169</ele>
        <time>2020-12-05T15:23:13.095Z</time>
      </trkpt>
      <trkpt lat="48.79949" lon="2.2532">
        <ele>169</ele>
        <time>2020-12-05T15:23:14.095Z</time>
      </trkpt>
      <trkpt lat="48.79949" lon="2.25319">
        <ele>169</ele>
        <time>2020-12-05T15:23:15.094Z</time>
      </trkpt>
      <trkpt lat="48.7995" lon="2.25318">
        <ele>169</ele>
        <time>2020-12-05T15:23:16.095Z</time>
      </trkpt>
      <trkpt lat="48.7995" lon="2.25319">
        <ele>169</ele>
        <time>2020-12-05T15:23:17.095Z</time>
      </trkpt>
      <trkpt lat="48.7995" lon="2.25319">
        <ele>169</ele>
        <time>2020-12-05T15:23:18.095Z</time>
      </trkpt>
      <trkpt lat="48.7995" lon="2.25318">
        <ele>169</ele>
        <time>2020-12-05T15:23:19.095Z</time>
      </trkpt>
      <trkpt lat="48.79949" lon="2.25317">
        <ele>170</ele>
        <time>2020-12-05T15:23:20.095Z</time>
      </trkpt>
      <trkpt lat="48.79948" lon="2.25315">
        <ele>170</ele>
        <time>2020-12-05T15:23:21.094Z</time>
      </trkpt>
      <trkpt lat="48.79948" lon="2.25315">
        <ele>170</ele>
        <time>2020-12-05T15:23:22.094Z</time>
      </trkpt>
      <trkpt lat="48.79947" lon="2.25316">
        <ele>170</ele>
        <time>2020-12-05T15:23:23.095Z</time>
      </trkpt>
      <trkpt lat="48.79947" lon="2.25317">
        <ele>170</ele>
        <time>2020-12-05T15:23:24.094Z</time>
      </trkpt>
      <trkpt lat="48.79947" lon="2.25319">
        <ele>170</ele>
        <time>2020-12-05T15:23:25.094Z</time>
      </trkpt>
      <trkpt lat="48.79947" lon="2.2532">
        <ele>170</ele>
        <time>2020-12-05T15:23:26.095Z</time>
      </trkpt>
      <trkpt lat="48.79947" lon="2.25321">
        <ele>170</ele>
        <time>2020-12-05T15:23:27.095Z</time>
      </trkpt>
      <trkpt lat="48.79947" lon="2.25321">
        <ele>170</ele>
        <time>2020-12-05T15:23:28.095Z</time>
      </trkpt>
      <trkpt lat="48.79946" lon="2.25321">
        <ele>170</ele>
        <time>2020-12-05T15:23:29.095Z</time>
      </trkpt>
      <trkpt lat="48.79946" lon="2.25322">
        <ele>170</ele>
        <time>2020-12-05T15:23:30.095Z</time>
      </trkpt>
      <trkpt lat="48.79945" lon="2.25322">
        <ele>170</ele>
        <time>2020-12-05T15:23:31.095Z</time>
      </trkpt>
      <trkpt lat="48.79945" lon="2.25321">
        <ele>170</ele>
        <time>2020-12-05T15:23:32.095Z</time>
      </trkpt>
      <trkpt lat="48.79945" lon="2.25321">
        <ele>170</ele>
        <time>2020-12-05T15:23:33.095Z</time>
      </trkpt>
      <trkpt lat="48.79945" lon="2.25321">
        <ele>169</ele>
        <time>2020-12-05T15:23:34.095Z</time>
      </trkpt>
      <trkpt lat="48.79945" lon="2.25321">
        <ele>169</ele>
        <time>2020-12-05T15:23:35.095Z</time>
      </trkpt>
      <trkpt lat="48.79945" lon="2.25321">
        <ele>169</ele>
        <time>2020-12-05T15:23:36.095Z</time>
      </trkpt>
      <trkpt lat="48.79945" lon="2.25321">
        <ele>168</ele>
        <time>2020-12-05T15:23:37.095Z</time>
      </trkpt>
      <trkpt lat="48.79945" lon="2.25321">
        <ele>168</ele>
        <time>2020-12-05T15:23:38.094Z</time>
      </trkpt>
      <trkpt lat="48.79944" lon="2.25321">
        <ele>168</ele>
        <time>2020-12-05T15:23:39.094Z</time>
      </trkpt>
      <trkpt lat="48.79944" lon="2.25321">
        <ele>167</ele>
        <time>2020-12-05T15:23:40.095Z</time>
      </trkpt>
      <trkpt lat="48.79942" lon="2.2532">
        <ele>167</ele>
        <time>2020-12-05T15:23:41.095Z</time>
      </trkpt>
      <trkpt lat="48.79941" lon="2.2532">
        <ele>167</ele>
        <time>2020-12-05T15:23:42.095Z</time>
      </trkpt>
      <trkpt lat="48.79938" lon="2.2532">
        <ele>166</ele>
        <time>2020-12-05T15:23:43.095Z</time>
      </trkpt>
      <trkpt lat="48.79937" lon="2.2532">
        <ele>166</ele>
        <time>2020-12-05T15:23:44.095Z</time>
      </trkpt>
      <trkpt lat="48.79935" lon="2.2532">
        <ele>165</ele>
        <time>2020-12-05T15:23:45.094Z</time>
      </trkpt>
      <trkpt lat="48.79934" lon="2.25321">
        <ele>165</ele>
        <time>2020-12-05T15:23:46.095Z</time>
      </trkpt>
      <trkpt lat="48.79932" lon="2.25321">
        <ele>165</ele>
        <time>2020-12-05T15:23:47.095Z</time>
      </trkpt>
      <trkpt lat="48.7993" lon="2.25321">
        <ele>164</ele>
        <time>2020-12-05T15:23:48.095Z</time>
      </trkpt>
      <trkpt lat="48.79928" lon="2.2532">
        <ele>164</ele>
        <time>2020-12-05T15:23:49.095Z</time>
      </trkpt>
      <trkpt lat="48.79927" lon="2.2532">
        <ele>164</ele>
        <time>2020-12-05T15:23:50.095Z</time>
      </trkpt>
      <trkpt lat="48.79925" lon="2.2532">
        <ele>164</ele>
        <time>2020-12-05T15:23:51.095Z</time>
      </trkpt>
      <trkpt lat="48.79924" lon="2.2532">
        <ele>164</ele>
        <time>2020-12-05T15:23:52.094Z</time>
      </trkpt>
      <trkpt lat="48.79923" lon="2.2532">
        <ele>164</ele>
        <time>2020-12-05T15:23:53.095Z</time>
      </trkpt>
      <trkpt lat="48.79922" lon="2.2532">
        <ele>164</ele>
        <time>2020-12-05T15:23:54.095Z</time>
      </trkpt>
      <trkpt lat="48.79921" lon="2.25319">
        <ele>164</ele>
        <time>2020-12-05T15:23:55.095Z</time>
      </trkpt>
      <trkpt lat="48.7992" lon="2.25319">
        <ele>163</ele>
        <time>2020-12-05T15:23:56.095Z</time>
      </trkpt>
      <trkpt lat="48.7992" lon="2.25317">
        <ele>163</ele>
        <time>2020-12-05T15:23:57.095Z</time>
      </trkpt>
      <trkpt lat="48.79918" lon="2.25315">
        <ele>163</ele>
        <time>2020-12-05T15:23:58.095Z</time>
      </trkpt>
      <trkpt lat="48.79917" lon="2.25314">
        <ele>163</ele>
        <time>2020-12-05T15:23:59.095Z</time>
      </trkpt>
      <trkpt lat="48.79916" lon="2.25314">
        <ele>162</ele>
        <time>2020-12-05T15:24:00.095Z</time>
      </trkpt>
      <trkpt lat="48.79915" lon="2.25314">
        <ele>162</ele>
        <time>2020-12-05T15:24:01.095Z</time>
      </trkpt>
      <trkpt lat="48.79914" lon="2.25314">
        <ele>161</ele>
        <time>2020-12-05T15:24:02.095Z</time>
      </trkpt>
      <trkpt lat="48.79913" lon="2.25313">
        <ele>161</ele>
        <time>2020-12-05T15:24:03.095Z</time>
      </trkpt>
      <trkpt lat="48.79913" lon="2.25313">
        <ele>161</ele>
        <time>2020-12-05T15:24:04.094Z</time>
      </trkpt>
      <trkpt lat="48.79912" lon="2.25314">
        <ele>160</ele>
        <time>2020-12-05T15:24:05.095Z</time>
      </trkpt>
      <trkpt lat="48.79912" lon="2.25315">
        <ele>160</ele>
        <time>2020-12-05T15:24:06.094Z</time>
      </trkpt>
      <trkpt lat="48.79912" lon="2.25315">
        <ele>160</ele>
        <time>2020-12-05T15:24:07.094Z</time>
      </trkpt>
      <trkpt lat="48.79911" lon="2.25315">
        <ele>160</ele>
        <time>2020-12-05T15:24:08.094Z</time>
      </trkpt>
      <trkpt lat="48.79911" lon="2.25316">
        <ele>160</ele>
        <time>2020-12-05T15:24:09.095Z</time>
      </trkpt>
      <trkpt lat="48.7991" lon="2.25316">
        <ele>159</ele>
        <time>2020-12-05T15:24:10.094Z</time>
      </trkpt>
      <trkpt lat="48.79909" lon="2.25316">
        <ele>159</ele>
        <time>2020-12-05T15:24:11.094Z</time>
      </trkpt>
      <trkpt lat="48.79909" lon="2.25315">
        <ele>159</ele>
        <time>2020-12-05T15:24:12.095Z</time>
      </trkpt>
      <trkpt lat="48.79909" lon="2.25315">
        <ele>158</ele>
        <time>2020-12-05T15:24:13.094Z</time>
      </trkpt>
      <trkpt lat="48.7991" lon="2.25315">
        <ele>158</ele>
        <time>2020-12-05T15:24:14.094Z</time>
      </trkpt>
      <trkpt lat="48.79911" lon="2.25315">
        <ele>158</ele>
        <time>2020-12-05T15:24:15.095Z</time>
      </trkpt>
      <trkpt lat="48.7991" lon="2.25314">
        <ele>158</ele>
        <time>2020-12-05T15:24:16.095Z</time>
      </trkpt>
      <trkpt lat="48.7991" lon="2.25314">
        <ele>158</ele>
        <time>2020-12-05T15:24:17.094Z</time>
      </trkpt>
      <trkpt lat="48.7991" lon="2.25314">
        <ele>158</ele>
        <time>2020-12-05T15:24:18.095Z</time>
      </trkpt>
      <trkpt lat="48.79911" lon="2.25313">
        <ele>158</ele>
        <time>2020-12-05T15:24:19.095Z</time>
      </trkpt>
      <trkpt lat="48.79912" lon="2.25313">
        <ele>158</ele>
        <time>2020-12-05T15:24:20.095Z</time>
      </trkpt>
      <trkpt lat="48.79912" lon="2.25315">
        <ele>158</ele>
        <time>2020-12-05T15:24:21.094Z</time>
      </trkpt>
      <trkpt lat="48.79912" lon="2.25316">
        <ele>158</ele>
        <time>2020-12-05T15:24:22.095Z</time>
      </trkpt>
      <trkpt lat="48.79912" lon="2.25317">
        <ele>159</ele>
        <time>2020-12-05T15:24:23.095Z</time>
      </trkpt>
      <trkpt lat="48.79912" lon="2.25317">
        <ele>160</ele>
        <time>2020-12-05T15:24:24.095Z</time>
      </trkpt>
      <trkpt lat="48.79912" lon="2.25317">
        <ele>161</ele>
        <time>2020-12-05T15:24:25.095Z</time>
      </trkpt>
      <trkpt lat="48.79912" lon="2.25317">
        <ele>162</ele>
        <time>2020-12-05T15:24:26.095Z</time>
      </trkpt>
      <trkpt lat="48.79912" lon="2.25318">
        <ele>163</ele>
        <time>2020-12-05T15:24:27.095Z</time>
      </trkpt>
      <trkpt lat="48.79913" lon="2.25318">
        <ele>164</ele>
        <time>2020-12-05T15:24:28.094Z</time>
      </trkpt>
      <trkpt lat="48.79913" lon="2.25318">
        <ele>164</ele>
        <time>2020-12-05T15:24:29.095Z</time>
      </trkpt>
      <trkpt lat="48.79912" lon="2.25318">
        <ele>165</ele>
        <time>2020-12-05T15:24:30.095Z</time>
      </trkpt>
      <trkpt lat="48.79912" lon="2.25319">
        <ele>165</ele>
        <time>2020-12-05T15:24:31.095Z</time>
      </trkpt>
      <trkpt lat="48.79912" lon="2.25319">
        <ele>166</ele>
        <time>2020-12-05T15:24:32.095Z</time>
      </trkpt>
      <trkpt lat="48.79912" lon="2.25318">
        <ele>166</ele>
        <time>2020-12-05T15:24:33.095Z</time>
      </trkpt>
      <trkpt lat="48.79912" lon="2.25318">
        <ele>167</ele>
        <time>2020-12-05T15:24:34.095Z</time>
      </trkpt>
      <trkpt lat="48.79911" lon="2.25317">
        <ele>167</ele>
        <time>2020-12-05T15:24:35.095Z</time>
      </trkpt>
      <trkpt lat="48.79911" lon="2.25317">
        <ele>167</ele>
        <time>2020-12-05T15:24:36.095Z</time>
      </trkpt>
      <trkpt lat="48.7991" lon="2.25317">
        <ele>166</ele>
        <time>2020-12-05T15:24:37.095Z</time>
      </trkpt>
      <trkpt lat="48.79909" lon="2.25316">
        <ele>166</ele>
        <time>2020-12-05T15:24:38.095Z</time>
      </trkpt>
      <trkpt lat="48.79908" lon="2.25316">
        <ele>166</ele>
        <time>2020-12-05T15:24:39.095Z</time>
      </trkpt>
      <trkpt lat="48.79907" lon="2.25315">
        <ele>167</ele>
        <time>2020-12-05T15:24:40.094Z</time>
      </trkpt>
      <trkpt lat="48.79906" lon="2.25314">
        <ele>167</ele>
        <time>2020-12-05T15:24:41.095Z</time>
      </trkpt>
      <trkpt lat="48.79904" lon="2.25314">
        <ele>167</ele>
        <time>2020-12-05T15:24:42.095Z</time>
      </trkpt>
      <trkpt lat="48.79903" lon="2.25314">
        <ele>166</ele>
        <time>2020-12-05T15:24:43.095Z</time>
      </trkpt>
      <trkpt lat="48.79902" lon="2.25313">
        <ele>166</ele>
        <time>2020-12-05T15:24:44.095Z</time>
      </trkpt>
      <trkpt lat="48.79901" lon="2.25312">
        <ele>166</ele>
        <time>2020-12-05T15:24:45.095Z</time>
      </trkpt>
      <trkpt lat="48.799" lon="2.25313">
        <ele>166</ele>
        <time>2020-12-05T15:24:46.094Z</time>
      </trkpt>
      <trkpt lat="48.79898" lon="2.25313">
        <ele>166</ele>
        <time>2020-12-05T15:24:47.094Z</time>
      </trkpt>
      <trkpt lat="48.79896" lon="2.25314">
        <ele>165</ele>
        <time>2020-12-05T15:24:48.095Z</time>
      </trkpt>
      <trkpt lat="48.79895" lon="2.25314">
        <ele>165</ele>
        <time>2020-12-05T15:24:49.095Z</time>
      </trkpt>
      <trkpt lat="48.79894" lon="2.25315">
        <ele>166</ele>
        <time>2020-12-05T15:24:50.095Z</time>
      </trkpt>
      <trkpt lat="48.79892" lon="2.25317">
        <ele>166</ele>
        <time>2020-12-05T15:24:51.095Z</time>
      </trkpt>
      <trkpt lat="48.79891" lon="2.25317">
        <ele>166</ele>
        <time>2020-12-05T15:24:52.095Z</time>
      </trkpt>
      <trkpt lat="48.79889" lon="2.25317">
        <ele>166</ele>
        <time>2020-12-05T15:24:53.094Z</time>
      </trkpt>
      <trkpt lat="48.79887" lon="2.25317">
        <ele>166</ele>
        <time>2020-12-05T15:24:54.095Z</time>
      </trkpt>
      <trkpt lat="48.79885" lon="2.25318">
        <ele>167</ele>
        <time>2020-12-05T15:24:55.095Z</time>
      </trkpt>
      <trkpt lat="48.79884" lon="2.25318">
        <ele>167</ele>
        <time>2020-12-05T15:24:56.095Z</time>
      </trkpt>
      <trkpt lat="48.79882" lon="2.25317">
        <ele>167</ele>
        <time>2020-12-05T15:24:57.095Z</time>
      </trkpt>
      <trkpt lat="48.79881" lon="2.25316">
        <ele>167</ele>
        <time>2020-12-05T15:24:58.095Z</time>
      </trkpt>
      <trkpt lat="48.7988" lon="2.25314">
        <ele>167</ele>
        <time>2020-12-05T15:24:59.094Z</time>
      </trkpt>
      <trkpt lat="48.79879" lon="2.25313">
        <ele>166</ele>
        <time>2020-12-05T15:25:00.095Z</time>
      </trkpt>
      <trkpt lat="48.79878" lon="2.25311">
        <ele>166</ele>
        <time>2020-12-05T15:25:01.095Z</time>
      </trkpt>
      <trkpt lat="48.79877" lon="2.2531">
        <ele>166</ele>
        <time>2020-12-05T15:25:02.095Z</time>
      </trkpt>
      <trkpt lat="48.79875" lon="2.25309">
        <ele>165</ele>
        <time>2020-12-05T15:25:03.095Z</time>
      </trkpt>
      <trkpt lat="48.79875" lon="2.25309">
        <ele>165</ele>
        <time>2020-12-05T15:25:04.094Z</time>
      </trkpt>
      <trkpt lat="48.79873" lon="2.25308">
        <ele>164</ele>
        <time>2020-12-05T15:25:05.094Z</time>
      </trkpt>
      <trkpt lat="48.79872" lon="2.25308">
        <ele>163</ele>
        <time>2020-12-05T15:25:06.095Z</time>
      </trkpt>
      <trkpt lat="48.79871" lon="2.25308">
        <ele>163</ele>
        <time>2020-12-05T15:25:07.094Z</time>
      </trkpt>
      <trkpt lat="48.7987" lon="2.25307">
        <ele>162</ele>
        <time>2020-12-05T15:25:08.094Z</time>
      </trkpt>
      <trkpt lat="48.79868" lon="2.25306">
        <ele>162</ele>
        <time>2020-12-05T15:25:09.095Z</time>
      </trkpt>
      <trkpt lat="48.79867" lon="2.25306">
        <ele>161</ele>
        <time>2020-12-05T15:25:10.095Z</time>
      </trkpt>
      <trkpt lat="48.79866" lon="2.25306">
        <ele>160</ele>
        <time>2020-12-05T15:25:11.094Z</time>
      </trkpt>
      <trkpt lat="48.79865" lon="2.25305">
        <ele>160</ele>
        <time>2020-12-05T15:25:12.094Z</time>
      </trkpt>
      <trkpt lat="48.79864" lon="2.25306">
        <ele>159</ele>
        <time>2020-12-05T15:25:13.095Z</time>
      </trkpt>
      <trkpt lat="48.79862" lon="2.25306">
        <ele>159</ele>
        <time>2020-12-05T15:25:14.095Z</time>
      </trkpt>
      <trkpt lat="48.79861" lon="2.25305">
        <ele>158</ele>
        <time>2020-12-05T15:25:15.095Z</time>
      </trkpt>
      <trkpt lat="48.79861" lon="2.25304">
        <ele>158</ele>
        <time>2020-12-05T15:25:16.095Z</time>
      </trkpt>
      <trkpt lat="48.7986" lon="2.25304">
        <ele>157</ele>
        <time>2020-12-05T15:25:17.095Z</time>
      </trkpt>
      <trkpt lat="48.7986" lon="2.25304">
        <ele>157</ele>
        <time>2020-12-05T15:25:18.095Z</time>
      </trkpt>
      <trkpt lat="48.79859" lon="2.25303">
        <ele>157</ele>
        <time>2020-12-05T15:25:19.095Z</time>
      </trkpt>
      <trkpt lat="48.79859" lon="2.25303">
        <ele>157</ele>
        <time>2020-12-05T15:25:20.095Z</time>
      </trkpt>
      <trkpt lat="48.79858" lon="2.25302">
        <ele>157</ele>
        <time>2020-12-05T15:25:21.095Z</time>
      </trkpt>
      <trkpt lat="48.79856" lon="2.25301">
        <ele>157</ele>
        <time>2020-12-05T15:25:22.095Z</time>
      </trkpt>
      <trkpt lat="48.79855" lon="2.25299">
        <ele>157</ele>
        <time>2020-12-05T15:25:23.095Z</time>
      </trkpt>
      <trkpt lat="48.79854" lon="2.25298">
        <ele>157</ele>
        <time>2020-12-05T15:25:24.094Z</time>
      </trkpt>
      <trkpt lat="48.79853" lon="2.25297">
        <ele>157</ele>
        <time>2020-12-05T15:25:25.095Z</time>
      </trkpt>
      <trkpt lat="48.79851" lon="2.25296">
        <ele>157</ele>
        <time>2020-12-05T15:25:26.094Z</time>
      </trkpt>
      <trkpt lat="48.7985" lon="2.25295">
        <ele>157</ele>
        <time>2020-12-05T15:25:27.095Z</time>
      </trkpt>
      <trkpt lat="48.79848" lon="2.25294">
        <ele>157</ele>
        <time>2020-12-05T15:25:28.094Z</time>
      </trkpt>
      <trkpt lat="48.79847" lon="2.25293">
        <ele>158</ele>
        <time>2020-12-05T15:25:29.094Z</time>
      </trkpt>
      <trkpt lat="48.79845" lon="2.25292">
        <ele>158</ele>
        <time>2020-12-05T15:25:30.094Z</time>
      </trkpt>
      <trkpt lat="48.79844" lon="2.25291">
        <ele>158</ele>
        <time>2020-12-05T15:25:31.095Z</time>
      </trkpt>
      <trkpt lat="48.79843" lon="2.25289">
        <ele>158</ele>
        <time>2020-12-05T15:25:32.095Z</time>
      </trkpt>
      <trkpt lat="48.79843" lon="2.25289">
        <ele>158</ele>
        <time>2020-12-05T15:25:33.095Z</time>
      </trkpt>
      <trkpt lat="48.79842" lon="2.25288">
        <ele>158</ele>
        <time>2020-12-05T15:25:34.094Z</time>
      </trkpt>
      <trkpt lat="48.79841" lon="2.25288">
        <ele>158</ele>
        <time>2020-12-05T15:25:35.094Z</time>
      </trkpt>
      <trkpt lat="48.7984" lon="2.25287">
        <ele>159</ele>
        <time>2020-12-05T15:25:36.095Z</time>
      </trkpt>
      <trkpt lat="48.79838" lon="2.25286">
        <ele>159</ele>
        <time>2020-12-05T15:25:37.095Z</time>
      </trkpt>
      <trkpt lat="48.79837" lon="2.25285">
        <ele>159</ele>
        <time>2020-12-05T15:25:38.094Z</time>
      </trkpt>
      <trkpt lat="48.79836" lon="2.25283">
        <ele>160</ele>
        <time>2020-12-05T15:25:39.095Z</time>
      </trkpt>
      <trkpt lat="48.79835" lon="2.25281">
        <ele>161</ele>
        <time>2020-12-05T15:25:40.095Z</time>
      </trkpt>
      <trkpt lat="48.79834" lon="2.25279">
        <ele>162</ele>
        <time>2020-12-05T15:25:41.095Z</time>
      </trkpt>
      <trkpt lat="48.79834" lon="2.25277">
        <ele>163</ele>
        <time>2020-12-05T15:25:42.094Z</time>
      </trkpt>
      <trkpt lat="48.79833" lon="2.25275">
        <ele>164</ele>
        <time>2020-12-05T15:25:43.095Z</time>
      </trkpt>
      <trkpt lat="48.79832" lon="2.25272">
        <ele>165</ele>
        <time>2020-12-05T15:25:44.095Z</time>
      </trkpt>
      <trkpt lat="48.79831" lon="2.2527">
        <ele>166</ele>
        <time>2020-12-05T15:25:45.095Z</time>
      </trkpt>
      <trkpt lat="48.79829" lon="2.25268">
        <ele>166</ele>
        <time>2020-12-05T15:25:46.095Z</time>
      </trkpt>
      <trkpt lat="48.79827" lon="2.25266">
        <ele>167</ele>
        <time>2020-12-05T15:25:47.095Z</time>
      </trkpt>
      <trkpt lat="48.79826" lon="2.25265">
        <ele>168</ele>
        <time>2020-12-05T15:25:48.094Z</time>
      </trkpt>
      <trkpt lat="48.79826" lon="2.25264">
        <ele>168</ele>
        <time>2020-12-05T15:25:49.095Z</time>
      </trkpt>
      <trkpt lat="48.79825" lon="2.25263">
        <ele>169</ele>
        <time>2020-12-05T15:25:50.095Z</time>
      </trkpt>
      <trkpt lat="48.79825" lon="2.25262">
        <ele>170</ele>
        <time>2020-12-05T15:25:51.095Z</time>
      </trkpt>
      <trkpt lat="48.79824" lon="2.25262">
        <ele>171</ele>
        <time>2020-12-05T15:25:52.095Z</time>
      </trkpt>
      <trkpt lat="48.79822" lon="2.25261">
        <ele>171</ele>
        <time>2020-12-05T15:25:53.094Z</time>
      </trkpt>
      <trkpt lat="48.79819" lon="2.2526">
        <ele>172</ele>
        <time>2020-12-05T15:25:54.094Z</time>
      </trkpt>
      <trkpt lat="48.79818" lon="2.25259">
        <ele>172</ele>
        <time>2020-12-05T15:25:55.095Z</time>
      </trkpt>
      <trkpt lat="48.79816" lon="2.25259">
        <ele>172</ele>
        <time>2020-12-05T15:25:56.095Z</time>
      </trkpt>
      <trkpt lat="48.79815" lon="2.25258">
        <ele>171</ele>
        <time>2020-12-05T15:25:57.095Z</time>
      </trkpt>
      <trkpt lat="48.79814" lon="2.25257">
        <ele>171</ele>
        <time>2020-12-05T15:25:58.095Z</time>
      </trkpt>
      <trkpt lat="48.79813" lon="2.25256">
        <ele>171</ele>
        <time>2020-12-05T15:25:59.095Z</time>
      </trkpt>
      <trkpt lat="48.79812" lon="2.25254">
        <ele>171</ele>
        <time>2020-12-05T15:26:00.095Z</time>
      </trkpt>
      <trkpt lat="48.7981" lon="2.25253">
        <ele>171</ele>
        <time>2020-12-05T15:26:01.095Z</time>
      </trkpt>
      <trkpt lat="48.79809" lon="2.25252">
        <ele>170</ele>
        <time>2020-12-05T15:26:02.095Z</time>
      </trkpt>
      <trkpt lat="48.79808" lon="2.2525">
        <ele>170</ele>
        <time>2020-12-05T15:26:03.095Z</time>
      </trkpt>
      <trkpt lat="48.79806" lon="2.2525">
        <ele>170</ele>
        <time>2020-12-05T15:26:04.095Z</time>
      </trkpt>
      <trkpt lat="48.79806" lon="2.25248">
        <ele>170</ele>
        <time>2020-12-05T15:26:05.094Z</time>
      </trkpt>
      <trkpt lat="48.79806" lon="2.25247">
        <ele>170</ele>
        <time>2020-12-05T15:26:06.095Z</time>
      </trkpt>
      <trkpt lat="48.79805" lon="2.25245">
        <ele>170</ele>
        <time>2020-12-05T15:26:07.095Z</time>
      </trkpt>
      <trkpt lat="48.79804" lon="2.25243">
        <ele>170</ele>
        <time>2020-12-05T15:26:08.095Z</time>
      </trkpt>
      <trkpt lat="48.79804" lon="2.25242">
        <ele>170</ele>
        <time>2020-12-05T15:26:09.095Z</time>
      </trkpt>
      <trkpt lat="48.79803" lon="2.25241">
        <ele>170</ele>
        <time>2020-12-05T15:26:10.095Z</time>
      </trkpt>
      <trkpt lat="48.79803" lon="2.25239">
        <ele>170</ele>
        <time>2020-12-05T15:26:11.095Z</time>
      </trkpt>
      <trkpt lat="48.79802" lon="2.25238">
        <ele>170</ele>
        <time>2020-12-05T15:26:12.094Z</time>
      </trkpt>
      <trkpt lat="48.79802" lon="2.25238">
        <ele>170</ele>
        <time>2020-12-05T15:26:13.095Z</time>
      </trkpt>
      <trkpt lat="48.79802" lon="2.25239">
        <ele>170</ele>
        <time>2020-12-05T15:26:14.095Z</time>
      </trkpt>
      <trkpt lat="48.79802" lon="2.25239">
        <ele>170</ele>
        <time>2020-12-05T15:26:15.095Z</time>
      </trkpt>
      <trkpt lat="48.79802" lon="2.25239">
        <ele>170</ele>
        <time>2020-12-05T15:26:16.095Z</time>
      </trkpt>
      <trkpt lat="48.79802" lon="2.25239">
        <ele>170</ele>
        <time>2020-12-05T15:26:17.095Z</time>
      </trkpt>
      <trkpt lat="48.79802" lon="2.25239">
        <ele>170</ele>
        <time>2020-12-05T15:26:18.094Z</time>
      </trkpt>
      <trkpt lat="48.798" lon="2.25239">
        <ele>170</ele>
        <time>2020-12-05T15:26:19.095Z</time>
      </trkpt>
      <trkpt lat="48.79799" lon="2.25239">
        <ele>170</ele>
        <time>2020-12-05T15:26:20.095Z</time>
      </trkpt>
      <trkpt lat="48.79798" lon="2.25238">
        <ele>170</ele>
        <time>2020-12-05T15:26:21.095Z</time>
      </trkpt>
      <trkpt lat="48.79798" lon="2.25237">
        <ele>170</ele>
        <time>2020-12-05T15:26:22.095Z</time>
      </trkpt>
      <trkpt lat="48.79797" lon="2.25235">
        <ele>170</ele>
        <time>2020-12-05T15:26:23.095Z</time>
      </trkpt>
      <trkpt lat="48.79797" lon="2.25234">
        <ele>170</ele>
        <time>2020-12-05T15:26:24.095Z</time>
      </trkpt>
      <trkpt lat="48.79796" lon="2.25234">
        <ele>170</ele>
        <time>2020-12-05T15:26:25.095Z</time>
      </trkpt>
      <trkpt lat="48.79796" lon="2.25233">
        <ele>170</ele>
        <time>2020-12-05T15:26:26.094Z</time>
      </trkpt>
      <trkpt lat="48.79797" lon="2.25233">
        <ele>170</ele>
        <time>2020-12-05T15:26:27.094Z</time>
      </trkpt>
      <trkpt lat="48.79797" lon="2.25233">
        <ele>171</ele>
        <time>2020-12-05T15:26:28.095Z</time>
      </trkpt>
      <trkpt lat="48.79797" lon="2.25232">
        <ele>171</ele>
        <time>2020-12-05T15:26:29.095Z</time>
      </trkpt>
      <trkpt lat="48.79797" lon="2.25232">
        <ele>171</ele>
        <time>2020-12-05T15:26:30.095Z</time>
      </trkpt>
      <trkpt lat="48.79798" lon="2.25232">
        <ele>172</ele>
        <time>2020-12-05T15:26:31.094Z</time>
      </trkpt>
      <trkpt lat="48.79799" lon="2.25231">
        <ele>172</ele>
        <time>2020-12-05T15:26:32.095Z</time>
      </trkpt>
      <trkpt lat="48.798" lon="2.25231">
        <ele>173</ele>
        <time>2020-12-05T15:26:33.095Z</time>
      </trkpt>
      <trkpt lat="48.798" lon="2.2523">
        <ele>174</ele>
        <time>2020-12-05T15:26:34.095Z</time>
      </trkpt>
      <trkpt lat="48.798" lon="2.25229">
        <ele>174</ele>
        <time>2020-12-05T15:26:35.095Z</time>
      </trkpt>
      <trkpt lat="48.79801" lon="2.25229">
        <ele>175</ele>
        <time>2020-12-05T15:26:36.094Z</time>
      </trkpt>
      <trkpt lat="48.79802" lon="2.25229">
        <ele>176</ele>
        <time>2020-12-05T15:26:37.094Z</time>
      </trkpt>
      <trkpt lat="48.79803" lon="2.25229">
        <ele>176</ele>
        <time>2020-12-05T15:26:38.095Z</time>
      </trkpt>
      <trkpt lat="48.79804" lon="2.25229">
        <ele>177</ele>
        <time>2020-12-05T15:26:39.094Z</time>
      </trkpt>
      <trkpt lat="48.79803" lon="2.25228">
        <ele>177</ele>
        <time>2020-12-05T15:26:40.095Z</time>
      </trkpt>
      <trkpt lat="48.79803" lon="2.25228">
        <ele>178</ele>
        <time>2020-12-05T15:26:41.095Z</time>
      </trkpt>
      <trkpt lat="48.79803" lon="2.25227">
        <ele>179</ele>
        <time>2020-12-05T15:26:42.094Z</time>
      </trkpt>
      <trkpt lat="48.79802" lon="2.25228">
        <ele>179</ele>
        <time>2020-12-05T15:26:43.095Z</time>
      </trkpt>
      <trkpt lat="48.79802" lon="2.25229">
        <ele>180</ele>
        <time>2020-12-05T15:26:44.094Z</time>
      </trkpt>
      <trkpt lat="48.798" lon="2.2523">
        <ele>180</ele>
        <time>2020-12-05T15:26:45.095Z</time>
      </trkpt>
      <trkpt lat="48.798" lon="2.2523">
        <ele>180</ele>
        <time>2020-12-05T15:26:46.095Z</time>
      </trkpt>
      <trkpt lat="48.798" lon="2.2523">
        <ele>180</ele>
        <time>2020-12-05T15:26:47.095Z</time>
      </trkpt>
      <trkpt lat="48.79799" lon="2.25231">
        <ele>180</ele>
        <time>2020-12-05T15:26:48.095Z</time>
      </trkpt>
      <trkpt lat="48.79798" lon="2.25231">
        <ele>180</ele>
        <time>2020-12-05T15:26:49.095Z</time>
      </trkpt>
      <trkpt lat="48.79797" lon="2.25232">
        <ele>179</ele>
        <time>2020-12-05T15:26:50.095Z</time>
      </trkpt>
      <trkpt lat="48.79796" lon="2.25232">
        <ele>179</ele>
        <time>2020-12-05T15:26:51.095Z</time>
      </trkpt>
      <trkpt lat="48.79796" lon="2.25232">
        <ele>178</ele>
        <time>2020-12-05T15:26:52.095Z</time>
      </trkpt>
      <trkpt lat="48.79795" lon="2.25232">
        <ele>178</ele>
        <time>2020-12-05T15:26:53.095Z</time>
      </trkpt>
      <trkpt lat="48.79796" lon="2.25232">
        <ele>178</ele>
        <time>2020-12-05T15:26:54.095Z</time>
      </trkpt>
      <trkpt lat="48.79797" lon="2.25232">
        <ele>178</ele>
        <time>2020-12-05T15:26:55.095Z</time>
      </trkpt>
      <trkpt lat="48.79797" lon="2.25233">
        <ele>178</ele>
        <time>2020-12-05T15:26:56.094Z</time>
      </trkpt>
      <trkpt lat="48.79797" lon="2.25233">
        <ele>178</ele>
        <time>2020-12-05T15:26:57.094Z</time>
      </trkpt>
      <trkpt lat="48.79797" lon="2.25233">
        <ele>179</ele>
        <time>2020-12-05T15:26:58.094Z</time>
      </trkpt>
      <trkpt lat="48.79796" lon="2.25233">
        <ele>179</ele>
        <time>2020-12-05T15:26:59.095Z</time>
      </trkpt>
      <trkpt lat="48.79796" lon="2.25232">
        <ele>180</ele>
        <time>2020-12-05T15:27:00.095Z</time>
      </trkpt>
      <trkpt lat="48.79796" lon="2.25232">
        <ele>180</ele>
        <time>2020-12-05T15:27:01.095Z</time>
      </trkpt>
      <trkpt lat="48.79796" lon="2.25232">
        <ele>180</ele>
        <time>2020-12-05T15:27:02.095Z</time>
      </trkpt>
      <trkpt lat="48.79796" lon="2.25231">
        <ele>180</ele>
        <time>2020-12-05T15:27:03.094Z</time>
      </trkpt>
      <trkpt lat="48.79796" lon="2.2523">
        <ele>179</ele>
        <time>2020-12-05T15:27:04.095Z</time>
      </trkpt>
      <trkpt lat="48.79797" lon="2.2523">
        <ele>179</ele>
        <time>2020-12-05T15:27:05.095Z</time>
      </trkpt>
      <trkpt lat="48.79797" lon="2.2523">
        <ele>178</ele>
        <time>2020-12-05T15:27:06.095Z</time>
      </trkpt>
      <trkpt lat="48.79797" lon="2.2523">
        <ele>177</ele>
        <time>2020-12-05T15:27:07.094Z</time>
      </trkpt>
      <trkpt lat="48.79796" lon="2.2523">
        <ele>176</ele>
        <time>2020-12-05T15:27:08.094Z</time>
      </trkpt>
      <trkpt lat="48.79795" lon="2.2523">
        <ele>175</ele>
        <time>2020-12-05T15:27:09.094Z</time>
      </trkpt>
      <trkpt lat="48.79795" lon="2.2523">
        <ele>174</ele>
        <time>2020-12-05T15:27:10.095Z</time>
      </trkpt>
      <trkpt lat="48.79794" lon="2.25229">
        <ele>173</ele>
        <time>2020-12-05T15:27:11.095Z</time>
      </trkpt>
      <trkpt lat="48.79793" lon="2.25229">
        <ele>172</ele>
        <time>2020-12-05T15:27:12.095Z</time>
      </trkpt>
      <trkpt lat="48.79792" lon="2.25229">
        <ele>171</ele>
        <time>2020-12-05T15:27:13.095Z</time>
      </trkpt>
      <trkpt lat="48.79791" lon="2.25229">
        <ele>170</ele>
        <time>2020-12-05T15:27:14.095Z</time>
      </trkpt>
      <trkpt lat="48.7979" lon="2.2523">
        <ele>169</ele>
        <time>2020-12-05T15:27:15.095Z</time>
      </trkpt>
      <trkpt lat="48.79789" lon="2.2523">
        <ele>169</ele>
        <time>2020-12-05T15:27:16.095Z</time>
      </trkpt>
      <trkpt lat="48.79787" lon="2.25231">
        <ele>169</ele>
        <time>2020-12-05T15:27:17.095Z</time>
      </trkpt>
      <trkpt lat="48.79787" lon="2.25231">
        <ele>168</ele>
        <time>2020-12-05T15:27:18.095Z</time>
      </trkpt>
      <trkpt lat="48.79787" lon="2.25232">
        <ele>169</ele>
        <time>2020-12-05T15:27:19.095Z</time>
      </trkpt>
      <trkpt lat="48.79787" lon="2.25234">
        <ele>169</ele>
        <time>2020-12-05T15:27:20.095Z</time>
      </trkpt>
      <trkpt lat="48.79786" lon="2.25236">
        <ele>169</ele>
        <time>2020-12-05T15:27:21.094Z</time>
      </trkpt>
      <trkpt lat="48.79784" lon="2.25238">
        <ele>169</ele>
        <time>2020-12-05T15:27:22.094Z</time>
      </trkpt>
      <trkpt lat="48.79783" lon="2.25239">
        <ele>169</ele>
        <time>2020-12-05T15:27:23.094Z</time>
      </trkpt>
      <trkpt lat="48.79782" lon="2.25241">
        <ele>168</ele>
        <time>2020-12-05T15:27:24.094Z</time>
      </trkpt>
      <trkpt lat="48.79781" lon="2.25243">
        <ele>168</ele>
        <time>2020-12-05T15:27:25.095Z</time>
      </trkpt>
      <trkpt lat="48.7978" lon="2.25244">
        <ele>167</ele>
        <time>2020-12-05T15:27:26.095Z</time>
      </trkpt>
      <trkpt lat="48.79779" lon="2.25245">
        <ele>166</ele>
        <time>2020-12-05T15:27:27.095Z</time>
      </trkpt>
      <trkpt lat="48.79778" lon="2.25246">
        <ele>166</ele>
        <time>2020-12-05T15:27:28.094Z</time>
      </trkpt>
      <trkpt lat="48.79777" lon="2.25248">
        <ele>165</ele>
        <time>2020-12-05T15:27:29.094Z</time>
      </trkpt>
      <trkpt lat="48.79776" lon="2.25249">
        <ele>165</ele>
        <time>2020-12-05T15:27:30.094Z</time>
      </trkpt>
      <trkpt lat="48.79774" lon="2.25251">
        <ele>165</ele>
        <time>2020-12-05T15:27:31.095Z</time>
      </trkpt>
      <trkpt lat="48.79773" lon="2.25253">
        <ele>164</ele>
        <time>2020-12-05T15:27:32.095Z</time>
      </trkpt>
      <trkpt lat="48.79772" lon="2.25255">
        <ele>164</ele>
        <time>2020-12-05T15:27:33.095Z</time>
      </trkpt>
      <trkpt lat="48.79771" lon="2.25255">
        <ele>164</ele>
        <time>2020-12-05T15:27:34.095Z</time>
      </trkpt>
      <trkpt lat="48.7977" lon="2.25256">
        <ele>163</ele>
        <time>2020-12-05T15:27:35.095Z</time>
      </trkpt>
      <trkpt lat="48.79768" lon="2.25257">
        <ele>163</ele>
        <time>2020-12-05T15:27:36.095Z</time>
      </trkpt>
      <trkpt lat="48.79768" lon="2.25258">
        <ele>163</ele>
        <time>2020-12-05T15:27:37.095Z</time>
      </trkpt>
      <trkpt lat="48.79767" lon="2.2526">
        <ele>163</ele>
        <time>2020-12-05T15:27:38.095Z</time>
      </trkpt>
      <trkpt lat="48.79767" lon="2.25262">
        <ele>163</ele>
        <time>2020-12-05T15:27:39.094Z</time>
      </trkpt>
      <trkpt lat="48.79767" lon="2.25264">
        <ele>163</ele>
        <time>2020-12-05T15:27:40.095Z</time>
      </trkpt>
      <trkpt lat="48.79766" lon="2.25265">
        <ele>163</ele>
        <time>2020-12-05T15:27:41.095Z</time>
      </trkpt>
      <trkpt lat="48.79766" lon="2.25266">
        <ele>163</ele>
        <time>2020-12-05T15:27:42.094Z</time>
      </trkpt>
      <trkpt lat="48.79766" lon="2.25266">
        <ele>162</ele>
        <time>2020-12-05T15:27:43.095Z</time>
      </trkpt>
      <trkpt lat="48.79766" lon="2.25267">
        <ele>162</ele>
        <time>2020-12-05T15:27:44.094Z</time>
      </trkpt>
      <trkpt lat="48.79765" lon="2.25268">
        <ele>162</ele>
        <time>2020-12-05T15:27:45.095Z</time>
      </trkpt>
      <trkpt lat="48.79765" lon="2.25269">
        <ele>161</ele>
        <time>2020-12-05T15:27:46.095Z</time>
      </trkpt>
      <trkpt lat="48.79764" lon="2.2527">
        <ele>161</ele>
        <time>2020-12-05T15:27:47.095Z</time>
      </trkpt>
      <trkpt lat="48.79763" lon="2.25272">
        <ele>161</ele>
        <time>2020-12-05T15:27:48.095Z</time>
      </trkpt>
      <trkpt lat="48.79762" lon="2.25273">
        <ele>160</ele>
        <time>2020-12-05T15:27:49.094Z</time>
      </trkpt>
      <trkpt lat="48.79761" lon="2.25275">
        <ele>160</ele>
        <time>2020-12-05T15:27:50.094Z</time>
      </trkpt>
      <trkpt lat="48.7976" lon="2.25278">
        <ele>159</ele>
        <time>2020-12-05T15:27:51.094Z</time>
      </trkpt>
      <trkpt lat="48.79759" lon="2.2528">
        <ele>158</ele>
        <time>2020-12-05T15:27:52.095Z</time>
      </trkpt>
      <trkpt lat="48.79758" lon="2.25282">
        <ele>158</ele>
        <time>2020-12-05T15:27:53.095Z</time>
      </trkpt>
      <trkpt lat="48.79757" lon="2.25283">
        <ele>157</ele>
        <time>2020-12-05T15:27:54.094Z</time>
      </trkpt>
      <trkpt lat="48.79756" lon="2.25285">
        <ele>157</ele>
        <time>2020-12-05T15:27:55.094Z</time>
      </trkpt>
      <trkpt lat="48.79755" lon="2.25286">
        <ele>156</ele>
        <time>2020-12-05T15:27:56.094Z</time>
      </trkpt>
      <trkpt lat="48.79753" lon="2.25287">
        <ele>156</ele>
        <time>2020-12-05T15:27:57.094Z</time>
      </trkpt>
      <trkpt lat="48.79752" lon="2.25288">
        <ele>156</ele>
        <time>2020-12-05T15:27:58.095Z</time>
      </trkpt>
      <trkpt lat="48.79751" lon="2.25289">
        <ele>156</ele>
        <time>2020-12-05T15:27:59.095Z</time>
      </trkpt>
      <trkpt lat="48.79751" lon="2.2529">
        <ele>157</ele>
        <time>2020-12-05T15:28:00.095Z</time>
      </trkpt>
      <trkpt lat="48.7975" lon="2.25291">
        <ele>157</ele>
        <time>2020-12-05T15:28:01.095Z</time>
      </trkpt>
      <trkpt lat="48.7975" lon="2.25293">
        <ele>157</ele>
        <time>2020-12-05T15:28:02.095Z</time>
      </trkpt>
      <trkpt lat="48.7975" lon="2.25294">
        <ele>158</ele>
        <time>2020-12-05T15:28:03.095Z</time>
      </trkpt>
      <trkpt lat="48.7975" lon="2.25296">
        <ele>158</ele>
        <time>2020-12-05T15:28:04.095Z</time>
      </trkpt>
      <trkpt lat="48.7975" lon="2.25297">
        <ele>158</ele>
        <time>2020-12-05T15:28:05.095Z</time>
      </trkpt>
      <trkpt lat="48.79749" lon="2.25299">
        <ele>159</ele>
        <time>2020-12-05T15:28:06.095Z</time>
      </trkpt>
      <trkpt lat="48.79749" lon="2.25301">
        <ele>159</ele>
        <time>2020-12-05T15:28:07.095Z</time>
      </trkpt>
      <trkpt lat="48.79748" lon="2.25302">
        <ele>160</ele>
        <time>2020-12-05T15:28:08.095Z</time>
      </trkpt>
      <trkpt lat="48.79747" lon="2.25303">
        <ele>160</ele>
        <time>2020-12-05T15:28:09.095Z</time>
      </trkpt>
      <trkpt lat="48.79745" lon="2.25303">
        <ele>160</ele>
        <time>2020-12-05T15:28:10.095Z</time>
      </trkpt>
      <trkpt lat="48.79743" lon="2.25305">
        <ele>160</ele>
        <time>2020-12-05T15:28:11.094Z</time>
      </trkpt>
      <trkpt lat="48.79742" lon="2.25305">
        <ele>161</ele>
        <time>2020-12-05T15:28:12.094Z</time>
      </trkpt>
      <trkpt lat="48.7974" lon="2.25306">
        <ele>160</ele>
        <time>2020-12-05T15:28:13.094Z</time>
      </trkpt>
      <trkpt lat="48.79738" lon="2.25307">
        <ele>160</ele>
        <time>2020-12-05T15:28:14.095Z</time>
      </trkpt>
      <trkpt lat="48.79738" lon="2.25309">
        <ele>160</ele>
        <time>2020-12-05T15:28:15.095Z</time>
      </trkpt>
      <trkpt lat="48.79737" lon="2.25312">
        <ele>160</ele>
        <time>2020-12-05T15:28:16.095Z</time>
      </trkpt>
      <trkpt lat="48.79738" lon="2.25314">
        <ele>160</ele>
        <time>2020-12-05T15:28:17.095Z</time>
      </trkpt>
      <trkpt lat="48.79736" lon="2.25315">
        <ele>160</ele>
        <time>2020-12-05T15:28:18.095Z</time>
      </trkpt>
      <trkpt lat="48.79735" lon="2.25317">
        <ele>160</ele>
        <time>2020-12-05T15:28:19.095Z</time>
      </trkpt>
      <trkpt lat="48.79735" lon="2.25319">
        <ele>160</ele>
        <time>2020-12-05T15:28:20.095Z</time>
      </trkpt>
      <trkpt lat="48.79734" lon="2.2532">
        <ele>160</ele>
        <time>2020-12-05T15:28:21.095Z</time>
      </trkpt>
      <trkpt lat="48.79734" lon="2.2532">
        <ele>160</ele>
        <time>2020-12-05T15:28:22.095Z</time>
      </trkpt>
      <trkpt lat="48.79735" lon="2.25318">
        <ele>160</ele>
        <time>2020-12-05T15:28:23.095Z</time>
      </trkpt>
      <trkpt lat="48.79735" lon="2.25318">
        <ele>161</ele>
        <time>2020-12-05T15:28:24.094Z</time>
      </trkpt>
      <trkpt lat="48.79736" lon="2.25317">
        <ele>161</ele>
        <time>2020-12-05T15:28:25.094Z</time>
      </trkpt>
      <trkpt lat="48.79736" lon="2.25316">
        <ele>162</ele>
        <time>2020-12-05T15:28:26.094Z</time>
      </trkpt>
      <trkpt lat="48.79736" lon="2.25316">
        <ele>162</ele>
        <time>2020-12-05T15:28:27.094Z</time>
      </trkpt>
      <trkpt lat="48.79737" lon="2.25315">
        <ele>163</ele>
        <time>2020-12-05T15:28:28.095Z</time>
      </trkpt>
      <trkpt lat="48.79736" lon="2.25315">
        <ele>164</ele>
        <time>2020-12-05T15:28:29.094Z</time>
      </trkpt>
      <trkpt lat="48.79736" lon="2.25315">
        <ele>165</ele>
        <time>2020-12-05T15:28:30.094Z</time>
      </trkpt>
      <trkpt lat="48.79736" lon="2.25315">
        <ele>166</ele>
        <time>2020-12-05T15:28:31.094Z</time>
      </trkpt>
      <trkpt lat="48.79736" lon="2.25315">
        <ele>167</ele>
        <time>2020-12-05T15:28:32.094Z</time>
      </trkpt>
      <trkpt lat="48.79736" lon="2.25314">
        <ele>167</ele>
        <time>2020-12-05T15:28:33.095Z</time>
      </trkpt>
      <trkpt lat="48.79736" lon="2.25314">
        <ele>168</ele>
        <time>2020-12-05T15:28:34.095Z</time>
      </trkpt>
      <trkpt lat="48.79736" lon="2.25313">
        <ele>169</ele>
        <time>2020-12-05T15:28:35.095Z</time>
      </trkpt>
      <trkpt lat="48.79736" lon="2.25313">
        <ele>169</ele>
        <time>2020-12-05T15:28:36.094Z</time>
      </trkpt>
      <trkpt lat="48.79736" lon="2.25313">
        <ele>170</ele>
        <time>2020-12-05T15:28:37.094Z</time>
      </trkpt>
      <trkpt lat="48.79736" lon="2.25313">
        <ele>171</ele>
        <time>2020-12-05T15:28:38.094Z</time>
      </trkpt>
      <trkpt lat="48.79736" lon="2.25313">
        <ele>171</ele>
        <time>2020-12-05T15:28:39.095Z</time>
      </trkpt>
      <trkpt lat="48.79736" lon="2.25313">
        <ele>172</ele>
        <time>2020-12-05T15:28:40.094Z</time>
      </trkpt>
      <trkpt lat="48.79736" lon="2.25313">
        <ele>172</ele>
        <time>2020-12-05T15:28:41.094Z</time>
      </trkpt>
      <trkpt lat="48.79736" lon="2.25313">
        <ele>173</ele>
        <time>2020-12-05T15:28:42.094Z</time>
      </trkpt>
      <trkpt lat="48.79736" lon="2.25313">
        <ele>173</ele>
        <time>2020-12-05T15:28:43.094Z</time>
      </trkpt>
      <trkpt lat="48.79736" lon="2.25313">
        <ele>174</ele>
        <time>2020-12-05T15:28:44.094Z</time>
      </trkpt>
      <trkpt lat="48.79736" lon="2.25313">
        <ele>174</ele>
        <time>2020-12-05T15:28:45.095Z</time>
      </trkpt>
      <trkpt lat="48.79736" lon="2.25313">
        <ele>174</ele>
        <time>2020-12-05T15:28:46.095Z</time>
      </trkpt>
      <trkpt lat="48.79736" lon="2.25313">
        <ele>175</ele>
        <time>2020-12-05T15:28:47.095Z</time>
      </trkpt>
      <trkpt lat="48.79736" lon="2.25313">
        <ele>175</ele>
        <time>2020-12-05T15:28:48.095Z</time>
      </trkpt>
      <trkpt lat="48.79736" lon="2.25313">
        <ele>175</ele>
        <time>2020-12-05T15:28:49.095Z</time>
      </trkpt>
      <trkpt lat="48.79736" lon="2.25314">
        <ele>175</ele>
        <time>2020-12-05T15:28:50.095Z</time>
      </trkpt>
      <trkpt lat="48.79736" lon="2.25314">
        <ele>175</ele>
        <time>2020-12-05T15:28:51.095Z</time>
      </trkpt>
      <trkpt lat="48.79736" lon="2.25314">
        <ele>175</ele>
        <time>2020-12-05T15:28:52.095Z</time>
      </trkpt>
      <trkpt lat="48.79735" lon="2.25313">
        <ele>176</ele>
        <time>2020-12-05T15:28:53.095Z</time>
      </trkpt>
      <trkpt lat="48.79734" lon="2.25313">
        <ele>176</ele>
        <time>2020-12-05T15:28:54.095Z</time>
      </trkpt>
      <trkpt lat="48.79734" lon="2.25313">
        <ele>176</ele>
        <time>2020-12-05T15:28:55.094Z</time>
      </trkpt>
      <trkpt lat="48.79733" lon="2.25312">
        <ele>176</ele>
        <time>2020-12-05T15:28:56.095Z</time>
      </trkpt>
      <trkpt lat="48.79733" lon="2.25311">
        <ele>176</ele>
        <time>2020-12-05T15:28:57.095Z</time>
      </trkpt>
      <trkpt lat="48.79732" lon="2.25311">
        <ele>175</ele>
        <time>2020-12-05T15:28:58.094Z</time>
      </trkpt>
      <trkpt lat="48.79732" lon="2.2531">
        <ele>175</ele>
        <time>2020-12-05T15:28:59.095Z</time>
      </trkpt>
      <trkpt lat="48.79731" lon="2.25309">
        <ele>175</ele>
        <time>2020-12-05T15:29:00.094Z</time>
      </trkpt>
      <trkpt lat="48.7973" lon="2.25308">
        <ele>174</ele>
        <time>2020-12-05T15:29:01.095Z</time>
      </trkpt>
      <trkpt lat="48.7973" lon="2.25307">
        <ele>174</ele>
        <time>2020-12-05T15:29:02.095Z</time>
      </trkpt>
      <trkpt lat="48.7973" lon="2.25307">
        <ele>174</ele>
        <time>2020-12-05T15:29:03.095Z</time>
      </trkpt>
      <trkpt lat="48.79729" lon="2.25307">
        <ele>174</ele>
        <time>2020-12-05T15:29:04.095Z</time>
      </trkpt>
      <trkpt lat="48.79729" lon="2.25307">
        <ele>173</ele>
        <time>2020-12-05T15:29:05.094Z</time>
      </trkpt>
      <trkpt lat="48.79729" lon="2.25307">
        <ele>172</ele>
        <time>2020-12-05T15:29:06.095Z</time>
      </trkpt>
      <trkpt lat="48.79729" lon="2.25308">
        <ele>172</ele>
        <time>2020-12-05T15:29:07.094Z</time>
      </trkpt>
      <trkpt lat="48.79729" lon="2.25309">
        <ele>171</ele>
        <time>2020-12-05T15:29:08.095Z</time>
      </trkpt>
      <trkpt lat="48.79728" lon="2.2531">
        <ele>171</ele>
        <time>2020-12-05T15:29:09.095Z</time>
      </trkpt>
      <trkpt lat="48.79727" lon="2.25311">
        <ele>170</ele>
        <time>2020-12-05T15:29:10.095Z</time>
      </trkpt>
      <trkpt lat="48.79726" lon="2.25313">
        <ele>170</ele>
        <time>2020-12-05T15:29:11.095Z</time>
      </trkpt>
      <trkpt lat="48.79725" lon="2.25314">
        <ele>170</ele>
        <time>2020-12-05T15:29:12.095Z</time>
      </trkpt>
      <trkpt lat="48.79724" lon="2.25315">
        <ele>170</ele>
        <time>2020-12-05T15:29:13.095Z</time>
      </trkpt>
      <trkpt lat="48.79723" lon="2.25316">
        <ele>170</ele>
        <time>2020-12-05T15:29:14.095Z</time>
      </trkpt>
      <trkpt lat="48.79722" lon="2.25317">
        <ele>170</ele>
        <time>2020-12-05T15:29:15.095Z</time>
      </trkpt>
      <trkpt lat="48.79722" lon="2.25318">
        <ele>170</ele>
        <time>2020-12-05T15:29:16.095Z</time>
      </trkpt>
      <trkpt lat="48.79721" lon="2.25319">
        <ele>170</ele>
        <time>2020-12-05T15:29:17.095Z</time>
      </trkpt>
      <trkpt lat="48.79719" lon="2.2532">
        <ele>170</ele>
        <time>2020-12-05T15:29:18.095Z</time>
      </trkpt>
      <trkpt lat="48.79719" lon="2.25322">
        <ele>171</ele>
        <time>2020-12-05T15:29:19.095Z</time>
      </trkpt>
      <trkpt lat="48.79718" lon="2.25323">
        <ele>171</ele>
        <time>2020-12-05T15:29:20.094Z</time>
      </trkpt>
      <trkpt lat="48.79718" lon="2.25325">
        <ele>171</ele>
        <time>2020-12-05T15:29:21.095Z</time>
      </trkpt>
      <trkpt lat="48.79717" lon="2.25326">
        <ele>171</ele>
        <time>2020-12-05T15:29:22.095Z</time>
      </trkpt>
      <trkpt lat="48.79716" lon="2.2533">
        <ele>171</ele>
        <time>2020-12-05T15:29:23.095Z</time>
      </trkpt>
      <trkpt lat="48.79716" lon="2.25333">
        <ele>170</ele>
        <time>2020-12-05T15:29:24.095Z</time>
      </trkpt>
      <trkpt lat="48.79716" lon="2.25337">
        <ele>170</ele>
        <time>2020-12-05T15:29:25.095Z</time>
      </trkpt>
      <trkpt lat="48.79715" lon="2.25338">
        <ele>170</ele>
        <time>2020-12-05T15:29:26.095Z</time>
      </trkpt>
      <trkpt lat="48.79715" lon="2.25342">
        <ele>169</ele>
        <time>2020-12-05T15:29:27.095Z</time>
      </trkpt>
      <trkpt lat="48.79715" lon="2.25345">
        <ele>169</ele>
        <time>2020-12-05T15:29:28.095Z</time>
      </trkpt>
      <trkpt lat="48.79715" lon="2.25348">
        <ele>169</ele>
        <time>2020-12-05T15:29:29.095Z</time>
      </trkpt>
      <trkpt lat="48.79713" lon="2.25349">
        <ele>168</ele>
        <time>2020-12-05T15:29:30.095Z</time>
      </trkpt>
      <trkpt lat="48.79712" lon="2.25351">
        <ele>168</ele>
        <time>2020-12-05T15:29:31.095Z</time>
      </trkpt>
      <trkpt lat="48.79711" lon="2.25353">
        <ele>168</ele>
        <time>2020-12-05T15:29:32.094Z</time>
      </trkpt>
      <trkpt lat="48.7971" lon="2.25354">
        <ele>167</ele>
        <time>2020-12-05T15:29:33.095Z</time>
      </trkpt>
      <trkpt lat="48.79709" lon="2.25355">
        <ele>167</ele>
        <time>2020-12-05T15:29:34.095Z</time>
      </trkpt>
      <trkpt lat="48.79709" lon="2.25356">
        <ele>167</ele>
        <time>2020-12-05T15:29:35.095Z</time>
      </trkpt>
      <trkpt lat="48.79709" lon="2.25357">
        <ele>167</ele>
        <time>2020-12-05T15:29:36.094Z</time>
      </trkpt>
      <trkpt lat="48.79708" lon="2.25358">
        <ele>167</ele>
        <time>2020-12-05T15:29:37.094Z</time>
      </trkpt>
      <trkpt lat="48.79707" lon="2.2536">
        <ele>166</ele>
        <time>2020-12-05T15:29:38.094Z</time>
      </trkpt>
      <trkpt lat="48.79706" lon="2.25361">
        <ele>167</ele>
        <time>2020-12-05T15:29:39.095Z</time>
      </trkpt>
      <trkpt lat="48.79706" lon="2.25362">
        <ele>167</ele>
        <time>2020-12-05T15:29:40.094Z</time>
      </trkpt>
      <trkpt lat="48.79705" lon="2.25365">
        <ele>167</ele>
        <time>2020-12-05T15:29:41.094Z</time>
      </trkpt>
      <trkpt lat="48.79704" lon="2.25367">
        <ele>167</ele>
        <time>2020-12-05T15:29:42.095Z</time>
      </trkpt>
      <trkpt lat="48.79703" lon="2.25368">
        <ele>167</ele>
        <time>2020-12-05T15:29:43.095Z</time>
      </trkpt>
      <trkpt lat="48.79702" lon="2.2537">
        <ele>167</ele>
        <time>2020-12-05T15:29:44.095Z</time>
      </trkpt>
      <trkpt lat="48.79701" lon="2.25371">
        <ele>168</ele>
        <time>2020-12-05T15:29:45.095Z</time>
      </trkpt>
      <trkpt lat="48.797" lon="2.25373">
        <ele>168</ele>
        <time>2020-12-05T15:29:46.095Z</time>
      </trkpt>
      <trkpt lat="48.79699" lon="2.25374">
        <ele>169</ele>
        <time>2020-12-05T15:29:47.094Z</time>
      </trkpt>
      <trkpt lat="48.79698" lon="2.25377">
        <ele>169</ele>
        <time>2020-12-05T15:29:48.095Z</time>
      </trkpt>
      <trkpt lat="48.79697" lon="2.25379">
        <ele>169</ele>
        <time>2020-12-05T15:29:49.095Z</time>
      </trkpt>
      <trkpt lat="48.79696" lon="2.25381">
        <ele>170</ele>
        <time>2020-12-05T15:29:50.095Z</time>
      </trkpt>
      <trkpt lat="48.79695" lon="2.25383">
        <ele>170</ele>
        <time>2020-12-05T15:29:51.095Z</time>
      </trkpt>
      <trkpt lat="48.79694" lon="2.25385">
        <ele>170</ele>
        <time>2020-12-05T15:29:52.095Z</time>
      </trkpt>
      <trkpt lat="48.79694" lon="2.25386">
        <ele>170</ele>
        <time>2020-12-05T15:29:53.095Z</time>
      </trkpt>
      <trkpt lat="48.79693" lon="2.25387">
        <ele>170</ele>
        <time>2020-12-05T15:29:54.095Z</time>
      </trkpt>
      <trkpt lat="48.79692" lon="2.25389">
        <ele>171</ele>
        <time>2020-12-05T15:29:55.095Z</time>
      </trkpt>
      <trkpt lat="48.79691" lon="2.2539">
        <ele>171</ele>
        <time>2020-12-05T15:29:56.095Z</time>
      </trkpt>
      <trkpt lat="48.7969" lon="2.25391">
        <ele>172</ele>
        <time>2020-12-05T15:29:57.095Z</time>
      </trkpt>
      <trkpt lat="48.79689" lon="2.25392">
        <ele>172</ele>
        <time>2020-12-05T15:29:58.095Z</time>
      </trkpt>
      <trkpt lat="48.79688" lon="2.25393">
        <ele>172</ele>
        <time>2020-12-05T15:29:59.095Z</time>
      </trkpt>
      <trkpt lat="48.79687" lon="2.25395">
        <ele>172</ele>
        <time>2020-12-05T15:30:00.095Z</time>
      </trkpt>
      <trkpt lat="48.79686" lon="2.25397">
        <ele>171</ele>
        <time>2020-12-05T15:30:01.094Z</time>
      </trkpt>
      <trkpt lat="48.79685" lon="2.25399">
        <ele>171</ele>
        <time>2020-12-05T15:30:02.094Z</time>
      </trkpt>
      <trkpt lat="48.79683" lon="2.25401">
        <ele>170</ele>
        <time>2020-12-05T15:30:03.095Z</time>
      </trkpt>
      <trkpt lat="48.79682" lon="2.25402">
        <ele>169</ele>
        <time>2020-12-05T15:30:04.094Z</time>
      </trkpt>
      <trkpt lat="48.7968" lon="2.25405">
        <ele>168</ele>
        <time>2020-12-05T15:30:05.094Z</time>
      </trkpt>
      <trkpt lat="48.79679" lon="2.25406">
        <ele>167</ele>
        <time>2020-12-05T15:30:06.094Z</time>
      </trkpt>
      <trkpt lat="48.79678" lon="2.25407">
        <ele>167</ele>
        <time>2020-12-05T15:30:07.094Z</time>
      </trkpt>
      <trkpt lat="48.79678" lon="2.25408">
        <ele>166</ele>
        <time>2020-12-05T15:30:08.094Z</time>
      </trkpt>
      <trkpt lat="48.79677" lon="2.25408">
        <ele>165</ele>
        <time>2020-12-05T15:30:09.094Z</time>
      </trkpt>
      <trkpt lat="48.79676" lon="2.2541">
        <ele>165</ele>
        <time>2020-12-05T15:30:10.095Z</time>
      </trkpt>
      <trkpt lat="48.79674" lon="2.25411">
        <ele>164</ele>
        <time>2020-12-05T15:30:11.094Z</time>
      </trkpt>
      <trkpt lat="48.79673" lon="2.25412">
        <ele>164</ele>
        <time>2020-12-05T15:30:12.095Z</time>
      </trkpt>
      <trkpt lat="48.79672" lon="2.25413">
        <ele>164</ele>
        <time>2020-12-05T15:30:13.095Z</time>
      </trkpt>
      <trkpt lat="48.7967" lon="2.25414">
        <ele>163</ele>
        <time>2020-12-05T15:30:14.095Z</time>
      </trkpt>
      <trkpt lat="48.79669" lon="2.25415">
        <ele>163</ele>
        <time>2020-12-05T15:30:15.095Z</time>
      </trkpt>
      <trkpt lat="48.79668" lon="2.25417">
        <ele>163</ele>
        <time>2020-12-05T15:30:16.095Z</time>
      </trkpt>
      <trkpt lat="48.79667" lon="2.25418">
        <ele>163</ele>
        <time>2020-12-05T15:30:17.095Z</time>
      </trkpt>
      <trkpt lat="48.79666" lon="2.25419">
        <ele>163</ele>
        <time>2020-12-05T15:30:18.094Z</time>
      </trkpt>
      <trkpt lat="48.79665" lon="2.2542">
        <ele>163</ele>
        <time>2020-12-05T15:30:19.094Z</time>
      </trkpt>
      <trkpt lat="48.79664" lon="2.25421">
        <ele>164</ele>
        <time>2020-12-05T15:30:20.094Z</time>
      </trkpt>
      <trkpt lat="48.79664" lon="2.25423">
        <ele>164</ele>
        <time>2020-12-05T15:30:21.095Z</time>
      </trkpt>
      <trkpt lat="48.79663" lon="2.25426">
        <ele>164</ele>
        <time>2020-12-05T15:30:22.094Z</time>
      </trkpt>
      <trkpt lat="48.79662" lon="2.25429">
        <ele>164</ele>
        <time>2020-12-05T15:30:23.095Z</time>
      </trkpt>
      <trkpt lat="48.7966" lon="2.25431">
        <ele>164</ele>
        <time>2020-12-05T15:30:24.094Z</time>
      </trkpt>
      <trkpt lat="48.79658" lon="2.25432">
        <ele>164</ele>
        <time>2020-12-05T15:30:25.094Z</time>
      </trkpt>
      <trkpt lat="48.79657" lon="2.25433">
        <ele>164</ele>
        <time>2020-12-05T15:30:26.095Z</time>
      </trkpt>
      <trkpt lat="48.79656" lon="2.25434">
        <ele>164</ele>
        <time>2020-12-05T15:30:27.095Z</time>
      </trkpt>
      <trkpt lat="48.79655" lon="2.25436">
        <ele>164</ele>
        <time>2020-12-05T15:30:28.095Z</time>
      </trkpt>
      <trkpt lat="48.79654" lon="2.25437">
        <ele>164</ele>
        <time>2020-12-05T15:30:29.095Z</time>
      </trkpt>
      <trkpt lat="48.79653" lon="2.25437">
        <ele>163</ele>
        <time>2020-12-05T15:30:30.095Z</time>
      </trkpt>
      <trkpt lat="48.79652" lon="2.25438">
        <ele>162</ele>
        <time>2020-12-05T15:30:31.094Z</time>
      </trkpt>
      <trkpt lat="48.79651" lon="2.25439">
        <ele>162</ele>
        <time>2020-12-05T15:30:32.094Z</time>
      </trkpt>
      <trkpt lat="48.79651" lon="2.25439">
        <ele>161</ele>
        <time>2020-12-05T15:30:33.095Z</time>
      </trkpt>
      <trkpt lat="48.7965" lon="2.2544">
        <ele>160</ele>
        <time>2020-12-05T15:30:34.095Z</time>
      </trkpt>
      <trkpt lat="48.79649" lon="2.25441">
        <ele>160</ele>
        <time>2020-12-05T15:30:35.095Z</time>
      </trkpt>
      <trkpt lat="48.79648" lon="2.25442">
        <ele>159</ele>
        <time>2020-12-05T15:30:36.095Z</time>
      </trkpt>
      <trkpt lat="48.79648" lon="2.25443">
        <ele>159</ele>
        <time>2020-12-05T15:30:37.094Z</time>
      </trkpt>
      <trkpt lat="48.79647" lon="2.25444">
        <ele>159</ele>
        <time>2020-12-05T15:30:38.094Z</time>
      </trkpt>
      <trkpt lat="48.79645" lon="2.25444">
        <ele>159</ele>
        <time>2020-12-05T15:30:39.095Z</time>
      </trkpt>
      <trkpt lat="48.79644" lon="2.25445">
        <ele>159</ele>
        <time>2020-12-05T15:30:40.094Z</time>
      </trkpt>
      <trkpt lat="48.79642" lon="2.25446">
        <ele>159</ele>
        <time>2020-12-05T15:30:41.094Z</time>
      </trkpt>
      <trkpt lat="48.79641" lon="2.25449">
        <ele>159</ele>
        <time>2020-12-05T15:30:42.095Z</time>
      </trkpt>
      <trkpt lat="48.7964" lon="2.25451">
        <ele>159</ele>
        <time>2020-12-05T15:30:43.095Z</time>
      </trkpt>
      <trkpt lat="48.79639" lon="2.25453">
        <ele>159</ele>
        <time>2020-12-05T15:30:44.095Z</time>
      </trkpt>
      <trkpt lat="48.79639" lon="2.25454">
        <ele>159</ele>
        <time>2020-12-05T15:30:45.095Z</time>
      </trkpt>
      <trkpt lat="48.79639" lon="2.25456">
        <ele>159</ele>
        <time>2020-12-05T15:30:46.095Z</time>
      </trkpt>
      <trkpt lat="48.79638" lon="2.25457">
        <ele>159</ele>
        <time>2020-12-05T15:30:47.095Z</time>
      </trkpt>
      <trkpt lat="48.79637" lon="2.25458">
        <ele>159</ele>
        <time>2020-12-05T15:30:48.095Z</time>
      </trkpt>
      <trkpt lat="48.79635" lon="2.25459">
        <ele>160</ele>
        <time>2020-12-05T15:30:49.095Z</time>
      </trkpt>
      <trkpt lat="48.79634" lon="2.25461">
        <ele>160</ele>
        <time>2020-12-05T15:30:50.095Z</time>
      </trkpt>
      <trkpt lat="48.79633" lon="2.25463">
        <ele>161</ele>
        <time>2020-12-05T15:30:51.095Z</time>
      </trkpt>
      <trkpt lat="48.79633" lon="2.25464">
        <ele>161</ele>
        <time>2020-12-05T15:30:52.095Z</time>
      </trkpt>
      <trkpt lat="48.79632" lon="2.25466">
        <ele>161</ele>
        <time>2020-12-05T15:30:53.095Z</time>
      </trkpt>
      <trkpt lat="48.79631" lon="2.25467">
        <ele>162</ele>
        <time>2020-12-05T15:30:54.095Z</time>
      </trkpt>
      <trkpt lat="48.7963" lon="2.25468">
        <ele>162</ele>
        <time>2020-12-05T15:30:55.095Z</time>
      </trkpt>
      <trkpt lat="48.7963" lon="2.25468">
        <ele>162</ele>
        <time>2020-12-05T15:30:56.095Z</time>
      </trkpt>
      <trkpt lat="48.7963" lon="2.25468">
        <ele>163</ele>
        <time>2020-12-05T15:30:57.094Z</time>
      </trkpt>
      <trkpt lat="48.7963" lon="2.25468">
        <ele>163</ele>
        <time>2020-12-05T15:30:58.095Z</time>
      </trkpt>
      <trkpt lat="48.79629" lon="2.25468">
        <ele>164</ele>
        <time>2020-12-05T15:30:59.095Z</time>
      </trkpt>
      <trkpt lat="48.79629" lon="2.25469">
        <ele>165</ele>
        <time>2020-12-05T15:31:00.095Z</time>
      </trkpt>
      <trkpt lat="48.79628" lon="2.2547">
        <ele>165</ele>
        <time>2020-12-05T15:31:01.094Z</time>
      </trkpt>
      <trkpt lat="48.79628" lon="2.2547">
        <ele>166</ele>
        <time>2020-12-05T15:31:02.095Z</time>
      </trkpt>
      <trkpt lat="48.79627" lon="2.25471">
        <ele>166</ele>
        <time>2020-12-05T15:31:03.095Z</time>
      </trkpt>
      <trkpt lat="48.79626" lon="2.25473">
        <ele>165</ele>
        <time>2020-12-05T15:31:04.094Z</time>
      </trkpt>
      <trkpt lat="48.79625" lon="2.25474">
        <ele>165</ele>
        <time>2020-12-05T15:31:05.094Z</time>
      </trkpt>
      <trkpt lat="48.79624" lon="2.25476">
        <ele>164</ele>
        <time>2020-12-05T15:31:06.095Z</time>
      </trkpt>
      <trkpt lat="48.79623" lon="2.25477">
        <ele>164</ele>
        <time>2020-12-05T15:31:07.095Z</time>
      </trkpt>
      <trkpt lat="48.79622" lon="2.25479">
        <ele>164</ele>
        <time>2020-12-05T15:31:08.095Z</time>
      </trkpt>
      <trkpt lat="48.7962" lon="2.2548">
        <ele>163</ele>
        <time>2020-12-05T15:31:09.095Z</time>
      </trkpt>
      <trkpt lat="48.79618" lon="2.25481">
        <ele>163</ele>
        <time>2020-12-05T15:31:10.095Z</time>
      </trkpt>
      <trkpt lat="48.79617" lon="2.25482">
        <ele>163</ele>
        <time>2020-12-05T15:31:11.095Z</time>
      </trkpt>
      <trkpt lat="48.79615" lon="2.25483">
        <ele>163</ele>
        <time>2020-12-05T15:31:12.095Z</time>
      </trkpt>
      <trkpt lat="48.79613" lon="2.25484">
        <ele>162</ele>
        <time>2020-12-05T15:31:13.095Z</time>
      </trkpt>
      <trkpt lat="48.79612" lon="2.25484">
        <ele>162</ele>
        <time>2020-12-05T15:31:14.094Z</time>
      </trkpt>
      <trkpt lat="48.79611" lon="2.25484">
        <ele>162</ele>
        <time>2020-12-05T15:31:15.094Z</time>
      </trkpt>
      <trkpt lat="48.7961" lon="2.25484">
        <ele>162</ele>
        <time>2020-12-05T15:31:16.095Z</time>
      </trkpt>
      <trkpt lat="48.7961" lon="2.25484">
        <ele>162</ele>
        <time>2020-12-05T15:31:17.095Z</time>
      </trkpt>
      <trkpt lat="48.79608" lon="2.25485">
        <ele>162</ele>
        <time>2020-12-05T15:31:18.095Z</time>
      </trkpt>
      <trkpt lat="48.79607" lon="2.25485">
        <ele>162</ele>
        <time>2020-12-05T15:31:19.095Z</time>
      </trkpt>
      <trkpt lat="48.79606" lon="2.25486">
        <ele>162</ele>
        <time>2020-12-05T15:31:20.095Z</time>
      </trkpt>
      <trkpt lat="48.79605" lon="2.25486">
        <ele>162</ele>
        <time>2020-12-05T15:31:21.095Z</time>
      </trkpt>
      <trkpt lat="48.79604" lon="2.25486">
        <ele>162</ele>
        <time>2020-12-05T15:31:22.094Z</time>
      </trkpt>
      <trkpt lat="48.79603" lon="2.25486">
        <ele>162</ele>
        <time>2020-12-05T15:31:23.095Z</time>
      </trkpt>
      <trkpt lat="48.79602" lon="2.25486">
        <ele>162</ele>
        <time>2020-12-05T15:31:24.095Z</time>
      </trkpt>
      <trkpt lat="48.79602" lon="2.25485">
        <ele>163</ele>
        <time>2020-12-05T15:31:25.095Z</time>
      </trkpt>
      <trkpt lat="48.79602" lon="2.25485">
        <ele>163</ele>
        <time>2020-12-05T15:31:26.095Z</time>
      </trkpt>
      <trkpt lat="48.79602" lon="2.25485">
        <ele>164</ele>
        <time>2020-12-05T15:31:27.095Z</time>
      </trkpt>
      <trkpt lat="48.79603" lon="2.25485">
        <ele>165</ele>
        <time>2020-12-05T15:31:28.095Z</time>
      </trkpt>
      <trkpt lat="48.79603" lon="2.25485">
        <ele>166</ele>
        <time>2020-12-05T15:31:29.095Z</time>
      </trkpt>
      <trkpt lat="48.79603" lon="2.25485">
        <ele>167</ele>
        <time>2020-12-05T15:31:30.094Z</time>
      </trkpt>
      <trkpt lat="48.79603" lon="2.25485">
        <ele>167</ele>
        <time>2020-12-05T15:31:31.094Z</time>
      </trkpt>
      <trkpt lat="48.79603" lon="2.25484">
        <ele>168</ele>
        <time>2020-12-05T15:31:32.095Z</time>
      </trkpt>
      <trkpt lat="48.79603" lon="2.25484">
        <ele>169</ele>
        <time>2020-12-05T15:31:33.095Z</time>
      </trkpt>
      <trkpt lat="48.79603" lon="2.25484">
        <ele>169</ele>
        <time>2020-12-05T15:31:34.095Z</time>
      </trkpt>
      <trkpt lat="48.79603" lon="2.25484">
        <ele>169</ele>
        <time>2020-12-05T15:31:35.095Z</time>
      </trkpt>
      <trkpt lat="48.79603" lon="2.25484">
        <ele>170</ele>
        <time>2020-12-05T15:31:36.095Z</time>
      </trkpt>
      <trkpt lat="48.79603" lon="2.25484">
        <ele>170</ele>
        <time>2020-12-05T15:31:37.095Z</time>
      </trkpt>
      <trkpt lat="48.79603" lon="2.25484">
        <ele>170</ele>
        <time>2020-12-05T15:31:38.095Z</time>
      </trkpt>
      <trkpt lat="48.79603" lon="2.25484">
        <ele>170</ele>
        <time>2020-12-05T15:31:39.095Z</time>
      </trkpt>
      <trkpt lat="48.79603" lon="2.25484">
        <ele>170</ele>
        <time>2020-12-05T15:31:40.095Z</time>
      </trkpt>
      <trkpt lat="48.79603" lon="2.25484">
        <ele>170</ele>
        <time>2020-12-05T15:31:41.095Z</time>
      </trkpt>
      <trkpt lat="48.79603" lon="2.25484">
        <ele>171</ele>
        <time>2020-12-05T15:31:42.094Z</time>
      </trkpt>
      <trkpt lat="48.79603" lon="2.25484">
        <ele>171</ele>
        <time>2020-12-05T15:31:43.095Z</time>
      </trkpt>
      <trkpt lat="48.79603" lon="2.25484">
        <ele>171</ele>
        <time>2020-12-05T15:31:44.095Z</time>
      </trkpt>
      <trkpt lat="48.79603" lon="2.25484">
        <ele>171</ele>
        <time>2020-12-05T15:31:45.095Z</time>
      </trkpt>
      <trkpt lat="48.79603" lon="2.25484">
        <ele>171</ele>
        <time>2020-12-05T15:31:46.094Z</time>
      </trkpt>
      <trkpt lat="48.79603" lon="2.25484">
        <ele>171</ele>
        <time>2020-12-05T15:31:47.095Z</time>
      </trkpt>
      <trkpt lat="48.79603" lon="2.25484">
        <ele>171</ele>
        <time>2020-12-05T15:31:48.095Z</time>
      </trkpt>
      <trkpt lat="48.79603" lon="2.25484">
        <ele>171</ele>
        <time>2020-12-05T15:31:49.095Z</time>
      </trkpt>
      <trkpt lat="48.79603" lon="2.25484">
        <ele>171</ele>
        <time>2020-12-05T15:31:50.095Z</time>
      </trkpt>
      <trkpt lat="48.79603" lon="2.25484">
        <ele>171</ele>
        <time>2020-12-05T15:31:51.095Z</time>
      </trkpt>
      <trkpt lat="48.79603" lon="2.25485">
        <ele>171</ele>
        <time>2020-12-05T15:31:52.095Z</time>
      </trkpt>
      <trkpt lat="48.79603" lon="2.25485">
        <ele>171</ele>
        <time>2020-12-05T15:31:53.094Z</time>
      </trkpt>
      <trkpt lat="48.79603" lon="2.25485">
        <ele>171</ele>
        <time>2020-12-05T15:31:54.095Z</time>
      </trkpt>
      <trkpt lat="48.79603" lon="2.25485">
        <ele>171</ele>
        <time>2020-12-05T15:31:55.095Z</time>
      </trkpt>
      <trkpt lat="48.79603" lon="2.25485">
        <ele>171</ele>
        <time>2020-12-05T15:31:56.095Z</time>
      </trkpt>
      <trkpt lat="48.79604" lon="2.25486">
        <ele>171</ele>
        <time>2020-12-05T15:31:57.095Z</time>
      </trkpt>
      <trkpt lat="48.79605" lon="2.25488">
        <ele>171</ele>
        <time>2020-12-05T15:31:58.095Z</time>
      </trkpt>
      <trkpt lat="48.79606" lon="2.2549">
        <ele>170</ele>
        <time>2020-12-05T15:31:59.095Z</time>
      </trkpt>
      <trkpt lat="48.79606" lon="2.25492">
        <ele>170</ele>
        <time>2020-12-05T15:32:00.095Z</time>
      </trkpt>
      <trkpt lat="48.79605" lon="2.25493">
        <ele>171</ele>
        <time>2020-12-05T15:32:01.095Z</time>
      </trkpt>
      <trkpt lat="48.79605" lon="2.25494">
        <ele>171</ele>
        <time>2020-12-05T15:32:02.095Z</time>
      </trkpt>
      <trkpt lat="48.79605" lon="2.25495">
        <ele>171</ele>
        <time>2020-12-05T15:32:03.094Z</time>
      </trkpt>
      <trkpt lat="48.79605" lon="2.25496">
        <ele>171</ele>
        <time>2020-12-05T15:32:04.095Z</time>
      </trkpt>
      <trkpt lat="48.79605" lon="2.25496">
        <ele>170</ele>
        <time>2020-12-05T15:32:05.095Z</time>
      </trkpt>
      <trkpt lat="48.79604" lon="2.25496">
        <ele>170</ele>
        <time>2020-12-05T15:32:06.094Z</time>
      </trkpt>
      <trkpt lat="48.79603" lon="2.25496">
        <ele>170</ele>
        <time>2020-12-05T15:32:07.094Z</time>
      </trkpt>
      <trkpt lat="48.79603" lon="2.25495">
        <ele>170</ele>
        <time>2020-12-05T15:32:08.095Z</time>
      </trkpt>
      <trkpt lat="48.79602" lon="2.25495">
        <ele>169</ele>
        <time>2020-12-05T15:32:09.094Z</time>
      </trkpt>
      <trkpt lat="48.79602" lon="2.25495">
        <ele>169</ele>
        <time>2020-12-05T15:32:10.095Z</time>
      </trkpt>
      <trkpt lat="48.79601" lon="2.25494">
        <ele>169</ele>
        <time>2020-12-05T15:32:11.094Z</time>
      </trkpt>
      <trkpt lat="48.79601" lon="2.25494">
        <ele>169</ele>
        <time>2020-12-05T15:32:12.095Z</time>
      </trkpt>
      <trkpt lat="48.79601" lon="2.25493">
        <ele>168</ele>
        <time>2020-12-05T15:32:13.095Z</time>
      </trkpt>
      <trkpt lat="48.796" lon="2.25493">
        <ele>168</ele>
        <time>2020-12-05T15:32:14.095Z</time>
      </trkpt>
      <trkpt lat="48.79599" lon="2.25493">
        <ele>168</ele>
        <time>2020-12-05T15:32:15.095Z</time>
      </trkpt>
      <trkpt lat="48.79599" lon="2.25493">
        <ele>168</ele>
        <time>2020-12-05T15:32:16.095Z</time>
      </trkpt>
      <trkpt lat="48.79599" lon="2.25492">
        <ele>168</ele>
        <time>2020-12-05T15:32:17.095Z</time>
      </trkpt>
      <trkpt lat="48.79599" lon="2.25492">
        <ele>168</ele>
        <time>2020-12-05T15:32:18.094Z</time>
      </trkpt>
      <trkpt lat="48.79598" lon="2.25491">
        <ele>167</ele>
        <time>2020-12-05T15:32:19.094Z</time>
      </trkpt>
      <trkpt lat="48.79597" lon="2.2549">
        <ele>167</ele>
        <time>2020-12-05T15:32:20.094Z</time>
      </trkpt>
      <trkpt lat="48.79597" lon="2.2549">
        <ele>167</ele>
        <time>2020-12-05T15:32:21.095Z</time>
      </trkpt>
      <trkpt lat="48.79596" lon="2.25491">
        <ele>166</ele>
        <time>2020-12-05T15:32:22.095Z</time>
      </trkpt>
      <trkpt lat="48.79596" lon="2.25491">
        <ele>166</ele>
        <time>2020-12-05T15:32:23.095Z</time>
      </trkpt>
      <trkpt lat="48.79595" lon="2.25491">
        <ele>166</ele>
        <time>2020-12-05T15:32:24.095Z</time>
      </trkpt>
      <trkpt lat="48.79595" lon="2.25491">
        <ele>165</ele>
        <time>2020-12-05T15:32:25.095Z</time>
      </trkpt>
      <trkpt lat="48.79595" lon="2.25492">
        <ele>164</ele>
        <time>2020-12-05T15:32:26.095Z</time>
      </trkpt>
      <trkpt lat="48.79595" lon="2.25491">
        <ele>164</ele>
        <time>2020-12-05T15:32:27.095Z</time>
      </trkpt>
      <trkpt lat="48.79596" lon="2.2549">
        <ele>163</ele>
        <time>2020-12-05T15:32:28.095Z</time>
      </trkpt>
      <trkpt lat="48.79595" lon="2.25489">
        <ele>162</ele>
        <time>2020-12-05T15:32:29.095Z</time>
      </trkpt>
      <trkpt lat="48.79595" lon="2.25488">
        <ele>162</ele>
        <time>2020-12-05T15:32:30.095Z</time>
      </trkpt>
      <trkpt lat="48.79595" lon="2.25488">
        <ele>161</ele>
        <time>2020-12-05T15:32:31.095Z</time>
      </trkpt>
      <trkpt lat="48.79595" lon="2.25488">
        <ele>160</ele>
        <time>2020-12-05T15:32:32.095Z</time>
      </trkpt>
      <trkpt lat="48.79595" lon="2.25488">
        <ele>159</ele>
        <time>2020-12-05T15:32:33.095Z</time>
      </trkpt>
      <trkpt lat="48.79595" lon="2.25488">
        <ele>159</ele>
        <time>2020-12-05T15:32:34.095Z</time>
      </trkpt>
      <trkpt lat="48.79595" lon="2.25488">
        <ele>158</ele>
        <time>2020-12-05T15:32:35.095Z</time>
      </trkpt>
      <trkpt lat="48.79595" lon="2.25488">
        <ele>157</ele>
        <time>2020-12-05T15:32:36.095Z</time>
      </trkpt>
      <trkpt lat="48.79595" lon="2.25488">
        <ele>156</ele>
        <time>2020-12-05T15:32:37.095Z</time>
      </trkpt>
      <trkpt lat="48.79595" lon="2.25488">
        <ele>156</ele>
        <time>2020-12-05T15:32:38.095Z</time>
      </trkpt>
      <trkpt lat="48.79595" lon="2.25488">
        <ele>155</ele>
        <time>2020-12-05T15:32:39.095Z</time>
      </trkpt>
      <trkpt lat="48.79595" lon="2.25488">
        <ele>154</ele>
        <time>2020-12-05T15:32:40.095Z</time>
      </trkpt>
      <trkpt lat="48.79595" lon="2.25488">
        <ele>154</ele>
        <time>2020-12-05T15:32:41.094Z</time>
      </trkpt>
      <trkpt lat="48.79595" lon="2.25488">
        <ele>154</ele>
        <time>2020-12-05T15:32:42.094Z</time>
      </trkpt>
      <trkpt lat="48.79595" lon="2.25488">
        <ele>153</ele>
        <time>2020-12-05T15:32:43.095Z</time>
      </trkpt>
      <trkpt lat="48.79595" lon="2.25488">
        <ele>153</ele>
        <time>2020-12-05T15:32:44.095Z</time>
      </trkpt>
      <trkpt lat="48.79595" lon="2.25488">
        <ele>153</ele>
        <time>2020-12-05T15:32:45.095Z</time>
      </trkpt>
      <trkpt lat="48.79595" lon="2.25488">
        <ele>152</ele>
        <time>2020-12-05T15:32:46.095Z</time>
      </trkpt>
      <trkpt lat="48.79595" lon="2.25488">
        <ele>152</ele>
        <time>2020-12-05T15:32:47.095Z</time>
      </trkpt>
      <trkpt lat="48.79595" lon="2.25488">
        <ele>152</ele>
        <time>2020-12-05T15:32:48.095Z</time>
      </trkpt>
      <trkpt lat="48.79595" lon="2.25488">
        <ele>152</ele>
        <time>2020-12-05T15:32:49.095Z</time>
      </trkpt>
      <trkpt lat="48.79595" lon="2.25488">
        <ele>151</ele>
        <time>2020-12-05T15:32:50.095Z</time>
      </trkpt>
      <trkpt lat="48.79595" lon="2.25488">
        <ele>151</ele>
        <time>2020-12-05T15:32:51.095Z</time>
      </trkpt>
      <trkpt lat="48.79595" lon="2.25488">
        <ele>151</ele>
        <time>2020-12-05T15:32:52.095Z</time>
      </trkpt>
      <trkpt lat="48.79595" lon="2.25488">
        <ele>151</ele>
        <time>2020-12-05T15:32:53.095Z</time>
      </trkpt>
      <trkpt lat="48.79595" lon="2.25488">
        <ele>151</ele>
        <time>2020-12-05T15:32:54.094Z</time>
      </trkpt>
      <trkpt lat="48.79595" lon="2.25488">
        <ele>151</ele>
        <time>2020-12-05T15:32:55.095Z</time>
      </trkpt>
      <trkpt lat="48.79595" lon="2.25488">
        <ele>150</ele>
        <time>2020-12-05T15:32:56.095Z</time>
      </trkpt>
      <trkpt lat="48.79595" lon="2.25488">
        <ele>150</ele>
        <time>2020-12-05T15:32:57.095Z</time>
      </trkpt>
      <trkpt lat="48.79595" lon="2.25488">
        <ele>150</ele>
        <time>2020-12-05T15:32:58.095Z</time>
      </trkpt>
      <trkpt lat="48.79595" lon="2.25488">
        <ele>150</ele>
        <time>2020-12-05T15:32:59.094Z</time>
      </trkpt>
      <trkpt lat="48.79596" lon="2.25488">
        <ele>150</ele>
        <time>2020-12-05T15:33:00.094Z</time>
      </trkpt>
      <trkpt lat="48.79596" lon="2.25489">
        <ele>150</ele>
        <time>2020-12-05T15:33:01.095Z</time>
      </trkpt>
      <trkpt lat="48.79596" lon="2.25489">
        <ele>150</ele>
        <time>2020-12-05T15:33:02.094Z</time>
      </trkpt>
      <trkpt lat="48.79596" lon="2.25489">
        <ele>150</ele>
        <time>2020-12-05T15:33:03.094Z</time>
      </trkpt>
      <trkpt lat="48.79596" lon="2.25489">
        <ele>149</ele>
        <time>2020-12-05T15:33:04.095Z</time>
      </trkpt>
      <trkpt lat="48.79597" lon="2.25489">
        <ele>149</ele>
        <time>2020-12-05T15:33:05.095Z</time>
      </trkpt>
      <trkpt lat="48.79597" lon="2.25489">
        <ele>149</ele>
        <time>2020-12-05T15:33:06.095Z</time>
      </trkpt>
      <trkpt lat="48.79597" lon="2.25489">
        <ele>149</ele>
        <time>2020-12-05T15:33:07.095Z</time>
      </trkpt>
      <trkpt lat="48.79597" lon="2.25489">
        <ele>149</ele>
        <time>2020-12-05T15:33:08.095Z</time>
      </trkpt>
      <trkpt lat="48.79597" lon="2.25489">
        <ele>149</ele>
        <time>2020-12-05T15:33:09.095Z</time>
      </trkpt>
      <trkpt lat="48.79597" lon="2.2549">
        <ele>149</ele>
        <time>2020-12-05T15:33:10.095Z</time>
      </trkpt>
      <trkpt lat="48.79597" lon="2.2549">
        <ele>149</ele>
        <time>2020-12-05T15:33:11.095Z</time>
      </trkpt>
      <trkpt lat="48.79597" lon="2.25491">
        <ele>149</ele>
        <time>2020-12-05T15:33:12.095Z</time>
      </trkpt>
      <trkpt lat="48.79597" lon="2.25491">
        <ele>149</ele>
        <time>2020-12-05T15:33:13.094Z</time>
      </trkpt>
      <trkpt lat="48.79597" lon="2.25491">
        <ele>149</ele>
        <time>2020-12-05T15:33:14.095Z</time>
      </trkpt>
      <trkpt lat="48.79597" lon="2.25491">
        <ele>149</ele>
        <time>2020-12-05T15:33:15.095Z</time>
      </trkpt>
      <trkpt lat="48.79597" lon="2.25491">
        <ele>149</ele>
        <time>2020-12-05T15:33:16.095Z</time>
      </trkpt>
      <trkpt lat="48.79597" lon="2.25491">
        <ele>149</ele>
        <time>2020-12-05T15:33:17.095Z</time>
      </trkpt>
      <trkpt lat="48.79598" lon="2.25491">
        <ele>149</ele>
        <time>2020-12-05T15:33:18.095Z</time>
      </trkpt>
      <trkpt lat="48.79598" lon="2.25491">
        <ele>149</ele>
        <time>2020-12-05T15:33:19.094Z</time>
      </trkpt>
      <trkpt lat="48.79598" lon="2.25491">
        <ele>149</ele>
        <time>2020-12-05T15:33:20.095Z</time>
      </trkpt>
      <trkpt lat="48.79598" lon="2.25491">
        <ele>149</ele>
        <time>2020-12-05T15:33:21.094Z</time>
      </trkpt>
      <trkpt lat="48.79598" lon="2.25491">
        <ele>149</ele>
        <time>2020-12-05T15:33:22.094Z</time>
      </trkpt>
      <trkpt lat="48.79598" lon="2.25491">
        <ele>149</ele>
        <time>2020-12-05T15:33:23.094Z</time>
      </trkpt>
      <trkpt lat="48.79598" lon="2.25491">
        <ele>149</ele>
        <time>2020-12-05T15:33:24.094Z</time>
      </trkpt>
      <trkpt lat="48.79598" lon="2.25491">
        <ele>149</ele>
        <time>2020-12-05T15:33:25.094Z</time>
      </trkpt>
      <trkpt lat="48.79598" lon="2.25491">
        <ele>149</ele>
        <time>2020-12-05T15:33:26.095Z</time>
      </trkpt>
      <trkpt lat="48.79598" lon="2.25491">
        <ele>149</ele>
        <time>2020-12-05T15:33:27.095Z</time>
      </trkpt>
      <trkpt lat="48.79598" lon="2.25491">
        <ele>149</ele>
        <time>2020-12-05T15:33:28.094Z</time>
      </trkpt>
      <trkpt lat="48.79599" lon="2.25489">
        <ele>149</ele>
        <time>2020-12-05T15:33:29.095Z</time>
      </trkpt>
      <trkpt lat="48.796" lon="2.25487">
        <ele>149</ele>
        <time>2020-12-05T15:33:30.094Z</time>
      </trkpt>
      <trkpt lat="48.796" lon="2.25485">
        <ele>149</ele>
        <time>2020-12-05T15:33:31.095Z</time>
      </trkpt>
      <trkpt lat="48.79601" lon="2.25484">
        <ele>149</ele>
        <time>2020-12-05T15:33:32.094Z</time>
      </trkpt>
      <trkpt lat="48.79602" lon="2.25483">
        <ele>150</ele>
        <time>2020-12-05T15:33:33.094Z</time>
      </trkpt>
      <trkpt lat="48.79603" lon="2.25482">
        <ele>150</ele>
        <time>2020-12-05T15:33:34.095Z</time>
      </trkpt>
      <trkpt lat="48.79603" lon="2.2548">
        <ele>150</ele>
        <time>2020-12-05T15:33:35.095Z</time>
      </trkpt>
      <trkpt lat="48.79603" lon="2.25478">
        <ele>151</ele>
        <time>2020-12-05T15:33:36.094Z</time>
      </trkpt>
      <trkpt lat="48.79604" lon="2.25477">
        <ele>151</ele>
        <time>2020-12-05T15:33:37.094Z</time>
      </trkpt>
      <trkpt lat="48.79604" lon="2.25476">
        <ele>152</ele>
        <time>2020-12-05T15:33:38.095Z</time>
      </trkpt>
      <trkpt lat="48.79603" lon="2.25475">
        <ele>152</ele>
        <time>2020-12-05T15:33:39.094Z</time>
      </trkpt>
      <trkpt lat="48.79602" lon="2.25474">
        <ele>153</ele>
        <time>2020-12-05T15:33:40.095Z</time>
      </trkpt>
      <trkpt lat="48.79602" lon="2.25473">
        <ele>153</ele>
        <time>2020-12-05T15:33:41.095Z</time>
      </trkpt>
      <trkpt lat="48.796" lon="2.25471">
        <ele>154</ele>
        <time>2020-12-05T15:33:42.095Z</time>
      </trkpt>
      <trkpt lat="48.79599" lon="2.2547">
        <ele>155</ele>
        <time>2020-12-05T15:33:43.095Z</time>
      </trkpt>
      <trkpt lat="48.79598" lon="2.2547">
        <ele>156</ele>
        <time>2020-12-05T15:33:44.094Z</time>
      </trkpt>
      <trkpt lat="48.79598" lon="2.25468">
        <ele>157</ele>
        <time>2020-12-05T15:33:45.095Z</time>
      </trkpt>
      <trkpt lat="48.79597" lon="2.25468">
        <ele>157</ele>
        <time>2020-12-05T15:33:46.094Z</time>
      </trkpt>
      <trkpt lat="48.79596" lon="2.25467">
        <ele>157</ele>
        <time>2020-12-05T15:33:47.095Z</time>
      </trkpt>
      <trkpt lat="48.79596" lon="2.25467">
        <ele>157</ele>
        <time>2020-12-05T15:33:48.095Z</time>
      </trkpt>
      <trkpt lat="48.79595" lon="2.25467">
        <ele>157</ele>
        <time>2020-12-05T15:33:49.095Z</time>
      </trkpt>
      <trkpt lat="48.79595" lon="2.25467">
        <ele>157</ele>
        <time>2020-12-05T15:33:50.095Z</time>
      </trkpt>
      <trkpt lat="48.79594" lon="2.25466">
        <ele>158</ele>
        <time>2020-12-05T15:33:51.095Z</time>
      </trkpt>
      <trkpt lat="48.79593" lon="2.25467">
        <ele>159</ele>
        <time>2020-12-05T15:33:52.094Z</time>
      </trkpt>
      <trkpt lat="48.79592" lon="2.25466">
        <ele>160</ele>
        <time>2020-12-05T15:33:53.094Z</time>
      </trkpt>
      <trkpt lat="48.79591" lon="2.25465">
        <ele>161</ele>
        <time>2020-12-05T15:33:54.094Z</time>
      </trkpt>
      <trkpt lat="48.7959" lon="2.25465">
        <ele>161</ele>
        <time>2020-12-05T15:33:55.095Z</time>
      </trkpt>
      <trkpt lat="48.7959" lon="2.25464">
        <ele>162</ele>
        <time>2020-12-05T15:33:56.095Z</time>
      </trkpt>
      <trkpt lat="48.7959" lon="2.25463">
        <ele>162</ele>
        <time>2020-12-05T15:33:57.095Z</time>
      </trkpt>
      <trkpt lat="48.79591" lon="2.25462">
        <ele>162</ele>
        <time>2020-12-05T15:33:58.095Z</time>
      </trkpt>
      <trkpt lat="48.79591" lon="2.25461">
        <ele>163</ele>
        <time>2020-12-05T15:33:59.095Z</time>
      </trkpt>
      <trkpt lat="48.79591" lon="2.2546">
        <ele>163</ele>
        <time>2020-12-05T15:34:00.095Z</time>
      </trkpt>
      <trkpt lat="48.7959" lon="2.25458">
        <ele>163</ele>
        <time>2020-12-05T15:34:01.094Z</time>
      </trkpt>
      <trkpt lat="48.7959" lon="2.25457">
        <ele>163</ele>
        <time>2020-12-05T15:34:02.094Z</time>
      </trkpt>
      <trkpt lat="48.7959" lon="2.25456">
        <ele>163</ele>
        <time>2020-12-05T15:34:03.095Z</time>
      </trkpt>
      <trkpt lat="48.79589" lon="2.25455">
        <ele>162</ele>
        <time>2020-12-05T15:34:04.094Z</time>
      </trkpt>
      <trkpt lat="48.79589" lon="2.25454">
        <ele>162</ele>
        <time>2020-12-05T15:34:05.095Z</time>
      </trkpt>
      <trkpt lat="48.79589" lon="2.25454">
        <ele>161</ele>
        <time>2020-12-05T15:34:06.095Z</time>
      </trkpt>
      <trkpt lat="48.79588" lon="2.25453">
        <ele>161</ele>
        <time>2020-12-05T15:34:07.095Z</time>
      </trkpt>
      <trkpt lat="48.79589" lon="2.25453">
        <ele>160</ele>
        <time>2020-12-05T15:34:08.095Z</time>
      </trkpt>
      <trkpt lat="48.7959" lon="2.25453">
        <ele>160</ele>
        <time>2020-12-05T15:34:09.094Z</time>
      </trkpt>
      <trkpt lat="48.7959" lon="2.25453">
        <ele>159</ele>
        <time>2020-12-05T15:34:10.094Z</time>
      </trkpt>
      <trkpt lat="48.7959" lon="2.25453">
        <ele>158</ele>
        <time>2020-12-05T15:34:11.095Z</time>
      </trkpt>
      <trkpt lat="48.7959" lon="2.25454">
        <ele>158</ele>
        <time>2020-12-05T15:34:12.094Z</time>
      </trkpt>
      <trkpt lat="48.7959" lon="2.25454">
        <ele>157</ele>
        <time>2020-12-05T15:34:13.095Z</time>
      </trkpt>
      <trkpt lat="48.7959" lon="2.25454">
        <ele>157</ele>
        <time>2020-12-05T15:34:14.095Z</time>
      </trkpt>
      <trkpt lat="48.7959" lon="2.25454">
        <ele>157</ele>
        <time>2020-12-05T15:34:15.094Z</time>
      </trkpt>
      <trkpt lat="48.7959" lon="2.25454">
        <ele>157</ele>
        <time>2020-12-05T15:34:16.095Z</time>
      </trkpt>
      <trkpt lat="48.7959" lon="2.25454">
        <ele>156</ele>
        <time>2020-12-05T15:34:17.095Z</time>
      </trkpt>
      <trkpt lat="48.79589" lon="2.25454">
        <ele>156</ele>
        <time>2020-12-05T15:34:18.095Z</time>
      </trkpt>
      <trkpt lat="48.79589" lon="2.25454">
        <ele>157</ele>
        <time>2020-12-05T15:34:19.094Z</time>
      </trkpt>
      <trkpt lat="48.79589" lon="2.25454">
        <ele>157</ele>
        <time>2020-12-05T15:34:20.094Z</time>
      </trkpt>
      <trkpt lat="48.79589" lon="2.25453">
        <ele>157</ele>
        <time>2020-12-05T15:34:21.095Z</time>
      </trkpt>
      <trkpt lat="48.79589" lon="2.25454">
        <ele>158</ele>
        <time>2020-12-05T15:34:22.095Z</time>
      </trkpt>
      <trkpt lat="48.79588" lon="2.25453">
        <ele>159</ele>
        <time>2020-12-05T15:34:23.095Z</time>
      </trkpt>
      <trkpt lat="48.79588" lon="2.25453">
        <ele>159</ele>
        <time>2020-12-05T15:34:24.094Z</time>
      </trkpt>
      <trkpt lat="48.79587" lon="2.25454">
        <ele>160</ele>
        <time>2020-12-05T15:34:25.095Z</time>
      </trkpt>
      <trkpt lat="48.79587" lon="2.25455">
        <ele>161</ele>
        <time>2020-12-05T15:34:26.095Z</time>
      </trkpt>
      <trkpt lat="48.79586" lon="2.25456">
        <ele>161</ele>
        <time>2020-12-05T15:34:27.095Z</time>
      </trkpt>
      <trkpt lat="48.79586" lon="2.25456">
        <ele>162</ele>
        <time>2020-12-05T15:34:28.095Z</time>
      </trkpt>
      <trkpt lat="48.79587" lon="2.25456">
        <ele>162</ele>
        <time>2020-12-05T15:34:29.095Z</time>
      </trkpt>
      <trkpt lat="48.79589" lon="2.25456">
        <ele>162</ele>
        <time>2020-12-05T15:34:30.095Z</time>
      </trkpt>
      <trkpt lat="48.7959" lon="2.25455">
        <ele>162</ele>
        <time>2020-12-05T15:34:31.094Z</time>
      </trkpt>
      <trkpt lat="48.79591" lon="2.25455">
        <ele>162</ele>
        <time>2020-12-05T15:34:32.095Z</time>
      </trkpt>
      <trkpt lat="48.79592" lon="2.25456">
        <ele>161</ele>
        <time>2020-12-05T15:34:33.095Z</time>
      </trkpt>
      <trkpt lat="48.79592" lon="2.25456">
        <ele>161</ele>
        <time>2020-12-05T15:34:34.095Z</time>
      </trkpt>
      <trkpt lat="48.79593" lon="2.25457">
        <ele>161</ele>
        <time>2020-12-05T15:34:35.094Z</time>
      </trkpt>
      <trkpt lat="48.79594" lon="2.25458">
        <ele>161</ele>
        <time>2020-12-05T15:34:36.095Z</time>
      </trkpt>
      <trkpt lat="48.79595" lon="2.25459">
        <ele>161</ele>
        <time>2020-12-05T15:34:37.094Z</time>
      </trkpt>
      <trkpt lat="48.79596" lon="2.2546">
        <ele>161</ele>
        <time>2020-12-05T15:34:38.095Z</time>
      </trkpt>
      <trkpt lat="48.79598" lon="2.25461">
        <ele>160</ele>
        <time>2020-12-05T15:34:39.094Z</time>
      </trkpt>
      <trkpt lat="48.79599" lon="2.25463">
        <ele>160</ele>
        <time>2020-12-05T15:34:40.095Z</time>
      </trkpt>
      <trkpt lat="48.796" lon="2.25464">
        <ele>160</ele>
        <time>2020-12-05T15:34:41.094Z</time>
      </trkpt>
      <trkpt lat="48.79601" lon="2.25465">
        <ele>160</ele>
        <time>2020-12-05T15:34:42.095Z</time>
      </trkpt>
      <trkpt lat="48.79603" lon="2.25467">
        <ele>160</ele>
        <time>2020-12-05T15:34:43.095Z</time>
      </trkpt>
      <trkpt lat="48.79604" lon="2.25468">
        <ele>160</ele>
        <time>2020-12-05T15:34:44.094Z</time>
      </trkpt>
      <trkpt lat="48.79606" lon="2.25469">
        <ele>161</ele>
        <time>2020-12-05T15:34:45.095Z</time>
      </trkpt>
      <trkpt lat="48.79608" lon="2.25469">
        <ele>161</ele>
        <time>2020-12-05T15:34:46.094Z</time>
      </trkpt>
      <trkpt lat="48.7961" lon="2.2547">
        <ele>162</ele>
        <time>2020-12-05T15:34:47.095Z</time>
      </trkpt>
      <trkpt lat="48.79611" lon="2.25469">
        <ele>162</ele>
        <time>2020-12-05T15:34:48.095Z</time>
      </trkpt>
      <trkpt lat="48.79612" lon="2.25469">
        <ele>163</ele>
        <time>2020-12-05T15:34:49.095Z</time>
      </trkpt>
      <trkpt lat="48.79613" lon="2.25469">
        <ele>163</ele>
        <time>2020-12-05T15:34:50.095Z</time>
      </trkpt>
      <trkpt lat="48.79614" lon="2.25468">
        <ele>164</ele>
        <time>2020-12-05T15:34:51.095Z</time>
      </trkpt>
      <trkpt lat="48.79616" lon="2.25468">
        <ele>164</ele>
        <time>2020-12-05T15:34:52.095Z</time>
      </trkpt>
      <trkpt lat="48.79618" lon="2.25468">
        <ele>164</ele>
        <time>2020-12-05T15:34:53.095Z</time>
      </trkpt>
      <trkpt lat="48.79619" lon="2.25468">
        <ele>165</ele>
        <time>2020-12-05T15:34:54.095Z</time>
      </trkpt>
      <trkpt lat="48.7962" lon="2.25468">
        <ele>165</ele>
        <time>2020-12-05T15:34:55.095Z</time>
      </trkpt>
      <trkpt lat="48.79621" lon="2.25467">
        <ele>165</ele>
        <time>2020-12-05T15:34:56.094Z</time>
      </trkpt>
      <trkpt lat="48.79622" lon="2.25466">
        <ele>165</ele>
        <time>2020-12-05T15:34:57.095Z</time>
      </trkpt>
      <trkpt lat="48.79623" lon="2.25465">
        <ele>165</ele>
        <time>2020-12-05T15:34:58.094Z</time>
      </trkpt>
      <trkpt lat="48.79623" lon="2.25463">
        <ele>165</ele>
        <time>2020-12-05T15:34:59.095Z</time>
      </trkpt>
      <trkpt lat="48.79624" lon="2.25462">
        <ele>165</ele>
        <time>2020-12-05T15:35:00.095Z</time>
      </trkpt>
      <trkpt lat="48.79625" lon="2.2546">
        <ele>165</ele>
        <time>2020-12-05T15:35:01.095Z</time>
      </trkpt>
      <trkpt lat="48.79626" lon="2.25459">
        <ele>164</ele>
        <time>2020-12-05T15:35:02.095Z</time>
      </trkpt>
      <trkpt lat="48.79627" lon="2.25457">
        <ele>164</ele>
        <time>2020-12-05T15:35:03.095Z</time>
      </trkpt>
      <trkpt lat="48.79627" lon="2.25456">
        <ele>164</ele>
        <time>2020-12-05T15:35:04.095Z</time>
      </trkpt>
      <trkpt lat="48.79628" lon="2.25455">
        <ele>164</ele>
        <time>2020-12-05T15:35:05.094Z</time>
      </trkpt>
      <trkpt lat="48.79628" lon="2.25453">
        <ele>164</ele>
        <time>2020-12-05T15:35:06.095Z</time>
      </trkpt>
      <trkpt lat="48.79629" lon="2.25453">
        <ele>164</ele>
        <time>2020-12-05T15:35:07.094Z</time>
      </trkpt>
      <trkpt lat="48.7963" lon="2.25452">
        <ele>164</ele>
        <time>2020-12-05T15:35:08.094Z</time>
      </trkpt>
      <trkpt lat="48.79632" lon="2.2545">
        <ele>163</ele>
        <time>2020-12-05T15:35:09.094Z</time>
      </trkpt>
      <trkpt lat="48.79633" lon="2.25449">
        <ele>163</ele>
        <time>2020-12-05T15:35:10.094Z</time>
      </trkpt>
      <trkpt lat="48.79634" lon="2.25447">
        <ele>163</ele>
        <time>2020-12-05T15:35:11.095Z</time>
      </trkpt>
      <trkpt lat="48.79634" lon="2.25446">
        <ele>162</ele>
        <time>2020-12-05T15:35:12.095Z</time>
      </trkpt>
      <trkpt lat="48.79635" lon="2.25445">
        <ele>162</ele>
        <time>2020-12-05T15:35:13.094Z</time>
      </trkpt>
      <trkpt lat="48.79635" lon="2.25444">
        <ele>161</ele>
        <time>2020-12-05T15:35:14.095Z</time>
      </trkpt>
      <trkpt lat="48.79636" lon="2.25444">
        <ele>161</ele>
        <time>2020-12-05T15:35:15.095Z</time>
      </trkpt>
      <trkpt lat="48.79638" lon="2.25443">
        <ele>160</ele>
        <time>2020-12-05T15:35:16.095Z</time>
      </trkpt>
      <trkpt lat="48.79639" lon="2.25442">
        <ele>160</ele>
        <time>2020-12-05T15:35:17.095Z</time>
      </trkpt>
      <trkpt lat="48.7964" lon="2.25441">
        <ele>160</ele>
        <time>2020-12-05T15:35:18.095Z</time>
      </trkpt>
      <trkpt lat="48.79642" lon="2.2544">
        <ele>160</ele>
        <time>2020-12-05T15:35:19.095Z</time>
      </trkpt>
      <trkpt lat="48.79643" lon="2.25438">
        <ele>160</ele>
        <time>2020-12-05T15:35:20.095Z</time>
      </trkpt>
      <trkpt lat="48.79643" lon="2.25437">
        <ele>159</ele>
        <time>2020-12-05T15:35:21.094Z</time>
      </trkpt>
      <trkpt lat="48.79644" lon="2.25435">
        <ele>159</ele>
        <time>2020-12-05T15:35:22.095Z</time>
      </trkpt>
      <trkpt lat="48.79645" lon="2.25433">
        <ele>159</ele>
        <time>2020-12-05T15:35:23.094Z</time>
      </trkpt>
      <trkpt lat="48.79646" lon="2.25432">
        <ele>159</ele>
        <time>2020-12-05T15:35:24.095Z</time>
      </trkpt>
      <trkpt lat="48.79647" lon="2.2543">
        <ele>159</ele>
        <time>2020-12-05T15:35:25.095Z</time>
      </trkpt>
      <trkpt lat="48.79648" lon="2.25429">
        <ele>159</ele>
        <time>2020-12-05T15:35:26.095Z</time>
      </trkpt>
      <trkpt lat="48.79649" lon="2.25427">
        <ele>159</ele>
        <time>2020-12-05T15:35:27.095Z</time>
      </trkpt>
      <trkpt lat="48.7965" lon="2.25426">
        <ele>159</ele>
        <time>2020-12-05T15:35:28.095Z</time>
      </trkpt>
      <trkpt lat="48.79651" lon="2.25424">
        <ele>159</ele>
        <time>2020-12-05T15:35:29.095Z</time>
      </trkpt>
      <trkpt lat="48.79652" lon="2.25423">
        <ele>159</ele>
        <time>2020-12-05T15:35:30.094Z</time>
      </trkpt>
      <trkpt lat="48.79653" lon="2.25422">
        <ele>159</ele>
        <time>2020-12-05T15:35:31.095Z</time>
      </trkpt>
      <trkpt lat="48.79653" lon="2.25421">
        <ele>159</ele>
        <time>2020-12-05T15:35:32.095Z</time>
      </trkpt>
      <trkpt lat="48.79654" lon="2.25419">
        <ele>160</ele>
        <time>2020-12-05T15:35:33.095Z</time>
      </trkpt>
      <trkpt lat="48.79655" lon="2.25417">
        <ele>160</ele>
        <time>2020-12-05T15:35:34.095Z</time>
      </trkpt>
      <trkpt lat="48.79656" lon="2.25416">
        <ele>160</ele>
        <time>2020-12-05T15:35:35.095Z</time>
      </trkpt>
      <trkpt lat="48.79658" lon="2.25414">
        <ele>160</ele>
        <time>2020-12-05T15:35:36.095Z</time>
      </trkpt>
      <trkpt lat="48.79659" lon="2.25412">
        <ele>160</ele>
        <time>2020-12-05T15:35:37.095Z</time>
      </trkpt>
      <trkpt lat="48.7966" lon="2.25409">
        <ele>160</ele>
        <time>2020-12-05T15:35:38.095Z</time>
      </trkpt>
      <trkpt lat="48.7966" lon="2.25407">
        <ele>160</ele>
        <time>2020-12-05T15:35:39.095Z</time>
      </trkpt>
      <trkpt lat="48.7966" lon="2.25405">
        <ele>160</ele>
        <time>2020-12-05T15:35:40.094Z</time>
      </trkpt>
      <trkpt lat="48.7966" lon="2.25403">
        <ele>160</ele>
        <time>2020-12-05T15:35:41.095Z</time>
      </trkpt>
      <trkpt lat="48.79661" lon="2.25401">
        <ele>160</ele>
        <time>2020-12-05T15:35:42.095Z</time>
      </trkpt>
      <trkpt lat="48.79662" lon="2.25399">
        <ele>161</ele>
        <time>2020-12-05T15:35:43.095Z</time>
      </trkpt>
      <trkpt lat="48.79664" lon="2.25397">
        <ele>161</ele>
        <time>2020-12-05T15:35:44.095Z</time>
      </trkpt>
      <trkpt lat="48.79666" lon="2.25396">
        <ele>161</ele>
        <time>2020-12-05T15:35:45.094Z</time>
      </trkpt>
      <trkpt lat="48.79668" lon="2.25394">
        <ele>161</ele>
        <time>2020-12-05T15:35:46.094Z</time>
      </trkpt>
      <trkpt lat="48.79668" lon="2.25393">
        <ele>161</ele>
        <time>2020-12-05T15:35:47.095Z</time>
      </trkpt>
      <trkpt lat="48.79669" lon="2.25392">
        <ele>161</ele>
        <time>2020-12-05T15:35:48.095Z</time>
      </trkpt>
      <trkpt lat="48.7967" lon="2.25391">
        <ele>161</ele>
        <time>2020-12-05T15:35:49.095Z</time>
      </trkpt>
      <trkpt lat="48.79671" lon="2.25389">
        <ele>161</ele>
        <time>2020-12-05T15:35:50.095Z</time>
      </trkpt>
      <trkpt lat="48.79672" lon="2.25388">
        <ele>161</ele>
        <time>2020-12-05T15:35:51.095Z</time>
      </trkpt>
      <trkpt lat="48.79672" lon="2.25387">
        <ele>162</ele>
        <time>2020-12-05T15:35:52.095Z</time>
      </trkpt>
      <trkpt lat="48.79673" lon="2.25386">
        <ele>162</ele>
        <time>2020-12-05T15:35:53.095Z</time>
      </trkpt>
      <trkpt lat="48.79674" lon="2.25385">
        <ele>162</ele>
        <time>2020-12-05T15:35:54.095Z</time>
      </trkpt>
      <trkpt lat="48.79676" lon="2.25383">
        <ele>162</ele>
        <time>2020-12-05T15:35:55.094Z</time>
      </trkpt>
      <trkpt lat="48.79677" lon="2.25382">
        <ele>162</ele>
        <time>2020-12-05T15:35:56.095Z</time>
      </trkpt>
      <trkpt lat="48.79678" lon="2.25381">
        <ele>162</ele>
        <time>2020-12-05T15:35:57.094Z</time>
      </trkpt>
      <trkpt lat="48.79679" lon="2.2538">
        <ele>163</ele>
        <time>2020-12-05T15:35:58.095Z</time>
      </trkpt>
      <trkpt lat="48.7968" lon="2.25378">
        <ele>163</ele>
        <time>2020-12-05T15:35:59.095Z</time>
      </trkpt>
      <trkpt lat="48.7968" lon="2.25376">
        <ele>163</ele>
        <time>2020-12-05T15:36:00.095Z</time>
      </trkpt>
      <trkpt lat="48.79681" lon="2.25374">
        <ele>163</ele>
        <time>2020-12-05T15:36:01.095Z</time>
      </trkpt>
      <trkpt lat="48.79682" lon="2.25373">
        <ele>163</ele>
        <time>2020-12-05T15:36:02.094Z</time>
      </trkpt>
      <trkpt lat="48.79683" lon="2.25372">
        <ele>163</ele>
        <time>2020-12-05T15:36:03.095Z</time>
      </trkpt>
      <trkpt lat="48.79685" lon="2.25371">
        <ele>163</ele>
        <time>2020-12-05T15:36:04.094Z</time>
      </trkpt>
      <trkpt lat="48.79687" lon="2.25369">
        <ele>164</ele>
        <time>2020-12-05T15:36:05.095Z</time>
      </trkpt>
      <trkpt lat="48.79689" lon="2.25367">
        <ele>164</ele>
        <time>2020-12-05T15:36:06.094Z</time>
      </trkpt>
      <trkpt lat="48.79689" lon="2.25365">
        <ele>164</ele>
        <time>2020-12-05T15:36:07.095Z</time>
      </trkpt>
      <trkpt lat="48.7969" lon="2.25363">
        <ele>164</ele>
        <time>2020-12-05T15:36:08.094Z</time>
      </trkpt>
      <trkpt lat="48.79692" lon="2.2536">
        <ele>164</ele>
        <time>2020-12-05T15:36:09.095Z</time>
      </trkpt>
      <trkpt lat="48.79693" lon="2.25359">
        <ele>164</ele>
        <time>2020-12-05T15:36:10.094Z</time>
      </trkpt>
      <trkpt lat="48.79693" lon="2.25357">
        <ele>164</ele>
        <time>2020-12-05T15:36:11.095Z</time>
      </trkpt>
      <trkpt lat="48.79695" lon="2.25356">
        <ele>164</ele>
        <time>2020-12-05T15:36:12.095Z</time>
      </trkpt>
      <trkpt lat="48.79695" lon="2.25354">
        <ele>164</ele>
        <time>2020-12-05T15:36:13.095Z</time>
      </trkpt>
      <trkpt lat="48.79695" lon="2.25353">
        <ele>164</ele>
        <time>2020-12-05T15:36:14.094Z</time>
      </trkpt>
      <trkpt lat="48.79695" lon="2.25352">
        <ele>164</ele>
        <time>2020-12-05T15:36:15.094Z</time>
      </trkpt>
      <trkpt lat="48.79696" lon="2.2535">
        <ele>164</ele>
        <time>2020-12-05T15:36:16.095Z</time>
      </trkpt>
      <trkpt lat="48.79697" lon="2.25348">
        <ele>164</ele>
        <time>2020-12-05T15:36:17.095Z</time>
      </trkpt>
      <trkpt lat="48.79698" lon="2.25347">
        <ele>164</ele>
        <time>2020-12-05T15:36:18.095Z</time>
      </trkpt>
      <trkpt lat="48.79699" lon="2.25346">
        <ele>165</ele>
        <time>2020-12-05T15:36:19.095Z</time>
      </trkpt>
      <trkpt lat="48.797" lon="2.25345">
        <ele>165</ele>
        <time>2020-12-05T15:36:20.094Z</time>
      </trkpt>
      <trkpt lat="48.79701" lon="2.25344">
        <ele>165</ele>
        <time>2020-12-05T15:36:21.095Z</time>
      </trkpt>
      <trkpt lat="48.79702" lon="2.25341">
        <ele>166</ele>
        <time>2020-12-05T15:36:22.095Z</time>
      </trkpt>
      <trkpt lat="48.79703" lon="2.2534">
        <ele>166</ele>
        <time>2020-12-05T15:36:23.094Z</time>
      </trkpt>
      <trkpt lat="48.79703" lon="2.25339">
        <ele>166</ele>
        <time>2020-12-05T15:36:24.095Z</time>
      </trkpt>
      <trkpt lat="48.79704" lon="2.25338">
        <ele>167</ele>
        <time>2020-12-05T15:36:25.095Z</time>
      </trkpt>
      <trkpt lat="48.79706" lon="2.25338">
        <ele>167</ele>
        <time>2020-12-05T15:36:26.094Z</time>
      </trkpt>
      <trkpt lat="48.79708" lon="2.25337">
        <ele>167</ele>
        <time>2020-12-05T15:36:27.095Z</time>
      </trkpt>
      <trkpt lat="48.79709" lon="2.25336">
        <ele>167</ele>
        <time>2020-12-05T15:36:28.094Z</time>
      </trkpt>
      <trkpt lat="48.79711" lon="2.25334">
        <ele>167</ele>
        <time>2020-12-05T15:36:29.095Z</time>
      </trkpt>
      <trkpt lat="48.79712" lon="2.25332">
        <ele>167</ele>
        <time>2020-12-05T15:36:30.095Z</time>
      </trkpt>
      <trkpt lat="48.79713" lon="2.25329">
        <ele>167</ele>
        <time>2020-12-05T15:36:31.095Z</time>
      </trkpt>
      <trkpt lat="48.79714" lon="2.25328">
        <ele>167</ele>
        <time>2020-12-05T15:36:32.095Z</time>
      </trkpt>
      <trkpt lat="48.79714" lon="2.25326">
        <ele>167</ele>
        <time>2020-12-05T15:36:33.095Z</time>
      </trkpt>
      <trkpt lat="48.79715" lon="2.25324">
        <ele>167</ele>
        <time>2020-12-05T15:36:34.095Z</time>
      </trkpt>
      <trkpt lat="48.79716" lon="2.25323">
        <ele>167</ele>
        <time>2020-12-05T15:36:35.095Z</time>
      </trkpt>
      <trkpt lat="48.79718" lon="2.25323">
        <ele>168</ele>
        <time>2020-12-05T15:36:36.094Z</time>
      </trkpt>
      <trkpt lat="48.79719" lon="2.25321">
        <ele>168</ele>
        <time>2020-12-05T15:36:37.094Z</time>
      </trkpt>
      <trkpt lat="48.79721" lon="2.2532">
        <ele>168</ele>
        <time>2020-12-05T15:36:38.095Z</time>
      </trkpt>
      <trkpt lat="48.79722" lon="2.25319">
        <ele>168</ele>
        <time>2020-12-05T15:36:39.095Z</time>
      </trkpt>
      <trkpt lat="48.79723" lon="2.25317">
        <ele>168</ele>
        <time>2020-12-05T15:36:40.094Z</time>
      </trkpt>
      <trkpt lat="48.79724" lon="2.25315">
        <ele>168</ele>
        <time>2020-12-05T15:36:41.095Z</time>
      </trkpt>
      <trkpt lat="48.79725" lon="2.25314">
        <ele>167</ele>
        <time>2020-12-05T15:36:42.094Z</time>
      </trkpt>
      <trkpt lat="48.79726" lon="2.25313">
        <ele>167</ele>
        <time>2020-12-05T15:36:43.095Z</time>
      </trkpt>
      <trkpt lat="48.79727" lon="2.25312">
        <ele>167</ele>
        <time>2020-12-05T15:36:44.094Z</time>
      </trkpt>
      <trkpt lat="48.79728" lon="2.25311">
        <ele>166</ele>
        <time>2020-12-05T15:36:45.095Z</time>
      </trkpt>
      <trkpt lat="48.79729" lon="2.2531">
        <ele>166</ele>
        <time>2020-12-05T15:36:46.095Z</time>
      </trkpt>
      <trkpt lat="48.79729" lon="2.25309">
        <ele>166</ele>
        <time>2020-12-05T15:36:47.094Z</time>
      </trkpt>
      <trkpt lat="48.79729" lon="2.25308">
        <ele>166</ele>
        <time>2020-12-05T15:36:48.095Z</time>
      </trkpt>
      <trkpt lat="48.79729" lon="2.25307">
        <ele>166</ele>
        <time>2020-12-05T15:36:49.095Z</time>
      </trkpt>
      <trkpt lat="48.7973" lon="2.25306">
        <ele>166</ele>
        <time>2020-12-05T15:36:50.095Z</time>
      </trkpt>
      <trkpt lat="48.7973" lon="2.25306">
        <ele>166</ele>
        <time>2020-12-05T15:36:51.095Z</time>
      </trkpt>
      <trkpt lat="48.79731" lon="2.25307">
        <ele>165</ele>
        <time>2020-12-05T15:36:52.095Z</time>
      </trkpt>
      <trkpt lat="48.79731" lon="2.25307">
        <ele>165</ele>
        <time>2020-12-05T15:36:53.095Z</time>
      </trkpt>
      <trkpt lat="48.79732" lon="2.25308">
        <ele>165</ele>
        <time>2020-12-05T15:36:54.095Z</time>
      </trkpt>
      <trkpt lat="48.79732" lon="2.25308">
        <ele>164</ele>
        <time>2020-12-05T15:36:55.095Z</time>
      </trkpt>
      <trkpt lat="48.79733" lon="2.25308">
        <ele>164</ele>
        <time>2020-12-05T15:36:56.095Z</time>
      </trkpt>
      <trkpt lat="48.79733" lon="2.25307">
        <ele>163</ele>
        <time>2020-12-05T15:36:57.095Z</time>
      </trkpt>
      <trkpt lat="48.79733" lon="2.25305">
        <ele>163</ele>
        <time>2020-12-05T15:36:58.095Z</time>
      </trkpt>
      <trkpt lat="48.79734" lon="2.25304">
        <ele>163</ele>
        <time>2020-12-05T15:36:59.094Z</time>
      </trkpt>
      <trkpt lat="48.79735" lon="2.25303">
        <ele>162</ele>
        <time>2020-12-05T15:37:00.095Z</time>
      </trkpt>
      <trkpt lat="48.79735" lon="2.25302">
        <ele>162</ele>
        <time>2020-12-05T15:37:01.094Z</time>
      </trkpt>
      <trkpt lat="48.79736" lon="2.25301">
        <ele>162</ele>
        <time>2020-12-05T15:37:02.095Z</time>
      </trkpt>
      <trkpt lat="48.79736" lon="2.25301">
        <ele>162</ele>
        <time>2020-12-05T15:37:03.095Z</time>
      </trkpt>
      <trkpt lat="48.79737" lon="2.253">
        <ele>162</ele>
        <time>2020-12-05T15:37:04.095Z</time>
      </trkpt>
      <trkpt lat="48.79738" lon="2.253">
        <ele>161</ele>
        <time>2020-12-05T15:37:05.095Z</time>
      </trkpt>
      <trkpt lat="48.79738" lon="2.25299">
        <ele>161</ele>
        <time>2020-12-05T15:37:06.095Z</time>
      </trkpt>
      <trkpt lat="48.79739" lon="2.25298">
        <ele>161</ele>
        <time>2020-12-05T15:37:07.094Z</time>
      </trkpt>
      <trkpt lat="48.79739" lon="2.25296">
        <ele>161</ele>
        <time>2020-12-05T15:37:08.095Z</time>
      </trkpt>
      <trkpt lat="48.79739" lon="2.25295">
        <ele>161</ele>
        <time>2020-12-05T15:37:09.094Z</time>
      </trkpt>
      <trkpt lat="48.7974" lon="2.25294">
        <ele>161</ele>
        <time>2020-12-05T15:37:10.095Z</time>
      </trkpt>
      <trkpt lat="48.79741" lon="2.25293">
        <ele>161</ele>
        <time>2020-12-05T15:37:11.094Z</time>
      </trkpt>
      <trkpt lat="48.79742" lon="2.25292">
        <ele>161</ele>
        <time>2020-12-05T15:37:12.095Z</time>
      </trkpt>
      <trkpt lat="48.79743" lon="2.25292">
        <ele>161</ele>
        <time>2020-12-05T15:37:13.094Z</time>
      </trkpt>
      <trkpt lat="48.79742" lon="2.25292">
        <ele>161</ele>
        <time>2020-12-05T15:37:14.095Z</time>
      </trkpt>
      <trkpt lat="48.79743" lon="2.25292">
        <ele>161</ele>
        <time>2020-12-05T15:37:15.095Z</time>
      </trkpt>
      <trkpt lat="48.79744" lon="2.25292">
        <ele>162</ele>
        <time>2020-12-05T15:37:16.095Z</time>
      </trkpt>
      <trkpt lat="48.79746" lon="2.25291">
        <ele>162</ele>
        <time>2020-12-05T15:37:17.095Z</time>
      </trkpt>
      <trkpt lat="48.79747" lon="2.25291">
        <ele>162</ele>
        <time>2020-12-05T15:37:18.095Z</time>
      </trkpt>
      <trkpt lat="48.79748" lon="2.25291">
        <ele>163</ele>
        <time>2020-12-05T15:37:19.095Z</time>
      </trkpt>
      <trkpt lat="48.79749" lon="2.25291">
        <ele>164</ele>
        <time>2020-12-05T15:37:20.095Z</time>
      </trkpt>
      <trkpt lat="48.79749" lon="2.25291">
        <ele>164</ele>
        <time>2020-12-05T15:37:21.095Z</time>
      </trkpt>
      <trkpt lat="48.7975" lon="2.25291">
        <ele>165</ele>
        <time>2020-12-05T15:37:22.095Z</time>
      </trkpt>
      <trkpt lat="48.79751" lon="2.25291">
        <ele>165</ele>
        <time>2020-12-05T15:37:23.094Z</time>
      </trkpt>
      <trkpt lat="48.79752" lon="2.25291">
        <ele>166</ele>
        <time>2020-12-05T15:37:24.094Z</time>
      </trkpt>
      <trkpt lat="48.79753" lon="2.25292">
        <ele>167</ele>
        <time>2020-12-05T15:37:25.095Z</time>
      </trkpt>
      <trkpt lat="48.79754" lon="2.25292">
        <ele>167</ele>
        <time>2020-12-05T15:37:26.094Z</time>
      </trkpt>
      <trkpt lat="48.79754" lon="2.25293">
        <ele>168</ele>
        <time>2020-12-05T15:37:27.095Z</time>
      </trkpt>
      <trkpt lat="48.79755" lon="2.25293">
        <ele>168</ele>
        <time>2020-12-05T15:37:28.095Z</time>
      </trkpt>
      <trkpt lat="48.79755" lon="2.25293">
        <ele>169</ele>
        <time>2020-12-05T15:37:29.095Z</time>
      </trkpt>
      <trkpt lat="48.79755" lon="2.25294">
        <ele>170</ele>
        <time>2020-12-05T15:37:30.095Z</time>
      </trkpt>
      <trkpt lat="48.79755" lon="2.25294">
        <ele>170</ele>
        <time>2020-12-05T15:37:31.095Z</time>
      </trkpt>
      <trkpt lat="48.79755" lon="2.25294">
        <ele>171</ele>
        <time>2020-12-05T15:37:32.095Z</time>
      </trkpt>
      <trkpt lat="48.79755" lon="2.25293">
        <ele>172</ele>
        <time>2020-12-05T15:37:33.095Z</time>
      </trkpt>
      <trkpt lat="48.79755" lon="2.25293">
        <ele>172</ele>
        <time>2020-12-05T15:37:34.095Z</time>
      </trkpt>
      <trkpt lat="48.79754" lon="2.25292">
        <ele>173</ele>
        <time>2020-12-05T15:37:35.095Z</time>
      </trkpt>
      <trkpt lat="48.79755" lon="2.25293">
        <ele>174</ele>
        <time>2020-12-05T15:37:36.095Z</time>
      </trkpt>
      <trkpt lat="48.79756" lon="2.25294">
        <ele>175</ele>
        <time>2020-12-05T15:37:37.095Z</time>
      </trkpt>
      <trkpt lat="48.79756" lon="2.25296">
        <ele>175</ele>
        <time>2020-12-05T15:37:38.095Z</time>
      </trkpt>
      <trkpt lat="48.79757" lon="2.25297">
        <ele>175</ele>
        <time>2020-12-05T15:37:39.095Z</time>
      </trkpt>
      <trkpt lat="48.79758" lon="2.25298">
        <ele>176</ele>
        <time>2020-12-05T15:37:40.095Z</time>
      </trkpt>
      <trkpt lat="48.79759" lon="2.25299">
        <ele>176</ele>
        <time>2020-12-05T15:37:41.094Z</time>
      </trkpt>
      <trkpt lat="48.79761" lon="2.253">
        <ele>177</ele>
        <time>2020-12-05T15:37:42.095Z</time>
      </trkpt>
      <trkpt lat="48.79763" lon="2.25301">
        <ele>177</ele>
        <time>2020-12-05T15:37:43.095Z</time>
      </trkpt>
      <trkpt lat="48.79766" lon="2.25301">
        <ele>177</ele>
        <time>2020-12-05T15:37:44.095Z</time>
      </trkpt>
      <trkpt lat="48.79767" lon="2.25302">
        <ele>178</ele>
        <time>2020-12-05T15:37:45.095Z</time>
      </trkpt>
      <trkpt lat="48.7977" lon="2.25304">
        <ele>178</ele>
        <time>2020-12-05T15:37:46.094Z</time>
      </trkpt>
      <trkpt lat="48.79772" lon="2.25306">
        <ele>179</ele>
        <time>2020-12-05T15:37:47.095Z</time>
      </trkpt>
      <trkpt lat="48.79774" lon="2.25306">
        <ele>179</ele>
        <time>2020-12-05T15:37:48.094Z</time>
      </trkpt>
      <trkpt lat="48.79776" lon="2.25307">
        <ele>179</ele>
        <time>2020-12-05T15:37:49.095Z</time>
      </trkpt>
      <trkpt lat="48.79778" lon="2.25309">
        <ele>180</ele>
        <time>2020-12-05T15:37:50.094Z</time>
      </trkpt>
      <trkpt lat="48.7978" lon="2.2531">
        <ele>180</ele>
        <time>2020-12-05T15:37:51.095Z</time>
      </trkpt>
      <trkpt lat="48.79782" lon="2.25311">
        <ele>180</ele>
        <time>2020-12-05T15:37:52.095Z</time>
      </trkpt>
      <trkpt lat="48.79783" lon="2.25312">
        <ele>181</ele>
        <time>2020-12-05T15:37:53.095Z</time>
      </trkpt>
      <trkpt lat="48.79784" lon="2.25313">
        <ele>181</ele>
        <time>2020-12-05T15:37:54.095Z</time>
      </trkpt>
      <trkpt lat="48.79784" lon="2.25313">
        <ele>181</ele>
        <time>2020-12-05T15:37:55.095Z</time>
      </trkpt>
      <trkpt lat="48.79783" lon="2.25312">
        <ele>181</ele>
        <time>2020-12-05T15:37:56.095Z</time>
      </trkpt>
      <trkpt lat="48.79783" lon="2.25311">
        <ele>182</ele>
        <time>2020-12-05T15:37:57.095Z</time>
      </trkpt>
      <trkpt lat="48.79782" lon="2.2531">
        <ele>182</ele>
        <time>2020-12-05T15:37:58.095Z</time>
      </trkpt>
      <trkpt lat="48.79781" lon="2.2531">
        <ele>182</ele>
        <time>2020-12-05T15:37:59.095Z</time>
      </trkpt>
      <trkpt lat="48.7978" lon="2.25309">
        <ele>183</ele>
        <time>2020-12-05T15:38:00.095Z</time>
      </trkpt>
      <trkpt lat="48.79779" lon="2.25309">
        <ele>183</ele>
        <time>2020-12-05T15:38:01.095Z</time>
      </trkpt>
      <trkpt lat="48.79778" lon="2.25309">
        <ele>183</ele>
        <time>2020-12-05T15:38:02.094Z</time>
      </trkpt>
      <trkpt lat="48.79777" lon="2.25308">
        <ele>183</ele>
        <time>2020-12-05T15:38:03.095Z</time>
      </trkpt>
      <trkpt lat="48.79776" lon="2.25307">
        <ele>182</ele>
        <time>2020-12-05T15:38:04.094Z</time>
      </trkpt>
      <trkpt lat="48.79776" lon="2.25306">
        <ele>182</ele>
        <time>2020-12-05T15:38:05.095Z</time>
      </trkpt>
      <trkpt lat="48.79775" lon="2.25306">
        <ele>181</ele>
        <time>2020-12-05T15:38:06.094Z</time>
      </trkpt>
      <trkpt lat="48.79775" lon="2.25306">
        <ele>181</ele>
        <time>2020-12-05T15:38:07.095Z</time>
      </trkpt>
      <trkpt lat="48.79775" lon="2.25305">
        <ele>180</ele>
        <time>2020-12-05T15:38:08.094Z</time>
      </trkpt>
      <trkpt lat="48.79775" lon="2.25305">
        <ele>180</ele>
        <time>2020-12-05T15:38:09.095Z</time>
      </trkpt>
      <trkpt lat="48.79774" lon="2.25304">
        <ele>179</ele>
        <time>2020-12-05T15:38:10.094Z</time>
      </trkpt>
      <trkpt lat="48.79773" lon="2.25304">
        <ele>178</ele>
        <time>2020-12-05T15:38:11.094Z</time>
      </trkpt>
      <trkpt lat="48.79772" lon="2.25302">
        <ele>178</ele>
        <time>2020-12-05T15:38:12.095Z</time>
      </trkpt>
      <trkpt lat="48.79772" lon="2.25301">
        <ele>177</ele>
        <time>2020-12-05T15:38:13.095Z</time>
      </trkpt>
      <trkpt lat="48.79773" lon="2.25301">
        <ele>177</ele>
        <time>2020-12-05T15:38:14.095Z</time>
      </trkpt>
      <trkpt lat="48.79773" lon="2.253">
        <ele>177</ele>
        <time>2020-12-05T15:38:15.095Z</time>
      </trkpt>
      <trkpt lat="48.79774" lon="2.25301">
        <ele>176</ele>
        <time>2020-12-05T15:38:16.095Z</time>
      </trkpt>
      <trkpt lat="48.79774" lon="2.25302">
        <ele>176</ele>
        <time>2020-12-05T15:38:17.095Z</time>
      </trkpt>
      <trkpt lat="48.79773" lon="2.25302">
        <ele>176</ele>
        <time>2020-12-05T15:38:18.095Z</time>
      </trkpt>
      <trkpt lat="48.79772" lon="2.25302">
        <ele>175</ele>
        <time>2020-12-05T15:38:19.095Z</time>
      </trkpt>
      <trkpt lat="48.79772" lon="2.25303">
        <ele>175</ele>
        <time>2020-12-05T15:38:20.094Z</time>
      </trkpt>
      <trkpt lat="48.79769" lon="2.25305">
        <ele>175</ele>
        <time>2020-12-05T15:38:21.095Z</time>
      </trkpt>
      <trkpt lat="48.79768" lon="2.25306">
        <ele>175</ele>
        <time>2020-12-05T15:38:22.095Z</time>
      </trkpt>
      <trkpt lat="48.79767" lon="2.25307">
        <ele>175</ele>
        <time>2020-12-05T15:38:23.095Z</time>
      </trkpt>
      <trkpt lat="48.79767" lon="2.25307">
        <ele>175</ele>
        <time>2020-12-05T15:38:24.095Z</time>
      </trkpt>
      <trkpt lat="48.79767" lon="2.25307">
        <ele>174</ele>
        <time>2020-12-05T15:38:25.095Z</time>
      </trkpt>
      <trkpt lat="48.79766" lon="2.25307">
        <ele>174</ele>
        <time>2020-12-05T15:38:26.095Z</time>
      </trkpt>
      <trkpt lat="48.79766" lon="2.25307">
        <ele>174</ele>
        <time>2020-12-05T15:38:27.095Z</time>
      </trkpt>
      <trkpt lat="48.79766" lon="2.25307">
        <ele>173</ele>
        <time>2020-12-05T15:38:28.095Z</time>
      </trkpt>
      <trkpt lat="48.79767" lon="2.25307">
        <ele>173</ele>
        <time>2020-12-05T15:38:29.094Z</time>
      </trkpt>
      <trkpt lat="48.79768" lon="2.25308">
        <ele>172</ele>
        <time>2020-12-05T15:38:30.094Z</time>
      </trkpt>
      <trkpt lat="48.79768" lon="2.25308">
        <ele>172</ele>
        <time>2020-12-05T15:38:31.095Z</time>
      </trkpt>
      <trkpt lat="48.79768" lon="2.25308">
        <ele>172</ele>
        <time>2020-12-05T15:38:32.094Z</time>
      </trkpt>
      <trkpt lat="48.79769" lon="2.25307">
        <ele>172</ele>
        <time>2020-12-05T15:38:33.095Z</time>
      </trkpt>
      <trkpt lat="48.79769" lon="2.25306">
        <ele>171</ele>
        <time>2020-12-05T15:38:34.094Z</time>
      </trkpt>
      <trkpt lat="48.79769" lon="2.25306">
        <ele>171</ele>
        <time>2020-12-05T15:38:35.095Z</time>
      </trkpt>
      <trkpt lat="48.79769" lon="2.25306">
        <ele>171</ele>
        <time>2020-12-05T15:38:36.094Z</time>
      </trkpt>
      <trkpt lat="48.79769" lon="2.25306">
        <ele>170</ele>
        <time>2020-12-05T15:38:37.095Z</time>
      </trkpt>
      <trkpt lat="48.79769" lon="2.25306">
        <ele>170</ele>
        <time>2020-12-05T15:38:38.094Z</time>
      </trkpt>
      <trkpt lat="48.79769" lon="2.25306">
        <ele>169</ele>
        <time>2020-12-05T15:38:39.094Z</time>
      </trkpt>
      <trkpt lat="48.79769" lon="2.25306">
        <ele>169</ele>
        <time>2020-12-05T15:38:40.095Z</time>
      </trkpt>
      <trkpt lat="48.79769" lon="2.25306">
        <ele>169</ele>
        <time>2020-12-05T15:38:41.095Z</time>
      </trkpt>
      <trkpt lat="48.79769" lon="2.25306">
        <ele>169</ele>
        <time>2020-12-05T15:38:42.095Z</time>
      </trkpt>
      <trkpt lat="48.79769" lon="2.25306">
        <ele>168</ele>
        <time>2020-12-05T15:38:43.095Z</time>
      </trkpt>
      <trkpt lat="48.79769" lon="2.25306">
        <ele>168</ele>
        <time>2020-12-05T15:38:44.094Z</time>
      </trkpt>
      <trkpt lat="48.79769" lon="2.25306">
        <ele>168</ele>
        <time>2020-12-05T15:38:45.095Z</time>
      </trkpt>
      <trkpt lat="48.79768" lon="2.25306">
        <ele>168</ele>
        <time>2020-12-05T15:38:46.094Z</time>
      </trkpt>
      <trkpt lat="48.79768" lon="2.25306">
        <ele>168</ele>
        <time>2020-12-05T15:38:47.095Z</time>
      </trkpt>
      <trkpt lat="48.79768" lon="2.25306">
        <ele>168</ele>
        <time>2020-12-05T15:38:48.094Z</time>
      </trkpt>
      <trkpt lat="48.79768" lon="2.25306">
        <ele>168</ele>
        <time>2020-12-05T15:38:49.095Z</time>
      </trkpt>
      <trkpt lat="48.79768" lon="2.25306">
        <ele>167</ele>
        <time>2020-12-05T15:38:50.095Z</time>
      </trkpt>
      <trkpt lat="48.79767" lon="2.25305">
        <ele>167</ele>
        <time>2020-12-05T15:38:51.095Z</time>
      </trkpt>
      <trkpt lat="48.79767" lon="2.25304">
        <ele>167</ele>
        <time>2020-12-05T15:38:52.095Z</time>
      </trkpt>
      <trkpt lat="48.79767" lon="2.25304">
        <ele>167</ele>
        <time>2020-12-05T15:38:53.095Z</time>
      </trkpt>
      <trkpt lat="48.79767" lon="2.25304">
        <ele>167</ele>
        <time>2020-12-05T15:38:54.095Z</time>
      </trkpt>
      <trkpt lat="48.79767" lon="2.25304">
        <ele>167</ele>
        <time>2020-12-05T15:38:55.095Z</time>
      </trkpt>
      <trkpt lat="48.79767" lon="2.25304">
        <ele>167</ele>
        <time>2020-12-05T15:38:56.095Z</time>
      </trkpt>
      <trkpt lat="48.79767" lon="2.25304">
        <ele>167</ele>
        <time>2020-12-05T15:38:57.095Z</time>
      </trkpt>
      <trkpt lat="48.79767" lon="2.25304">
        <ele>167</ele>
        <time>2020-12-05T15:38:58.095Z</time>
      </trkpt>
      <trkpt lat="48.79768" lon="2.25306">
        <ele>167</ele>
        <time>2020-12-05T15:38:59.094Z</time>
      </trkpt>
      <trkpt lat="48.79766" lon="2.25306">
        <ele>167</ele>
        <time>2020-12-05T15:39:00.095Z</time>
      </trkpt>
      <trkpt lat="48.79766" lon="2.25306">
        <ele>167</ele>
        <time>2020-12-05T15:39:01.095Z</time>
      </trkpt>
      <trkpt lat="48.79765" lon="2.25305">
        <ele>167</ele>
        <time>2020-12-05T15:39:02.094Z</time>
      </trkpt>
      <trkpt lat="48.79764" lon="2.25304">
        <ele>166</ele>
        <time>2020-12-05T15:39:03.095Z</time>
      </trkpt>
      <trkpt lat="48.79762" lon="2.25302">
        <ele>166</ele>
        <time>2020-12-05T15:39:04.094Z</time>
      </trkpt>
      <trkpt lat="48.79761" lon="2.25301">
        <ele>166</ele>
        <time>2020-12-05T15:39:05.094Z</time>
      </trkpt>
      <trkpt lat="48.79759" lon="2.25299">
        <ele>166</ele>
        <time>2020-12-05T15:39:06.095Z</time>
      </trkpt>
      <trkpt lat="48.79758" lon="2.25298">
        <ele>166</ele>
        <time>2020-12-05T15:39:07.094Z</time>
      </trkpt>
      <trkpt lat="48.79757" lon="2.25297">
        <ele>165</ele>
        <time>2020-12-05T15:39:08.094Z</time>
      </trkpt>
      <trkpt lat="48.79756" lon="2.25296">
        <ele>165</ele>
        <time>2020-12-05T15:39:09.095Z</time>
      </trkpt>
      <trkpt lat="48.79754" lon="2.25294">
        <ele>165</ele>
        <time>2020-12-05T15:39:10.094Z</time>
      </trkpt>
      <trkpt lat="48.79754" lon="2.25292">
        <ele>165</ele>
        <time>2020-12-05T15:39:11.095Z</time>
      </trkpt>
      <trkpt lat="48.79753" lon="2.25292">
        <ele>165</ele>
        <time>2020-12-05T15:39:12.095Z</time>
      </trkpt>
      <trkpt lat="48.79751" lon="2.2529">
        <ele>164</ele>
        <time>2020-12-05T15:39:13.095Z</time>
      </trkpt>
      <trkpt lat="48.7975" lon="2.2529">
        <ele>164</ele>
        <time>2020-12-05T15:39:14.094Z</time>
      </trkpt>
      <trkpt lat="48.79748" lon="2.25288">
        <ele>164</ele>
        <time>2020-12-05T15:39:15.095Z</time>
      </trkpt>
      <trkpt lat="48.79745" lon="2.25286">
        <ele>163</ele>
        <time>2020-12-05T15:39:16.094Z</time>
      </trkpt>
      <trkpt lat="48.79744" lon="2.25284">
        <ele>163</ele>
        <time>2020-12-05T15:39:17.095Z</time>
      </trkpt>
      <trkpt lat="48.79744" lon="2.25284">
        <ele>162</ele>
        <time>2020-12-05T15:39:18.094Z</time>
      </trkpt>
      <trkpt lat="48.79745" lon="2.25285">
        <ele>162</ele>
        <time>2020-12-05T15:39:19.094Z</time>
      </trkpt>
      <trkpt lat="48.79746" lon="2.25286">
        <ele>162</ele>
        <time>2020-12-05T15:39:20.094Z</time>
      </trkpt>
      <trkpt lat="48.79745" lon="2.25286">
        <ele>162</ele>
        <time>2020-12-05T15:39:21.094Z</time>
      </trkpt>
      <trkpt lat="48.79745" lon="2.25286">
        <ele>162</ele>
        <time>2020-12-05T15:39:22.094Z</time>
      </trkpt>
      <trkpt lat="48.79745" lon="2.25286">
        <ele>162</ele>
        <time>2020-12-05T15:39:23.094Z</time>
      </trkpt>
      <trkpt lat="48.79746" lon="2.25287">
        <ele>162</ele>
        <time>2020-12-05T15:39:24.094Z</time>
      </trkpt>
      <trkpt lat="48.79745" lon="2.25287">
        <ele>162</ele>
        <time>2020-12-05T15:39:25.095Z</time>
      </trkpt>
      <trkpt lat="48.79744" lon="2.25286">
        <ele>162</ele>
        <time>2020-12-05T15:39:26.095Z</time>
      </trkpt>
      <trkpt lat="48.79743" lon="2.25285">
        <ele>162</ele>
        <time>2020-12-05T15:39:27.095Z</time>
      </trkpt>
      <trkpt lat="48.79742" lon="2.25285">
        <ele>162</ele>
        <time>2020-12-05T15:39:28.095Z</time>
      </trkpt>
      <trkpt lat="48.79741" lon="2.25285">
        <ele>162</ele>
        <time>2020-12-05T15:39:29.095Z</time>
      </trkpt>
      <trkpt lat="48.79741" lon="2.25285">
        <ele>162</ele>
        <time>2020-12-05T15:39:30.095Z</time>
      </trkpt>
      <trkpt lat="48.79742" lon="2.25285">
        <ele>162</ele>
        <time>2020-12-05T15:39:31.095Z</time>
      </trkpt>
      <trkpt lat="48.79742" lon="2.25285">
        <ele>162</ele>
        <time>2020-12-05T15:39:32.095Z</time>
      </trkpt>
      <trkpt lat="48.79743" lon="2.25286">
        <ele>163</ele>
        <time>2020-12-05T15:39:33.095Z</time>
      </trkpt>
      <trkpt lat="48.79744" lon="2.25287">
        <ele>163</ele>
        <time>2020-12-05T15:39:34.095Z</time>
      </trkpt>
      <trkpt lat="48.79744" lon="2.25288">
        <ele>163</ele>
        <time>2020-12-05T15:39:35.095Z</time>
      </trkpt>
      <trkpt lat="48.79744" lon="2.25288">
        <ele>163</ele>
        <time>2020-12-05T15:39:36.095Z</time>
      </trkpt>
      <trkpt lat="48.79744" lon="2.25288">
        <ele>163</ele>
        <time>2020-12-05T15:39:37.095Z</time>
      </trkpt>
      <trkpt lat="48.79744" lon="2.25288">
        <ele>164</ele>
        <time>2020-12-05T15:39:38.095Z</time>
      </trkpt>
      <trkpt lat="48.79744" lon="2.25288">
        <ele>164</ele>
        <time>2020-12-05T15:39:39.095Z</time>
      </trkpt>
      <trkpt lat="48.79743" lon="2.25288">
        <ele>164</ele>
        <time>2020-12-05T15:39:40.095Z</time>
      </trkpt>
      <trkpt lat="48.79743" lon="2.25288">
        <ele>165</ele>
        <time>2020-12-05T15:39:41.095Z</time>
      </trkpt>
      <trkpt lat="48.79743" lon="2.25288">
        <ele>165</ele>
        <time>2020-12-05T15:39:42.094Z</time>
      </trkpt>
      <trkpt lat="48.79744" lon="2.25288">
        <ele>164</ele>
        <time>2020-12-05T15:39:43.095Z</time>
      </trkpt>
      <trkpt lat="48.79744" lon="2.25287">
        <ele>164</ele>
        <time>2020-12-05T15:39:44.094Z</time>
      </trkpt>
      <trkpt lat="48.79746" lon="2.25288">
        <ele>164</ele>
        <time>2020-12-05T15:39:45.095Z</time>
      </trkpt>
      <trkpt lat="48.79747" lon="2.25288">
        <ele>164</ele>
        <time>2020-12-05T15:39:46.095Z</time>
      </trkpt>
      <trkpt lat="48.79749" lon="2.25289">
        <ele>164</ele>
        <time>2020-12-05T15:39:47.095Z</time>
      </trkpt>
      <trkpt lat="48.7975" lon="2.25289">
        <ele>164</ele>
        <time>2020-12-05T15:39:48.095Z</time>
      </trkpt>
      <trkpt lat="48.79751" lon="2.25289">
        <ele>164</ele>
        <time>2020-12-05T15:39:49.095Z</time>
      </trkpt>
      <trkpt lat="48.79751" lon="2.25288">
        <ele>164</ele>
        <time>2020-12-05T15:39:50.095Z</time>
      </trkpt>
      <trkpt lat="48.79751" lon="2.25288">
        <ele>164</ele>
        <time>2020-12-05T15:39:51.095Z</time>
      </trkpt>
      <trkpt lat="48.79751" lon="2.25288">
        <ele>163</ele>
        <time>2020-12-05T15:39:52.095Z</time>
      </trkpt>
      <trkpt lat="48.79751" lon="2.25289">
        <ele>163</ele>
        <time>2020-12-05T15:39:53.095Z</time>
      </trkpt>
      <trkpt lat="48.7975" lon="2.2529">
        <ele>163</ele>
        <time>2020-12-05T15:39:54.095Z</time>
      </trkpt>
      <trkpt lat="48.79749" lon="2.2529">
        <ele>163</ele>
        <time>2020-12-05T15:39:55.094Z</time>
      </trkpt>
      <trkpt lat="48.79749" lon="2.2529">
        <ele>163</ele>
        <time>2020-12-05T15:39:56.095Z</time>
      </trkpt>
      <trkpt lat="48.79749" lon="2.2529">
        <ele>162</ele>
        <time>2020-12-05T15:39:57.095Z</time>
      </trkpt>
      <trkpt lat="48.79749" lon="2.25289">
        <ele>162</ele>
        <time>2020-12-05T15:39:58.095Z</time>
      </trkpt>
      <trkpt lat="48.79749" lon="2.25288">
        <ele>162</ele>
        <time>2020-12-05T15:39:59.095Z</time>
      </trkpt>
      <trkpt lat="48.79749" lon="2.25287">
        <ele>161</ele>
        <time>2020-12-05T15:40:00.095Z</time>
      </trkpt>
      <trkpt lat="48.79749" lon="2.25286">
        <ele>161</ele>
        <time>2020-12-05T15:40:01.095Z</time>
      </trkpt>
      <trkpt lat="48.79748" lon="2.25286">
        <ele>160</ele>
        <time>2020-12-05T15:40:02.094Z</time>
      </trkpt>
      <trkpt lat="48.79746" lon="2.25285">
        <ele>160</ele>
        <time>2020-12-05T15:40:03.095Z</time>
      </trkpt>
      <trkpt lat="48.79744" lon="2.25286">
        <ele>160</ele>
        <time>2020-12-05T15:40:04.094Z</time>
      </trkpt>
      <trkpt lat="48.79742" lon="2.25287">
        <ele>160</ele>
        <time>2020-12-05T15:40:05.095Z</time>
      </trkpt>
      <trkpt lat="48.79741" lon="2.25288">
        <ele>160</ele>
        <time>2020-12-05T15:40:06.095Z</time>
      </trkpt>
      <trkpt lat="48.7974" lon="2.25288">
        <ele>160</ele>
        <time>2020-12-05T15:40:07.095Z</time>
      </trkpt>
      <trkpt lat="48.79739" lon="2.25288">
        <ele>160</ele>
        <time>2020-12-05T15:40:08.095Z</time>
      </trkpt>
      <trkpt lat="48.79738" lon="2.25288">
        <ele>160</ele>
        <time>2020-12-05T15:40:09.094Z</time>
      </trkpt>
      <trkpt lat="48.79738" lon="2.25287">
        <ele>160</ele>
        <time>2020-12-05T15:40:10.095Z</time>
      </trkpt>
      <trkpt lat="48.79738" lon="2.25287">
        <ele>160</ele>
        <time>2020-12-05T15:40:11.094Z</time>
      </trkpt>
      <trkpt lat="48.79738" lon="2.25286">
        <ele>160</ele>
        <time>2020-12-05T15:40:12.095Z</time>
      </trkpt>
      <trkpt lat="48.79738" lon="2.25286">
        <ele>160</ele>
        <time>2020-12-05T15:40:13.095Z</time>
      </trkpt>
      <trkpt lat="48.79738" lon="2.25285">
        <ele>160</ele>
        <time>2020-12-05T15:40:14.095Z</time>
      </trkpt>
      <trkpt lat="48.79737" lon="2.25285">
        <ele>160</ele>
        <time>2020-12-05T15:40:15.095Z</time>
      </trkpt>
      <trkpt lat="48.79738" lon="2.25284">
        <ele>160</ele>
        <time>2020-12-05T15:40:16.095Z</time>
      </trkpt>
      <trkpt lat="48.79738" lon="2.25284">
        <ele>160</ele>
        <time>2020-12-05T15:40:17.095Z</time>
      </trkpt>
      <trkpt lat="48.79738" lon="2.25284">
        <ele>160</ele>
        <time>2020-12-05T15:40:18.095Z</time>
      </trkpt>
      <trkpt lat="48.79739" lon="2.25284">
        <ele>159</ele>
        <time>2020-12-05T15:40:19.094Z</time>
      </trkpt>
      <trkpt lat="48.7974" lon="2.25283">
        <ele>159</ele>
        <time>2020-12-05T15:40:20.095Z</time>
      </trkpt>
      <trkpt lat="48.79741" lon="2.25283">
        <ele>159</ele>
        <time>2020-12-05T15:40:21.095Z</time>
      </trkpt>
      <trkpt lat="48.79741" lon="2.25282">
        <ele>159</ele>
        <time>2020-12-05T15:40:22.095Z</time>
      </trkpt>
      <trkpt lat="48.79742" lon="2.25282">
        <ele>159</ele>
        <time>2020-12-05T15:40:23.095Z</time>
      </trkpt>
      <trkpt lat="48.79741" lon="2.2528">
        <ele>159</ele>
        <time>2020-12-05T15:40:24.095Z</time>
      </trkpt>
      <trkpt lat="48.7974" lon="2.25279">
        <ele>158</ele>
        <time>2020-12-05T15:40:25.095Z</time>
      </trkpt>
      <trkpt lat="48.79739" lon="2.25279">
        <ele>158</ele>
        <time>2020-12-05T15:40:26.095Z</time>
      </trkpt>
      <trkpt lat="48.79739" lon="2.25278">
        <ele>158</ele>
        <time>2020-12-05T15:40:27.095Z</time>
      </trkpt>
      <trkpt lat="48.79739" lon="2.25277">
        <ele>157</ele>
        <time>2020-12-05T15:40:28.095Z</time>
      </trkpt>
      <trkpt lat="48.79741" lon="2.25277">
        <ele>157</ele>
        <time>2020-12-05T15:40:29.095Z</time>
      </trkpt>
      <trkpt lat="48.79743" lon="2.25277">
        <ele>156</ele>
        <time>2020-12-05T15:40:30.095Z</time>
      </trkpt>
      <trkpt lat="48.79745" lon="2.25277">
        <ele>156</ele>
        <time>2020-12-05T15:40:31.095Z</time>
      </trkpt>
      <trkpt lat="48.79746" lon="2.25276">
        <ele>155</ele>
        <time>2020-12-05T15:40:32.095Z</time>
      </trkpt>
      <trkpt lat="48.79747" lon="2.25276">
        <ele>155</ele>
        <time>2020-12-05T15:40:33.094Z</time>
      </trkpt>
      <trkpt lat="48.79748" lon="2.25275">
        <ele>154</ele>
        <time>2020-12-05T15:40:34.095Z</time>
      </trkpt>
      <trkpt lat="48.79748" lon="2.25276">
        <ele>154</ele>
        <time>2020-12-05T15:40:35.094Z</time>
      </trkpt>
      <trkpt lat="48.79748" lon="2.25276">
        <ele>153</ele>
        <time>2020-12-05T15:40:36.095Z</time>
      </trkpt>
      <trkpt lat="48.79747" lon="2.25276">
        <ele>153</ele>
        <time>2020-12-05T15:40:37.094Z</time>
      </trkpt>
      <trkpt lat="48.79747" lon="2.25276">
        <ele>153</ele>
        <time>2020-12-05T15:40:38.095Z</time>
      </trkpt>
      <trkpt lat="48.79747" lon="2.25277">
        <ele>152</ele>
        <time>2020-12-05T15:40:39.095Z</time>
      </trkpt>
      <trkpt lat="48.79747" lon="2.25278">
        <ele>152</ele>
        <time>2020-12-05T15:40:40.094Z</time>
      </trkpt>
      <trkpt lat="48.79747" lon="2.25278">
        <ele>152</ele>
        <time>2020-12-05T15:40:41.094Z</time>
      </trkpt>
      <trkpt lat="48.79747" lon="2.25278">
        <ele>152</ele>
        <time>2020-12-05T15:40:42.094Z</time>
      </trkpt>
      <trkpt lat="48.79747" lon="2.25279">
        <ele>152</ele>
        <time>2020-12-05T15:40:43.095Z</time>
      </trkpt>
      <trkpt lat="48.79748" lon="2.25279">
        <ele>152</ele>
        <time>2020-12-05T15:40:44.094Z</time>
      </trkpt>
      <trkpt lat="48.79749" lon="2.25281">
        <ele>152</ele>
        <time>2020-12-05T15:40:45.095Z</time>
      </trkpt>
      <trkpt lat="48.79751" lon="2.25282">
        <ele>152</ele>
        <time>2020-12-05T15:40:46.094Z</time>
      </trkpt>
      <trkpt lat="48.79751" lon="2.25283">
        <ele>152</ele>
        <time>2020-12-05T15:40:47.095Z</time>
      </trkpt>
      <trkpt lat="48.79752" lon="2.25284">
        <ele>152</ele>
        <time>2020-12-05T15:40:48.094Z</time>
      </trkpt>
      <trkpt lat="48.79753" lon="2.25285">
        <ele>153</ele>
        <time>2020-12-05T15:40:49.094Z</time>
      </trkpt>
      <trkpt lat="48.79753" lon="2.25285">
        <ele>153</ele>
        <time>2020-12-05T15:40:50.095Z</time>
      </trkpt>
      <trkpt lat="48.79753" lon="2.25285">
        <ele>153</ele>
        <time>2020-12-05T15:40:51.095Z</time>
      </trkpt>
      <trkpt lat="48.79753" lon="2.25285">
        <ele>153</ele>
        <time>2020-12-05T15:40:52.095Z</time>
      </trkpt>
      <trkpt lat="48.79753" lon="2.25285">
        <ele>153</ele>
        <time>2020-12-05T15:40:53.095Z</time>
      </trkpt>
      <trkpt lat="48.79753" lon="2.25285">
        <ele>154</ele>
        <time>2020-12-05T15:40:54.095Z</time>
      </trkpt>
      <trkpt lat="48.79753" lon="2.25285">
        <ele>154</ele>
        <time>2020-12-05T15:40:55.094Z</time>
      </trkpt>
      <trkpt lat="48.79753" lon="2.25285">
        <ele>154</ele>
        <time>2020-12-05T15:40:56.095Z</time>
      </trkpt>
      <trkpt lat="48.79753" lon="2.25285">
        <ele>154</ele>
        <time>2020-12-05T15:40:57.094Z</time>
      </trkpt>
      <trkpt lat="48.79753" lon="2.25285">
        <ele>154</ele>
        <time>2020-12-05T15:40:58.095Z</time>
      </trkpt>
      <trkpt lat="48.79753" lon="2.25285">
        <ele>154</ele>
        <time>2020-12-05T15:40:59.094Z</time>
      </trkpt>
      <trkpt lat="48.79753" lon="2.25285">
        <ele>154</ele>
        <time>2020-12-05T15:41:00.094Z</time>
      </trkpt>
      <trkpt lat="48.79753" lon="2.25285">
        <ele>154</ele>
        <time>2020-12-05T15:41:01.094Z</time>
      </trkpt>
      <trkpt lat="48.79753" lon="2.25285">
        <ele>154</ele>
        <time>2020-12-05T15:41:02.095Z</time>
      </trkpt>
      <trkpt lat="48.79753" lon="2.25285">
        <ele>154</ele>
        <time>2020-12-05T15:41:03.094Z</time>
      </trkpt>
      <trkpt lat="48.79753" lon="2.25285">
        <ele>154</ele>
        <time>2020-12-05T15:41:04.095Z</time>
      </trkpt>
      <trkpt lat="48.79753" lon="2.25285">
        <ele>154</ele>
        <time>2020-12-05T15:41:05.094Z</time>
      </trkpt>
      <trkpt lat="48.79752" lon="2.25286">
        <ele>154</ele>
        <time>2020-12-05T15:41:06.095Z</time>
      </trkpt>
      <trkpt lat="48.79753" lon="2.25288">
        <ele>154</ele>
        <time>2020-12-05T15:41:07.095Z</time>
      </trkpt>
      <trkpt lat="48.79754" lon="2.2529">
        <ele>154</ele>
        <time>2020-12-05T15:41:08.095Z</time>
      </trkpt>
      <trkpt lat="48.79754" lon="2.25293">
        <ele>154</ele>
        <time>2020-12-05T15:41:09.095Z</time>
      </trkpt>
      <trkpt lat="48.79755" lon="2.25295">
        <ele>154</ele>
        <time>2020-12-05T15:41:10.095Z</time>
      </trkpt>
      <trkpt lat="48.79755" lon="2.25295">
        <ele>154</ele>
        <time>2020-12-05T15:41:11.095Z</time>
      </trkpt>
      <trkpt lat="48.79754" lon="2.25296">
        <ele>154</ele>
        <time>2020-12-05T15:41:12.095Z</time>
      </trkpt>
      <trkpt lat="48.79754" lon="2.25296">
        <ele>154</ele>
        <time>2020-12-05T15:41:13.095Z</time>
      </trkpt>
      <trkpt lat="48.79753" lon="2.25296">
        <ele>154</ele>
        <time>2020-12-05T15:41:14.095Z</time>
      </trkpt>
      <trkpt lat="48.79752" lon="2.25296">
        <ele>154</ele>
        <time>2020-12-05T15:41:15.095Z</time>
      </trkpt>
      <trkpt lat="48.79752" lon="2.25296">
        <ele>155</ele>
        <time>2020-12-05T15:41:16.095Z</time>
      </trkpt>
      <trkpt lat="48.79752" lon="2.25296">
        <ele>155</ele>
        <time>2020-12-05T15:41:17.094Z</time>
      </trkpt>
      <trkpt lat="48.79752" lon="2.25296">
        <ele>155</ele>
        <time>2020-12-05T15:41:18.095Z</time>
      </trkpt>
      <trkpt lat="48.79752" lon="2.25296">
        <ele>155</ele>
        <time>2020-12-05T15:41:19.094Z</time>
      </trkpt>
      <trkpt lat="48.79752" lon="2.25296">
        <ele>156</ele>
        <time>2020-12-05T15:41:20.095Z</time>
      </trkpt>
      <trkpt lat="48.79752" lon="2.25296">
        <ele>156</ele>
        <time>2020-12-05T15:41:21.095Z</time>
      </trkpt>
      <trkpt lat="48.79752" lon="2.25296">
        <ele>157</ele>
        <time>2020-12-05T15:41:22.095Z</time>
      </trkpt>
      <trkpt lat="48.79752" lon="2.25296">
        <ele>157</ele>
        <time>2020-12-05T15:41:23.094Z</time>
      </trkpt>
      <trkpt lat="48.79752" lon="2.25297">
        <ele>157</ele>
        <time>2020-12-05T15:41:24.094Z</time>
      </trkpt>
      <trkpt lat="48.79752" lon="2.25297">
        <ele>158</ele>
        <time>2020-12-05T15:41:25.095Z</time>
      </trkpt>
      <trkpt lat="48.79752" lon="2.25297">
        <ele>158</ele>
        <time>2020-12-05T15:41:26.095Z</time>
      </trkpt>
      <trkpt lat="48.79752" lon="2.25297">
        <ele>158</ele>
        <time>2020-12-05T15:41:27.094Z</time>
      </trkpt>
      <trkpt lat="48.79752" lon="2.25297">
        <ele>159</ele>
        <time>2020-12-05T15:41:28.095Z</time>
      </trkpt>
      <trkpt lat="48.79752" lon="2.25297">
        <ele>159</ele>
        <time>2020-12-05T15:41:29.095Z</time>
      </trkpt>
      <trkpt lat="48.79752" lon="2.25297">
        <ele>159</ele>
        <time>2020-12-05T15:41:30.095Z</time>
      </trkpt>
      <trkpt lat="48.79752" lon="2.25297">
        <ele>159</ele>
        <time>2020-12-05T15:41:31.095Z</time>
      </trkpt>
      <trkpt lat="48.79752" lon="2.25296">
        <ele>159</ele>
        <time>2020-12-05T15:41:32.094Z</time>
      </trkpt>
      <trkpt lat="48.79753" lon="2.25294">
        <ele>160</ele>
        <time>2020-12-05T15:41:33.095Z</time>
      </trkpt>
      <trkpt lat="48.79753" lon="2.25293">
        <ele>160</ele>
        <time>2020-12-05T15:41:34.095Z</time>
      </trkpt>
      <trkpt lat="48.79753" lon="2.25291">
        <ele>160</ele>
        <time>2020-12-05T15:41:35.094Z</time>
      </trkpt>
      <trkpt lat="48.79754" lon="2.25289">
        <ele>160</ele>
        <time>2020-12-05T15:41:36.095Z</time>
      </trkpt>
      <trkpt lat="48.79755" lon="2.25287">
        <ele>160</ele>
        <time>2020-12-05T15:41:37.094Z</time>
      </trkpt>
      <trkpt lat="48.79756" lon="2.25285">
        <ele>160</ele>
        <time>2020-12-05T15:41:38.095Z</time>
      </trkpt>
      <trkpt lat="48.79757" lon="2.25283">
        <ele>160</ele>
        <time>2020-12-05T15:41:39.094Z</time>
      </trkpt>
      <trkpt lat="48.79759" lon="2.25281">
        <ele>160</ele>
        <time>2020-12-05T15:41:40.095Z</time>
      </trkpt>
      <trkpt lat="48.7976" lon="2.25278">
        <ele>160</ele>
        <time>2020-12-05T15:41:41.094Z</time>
      </trkpt>
      <trkpt lat="48.7976" lon="2.25276">
        <ele>160</ele>
        <time>2020-12-05T15:41:42.095Z</time>
      </trkpt>
      <trkpt lat="48.7976" lon="2.25274">
        <ele>161</ele>
        <time>2020-12-05T15:41:43.094Z</time>
      </trkpt>
      <trkpt lat="48.7976" lon="2.25272">
        <ele>161</ele>
        <time>2020-12-05T15:41:44.095Z</time>
      </trkpt>
      <trkpt lat="48.79759" lon="2.2527">
        <ele>161</ele>
        <time>2020-12-05T15:41:45.094Z</time>
      </trkpt>
      <trkpt lat="48.79759" lon="2.25269">
        <ele>161</ele>
        <time>2020-12-05T15:41:46.095Z</time>
      </trkpt>
      <trkpt lat="48.79758" lon="2.25268">
        <ele>161</ele>
        <time>2020-12-05T15:41:47.095Z</time>
      </trkpt>
      <trkpt lat="48.79758" lon="2.25268">
        <ele>161</ele>
        <time>2020-12-05T15:41:48.095Z</time>
      </trkpt>
      <trkpt lat="48.79758" lon="2.25267">
        <ele>161</ele>
        <time>2020-12-05T15:41:49.095Z</time>
      </trkpt>
      <trkpt lat="48.79757" lon="2.25267">
        <ele>161</ele>
        <time>2020-12-05T15:41:50.095Z</time>
      </trkpt>
      <trkpt lat="48.79756" lon="2.25266">
        <ele>161</ele>
        <time>2020-12-05T15:41:51.095Z</time>
      </trkpt>
      <trkpt lat="48.79755" lon="2.25266">
        <ele>161</ele>
        <time>2020-12-05T15:41:52.094Z</time>
      </trkpt>
      <trkpt lat="48.79754" lon="2.25264">
        <ele>160</ele>
        <time>2020-12-05T15:41:53.095Z</time>
      </trkpt>
      <trkpt lat="48.79754" lon="2.25263">
        <ele>160</ele>
        <time>2020-12-05T15:41:54.094Z</time>
      </trkpt>
      <trkpt lat="48.79753" lon="2.25262">
        <ele>160</ele>
        <time>2020-12-05T15:41:55.095Z</time>
      </trkpt>
      <trkpt lat="48.79753" lon="2.25261">
        <ele>160</ele>
        <time>2020-12-05T15:41:56.094Z</time>
      </trkpt>
      <trkpt lat="48.79753" lon="2.25259">
        <ele>160</ele>
        <time>2020-12-05T15:41:57.095Z</time>
      </trkpt>
      <trkpt lat="48.79752" lon="2.25258">
        <ele>160</ele>
        <time>2020-12-05T15:41:58.094Z</time>
      </trkpt>
      <trkpt lat="48.79751" lon="2.25257">
        <ele>160</ele>
        <time>2020-12-05T15:41:59.095Z</time>
      </trkpt>
      <trkpt lat="48.79749" lon="2.25256">
        <ele>160</ele>
        <time>2020-12-05T15:42:00.095Z</time>
      </trkpt>
      <trkpt lat="48.79749" lon="2.25256">
        <ele>160</ele>
        <time>2020-12-05T15:42:01.094Z</time>
      </trkpt>
      <trkpt lat="48.7975" lon="2.25256">
        <ele>160</ele>
        <time>2020-12-05T15:42:02.095Z</time>
      </trkpt>
      <trkpt lat="48.79751" lon="2.25257">
        <ele>161</ele>
        <time>2020-12-05T15:42:03.094Z</time>
      </trkpt>
      <trkpt lat="48.79751" lon="2.25257">
        <ele>161</ele>
        <time>2020-12-05T15:42:04.095Z</time>
      </trkpt>
      <trkpt lat="48.79751" lon="2.25258">
        <ele>161</ele>
        <time>2020-12-05T15:42:05.094Z</time>
      </trkpt>
      <trkpt lat="48.79751" lon="2.25258">
        <ele>161</ele>
        <time>2020-12-05T15:42:06.095Z</time>
      </trkpt>
      <trkpt lat="48.7975" lon="2.25257">
        <ele>161</ele>
        <time>2020-12-05T15:42:07.094Z</time>
      </trkpt>
      <trkpt lat="48.7975" lon="2.25257">
        <ele>161</ele>
        <time>2020-12-05T15:42:08.095Z</time>
      </trkpt>
      <trkpt lat="48.79749" lon="2.25256">
        <ele>161</ele>
        <time>2020-12-05T15:42:09.095Z</time>
      </trkpt>
      <trkpt lat="48.79748" lon="2.25256">
        <ele>161</ele>
        <time>2020-12-05T15:42:10.095Z</time>
      </trkpt>
      <trkpt lat="48.79747" lon="2.25255">
        <ele>162</ele>
        <time>2020-12-05T15:42:11.094Z</time>
      </trkpt>
      <trkpt lat="48.79746" lon="2.25255">
        <ele>162</ele>
        <time>2020-12-05T15:42:12.095Z</time>
      </trkpt>
      <trkpt lat="48.79745" lon="2.25254">
        <ele>162</ele>
        <time>2020-12-05T15:42:13.095Z</time>
      </trkpt>
      <trkpt lat="48.79744" lon="2.25254">
        <ele>163</ele>
        <time>2020-12-05T15:42:14.095Z</time>
      </trkpt>
      <trkpt lat="48.79743" lon="2.25253">
        <ele>163</ele>
        <time>2020-12-05T15:42:15.094Z</time>
      </trkpt>
      <trkpt lat="48.79742" lon="2.25252">
        <ele>163</ele>
        <time>2020-12-05T15:42:16.094Z</time>
      </trkpt>
      <trkpt lat="48.79742" lon="2.25251">
        <ele>163</ele>
        <time>2020-12-05T15:42:17.094Z</time>
      </trkpt>
      <trkpt lat="48.79741" lon="2.2525">
        <ele>163</ele>
        <time>2020-12-05T15:42:18.094Z</time>
      </trkpt>
      <trkpt lat="48.79741" lon="2.25249">
        <ele>163</ele>
        <time>2020-12-05T15:42:19.094Z</time>
      </trkpt>
      <trkpt lat="48.7974" lon="2.25248">
        <ele>164</ele>
        <time>2020-12-05T15:42:20.095Z</time>
      </trkpt>
      <trkpt lat="48.7974" lon="2.25247">
        <ele>164</ele>
        <time>2020-12-05T15:42:21.095Z</time>
      </trkpt>
      <trkpt lat="48.79739" lon="2.25245">
        <ele>164</ele>
        <time>2020-12-05T15:42:22.095Z</time>
      </trkpt>
      <trkpt lat="48.79737" lon="2.25243">
        <ele>164</ele>
        <time>2020-12-05T15:42:23.095Z</time>
      </trkpt>
      <trkpt lat="48.79736" lon="2.25241">
        <ele>165</ele>
        <time>2020-12-05T15:42:24.094Z</time>
      </trkpt>
      <trkpt lat="48.79735" lon="2.2524">
        <ele>165</ele>
        <time>2020-12-05T15:42:25.094Z</time>
      </trkpt>
      <trkpt lat="48.79734" lon="2.25239">
        <ele>165</ele>
        <time>2020-12-05T15:42:26.094Z</time>
      </trkpt>
      <trkpt lat="48.79733" lon="2.25238">
        <ele>165</ele>
        <time>2020-12-05T15:42:27.094Z</time>
      </trkpt>
      <trkpt lat="48.79732" lon="2.25237">
        <ele>165</ele>
        <time>2020-12-05T15:42:28.094Z</time>
      </trkpt>
      <trkpt lat="48.79731" lon="2.25237">
        <ele>165</ele>
        <time>2020-12-05T15:42:29.095Z</time>
      </trkpt>
      <trkpt lat="48.7973" lon="2.25237">
        <ele>166</ele>
        <time>2020-12-05T15:42:30.094Z</time>
      </trkpt>
      <trkpt lat="48.7973" lon="2.25237">
        <ele>166</ele>
        <time>2020-12-05T15:42:31.094Z</time>
      </trkpt>
      <trkpt lat="48.79728" lon="2.25237">
        <ele>167</ele>
        <time>2020-12-05T15:42:32.094Z</time>
      </trkpt>
      <trkpt lat="48.79727" lon="2.25237">
        <ele>168</ele>
        <time>2020-12-05T15:42:33.095Z</time>
      </trkpt>
      <trkpt lat="48.79727" lon="2.25237">
        <ele>168</ele>
        <time>2020-12-05T15:42:34.095Z</time>
      </trkpt>
      <trkpt lat="48.79726" lon="2.25236">
        <ele>169</ele>
        <time>2020-12-05T15:42:35.095Z</time>
      </trkpt>
      <trkpt lat="48.79724" lon="2.25235">
        <ele>169</ele>
        <time>2020-12-05T15:42:36.095Z</time>
      </trkpt>
      <trkpt lat="48.79723" lon="2.25234">
        <ele>170</ele>
        <time>2020-12-05T15:42:37.095Z</time>
      </trkpt>
      <trkpt lat="48.79722" lon="2.25233">
        <ele>169</ele>
        <time>2020-12-05T15:42:38.095Z</time>
      </trkpt>
      <trkpt lat="48.79721" lon="2.25232">
        <ele>169</ele>
        <time>2020-12-05T15:42:39.095Z</time>
      </trkpt>
      <trkpt lat="48.7972" lon="2.25232">
        <ele>169</ele>
        <time>2020-12-05T15:42:40.095Z</time>
      </trkpt>
      <trkpt lat="48.79719" lon="2.25231">
        <ele>168</ele>
        <time>2020-12-05T15:42:41.095Z</time>
      </trkpt>
      <trkpt lat="48.79719" lon="2.25231">
        <ele>168</ele>
        <time>2020-12-05T15:42:42.095Z</time>
      </trkpt>
      <trkpt lat="48.79717" lon="2.25231">
        <ele>167</ele>
        <time>2020-12-05T15:42:43.095Z</time>
      </trkpt>
      <trkpt lat="48.79716" lon="2.2523">
        <ele>167</ele>
        <time>2020-12-05T15:42:44.095Z</time>
      </trkpt>
      <trkpt lat="48.79715" lon="2.2523">
        <ele>167</ele>
        <time>2020-12-05T15:42:45.095Z</time>
      </trkpt>
      <trkpt lat="48.79714" lon="2.25229">
        <ele>167</ele>
        <time>2020-12-05T15:42:46.095Z</time>
      </trkpt>
      <trkpt lat="48.79713" lon="2.25229">
        <ele>167</ele>
        <time>2020-12-05T15:42:47.095Z</time>
      </trkpt>
      <trkpt lat="48.79711" lon="2.25229">
        <ele>167</ele>
        <time>2020-12-05T15:42:48.094Z</time>
      </trkpt>
      <trkpt lat="48.7971" lon="2.2523">
        <ele>166</ele>
        <time>2020-12-05T15:42:49.095Z</time>
      </trkpt>
      <trkpt lat="48.79709" lon="2.25231">
        <ele>166</ele>
        <time>2020-12-05T15:42:50.095Z</time>
      </trkpt>
      <trkpt lat="48.79708" lon="2.25231">
        <ele>166</ele>
        <time>2020-12-05T15:42:51.095Z</time>
      </trkpt>
      <trkpt lat="48.79706" lon="2.25233">
        <ele>166</ele>
        <time>2020-12-05T15:42:52.095Z</time>
      </trkpt>
      <trkpt lat="48.79705" lon="2.25233">
        <ele>166</ele>
        <time>2020-12-05T15:42:53.094Z</time>
      </trkpt>
      <trkpt lat="48.79704" lon="2.25234">
        <ele>166</ele>
        <time>2020-12-05T15:42:54.094Z</time>
      </trkpt>
      <trkpt lat="48.79703" lon="2.25234">
        <ele>166</ele>
        <time>2020-12-05T15:42:55.094Z</time>
      </trkpt>
      <trkpt lat="48.79702" lon="2.25235">
        <ele>167</ele>
        <time>2020-12-05T15:42:56.094Z</time>
      </trkpt>
      <trkpt lat="48.79701" lon="2.25235">
        <ele>167</ele>
        <time>2020-12-05T15:42:57.094Z</time>
      </trkpt>
      <trkpt lat="48.79701" lon="2.25234">
        <ele>167</ele>
        <time>2020-12-05T15:42:58.095Z</time>
      </trkpt>
      <trkpt lat="48.79701" lon="2.25235">
        <ele>167</ele>
        <time>2020-12-05T15:42:59.095Z</time>
      </trkpt>
      <trkpt lat="48.797" lon="2.25236">
        <ele>168</ele>
        <time>2020-12-05T15:43:00.095Z</time>
      </trkpt>
      <trkpt lat="48.79699" lon="2.25237">
        <ele>168</ele>
        <time>2020-12-05T15:43:01.095Z</time>
      </trkpt>
      <trkpt lat="48.79698" lon="2.25238">
        <ele>168</ele>
        <time>2020-12-05T15:43:02.095Z</time>
      </trkpt>
      <trkpt lat="48.79696" lon="2.25238">
        <ele>168</ele>
        <time>2020-12-05T15:43:03.095Z</time>
      </trkpt>
      <trkpt lat="48.79694" lon="2.25238">
        <ele>169</ele>
        <time>2020-12-05T15:43:04.095Z</time>
      </trkpt>
      <trkpt lat="48.79693" lon="2.25239">
        <ele>170</ele>
        <time>2020-12-05T15:43:05.095Z</time>
      </trkpt>
      <trkpt lat="48.79691" lon="2.25238">
        <ele>170</ele>
        <time>2020-12-05T15:43:06.095Z</time>
      </trkpt>
      <trkpt lat="48.79689" lon="2.25238">
        <ele>171</ele>
        <time>2020-12-05T15:43:07.095Z</time>
      </trkpt>
      <trkpt lat="48.79687" lon="2.25238">
        <ele>171</ele>
        <time>2020-12-05T15:43:08.095Z</time>
      </trkpt>
      <trkpt lat="48.79686" lon="2.25238">
        <ele>172</ele>
        <time>2020-12-05T15:43:09.094Z</time>
      </trkpt>
      <trkpt lat="48.79684" lon="2.25238">
        <ele>172</ele>
        <time>2020-12-05T15:43:10.094Z</time>
      </trkpt>
      <trkpt lat="48.79684" lon="2.25238">
        <ele>172</ele>
        <time>2020-12-05T15:43:11.094Z</time>
      </trkpt>
      <trkpt lat="48.79683" lon="2.25238">
        <ele>172</ele>
        <time>2020-12-05T15:43:12.094Z</time>
      </trkpt>
      <trkpt lat="48.79681" lon="2.25237">
        <ele>172</ele>
        <time>2020-12-05T15:43:13.094Z</time>
      </trkpt>
      <trkpt lat="48.79679" lon="2.25237">
        <ele>172</ele>
        <time>2020-12-05T15:43:14.094Z</time>
      </trkpt>
      <trkpt lat="48.79678" lon="2.25236">
        <ele>172</ele>
        <time>2020-12-05T15:43:15.094Z</time>
      </trkpt>
      <trkpt lat="48.79677" lon="2.25236">
        <ele>172</ele>
        <time>2020-12-05T15:43:16.095Z</time>
      </trkpt>
      <trkpt lat="48.79676" lon="2.25235">
        <ele>172</ele>
        <time>2020-12-05T15:43:17.095Z</time>
      </trkpt>
      <trkpt lat="48.79674" lon="2.25233">
        <ele>172</ele>
        <time>2020-12-05T15:43:18.095Z</time>
      </trkpt>
      <trkpt lat="48.79672" lon="2.25231">
        <ele>172</ele>
        <time>2020-12-05T15:43:19.095Z</time>
      </trkpt>
      <trkpt lat="48.79671" lon="2.25229">
        <ele>171</ele>
        <time>2020-12-05T15:43:20.095Z</time>
      </trkpt>
      <trkpt lat="48.7967" lon="2.25227">
        <ele>171</ele>
        <time>2020-12-05T15:43:21.095Z</time>
      </trkpt>
      <trkpt lat="48.79668" lon="2.25225">
        <ele>170</ele>
        <time>2020-12-05T15:43:22.095Z</time>
      </trkpt>
      <trkpt lat="48.79667" lon="2.25224">
        <ele>170</ele>
        <time>2020-12-05T15:43:23.095Z</time>
      </trkpt>
      <trkpt lat="48.79665" lon="2.25224">
        <ele>169</ele>
        <time>2020-12-05T15:43:24.095Z</time>
      </trkpt>
      <trkpt lat="48.79664" lon="2.25223">
        <ele>168</ele>
        <time>2020-12-05T15:43:25.094Z</time>
      </trkpt>
      <trkpt lat="48.79663" lon="2.25222">
        <ele>168</ele>
        <time>2020-12-05T15:43:26.094Z</time>
      </trkpt>
      <trkpt lat="48.79662" lon="2.25221">
        <ele>167</ele>
        <time>2020-12-05T15:43:27.095Z</time>
      </trkpt>
      <trkpt lat="48.79661" lon="2.25219">
        <ele>167</ele>
        <time>2020-12-05T15:43:28.095Z</time>
      </trkpt>
      <trkpt lat="48.79659" lon="2.25217">
        <ele>166</ele>
        <time>2020-12-05T15:43:29.095Z</time>
      </trkpt>
      <trkpt lat="48.79659" lon="2.25216">
        <ele>166</ele>
        <time>2020-12-05T15:43:30.095Z</time>
      </trkpt>
      <trkpt lat="48.79657" lon="2.25215">
        <ele>165</ele>
        <time>2020-12-05T15:43:31.095Z</time>
      </trkpt>
      <trkpt lat="48.79656" lon="2.25214">
        <ele>165</ele>
        <time>2020-12-05T15:43:32.095Z</time>
      </trkpt>
      <trkpt lat="48.79655" lon="2.25213">
        <ele>164</ele>
        <time>2020-12-05T15:43:33.095Z</time>
      </trkpt>
      <trkpt lat="48.79654" lon="2.25212">
        <ele>164</ele>
        <time>2020-12-05T15:43:34.095Z</time>
      </trkpt>
      <trkpt lat="48.79652" lon="2.25211">
        <ele>164</ele>
        <time>2020-12-05T15:43:35.095Z</time>
      </trkpt>
      <trkpt lat="48.79651" lon="2.2521">
        <ele>163</ele>
        <time>2020-12-05T15:43:36.095Z</time>
      </trkpt>
      <trkpt lat="48.7965" lon="2.25209">
        <ele>163</ele>
        <time>2020-12-05T15:43:37.094Z</time>
      </trkpt>
      <trkpt lat="48.79648" lon="2.25208">
        <ele>163</ele>
        <time>2020-12-05T15:43:38.094Z</time>
      </trkpt>
      <trkpt lat="48.79647" lon="2.25208">
        <ele>163</ele>
        <time>2020-12-05T15:43:39.094Z</time>
      </trkpt>
      <trkpt lat="48.79645" lon="2.25206">
        <ele>164</ele>
        <time>2020-12-05T15:43:40.094Z</time>
      </trkpt>
      <trkpt lat="48.79644" lon="2.25206">
        <ele>164</ele>
        <time>2020-12-05T15:43:41.095Z</time>
      </trkpt>
      <trkpt lat="48.79644" lon="2.25205">
        <ele>164</ele>
        <time>2020-12-05T15:43:42.095Z</time>
      </trkpt>
      <trkpt lat="48.79643" lon="2.25203">
        <ele>165</ele>
        <time>2020-12-05T15:43:43.095Z</time>
      </trkpt>
      <trkpt lat="48.79643" lon="2.25203">
        <ele>165</ele>
        <time>2020-12-05T15:43:44.095Z</time>
      </trkpt>
      <trkpt lat="48.79642" lon="2.25202">
        <ele>166</ele>
        <time>2020-12-05T15:43:45.095Z</time>
      </trkpt>
      <trkpt lat="48.7964" lon="2.25201">
        <ele>167</ele>
        <time>2020-12-05T15:43:46.095Z</time>
      </trkpt>
      <trkpt lat="48.79639" lon="2.25199">
        <ele>167</ele>
        <time>2020-12-05T15:43:47.094Z</time>
      </trkpt>
      <trkpt lat="48.79638" lon="2.25198">
        <ele>167</ele>
        <time>2020-12-05T15:43:48.094Z</time>
      </trkpt>
      <trkpt lat="48.79638" lon="2.25198">
        <ele>168</ele>
        <time>2020-12-05T15:43:49.094Z</time>
      </trkpt>
      <trkpt lat="48.7964" lon="2.25199">
        <ele>168</ele>
        <time>2020-12-05T15:43:50.094Z</time>
      </trkpt>
      <trkpt lat="48.79643" lon="2.252">
        <ele>168</ele>
        <time>2020-12-05T15:43:51.095Z</time>
      </trkpt>
      <trkpt lat="48.79646" lon="2.25201">
        <ele>169</ele>
        <time>2020-12-05T15:43:52.095Z</time>
      </trkpt>
      <trkpt lat="48.79648" lon="2.25201">
        <ele>169</ele>
        <time>2020-12-05T15:43:53.095Z</time>
      </trkpt>
      <trkpt lat="48.79648" lon="2.25201">
        <ele>170</ele>
        <time>2020-12-05T15:43:54.095Z</time>
      </trkpt>
      <trkpt lat="48.79647" lon="2.252">
        <ele>170</ele>
        <time>2020-12-05T15:43:55.095Z</time>
      </trkpt>
      <trkpt lat="48.79647" lon="2.252">
        <ele>171</ele>
        <time>2020-12-05T15:43:56.095Z</time>
      </trkpt>
      <trkpt lat="48.79646" lon="2.252">
        <ele>171</ele>
        <time>2020-12-05T15:43:57.095Z</time>
      </trkpt>
      <trkpt lat="48.79646" lon="2.25199">
        <ele>171</ele>
        <time>2020-12-05T15:43:58.095Z</time>
      </trkpt>
      <trkpt lat="48.79646" lon="2.25198">
        <ele>171</ele>
        <time>2020-12-05T15:43:59.094Z</time>
      </trkpt>
      <trkpt lat="48.79646" lon="2.25197">
        <ele>171</ele>
        <time>2020-12-05T15:44:00.094Z</time>
      </trkpt>
      <trkpt lat="48.79646" lon="2.25197">
        <ele>171</ele>
        <time>2020-12-05T15:44:01.094Z</time>
      </trkpt>
      <trkpt lat="48.79646" lon="2.25197">
        <ele>171</ele>
        <time>2020-12-05T15:44:02.095Z</time>
      </trkpt>
      <trkpt lat="48.79646" lon="2.25197">
        <ele>171</ele>
        <time>2020-12-05T15:44:03.095Z</time>
      </trkpt>
      <trkpt lat="48.79646" lon="2.25197">
        <ele>171</ele>
        <time>2020-12-05T15:44:04.095Z</time>
      </trkpt>
      <trkpt lat="48.79646" lon="2.25197">
        <ele>172</ele>
        <time>2020-12-05T15:44:05.095Z</time>
      </trkpt>
      <trkpt lat="48.79646" lon="2.25197">
        <ele>172</ele>
        <time>2020-12-05T15:44:06.095Z</time>
      </trkpt>
      <trkpt lat="48.79646" lon="2.25197">
        <ele>172</ele>
        <time>2020-12-05T15:44:07.095Z</time>
      </trkpt>
      <trkpt lat="48.79646" lon="2.25197">
        <ele>172</ele>
        <time>2020-12-05T15:44:08.095Z</time>
      </trkpt>
      <trkpt lat="48.79646" lon="2.25197">
        <ele>172</ele>
        <time>2020-12-05T15:44:09.095Z</time>
      </trkpt>
      <trkpt lat="48.79644" lon="2.25196">
        <ele>172</ele>
        <time>2020-12-05T15:44:10.095Z</time>
      </trkpt>
      <trkpt lat="48.79643" lon="2.25196">
        <ele>172</ele>
        <time>2020-12-05T15:44:11.095Z</time>
      </trkpt>
      <trkpt lat="48.79641" lon="2.25195">
        <ele>172</ele>
        <time>2020-12-05T15:44:12.095Z</time>
      </trkpt>
      <trkpt lat="48.7964" lon="2.25195">
        <ele>172</ele>
        <time>2020-12-05T15:44:13.095Z</time>
      </trkpt>
      <trkpt lat="48.79638" lon="2.25194">
        <ele>173</ele>
        <time>2020-12-05T15:44:14.095Z</time>
      </trkpt>
      <trkpt lat="48.79636" lon="2.25193">
        <ele>174</ele>
        <time>2020-12-05T15:44:15.095Z</time>
      </trkpt>
      <trkpt lat="48.79634" lon="2.25192">
        <ele>174</ele>
        <time>2020-12-05T15:44:16.095Z</time>
      </trkpt>
      <trkpt lat="48.79632" lon="2.25191">
        <ele>175</ele>
        <time>2020-12-05T15:44:17.095Z</time>
      </trkpt>
      <trkpt lat="48.7963" lon="2.2519">
        <ele>175</ele>
        <time>2020-12-05T15:44:18.095Z</time>
      </trkpt>
      <trkpt lat="48.79629" lon="2.2519">
        <ele>176</ele>
        <time>2020-12-05T15:44:19.094Z</time>
      </trkpt>
      <trkpt lat="48.79628" lon="2.2519">
        <ele>176</ele>
        <time>2020-12-05T15:44:20.095Z</time>
      </trkpt>
      <trkpt lat="48.79627" lon="2.25188">
        <ele>176</ele>
        <time>2020-12-05T15:44:21.095Z</time>
      </trkpt>
      <trkpt lat="48.79626" lon="2.25186">
        <ele>177</ele>
        <time>2020-12-05T15:44:22.095Z</time>
      </trkpt>
      <trkpt lat="48.79624" lon="2.25184">
        <ele>176</ele>
        <time>2020-12-05T15:44:23.095Z</time>
      </trkpt>
      <trkpt lat="48.79622" lon="2.25183">
        <ele>176</ele>
        <time>2020-12-05T15:44:24.095Z</time>
      </trkpt>
      <trkpt lat="48.79622" lon="2.25182">
        <ele>176</ele>
        <time>2020-12-05T15:44:25.095Z</time>
      </trkpt>
      <trkpt lat="48.79621" lon="2.25181">
        <ele>175</ele>
        <time>2020-12-05T15:44:26.095Z</time>
      </trkpt>
      <trkpt lat="48.7962" lon="2.25181">
        <ele>175</ele>
        <time>2020-12-05T15:44:27.095Z</time>
      </trkpt>
      <trkpt lat="48.79619" lon="2.2518">
        <ele>174</ele>
        <time>2020-12-05T15:44:28.095Z</time>
      </trkpt>
      <trkpt lat="48.79618" lon="2.2518">
        <ele>174</ele>
        <time>2020-12-05T15:44:29.095Z</time>
      </trkpt>
      <trkpt lat="48.79617" lon="2.2518">
        <ele>174</ele>
        <time>2020-12-05T15:44:30.094Z</time>
      </trkpt>
      <trkpt lat="48.79616" lon="2.25181">
        <ele>174</ele>
        <time>2020-12-05T15:44:31.094Z</time>
      </trkpt>
      <trkpt lat="48.79615" lon="2.25181">
        <ele>174</ele>
        <time>2020-12-05T15:44:32.094Z</time>
      </trkpt>
      <trkpt lat="48.79614" lon="2.25182">
        <ele>174</ele>
        <time>2020-12-05T15:44:33.094Z</time>
      </trkpt>
      <trkpt lat="48.79613" lon="2.25182">
        <ele>173</ele>
        <time>2020-12-05T15:44:34.095Z</time>
      </trkpt>
      <trkpt lat="48.79612" lon="2.25182">
        <ele>172</ele>
        <time>2020-12-05T15:44:35.094Z</time>
      </trkpt>
      <trkpt lat="48.79611" lon="2.25182">
        <ele>172</ele>
        <time>2020-12-05T15:44:36.095Z</time>
      </trkpt>
      <trkpt lat="48.7961" lon="2.25182">
        <ele>171</ele>
        <time>2020-12-05T15:44:37.094Z</time>
      </trkpt>
      <trkpt lat="48.79609" lon="2.25181">
        <ele>170</ele>
        <time>2020-12-05T15:44:38.095Z</time>
      </trkpt>
      <trkpt lat="48.79608" lon="2.25181">
        <ele>169</ele>
        <time>2020-12-05T15:44:39.095Z</time>
      </trkpt>
      <trkpt lat="48.79607" lon="2.2518">
        <ele>168</ele>
        <time>2020-12-05T15:44:40.095Z</time>
      </trkpt>
      <trkpt lat="48.79606" lon="2.2518">
        <ele>168</ele>
        <time>2020-12-05T15:44:41.095Z</time>
      </trkpt>
      <trkpt lat="48.79605" lon="2.2518">
        <ele>168</ele>
        <time>2020-12-05T15:44:42.095Z</time>
      </trkpt>
      <trkpt lat="48.79604" lon="2.2518">
        <ele>167</ele>
        <time>2020-12-05T15:44:43.095Z</time>
      </trkpt>
      <trkpt lat="48.79603" lon="2.25179">
        <ele>167</ele>
        <time>2020-12-05T15:44:44.095Z</time>
      </trkpt>
      <trkpt lat="48.79602" lon="2.2518">
        <ele>166</ele>
        <time>2020-12-05T15:44:45.095Z</time>
      </trkpt>
      <trkpt lat="48.79602" lon="2.2518">
        <ele>166</ele>
        <time>2020-12-05T15:44:46.095Z</time>
      </trkpt>
      <trkpt lat="48.79603" lon="2.25182">
        <ele>166</ele>
        <time>2020-12-05T15:44:47.095Z</time>
      </trkpt>
      <trkpt lat="48.79603" lon="2.25183">
        <ele>166</ele>
        <time>2020-12-05T15:44:48.095Z</time>
      </trkpt>
      <trkpt lat="48.79603" lon="2.25183">
        <ele>166</ele>
        <time>2020-12-05T15:44:49.095Z</time>
      </trkpt>
      <trkpt lat="48.79603" lon="2.25183">
        <ele>166</ele>
        <time>2020-12-05T15:44:50.095Z</time>
      </trkpt>
      <trkpt lat="48.79602" lon="2.25183">
        <ele>166</ele>
        <time>2020-12-05T15:44:51.095Z</time>
      </trkpt>
      <trkpt lat="48.79602" lon="2.25183">
        <ele>166</ele>
        <time>2020-12-05T15:44:52.095Z</time>
      </trkpt>
      <trkpt lat="48.79603" lon="2.25184">
        <ele>167</ele>
        <time>2020-12-05T15:44:53.095Z</time>
      </trkpt>
      <trkpt lat="48.79604" lon="2.25184">
        <ele>167</ele>
        <time>2020-12-05T15:44:54.094Z</time>
      </trkpt>
      <trkpt lat="48.79605" lon="2.25185">
        <ele>168</ele>
        <time>2020-12-05T15:44:55.094Z</time>
      </trkpt>
      <trkpt lat="48.79606" lon="2.25185">
        <ele>168</ele>
        <time>2020-12-05T15:44:56.095Z</time>
      </trkpt>
      <trkpt lat="48.79606" lon="2.25185">
        <ele>169</ele>
        <time>2020-12-05T15:44:57.095Z</time>
      </trkpt>
      <trkpt lat="48.79606" lon="2.25184">
        <ele>169</ele>
        <time>2020-12-05T15:44:58.095Z</time>
      </trkpt>
      <trkpt lat="48.79606" lon="2.25184">
        <ele>170</ele>
        <time>2020-12-05T15:44:59.094Z</time>
      </trkpt>
      <trkpt lat="48.79606" lon="2.25184">
        <ele>170</ele>
        <time>2020-12-05T15:45:00.094Z</time>
      </trkpt>
      <trkpt lat="48.79605" lon="2.25184">
        <ele>171</ele>
        <time>2020-12-05T15:45:01.094Z</time>
      </trkpt>
      <trkpt lat="48.79604" lon="2.25184">
        <ele>171</ele>
        <time>2020-12-05T15:45:02.094Z</time>
      </trkpt>
      <trkpt lat="48.79602" lon="2.25184">
        <ele>172</ele>
        <time>2020-12-05T15:45:03.094Z</time>
      </trkpt>
      <trkpt lat="48.79601" lon="2.25184">
        <ele>172</ele>
        <time>2020-12-05T15:45:04.094Z</time>
      </trkpt>
      <trkpt lat="48.796" lon="2.25183">
        <ele>171</ele>
        <time>2020-12-05T15:45:05.094Z</time>
      </trkpt>
      <trkpt lat="48.79599" lon="2.25183">
        <ele>171</ele>
        <time>2020-12-05T15:45:06.094Z</time>
      </trkpt>
      <trkpt lat="48.79597" lon="2.25182">
        <ele>170</ele>
        <time>2020-12-05T15:45:07.094Z</time>
      </trkpt>
      <trkpt lat="48.79596" lon="2.25181">
        <ele>170</ele>
        <time>2020-12-05T15:45:08.095Z</time>
      </trkpt>
      <trkpt lat="48.79595" lon="2.25181">
        <ele>169</ele>
        <time>2020-12-05T15:45:09.095Z</time>
      </trkpt>
      <trkpt lat="48.79594" lon="2.2518">
        <ele>168</ele>
        <time>2020-12-05T15:45:10.095Z</time>
      </trkpt>
      <trkpt lat="48.79592" lon="2.25178">
        <ele>168</ele>
        <time>2020-12-05T15:45:11.095Z</time>
      </trkpt>
      <trkpt lat="48.79591" lon="2.25177">
        <ele>167</ele>
        <time>2020-12-05T15:45:12.095Z</time>
      </trkpt>
      <trkpt lat="48.7959" lon="2.25177">
        <ele>167</ele>
        <time>2020-12-05T15:45:13.094Z</time>
      </trkpt>
      <trkpt lat="48.7959" lon="2.25177">
        <ele>168</ele>
        <time>2020-12-05T15:45:14.095Z</time>
      </trkpt>
      <trkpt lat="48.79589" lon="2.25177">
        <ele>168</ele>
        <time>2020-12-05T15:45:15.095Z</time>
      </trkpt>
      <trkpt lat="48.79588" lon="2.25177">
        <ele>169</ele>
        <time>2020-12-05T15:45:16.095Z</time>
      </trkpt>
      <trkpt lat="48.79586" lon="2.25177">
        <ele>169</ele>
        <time>2020-12-05T15:45:17.095Z</time>
      </trkpt>
      <trkpt lat="48.79584" lon="2.25178">
        <ele>170</ele>
        <time>2020-12-05T15:45:18.095Z</time>
      </trkpt>
      <trkpt lat="48.79583" lon="2.25178">
        <ele>170</ele>
        <time>2020-12-05T15:45:19.095Z</time>
      </trkpt>
      <trkpt lat="48.79582" lon="2.25179">
        <ele>171</ele>
        <time>2020-12-05T15:45:20.095Z</time>
      </trkpt>
      <trkpt lat="48.79581" lon="2.2518">
        <ele>172</ele>
        <time>2020-12-05T15:45:21.095Z</time>
      </trkpt>
      <trkpt lat="48.7958" lon="2.25181">
        <ele>172</ele>
        <time>2020-12-05T15:45:22.095Z</time>
      </trkpt>
      <trkpt lat="48.79579" lon="2.25182">
        <ele>172</ele>
        <time>2020-12-05T15:45:23.094Z</time>
      </trkpt>
      <trkpt lat="48.79578" lon="2.25183">
        <ele>173</ele>
        <time>2020-12-05T15:45:24.094Z</time>
      </trkpt>
      <trkpt lat="48.79577" lon="2.25184">
        <ele>173</ele>
        <time>2020-12-05T15:45:25.094Z</time>
      </trkpt>
      <trkpt lat="48.79576" lon="2.25185">
        <ele>173</ele>
        <time>2020-12-05T15:45:26.094Z</time>
      </trkpt>
      <trkpt lat="48.79575" lon="2.25186">
        <ele>174</ele>
        <time>2020-12-05T15:45:27.094Z</time>
      </trkpt>
      <trkpt lat="48.79573" lon="2.25188">
        <ele>174</ele>
        <time>2020-12-05T15:45:28.094Z</time>
      </trkpt>
      <trkpt lat="48.79572" lon="2.25188">
        <ele>174</ele>
        <time>2020-12-05T15:45:29.095Z</time>
      </trkpt>
      <trkpt lat="48.79571" lon="2.25188">
        <ele>175</ele>
        <time>2020-12-05T15:45:30.094Z</time>
      </trkpt>
      <trkpt lat="48.79569" lon="2.25188">
        <ele>175</ele>
        <time>2020-12-05T15:45:31.094Z</time>
      </trkpt>
      <trkpt lat="48.79567" lon="2.25188">
        <ele>175</ele>
        <time>2020-12-05T15:45:32.094Z</time>
      </trkpt>
      <trkpt lat="48.79566" lon="2.25187">
        <ele>174</ele>
        <time>2020-12-05T15:45:33.094Z</time>
      </trkpt>
      <trkpt lat="48.79564" lon="2.25186">
        <ele>174</ele>
        <time>2020-12-05T15:45:34.095Z</time>
      </trkpt>
      <trkpt lat="48.79563" lon="2.25186">
        <ele>174</ele>
        <time>2020-12-05T15:45:35.094Z</time>
      </trkpt>
      <trkpt lat="48.79562" lon="2.25187">
        <ele>174</ele>
        <time>2020-12-05T15:45:36.094Z</time>
      </trkpt>
      <trkpt lat="48.79562" lon="2.25187">
        <ele>173</ele>
        <time>2020-12-05T15:45:37.094Z</time>
      </trkpt>
      <trkpt lat="48.79561" lon="2.25186">
        <ele>173</ele>
        <time>2020-12-05T15:45:38.094Z</time>
      </trkpt>
      <trkpt lat="48.79559" lon="2.25185">
        <ele>173</ele>
        <time>2020-12-05T15:45:39.094Z</time>
      </trkpt>
      <trkpt lat="48.79557" lon="2.25184">
        <ele>172</ele>
        <time>2020-12-05T15:45:40.094Z</time>
      </trkpt>
      <trkpt lat="48.79555" lon="2.25182">
        <ele>172</ele>
        <time>2020-12-05T15:45:41.094Z</time>
      </trkpt>
      <trkpt lat="48.79554" lon="2.25181">
        <ele>172</ele>
        <time>2020-12-05T15:45:42.095Z</time>
      </trkpt>
      <trkpt lat="48.79552" lon="2.2518">
        <ele>171</ele>
        <time>2020-12-05T15:45:43.095Z</time>
      </trkpt>
      <trkpt lat="48.7955" lon="2.25179">
        <ele>171</ele>
        <time>2020-12-05T15:45:44.095Z</time>
      </trkpt>
      <trkpt lat="48.79547" lon="2.25178">
        <ele>170</ele>
        <time>2020-12-05T15:45:45.094Z</time>
      </trkpt>
      <trkpt lat="48.79545" lon="2.25176">
        <ele>170</ele>
        <time>2020-12-05T15:45:46.095Z</time>
      </trkpt>
      <trkpt lat="48.79543" lon="2.25174">
        <ele>169</ele>
        <time>2020-12-05T15:45:47.095Z</time>
      </trkpt>
      <trkpt lat="48.79542" lon="2.25173">
        <ele>169</ele>
        <time>2020-12-05T15:45:48.095Z</time>
      </trkpt>
      <trkpt lat="48.79541" lon="2.25171">
        <ele>168</ele>
        <time>2020-12-05T15:45:49.094Z</time>
      </trkpt>
      <trkpt lat="48.7954" lon="2.25169">
        <ele>168</ele>
        <time>2020-12-05T15:45:50.095Z</time>
      </trkpt>
      <trkpt lat="48.79538" lon="2.25169">
        <ele>167</ele>
        <time>2020-12-05T15:45:51.094Z</time>
      </trkpt>
      <trkpt lat="48.79537" lon="2.25169">
        <ele>167</ele>
        <time>2020-12-05T15:45:52.094Z</time>
      </trkpt>
      <trkpt lat="48.79535" lon="2.25169">
        <ele>167</ele>
        <time>2020-12-05T15:45:53.094Z</time>
      </trkpt>
      <trkpt lat="48.79534" lon="2.25168">
        <ele>167</ele>
        <time>2020-12-05T15:45:54.095Z</time>
      </trkpt>
      <trkpt lat="48.79533" lon="2.25167">
        <ele>167</ele>
        <time>2020-12-05T15:45:55.094Z</time>
      </trkpt>
      <trkpt lat="48.79532" lon="2.25167">
        <ele>167</ele>
        <time>2020-12-05T15:45:56.094Z</time>
      </trkpt>
      <trkpt lat="48.79531" lon="2.25167">
        <ele>168</ele>
        <time>2020-12-05T15:45:57.095Z</time>
      </trkpt>
      <trkpt lat="48.7953" lon="2.25168">
        <ele>168</ele>
        <time>2020-12-05T15:45:58.094Z</time>
      </trkpt>
      <trkpt lat="48.79529" lon="2.25168">
        <ele>170</ele>
        <time>2020-12-05T15:45:59.094Z</time>
      </trkpt>
      <trkpt lat="48.79528" lon="2.25168">
        <ele>171</ele>
        <time>2020-12-05T15:46:00.095Z</time>
      </trkpt>
      <trkpt lat="48.79528" lon="2.25167">
        <ele>172</ele>
        <time>2020-12-05T15:46:01.095Z</time>
      </trkpt>
      <trkpt lat="48.79527" lon="2.25168">
        <ele>173</ele>
        <time>2020-12-05T15:46:02.095Z</time>
      </trkpt>
      <trkpt lat="48.79526" lon="2.25168">
        <ele>174</ele>
        <time>2020-12-05T15:46:03.095Z</time>
      </trkpt>
      <trkpt lat="48.79525" lon="2.25168">
        <ele>174</ele>
        <time>2020-12-05T15:46:04.094Z</time>
      </trkpt>
      <trkpt lat="48.79524" lon="2.25168">
        <ele>175</ele>
        <time>2020-12-05T15:46:05.095Z</time>
      </trkpt>
      <trkpt lat="48.79522" lon="2.25169">
        <ele>175</ele>
        <time>2020-12-05T15:46:06.095Z</time>
      </trkpt>
      <trkpt lat="48.7952" lon="2.2517">
        <ele>176</ele>
        <time>2020-12-05T15:46:07.095Z</time>
      </trkpt>
      <trkpt lat="48.79518" lon="2.2517">
        <ele>177</ele>
        <time>2020-12-05T15:46:08.095Z</time>
      </trkpt>
      <trkpt lat="48.79516" lon="2.2517">
        <ele>177</ele>
        <time>2020-12-05T15:46:09.095Z</time>
      </trkpt>
      <trkpt lat="48.79515" lon="2.25171">
        <ele>178</ele>
        <time>2020-12-05T15:46:10.095Z</time>
      </trkpt>
      <trkpt lat="48.79515" lon="2.25172">
        <ele>179</ele>
        <time>2020-12-05T15:46:11.095Z</time>
      </trkpt>
      <trkpt lat="48.79513" lon="2.25172">
        <ele>180</ele>
        <time>2020-12-05T15:46:12.094Z</time>
      </trkpt>
      <trkpt lat="48.79512" lon="2.25173">
        <ele>181</ele>
        <time>2020-12-05T15:46:13.095Z</time>
      </trkpt>
      <trkpt lat="48.7951" lon="2.25173">
        <ele>182</ele>
        <time>2020-12-05T15:46:14.094Z</time>
      </trkpt>
      <trkpt lat="48.79508" lon="2.25174">
        <ele>183</ele>
        <time>2020-12-05T15:46:15.095Z</time>
      </trkpt>
      <trkpt lat="48.79506" lon="2.25173">
        <ele>184</ele>
        <time>2020-12-05T15:46:16.095Z</time>
      </trkpt>
      <trkpt lat="48.79505" lon="2.25172">
        <ele>184</ele>
        <time>2020-12-05T15:46:17.095Z</time>
      </trkpt>
      <trkpt lat="48.79505" lon="2.25171">
        <ele>185</ele>
        <time>2020-12-05T15:46:18.095Z</time>
      </trkpt>
      <trkpt lat="48.79504" lon="2.2517">
        <ele>185</ele>
        <time>2020-12-05T15:46:19.095Z</time>
      </trkpt>
      <trkpt lat="48.79504" lon="2.25167">
        <ele>185</ele>
        <time>2020-12-05T15:46:20.095Z</time>
      </trkpt>
      <trkpt lat="48.79502" lon="2.25164">
        <ele>185</ele>
        <time>2020-12-05T15:46:21.095Z</time>
      </trkpt>
      <trkpt lat="48.79501" lon="2.25163">
        <ele>185</ele>
        <time>2020-12-05T15:46:22.095Z</time>
      </trkpt>
      <trkpt lat="48.795" lon="2.25161">
        <ele>184</ele>
        <time>2020-12-05T15:46:23.095Z</time>
      </trkpt>
      <trkpt lat="48.79499" lon="2.2516">
        <ele>184</ele>
        <time>2020-12-05T15:46:24.095Z</time>
      </trkpt>
      <trkpt lat="48.79498" lon="2.25158">
        <ele>183</ele>
        <time>2020-12-05T15:46:25.095Z</time>
      </trkpt>
      <trkpt lat="48.79496" lon="2.25156">
        <ele>183</ele>
        <time>2020-12-05T15:46:26.095Z</time>
      </trkpt>
      <trkpt lat="48.79495" lon="2.25155">
        <ele>183</ele>
        <time>2020-12-05T15:46:27.094Z</time>
      </trkpt>
      <trkpt lat="48.79495" lon="2.25153">
        <ele>182</ele>
        <time>2020-12-05T15:46:28.095Z</time>
      </trkpt>
      <trkpt lat="48.79495" lon="2.25151">
        <ele>182</ele>
        <time>2020-12-05T15:46:29.094Z</time>
      </trkpt>
      <trkpt lat="48.79495" lon="2.2515">
        <ele>181</ele>
        <time>2020-12-05T15:46:30.094Z</time>
      </trkpt>
      <trkpt lat="48.79495" lon="2.2515">
        <ele>181</ele>
        <time>2020-12-05T15:46:31.095Z</time>
      </trkpt>
      <trkpt lat="48.79495" lon="2.25149">
        <ele>181</ele>
        <time>2020-12-05T15:46:32.094Z</time>
      </trkpt>
      <trkpt lat="48.79495" lon="2.25148">
        <ele>180</ele>
        <time>2020-12-05T15:46:33.095Z</time>
      </trkpt>
      <trkpt lat="48.79496" lon="2.25147">
        <ele>180</ele>
        <time>2020-12-05T15:46:34.095Z</time>
      </trkpt>
      <trkpt lat="48.79496" lon="2.25146">
        <ele>180</ele>
        <time>2020-12-05T15:46:35.094Z</time>
      </trkpt>
      <trkpt lat="48.79496" lon="2.25145">
        <ele>179</ele>
        <time>2020-12-05T15:46:36.095Z</time>
      </trkpt>
      <trkpt lat="48.79496" lon="2.25145">
        <ele>179</ele>
        <time>2020-12-05T15:46:37.095Z</time>
      </trkpt>
      <trkpt lat="48.79495" lon="2.25145">
        <ele>179</ele>
        <time>2020-12-05T15:46:38.095Z</time>
      </trkpt>
      <trkpt lat="48.79494" lon="2.25144">
        <ele>178</ele>
        <time>2020-12-05T15:46:39.095Z</time>
      </trkpt>
      <trkpt lat="48.79493" lon="2.25144">
        <ele>178</ele>
        <time>2020-12-05T15:46:40.095Z</time>
      </trkpt>
      <trkpt lat="48.79493" lon="2.25143">
        <ele>177</ele>
        <time>2020-12-05T15:46:41.095Z</time>
      </trkpt>
      <trkpt lat="48.79494" lon="2.25142">
        <ele>177</ele>
        <time>2020-12-05T15:46:42.095Z</time>
      </trkpt>
      <trkpt lat="48.79494" lon="2.25141">
        <ele>177</ele>
        <time>2020-12-05T15:46:43.095Z</time>
      </trkpt>
      <trkpt lat="48.79493" lon="2.2514">
        <ele>177</ele>
        <time>2020-12-05T15:46:44.095Z</time>
      </trkpt>
      <trkpt lat="48.79492" lon="2.25138">
        <ele>177</ele>
        <time>2020-12-05T15:46:45.095Z</time>
      </trkpt>
      <trkpt lat="48.79491" lon="2.25136">
        <ele>177</ele>
        <time>2020-12-05T15:46:46.094Z</time>
      </trkpt>
      <trkpt lat="48.79491" lon="2.25134">
        <ele>177</ele>
        <time>2020-12-05T15:46:47.095Z</time>
      </trkpt>
      <trkpt lat="48.7949" lon="2.25133">
        <ele>177</ele>
        <time>2020-12-05T15:46:48.095Z</time>
      </trkpt>
      <trkpt lat="48.7949" lon="2.25133">
        <ele>177</ele>
        <time>2020-12-05T15:46:49.095Z</time>
      </trkpt>
      <trkpt lat="48.7949" lon="2.25132">
        <ele>176</ele>
        <time>2020-12-05T15:46:50.095Z</time>
      </trkpt>
      <trkpt lat="48.79491" lon="2.25131">
        <ele>176</ele>
        <time>2020-12-05T15:46:51.094Z</time>
      </trkpt>
      <trkpt lat="48.79491" lon="2.2513">
        <ele>176</ele>
        <time>2020-12-05T15:46:52.095Z</time>
      </trkpt>
      <trkpt lat="48.79492" lon="2.25128">
        <ele>176</ele>
        <time>2020-12-05T15:46:53.094Z</time>
      </trkpt>
      <trkpt lat="48.79493" lon="2.25126">
        <ele>176</ele>
        <time>2020-12-05T15:46:54.094Z</time>
      </trkpt>
      <trkpt lat="48.79494" lon="2.25124">
        <ele>176</ele>
        <time>2020-12-05T15:46:55.095Z</time>
      </trkpt>
      <trkpt lat="48.79495" lon="2.25122">
        <ele>176</ele>
        <time>2020-12-05T15:46:56.095Z</time>
      </trkpt>
      <trkpt lat="48.79496" lon="2.2512">
        <ele>176</ele>
        <time>2020-12-05T15:46:57.095Z</time>
      </trkpt>
      <trkpt lat="48.79497" lon="2.25118">
        <ele>176</ele>
        <time>2020-12-05T15:46:58.095Z</time>
      </trkpt>
      <trkpt lat="48.79497" lon="2.25116">
        <ele>176</ele>
        <time>2020-12-05T15:46:59.095Z</time>
      </trkpt>
      <trkpt lat="48.79498" lon="2.25114">
        <ele>176</ele>
        <time>2020-12-05T15:47:00.095Z</time>
      </trkpt>
      <trkpt lat="48.79498" lon="2.25112">
        <ele>176</ele>
        <time>2020-12-05T15:47:01.095Z</time>
      </trkpt>
      <trkpt lat="48.79498" lon="2.2511">
        <ele>176</ele>
        <time>2020-12-05T15:47:02.095Z</time>
      </trkpt>
      <trkpt lat="48.79498" lon="2.25108">
        <ele>176</ele>
        <time>2020-12-05T15:47:03.094Z</time>
      </trkpt>
      <trkpt lat="48.79499" lon="2.25106">
        <ele>175</ele>
        <time>2020-12-05T15:47:04.095Z</time>
      </trkpt>
      <trkpt lat="48.79499" lon="2.25104">
        <ele>175</ele>
        <time>2020-12-05T15:47:05.094Z</time>
      </trkpt>
      <trkpt lat="48.79499" lon="2.25102">
        <ele>175</ele>
        <time>2020-12-05T15:47:06.095Z</time>
      </trkpt>
      <trkpt lat="48.795" lon="2.25101">
        <ele>175</ele>
        <time>2020-12-05T15:47:07.094Z</time>
      </trkpt>
      <trkpt lat="48.795" lon="2.25099">
        <ele>175</ele>
        <time>2020-12-05T15:47:08.095Z</time>
      </trkpt>
      <trkpt lat="48.79501" lon="2.25099">
        <ele>175</ele>
        <time>2020-12-05T15:47:09.095Z</time>
      </trkpt>
      <trkpt lat="48.79502" lon="2.25097">
        <ele>175</ele>
        <time>2020-12-05T15:47:10.095Z</time>
      </trkpt>
      <trkpt lat="48.79502" lon="2.25096">
        <ele>175</ele>
        <time>2020-12-05T15:47:11.095Z</time>
      </trkpt>
      <trkpt lat="48.79504" lon="2.25095">
        <ele>175</ele>
        <time>2020-12-05T15:47:12.095Z</time>
      </trkpt>
      <trkpt lat="48.79505" lon="2.25093">
        <ele>174</ele>
        <time>2020-12-05T15:47:13.095Z</time>
      </trkpt>
      <trkpt lat="48.79506" lon="2.25092">
        <ele>174</ele>
        <time>2020-12-05T15:47:14.095Z</time>
      </trkpt>
      <trkpt lat="48.79507" lon="2.25091">
        <ele>174</ele>
        <time>2020-12-05T15:47:15.095Z</time>
      </trkpt>
      <trkpt lat="48.79509" lon="2.2509">
        <ele>173</ele>
        <time>2020-12-05T15:47:16.094Z</time>
      </trkpt>
      <trkpt lat="48.79509" lon="2.25089">
        <ele>173</ele>
        <time>2020-12-05T15:47:17.095Z</time>
      </trkpt>
      <trkpt lat="48.7951" lon="2.25087">
        <ele>173</ele>
        <time>2020-12-05T15:47:18.095Z</time>
      </trkpt>
      <trkpt lat="48.79511" lon="2.25086">
        <ele>173</ele>
        <time>2020-12-05T15:47:19.094Z</time>
      </trkpt>
      <trkpt lat="48.79512" lon="2.25085">
        <ele>172</ele>
        <time>2020-12-05T15:47:20.095Z</time>
      </trkpt>
      <trkpt lat="48.79514" lon="2.25083">
        <ele>172</ele>
        <time>2020-12-05T15:47:21.095Z</time>
      </trkpt>
      <trkpt lat="48.79515" lon="2.25082">
        <ele>172</ele>
        <time>2020-12-05T15:47:22.095Z</time>
      </trkpt>
      <trkpt lat="48.79517" lon="2.2508">
        <ele>172</ele>
        <time>2020-12-05T15:47:23.095Z</time>
      </trkpt>
      <trkpt lat="48.79517" lon="2.25078">
        <ele>172</ele>
        <time>2020-12-05T15:47:24.095Z</time>
      </trkpt>
      <trkpt lat="48.79518" lon="2.25076">
        <ele>172</ele>
        <time>2020-12-05T15:47:25.095Z</time>
      </trkpt>
      <trkpt lat="48.79518" lon="2.25073">
        <ele>172</ele>
        <time>2020-12-05T15:47:26.095Z</time>
      </trkpt>
      <trkpt lat="48.79518" lon="2.25071">
        <ele>171</ele>
        <time>2020-12-05T15:47:27.095Z</time>
      </trkpt>
      <trkpt lat="48.79519" lon="2.25068">
        <ele>171</ele>
        <time>2020-12-05T15:47:28.095Z</time>
      </trkpt>
      <trkpt lat="48.7952" lon="2.25067">
        <ele>171</ele>
        <time>2020-12-05T15:47:29.095Z</time>
      </trkpt>
      <trkpt lat="48.79521" lon="2.25065">
        <ele>171</ele>
        <time>2020-12-05T15:47:30.095Z</time>
      </trkpt>
      <trkpt lat="48.79523" lon="2.25063">
        <ele>170</ele>
        <time>2020-12-05T15:47:31.095Z</time>
      </trkpt>
      <trkpt lat="48.79524" lon="2.25061">
        <ele>170</ele>
        <time>2020-12-05T15:47:32.095Z</time>
      </trkpt>
      <trkpt lat="48.79525" lon="2.2506">
        <ele>170</ele>
        <time>2020-12-05T15:47:33.094Z</time>
      </trkpt>
      <trkpt lat="48.79525" lon="2.25059">
        <ele>170</ele>
        <time>2020-12-05T15:47:34.095Z</time>
      </trkpt>
      <trkpt lat="48.79526" lon="2.25057">
        <ele>170</ele>
        <time>2020-12-05T15:47:35.095Z</time>
      </trkpt>
      <trkpt lat="48.79527" lon="2.25054">
        <ele>169</ele>
        <time>2020-12-05T15:47:36.095Z</time>
      </trkpt>
      <trkpt lat="48.79527" lon="2.25052">
        <ele>169</ele>
        <time>2020-12-05T15:47:37.095Z</time>
      </trkpt>
      <trkpt lat="48.79527" lon="2.2505">
        <ele>169</ele>
        <time>2020-12-05T15:47:38.095Z</time>
      </trkpt>
      <trkpt lat="48.79528" lon="2.25048">
        <ele>168</ele>
        <time>2020-12-05T15:47:39.095Z</time>
      </trkpt>
      <trkpt lat="48.79529" lon="2.25047">
        <ele>168</ele>
        <time>2020-12-05T15:47:40.094Z</time>
      </trkpt>
      <trkpt lat="48.7953" lon="2.25046">
        <ele>167</ele>
        <time>2020-12-05T15:47:41.095Z</time>
      </trkpt>
      <trkpt lat="48.79531" lon="2.25044">
        <ele>167</ele>
        <time>2020-12-05T15:47:42.094Z</time>
      </trkpt>
      <trkpt lat="48.79532" lon="2.25043">
        <ele>166</ele>
        <time>2020-12-05T15:47:43.094Z</time>
      </trkpt>
      <trkpt lat="48.79533" lon="2.25041">
        <ele>166</ele>
        <time>2020-12-05T15:47:44.095Z</time>
      </trkpt>
      <trkpt lat="48.79534" lon="2.2504">
        <ele>166</ele>
        <time>2020-12-05T15:47:45.094Z</time>
      </trkpt>
      <trkpt lat="48.79535" lon="2.25039">
        <ele>165</ele>
        <time>2020-12-05T15:47:46.095Z</time>
      </trkpt>
      <trkpt lat="48.79536" lon="2.25038">
        <ele>165</ele>
        <time>2020-12-05T15:47:47.094Z</time>
      </trkpt>
      <trkpt lat="48.79537" lon="2.25037">
        <ele>165</ele>
        <time>2020-12-05T15:47:48.095Z</time>
      </trkpt>
      <trkpt lat="48.79539" lon="2.25035">
        <ele>165</ele>
        <time>2020-12-05T15:47:49.095Z</time>
      </trkpt>
      <trkpt lat="48.7954" lon="2.25034">
        <ele>165</ele>
        <time>2020-12-05T15:47:50.095Z</time>
      </trkpt>
      <trkpt lat="48.79541" lon="2.25032">
        <ele>165</ele>
        <time>2020-12-05T15:47:51.095Z</time>
      </trkpt>
      <trkpt lat="48.79542" lon="2.25031">
        <ele>166</ele>
        <time>2020-12-05T15:47:52.095Z</time>
      </trkpt>
      <trkpt lat="48.79542" lon="2.25029">
        <ele>166</ele>
        <time>2020-12-05T15:47:53.095Z</time>
      </trkpt>
      <trkpt lat="48.79542" lon="2.25028">
        <ele>166</ele>
        <time>2020-12-05T15:47:54.095Z</time>
      </trkpt>
      <trkpt lat="48.79543" lon="2.25027">
        <ele>167</ele>
        <time>2020-12-05T15:47:55.094Z</time>
      </trkpt>
      <trkpt lat="48.79544" lon="2.25025">
        <ele>167</ele>
        <time>2020-12-05T15:47:56.094Z</time>
      </trkpt>
      <trkpt lat="48.79545" lon="2.25024">
        <ele>167</ele>
        <time>2020-12-05T15:47:57.094Z</time>
      </trkpt>
      <trkpt lat="48.79546" lon="2.25023">
        <ele>168</ele>
        <time>2020-12-05T15:47:58.095Z</time>
      </trkpt>
      <trkpt lat="48.79546" lon="2.25022">
        <ele>168</ele>
        <time>2020-12-05T15:47:59.095Z</time>
      </trkpt>
      <trkpt lat="48.79547" lon="2.25021">
        <ele>168</ele>
        <time>2020-12-05T15:48:00.094Z</time>
      </trkpt>
      <trkpt lat="48.79548" lon="2.2502">
        <ele>168</ele>
        <time>2020-12-05T15:48:01.095Z</time>
      </trkpt>
      <trkpt lat="48.79548" lon="2.25018">
        <ele>169</ele>
        <time>2020-12-05T15:48:02.095Z</time>
      </trkpt>
      <trkpt lat="48.79548" lon="2.25017">
        <ele>169</ele>
        <time>2020-12-05T15:48:03.094Z</time>
      </trkpt>
      <trkpt lat="48.79549" lon="2.25015">
        <ele>169</ele>
        <time>2020-12-05T15:48:04.095Z</time>
      </trkpt>
      <trkpt lat="48.79549" lon="2.25012">
        <ele>169</ele>
        <time>2020-12-05T15:48:05.094Z</time>
      </trkpt>
      <trkpt lat="48.7955" lon="2.25011">
        <ele>169</ele>
        <time>2020-12-05T15:48:06.095Z</time>
      </trkpt>
      <trkpt lat="48.79551" lon="2.25009">
        <ele>169</ele>
        <time>2020-12-05T15:48:07.095Z</time>
      </trkpt>
      <trkpt lat="48.79553" lon="2.25008">
        <ele>169</ele>
        <time>2020-12-05T15:48:08.095Z</time>
      </trkpt>
      <trkpt lat="48.79554" lon="2.25007">
        <ele>169</ele>
        <time>2020-12-05T15:48:09.095Z</time>
      </trkpt>
      <trkpt lat="48.79555" lon="2.25006">
        <ele>169</ele>
        <time>2020-12-05T15:48:10.095Z</time>
      </trkpt>
      <trkpt lat="48.79555" lon="2.25004">
        <ele>169</ele>
        <time>2020-12-05T15:48:11.094Z</time>
      </trkpt>
      <trkpt lat="48.79555" lon="2.25002">
        <ele>169</ele>
        <time>2020-12-05T15:48:12.094Z</time>
      </trkpt>
      <trkpt lat="48.79555" lon="2.25">
        <ele>169</ele>
        <time>2020-12-05T15:48:13.095Z</time>
      </trkpt>
      <trkpt lat="48.79555" lon="2.24998">
        <ele>170</ele>
        <time>2020-12-05T15:48:14.094Z</time>
      </trkpt>
      <trkpt lat="48.79556" lon="2.24996">
        <ele>170</ele>
        <time>2020-12-05T15:48:15.094Z</time>
      </trkpt>
      <trkpt lat="48.79556" lon="2.24993">
        <ele>170</ele>
        <time>2020-12-05T15:48:16.094Z</time>
      </trkpt>
      <trkpt lat="48.79557" lon="2.2499">
        <ele>170</ele>
        <time>2020-12-05T15:48:17.094Z</time>
      </trkpt>
      <trkpt lat="48.79557" lon="2.24988">
        <ele>170</ele>
        <time>2020-12-05T15:48:18.095Z</time>
      </trkpt>
      <trkpt lat="48.79558" lon="2.24986">
        <ele>170</ele>
        <time>2020-12-05T15:48:19.094Z</time>
      </trkpt>
      <trkpt lat="48.79559" lon="2.24984">
        <ele>170</ele>
        <time>2020-12-05T15:48:20.095Z</time>
      </trkpt>
      <trkpt lat="48.7956" lon="2.24982">
        <ele>170</ele>
        <time>2020-12-05T15:48:21.095Z</time>
      </trkpt>
      <trkpt lat="48.79562" lon="2.2498">
        <ele>170</ele>
        <time>2020-12-05T15:48:22.095Z</time>
      </trkpt>
      <trkpt lat="48.79562" lon="2.24978">
        <ele>170</ele>
        <time>2020-12-05T15:48:23.095Z</time>
      </trkpt>
      <trkpt lat="48.79563" lon="2.24977">
        <ele>170</ele>
        <time>2020-12-05T15:48:24.095Z</time>
      </trkpt>
      <trkpt lat="48.79564" lon="2.24976">
        <ele>170</ele>
        <time>2020-12-05T15:48:25.095Z</time>
      </trkpt>
      <trkpt lat="48.79565" lon="2.24974">
        <ele>170</ele>
        <time>2020-12-05T15:48:26.095Z</time>
      </trkpt>
      <trkpt lat="48.79566" lon="2.24972">
        <ele>169</ele>
        <time>2020-12-05T15:48:27.095Z</time>
      </trkpt>
      <trkpt lat="48.79567" lon="2.24971">
        <ele>169</ele>
        <time>2020-12-05T15:48:28.094Z</time>
      </trkpt>
      <trkpt lat="48.79568" lon="2.24969">
        <ele>169</ele>
        <time>2020-12-05T15:48:29.095Z</time>
      </trkpt>
      <trkpt lat="48.79569" lon="2.24968">
        <ele>169</ele>
        <time>2020-12-05T15:48:30.094Z</time>
      </trkpt>
      <trkpt lat="48.79569" lon="2.24966">
        <ele>168</ele>
        <time>2020-12-05T15:48:31.095Z</time>
      </trkpt>
      <trkpt lat="48.7957" lon="2.24963">
        <ele>168</ele>
        <time>2020-12-05T15:48:32.094Z</time>
      </trkpt>
      <trkpt lat="48.79571" lon="2.24961">
        <ele>167</ele>
        <time>2020-12-05T15:48:33.095Z</time>
      </trkpt>
      <trkpt lat="48.79572" lon="2.24959">
        <ele>167</ele>
        <time>2020-12-05T15:48:34.095Z</time>
      </trkpt>
      <trkpt lat="48.79572" lon="2.24957">
        <ele>166</ele>
        <time>2020-12-05T15:48:35.095Z</time>
      </trkpt>
      <trkpt lat="48.79571" lon="2.24955">
        <ele>166</ele>
        <time>2020-12-05T15:48:36.095Z</time>
      </trkpt>
      <trkpt lat="48.79572" lon="2.24953">
        <ele>165</ele>
        <time>2020-12-05T15:48:37.095Z</time>
      </trkpt>
      <trkpt lat="48.79573" lon="2.24951">
        <ele>164</ele>
        <time>2020-12-05T15:48:38.094Z</time>
      </trkpt>
      <trkpt lat="48.79573" lon="2.24949">
        <ele>164</ele>
        <time>2020-12-05T15:48:39.095Z</time>
      </trkpt>
      <trkpt lat="48.79574" lon="2.24948">
        <ele>163</ele>
        <time>2020-12-05T15:48:40.094Z</time>
      </trkpt>
      <trkpt lat="48.79576" lon="2.24947">
        <ele>163</ele>
        <time>2020-12-05T15:48:41.095Z</time>
      </trkpt>
      <trkpt lat="48.79578" lon="2.24946">
        <ele>162</ele>
        <time>2020-12-05T15:48:42.094Z</time>
      </trkpt>
      <trkpt lat="48.79581" lon="2.24944">
        <ele>162</ele>
        <time>2020-12-05T15:48:43.095Z</time>
      </trkpt>
      <trkpt lat="48.79582" lon="2.24942">
        <ele>162</ele>
        <time>2020-12-05T15:48:44.095Z</time>
      </trkpt>
      <trkpt lat="48.79583" lon="2.2494">
        <ele>162</ele>
        <time>2020-12-05T15:48:45.095Z</time>
      </trkpt>
      <trkpt lat="48.79583" lon="2.24939">
        <ele>162</ele>
        <time>2020-12-05T15:48:46.095Z</time>
      </trkpt>
      <trkpt lat="48.79584" lon="2.24937">
        <ele>162</ele>
        <time>2020-12-05T15:48:47.095Z</time>
      </trkpt>
      <trkpt lat="48.79585" lon="2.24936">
        <ele>162</ele>
        <time>2020-12-05T15:48:48.094Z</time>
      </trkpt>
      <trkpt lat="48.79586" lon="2.24934">
        <ele>163</ele>
        <time>2020-12-05T15:48:49.095Z</time>
      </trkpt>
      <trkpt lat="48.79586" lon="2.24932">
        <ele>163</ele>
        <time>2020-12-05T15:48:50.094Z</time>
      </trkpt>
      <trkpt lat="48.79587" lon="2.2493">
        <ele>163</ele>
        <time>2020-12-05T15:48:51.095Z</time>
      </trkpt>
      <trkpt lat="48.79588" lon="2.24929">
        <ele>164</ele>
        <time>2020-12-05T15:48:52.095Z</time>
      </trkpt>
      <trkpt lat="48.79589" lon="2.24927">
        <ele>164</ele>
        <time>2020-12-05T15:48:53.094Z</time>
      </trkpt>
      <trkpt lat="48.7959" lon="2.24926">
        <ele>164</ele>
        <time>2020-12-05T15:48:54.094Z</time>
      </trkpt>
      <trkpt lat="48.7959" lon="2.24924">
        <ele>164</ele>
        <time>2020-12-05T15:48:55.094Z</time>
      </trkpt>
      <trkpt lat="48.79591" lon="2.24923">
        <ele>164</ele>
        <time>2020-12-05T15:48:56.095Z</time>
      </trkpt>
      <trkpt lat="48.79591" lon="2.24923">
        <ele>164</ele>
        <time>2020-12-05T15:48:57.095Z</time>
      </trkpt>
      <trkpt lat="48.79592" lon="2.24923">
        <ele>164</ele>
        <time>2020-12-05T15:48:58.094Z</time>
      </trkpt>
      <trkpt lat="48.79592" lon="2.24923">
        <ele>164</ele>
        <time>2020-12-05T15:48:59.095Z</time>
      </trkpt>
      <trkpt lat="48.79592" lon="2.24921">
        <ele>164</ele>
        <time>2020-12-05T15:49:00.095Z</time>
      </trkpt>
      <trkpt lat="48.79593" lon="2.24919">
        <ele>164</ele>
        <time>2020-12-05T15:49:01.095Z</time>
      </trkpt>
      <trkpt lat="48.79593" lon="2.24919">
        <ele>165</ele>
        <time>2020-12-05T15:49:02.095Z</time>
      </trkpt>
      <trkpt lat="48.79595" lon="2.24919">
        <ele>165</ele>
        <time>2020-12-05T15:49:03.095Z</time>
      </trkpt>
      <trkpt lat="48.79595" lon="2.24919">
        <ele>166</ele>
        <time>2020-12-05T15:49:04.094Z</time>
      </trkpt>
      <trkpt lat="48.79597" lon="2.2492">
        <ele>166</ele>
        <time>2020-12-05T15:49:05.095Z</time>
      </trkpt>
      <trkpt lat="48.79598" lon="2.2492">
        <ele>167</ele>
        <time>2020-12-05T15:49:06.094Z</time>
      </trkpt>
      <trkpt lat="48.79598" lon="2.2492">
        <ele>167</ele>
        <time>2020-12-05T15:49:07.094Z</time>
      </trkpt>
      <trkpt lat="48.79598" lon="2.24919">
        <ele>168</ele>
        <time>2020-12-05T15:49:08.095Z</time>
      </trkpt>
      <trkpt lat="48.79597" lon="2.24919">
        <ele>168</ele>
        <time>2020-12-05T15:49:09.094Z</time>
      </trkpt>
      <trkpt lat="48.79596" lon="2.24919">
        <ele>169</ele>
        <time>2020-12-05T15:49:10.095Z</time>
      </trkpt>
      <trkpt lat="48.79595" lon="2.24919">
        <ele>169</ele>
        <time>2020-12-05T15:49:11.094Z</time>
      </trkpt>
      <trkpt lat="48.79595" lon="2.24919">
        <ele>169</ele>
        <time>2020-12-05T15:49:12.095Z</time>
      </trkpt>
      <trkpt lat="48.79595" lon="2.2492">
        <ele>169</ele>
        <time>2020-12-05T15:49:13.095Z</time>
      </trkpt>
      <trkpt lat="48.79594" lon="2.2492">
        <ele>168</ele>
        <time>2020-12-05T15:49:14.095Z</time>
      </trkpt>
      <trkpt lat="48.79594" lon="2.2492">
        <ele>168</ele>
        <time>2020-12-05T15:49:15.094Z</time>
      </trkpt>
      <trkpt lat="48.79595" lon="2.24919">
        <ele>167</ele>
        <time>2020-12-05T15:49:16.095Z</time>
      </trkpt>
      <trkpt lat="48.79595" lon="2.2492">
        <ele>167</ele>
        <time>2020-12-05T15:49:17.095Z</time>
      </trkpt>
      <trkpt lat="48.79595" lon="2.2492">
        <ele>166</ele>
        <time>2020-12-05T15:49:18.095Z</time>
      </trkpt>
      <trkpt lat="48.79595" lon="2.24921">
        <ele>166</ele>
        <time>2020-12-05T15:49:19.095Z</time>
      </trkpt>
      <trkpt lat="48.79595" lon="2.24921">
        <ele>166</ele>
        <time>2020-12-05T15:49:20.095Z</time>
      </trkpt>
      <trkpt lat="48.79594" lon="2.24921">
        <ele>166</ele>
        <time>2020-12-05T15:49:21.094Z</time>
      </trkpt>
      <trkpt lat="48.79593" lon="2.2492">
        <ele>166</ele>
        <time>2020-12-05T15:49:22.095Z</time>
      </trkpt>
      <trkpt lat="48.79592" lon="2.2492">
        <ele>166</ele>
        <time>2020-12-05T15:49:23.094Z</time>
      </trkpt>
      <trkpt lat="48.79592" lon="2.24919">
        <ele>166</ele>
        <time>2020-12-05T15:49:24.095Z</time>
      </trkpt>
      <trkpt lat="48.79591" lon="2.24919">
        <ele>166</ele>
        <time>2020-12-05T15:49:25.094Z</time>
      </trkpt>
      <trkpt lat="48.7959" lon="2.24918">
        <ele>167</ele>
        <time>2020-12-05T15:49:26.094Z</time>
      </trkpt>
      <trkpt lat="48.7959" lon="2.24918">
        <ele>167</ele>
        <time>2020-12-05T15:49:27.095Z</time>
      </trkpt>
      <trkpt lat="48.7959" lon="2.24918">
        <ele>167</ele>
        <time>2020-12-05T15:49:28.094Z</time>
      </trkpt>
      <trkpt lat="48.7959" lon="2.24918">
        <ele>167</ele>
        <time>2020-12-05T15:49:29.094Z</time>
      </trkpt>
      <trkpt lat="48.7959" lon="2.24918">
        <ele>167</ele>
        <time>2020-12-05T15:49:30.094Z</time>
      </trkpt>
      <trkpt lat="48.7959" lon="2.24918">
        <ele>167</ele>
        <time>2020-12-05T15:49:31.094Z</time>
      </trkpt>
      <trkpt lat="48.7959" lon="2.24918">
        <ele>167</ele>
        <time>2020-12-05T15:49:32.095Z</time>
      </trkpt>
      <trkpt lat="48.7959" lon="2.24918">
        <ele>167</ele>
        <time>2020-12-05T15:49:33.095Z</time>
      </trkpt>
      <trkpt lat="48.7959" lon="2.24918">
        <ele>167</ele>
        <time>2020-12-05T15:49:34.094Z</time>
      </trkpt>
      <trkpt lat="48.7959" lon="2.24918">
        <ele>167</ele>
        <time>2020-12-05T15:49:35.094Z</time>
      </trkpt>
      <trkpt lat="48.7959" lon="2.24918">
        <ele>167</ele>
        <time>2020-12-05T15:49:36.095Z</time>
      </trkpt>
      <trkpt lat="48.7959" lon="2.24918">
        <ele>167</ele>
        <time>2020-12-05T15:49:37.094Z</time>
      </trkpt>
      <trkpt lat="48.7959" lon="2.24918">
        <ele>167</ele>
        <time>2020-12-05T15:49:38.095Z</time>
      </trkpt>
      <trkpt lat="48.7959" lon="2.24918">
        <ele>167</ele>
        <time>2020-12-05T15:49:39.094Z</time>
      </trkpt>
      <trkpt lat="48.7959" lon="2.24918">
        <ele>167</ele>
        <time>2020-12-05T15:49:40.095Z</time>
      </trkpt>
      <trkpt lat="48.79589" lon="2.24918">
        <ele>167</ele>
        <time>2020-12-05T15:49:41.094Z</time>
      </trkpt>
      <trkpt lat="48.7959" lon="2.24917">
        <ele>167</ele>
        <time>2020-12-05T15:49:42.095Z</time>
      </trkpt>
      <trkpt lat="48.7959" lon="2.24916">
        <ele>167</ele>
        <time>2020-12-05T15:49:43.094Z</time>
      </trkpt>
      <trkpt lat="48.79591" lon="2.24915">
        <ele>167</ele>
        <time>2020-12-05T15:49:44.095Z</time>
      </trkpt>
      <trkpt lat="48.79591" lon="2.24914">
        <ele>167</ele>
        <time>2020-12-05T15:49:45.095Z</time>
      </trkpt>
      <trkpt lat="48.79591" lon="2.24912">
        <ele>166</ele>
        <time>2020-12-05T15:49:46.095Z</time>
      </trkpt>
      <trkpt lat="48.79591" lon="2.2491">
        <ele>166</ele>
        <time>2020-12-05T15:49:47.095Z</time>
      </trkpt>
      <trkpt lat="48.79591" lon="2.24908">
        <ele>165</ele>
        <time>2020-12-05T15:49:48.095Z</time>
      </trkpt>
      <trkpt lat="48.79592" lon="2.24905">
        <ele>165</ele>
        <time>2020-12-05T15:49:49.095Z</time>
      </trkpt>
      <trkpt lat="48.79593" lon="2.24903">
        <ele>165</ele>
        <time>2020-12-05T15:49:50.095Z</time>
      </trkpt>
      <trkpt lat="48.79593" lon="2.24902">
        <ele>164</ele>
        <time>2020-12-05T15:49:51.095Z</time>
      </trkpt>
      <trkpt lat="48.79594" lon="2.249">
        <ele>164</ele>
        <time>2020-12-05T15:49:52.095Z</time>
      </trkpt>
      <trkpt lat="48.79594" lon="2.24898">
        <ele>164</ele>
        <time>2020-12-05T15:49:53.094Z</time>
      </trkpt>
      <trkpt lat="48.79595" lon="2.24896">
        <ele>163</ele>
        <time>2020-12-05T15:49:54.094Z</time>
      </trkpt>
      <trkpt lat="48.79596" lon="2.24894">
        <ele>163</ele>
        <time>2020-12-05T15:49:55.095Z</time>
      </trkpt>
      <trkpt lat="48.79596" lon="2.24892">
        <ele>163</ele>
        <time>2020-12-05T15:49:56.094Z</time>
      </trkpt>
      <trkpt lat="48.79596" lon="2.2489">
        <ele>163</ele>
        <time>2020-12-05T15:49:57.095Z</time>
      </trkpt>
      <trkpt lat="48.79597" lon="2.24888">
        <ele>162</ele>
        <time>2020-12-05T15:49:58.094Z</time>
      </trkpt>
      <trkpt lat="48.79597" lon="2.24886">
        <ele>162</ele>
        <time>2020-12-05T15:49:59.095Z</time>
      </trkpt>
      <trkpt lat="48.79597" lon="2.24884">
        <ele>161</ele>
        <time>2020-12-05T15:50:00.094Z</time>
      </trkpt>
      <trkpt lat="48.79596" lon="2.24883">
        <ele>160</ele>
        <time>2020-12-05T15:50:01.095Z</time>
      </trkpt>
      <trkpt lat="48.79596" lon="2.2488">
        <ele>159</ele>
        <time>2020-12-05T15:50:02.094Z</time>
      </trkpt>
      <trkpt lat="48.79597" lon="2.24878">
        <ele>159</ele>
        <time>2020-12-05T15:50:03.095Z</time>
      </trkpt>
      <trkpt lat="48.79598" lon="2.24876">
        <ele>158</ele>
        <time>2020-12-05T15:50:04.094Z</time>
      </trkpt>
      <trkpt lat="48.79599" lon="2.24874">
        <ele>158</ele>
        <time>2020-12-05T15:50:05.095Z</time>
      </trkpt>
      <trkpt lat="48.79599" lon="2.24872">
        <ele>157</ele>
        <time>2020-12-05T15:50:06.094Z</time>
      </trkpt>
      <trkpt lat="48.796" lon="2.24871">
        <ele>157</ele>
        <time>2020-12-05T15:50:07.094Z</time>
      </trkpt>
      <trkpt lat="48.79602" lon="2.2487">
        <ele>157</ele>
        <time>2020-12-05T15:50:08.095Z</time>
      </trkpt>
      <trkpt lat="48.79603" lon="2.24869">
        <ele>156</ele>
        <time>2020-12-05T15:50:09.095Z</time>
      </trkpt>
      <trkpt lat="48.79604" lon="2.24868">
        <ele>156</ele>
        <time>2020-12-05T15:50:10.094Z</time>
      </trkpt>
      <trkpt lat="48.79604" lon="2.24867">
        <ele>156</ele>
        <time>2020-12-05T15:50:11.095Z</time>
      </trkpt>
      <trkpt lat="48.79605" lon="2.24867">
        <ele>156</ele>
        <time>2020-12-05T15:50:12.094Z</time>
      </trkpt>
      <trkpt lat="48.79606" lon="2.24866">
        <ele>157</ele>
        <time>2020-12-05T15:50:13.094Z</time>
      </trkpt>
      <trkpt lat="48.79607" lon="2.24865">
        <ele>157</ele>
        <time>2020-12-05T15:50:14.095Z</time>
      </trkpt>
      <trkpt lat="48.79609" lon="2.24864">
        <ele>157</ele>
        <time>2020-12-05T15:50:15.095Z</time>
      </trkpt>
      <trkpt lat="48.7961" lon="2.24863">
        <ele>157</ele>
        <time>2020-12-05T15:50:16.095Z</time>
      </trkpt>
      <trkpt lat="48.79611" lon="2.24861">
        <ele>157</ele>
        <time>2020-12-05T15:50:17.095Z</time>
      </trkpt>
      <trkpt lat="48.79611" lon="2.2486">
        <ele>158</ele>
        <time>2020-12-05T15:50:18.095Z</time>
      </trkpt>
      <trkpt lat="48.79611" lon="2.24858">
        <ele>158</ele>
        <time>2020-12-05T15:50:19.094Z</time>
      </trkpt>
      <trkpt lat="48.79612" lon="2.24857">
        <ele>158</ele>
        <time>2020-12-05T15:50:20.095Z</time>
      </trkpt>
      <trkpt lat="48.79612" lon="2.24856">
        <ele>158</ele>
        <time>2020-12-05T15:50:21.094Z</time>
      </trkpt>
      <trkpt lat="48.79612" lon="2.24855">
        <ele>159</ele>
        <time>2020-12-05T15:50:22.095Z</time>
      </trkpt>
      <trkpt lat="48.79613" lon="2.24855">
        <ele>159</ele>
        <time>2020-12-05T15:50:23.094Z</time>
      </trkpt>
      <trkpt lat="48.79613" lon="2.24855">
        <ele>159</ele>
        <time>2020-12-05T15:50:24.095Z</time>
      </trkpt>
      <trkpt lat="48.79613" lon="2.24855">
        <ele>159</ele>
        <time>2020-12-05T15:50:25.095Z</time>
      </trkpt>
      <trkpt lat="48.79613" lon="2.24855">
        <ele>159</ele>
        <time>2020-12-05T15:50:26.094Z</time>
      </trkpt>
      <trkpt lat="48.79613" lon="2.24856">
        <ele>158</ele>
        <time>2020-12-05T15:50:27.095Z</time>
      </trkpt>
      <trkpt lat="48.79615" lon="2.24856">
        <ele>158</ele>
        <time>2020-12-05T15:50:28.094Z</time>
      </trkpt>
      <trkpt lat="48.79617" lon="2.24857">
        <ele>158</ele>
        <time>2020-12-05T15:50:29.095Z</time>
      </trkpt>
      <trkpt lat="48.7962" lon="2.24856">
        <ele>158</ele>
        <time>2020-12-05T15:50:30.094Z</time>
      </trkpt>
      <trkpt lat="48.79622" lon="2.24856">
        <ele>159</ele>
        <time>2020-12-05T15:50:31.094Z</time>
      </trkpt>
      <trkpt lat="48.79623" lon="2.24856">
        <ele>159</ele>
        <time>2020-12-05T15:50:32.095Z</time>
      </trkpt>
      <trkpt lat="48.79624" lon="2.24856">
        <ele>159</ele>
        <time>2020-12-05T15:50:33.094Z</time>
      </trkpt>
      <trkpt lat="48.79625" lon="2.24856">
        <ele>160</ele>
        <time>2020-12-05T15:50:34.095Z</time>
      </trkpt>
      <trkpt lat="48.79625" lon="2.24856">
        <ele>160</ele>
        <time>2020-12-05T15:50:35.095Z</time>
      </trkpt>
      <trkpt lat="48.79625" lon="2.24856">
        <ele>161</ele>
        <time>2020-12-05T15:50:36.095Z</time>
      </trkpt>
      <trkpt lat="48.79626" lon="2.24855">
        <ele>161</ele>
        <time>2020-12-05T15:50:37.095Z</time>
      </trkpt>
      <trkpt lat="48.79626" lon="2.24854">
        <ele>161</ele>
        <time>2020-12-05T15:50:38.094Z</time>
      </trkpt>
      <trkpt lat="48.79626" lon="2.24854">
        <ele>161</ele>
        <time>2020-12-05T15:50:39.095Z</time>
      </trkpt>
      <trkpt lat="48.79627" lon="2.24853">
        <ele>161</ele>
        <time>2020-12-05T15:50:40.094Z</time>
      </trkpt>
      <trkpt lat="48.79627" lon="2.24852">
        <ele>161</ele>
        <time>2020-12-05T15:50:41.095Z</time>
      </trkpt>
      <trkpt lat="48.79628" lon="2.24851">
        <ele>162</ele>
        <time>2020-12-05T15:50:42.095Z</time>
      </trkpt>
      <trkpt lat="48.79628" lon="2.24849">
        <ele>162</ele>
        <time>2020-12-05T15:50:43.095Z</time>
      </trkpt>
      <trkpt lat="48.79628" lon="2.24848">
        <ele>162</ele>
        <time>2020-12-05T15:50:44.095Z</time>
      </trkpt>
      <trkpt lat="48.79629" lon="2.24846">
        <ele>162</ele>
        <time>2020-12-05T15:50:45.094Z</time>
      </trkpt>
      <trkpt lat="48.79629" lon="2.24844">
        <ele>162</ele>
        <time>2020-12-05T15:50:46.095Z</time>
      </trkpt>
      <trkpt lat="48.79629" lon="2.24842">
        <ele>162</ele>
        <time>2020-12-05T15:50:47.095Z</time>
      </trkpt>
      <trkpt lat="48.7963" lon="2.2484">
        <ele>162</ele>
        <time>2020-12-05T15:50:48.094Z</time>
      </trkpt>
      <trkpt lat="48.7963" lon="2.24839">
        <ele>162</ele>
        <time>2020-12-05T15:50:49.094Z</time>
      </trkpt>
      <trkpt lat="48.7963" lon="2.24837">
        <ele>162</ele>
        <time>2020-12-05T15:50:50.095Z</time>
      </trkpt>
      <trkpt lat="48.7963" lon="2.24835">
        <ele>162</ele>
        <time>2020-12-05T15:50:51.094Z</time>
      </trkpt>
      <trkpt lat="48.7963" lon="2.24833">
        <ele>162</ele>
        <time>2020-12-05T15:50:52.094Z</time>
      </trkpt>
      <trkpt lat="48.7963" lon="2.24831">
        <ele>162</ele>
        <time>2020-12-05T15:50:53.094Z</time>
      </trkpt>
      <trkpt lat="48.7963" lon="2.24829">
        <ele>162</ele>
        <time>2020-12-05T15:50:54.095Z</time>
      </trkpt>
      <trkpt lat="48.7963" lon="2.24827">
        <ele>162</ele>
        <time>2020-12-05T15:50:55.095Z</time>
      </trkpt>
      <trkpt lat="48.7963" lon="2.24826">
        <ele>163</ele>
        <time>2020-12-05T15:50:56.095Z</time>
      </trkpt>
      <trkpt lat="48.79631" lon="2.24825">
        <ele>163</ele>
        <time>2020-12-05T15:50:57.095Z</time>
      </trkpt>
      <trkpt lat="48.79631" lon="2.24824">
        <ele>163</ele>
        <time>2020-12-05T15:50:58.095Z</time>
      </trkpt>
      <trkpt lat="48.79631" lon="2.24822">
        <ele>164</ele>
        <time>2020-12-05T15:50:59.095Z</time>
      </trkpt>
      <trkpt lat="48.79631" lon="2.2482">
        <ele>164</ele>
        <time>2020-12-05T15:51:00.095Z</time>
      </trkpt>
      <trkpt lat="48.79631" lon="2.24818">
        <ele>165</ele>
        <time>2020-12-05T15:51:01.095Z</time>
      </trkpt>
      <trkpt lat="48.79631" lon="2.24816">
        <ele>165</ele>
        <time>2020-12-05T15:51:02.095Z</time>
      </trkpt>
      <trkpt lat="48.79631" lon="2.24815">
        <ele>165</ele>
        <time>2020-12-05T15:51:03.095Z</time>
      </trkpt>
      <trkpt lat="48.79631" lon="2.24813">
        <ele>165</ele>
        <time>2020-12-05T15:51:04.095Z</time>
      </trkpt>
      <trkpt lat="48.7963" lon="2.24812">
        <ele>165</ele>
        <time>2020-12-05T15:51:05.094Z</time>
      </trkpt>
      <trkpt lat="48.79629" lon="2.2481">
        <ele>165</ele>
        <time>2020-12-05T15:51:06.095Z</time>
      </trkpt>
      <trkpt lat="48.79629" lon="2.24809">
        <ele>166</ele>
        <time>2020-12-05T15:51:07.094Z</time>
      </trkpt>
      <trkpt lat="48.79629" lon="2.24808">
        <ele>166</ele>
        <time>2020-12-05T15:51:08.095Z</time>
      </trkpt>
      <trkpt lat="48.79629" lon="2.24807">
        <ele>167</ele>
        <time>2020-12-05T15:51:09.094Z</time>
      </trkpt>
      <trkpt lat="48.79629" lon="2.24807">
        <ele>167</ele>
        <time>2020-12-05T15:51:10.095Z</time>
      </trkpt>
      <trkpt lat="48.79629" lon="2.24806">
        <ele>168</ele>
        <time>2020-12-05T15:51:11.094Z</time>
      </trkpt>
      <trkpt lat="48.7963" lon="2.24805">
        <ele>168</ele>
        <time>2020-12-05T15:51:12.094Z</time>
      </trkpt>
      <trkpt lat="48.7963" lon="2.24803">
        <ele>168</ele>
        <time>2020-12-05T15:51:13.095Z</time>
      </trkpt>
      <trkpt lat="48.79629" lon="2.24801">
        <ele>168</ele>
        <time>2020-12-05T15:51:14.095Z</time>
      </trkpt>
      <trkpt lat="48.79629" lon="2.24799">
        <ele>168</ele>
        <time>2020-12-05T15:51:15.095Z</time>
      </trkpt>
      <trkpt lat="48.79629" lon="2.24798">
        <ele>168</ele>
        <time>2020-12-05T15:51:16.095Z</time>
      </trkpt>
      <trkpt lat="48.79628" lon="2.24797">
        <ele>169</ele>
        <time>2020-12-05T15:51:17.095Z</time>
      </trkpt>
      <trkpt lat="48.79628" lon="2.24796">
        <ele>169</ele>
        <time>2020-12-05T15:51:18.095Z</time>
      </trkpt>
      <trkpt lat="48.79628" lon="2.24795">
        <ele>169</ele>
        <time>2020-12-05T15:51:19.095Z</time>
      </trkpt>
      <trkpt lat="48.79627" lon="2.24793">
        <ele>169</ele>
        <time>2020-12-05T15:51:20.094Z</time>
      </trkpt>
      <trkpt lat="48.79628" lon="2.24792">
        <ele>170</ele>
        <time>2020-12-05T15:51:21.095Z</time>
      </trkpt>
      <trkpt lat="48.79629" lon="2.24792">
        <ele>171</ele>
        <time>2020-12-05T15:51:22.094Z</time>
      </trkpt>
      <trkpt lat="48.7963" lon="2.24793">
        <ele>172</ele>
        <time>2020-12-05T15:51:23.095Z</time>
      </trkpt>
      <trkpt lat="48.79631" lon="2.24793">
        <ele>173</ele>
        <time>2020-12-05T15:51:24.095Z</time>
      </trkpt>
      <trkpt lat="48.79631" lon="2.24793">
        <ele>174</ele>
        <time>2020-12-05T15:51:25.095Z</time>
      </trkpt>
      <trkpt lat="48.79631" lon="2.24793">
        <ele>175</ele>
        <time>2020-12-05T15:51:26.095Z</time>
      </trkpt>
      <trkpt lat="48.79631" lon="2.24792">
        <ele>176</ele>
        <time>2020-12-05T15:51:27.095Z</time>
      </trkpt>
      <trkpt lat="48.79631" lon="2.24792">
        <ele>177</ele>
        <time>2020-12-05T15:51:28.095Z</time>
      </trkpt>
      <trkpt lat="48.79631" lon="2.24791">
        <ele>177</ele>
        <time>2020-12-05T15:51:29.094Z</time>
      </trkpt>
      <trkpt lat="48.79631" lon="2.24791">
        <ele>178</ele>
        <time>2020-12-05T15:51:30.095Z</time>
      </trkpt>
      <trkpt lat="48.79632" lon="2.24791">
        <ele>178</ele>
        <time>2020-12-05T15:51:31.095Z</time>
      </trkpt>
      <trkpt lat="48.79632" lon="2.2479">
        <ele>179</ele>
        <time>2020-12-05T15:51:32.095Z</time>
      </trkpt>
      <trkpt lat="48.79632" lon="2.2479">
        <ele>179</ele>
        <time>2020-12-05T15:51:33.095Z</time>
      </trkpt>
      <trkpt lat="48.79632" lon="2.2479">
        <ele>179</ele>
        <time>2020-12-05T15:51:34.095Z</time>
      </trkpt>
      <trkpt lat="48.79632" lon="2.24789">
        <ele>179</ele>
        <time>2020-12-05T15:51:35.095Z</time>
      </trkpt>
      <trkpt lat="48.79631" lon="2.24789">
        <ele>179</ele>
        <time>2020-12-05T15:51:36.095Z</time>
      </trkpt>
      <trkpt lat="48.79631" lon="2.24789">
        <ele>179</ele>
        <time>2020-12-05T15:51:37.095Z</time>
      </trkpt>
      <trkpt lat="48.79631" lon="2.24789">
        <ele>179</ele>
        <time>2020-12-05T15:51:38.095Z</time>
      </trkpt>
      <trkpt lat="48.79631" lon="2.24789">
        <ele>178</ele>
        <time>2020-12-05T15:51:39.095Z</time>
      </trkpt>
      <trkpt lat="48.79631" lon="2.24789">
        <ele>177</ele>
        <time>2020-12-05T15:51:40.095Z</time>
      </trkpt>
      <trkpt lat="48.79631" lon="2.24789">
        <ele>176</ele>
        <time>2020-12-05T15:51:41.095Z</time>
      </trkpt>
      <trkpt lat="48.79631" lon="2.24789">
        <ele>175</ele>
        <time>2020-12-05T15:51:42.095Z</time>
      </trkpt>
      <trkpt lat="48.79631" lon="2.24789">
        <ele>174</ele>
        <time>2020-12-05T15:51:43.095Z</time>
      </trkpt>
      <trkpt lat="48.79631" lon="2.24789">
        <ele>174</ele>
        <time>2020-12-05T15:51:44.095Z</time>
      </trkpt>
      <trkpt lat="48.79631" lon="2.24789">
        <ele>173</ele>
        <time>2020-12-05T15:51:45.095Z</time>
      </trkpt>
      <trkpt lat="48.79631" lon="2.24789">
        <ele>172</ele>
        <time>2020-12-05T15:51:46.094Z</time>
      </trkpt>
      <trkpt lat="48.79632" lon="2.24789">
        <ele>171</ele>
        <time>2020-12-05T15:51:47.095Z</time>
      </trkpt>
      <trkpt lat="48.79632" lon="2.24789">
        <ele>170</ele>
        <time>2020-12-05T15:51:48.094Z</time>
      </trkpt>
      <trkpt lat="48.79632" lon="2.24789">
        <ele>170</ele>
        <time>2020-12-05T15:51:49.095Z</time>
      </trkpt>
      <trkpt lat="48.79632" lon="2.2479">
        <ele>169</ele>
        <time>2020-12-05T15:51:50.094Z</time>
      </trkpt>
      <trkpt lat="48.79632" lon="2.2479">
        <ele>169</ele>
        <time>2020-12-05T15:51:51.094Z</time>
      </trkpt>
      <trkpt lat="48.79632" lon="2.2479">
        <ele>169</ele>
        <time>2020-12-05T15:51:52.095Z</time>
      </trkpt>
      <trkpt lat="48.79632" lon="2.2479">
        <ele>168</ele>
        <time>2020-12-05T15:51:53.095Z</time>
      </trkpt>
      <trkpt lat="48.79632" lon="2.2479">
        <ele>168</ele>
        <time>2020-12-05T15:51:54.094Z</time>
      </trkpt>
      <trkpt lat="48.79632" lon="2.2479">
        <ele>168</ele>
        <time>2020-12-05T15:51:55.094Z</time>
      </trkpt>
      <trkpt lat="48.79632" lon="2.2479">
        <ele>167</ele>
        <time>2020-12-05T15:51:56.095Z</time>
      </trkpt>
      <trkpt lat="48.79632" lon="2.24791">
        <ele>167</ele>
        <time>2020-12-05T15:51:57.095Z</time>
      </trkpt>
      <trkpt lat="48.79632" lon="2.24791">
        <ele>167</ele>
        <time>2020-12-05T15:51:58.095Z</time>
      </trkpt>
      <trkpt lat="48.79632" lon="2.24791">
        <ele>167</ele>
        <time>2020-12-05T15:51:59.095Z</time>
      </trkpt>
      <trkpt lat="48.79632" lon="2.24791">
        <ele>166</ele>
        <time>2020-12-05T15:52:00.095Z</time>
      </trkpt>
      <trkpt lat="48.79632" lon="2.24791">
        <ele>166</ele>
        <time>2020-12-05T15:52:01.095Z</time>
      </trkpt>
      <trkpt lat="48.79632" lon="2.24791">
        <ele>166</ele>
        <time>2020-12-05T15:52:02.095Z</time>
      </trkpt>
      <trkpt lat="48.79632" lon="2.24791">
        <ele>166</ele>
        <time>2020-12-05T15:52:03.095Z</time>
      </trkpt>
      <trkpt lat="48.79631" lon="2.24791">
        <ele>166</ele>
        <time>2020-12-05T15:52:04.094Z</time>
      </trkpt>
      <trkpt lat="48.7963" lon="2.24793">
        <ele>166</ele>
        <time>2020-12-05T15:52:05.094Z</time>
      </trkpt>
      <trkpt lat="48.79628" lon="2.24793">
        <ele>166</ele>
        <time>2020-12-05T15:52:06.094Z</time>
      </trkpt>
      <trkpt lat="48.79626" lon="2.24794">
        <ele>166</ele>
        <time>2020-12-05T15:52:07.094Z</time>
      </trkpt>
      <trkpt lat="48.79624" lon="2.24794">
        <ele>166</ele>
        <time>2020-12-05T15:52:08.095Z</time>
      </trkpt>
      <trkpt lat="48.79622" lon="2.24795">
        <ele>166</ele>
        <time>2020-12-05T15:52:09.095Z</time>
      </trkpt>
      <trkpt lat="48.79621" lon="2.24796">
        <ele>167</ele>
        <time>2020-12-05T15:52:10.095Z</time>
      </trkpt>
      <trkpt lat="48.79619" lon="2.24797">
        <ele>167</ele>
        <time>2020-12-05T15:52:11.095Z</time>
      </trkpt>
      <trkpt lat="48.79618" lon="2.24798">
        <ele>167</ele>
        <time>2020-12-05T15:52:12.094Z</time>
      </trkpt>
      <trkpt lat="48.79616" lon="2.24799">
        <ele>167</ele>
        <time>2020-12-05T15:52:13.094Z</time>
      </trkpt>
      <trkpt lat="48.79614" lon="2.248">
        <ele>167</ele>
        <time>2020-12-05T15:52:14.095Z</time>
      </trkpt>
      <trkpt lat="48.79612" lon="2.24801">
        <ele>167</ele>
        <time>2020-12-05T15:52:15.095Z</time>
      </trkpt>
      <trkpt lat="48.7961" lon="2.24803">
        <ele>167</ele>
        <time>2020-12-05T15:52:16.094Z</time>
      </trkpt>
      <trkpt lat="48.79609" lon="2.24803">
        <ele>167</ele>
        <time>2020-12-05T15:52:17.095Z</time>
      </trkpt>
      <trkpt lat="48.79608" lon="2.24804">
        <ele>166</ele>
        <time>2020-12-05T15:52:18.095Z</time>
      </trkpt>
      <trkpt lat="48.79607" lon="2.24804">
        <ele>166</ele>
        <time>2020-12-05T15:52:19.095Z</time>
      </trkpt>
      <trkpt lat="48.79606" lon="2.24804">
        <ele>165</ele>
        <time>2020-12-05T15:52:20.095Z</time>
      </trkpt>
      <trkpt lat="48.79605" lon="2.24804">
        <ele>165</ele>
        <time>2020-12-05T15:52:21.095Z</time>
      </trkpt>
      <trkpt lat="48.79603" lon="2.24804">
        <ele>164</ele>
        <time>2020-12-05T15:52:22.095Z</time>
      </trkpt>
      <trkpt lat="48.79601" lon="2.24803">
        <ele>164</ele>
        <time>2020-12-05T15:52:23.095Z</time>
      </trkpt>
      <trkpt lat="48.796" lon="2.24803">
        <ele>163</ele>
        <time>2020-12-05T15:52:24.095Z</time>
      </trkpt>
      <trkpt lat="48.79599" lon="2.24803">
        <ele>163</ele>
        <time>2020-12-05T15:52:25.095Z</time>
      </trkpt>
      <trkpt lat="48.79598" lon="2.24803">
        <ele>163</ele>
        <time>2020-12-05T15:52:26.094Z</time>
      </trkpt>
      <trkpt lat="48.79597" lon="2.24803">
        <ele>163</ele>
        <time>2020-12-05T15:52:27.095Z</time>
      </trkpt>
      <trkpt lat="48.79596" lon="2.24804">
        <ele>163</ele>
        <time>2020-12-05T15:52:28.095Z</time>
      </trkpt>
      <trkpt lat="48.79595" lon="2.24804">
        <ele>163</ele>
        <time>2020-12-05T15:52:29.094Z</time>
      </trkpt>
      <trkpt lat="48.79595" lon="2.24804">
        <ele>163</ele>
        <time>2020-12-05T15:52:30.095Z</time>
      </trkpt>
      <trkpt lat="48.79595" lon="2.24804">
        <ele>164</ele>
        <time>2020-12-05T15:52:31.095Z</time>
      </trkpt>
      <trkpt lat="48.79594" lon="2.24805">
        <ele>164</ele>
        <time>2020-12-05T15:52:32.095Z</time>
      </trkpt>
      <trkpt lat="48.79594" lon="2.24805">
        <ele>163</ele>
        <time>2020-12-05T15:52:33.095Z</time>
      </trkpt>
      <trkpt lat="48.79593" lon="2.24806">
        <ele>163</ele>
        <time>2020-12-05T15:52:34.095Z</time>
      </trkpt>
      <trkpt lat="48.79591" lon="2.24807">
        <ele>162</ele>
        <time>2020-12-05T15:52:35.095Z</time>
      </trkpt>
      <trkpt lat="48.7959" lon="2.24807">
        <ele>162</ele>
        <time>2020-12-05T15:52:36.095Z</time>
      </trkpt>
      <trkpt lat="48.79588" lon="2.24807">
        <ele>161</ele>
        <time>2020-12-05T15:52:37.095Z</time>
      </trkpt>
      <trkpt lat="48.79587" lon="2.24807">
        <ele>161</ele>
        <time>2020-12-05T15:52:38.095Z</time>
      </trkpt>
      <trkpt lat="48.79585" lon="2.24807">
        <ele>161</ele>
        <time>2020-12-05T15:52:39.095Z</time>
      </trkpt>
      <trkpt lat="48.79584" lon="2.24806">
        <ele>160</ele>
        <time>2020-12-05T15:52:40.095Z</time>
      </trkpt>
      <trkpt lat="48.79582" lon="2.24806">
        <ele>160</ele>
        <time>2020-12-05T15:52:41.094Z</time>
      </trkpt>
      <trkpt lat="48.79582" lon="2.24805">
        <ele>159</ele>
        <time>2020-12-05T15:52:42.095Z</time>
      </trkpt>
      <trkpt lat="48.79581" lon="2.24803">
        <ele>159</ele>
        <time>2020-12-05T15:52:43.094Z</time>
      </trkpt>
      <trkpt lat="48.79581" lon="2.24802">
        <ele>158</ele>
        <time>2020-12-05T15:52:44.095Z</time>
      </trkpt>
      <trkpt lat="48.79582" lon="2.24801">
        <ele>158</ele>
        <time>2020-12-05T15:52:45.095Z</time>
      </trkpt>
      <trkpt lat="48.79583" lon="2.24802">
        <ele>157</ele>
        <time>2020-12-05T15:52:46.095Z</time>
      </trkpt>
      <trkpt lat="48.79584" lon="2.24802">
        <ele>157</ele>
        <time>2020-12-05T15:52:47.095Z</time>
      </trkpt>
      <trkpt lat="48.79584" lon="2.24803">
        <ele>157</ele>
        <time>2020-12-05T15:52:48.095Z</time>
      </trkpt>
      <trkpt lat="48.79585" lon="2.24803">
        <ele>158</ele>
        <time>2020-12-05T15:52:49.095Z</time>
      </trkpt>
      <trkpt lat="48.79585" lon="2.24803">
        <ele>158</ele>
        <time>2020-12-05T15:52:50.095Z</time>
      </trkpt>
      <trkpt lat="48.79584" lon="2.24804">
        <ele>159</ele>
        <time>2020-12-05T15:52:51.095Z</time>
      </trkpt>
      <trkpt lat="48.79582" lon="2.24803">
        <ele>159</ele>
        <time>2020-12-05T15:52:52.094Z</time>
      </trkpt>
      <trkpt lat="48.79581" lon="2.24803">
        <ele>159</ele>
        <time>2020-12-05T15:52:53.095Z</time>
      </trkpt>
      <trkpt lat="48.7958" lon="2.24802">
        <ele>160</ele>
        <time>2020-12-05T15:52:54.095Z</time>
      </trkpt>
      <trkpt lat="48.79579" lon="2.24802">
        <ele>160</ele>
        <time>2020-12-05T15:52:55.095Z</time>
      </trkpt>
      <trkpt lat="48.79578" lon="2.24801">
        <ele>160</ele>
        <time>2020-12-05T15:52:56.095Z</time>
      </trkpt>
      <trkpt lat="48.79578" lon="2.248">
        <ele>161</ele>
        <time>2020-12-05T15:52:57.095Z</time>
      </trkpt>
      <trkpt lat="48.79577" lon="2.248">
        <ele>161</ele>
        <time>2020-12-05T15:52:58.095Z</time>
      </trkpt>
      <trkpt lat="48.79576" lon="2.24799">
        <ele>161</ele>
        <time>2020-12-05T15:52:59.094Z</time>
      </trkpt>
      <trkpt lat="48.79575" lon="2.24799">
        <ele>162</ele>
        <time>2020-12-05T15:53:00.095Z</time>
      </trkpt>
      <trkpt lat="48.79574" lon="2.24798">
        <ele>162</ele>
        <time>2020-12-05T15:53:01.094Z</time>
      </trkpt>
      <trkpt lat="48.79574" lon="2.24798">
        <ele>163</ele>
        <time>2020-12-05T15:53:02.095Z</time>
      </trkpt>
      <trkpt lat="48.79573" lon="2.24797">
        <ele>163</ele>
        <time>2020-12-05T15:53:03.094Z</time>
      </trkpt>
      <trkpt lat="48.79573" lon="2.24796">
        <ele>163</ele>
        <time>2020-12-05T15:53:04.095Z</time>
      </trkpt>
      <trkpt lat="48.79572" lon="2.24796">
        <ele>163</ele>
        <time>2020-12-05T15:53:05.094Z</time>
      </trkpt>
      <trkpt lat="48.79572" lon="2.24797">
        <ele>163</ele>
        <time>2020-12-05T15:53:06.095Z</time>
      </trkpt>
      <trkpt lat="48.79572" lon="2.24798">
        <ele>163</ele>
        <time>2020-12-05T15:53:07.095Z</time>
      </trkpt>
      <trkpt lat="48.79572" lon="2.24798">
        <ele>163</ele>
        <time>2020-12-05T15:53:08.094Z</time>
      </trkpt>
      <trkpt lat="48.79571" lon="2.24798">
        <ele>163</ele>
        <time>2020-12-05T15:53:09.095Z</time>
      </trkpt>
      <trkpt lat="48.79571" lon="2.24797">
        <ele>163</ele>
        <time>2020-12-05T15:53:10.094Z</time>
      </trkpt>
      <trkpt lat="48.7957" lon="2.24796">
        <ele>162</ele>
        <time>2020-12-05T15:53:11.094Z</time>
      </trkpt>
      <trkpt lat="48.79569" lon="2.24796">
        <ele>162</ele>
        <time>2020-12-05T15:53:12.095Z</time>
      </trkpt>
      <trkpt lat="48.79568" lon="2.24796">
        <ele>161</ele>
        <time>2020-12-05T15:53:13.095Z</time>
      </trkpt>
      <trkpt lat="48.79567" lon="2.24797">
        <ele>161</ele>
        <time>2020-12-05T15:53:14.095Z</time>
      </trkpt>
      <trkpt lat="48.79567" lon="2.24797">
        <ele>160</ele>
        <time>2020-12-05T15:53:15.095Z</time>
      </trkpt>
      <trkpt lat="48.79566" lon="2.24797">
        <ele>160</ele>
        <time>2020-12-05T15:53:16.095Z</time>
      </trkpt>
      <trkpt lat="48.79566" lon="2.24797">
        <ele>160</ele>
        <time>2020-12-05T15:53:17.094Z</time>
      </trkpt>
      <trkpt lat="48.79566" lon="2.24797">
        <ele>161</ele>
        <time>2020-12-05T15:53:18.094Z</time>
      </trkpt>
      <trkpt lat="48.79566" lon="2.24797">
        <ele>161</ele>
        <time>2020-12-05T15:53:19.095Z</time>
      </trkpt>
      <trkpt lat="48.79566" lon="2.24797">
        <ele>161</ele>
        <time>2020-12-05T15:53:20.094Z</time>
      </trkpt>
      <trkpt lat="48.79565" lon="2.24797">
        <ele>161</ele>
        <time>2020-12-05T15:53:21.095Z</time>
      </trkpt>
      <trkpt lat="48.79565" lon="2.24797">
        <ele>162</ele>
        <time>2020-12-05T15:53:22.095Z</time>
      </trkpt>
      <trkpt lat="48.79565" lon="2.24797">
        <ele>162</ele>
        <time>2020-12-05T15:53:23.094Z</time>
      </trkpt>
      <trkpt lat="48.79564" lon="2.24797">
        <ele>162</ele>
        <time>2020-12-05T15:53:24.095Z</time>
      </trkpt>
      <trkpt lat="48.79564" lon="2.24797">
        <ele>162</ele>
        <time>2020-12-05T15:53:25.095Z</time>
      </trkpt>
      <trkpt lat="48.79563" lon="2.24797">
        <ele>162</ele>
        <time>2020-12-05T15:53:26.095Z</time>
      </trkpt>
      <trkpt lat="48.79563" lon="2.24798">
        <ele>163</ele>
        <time>2020-12-05T15:53:27.095Z</time>
      </trkpt>
      <trkpt lat="48.79563" lon="2.24799">
        <ele>163</ele>
        <time>2020-12-05T15:53:28.095Z</time>
      </trkpt>
      <trkpt lat="48.79563" lon="2.248">
        <ele>163</ele>
        <time>2020-12-05T15:53:29.095Z</time>
      </trkpt>
      <trkpt lat="48.79564" lon="2.248">
        <ele>164</ele>
        <time>2020-12-05T15:53:30.095Z</time>
      </trkpt>
      <trkpt lat="48.79564" lon="2.248">
        <ele>164</ele>
        <time>2020-12-05T15:53:31.095Z</time>
      </trkpt>
      <trkpt lat="48.79564" lon="2.24799">
        <ele>165</ele>
        <time>2020-12-05T15:53:32.094Z</time>
      </trkpt>
      <trkpt lat="48.79563" lon="2.24799">
        <ele>165</ele>
        <time>2020-12-05T15:53:33.095Z</time>
      </trkpt>
      <trkpt lat="48.79563" lon="2.248">
        <ele>165</ele>
        <time>2020-12-05T15:53:34.095Z</time>
      </trkpt>
      <trkpt lat="48.79563" lon="2.24801">
        <ele>165</ele>
        <time>2020-12-05T15:53:35.095Z</time>
      </trkpt>
      <trkpt lat="48.79563" lon="2.24802">
        <ele>165</ele>
        <time>2020-12-05T15:53:36.094Z</time>
      </trkpt>
      <trkpt lat="48.79562" lon="2.24802">
        <ele>165</ele>
        <time>2020-12-05T15:53:37.095Z</time>
      </trkpt>
      <trkpt lat="48.79562" lon="2.24801">
        <ele>165</ele>
        <time>2020-12-05T15:53:38.094Z</time>
      </trkpt>
      <trkpt lat="48.7956" lon="2.24801">
        <ele>164</ele>
        <time>2020-12-05T15:53:39.095Z</time>
      </trkpt>
      <trkpt lat="48.7956" lon="2.248">
        <ele>164</ele>
        <time>2020-12-05T15:53:40.095Z</time>
      </trkpt>
      <trkpt lat="48.79559" lon="2.248">
        <ele>165</ele>
        <time>2020-12-05T15:53:41.095Z</time>
      </trkpt>
      <trkpt lat="48.79559" lon="2.24799">
        <ele>165</ele>
        <time>2020-12-05T15:53:42.095Z</time>
      </trkpt>
      <trkpt lat="48.79558" lon="2.24798">
        <ele>164</ele>
        <time>2020-12-05T15:53:43.095Z</time>
      </trkpt>
      <trkpt lat="48.79557" lon="2.24796">
        <ele>164</ele>
        <time>2020-12-05T15:53:44.095Z</time>
      </trkpt>
      <trkpt lat="48.79556" lon="2.24794">
        <ele>164</ele>
        <time>2020-12-05T15:53:45.095Z</time>
      </trkpt>
      <trkpt lat="48.79556" lon="2.24792">
        <ele>164</ele>
        <time>2020-12-05T15:53:46.094Z</time>
      </trkpt>
      <trkpt lat="48.79555" lon="2.24791">
        <ele>163</ele>
        <time>2020-12-05T15:53:47.095Z</time>
      </trkpt>
      <trkpt lat="48.79554" lon="2.2479">
        <ele>163</ele>
        <time>2020-12-05T15:53:48.094Z</time>
      </trkpt>
      <trkpt lat="48.79552" lon="2.24789">
        <ele>163</ele>
        <time>2020-12-05T15:53:49.094Z</time>
      </trkpt>
      <trkpt lat="48.79552" lon="2.24789">
        <ele>163</ele>
        <time>2020-12-05T15:53:50.095Z</time>
      </trkpt>
      <trkpt lat="48.79551" lon="2.24788">
        <ele>163</ele>
        <time>2020-12-05T15:53:51.095Z</time>
      </trkpt>
      <trkpt lat="48.7955" lon="2.24787">
        <ele>163</ele>
        <time>2020-12-05T15:53:52.095Z</time>
      </trkpt>
      <trkpt lat="48.79549" lon="2.24786">
        <ele>164</ele>
        <time>2020-12-05T15:53:53.094Z</time>
      </trkpt>
      <trkpt lat="48.79548" lon="2.24786">
        <ele>164</ele>
        <time>2020-12-05T15:53:54.095Z</time>
      </trkpt>
      <trkpt lat="48.79548" lon="2.24785">
        <ele>164</ele>
        <time>2020-12-05T15:53:55.094Z</time>
      </trkpt>
      <trkpt lat="48.79547" lon="2.24785">
        <ele>165</ele>
        <time>2020-12-05T15:53:56.095Z</time>
      </trkpt>
      <trkpt lat="48.79546" lon="2.24785">
        <ele>165</ele>
        <time>2020-12-05T15:53:57.094Z</time>
      </trkpt>
      <trkpt lat="48.79546" lon="2.24786">
        <ele>166</ele>
        <time>2020-12-05T15:53:58.095Z</time>
      </trkpt>
      <trkpt lat="48.79545" lon="2.24786">
        <ele>167</ele>
        <time>2020-12-05T15:53:59.095Z</time>
      </trkpt>
      <trkpt lat="48.79544" lon="2.24786">
        <ele>167</ele>
        <time>2020-12-05T15:54:00.094Z</time>
      </trkpt>
      <trkpt lat="48.79542" lon="2.24785">
        <ele>168</ele>
        <time>2020-12-05T15:54:01.095Z</time>
      </trkpt>
      <trkpt lat="48.79541" lon="2.24784">
        <ele>168</ele>
        <time>2020-12-05T15:54:02.095Z</time>
      </trkpt>
      <trkpt lat="48.7954" lon="2.24782">
        <ele>168</ele>
        <time>2020-12-05T15:54:03.095Z</time>
      </trkpt>
      <trkpt lat="48.79539" lon="2.2478">
        <ele>168</ele>
        <time>2020-12-05T15:54:04.094Z</time>
      </trkpt>
      <trkpt lat="48.79538" lon="2.24779">
        <ele>168</ele>
        <time>2020-12-05T15:54:05.095Z</time>
      </trkpt>
      <trkpt lat="48.79537" lon="2.24778">
        <ele>168</ele>
        <time>2020-12-05T15:54:06.094Z</time>
      </trkpt>
      <trkpt lat="48.79537" lon="2.24776">
        <ele>168</ele>
        <time>2020-12-05T15:54:07.094Z</time>
      </trkpt>
      <trkpt lat="48.79536" lon="2.24776">
        <ele>167</ele>
        <time>2020-12-05T15:54:08.095Z</time>
      </trkpt>
      <trkpt lat="48.79535" lon="2.24775">
        <ele>167</ele>
        <time>2020-12-05T15:54:09.095Z</time>
      </trkpt>
      <trkpt lat="48.79534" lon="2.24774">
        <ele>167</ele>
        <time>2020-12-05T15:54:10.095Z</time>
      </trkpt>
      <trkpt lat="48.79533" lon="2.24772">
        <ele>167</ele>
        <time>2020-12-05T15:54:11.094Z</time>
      </trkpt>
      <trkpt lat="48.79532" lon="2.2477">
        <ele>167</ele>
        <time>2020-12-05T15:54:12.095Z</time>
      </trkpt>
      <trkpt lat="48.79532" lon="2.24767">
        <ele>166</ele>
        <time>2020-12-05T15:54:13.094Z</time>
      </trkpt>
      <trkpt lat="48.79531" lon="2.24763">
        <ele>165</ele>
        <time>2020-12-05T15:54:14.095Z</time>
      </trkpt>
      <trkpt lat="48.79529" lon="2.24759">
        <ele>164</ele>
        <time>2020-12-05T15:54:15.094Z</time>
      </trkpt>
      <trkpt lat="48.79528" lon="2.24755">
        <ele>163</ele>
        <time>2020-12-05T15:54:16.095Z</time>
      </trkpt>
      <trkpt lat="48.79528" lon="2.24752">
        <ele>162</ele>
        <time>2020-12-05T15:54:17.094Z</time>
      </trkpt>
      <trkpt lat="48.79528" lon="2.24751">
        <ele>161</ele>
        <time>2020-12-05T15:54:18.094Z</time>
      </trkpt>
      <trkpt lat="48.79528" lon="2.24749">
        <ele>160</ele>
        <time>2020-12-05T15:54:19.094Z</time>
      </trkpt>
      <trkpt lat="48.79528" lon="2.24748">
        <ele>160</ele>
        <time>2020-12-05T15:54:20.095Z</time>
      </trkpt>
      <trkpt lat="48.79528" lon="2.24747">
        <ele>159</ele>
        <time>2020-12-05T15:54:21.094Z</time>
      </trkpt>
      <trkpt lat="48.79528" lon="2.24746">
        <ele>158</ele>
        <time>2020-12-05T15:54:22.095Z</time>
      </trkpt>
      <trkpt lat="48.79528" lon="2.24745">
        <ele>158</ele>
        <time>2020-12-05T15:54:23.095Z</time>
      </trkpt>
      <trkpt lat="48.79528" lon="2.24745">
        <ele>158</ele>
        <time>2020-12-05T15:54:24.095Z</time>
      </trkpt>
      <trkpt lat="48.79528" lon="2.24744">
        <ele>157</ele>
        <time>2020-12-05T15:54:25.095Z</time>
      </trkpt>
      <trkpt lat="48.79529" lon="2.24744">
        <ele>157</ele>
        <time>2020-12-05T15:54:26.095Z</time>
      </trkpt>
      <trkpt lat="48.79529" lon="2.24743">
        <ele>156</ele>
        <time>2020-12-05T15:54:27.095Z</time>
      </trkpt>
      <trkpt lat="48.7953" lon="2.24742">
        <ele>156</ele>
        <time>2020-12-05T15:54:28.094Z</time>
      </trkpt>
      <trkpt lat="48.7953" lon="2.24741">
        <ele>155</ele>
        <time>2020-12-05T15:54:29.095Z</time>
      </trkpt>
      <trkpt lat="48.79531" lon="2.24741">
        <ele>155</ele>
        <time>2020-12-05T15:54:30.094Z</time>
      </trkpt>
      <trkpt lat="48.79532" lon="2.24741">
        <ele>154</ele>
        <time>2020-12-05T15:54:31.095Z</time>
      </trkpt>
      <trkpt lat="48.79532" lon="2.24741">
        <ele>154</ele>
        <time>2020-12-05T15:54:32.094Z</time>
      </trkpt>
      <trkpt lat="48.79533" lon="2.24741">
        <ele>154</ele>
        <time>2020-12-05T15:54:33.095Z</time>
      </trkpt>
      <trkpt lat="48.79532" lon="2.24741">
        <ele>153</ele>
        <time>2020-12-05T15:54:34.094Z</time>
      </trkpt>
      <trkpt lat="48.79531" lon="2.2474">
        <ele>153</ele>
        <time>2020-12-05T15:54:35.095Z</time>
      </trkpt>
      <trkpt lat="48.7953" lon="2.24739">
        <ele>153</ele>
        <time>2020-12-05T15:54:36.094Z</time>
      </trkpt>
      <trkpt lat="48.79529" lon="2.24738">
        <ele>152</ele>
        <time>2020-12-05T15:54:37.095Z</time>
      </trkpt>
      <trkpt lat="48.79529" lon="2.24737">
        <ele>152</ele>
        <time>2020-12-05T15:54:38.094Z</time>
      </trkpt>
      <trkpt lat="48.79529" lon="2.24736">
        <ele>152</ele>
        <time>2020-12-05T15:54:39.095Z</time>
      </trkpt>
      <trkpt lat="48.79529" lon="2.24735">
        <ele>152</ele>
        <time>2020-12-05T15:54:40.095Z</time>
      </trkpt>
      <trkpt lat="48.79529" lon="2.24734">
        <ele>152</ele>
        <time>2020-12-05T15:54:41.095Z</time>
      </trkpt>
      <trkpt lat="48.79528" lon="2.24733">
        <ele>152</ele>
        <time>2020-12-05T15:54:42.095Z</time>
      </trkpt>
      <trkpt lat="48.79528" lon="2.24731">
        <ele>152</ele>
        <time>2020-12-05T15:54:43.095Z</time>
      </trkpt>
      <trkpt lat="48.79527" lon="2.24729">
        <ele>151</ele>
        <time>2020-12-05T15:54:44.095Z</time>
      </trkpt>
      <trkpt lat="48.79526" lon="2.24727">
        <ele>151</ele>
        <time>2020-12-05T15:54:45.094Z</time>
      </trkpt>
      <trkpt lat="48.79525" lon="2.24726">
        <ele>151</ele>
        <time>2020-12-05T15:54:46.094Z</time>
      </trkpt>
      <trkpt lat="48.79524" lon="2.24724">
        <ele>150</ele>
        <time>2020-12-05T15:54:47.095Z</time>
      </trkpt>
      <trkpt lat="48.79523" lon="2.24722">
        <ele>150</ele>
        <time>2020-12-05T15:54:48.095Z</time>
      </trkpt>
      <trkpt lat="48.79522" lon="2.2472">
        <ele>150</ele>
        <time>2020-12-05T15:54:49.095Z</time>
      </trkpt>
      <trkpt lat="48.79521" lon="2.24718">
        <ele>150</ele>
        <time>2020-12-05T15:54:50.094Z</time>
      </trkpt>
      <trkpt lat="48.7952" lon="2.24716">
        <ele>150</ele>
        <time>2020-12-05T15:54:51.095Z</time>
      </trkpt>
      <trkpt lat="48.79518" lon="2.24713">
        <ele>150</ele>
        <time>2020-12-05T15:54:52.094Z</time>
      </trkpt>
      <trkpt lat="48.79517" lon="2.24711">
        <ele>150</ele>
        <time>2020-12-05T15:54:53.094Z</time>
      </trkpt>
      <trkpt lat="48.79517" lon="2.24709">
        <ele>149</ele>
        <time>2020-12-05T15:54:54.095Z</time>
      </trkpt>
      <trkpt lat="48.79516" lon="2.24708">
        <ele>148</ele>
        <time>2020-12-05T15:54:55.095Z</time>
      </trkpt>
      <trkpt lat="48.79515" lon="2.24707">
        <ele>148</ele>
        <time>2020-12-05T15:54:56.094Z</time>
      </trkpt>
      <trkpt lat="48.79514" lon="2.24705">
        <ele>147</ele>
        <time>2020-12-05T15:54:57.094Z</time>
      </trkpt>
      <trkpt lat="48.79513" lon="2.24704">
        <ele>147</ele>
        <time>2020-12-05T15:54:58.095Z</time>
      </trkpt>
      <trkpt lat="48.79512" lon="2.24703">
        <ele>146</ele>
        <time>2020-12-05T15:54:59.095Z</time>
      </trkpt>
      <trkpt lat="48.79511" lon="2.24701">
        <ele>145</ele>
        <time>2020-12-05T15:55:00.095Z</time>
      </trkpt>
      <trkpt lat="48.7951" lon="2.24699">
        <ele>145</ele>
        <time>2020-12-05T15:55:01.095Z</time>
      </trkpt>
      <trkpt lat="48.79509" lon="2.24696">
        <ele>145</ele>
        <time>2020-12-05T15:55:02.095Z</time>
      </trkpt>
      <trkpt lat="48.79508" lon="2.24693">
        <ele>144</ele>
        <time>2020-12-05T15:55:03.095Z</time>
      </trkpt>
      <trkpt lat="48.79507" lon="2.24691">
        <ele>144</ele>
        <time>2020-12-05T15:55:04.095Z</time>
      </trkpt>
      <trkpt lat="48.79506" lon="2.24689">
        <ele>144</ele>
        <time>2020-12-05T15:55:05.095Z</time>
      </trkpt>
      <trkpt lat="48.79505" lon="2.24688">
        <ele>144</ele>
        <time>2020-12-05T15:55:06.094Z</time>
      </trkpt>
      <trkpt lat="48.79504" lon="2.24686">
        <ele>144</ele>
        <time>2020-12-05T15:55:07.095Z</time>
      </trkpt>
      <trkpt lat="48.79504" lon="2.24685">
        <ele>145</ele>
        <time>2020-12-05T15:55:08.095Z</time>
      </trkpt>
      <trkpt lat="48.79504" lon="2.24683">
        <ele>145</ele>
        <time>2020-12-05T15:55:09.094Z</time>
      </trkpt>
      <trkpt lat="48.79504" lon="2.24681">
        <ele>145</ele>
        <time>2020-12-05T15:55:10.095Z</time>
      </trkpt>
      <trkpt lat="48.79503" lon="2.2468">
        <ele>146</ele>
        <time>2020-12-05T15:55:11.095Z</time>
      </trkpt>
      <trkpt lat="48.79503" lon="2.24678">
        <ele>146</ele>
        <time>2020-12-05T15:55:12.094Z</time>
      </trkpt>
      <trkpt lat="48.79503" lon="2.24677">
        <ele>146</ele>
        <time>2020-12-05T15:55:13.095Z</time>
      </trkpt>
      <trkpt lat="48.79502" lon="2.24676">
        <ele>146</ele>
        <time>2020-12-05T15:55:14.094Z</time>
      </trkpt>
      <trkpt lat="48.79502" lon="2.24675">
        <ele>146</ele>
        <time>2020-12-05T15:55:15.095Z</time>
      </trkpt>
      <trkpt lat="48.79501" lon="2.24673">
        <ele>146</ele>
        <time>2020-12-05T15:55:16.095Z</time>
      </trkpt>
      <trkpt lat="48.795" lon="2.24672">
        <ele>146</ele>
        <time>2020-12-05T15:55:17.094Z</time>
      </trkpt>
      <trkpt lat="48.79499" lon="2.24671">
        <ele>146</ele>
        <time>2020-12-05T15:55:18.095Z</time>
      </trkpt>
      <trkpt lat="48.79498" lon="2.24669">
        <ele>146</ele>
        <time>2020-12-05T15:55:19.095Z</time>
      </trkpt>
      <trkpt lat="48.79497" lon="2.24667">
        <ele>146</ele>
        <time>2020-12-05T15:55:20.095Z</time>
      </trkpt>
      <trkpt lat="48.79497" lon="2.24665">
        <ele>146</ele>
        <time>2020-12-05T15:55:21.095Z</time>
      </trkpt>
      <trkpt lat="48.79496" lon="2.24662">
        <ele>146</ele>
        <time>2020-12-05T15:55:22.095Z</time>
      </trkpt>
      <trkpt lat="48.79495" lon="2.24659">
        <ele>146</ele>
        <time>2020-12-05T15:55:23.094Z</time>
      </trkpt>
      <trkpt lat="48.79495" lon="2.24657">
        <ele>145</ele>
        <time>2020-12-05T15:55:24.095Z</time>
      </trkpt>
      <trkpt lat="48.79494" lon="2.24655">
        <ele>145</ele>
        <time>2020-12-05T15:55:25.094Z</time>
      </trkpt>
      <trkpt lat="48.79494" lon="2.24654">
        <ele>145</ele>
        <time>2020-12-05T15:55:26.095Z</time>
      </trkpt>
      <trkpt lat="48.79494" lon="2.24652">
        <ele>145</ele>
        <time>2020-12-05T15:55:27.095Z</time>
      </trkpt>
      <trkpt lat="48.79494" lon="2.2465">
        <ele>145</ele>
        <time>2020-12-05T15:55:28.095Z</time>
      </trkpt>
      <trkpt lat="48.79493" lon="2.24649">
        <ele>145</ele>
        <time>2020-12-05T15:55:29.095Z</time>
      </trkpt>
      <trkpt lat="48.79493" lon="2.24647">
        <ele>145</ele>
        <time>2020-12-05T15:55:30.095Z</time>
      </trkpt>
      <trkpt lat="48.79493" lon="2.24646">
        <ele>145</ele>
        <time>2020-12-05T15:55:31.095Z</time>
      </trkpt>
      <trkpt lat="48.79492" lon="2.24644">
        <ele>145</ele>
        <time>2020-12-05T15:55:32.095Z</time>
      </trkpt>
      <trkpt lat="48.79492" lon="2.24642">
        <ele>145</ele>
        <time>2020-12-05T15:55:33.095Z</time>
      </trkpt>
      <trkpt lat="48.79492" lon="2.2464">
        <ele>145</ele>
        <time>2020-12-05T15:55:34.095Z</time>
      </trkpt>
      <trkpt lat="48.79491" lon="2.24638">
        <ele>145</ele>
        <time>2020-12-05T15:55:35.094Z</time>
      </trkpt>
      <trkpt lat="48.79491" lon="2.24637">
        <ele>145</ele>
        <time>2020-12-05T15:55:36.095Z</time>
      </trkpt>
      <trkpt lat="48.79491" lon="2.24636">
        <ele>144</ele>
        <time>2020-12-05T15:55:37.095Z</time>
      </trkpt>
      <trkpt lat="48.7949" lon="2.24635">
        <ele>144</ele>
        <time>2020-12-05T15:55:38.095Z</time>
      </trkpt>
      <trkpt lat="48.79491" lon="2.24634">
        <ele>143</ele>
        <time>2020-12-05T15:55:39.095Z</time>
      </trkpt>
      <trkpt lat="48.7949" lon="2.24633">
        <ele>143</ele>
        <time>2020-12-05T15:55:40.095Z</time>
      </trkpt>
      <trkpt lat="48.7949" lon="2.24633">
        <ele>142</ele>
        <time>2020-12-05T15:55:41.095Z</time>
      </trkpt>
      <trkpt lat="48.79489" lon="2.2463">
        <ele>142</ele>
        <time>2020-12-05T15:55:42.095Z</time>
      </trkpt>
      <trkpt lat="48.79488" lon="2.24628">
        <ele>141</ele>
        <time>2020-12-05T15:55:43.095Z</time>
      </trkpt>
      <trkpt lat="48.79488" lon="2.24625">
        <ele>141</ele>
        <time>2020-12-05T15:55:44.095Z</time>
      </trkpt>
      <trkpt lat="48.79488" lon="2.24623">
        <ele>140</ele>
        <time>2020-12-05T15:55:45.095Z</time>
      </trkpt>
      <trkpt lat="48.79487" lon="2.24621">
        <ele>140</ele>
        <time>2020-12-05T15:55:46.095Z</time>
      </trkpt>
      <trkpt lat="48.79486" lon="2.2462">
        <ele>139</ele>
        <time>2020-12-05T15:55:47.095Z</time>
      </trkpt>
      <trkpt lat="48.79485" lon="2.24619">
        <ele>139</ele>
        <time>2020-12-05T15:55:48.095Z</time>
      </trkpt>
      <trkpt lat="48.79484" lon="2.24619">
        <ele>139</ele>
        <time>2020-12-05T15:55:49.095Z</time>
      </trkpt>
      <trkpt lat="48.79482" lon="2.24618">
        <ele>138</ele>
        <time>2020-12-05T15:55:50.095Z</time>
      </trkpt>
      <trkpt lat="48.79481" lon="2.24617">
        <ele>137</ele>
        <time>2020-12-05T15:55:51.095Z</time>
      </trkpt>
      <trkpt lat="48.7948" lon="2.24617">
        <ele>136</ele>
        <time>2020-12-05T15:55:52.095Z</time>
      </trkpt>
      <trkpt lat="48.79479" lon="2.24615">
        <ele>135</ele>
        <time>2020-12-05T15:55:53.094Z</time>
      </trkpt>
      <trkpt lat="48.79478" lon="2.24614">
        <ele>135</ele>
        <time>2020-12-05T15:55:54.095Z</time>
      </trkpt>
      <trkpt lat="48.79477" lon="2.24612">
        <ele>134</ele>
        <time>2020-12-05T15:55:55.094Z</time>
      </trkpt>
      <trkpt lat="48.79477" lon="2.24611">
        <ele>134</ele>
        <time>2020-12-05T15:55:56.095Z</time>
      </trkpt>
      <trkpt lat="48.79476" lon="2.2461">
        <ele>133</ele>
        <time>2020-12-05T15:55:57.094Z</time>
      </trkpt>
      <trkpt lat="48.79475" lon="2.24609">
        <ele>133</ele>
        <time>2020-12-05T15:55:58.094Z</time>
      </trkpt>
      <trkpt lat="48.79475" lon="2.24608">
        <ele>133</ele>
        <time>2020-12-05T15:55:59.095Z</time>
      </trkpt>
      <trkpt lat="48.79474" lon="2.24606">
        <ele>133</ele>
        <time>2020-12-05T15:56:00.094Z</time>
      </trkpt>
      <trkpt lat="48.79474" lon="2.24604">
        <ele>133</ele>
        <time>2020-12-05T15:56:01.095Z</time>
      </trkpt>
      <trkpt lat="48.79474" lon="2.24602">
        <ele>132</ele>
        <time>2020-12-05T15:56:02.095Z</time>
      </trkpt>
      <trkpt lat="48.79474" lon="2.24599">
        <ele>132</ele>
        <time>2020-12-05T15:56:03.095Z</time>
      </trkpt>
      <trkpt lat="48.79473" lon="2.24596">
        <ele>132</ele>
        <time>2020-12-05T15:56:04.095Z</time>
      </trkpt>
      <trkpt lat="48.79473" lon="2.24594">
        <ele>132</ele>
        <time>2020-12-05T15:56:05.095Z</time>
      </trkpt>
      <trkpt lat="48.79473" lon="2.24593">
        <ele>131</ele>
        <time>2020-12-05T15:56:06.095Z</time>
      </trkpt>
      <trkpt lat="48.79472" lon="2.24593">
        <ele>130</ele>
        <time>2020-12-05T15:56:07.095Z</time>
      </trkpt>
      <trkpt lat="48.79471" lon="2.24592">
        <ele>129</ele>
        <time>2020-12-05T15:56:08.095Z</time>
      </trkpt>
      <trkpt lat="48.7947" lon="2.24592">
        <ele>128</ele>
        <time>2020-12-05T15:56:09.095Z</time>
      </trkpt>
      <trkpt lat="48.79468" lon="2.24591">
        <ele>128</ele>
        <time>2020-12-05T15:56:10.095Z</time>
      </trkpt>
      <trkpt lat="48.79466" lon="2.24591">
        <ele>128</ele>
        <time>2020-12-05T15:56:11.095Z</time>
      </trkpt>
      <trkpt lat="48.79465" lon="2.2459">
        <ele>127</ele>
        <time>2020-12-05T15:56:12.095Z</time>
      </trkpt>
      <trkpt lat="48.79463" lon="2.24589">
        <ele>127</ele>
        <time>2020-12-05T15:56:13.095Z</time>
      </trkpt>
      <trkpt lat="48.79462" lon="2.24588">
        <ele>127</ele>
        <time>2020-12-05T15:56:14.095Z</time>
      </trkpt>
      <trkpt lat="48.79461" lon="2.24587">
        <ele>127</ele>
        <time>2020-12-05T15:56:15.095Z</time>
      </trkpt>
      <trkpt lat="48.7946" lon="2.24586">
        <ele>127</ele>
        <time>2020-12-05T15:56:16.095Z</time>
      </trkpt>
      <trkpt lat="48.79459" lon="2.24584">
        <ele>127</ele>
        <time>2020-12-05T15:56:17.094Z</time>
      </trkpt>
      <trkpt lat="48.79459" lon="2.24584">
        <ele>127</ele>
        <time>2020-12-05T15:56:18.095Z</time>
      </trkpt>
      <trkpt lat="48.79458" lon="2.24584">
        <ele>128</ele>
        <time>2020-12-05T15:56:19.095Z</time>
      </trkpt>
      <trkpt lat="48.79458" lon="2.24583">
        <ele>128</ele>
        <time>2020-12-05T15:56:20.094Z</time>
      </trkpt>
      <trkpt lat="48.79457" lon="2.24584">
        <ele>128</ele>
        <time>2020-12-05T15:56:21.095Z</time>
      </trkpt>
      <trkpt lat="48.79455" lon="2.24584">
        <ele>129</ele>
        <time>2020-12-05T15:56:22.094Z</time>
      </trkpt>
      <trkpt lat="48.79454" lon="2.24584">
        <ele>129</ele>
        <time>2020-12-05T15:56:23.095Z</time>
      </trkpt>
      <trkpt lat="48.79452" lon="2.24583">
        <ele>130</ele>
        <time>2020-12-05T15:56:24.094Z</time>
      </trkpt>
      <trkpt lat="48.7945" lon="2.24581">
        <ele>130</ele>
        <time>2020-12-05T15:56:25.095Z</time>
      </trkpt>
      <trkpt lat="48.79448" lon="2.24579">
        <ele>130</ele>
        <time>2020-12-05T15:56:26.095Z</time>
      </trkpt>
      <trkpt lat="48.79447" lon="2.24577">
        <ele>131</ele>
        <time>2020-12-05T15:56:27.094Z</time>
      </trkpt>
      <trkpt lat="48.79446" lon="2.24575">
        <ele>131</ele>
        <time>2020-12-05T15:56:28.095Z</time>
      </trkpt>
      <trkpt lat="48.79445" lon="2.24574">
        <ele>131</ele>
        <time>2020-12-05T15:56:29.095Z</time>
      </trkpt>
      <trkpt lat="48.79445" lon="2.24573">
        <ele>131</ele>
        <time>2020-12-05T15:56:30.094Z</time>
      </trkpt>
      <trkpt lat="48.79444" lon="2.24572">
        <ele>131</ele>
        <time>2020-12-05T15:56:31.094Z</time>
      </trkpt>
      <trkpt lat="48.79443" lon="2.24571">
        <ele>131</ele>
        <time>2020-12-05T15:56:32.095Z</time>
      </trkpt>
      <trkpt lat="48.79443" lon="2.24571">
        <ele>131</ele>
        <time>2020-12-05T15:56:33.094Z</time>
      </trkpt>
      <trkpt lat="48.79441" lon="2.2457">
        <ele>131</ele>
        <time>2020-12-05T15:56:34.095Z</time>
      </trkpt>
      <trkpt lat="48.7944" lon="2.24569">
        <ele>132</ele>
        <time>2020-12-05T15:56:35.095Z</time>
      </trkpt>
      <trkpt lat="48.79439" lon="2.24569">
        <ele>132</ele>
        <time>2020-12-05T15:56:36.094Z</time>
      </trkpt>
      <trkpt lat="48.79438" lon="2.24568">
        <ele>132</ele>
        <time>2020-12-05T15:56:37.095Z</time>
      </trkpt>
      <trkpt lat="48.79437" lon="2.24567">
        <ele>132</ele>
        <time>2020-12-05T15:56:38.095Z</time>
      </trkpt>
      <trkpt lat="48.79436" lon="2.24566">
        <ele>133</ele>
        <time>2020-12-05T15:56:39.094Z</time>
      </trkpt>
      <trkpt lat="48.79435" lon="2.24565">
        <ele>133</ele>
        <time>2020-12-05T15:56:40.095Z</time>
      </trkpt>
      <trkpt lat="48.79434" lon="2.24564">
        <ele>133</ele>
        <time>2020-12-05T15:56:41.094Z</time>
      </trkpt>
      <trkpt lat="48.79432" lon="2.24563">
        <ele>134</ele>
        <time>2020-12-05T15:56:42.095Z</time>
      </trkpt>
      <trkpt lat="48.79432" lon="2.24563">
        <ele>134</ele>
        <time>2020-12-05T15:56:43.095Z</time>
      </trkpt>
      <trkpt lat="48.79431" lon="2.24562">
        <ele>135</ele>
        <time>2020-12-05T15:56:44.095Z</time>
      </trkpt>
      <trkpt lat="48.7943" lon="2.24561">
        <ele>135</ele>
        <time>2020-12-05T15:56:45.095Z</time>
      </trkpt>
      <trkpt lat="48.7943" lon="2.2456">
        <ele>136</ele>
        <time>2020-12-05T15:56:46.095Z</time>
      </trkpt>
      <trkpt lat="48.79429" lon="2.24559">
        <ele>136</ele>
        <time>2020-12-05T15:56:47.094Z</time>
      </trkpt>
      <trkpt lat="48.79428" lon="2.24557">
        <ele>136</ele>
        <time>2020-12-05T15:56:48.095Z</time>
      </trkpt>
      <trkpt lat="48.79428" lon="2.24556">
        <ele>137</ele>
        <time>2020-12-05T15:56:49.094Z</time>
      </trkpt>
      <trkpt lat="48.79427" lon="2.24555">
        <ele>136</ele>
        <time>2020-12-05T15:56:50.095Z</time>
      </trkpt>
      <trkpt lat="48.79427" lon="2.24554">
        <ele>136</ele>
        <time>2020-12-05T15:56:51.095Z</time>
      </trkpt>
      <trkpt lat="48.79427" lon="2.24553">
        <ele>135</ele>
        <time>2020-12-05T15:56:52.094Z</time>
      </trkpt>
      <trkpt lat="48.79427" lon="2.24553">
        <ele>134</ele>
        <time>2020-12-05T15:56:53.094Z</time>
      </trkpt>
      <trkpt lat="48.79427" lon="2.24552">
        <ele>134</ele>
        <time>2020-12-05T15:56:54.094Z</time>
      </trkpt>
      <trkpt lat="48.79427" lon="2.24552">
        <ele>134</ele>
        <time>2020-12-05T15:56:55.095Z</time>
      </trkpt>
      <trkpt lat="48.79426" lon="2.24551">
        <ele>133</ele>
        <time>2020-12-05T15:56:56.094Z</time>
      </trkpt>
      <trkpt lat="48.79426" lon="2.24551">
        <ele>133</ele>
        <time>2020-12-05T15:56:57.095Z</time>
      </trkpt>
      <trkpt lat="48.79426" lon="2.2455">
        <ele>133</ele>
        <time>2020-12-05T15:56:58.094Z</time>
      </trkpt>
      <trkpt lat="48.79426" lon="2.2455">
        <ele>132</ele>
        <time>2020-12-05T15:56:59.095Z</time>
      </trkpt>
      <trkpt lat="48.79427" lon="2.2455">
        <ele>132</ele>
        <time>2020-12-05T15:57:00.095Z</time>
      </trkpt>
      <trkpt lat="48.79427" lon="2.24549">
        <ele>131</ele>
        <time>2020-12-05T15:57:01.095Z</time>
      </trkpt>
      <trkpt lat="48.79426" lon="2.24549">
        <ele>131</ele>
        <time>2020-12-05T15:57:02.095Z</time>
      </trkpt>
      <trkpt lat="48.79426" lon="2.24549">
        <ele>131</ele>
        <time>2020-12-05T15:57:03.095Z</time>
      </trkpt>
      <trkpt lat="48.79425" lon="2.24549">
        <ele>131</ele>
        <time>2020-12-05T15:57:04.095Z</time>
      </trkpt>
      <trkpt lat="48.79425" lon="2.24549">
        <ele>131</ele>
        <time>2020-12-05T15:57:05.095Z</time>
      </trkpt>
      <trkpt lat="48.79425" lon="2.2455">
        <ele>131</ele>
        <time>2020-12-05T15:57:06.095Z</time>
      </trkpt>
      <trkpt lat="48.79424" lon="2.2455">
        <ele>131</ele>
        <time>2020-12-05T15:57:07.095Z</time>
      </trkpt>
      <trkpt lat="48.79423" lon="2.24551">
        <ele>130</ele>
        <time>2020-12-05T15:57:08.095Z</time>
      </trkpt>
      <trkpt lat="48.79423" lon="2.24553">
        <ele>130</ele>
        <time>2020-12-05T15:57:09.094Z</time>
      </trkpt>
      <trkpt lat="48.79422" lon="2.24554">
        <ele>130</ele>
        <time>2020-12-05T15:57:10.095Z</time>
      </trkpt>
      <trkpt lat="48.7942" lon="2.24555">
        <ele>129</ele>
        <time>2020-12-05T15:57:11.094Z</time>
      </trkpt>
      <trkpt lat="48.79419" lon="2.24557">
        <ele>129</ele>
        <time>2020-12-05T15:57:12.095Z</time>
      </trkpt>
      <trkpt lat="48.79417" lon="2.24559">
        <ele>129</ele>
        <time>2020-12-05T15:57:13.094Z</time>
      </trkpt>
      <trkpt lat="48.79416" lon="2.2456">
        <ele>129</ele>
        <time>2020-12-05T15:57:14.095Z</time>
      </trkpt>
      <trkpt lat="48.79415" lon="2.24562">
        <ele>128</ele>
        <time>2020-12-05T15:57:15.095Z</time>
      </trkpt>
      <trkpt lat="48.79415" lon="2.24564">
        <ele>128</ele>
        <time>2020-12-05T15:57:16.095Z</time>
      </trkpt>
      <trkpt lat="48.79416" lon="2.24567">
        <ele>128</ele>
        <time>2020-12-05T15:57:17.095Z</time>
      </trkpt>
      <trkpt lat="48.79415" lon="2.2457">
        <ele>128</ele>
        <time>2020-12-05T15:57:18.094Z</time>
      </trkpt>
      <trkpt lat="48.79413" lon="2.24572">
        <ele>128</ele>
        <time>2020-12-05T15:57:19.095Z</time>
      </trkpt>
      <trkpt lat="48.79413" lon="2.24574">
        <ele>128</ele>
        <time>2020-12-05T15:57:20.095Z</time>
      </trkpt>
      <trkpt lat="48.79412" lon="2.24575">
        <ele>128</ele>
        <time>2020-12-05T15:57:21.094Z</time>
      </trkpt>
      <trkpt lat="48.79411" lon="2.24577">
        <ele>128</ele>
        <time>2020-12-05T15:57:22.094Z</time>
      </trkpt>
      <trkpt lat="48.7941" lon="2.24579">
        <ele>129</ele>
        <time>2020-12-05T15:57:23.095Z</time>
      </trkpt>
      <trkpt lat="48.79409" lon="2.2458">
        <ele>129</ele>
        <time>2020-12-05T15:57:24.095Z</time>
      </trkpt>
      <trkpt lat="48.79408" lon="2.24581">
        <ele>129</ele>
        <time>2020-12-05T15:57:25.094Z</time>
      </trkpt>
      <trkpt lat="48.79408" lon="2.24582">
        <ele>129</ele>
        <time>2020-12-05T15:57:26.095Z</time>
      </trkpt>
      <trkpt lat="48.79406" lon="2.24583">
        <ele>128</ele>
        <time>2020-12-05T15:57:27.095Z</time>
      </trkpt>
      <trkpt lat="48.79405" lon="2.24584">
        <ele>127</ele>
        <time>2020-12-05T15:57:28.095Z</time>
      </trkpt>
      <trkpt lat="48.79405" lon="2.24585">
        <ele>126</ele>
        <time>2020-12-05T15:57:29.094Z</time>
      </trkpt>
      <trkpt lat="48.79404" lon="2.24587">
        <ele>125</ele>
        <time>2020-12-05T15:57:30.095Z</time>
      </trkpt>
      <trkpt lat="48.79403" lon="2.24589">
        <ele>125</ele>
        <time>2020-12-05T15:57:31.094Z</time>
      </trkpt>
      <trkpt lat="48.79401" lon="2.24591">
        <ele>124</ele>
        <time>2020-12-05T15:57:32.095Z</time>
      </trkpt>
      <trkpt lat="48.79401" lon="2.24593">
        <ele>124</ele>
        <time>2020-12-05T15:57:33.095Z</time>
      </trkpt>
      <trkpt lat="48.794" lon="2.24595">
        <ele>124</ele>
        <time>2020-12-05T15:57:34.095Z</time>
      </trkpt>
      <trkpt lat="48.794" lon="2.24596">
        <ele>124</ele>
        <time>2020-12-05T15:57:35.095Z</time>
      </trkpt>
      <trkpt lat="48.79399" lon="2.24598">
        <ele>124</ele>
        <time>2020-12-05T15:57:36.095Z</time>
      </trkpt>
      <trkpt lat="48.79398" lon="2.24601">
        <ele>124</ele>
        <time>2020-12-05T15:57:37.095Z</time>
      </trkpt>
      <trkpt lat="48.79397" lon="2.24603">
        <ele>125</ele>
        <time>2020-12-05T15:57:38.094Z</time>
      </trkpt>
      <trkpt lat="48.79396" lon="2.24605">
        <ele>125</ele>
        <time>2020-12-05T15:57:39.094Z</time>
      </trkpt>
      <trkpt lat="48.79395" lon="2.24607">
        <ele>125</ele>
        <time>2020-12-05T15:57:40.095Z</time>
      </trkpt>
      <trkpt lat="48.79395" lon="2.24608">
        <ele>125</ele>
        <time>2020-12-05T15:57:41.095Z</time>
      </trkpt>
      <trkpt lat="48.79394" lon="2.24611">
        <ele>125</ele>
        <time>2020-12-05T15:57:42.094Z</time>
      </trkpt>
      <trkpt lat="48.79393" lon="2.24612">
        <ele>125</ele>
        <time>2020-12-05T15:57:43.094Z</time>
      </trkpt>
      <trkpt lat="48.79393" lon="2.24614">
        <ele>125</ele>
        <time>2020-12-05T15:57:44.095Z</time>
      </trkpt>
      <trkpt lat="48.79392" lon="2.24616">
        <ele>125</ele>
        <time>2020-12-05T15:57:45.094Z</time>
      </trkpt>
      <trkpt lat="48.79392" lon="2.24618">
        <ele>125</ele>
        <time>2020-12-05T15:57:46.095Z</time>
      </trkpt>
      <trkpt lat="48.79391" lon="2.2462">
        <ele>125</ele>
        <time>2020-12-05T15:57:47.095Z</time>
      </trkpt>
      <trkpt lat="48.79391" lon="2.24621">
        <ele>125</ele>
        <time>2020-12-05T15:57:48.095Z</time>
      </trkpt>
      <trkpt lat="48.79391" lon="2.24623">
        <ele>125</ele>
        <time>2020-12-05T15:57:49.095Z</time>
      </trkpt>
      <trkpt lat="48.7939" lon="2.24625">
        <ele>125</ele>
        <time>2020-12-05T15:57:50.095Z</time>
      </trkpt>
      <trkpt lat="48.7939" lon="2.24626">
        <ele>125</ele>
        <time>2020-12-05T15:57:51.095Z</time>
      </trkpt>
      <trkpt lat="48.7939" lon="2.24626">
        <ele>125</ele>
        <time>2020-12-05T15:57:52.095Z</time>
      </trkpt>
      <trkpt lat="48.79389" lon="2.24626">
        <ele>126</ele>
        <time>2020-12-05T15:57:53.094Z</time>
      </trkpt>
      <trkpt lat="48.79389" lon="2.24626">
        <ele>126</ele>
        <time>2020-12-05T15:57:54.095Z</time>
      </trkpt>
      <trkpt lat="48.7939" lon="2.24627">
        <ele>126</ele>
        <time>2020-12-05T15:57:55.094Z</time>
      </trkpt>
      <trkpt lat="48.7939" lon="2.24627">
        <ele>126</ele>
        <time>2020-12-05T15:57:56.095Z</time>
      </trkpt>
      <trkpt lat="48.7939" lon="2.24626">
        <ele>126</ele>
        <time>2020-12-05T15:57:57.094Z</time>
      </trkpt>
      <trkpt lat="48.79391" lon="2.24625">
        <ele>126</ele>
        <time>2020-12-05T15:57:58.095Z</time>
      </trkpt>
      <trkpt lat="48.7939" lon="2.24625">
        <ele>126</ele>
        <time>2020-12-05T15:57:59.094Z</time>
      </trkpt>
      <trkpt lat="48.79391" lon="2.24622">
        <ele>125</ele>
        <time>2020-12-05T15:58:00.094Z</time>
      </trkpt>
      <trkpt lat="48.79392" lon="2.2462">
        <ele>125</ele>
        <time>2020-12-05T15:58:01.095Z</time>
      </trkpt>
      <trkpt lat="48.79393" lon="2.24617">
        <ele>125</ele>
        <time>2020-12-05T15:58:02.094Z</time>
      </trkpt>
      <trkpt lat="48.79393" lon="2.24615">
        <ele>125</ele>
        <time>2020-12-05T15:58:03.094Z</time>
      </trkpt>
      <trkpt lat="48.79393" lon="2.24612">
        <ele>126</ele>
        <time>2020-12-05T15:58:04.095Z</time>
      </trkpt>
      <trkpt lat="48.79393" lon="2.2461">
        <ele>126</ele>
        <time>2020-12-05T15:58:05.095Z</time>
      </trkpt>
      <trkpt lat="48.79393" lon="2.24608">
        <ele>127</ele>
        <time>2020-12-05T15:58:06.095Z</time>
      </trkpt>
      <trkpt lat="48.79393" lon="2.24606">
        <ele>127</ele>
        <time>2020-12-05T15:58:07.094Z</time>
      </trkpt>
      <trkpt lat="48.79393" lon="2.24604">
        <ele>128</ele>
        <time>2020-12-05T15:58:08.095Z</time>
      </trkpt>
      <trkpt lat="48.79394" lon="2.24603">
        <ele>129</ele>
        <time>2020-12-05T15:58:09.094Z</time>
      </trkpt>
      <trkpt lat="48.79395" lon="2.24601">
        <ele>129</ele>
        <time>2020-12-05T15:58:10.095Z</time>
      </trkpt>
      <trkpt lat="48.79395" lon="2.246">
        <ele>130</ele>
        <time>2020-12-05T15:58:11.094Z</time>
      </trkpt>
      <trkpt lat="48.79396" lon="2.24599">
        <ele>130</ele>
        <time>2020-12-05T15:58:12.094Z</time>
      </trkpt>
      <trkpt lat="48.79397" lon="2.24598">
        <ele>130</ele>
        <time>2020-12-05T15:58:13.095Z</time>
      </trkpt>
      <trkpt lat="48.79398" lon="2.24596">
        <ele>130</ele>
        <time>2020-12-05T15:58:14.095Z</time>
      </trkpt>
      <trkpt lat="48.79399" lon="2.24595">
        <ele>130</ele>
        <time>2020-12-05T15:58:15.095Z</time>
      </trkpt>
      <trkpt lat="48.79399" lon="2.24593">
        <ele>131</ele>
        <time>2020-12-05T15:58:16.095Z</time>
      </trkpt>
      <trkpt lat="48.794" lon="2.24591">
        <ele>131</ele>
        <time>2020-12-05T15:58:17.095Z</time>
      </trkpt>
      <trkpt lat="48.794" lon="2.2459">
        <ele>130</ele>
        <time>2020-12-05T15:58:18.094Z</time>
      </trkpt>
      <trkpt lat="48.79401" lon="2.24588">
        <ele>130</ele>
        <time>2020-12-05T15:58:19.095Z</time>
      </trkpt>
      <trkpt lat="48.79402" lon="2.24586">
        <ele>130</ele>
        <time>2020-12-05T15:58:20.095Z</time>
      </trkpt>
      <trkpt lat="48.79403" lon="2.24584">
        <ele>129</ele>
        <time>2020-12-05T15:58:21.095Z</time>
      </trkpt>
      <trkpt lat="48.79403" lon="2.24583">
        <ele>129</ele>
        <time>2020-12-05T15:58:22.095Z</time>
      </trkpt>
      <trkpt lat="48.79404" lon="2.24581">
        <ele>128</ele>
        <time>2020-12-05T15:58:23.095Z</time>
      </trkpt>
      <trkpt lat="48.79405" lon="2.2458">
        <ele>128</ele>
        <time>2020-12-05T15:58:24.094Z</time>
      </trkpt>
      <trkpt lat="48.79406" lon="2.24578">
        <ele>128</ele>
        <time>2020-12-05T15:58:25.095Z</time>
      </trkpt>
      <trkpt lat="48.79406" lon="2.24576">
        <ele>128</ele>
        <time>2020-12-05T15:58:26.095Z</time>
      </trkpt>
      <trkpt lat="48.79406" lon="2.24574">
        <ele>127</ele>
        <time>2020-12-05T15:58:27.095Z</time>
      </trkpt>
      <trkpt lat="48.79406" lon="2.24573">
        <ele>127</ele>
        <time>2020-12-05T15:58:28.095Z</time>
      </trkpt>
      <trkpt lat="48.79406" lon="2.24571">
        <ele>127</ele>
        <time>2020-12-05T15:58:29.094Z</time>
      </trkpt>
      <trkpt lat="48.79407" lon="2.24569">
        <ele>126</ele>
        <time>2020-12-05T15:58:30.095Z</time>
      </trkpt>
      <trkpt lat="48.79408" lon="2.24568">
        <ele>126</ele>
        <time>2020-12-05T15:58:31.095Z</time>
      </trkpt>
      <trkpt lat="48.79409" lon="2.24567">
        <ele>126</ele>
        <time>2020-12-05T15:58:32.094Z</time>
      </trkpt>
      <trkpt lat="48.7941" lon="2.24565">
        <ele>126</ele>
        <time>2020-12-05T15:58:33.095Z</time>
      </trkpt>
      <trkpt lat="48.7941" lon="2.24563">
        <ele>126</ele>
        <time>2020-12-05T15:58:34.094Z</time>
      </trkpt>
      <trkpt lat="48.79411" lon="2.24562">
        <ele>126</ele>
        <time>2020-12-05T15:58:35.095Z</time>
      </trkpt>
      <trkpt lat="48.79411" lon="2.2456">
        <ele>126</ele>
        <time>2020-12-05T15:58:36.094Z</time>
      </trkpt>
      <trkpt lat="48.79412" lon="2.24559">
        <ele>126</ele>
        <time>2020-12-05T15:58:37.095Z</time>
      </trkpt>
      <trkpt lat="48.79413" lon="2.24557">
        <ele>126</ele>
        <time>2020-12-05T15:58:38.094Z</time>
      </trkpt>
      <trkpt lat="48.79414" lon="2.24556">
        <ele>126</ele>
        <time>2020-12-05T15:58:39.095Z</time>
      </trkpt>
      <trkpt lat="48.79415" lon="2.24554">
        <ele>126</ele>
        <time>2020-12-05T15:58:40.094Z</time>
      </trkpt>
      <trkpt lat="48.79415" lon="2.24552">
        <ele>126</ele>
        <time>2020-12-05T15:58:41.095Z</time>
      </trkpt>
      <trkpt lat="48.79417" lon="2.2455">
        <ele>126</ele>
        <time>2020-12-05T15:58:42.094Z</time>
      </trkpt>
      <trkpt lat="48.79418" lon="2.24549">
        <ele>126</ele>
        <time>2020-12-05T15:58:43.095Z</time>
      </trkpt>
      <trkpt lat="48.79419" lon="2.24548">
        <ele>126</ele>
        <time>2020-12-05T15:58:44.094Z</time>
      </trkpt>
      <trkpt lat="48.79421" lon="2.24546">
        <ele>126</ele>
        <time>2020-12-05T15:58:45.095Z</time>
      </trkpt>
      <trkpt lat="48.79421" lon="2.24544">
        <ele>126</ele>
        <time>2020-12-05T15:58:46.095Z</time>
      </trkpt>
      <trkpt lat="48.79422" lon="2.24542">
        <ele>126</ele>
        <time>2020-12-05T15:58:47.094Z</time>
      </trkpt>
      <trkpt lat="48.79423" lon="2.2454">
        <ele>126</ele>
        <time>2020-12-05T15:58:48.095Z</time>
      </trkpt>
      <trkpt lat="48.79423" lon="2.24537">
        <ele>127</ele>
        <time>2020-12-05T15:58:49.094Z</time>
      </trkpt>
      <trkpt lat="48.79424" lon="2.24535">
        <ele>127</ele>
        <time>2020-12-05T15:58:50.095Z</time>
      </trkpt>
      <trkpt lat="48.79424" lon="2.24534">
        <ele>127</ele>
        <time>2020-12-05T15:58:51.094Z</time>
      </trkpt>
      <trkpt lat="48.79425" lon="2.24532">
        <ele>127</ele>
        <time>2020-12-05T15:58:52.095Z</time>
      </trkpt>
      <trkpt lat="48.79425" lon="2.2453">
        <ele>127</ele>
        <time>2020-12-05T15:58:53.094Z</time>
      </trkpt>
      <trkpt lat="48.79425" lon="2.24528">
        <ele>127</ele>
        <time>2020-12-05T15:58:54.095Z</time>
      </trkpt>
      <trkpt lat="48.79426" lon="2.24526">
        <ele>127</ele>
        <time>2020-12-05T15:58:55.095Z</time>
      </trkpt>
      <trkpt lat="48.79426" lon="2.24524">
        <ele>126</ele>
        <time>2020-12-05T15:58:56.095Z</time>
      </trkpt>
      <trkpt lat="48.79426" lon="2.24522">
        <ele>126</ele>
        <time>2020-12-05T15:58:57.095Z</time>
      </trkpt>
      <trkpt lat="48.79426" lon="2.24519">
        <ele>126</ele>
        <time>2020-12-05T15:58:58.095Z</time>
      </trkpt>
      <trkpt lat="48.79426" lon="2.24517">
        <ele>126</ele>
        <time>2020-12-05T15:58:59.095Z</time>
      </trkpt>
      <trkpt lat="48.79426" lon="2.24515">
        <ele>126</ele>
        <time>2020-12-05T15:59:00.094Z</time>
      </trkpt>
      <trkpt lat="48.79427" lon="2.24513">
        <ele>126</ele>
        <time>2020-12-05T15:59:01.095Z</time>
      </trkpt>
      <trkpt lat="48.79427" lon="2.24511">
        <ele>126</ele>
        <time>2020-12-05T15:59:02.095Z</time>
      </trkpt>
      <trkpt lat="48.79427" lon="2.24509">
        <ele>125</ele>
        <time>2020-12-05T15:59:03.094Z</time>
      </trkpt>
      <trkpt lat="48.79427" lon="2.24507">
        <ele>126</ele>
        <time>2020-12-05T15:59:04.094Z</time>
      </trkpt>
      <trkpt lat="48.79428" lon="2.24506">
        <ele>126</ele>
        <time>2020-12-05T15:59:05.095Z</time>
      </trkpt>
      <trkpt lat="48.79428" lon="2.24504">
        <ele>126</ele>
        <time>2020-12-05T15:59:06.095Z</time>
      </trkpt>
      <trkpt lat="48.79429" lon="2.24502">
        <ele>126</ele>
        <time>2020-12-05T15:59:07.095Z</time>
      </trkpt>
      <trkpt lat="48.79429" lon="2.24501">
        <ele>126</ele>
        <time>2020-12-05T15:59:08.095Z</time>
      </trkpt>
      <trkpt lat="48.7943" lon="2.24499">
        <ele>126</ele>
        <time>2020-12-05T15:59:09.095Z</time>
      </trkpt>
      <trkpt lat="48.7943" lon="2.24498">
        <ele>126</ele>
        <time>2020-12-05T15:59:10.095Z</time>
      </trkpt>
      <trkpt lat="48.79431" lon="2.24496">
        <ele>126</ele>
        <time>2020-12-05T15:59:11.095Z</time>
      </trkpt>
      <trkpt lat="48.79432" lon="2.24494">
        <ele>126</ele>
        <time>2020-12-05T15:59:12.095Z</time>
      </trkpt>
      <trkpt lat="48.79433" lon="2.24493">
        <ele>126</ele>
        <time>2020-12-05T15:59:13.095Z</time>
      </trkpt>
      <trkpt lat="48.79434" lon="2.24491">
        <ele>126</ele>
        <time>2020-12-05T15:59:14.095Z</time>
      </trkpt>
      <trkpt lat="48.79435" lon="2.2449">
        <ele>125</ele>
        <time>2020-12-05T15:59:15.095Z</time>
      </trkpt>
      <trkpt lat="48.79436" lon="2.24488">
        <ele>125</ele>
        <time>2020-12-05T15:59:16.095Z</time>
      </trkpt>
      <trkpt lat="48.79436" lon="2.24485">
        <ele>125</ele>
        <time>2020-12-05T15:59:17.094Z</time>
      </trkpt>
      <trkpt lat="48.79436" lon="2.24483">
        <ele>126</ele>
        <time>2020-12-05T15:59:18.095Z</time>
      </trkpt>
      <trkpt lat="48.79437" lon="2.2448">
        <ele>126</ele>
        <time>2020-12-05T15:59:19.094Z</time>
      </trkpt>
      <trkpt lat="48.79437" lon="2.24479">
        <ele>126</ele>
        <time>2020-12-05T15:59:20.095Z</time>
      </trkpt>
      <trkpt lat="48.79438" lon="2.24477">
        <ele>126</ele>
        <time>2020-12-05T15:59:21.094Z</time>
      </trkpt>
      <trkpt lat="48.79438" lon="2.24476">
        <ele>126</ele>
        <time>2020-12-05T15:59:22.094Z</time>
      </trkpt>
      <trkpt lat="48.79439" lon="2.24476">
        <ele>126</ele>
        <time>2020-12-05T15:59:23.094Z</time>
      </trkpt>
      <trkpt lat="48.7944" lon="2.24475">
        <ele>126</ele>
        <time>2020-12-05T15:59:24.095Z</time>
      </trkpt>
      <trkpt lat="48.79441" lon="2.24474">
        <ele>126</ele>
        <time>2020-12-05T15:59:25.095Z</time>
      </trkpt>
      <trkpt lat="48.79442" lon="2.24472">
        <ele>126</ele>
        <time>2020-12-05T15:59:26.095Z</time>
      </trkpt>
      <trkpt lat="48.79443" lon="2.24471">
        <ele>126</ele>
        <time>2020-12-05T15:59:27.095Z</time>
      </trkpt>
      <trkpt lat="48.79444" lon="2.2447">
        <ele>126</ele>
        <time>2020-12-05T15:59:28.095Z</time>
      </trkpt>
      <trkpt lat="48.79445" lon="2.24469">
        <ele>126</ele>
        <time>2020-12-05T15:59:29.095Z</time>
      </trkpt>
      <trkpt lat="48.79446" lon="2.24467">
        <ele>126</ele>
        <time>2020-12-05T15:59:30.095Z</time>
      </trkpt>
      <trkpt lat="48.79447" lon="2.24466">
        <ele>126</ele>
        <time>2020-12-05T15:59:31.095Z</time>
      </trkpt>
      <trkpt lat="48.79448" lon="2.24464">
        <ele>126</ele>
        <time>2020-12-05T15:59:32.095Z</time>
      </trkpt>
      <trkpt lat="48.79448" lon="2.24462">
        <ele>126</ele>
        <time>2020-12-05T15:59:33.095Z</time>
      </trkpt>
      <trkpt lat="48.79449" lon="2.2446">
        <ele>126</ele>
        <time>2020-12-05T15:59:34.095Z</time>
      </trkpt>
      <trkpt lat="48.7945" lon="2.24458">
        <ele>125</ele>
        <time>2020-12-05T15:59:35.095Z</time>
      </trkpt>
      <trkpt lat="48.7945" lon="2.24455">
        <ele>125</ele>
        <time>2020-12-05T15:59:36.094Z</time>
      </trkpt>
      <trkpt lat="48.7945" lon="2.24452">
        <ele>124</ele>
        <time>2020-12-05T15:59:37.095Z</time>
      </trkpt>
      <trkpt lat="48.79451" lon="2.24451">
        <ele>124</ele>
        <time>2020-12-05T15:59:38.094Z</time>
      </trkpt>
      <trkpt lat="48.79452" lon="2.24449">
        <ele>123</ele>
        <time>2020-12-05T15:59:39.094Z</time>
      </trkpt>
      <trkpt lat="48.79452" lon="2.24447">
        <ele>123</ele>
        <time>2020-12-05T15:59:40.094Z</time>
      </trkpt>
      <trkpt lat="48.79453" lon="2.24445">
        <ele>123</ele>
        <time>2020-12-05T15:59:41.094Z</time>
      </trkpt>
      <trkpt lat="48.79454" lon="2.24443">
        <ele>123</ele>
        <time>2020-12-05T15:59:42.095Z</time>
      </trkpt>
      <trkpt lat="48.79455" lon="2.24442">
        <ele>122</ele>
        <time>2020-12-05T15:59:43.094Z</time>
      </trkpt>
      <trkpt lat="48.79456" lon="2.2444">
        <ele>122</ele>
        <time>2020-12-05T15:59:44.095Z</time>
      </trkpt>
      <trkpt lat="48.79457" lon="2.24438">
        <ele>122</ele>
        <time>2020-12-05T15:59:45.094Z</time>
      </trkpt>
      <trkpt lat="48.79457" lon="2.24436">
        <ele>122</ele>
        <time>2020-12-05T15:59:46.095Z</time>
      </trkpt>
      <trkpt lat="48.79458" lon="2.24435">
        <ele>121</ele>
        <time>2020-12-05T15:59:47.094Z</time>
      </trkpt>
      <trkpt lat="48.79459" lon="2.24433">
        <ele>121</ele>
        <time>2020-12-05T15:59:48.095Z</time>
      </trkpt>
      <trkpt lat="48.7946" lon="2.24431">
        <ele>122</ele>
        <time>2020-12-05T15:59:49.094Z</time>
      </trkpt>
      <trkpt lat="48.79461" lon="2.24429">
        <ele>123</ele>
        <time>2020-12-05T15:59:50.094Z</time>
      </trkpt>
      <trkpt lat="48.79462" lon="2.24428">
        <ele>123</ele>
        <time>2020-12-05T15:59:51.094Z</time>
      </trkpt>
      <trkpt lat="48.79463" lon="2.24426">
        <ele>124</ele>
        <time>2020-12-05T15:59:52.095Z</time>
      </trkpt>
      <trkpt lat="48.79463" lon="2.24424">
        <ele>124</ele>
        <time>2020-12-05T15:59:53.094Z</time>
      </trkpt>
      <trkpt lat="48.79464" lon="2.24421">
        <ele>124</ele>
        <time>2020-12-05T15:59:54.095Z</time>
      </trkpt>
      <trkpt lat="48.79465" lon="2.24419">
        <ele>125</ele>
        <time>2020-12-05T15:59:55.095Z</time>
      </trkpt>
      <trkpt lat="48.79465" lon="2.24417">
        <ele>125</ele>
        <time>2020-12-05T15:59:56.095Z</time>
      </trkpt>
      <trkpt lat="48.79466" lon="2.24415">
        <ele>126</ele>
        <time>2020-12-05T15:59:57.095Z</time>
      </trkpt>
      <trkpt lat="48.79467" lon="2.24414">
        <ele>126</ele>
        <time>2020-12-05T15:59:58.095Z</time>
      </trkpt>
      <trkpt lat="48.79468" lon="2.24412">
        <ele>126</ele>
        <time>2020-12-05T15:59:59.095Z</time>
      </trkpt>
      <trkpt lat="48.79468" lon="2.2441">
        <ele>126</ele>
        <time>2020-12-05T16:00:00.094Z</time>
      </trkpt>
      <trkpt lat="48.79471" lon="2.24407">
        <ele>126</ele>
        <time>2020-12-05T16:00:01.094Z</time>
      </trkpt>
      <trkpt lat="48.79472" lon="2.24405">
        <ele>126</ele>
        <time>2020-12-05T16:00:02.095Z</time>
      </trkpt>
      <trkpt lat="48.79473" lon="2.24403">
        <ele>125</ele>
        <time>2020-12-05T16:00:03.094Z</time>
      </trkpt>
      <trkpt lat="48.79474" lon="2.24401">
        <ele>125</ele>
        <time>2020-12-05T16:00:04.095Z</time>
      </trkpt>
      <trkpt lat="48.79474" lon="2.24399">
        <ele>125</ele>
        <time>2020-12-05T16:00:05.095Z</time>
      </trkpt>
      <trkpt lat="48.79475" lon="2.24397">
        <ele>124</ele>
        <time>2020-12-05T16:00:06.094Z</time>
      </trkpt>
      <trkpt lat="48.79475" lon="2.24394">
        <ele>124</ele>
        <time>2020-12-05T16:00:07.094Z</time>
      </trkpt>
      <trkpt lat="48.79476" lon="2.24392">
        <ele>123</ele>
        <time>2020-12-05T16:00:08.094Z</time>
      </trkpt>
      <trkpt lat="48.79476" lon="2.24391">
        <ele>122</ele>
        <time>2020-12-05T16:00:09.094Z</time>
      </trkpt>
      <trkpt lat="48.79477" lon="2.24389">
        <ele>121</ele>
        <time>2020-12-05T16:00:10.094Z</time>
      </trkpt>
      <trkpt lat="48.79477" lon="2.24387">
        <ele>121</ele>
        <time>2020-12-05T16:00:11.094Z</time>
      </trkpt>
      <trkpt lat="48.79477" lon="2.24385">
        <ele>120</ele>
        <time>2020-12-05T16:00:12.094Z</time>
      </trkpt>
      <trkpt lat="48.79478" lon="2.24384">
        <ele>120</ele>
        <time>2020-12-05T16:00:13.095Z</time>
      </trkpt>
      <trkpt lat="48.79478" lon="2.24382">
        <ele>120</ele>
        <time>2020-12-05T16:00:14.094Z</time>
      </trkpt>
      <trkpt lat="48.79478" lon="2.24381">
        <ele>119</ele>
        <time>2020-12-05T16:00:15.095Z</time>
      </trkpt>
      <trkpt lat="48.79478" lon="2.24379">
        <ele>119</ele>
        <time>2020-12-05T16:00:16.095Z</time>
      </trkpt>
      <trkpt lat="48.79478" lon="2.24376">
        <ele>118</ele>
        <time>2020-12-05T16:00:17.095Z</time>
      </trkpt>
      <trkpt lat="48.79478" lon="2.24374">
        <ele>118</ele>
        <time>2020-12-05T16:00:18.095Z</time>
      </trkpt>
      <trkpt lat="48.79479" lon="2.24372">
        <ele>118</ele>
        <time>2020-12-05T16:00:19.094Z</time>
      </trkpt>
      <trkpt lat="48.7948" lon="2.2437">
        <ele>117</ele>
        <time>2020-12-05T16:00:20.095Z</time>
      </trkpt>
      <trkpt lat="48.7948" lon="2.24369">
        <ele>117</ele>
        <time>2020-12-05T16:00:21.094Z</time>
      </trkpt>
      <trkpt lat="48.79481" lon="2.24367">
        <ele>117</ele>
        <time>2020-12-05T16:00:22.095Z</time>
      </trkpt>
      <trkpt lat="48.79482" lon="2.24365">
        <ele>118</ele>
        <time>2020-12-05T16:00:23.095Z</time>
      </trkpt>
      <trkpt lat="48.79482" lon="2.24364">
        <ele>118</ele>
        <time>2020-12-05T16:00:24.095Z</time>
      </trkpt>
      <trkpt lat="48.79482" lon="2.24362">
        <ele>119</ele>
        <time>2020-12-05T16:00:25.094Z</time>
      </trkpt>
      <trkpt lat="48.79483" lon="2.24359">
        <ele>119</ele>
        <time>2020-12-05T16:00:26.095Z</time>
      </trkpt>
      <trkpt lat="48.79483" lon="2.24358">
        <ele>119</ele>
        <time>2020-12-05T16:00:27.095Z</time>
      </trkpt>
      <trkpt lat="48.79484" lon="2.24355">
        <ele>120</ele>
        <time>2020-12-05T16:00:28.094Z</time>
      </trkpt>
      <trkpt lat="48.79484" lon="2.24353">
        <ele>120</ele>
        <time>2020-12-05T16:00:29.095Z</time>
      </trkpt>
      <trkpt lat="48.79484" lon="2.24351">
        <ele>121</ele>
        <time>2020-12-05T16:00:30.095Z</time>
      </trkpt>
      <trkpt lat="48.79484" lon="2.24349">
        <ele>121</ele>
        <time>2020-12-05T16:00:31.095Z</time>
      </trkpt>
      <trkpt lat="48.79485" lon="2.24346">
        <ele>121</ele>
        <time>2020-12-05T16:00:32.095Z</time>
      </trkpt>
      <trkpt lat="48.79484" lon="2.24343">
        <ele>121</ele>
        <time>2020-12-05T16:00:33.094Z</time>
      </trkpt>
      <trkpt lat="48.79483" lon="2.24341">
        <ele>121</ele>
        <time>2020-12-05T16:00:34.095Z</time>
      </trkpt>
      <trkpt lat="48.79483" lon="2.24339">
        <ele>121</ele>
        <time>2020-12-05T16:00:35.094Z</time>
      </trkpt>
      <trkpt lat="48.79482" lon="2.24337">
        <ele>121</ele>
        <time>2020-12-05T16:00:36.095Z</time>
      </trkpt>
      <trkpt lat="48.79482" lon="2.24334">
        <ele>121</ele>
        <time>2020-12-05T16:00:37.095Z</time>
      </trkpt>
      <trkpt lat="48.79482" lon="2.24331">
        <ele>122</ele>
        <time>2020-12-05T16:00:38.095Z</time>
      </trkpt>
      <trkpt lat="48.79482" lon="2.24329">
        <ele>122</ele>
        <time>2020-12-05T16:00:39.095Z</time>
      </trkpt>
      <trkpt lat="48.79482" lon="2.24326">
        <ele>123</ele>
        <time>2020-12-05T16:00:40.095Z</time>
      </trkpt>
      <trkpt lat="48.79482" lon="2.24324">
        <ele>123</ele>
        <time>2020-12-05T16:00:41.095Z</time>
      </trkpt>
      <trkpt lat="48.79482" lon="2.24321">
        <ele>124</ele>
        <time>2020-12-05T16:00:42.095Z</time>
      </trkpt>
      <trkpt lat="48.79483" lon="2.24318">
        <ele>125</ele>
        <time>2020-12-05T16:00:43.094Z</time>
      </trkpt>
      <trkpt lat="48.79483" lon="2.24316">
        <ele>125</ele>
        <time>2020-12-05T16:00:44.095Z</time>
      </trkpt>
      <trkpt lat="48.79483" lon="2.24313">
        <ele>126</ele>
        <time>2020-12-05T16:00:45.094Z</time>
      </trkpt>
      <trkpt lat="48.79483" lon="2.24311">
        <ele>126</ele>
        <time>2020-12-05T16:00:46.095Z</time>
      </trkpt>
      <trkpt lat="48.79483" lon="2.24308">
        <ele>126</ele>
        <time>2020-12-05T16:00:47.094Z</time>
      </trkpt>
      <trkpt lat="48.79484" lon="2.24306">
        <ele>127</ele>
        <time>2020-12-05T16:00:48.094Z</time>
      </trkpt>
      <trkpt lat="48.79485" lon="2.24305">
        <ele>127</ele>
        <time>2020-12-05T16:00:49.095Z</time>
      </trkpt>
      <trkpt lat="48.79486" lon="2.24303">
        <ele>127</ele>
        <time>2020-12-05T16:00:50.095Z</time>
      </trkpt>
      <trkpt lat="48.79486" lon="2.24302">
        <ele>128</ele>
        <time>2020-12-05T16:00:51.095Z</time>
      </trkpt>
      <trkpt lat="48.79486" lon="2.243">
        <ele>128</ele>
        <time>2020-12-05T16:00:52.095Z</time>
      </trkpt>
      <trkpt lat="48.79486" lon="2.24298">
        <ele>128</ele>
        <time>2020-12-05T16:00:53.095Z</time>
      </trkpt>
      <trkpt lat="48.79486" lon="2.24296">
        <ele>128</ele>
        <time>2020-12-05T16:00:54.095Z</time>
      </trkpt>
      <trkpt lat="48.79487" lon="2.24294">
        <ele>128</ele>
        <time>2020-12-05T16:00:55.095Z</time>
      </trkpt>
      <trkpt lat="48.79487" lon="2.24293">
        <ele>128</ele>
        <time>2020-12-05T16:00:56.095Z</time>
      </trkpt>
      <trkpt lat="48.79487" lon="2.2429">
        <ele>128</ele>
        <time>2020-12-05T16:00:57.094Z</time>
      </trkpt>
      <trkpt lat="48.79488" lon="2.24289">
        <ele>127</ele>
        <time>2020-12-05T16:00:58.094Z</time>
      </trkpt>
      <trkpt lat="48.79489" lon="2.24286">
        <ele>127</ele>
        <time>2020-12-05T16:00:59.094Z</time>
      </trkpt>
      <trkpt lat="48.79489" lon="2.24283">
        <ele>127</ele>
        <time>2020-12-05T16:01:00.094Z</time>
      </trkpt>
      <trkpt lat="48.7949" lon="2.24282">
        <ele>127</ele>
        <time>2020-12-05T16:01:01.095Z</time>
      </trkpt>
      <trkpt lat="48.79491" lon="2.2428">
        <ele>126</ele>
        <time>2020-12-05T16:01:02.095Z</time>
      </trkpt>
      <trkpt lat="48.79492" lon="2.24278">
        <ele>126</ele>
        <time>2020-12-05T16:01:03.095Z</time>
      </trkpt>
      <trkpt lat="48.79493" lon="2.24277">
        <ele>125</ele>
        <time>2020-12-05T16:01:04.095Z</time>
      </trkpt>
      <trkpt lat="48.79494" lon="2.24274">
        <ele>125</ele>
        <time>2020-12-05T16:01:05.095Z</time>
      </trkpt>
      <trkpt lat="48.79494" lon="2.24272">
        <ele>124</ele>
        <time>2020-12-05T16:01:06.095Z</time>
      </trkpt>
      <trkpt lat="48.79495" lon="2.24271">
        <ele>124</ele>
        <time>2020-12-05T16:01:07.095Z</time>
      </trkpt>
      <trkpt lat="48.79496" lon="2.24269">
        <ele>124</ele>
        <time>2020-12-05T16:01:08.094Z</time>
      </trkpt>
      <trkpt lat="48.79496" lon="2.24267">
        <ele>124</ele>
        <time>2020-12-05T16:01:09.094Z</time>
      </trkpt>
      <trkpt lat="48.79497" lon="2.24266">
        <ele>124</ele>
        <time>2020-12-05T16:01:10.094Z</time>
      </trkpt>
      <trkpt lat="48.79497" lon="2.24263">
        <ele>124</ele>
        <time>2020-12-05T16:01:11.095Z</time>
      </trkpt>
      <trkpt lat="48.79497" lon="2.24262">
        <ele>123</ele>
        <time>2020-12-05T16:01:12.094Z</time>
      </trkpt>
      <trkpt lat="48.79498" lon="2.24259">
        <ele>123</ele>
        <time>2020-12-05T16:01:13.094Z</time>
      </trkpt>
      <trkpt lat="48.79499" lon="2.24258">
        <ele>122</ele>
        <time>2020-12-05T16:01:14.094Z</time>
      </trkpt>
      <trkpt lat="48.795" lon="2.24257">
        <ele>121</ele>
        <time>2020-12-05T16:01:15.095Z</time>
      </trkpt>
      <trkpt lat="48.795" lon="2.24255">
        <ele>120</ele>
        <time>2020-12-05T16:01:16.095Z</time>
      </trkpt>
      <trkpt lat="48.79501" lon="2.24254">
        <ele>120</ele>
        <time>2020-12-05T16:01:17.094Z</time>
      </trkpt>
      <trkpt lat="48.79502" lon="2.24253">
        <ele>119</ele>
        <time>2020-12-05T16:01:18.095Z</time>
      </trkpt>
      <trkpt lat="48.79502" lon="2.24251">
        <ele>118</ele>
        <time>2020-12-05T16:01:19.094Z</time>
      </trkpt>
      <trkpt lat="48.79503" lon="2.2425">
        <ele>117</ele>
        <time>2020-12-05T16:01:20.095Z</time>
      </trkpt>
      <trkpt lat="48.79504" lon="2.24248">
        <ele>117</ele>
        <time>2020-12-05T16:01:21.095Z</time>
      </trkpt>
      <trkpt lat="48.79504" lon="2.24246">
        <ele>117</ele>
        <time>2020-12-05T16:01:22.095Z</time>
      </trkpt>
      <trkpt lat="48.79505" lon="2.24244">
        <ele>116</ele>
        <time>2020-12-05T16:01:23.095Z</time>
      </trkpt>
      <trkpt lat="48.79505" lon="2.24242">
        <ele>116</ele>
        <time>2020-12-05T16:01:24.095Z</time>
      </trkpt>
      <trkpt lat="48.79506" lon="2.2424">
        <ele>116</ele>
        <time>2020-12-05T16:01:25.094Z</time>
      </trkpt>
      <trkpt lat="48.79506" lon="2.24238">
        <ele>117</ele>
        <time>2020-12-05T16:01:26.095Z</time>
      </trkpt>
      <trkpt lat="48.79506" lon="2.24235">
        <ele>117</ele>
        <time>2020-12-05T16:01:27.095Z</time>
      </trkpt>
      <trkpt lat="48.79508" lon="2.24231">
        <ele>117</ele>
        <time>2020-12-05T16:01:28.095Z</time>
      </trkpt>
      <trkpt lat="48.79508" lon="2.24229">
        <ele>117</ele>
        <time>2020-12-05T16:01:29.095Z</time>
      </trkpt>
      <trkpt lat="48.79508" lon="2.24227">
        <ele>118</ele>
        <time>2020-12-05T16:01:30.095Z</time>
      </trkpt>
      <trkpt lat="48.79509" lon="2.24226">
        <ele>118</ele>
        <time>2020-12-05T16:01:31.095Z</time>
      </trkpt>
      <trkpt lat="48.79509" lon="2.24224">
        <ele>118</ele>
        <time>2020-12-05T16:01:32.095Z</time>
      </trkpt>
      <trkpt lat="48.79509" lon="2.24222">
        <ele>118</ele>
        <time>2020-12-05T16:01:33.095Z</time>
      </trkpt>
      <trkpt lat="48.7951" lon="2.2422">
        <ele>118</ele>
        <time>2020-12-05T16:01:34.095Z</time>
      </trkpt>
      <trkpt lat="48.7951" lon="2.24219">
        <ele>118</ele>
        <time>2020-12-05T16:01:35.095Z</time>
      </trkpt>
      <trkpt lat="48.79511" lon="2.24217">
        <ele>118</ele>
        <time>2020-12-05T16:01:36.095Z</time>
      </trkpt>
      <trkpt lat="48.79512" lon="2.24216">
        <ele>118</ele>
        <time>2020-12-05T16:01:37.094Z</time>
      </trkpt>
      <trkpt lat="48.79512" lon="2.24215">
        <ele>118</ele>
        <time>2020-12-05T16:01:38.095Z</time>
      </trkpt>
      <trkpt lat="48.79513" lon="2.24213">
        <ele>119</ele>
        <time>2020-12-05T16:01:39.094Z</time>
      </trkpt>
      <trkpt lat="48.79514" lon="2.24211">
        <ele>119</ele>
        <time>2020-12-05T16:01:40.095Z</time>
      </trkpt>
      <trkpt lat="48.79514" lon="2.2421">
        <ele>119</ele>
        <time>2020-12-05T16:01:41.094Z</time>
      </trkpt>
      <trkpt lat="48.79515" lon="2.24209">
        <ele>119</ele>
        <time>2020-12-05T16:01:42.095Z</time>
      </trkpt>
      <trkpt lat="48.79515" lon="2.24208">
        <ele>120</ele>
        <time>2020-12-05T16:01:43.094Z</time>
      </trkpt>
      <trkpt lat="48.79516" lon="2.24206">
        <ele>120</ele>
        <time>2020-12-05T16:01:44.095Z</time>
      </trkpt>
      <trkpt lat="48.79516" lon="2.24205">
        <ele>120</ele>
        <time>2020-12-05T16:01:45.095Z</time>
      </trkpt>
      <trkpt lat="48.79517" lon="2.24203">
        <ele>120</ele>
        <time>2020-12-05T16:01:46.095Z</time>
      </trkpt>
      <trkpt lat="48.79517" lon="2.24201">
        <ele>120</ele>
        <time>2020-12-05T16:01:47.094Z</time>
      </trkpt>
      <trkpt lat="48.79518" lon="2.24198">
        <ele>120</ele>
        <time>2020-12-05T16:01:48.095Z</time>
      </trkpt>
      <trkpt lat="48.79518" lon="2.24196">
        <ele>120</ele>
        <time>2020-12-05T16:01:49.094Z</time>
      </trkpt>
      <trkpt lat="48.79519" lon="2.24192">
        <ele>120</ele>
        <time>2020-12-05T16:01:50.095Z</time>
      </trkpt>
      <trkpt lat="48.7952" lon="2.24189">
        <ele>120</ele>
        <time>2020-12-05T16:01:51.094Z</time>
      </trkpt>
      <trkpt lat="48.79521" lon="2.24187">
        <ele>119</ele>
        <time>2020-12-05T16:01:52.095Z</time>
      </trkpt>
      <trkpt lat="48.79521" lon="2.24185">
        <ele>119</ele>
        <time>2020-12-05T16:01:53.094Z</time>
      </trkpt>
      <trkpt lat="48.79522" lon="2.24183">
        <ele>119</ele>
        <time>2020-12-05T16:01:54.095Z</time>
      </trkpt>
      <trkpt lat="48.79523" lon="2.24181">
        <ele>119</ele>
        <time>2020-12-05T16:01:55.094Z</time>
      </trkpt>
      <trkpt lat="48.79523" lon="2.24179">
        <ele>119</ele>
        <time>2020-12-05T16:01:56.095Z</time>
      </trkpt>
      <trkpt lat="48.79524" lon="2.24177">
        <ele>119</ele>
        <time>2020-12-05T16:01:57.095Z</time>
      </trkpt>
      <trkpt lat="48.79525" lon="2.24176">
        <ele>119</ele>
        <time>2020-12-05T16:01:58.094Z</time>
      </trkpt>
      <trkpt lat="48.79527" lon="2.24174">
        <ele>119</ele>
        <time>2020-12-05T16:01:59.095Z</time>
      </trkpt>
      <trkpt lat="48.79528" lon="2.24172">
        <ele>119</ele>
        <time>2020-12-05T16:02:00.094Z</time>
      </trkpt>
      <trkpt lat="48.79529" lon="2.2417">
        <ele>118</ele>
        <time>2020-12-05T16:02:01.094Z</time>
      </trkpt>
      <trkpt lat="48.7953" lon="2.24168">
        <ele>118</ele>
        <time>2020-12-05T16:02:02.095Z</time>
      </trkpt>
      <trkpt lat="48.79531" lon="2.24165">
        <ele>118</ele>
        <time>2020-12-05T16:02:03.095Z</time>
      </trkpt>
      <trkpt lat="48.79532" lon="2.24163">
        <ele>118</ele>
        <time>2020-12-05T16:02:04.094Z</time>
      </trkpt>
      <trkpt lat="48.79533" lon="2.2416">
        <ele>118</ele>
        <time>2020-12-05T16:02:05.095Z</time>
      </trkpt>
      <trkpt lat="48.79533" lon="2.24157">
        <ele>118</ele>
        <time>2020-12-05T16:02:06.095Z</time>
      </trkpt>
      <trkpt lat="48.79534" lon="2.24155">
        <ele>117</ele>
        <time>2020-12-05T16:02:07.095Z</time>
      </trkpt>
      <trkpt lat="48.79535" lon="2.24152">
        <ele>116</ele>
        <time>2020-12-05T16:02:08.095Z</time>
      </trkpt>
      <trkpt lat="48.79536" lon="2.2415">
        <ele>116</ele>
        <time>2020-12-05T16:02:09.094Z</time>
      </trkpt>
      <trkpt lat="48.79537" lon="2.24148">
        <ele>115</ele>
        <time>2020-12-05T16:02:10.094Z</time>
      </trkpt>
      <trkpt lat="48.79538" lon="2.24146">
        <ele>114</ele>
        <time>2020-12-05T16:02:11.094Z</time>
      </trkpt>
      <trkpt lat="48.79539" lon="2.24143">
        <ele>114</ele>
        <time>2020-12-05T16:02:12.095Z</time>
      </trkpt>
      <trkpt lat="48.79539" lon="2.24141">
        <ele>114</ele>
        <time>2020-12-05T16:02:13.095Z</time>
      </trkpt>
      <trkpt lat="48.7954" lon="2.24138">
        <ele>114</ele>
        <time>2020-12-05T16:02:14.094Z</time>
      </trkpt>
      <trkpt lat="48.79541" lon="2.24136">
        <ele>114</ele>
        <time>2020-12-05T16:02:15.094Z</time>
      </trkpt>
      <trkpt lat="48.79541" lon="2.24134">
        <ele>114</ele>
        <time>2020-12-05T16:02:16.095Z</time>
      </trkpt>
      <trkpt lat="48.79541" lon="2.24132">
        <ele>114</ele>
        <time>2020-12-05T16:02:17.094Z</time>
      </trkpt>
      <trkpt lat="48.79542" lon="2.2413">
        <ele>114</ele>
        <time>2020-12-05T16:02:18.095Z</time>
      </trkpt>
      <trkpt lat="48.79542" lon="2.24129">
        <ele>114</ele>
        <time>2020-12-05T16:02:19.095Z</time>
      </trkpt>
      <trkpt lat="48.79541" lon="2.24128">
        <ele>115</ele>
        <time>2020-12-05T16:02:20.095Z</time>
      </trkpt>
      <trkpt lat="48.79541" lon="2.24129">
        <ele>115</ele>
        <time>2020-12-05T16:02:21.094Z</time>
      </trkpt>
      <trkpt lat="48.7954" lon="2.24128">
        <ele>115</ele>
        <time>2020-12-05T16:02:22.095Z</time>
      </trkpt>
      <trkpt lat="48.7954" lon="2.24128">
        <ele>115</ele>
        <time>2020-12-05T16:02:23.095Z</time>
      </trkpt>
      <trkpt lat="48.79539" lon="2.24128">
        <ele>115</ele>
        <time>2020-12-05T16:02:24.095Z</time>
      </trkpt>
      <trkpt lat="48.79538" lon="2.24127">
        <ele>115</ele>
        <time>2020-12-05T16:02:25.095Z</time>
      </trkpt>
      <trkpt lat="48.79537" lon="2.24125">
        <ele>115</ele>
        <time>2020-12-05T16:02:26.095Z</time>
      </trkpt>
      <trkpt lat="48.79537" lon="2.24124">
        <ele>115</ele>
        <time>2020-12-05T16:02:27.095Z</time>
      </trkpt>
      <trkpt lat="48.79536" lon="2.24124">
        <ele>115</ele>
        <time>2020-12-05T16:02:28.095Z</time>
      </trkpt>
      <trkpt lat="48.79535" lon="2.24124">
        <ele>115</ele>
        <time>2020-12-05T16:02:29.095Z</time>
      </trkpt>
      <trkpt lat="48.79534" lon="2.24125">
        <ele>115</ele>
        <time>2020-12-05T16:02:30.095Z</time>
      </trkpt>
      <trkpt lat="48.79533" lon="2.24125">
        <ele>115</ele>
        <time>2020-12-05T16:02:31.094Z</time>
      </trkpt>
      <trkpt lat="48.79533" lon="2.24126">
        <ele>115</ele>
        <time>2020-12-05T16:02:32.094Z</time>
      </trkpt>
      <trkpt lat="48.79533" lon="2.24127">
        <ele>115</ele>
        <time>2020-12-05T16:02:33.095Z</time>
      </trkpt>
      <trkpt lat="48.79533" lon="2.24127">
        <ele>115</ele>
        <time>2020-12-05T16:02:34.094Z</time>
      </trkpt>
      <trkpt lat="48.79533" lon="2.24128">
        <ele>114</ele>
        <time>2020-12-05T16:02:35.095Z</time>
      </trkpt>
      <trkpt lat="48.79533" lon="2.24128">
        <ele>113</ele>
        <time>2020-12-05T16:02:36.095Z</time>
      </trkpt>
      <trkpt lat="48.79533" lon="2.24128">
        <ele>113</ele>
        <time>2020-12-05T16:02:37.094Z</time>
      </trkpt>
      <trkpt lat="48.79533" lon="2.24129">
        <ele>112</ele>
        <time>2020-12-05T16:02:38.095Z</time>
      </trkpt>
      <trkpt lat="48.79534" lon="2.24129">
        <ele>111</ele>
        <time>2020-12-05T16:02:39.094Z</time>
      </trkpt>
      <trkpt lat="48.79534" lon="2.24129">
        <ele>111</ele>
        <time>2020-12-05T16:02:40.095Z</time>
      </trkpt>
      <trkpt lat="48.79535" lon="2.2413">
        <ele>110</ele>
        <time>2020-12-05T16:02:41.095Z</time>
      </trkpt>
      <trkpt lat="48.79536" lon="2.24129">
        <ele>110</ele>
        <time>2020-12-05T16:02:42.095Z</time>
      </trkpt>
      <trkpt lat="48.79536" lon="2.24129">
        <ele>109</ele>
        <time>2020-12-05T16:02:43.095Z</time>
      </trkpt>
      <trkpt lat="48.79536" lon="2.24129">
        <ele>109</ele>
        <time>2020-12-05T16:02:44.095Z</time>
      </trkpt>
      <trkpt lat="48.79536" lon="2.24129">
        <ele>110</ele>
        <time>2020-12-05T16:02:45.094Z</time>
      </trkpt>
      <trkpt lat="48.79536" lon="2.24129">
        <ele>110</ele>
        <time>2020-12-05T16:02:46.094Z</time>
      </trkpt>
      <trkpt lat="48.79536" lon="2.24129">
        <ele>110</ele>
        <time>2020-12-05T16:02:47.095Z</time>
      </trkpt>
      <trkpt lat="48.79536" lon="2.24129">
        <ele>109</ele>
        <time>2020-12-05T16:02:48.095Z</time>
      </trkpt>
      <trkpt lat="48.79536" lon="2.24129">
        <ele>109</ele>
        <time>2020-12-05T16:02:49.095Z</time>
      </trkpt>
      <trkpt lat="48.79536" lon="2.24129">
        <ele>109</ele>
        <time>2020-12-05T16:02:50.095Z</time>
      </trkpt>
      <trkpt lat="48.79536" lon="2.24129">
        <ele>109</ele>
        <time>2020-12-05T16:02:51.095Z</time>
      </trkpt>
      <trkpt lat="48.79536" lon="2.24129">
        <ele>108</ele>
        <time>2020-12-05T16:02:52.095Z</time>
      </trkpt>
      <trkpt lat="48.79536" lon="2.24129">
        <ele>108</ele>
        <time>2020-12-05T16:02:53.094Z</time>
      </trkpt>
      <trkpt lat="48.79536" lon="2.24129">
        <ele>108</ele>
        <time>2020-12-05T16:02:54.095Z</time>
      </trkpt>
      <trkpt lat="48.79536" lon="2.24129">
        <ele>108</ele>
        <time>2020-12-05T16:02:55.094Z</time>
      </trkpt>
      <trkpt lat="48.79536" lon="2.24129">
        <ele>108</ele>
        <time>2020-12-05T16:02:56.095Z</time>
      </trkpt>
      <trkpt lat="48.79536" lon="2.24129">
        <ele>107</ele>
        <time>2020-12-05T16:02:57.095Z</time>
      </trkpt>
      <trkpt lat="48.79536" lon="2.24129">
        <ele>107</ele>
        <time>2020-12-05T16:02:58.095Z</time>
      </trkpt>
      <trkpt lat="48.79536" lon="2.24129">
        <ele>107</ele>
        <time>2020-12-05T16:02:59.095Z</time>
      </trkpt>
      <trkpt lat="48.79536" lon="2.24129">
        <ele>106</ele>
        <time>2020-12-05T16:03:00.095Z</time>
      </trkpt>
      <trkpt lat="48.79536" lon="2.24129">
        <ele>106</ele>
        <time>2020-12-05T16:03:01.095Z</time>
      </trkpt>
      <trkpt lat="48.79537" lon="2.24129">
        <ele>106</ele>
        <time>2020-12-05T16:03:02.095Z</time>
      </trkpt>
      <trkpt lat="48.79537" lon="2.2413">
        <ele>105</ele>
        <time>2020-12-05T16:03:03.095Z</time>
      </trkpt>
      <trkpt lat="48.79538" lon="2.2413">
        <ele>105</ele>
        <time>2020-12-05T16:03:04.095Z</time>
      </trkpt>
      <trkpt lat="48.79538" lon="2.2413">
        <ele>105</ele>
        <time>2020-12-05T16:03:05.095Z</time>
      </trkpt>
      <trkpt lat="48.79538" lon="2.2413">
        <ele>105</ele>
        <time>2020-12-05T16:03:06.095Z</time>
      </trkpt>
      <trkpt lat="48.79538" lon="2.2413">
        <ele>104</ele>
        <time>2020-12-05T16:03:07.095Z</time>
      </trkpt>
      <trkpt lat="48.79538" lon="2.2413">
        <ele>104</ele>
        <time>2020-12-05T16:03:08.095Z</time>
      </trkpt>
      <trkpt lat="48.79538" lon="2.2413">
        <ele>104</ele>
        <time>2020-12-05T16:03:09.095Z</time>
      </trkpt>
      <trkpt lat="48.79538" lon="2.24131">
        <ele>104</ele>
        <time>2020-12-05T16:03:10.095Z</time>
      </trkpt>
      <trkpt lat="48.79538" lon="2.24131">
        <ele>104</ele>
        <time>2020-12-05T16:03:11.095Z</time>
      </trkpt>
      <trkpt lat="48.79539" lon="2.24131">
        <ele>104</ele>
        <time>2020-12-05T16:03:12.095Z</time>
      </trkpt>
      <trkpt lat="48.7954" lon="2.24131">
        <ele>103</ele>
        <time>2020-12-05T16:03:13.095Z</time>
      </trkpt>
      <trkpt lat="48.7954" lon="2.24131">
        <ele>103</ele>
        <time>2020-12-05T16:03:14.095Z</time>
      </trkpt>
      <trkpt lat="48.7954" lon="2.24131">
        <ele>103</ele>
        <time>2020-12-05T16:03:15.095Z</time>
      </trkpt>
      <trkpt lat="48.79541" lon="2.24131">
        <ele>103</ele>
        <time>2020-12-05T16:03:16.094Z</time>
      </trkpt>
      <trkpt lat="48.79541" lon="2.24131">
        <ele>103</ele>
        <time>2020-12-05T16:03:17.095Z</time>
      </trkpt>
      <trkpt lat="48.79541" lon="2.24131">
        <ele>103</ele>
        <time>2020-12-05T16:03:18.094Z</time>
      </trkpt>
      <trkpt lat="48.79541" lon="2.24131">
        <ele>103</ele>
        <time>2020-12-05T16:03:19.095Z</time>
      </trkpt>
      <trkpt lat="48.79541" lon="2.24131">
        <ele>103</ele>
        <time>2020-12-05T16:03:20.095Z</time>
      </trkpt>
      <trkpt lat="48.79541" lon="2.24131">
        <ele>103</ele>
        <time>2020-12-05T16:03:21.095Z</time>
      </trkpt>
      <trkpt lat="48.79541" lon="2.24131">
        <ele>103</ele>
        <time>2020-12-05T16:03:22.095Z</time>
      </trkpt>
      <trkpt lat="48.79541" lon="2.24131">
        <ele>103</ele>
        <time>2020-12-05T16:03:23.095Z</time>
      </trkpt>
      <trkpt lat="48.79542" lon="2.24131">
        <ele>103</ele>
        <time>2020-12-05T16:03:24.094Z</time>
      </trkpt>
      <trkpt lat="48.79541" lon="2.24129">
        <ele>103</ele>
        <time>2020-12-05T16:03:25.095Z</time>
      </trkpt>
      <trkpt lat="48.79541" lon="2.24126">
        <ele>103</ele>
        <time>2020-12-05T16:03:26.095Z</time>
      </trkpt>
      <trkpt lat="48.79541" lon="2.24123">
        <ele>103</ele>
        <time>2020-12-05T16:03:27.095Z</time>
      </trkpt>
      <trkpt lat="48.79541" lon="2.24121">
        <ele>103</ele>
        <time>2020-12-05T16:03:28.094Z</time>
      </trkpt>
      <trkpt lat="48.7954" lon="2.24118">
        <ele>103</ele>
        <time>2020-12-05T16:03:29.095Z</time>
      </trkpt>
      <trkpt lat="48.7954" lon="2.24116">
        <ele>103</ele>
        <time>2020-12-05T16:03:30.094Z</time>
      </trkpt>
      <trkpt lat="48.7954" lon="2.24113">
        <ele>103</ele>
        <time>2020-12-05T16:03:31.095Z</time>
      </trkpt>
      <trkpt lat="48.79539" lon="2.2411">
        <ele>104</ele>
        <time>2020-12-05T16:03:32.094Z</time>
      </trkpt>
      <trkpt lat="48.79538" lon="2.24108">
        <ele>105</ele>
        <time>2020-12-05T16:03:33.095Z</time>
      </trkpt>
      <trkpt lat="48.79537" lon="2.24106">
        <ele>106</ele>
        <time>2020-12-05T16:03:34.095Z</time>
      </trkpt>
      <trkpt lat="48.79537" lon="2.24104">
        <ele>107</ele>
        <time>2020-12-05T16:03:35.095Z</time>
      </trkpt>
      <trkpt lat="48.79536" lon="2.24103">
        <ele>108</ele>
        <time>2020-12-05T16:03:36.095Z</time>
      </trkpt>
      <trkpt lat="48.79535" lon="2.24101">
        <ele>108</ele>
        <time>2020-12-05T16:03:37.094Z</time>
      </trkpt>
      <trkpt lat="48.79534" lon="2.241">
        <ele>109</ele>
        <time>2020-12-05T16:03:38.095Z</time>
      </trkpt>
      <trkpt lat="48.79533" lon="2.24098">
        <ele>110</ele>
        <time>2020-12-05T16:03:39.094Z</time>
      </trkpt>
      <trkpt lat="48.79533" lon="2.24096">
        <ele>111</ele>
        <time>2020-12-05T16:03:40.095Z</time>
      </trkpt>
      <trkpt lat="48.79532" lon="2.24094">
        <ele>111</ele>
        <time>2020-12-05T16:03:41.095Z</time>
      </trkpt>
      <trkpt lat="48.79532" lon="2.24092">
        <ele>111</ele>
        <time>2020-12-05T16:03:42.095Z</time>
      </trkpt>
      <trkpt lat="48.79532" lon="2.2409">
        <ele>111</ele>
        <time>2020-12-05T16:03:43.095Z</time>
      </trkpt>
      <trkpt lat="48.79531" lon="2.24088">
        <ele>111</ele>
        <time>2020-12-05T16:03:44.095Z</time>
      </trkpt>
      <trkpt lat="48.79531" lon="2.24086">
        <ele>111</ele>
        <time>2020-12-05T16:03:45.095Z</time>
      </trkpt>
      <trkpt lat="48.7953" lon="2.24084">
        <ele>111</ele>
        <time>2020-12-05T16:03:46.095Z</time>
      </trkpt>
      <trkpt lat="48.7953" lon="2.24082">
        <ele>110</ele>
        <time>2020-12-05T16:03:47.095Z</time>
      </trkpt>
      <trkpt lat="48.7953" lon="2.2408">
        <ele>110</ele>
        <time>2020-12-05T16:03:48.095Z</time>
      </trkpt>
      <trkpt lat="48.79529" lon="2.24079">
        <ele>109</ele>
        <time>2020-12-05T16:03:49.095Z</time>
      </trkpt>
      <trkpt lat="48.79529" lon="2.24077">
        <ele>109</ele>
        <time>2020-12-05T16:03:50.094Z</time>
      </trkpt>
      <trkpt lat="48.79528" lon="2.24075">
        <ele>109</ele>
        <time>2020-12-05T16:03:51.094Z</time>
      </trkpt>
      <trkpt lat="48.79527" lon="2.24073">
        <ele>109</ele>
        <time>2020-12-05T16:03:52.095Z</time>
      </trkpt>
      <trkpt lat="48.79527" lon="2.24072">
        <ele>109</ele>
        <time>2020-12-05T16:03:53.095Z</time>
      </trkpt>
      <trkpt lat="48.79527" lon="2.2407">
        <ele>110</ele>
        <time>2020-12-05T16:03:54.095Z</time>
      </trkpt>
      <trkpt lat="48.79527" lon="2.24068">
        <ele>110</ele>
        <time>2020-12-05T16:03:55.095Z</time>
      </trkpt>
      <trkpt lat="48.79527" lon="2.24066">
        <ele>110</ele>
        <time>2020-12-05T16:03:56.095Z</time>
      </trkpt>
      <trkpt lat="48.79526" lon="2.24064">
        <ele>111</ele>
        <time>2020-12-05T16:03:57.095Z</time>
      </trkpt>
      <trkpt lat="48.79525" lon="2.24062">
        <ele>111</ele>
        <time>2020-12-05T16:03:58.095Z</time>
      </trkpt>
      <trkpt lat="48.79524" lon="2.24059">
        <ele>112</ele>
        <time>2020-12-05T16:03:59.095Z</time>
      </trkpt>
      <trkpt lat="48.79524" lon="2.24057">
        <ele>113</ele>
        <time>2020-12-05T16:04:00.095Z</time>
      </trkpt>
      <trkpt lat="48.79524" lon="2.24055">
        <ele>113</ele>
        <time>2020-12-05T16:04:01.095Z</time>
      </trkpt>
      <trkpt lat="48.79523" lon="2.24053">
        <ele>113</ele>
        <time>2020-12-05T16:04:02.094Z</time>
      </trkpt>
      <trkpt lat="48.79523" lon="2.2405">
        <ele>113</ele>
        <time>2020-12-05T16:04:03.095Z</time>
      </trkpt>
      <trkpt lat="48.79523" lon="2.24049">
        <ele>113</ele>
        <time>2020-12-05T16:04:04.094Z</time>
      </trkpt>
      <trkpt lat="48.79523" lon="2.24046">
        <ele>113</ele>
        <time>2020-12-05T16:04:05.095Z</time>
      </trkpt>
      <trkpt lat="48.79523" lon="2.24045">
        <ele>114</ele>
        <time>2020-12-05T16:04:06.095Z</time>
      </trkpt>
      <trkpt lat="48.79523" lon="2.24043">
        <ele>114</ele>
        <time>2020-12-05T16:04:07.095Z</time>
      </trkpt>
      <trkpt lat="48.79523" lon="2.24041">
        <ele>114</ele>
        <time>2020-12-05T16:04:08.094Z</time>
      </trkpt>
      <trkpt lat="48.79523" lon="2.24039">
        <ele>115</ele>
        <time>2020-12-05T16:04:09.095Z</time>
      </trkpt>
      <trkpt lat="48.79522" lon="2.24037">
        <ele>115</ele>
        <time>2020-12-05T16:04:10.095Z</time>
      </trkpt>
      <trkpt lat="48.79523" lon="2.24036">
        <ele>115</ele>
        <time>2020-12-05T16:04:11.095Z</time>
      </trkpt>
      <trkpt lat="48.79524" lon="2.24035">
        <ele>115</ele>
        <time>2020-12-05T16:04:12.095Z</time>
      </trkpt>
      <trkpt lat="48.79524" lon="2.24033">
        <ele>115</ele>
        <time>2020-12-05T16:04:13.095Z</time>
      </trkpt>
      <trkpt lat="48.79524" lon="2.24031">
        <ele>115</ele>
        <time>2020-12-05T16:04:14.095Z</time>
      </trkpt>
      <trkpt lat="48.79525" lon="2.24029">
        <ele>114</ele>
        <time>2020-12-05T16:04:15.095Z</time>
      </trkpt>
      <trkpt lat="48.79524" lon="2.24028">
        <ele>114</ele>
        <time>2020-12-05T16:04:16.094Z</time>
      </trkpt>
      <trkpt lat="48.79524" lon="2.24026">
        <ele>113</ele>
        <time>2020-12-05T16:04:17.094Z</time>
      </trkpt>
      <trkpt lat="48.79523" lon="2.24024">
        <ele>113</ele>
        <time>2020-12-05T16:04:18.095Z</time>
      </trkpt>
      <trkpt lat="48.79521" lon="2.24022">
        <ele>113</ele>
        <time>2020-12-05T16:04:19.095Z</time>
      </trkpt>
      <trkpt lat="48.7952" lon="2.2402">
        <ele>113</ele>
        <time>2020-12-05T16:04:20.095Z</time>
      </trkpt>
      <trkpt lat="48.79519" lon="2.24018">
        <ele>113</ele>
        <time>2020-12-05T16:04:21.094Z</time>
      </trkpt>
      <trkpt lat="48.79518" lon="2.24016">
        <ele>113</ele>
        <time>2020-12-05T16:04:22.095Z</time>
      </trkpt>
      <trkpt lat="48.79517" lon="2.24013">
        <ele>113</ele>
        <time>2020-12-05T16:04:23.094Z</time>
      </trkpt>
      <trkpt lat="48.79516" lon="2.24011">
        <ele>113</ele>
        <time>2020-12-05T16:04:24.095Z</time>
      </trkpt>
      <trkpt lat="48.79516" lon="2.2401">
        <ele>113</ele>
        <time>2020-12-05T16:04:25.095Z</time>
      </trkpt>
      <trkpt lat="48.79516" lon="2.24008">
        <ele>113</ele>
        <time>2020-12-05T16:04:26.094Z</time>
      </trkpt>
      <trkpt lat="48.79516" lon="2.24005">
        <ele>113</ele>
        <time>2020-12-05T16:04:27.094Z</time>
      </trkpt>
      <trkpt lat="48.79516" lon="2.24003">
        <ele>113</ele>
        <time>2020-12-05T16:04:28.095Z</time>
      </trkpt>
      <trkpt lat="48.79515" lon="2.24001">
        <ele>113</ele>
        <time>2020-12-05T16:04:29.095Z</time>
      </trkpt>
      <trkpt lat="48.79516" lon="2.23999">
        <ele>113</ele>
        <time>2020-12-05T16:04:30.094Z</time>
      </trkpt>
      <trkpt lat="48.79515" lon="2.23998">
        <ele>113</ele>
        <time>2020-12-05T16:04:31.095Z</time>
      </trkpt>
      <trkpt lat="48.79515" lon="2.23996">
        <ele>113</ele>
        <time>2020-12-05T16:04:32.094Z</time>
      </trkpt>
      <trkpt lat="48.79514" lon="2.23993">
        <ele>113</ele>
        <time>2020-12-05T16:04:33.095Z</time>
      </trkpt>
      <trkpt lat="48.79513" lon="2.23991">
        <ele>113</ele>
        <time>2020-12-05T16:04:34.095Z</time>
      </trkpt>
      <trkpt lat="48.79513" lon="2.23989">
        <ele>113</ele>
        <time>2020-12-05T16:04:35.095Z</time>
      </trkpt>
      <trkpt lat="48.79513" lon="2.23987">
        <ele>113</ele>
        <time>2020-12-05T16:04:36.094Z</time>
      </trkpt>
      <trkpt lat="48.79513" lon="2.23985">
        <ele>113</ele>
        <time>2020-12-05T16:04:37.094Z</time>
      </trkpt>
      <trkpt lat="48.79513" lon="2.23983">
        <ele>113</ele>
        <time>2020-12-05T16:04:38.094Z</time>
      </trkpt>
      <trkpt lat="48.79512" lon="2.23981">
        <ele>113</ele>
        <time>2020-12-05T16:04:39.095Z</time>
      </trkpt>
      <trkpt lat="48.79512" lon="2.23978">
        <ele>113</ele>
        <time>2020-12-05T16:04:40.095Z</time>
      </trkpt>
      <trkpt lat="48.79511" lon="2.23976">
        <ele>113</ele>
        <time>2020-12-05T16:04:41.095Z</time>
      </trkpt>
      <trkpt lat="48.79511" lon="2.23973">
        <ele>112</ele>
        <time>2020-12-05T16:04:42.094Z</time>
      </trkpt>
      <trkpt lat="48.7951" lon="2.23971">
        <ele>112</ele>
        <time>2020-12-05T16:04:43.094Z</time>
      </trkpt>
      <trkpt lat="48.7951" lon="2.2397">
        <ele>112</ele>
        <time>2020-12-05T16:04:44.095Z</time>
      </trkpt>
      <trkpt lat="48.79508" lon="2.23967">
        <ele>112</ele>
        <time>2020-12-05T16:04:45.095Z</time>
      </trkpt>
      <trkpt lat="48.79507" lon="2.23965">
        <ele>112</ele>
        <time>2020-12-05T16:04:46.095Z</time>
      </trkpt>
      <trkpt lat="48.79507" lon="2.23963">
        <ele>112</ele>
        <time>2020-12-05T16:04:47.094Z</time>
      </trkpt>
      <trkpt lat="48.79507" lon="2.23961">
        <ele>112</ele>
        <time>2020-12-05T16:04:48.094Z</time>
      </trkpt>
      <trkpt lat="48.79507" lon="2.23959">
        <ele>112</ele>
        <time>2020-12-05T16:04:49.095Z</time>
      </trkpt>
      <trkpt lat="48.79507" lon="2.23957">
        <ele>112</ele>
        <time>2020-12-05T16:04:50.095Z</time>
      </trkpt>
      <trkpt lat="48.79506" lon="2.23956">
        <ele>111</ele>
        <time>2020-12-05T16:04:51.095Z</time>
      </trkpt>
      <trkpt lat="48.79506" lon="2.23954">
        <ele>111</ele>
        <time>2020-12-05T16:04:52.095Z</time>
      </trkpt>
      <trkpt lat="48.79505" lon="2.23952">
        <ele>110</ele>
        <time>2020-12-05T16:04:53.095Z</time>
      </trkpt>
      <trkpt lat="48.79506" lon="2.2395">
        <ele>110</ele>
        <time>2020-12-05T16:04:54.095Z</time>
      </trkpt>
      <trkpt lat="48.79505" lon="2.23949">
        <ele>110</ele>
        <time>2020-12-05T16:04:55.095Z</time>
      </trkpt>
      <trkpt lat="48.79505" lon="2.23947">
        <ele>110</ele>
        <time>2020-12-05T16:04:56.094Z</time>
      </trkpt>
      <trkpt lat="48.79504" lon="2.23946">
        <ele>110</ele>
        <time>2020-12-05T16:04:57.095Z</time>
      </trkpt>
      <trkpt lat="48.79504" lon="2.23944">
        <ele>110</ele>
        <time>2020-12-05T16:04:58.095Z</time>
      </trkpt>
      <trkpt lat="48.79503" lon="2.23942">
        <ele>110</ele>
        <time>2020-12-05T16:04:59.095Z</time>
      </trkpt>
      <trkpt lat="48.79503" lon="2.23941">
        <ele>110</ele>
        <time>2020-12-05T16:05:00.094Z</time>
      </trkpt>
      <trkpt lat="48.79502" lon="2.23939">
        <ele>110</ele>
        <time>2020-12-05T16:05:01.094Z</time>
      </trkpt>
      <trkpt lat="48.79502" lon="2.23938">
        <ele>110</ele>
        <time>2020-12-05T16:05:02.094Z</time>
      </trkpt>
      <trkpt lat="48.79501" lon="2.23936">
        <ele>110</ele>
        <time>2020-12-05T16:05:03.095Z</time>
      </trkpt>
      <trkpt lat="48.795" lon="2.23935">
        <ele>110</ele>
        <time>2020-12-05T16:05:04.094Z</time>
      </trkpt>
      <trkpt lat="48.79499" lon="2.23933">
        <ele>111</ele>
        <time>2020-12-05T16:05:05.095Z</time>
      </trkpt>
      <trkpt lat="48.79498" lon="2.23932">
        <ele>111</ele>
        <time>2020-12-05T16:05:06.094Z</time>
      </trkpt>
      <trkpt lat="48.79497" lon="2.23931">
        <ele>111</ele>
        <time>2020-12-05T16:05:07.094Z</time>
      </trkpt>
      <trkpt lat="48.79496" lon="2.23929">
        <ele>112</ele>
        <time>2020-12-05T16:05:08.094Z</time>
      </trkpt>
      <trkpt lat="48.79495" lon="2.23928">
        <ele>112</ele>
        <time>2020-12-05T16:05:09.095Z</time>
      </trkpt>
      <trkpt lat="48.79493" lon="2.23927">
        <ele>112</ele>
        <time>2020-12-05T16:05:10.095Z</time>
      </trkpt>
      <trkpt lat="48.79492" lon="2.23925">
        <ele>112</ele>
        <time>2020-12-05T16:05:11.095Z</time>
      </trkpt>
      <trkpt lat="48.7949" lon="2.23924">
        <ele>112</ele>
        <time>2020-12-05T16:05:12.095Z</time>
      </trkpt>
      <trkpt lat="48.79489" lon="2.23923">
        <ele>111</ele>
        <time>2020-12-05T16:05:13.094Z</time>
      </trkpt>
      <trkpt lat="48.79488" lon="2.23922">
        <ele>111</ele>
        <time>2020-12-05T16:05:14.094Z</time>
      </trkpt>
      <trkpt lat="48.79487" lon="2.23921">
        <ele>111</ele>
        <time>2020-12-05T16:05:15.094Z</time>
      </trkpt>
      <trkpt lat="48.79486" lon="2.2392">
        <ele>111</ele>
        <time>2020-12-05T16:05:16.094Z</time>
      </trkpt>
      <trkpt lat="48.79484" lon="2.23919">
        <ele>111</ele>
        <time>2020-12-05T16:05:17.095Z</time>
      </trkpt>
      <trkpt lat="48.79483" lon="2.23918">
        <ele>111</ele>
        <time>2020-12-05T16:05:18.095Z</time>
      </trkpt>
      <trkpt lat="48.79481" lon="2.23917">
        <ele>112</ele>
        <time>2020-12-05T16:05:19.095Z</time>
      </trkpt>
      <trkpt lat="48.7948" lon="2.23916">
        <ele>112</ele>
        <time>2020-12-05T16:05:20.095Z</time>
      </trkpt>
      <trkpt lat="48.79478" lon="2.23916">
        <ele>112</ele>
        <time>2020-12-05T16:05:21.095Z</time>
      </trkpt>
      <trkpt lat="48.79477" lon="2.23915">
        <ele>112</ele>
        <time>2020-12-05T16:05:22.095Z</time>
      </trkpt>
      <trkpt lat="48.79476" lon="2.23913">
        <ele>112</ele>
        <time>2020-12-05T16:05:23.095Z</time>
      </trkpt>
      <trkpt lat="48.79475" lon="2.23911">
        <ele>112</ele>
        <time>2020-12-05T16:05:24.095Z</time>
      </trkpt>
      <trkpt lat="48.79474" lon="2.2391">
        <ele>111</ele>
        <time>2020-12-05T16:05:25.095Z</time>
      </trkpt>
      <trkpt lat="48.79474" lon="2.23909">
        <ele>111</ele>
        <time>2020-12-05T16:05:26.095Z</time>
      </trkpt>
      <trkpt lat="48.79472" lon="2.23908">
        <ele>111</ele>
        <time>2020-12-05T16:05:27.095Z</time>
      </trkpt>
      <trkpt lat="48.79472" lon="2.23907">
        <ele>111</ele>
        <time>2020-12-05T16:05:28.095Z</time>
      </trkpt>
      <trkpt lat="48.79471" lon="2.23906">
        <ele>111</ele>
        <time>2020-12-05T16:05:29.095Z</time>
      </trkpt>
      <trkpt lat="48.7947" lon="2.23905">
        <ele>111</ele>
        <time>2020-12-05T16:05:30.095Z</time>
      </trkpt>
      <trkpt lat="48.79469" lon="2.23904">
        <ele>111</ele>
        <time>2020-12-05T16:05:31.095Z</time>
      </trkpt>
      <trkpt lat="48.79469" lon="2.23903">
        <ele>111</ele>
        <time>2020-12-05T16:05:32.095Z</time>
      </trkpt>
      <trkpt lat="48.79468" lon="2.23903">
        <ele>111</ele>
        <time>2020-12-05T16:05:33.095Z</time>
      </trkpt>
      <trkpt lat="48.79467" lon="2.23903">
        <ele>111</ele>
        <time>2020-12-05T16:05:34.095Z</time>
      </trkpt>
      <trkpt lat="48.79466" lon="2.23902">
        <ele>112</ele>
        <time>2020-12-05T16:05:35.095Z</time>
      </trkpt>
      <trkpt lat="48.79465" lon="2.23902">
        <ele>112</ele>
        <time>2020-12-05T16:05:36.095Z</time>
      </trkpt>
      <trkpt lat="48.79464" lon="2.23901">
        <ele>113</ele>
        <time>2020-12-05T16:05:37.094Z</time>
      </trkpt>
      <trkpt lat="48.79462" lon="2.23901">
        <ele>114</ele>
        <time>2020-12-05T16:05:38.094Z</time>
      </trkpt>
      <trkpt lat="48.79461" lon="2.23901">
        <ele>115</ele>
        <time>2020-12-05T16:05:39.094Z</time>
      </trkpt>
      <trkpt lat="48.7946" lon="2.23901">
        <ele>115</ele>
        <time>2020-12-05T16:05:40.094Z</time>
      </trkpt>
      <trkpt lat="48.79459" lon="2.23901">
        <ele>116</ele>
        <time>2020-12-05T16:05:41.095Z</time>
      </trkpt>
      <trkpt lat="48.79458" lon="2.23902">
        <ele>117</ele>
        <time>2020-12-05T16:05:42.095Z</time>
      </trkpt>
      <trkpt lat="48.79457" lon="2.23902">
        <ele>117</ele>
        <time>2020-12-05T16:05:43.095Z</time>
      </trkpt>
      <trkpt lat="48.79456" lon="2.23903">
        <ele>118</ele>
        <time>2020-12-05T16:05:44.095Z</time>
      </trkpt>
      <trkpt lat="48.79455" lon="2.23906">
        <ele>119</ele>
        <time>2020-12-05T16:05:45.095Z</time>
      </trkpt>
      <trkpt lat="48.79454" lon="2.23907">
        <ele>119</ele>
        <time>2020-12-05T16:05:46.094Z</time>
      </trkpt>
      <trkpt lat="48.79454" lon="2.23908">
        <ele>120</ele>
        <time>2020-12-05T16:05:47.094Z</time>
      </trkpt>
      <trkpt lat="48.79453" lon="2.23908">
        <ele>121</ele>
        <time>2020-12-05T16:05:48.095Z</time>
      </trkpt>
      <trkpt lat="48.79452" lon="2.23908">
        <ele>122</ele>
        <time>2020-12-05T16:05:49.095Z</time>
      </trkpt>
      <trkpt lat="48.7945" lon="2.23908">
        <ele>123</ele>
        <time>2020-12-05T16:05:50.095Z</time>
      </trkpt>
      <trkpt lat="48.79449" lon="2.23908">
        <ele>123</ele>
        <time>2020-12-05T16:05:51.095Z</time>
      </trkpt>
      <trkpt lat="48.79447" lon="2.23908">
        <ele>123</ele>
        <time>2020-12-05T16:05:52.094Z</time>
      </trkpt>
      <trkpt lat="48.79446" lon="2.23909">
        <ele>122</ele>
        <time>2020-12-05T16:05:53.094Z</time>
      </trkpt>
      <trkpt lat="48.79444" lon="2.2391">
        <ele>122</ele>
        <time>2020-12-05T16:05:54.094Z</time>
      </trkpt>
      <trkpt lat="48.79443" lon="2.2391">
        <ele>121</ele>
        <time>2020-12-05T16:05:55.095Z</time>
      </trkpt>
      <trkpt lat="48.79442" lon="2.2391">
        <ele>121</ele>
        <time>2020-12-05T16:05:56.095Z</time>
      </trkpt>
      <trkpt lat="48.79441" lon="2.23911">
        <ele>120</ele>
        <time>2020-12-05T16:05:57.095Z</time>
      </trkpt>
      <trkpt lat="48.7944" lon="2.23911">
        <ele>119</ele>
        <time>2020-12-05T16:05:58.095Z</time>
      </trkpt>
      <trkpt lat="48.79439" lon="2.23912">
        <ele>119</ele>
        <time>2020-12-05T16:05:59.095Z</time>
      </trkpt>
      <trkpt lat="48.79438" lon="2.23913">
        <ele>119</ele>
        <time>2020-12-05T16:06:00.095Z</time>
      </trkpt>
      <trkpt lat="48.79437" lon="2.23914">
        <ele>119</ele>
        <time>2020-12-05T16:06:01.095Z</time>
      </trkpt>
      <trkpt lat="48.79436" lon="2.23914">
        <ele>119</ele>
        <time>2020-12-05T16:06:02.094Z</time>
      </trkpt>
      <trkpt lat="48.79434" lon="2.23915">
        <ele>119</ele>
        <time>2020-12-05T16:06:03.095Z</time>
      </trkpt>
      <trkpt lat="48.79433" lon="2.23915">
        <ele>119</ele>
        <time>2020-12-05T16:06:04.095Z</time>
      </trkpt>
      <trkpt lat="48.79432" lon="2.23915">
        <ele>119</ele>
        <time>2020-12-05T16:06:05.095Z</time>
      </trkpt>
      <trkpt lat="48.7943" lon="2.23915">
        <ele>119</ele>
        <time>2020-12-05T16:06:06.094Z</time>
      </trkpt>
      <trkpt lat="48.79428" lon="2.23916">
        <ele>118</ele>
        <time>2020-12-05T16:06:07.094Z</time>
      </trkpt>
      <trkpt lat="48.79427" lon="2.23916">
        <ele>118</ele>
        <time>2020-12-05T16:06:08.095Z</time>
      </trkpt>
      <trkpt lat="48.79425" lon="2.23917">
        <ele>118</ele>
        <time>2020-12-05T16:06:09.095Z</time>
      </trkpt>
      <trkpt lat="48.79423" lon="2.23917">
        <ele>118</ele>
        <time>2020-12-05T16:06:10.095Z</time>
      </trkpt>
      <trkpt lat="48.79421" lon="2.23917">
        <ele>117</ele>
        <time>2020-12-05T16:06:11.095Z</time>
      </trkpt>
      <trkpt lat="48.7942" lon="2.23917">
        <ele>117</ele>
        <time>2020-12-05T16:06:12.095Z</time>
      </trkpt>
      <trkpt lat="48.79419" lon="2.23917">
        <ele>117</ele>
        <time>2020-12-05T16:06:13.095Z</time>
      </trkpt>
      <trkpt lat="48.79417" lon="2.23917">
        <ele>116</ele>
        <time>2020-12-05T16:06:14.095Z</time>
      </trkpt>
      <trkpt lat="48.79415" lon="2.23917">
        <ele>116</ele>
        <time>2020-12-05T16:06:15.095Z</time>
      </trkpt>
      <trkpt lat="48.79413" lon="2.23917">
        <ele>115</ele>
        <time>2020-12-05T16:06:16.094Z</time>
      </trkpt>
      <trkpt lat="48.79412" lon="2.23918">
        <ele>114</ele>
        <time>2020-12-05T16:06:17.094Z</time>
      </trkpt>
      <trkpt lat="48.79411" lon="2.23918">
        <ele>114</ele>
        <time>2020-12-05T16:06:18.094Z</time>
      </trkpt>
      <trkpt lat="48.79411" lon="2.23918">
        <ele>113</ele>
        <time>2020-12-05T16:06:19.095Z</time>
      </trkpt>
      <trkpt lat="48.7941" lon="2.23919">
        <ele>113</ele>
        <time>2020-12-05T16:06:20.095Z</time>
      </trkpt>
      <trkpt lat="48.79409" lon="2.23919">
        <ele>113</ele>
        <time>2020-12-05T16:06:21.095Z</time>
      </trkpt>
      <trkpt lat="48.79408" lon="2.23919">
        <ele>113</ele>
        <time>2020-12-05T16:06:22.095Z</time>
      </trkpt>
      <trkpt lat="48.79406" lon="2.23919">
        <ele>113</ele>
        <time>2020-12-05T16:06:23.094Z</time>
      </trkpt>
      <trkpt lat="48.79405" lon="2.23919">
        <ele>113</ele>
        <time>2020-12-05T16:06:24.094Z</time>
      </trkpt>
      <trkpt lat="48.79403" lon="2.23919">
        <ele>113</ele>
        <time>2020-12-05T16:06:25.094Z</time>
      </trkpt>
      <trkpt lat="48.794" lon="2.23919">
        <ele>113</ele>
        <time>2020-12-05T16:06:26.094Z</time>
      </trkpt>
      <trkpt lat="48.79399" lon="2.2392">
        <ele>113</ele>
        <time>2020-12-05T16:06:27.095Z</time>
      </trkpt>
      <trkpt lat="48.79397" lon="2.23921">
        <ele>113</ele>
        <time>2020-12-05T16:06:28.095Z</time>
      </trkpt>
      <trkpt lat="48.79397" lon="2.23922">
        <ele>113</ele>
        <time>2020-12-05T16:06:29.095Z</time>
      </trkpt>
      <trkpt lat="48.79396" lon="2.23922">
        <ele>113</ele>
        <time>2020-12-05T16:06:30.095Z</time>
      </trkpt>
      <trkpt lat="48.79394" lon="2.23922">
        <ele>113</ele>
        <time>2020-12-05T16:06:31.095Z</time>
      </trkpt>
      <trkpt lat="48.79393" lon="2.23922">
        <ele>113</ele>
        <time>2020-12-05T16:06:32.095Z</time>
      </trkpt>
      <trkpt lat="48.79391" lon="2.23922">
        <ele>114</ele>
        <time>2020-12-05T16:06:33.095Z</time>
      </trkpt>
      <trkpt lat="48.7939" lon="2.23922">
        <ele>114</ele>
        <time>2020-12-05T16:06:34.095Z</time>
      </trkpt>
      <trkpt lat="48.79388" lon="2.23923">
        <ele>114</ele>
        <time>2020-12-05T16:06:35.095Z</time>
      </trkpt>
      <trkpt lat="48.79387" lon="2.23923">
        <ele>114</ele>
        <time>2020-12-05T16:06:36.095Z</time>
      </trkpt>
      <trkpt lat="48.79386" lon="2.23924">
        <ele>114</ele>
        <time>2020-12-05T16:06:37.094Z</time>
      </trkpt>
      <trkpt lat="48.79385" lon="2.23926">
        <ele>114</ele>
        <time>2020-12-05T16:06:38.095Z</time>
      </trkpt>
      <trkpt lat="48.79384" lon="2.23926">
        <ele>115</ele>
        <time>2020-12-05T16:06:39.095Z</time>
      </trkpt>
      <trkpt lat="48.79383" lon="2.23927">
        <ele>115</ele>
        <time>2020-12-05T16:06:40.095Z</time>
      </trkpt>
      <trkpt lat="48.79381" lon="2.23926">
        <ele>116</ele>
        <time>2020-12-05T16:06:41.095Z</time>
      </trkpt>
      <trkpt lat="48.79379" lon="2.23927">
        <ele>116</ele>
        <time>2020-12-05T16:06:42.095Z</time>
      </trkpt>
      <trkpt lat="48.79379" lon="2.23927">
        <ele>117</ele>
        <time>2020-12-05T16:06:43.094Z</time>
      </trkpt>
      <trkpt lat="48.79378" lon="2.23927">
        <ele>117</ele>
        <time>2020-12-05T16:06:44.095Z</time>
      </trkpt>
      <trkpt lat="48.79377" lon="2.23928">
        <ele>117</ele>
        <time>2020-12-05T16:06:45.094Z</time>
      </trkpt>
      <trkpt lat="48.79376" lon="2.23928">
        <ele>117</ele>
        <time>2020-12-05T16:06:46.095Z</time>
      </trkpt>
      <trkpt lat="48.79375" lon="2.23929">
        <ele>117</ele>
        <time>2020-12-05T16:06:47.095Z</time>
      </trkpt>
      <trkpt lat="48.79375" lon="2.2393">
        <ele>116</ele>
        <time>2020-12-05T16:06:48.095Z</time>
      </trkpt>
      <trkpt lat="48.79374" lon="2.23932">
        <ele>116</ele>
        <time>2020-12-05T16:06:49.095Z</time>
      </trkpt>
      <trkpt lat="48.79374" lon="2.23933">
        <ele>115</ele>
        <time>2020-12-05T16:06:50.095Z</time>
      </trkpt>
      <trkpt lat="48.79372" lon="2.23935">
        <ele>115</ele>
        <time>2020-12-05T16:06:51.094Z</time>
      </trkpt>
      <trkpt lat="48.7937" lon="2.23936">
        <ele>115</ele>
        <time>2020-12-05T16:06:52.094Z</time>
      </trkpt>
      <trkpt lat="48.79369" lon="2.23937">
        <ele>115</ele>
        <time>2020-12-05T16:06:53.094Z</time>
      </trkpt>
      <trkpt lat="48.79367" lon="2.23938">
        <ele>115</ele>
        <time>2020-12-05T16:06:54.094Z</time>
      </trkpt>
      <trkpt lat="48.79365" lon="2.23939">
        <ele>115</ele>
        <time>2020-12-05T16:06:55.095Z</time>
      </trkpt>
      <trkpt lat="48.79364" lon="2.23941">
        <ele>115</ele>
        <time>2020-12-05T16:06:56.095Z</time>
      </trkpt>
      <trkpt lat="48.79362" lon="2.23943">
        <ele>115</ele>
        <time>2020-12-05T16:06:57.095Z</time>
      </trkpt>
      <trkpt lat="48.79361" lon="2.23945">
        <ele>115</ele>
        <time>2020-12-05T16:06:58.095Z</time>
      </trkpt>
      <trkpt lat="48.79359" lon="2.23947">
        <ele>115</ele>
        <time>2020-12-05T16:06:59.095Z</time>
      </trkpt>
      <trkpt lat="48.79358" lon="2.23949">
        <ele>115</ele>
        <time>2020-12-05T16:07:00.095Z</time>
      </trkpt>
      <trkpt lat="48.79356" lon="2.23951">
        <ele>116</ele>
        <time>2020-12-05T16:07:01.095Z</time>
      </trkpt>
      <trkpt lat="48.79356" lon="2.23953">
        <ele>116</ele>
        <time>2020-12-05T16:07:02.095Z</time>
      </trkpt>
      <trkpt lat="48.79354" lon="2.23956">
        <ele>117</ele>
        <time>2020-12-05T16:07:03.095Z</time>
      </trkpt>
      <trkpt lat="48.79353" lon="2.23958">
        <ele>117</ele>
        <time>2020-12-05T16:07:04.095Z</time>
      </trkpt>
      <trkpt lat="48.79352" lon="2.23958">
        <ele>117</ele>
        <time>2020-12-05T16:07:05.094Z</time>
      </trkpt>
      <trkpt lat="48.79351" lon="2.23959">
        <ele>118</ele>
        <time>2020-12-05T16:07:06.094Z</time>
      </trkpt>
      <trkpt lat="48.7935" lon="2.2396">
        <ele>118</ele>
        <time>2020-12-05T16:07:07.094Z</time>
      </trkpt>
      <trkpt lat="48.79349" lon="2.23962">
        <ele>119</ele>
        <time>2020-12-05T16:07:08.094Z</time>
      </trkpt>
      <trkpt lat="48.79349" lon="2.23963">
        <ele>119</ele>
        <time>2020-12-05T16:07:09.095Z</time>
      </trkpt>
      <trkpt lat="48.79348" lon="2.23964">
        <ele>120</ele>
        <time>2020-12-05T16:07:10.095Z</time>
      </trkpt>
      <trkpt lat="48.79347" lon="2.23965">
        <ele>120</ele>
        <time>2020-12-05T16:07:11.095Z</time>
      </trkpt>
      <trkpt lat="48.79346" lon="2.23966">
        <ele>120</ele>
        <time>2020-12-05T16:07:12.095Z</time>
      </trkpt>
      <trkpt lat="48.79345" lon="2.23968">
        <ele>121</ele>
        <time>2020-12-05T16:07:13.094Z</time>
      </trkpt>
      <trkpt lat="48.79344" lon="2.23969">
        <ele>121</ele>
        <time>2020-12-05T16:07:14.094Z</time>
      </trkpt>
      <trkpt lat="48.79343" lon="2.2397">
        <ele>121</ele>
        <time>2020-12-05T16:07:15.094Z</time>
      </trkpt>
      <trkpt lat="48.79342" lon="2.23971">
        <ele>121</ele>
        <time>2020-12-05T16:07:16.095Z</time>
      </trkpt>
      <trkpt lat="48.79342" lon="2.23972">
        <ele>122</ele>
        <time>2020-12-05T16:07:17.095Z</time>
      </trkpt>
      <trkpt lat="48.79341" lon="2.23974">
        <ele>122</ele>
        <time>2020-12-05T16:07:18.094Z</time>
      </trkpt>
      <trkpt lat="48.7934" lon="2.23975">
        <ele>122</ele>
        <time>2020-12-05T16:07:19.095Z</time>
      </trkpt>
      <trkpt lat="48.79339" lon="2.23977">
        <ele>123</ele>
        <time>2020-12-05T16:07:20.095Z</time>
      </trkpt>
      <trkpt lat="48.79338" lon="2.23978">
        <ele>123</ele>
        <time>2020-12-05T16:07:21.095Z</time>
      </trkpt>
      <trkpt lat="48.79337" lon="2.23979">
        <ele>124</ele>
        <time>2020-12-05T16:07:22.094Z</time>
      </trkpt>
      <trkpt lat="48.79337" lon="2.2398">
        <ele>125</ele>
        <time>2020-12-05T16:07:23.095Z</time>
      </trkpt>
      <trkpt lat="48.79337" lon="2.23982">
        <ele>125</ele>
        <time>2020-12-05T16:07:24.095Z</time>
      </trkpt>
      <trkpt lat="48.79337" lon="2.23984">
        <ele>125</ele>
        <time>2020-12-05T16:07:25.094Z</time>
      </trkpt>
      <trkpt lat="48.79337" lon="2.23985">
        <ele>126</ele>
        <time>2020-12-05T16:07:26.095Z</time>
      </trkpt>
      <trkpt lat="48.79336" lon="2.23987">
        <ele>126</ele>
        <time>2020-12-05T16:07:27.095Z</time>
      </trkpt>
      <trkpt lat="48.79336" lon="2.23989">
        <ele>125</ele>
        <time>2020-12-05T16:07:28.095Z</time>
      </trkpt>
      <trkpt lat="48.79336" lon="2.23991">
        <ele>125</ele>
        <time>2020-12-05T16:07:29.095Z</time>
      </trkpt>
      <trkpt lat="48.79336" lon="2.23993">
        <ele>125</ele>
        <time>2020-12-05T16:07:30.095Z</time>
      </trkpt>
      <trkpt lat="48.79336" lon="2.23995">
        <ele>125</ele>
        <time>2020-12-05T16:07:31.094Z</time>
      </trkpt>
      <trkpt lat="48.79337" lon="2.23996">
        <ele>125</ele>
        <time>2020-12-05T16:07:32.094Z</time>
      </trkpt>
      <trkpt lat="48.79339" lon="2.23999">
        <ele>124</ele>
        <time>2020-12-05T16:07:33.094Z</time>
      </trkpt>
      <trkpt lat="48.79339" lon="2.24002">
        <ele>124</ele>
        <time>2020-12-05T16:07:34.095Z</time>
      </trkpt>
      <trkpt lat="48.79339" lon="2.24005">
        <ele>124</ele>
        <time>2020-12-05T16:07:35.095Z</time>
      </trkpt>
      <trkpt lat="48.79339" lon="2.24007">
        <ele>124</ele>
        <time>2020-12-05T16:07:36.095Z</time>
      </trkpt>
      <trkpt lat="48.7934" lon="2.24009">
        <ele>124</ele>
        <time>2020-12-05T16:07:37.095Z</time>
      </trkpt>
      <trkpt lat="48.7934" lon="2.2401">
        <ele>124</ele>
        <time>2020-12-05T16:07:38.095Z</time>
      </trkpt>
      <trkpt lat="48.79341" lon="2.24011">
        <ele>124</ele>
        <time>2020-12-05T16:07:39.095Z</time>
      </trkpt>
      <trkpt lat="48.79342" lon="2.24011">
        <ele>124</ele>
        <time>2020-12-05T16:07:40.095Z</time>
      </trkpt>
      <trkpt lat="48.79342" lon="2.24012">
        <ele>124</ele>
        <time>2020-12-05T16:07:41.095Z</time>
      </trkpt>
      <trkpt lat="48.79342" lon="2.24013">
        <ele>124</ele>
        <time>2020-12-05T16:07:42.095Z</time>
      </trkpt>
      <trkpt lat="48.79342" lon="2.24014">
        <ele>124</ele>
        <time>2020-12-05T16:07:43.095Z</time>
      </trkpt>
      <trkpt lat="48.79343" lon="2.24015">
        <ele>124</ele>
        <time>2020-12-05T16:07:44.095Z</time>
      </trkpt>
      <trkpt lat="48.79342" lon="2.24016">
        <ele>124</ele>
        <time>2020-12-05T16:07:45.094Z</time>
      </trkpt>
      <trkpt lat="48.79343" lon="2.24016">
        <ele>123</ele>
        <time>2020-12-05T16:07:46.094Z</time>
      </trkpt>
      <trkpt lat="48.79342" lon="2.24016">
        <ele>123</ele>
        <time>2020-12-05T16:07:47.094Z</time>
      </trkpt>
      <trkpt lat="48.79341" lon="2.24016">
        <ele>122</ele>
        <time>2020-12-05T16:07:48.095Z</time>
      </trkpt>
      <trkpt lat="48.79341" lon="2.24015">
        <ele>121</ele>
        <time>2020-12-05T16:07:49.095Z</time>
      </trkpt>
      <trkpt lat="48.79341" lon="2.24013">
        <ele>120</ele>
        <time>2020-12-05T16:07:50.094Z</time>
      </trkpt>
      <trkpt lat="48.79342" lon="2.24011">
        <ele>119</ele>
        <time>2020-12-05T16:07:51.095Z</time>
      </trkpt>
      <trkpt lat="48.79342" lon="2.24009">
        <ele>118</ele>
        <time>2020-12-05T16:07:52.095Z</time>
      </trkpt>
      <trkpt lat="48.79342" lon="2.24008">
        <ele>116</ele>
        <time>2020-12-05T16:07:53.095Z</time>
      </trkpt>
      <trkpt lat="48.79342" lon="2.24007">
        <ele>115</ele>
        <time>2020-12-05T16:07:54.095Z</time>
      </trkpt>
      <trkpt lat="48.79342" lon="2.24007">
        <ele>114</ele>
        <time>2020-12-05T16:07:55.094Z</time>
      </trkpt>
      <trkpt lat="48.79342" lon="2.24007">
        <ele>113</ele>
        <time>2020-12-05T16:07:56.095Z</time>
      </trkpt>
      <trkpt lat="48.79342" lon="2.24008">
        <ele>112</ele>
        <time>2020-12-05T16:07:57.095Z</time>
      </trkpt>
      <trkpt lat="48.79342" lon="2.24008">
        <ele>111</ele>
        <time>2020-12-05T16:07:58.095Z</time>
      </trkpt>
      <trkpt lat="48.79341" lon="2.24009">
        <ele>111</ele>
        <time>2020-12-05T16:07:59.095Z</time>
      </trkpt>
      <trkpt lat="48.79341" lon="2.24011">
        <ele>111</ele>
        <time>2020-12-05T16:08:00.095Z</time>
      </trkpt>
      <trkpt lat="48.79342" lon="2.24012">
        <ele>111</ele>
        <time>2020-12-05T16:08:01.095Z</time>
      </trkpt>
      <trkpt lat="48.79342" lon="2.24014">
        <ele>112</ele>
        <time>2020-12-05T16:08:02.095Z</time>
      </trkpt>
      <trkpt lat="48.79343" lon="2.24015">
        <ele>113</ele>
        <time>2020-12-05T16:08:03.094Z</time>
      </trkpt>
      <trkpt lat="48.79343" lon="2.24016">
        <ele>114</ele>
        <time>2020-12-05T16:08:04.095Z</time>
      </trkpt>
      <trkpt lat="48.79343" lon="2.24017">
        <ele>115</ele>
        <time>2020-12-05T16:08:05.095Z</time>
      </trkpt>
      <trkpt lat="48.79344" lon="2.24019">
        <ele>115</ele>
        <time>2020-12-05T16:08:06.095Z</time>
      </trkpt>
      <trkpt lat="48.79344" lon="2.2402">
        <ele>116</ele>
        <time>2020-12-05T16:08:07.095Z</time>
      </trkpt>
      <trkpt lat="48.79344" lon="2.24021">
        <ele>117</ele>
        <time>2020-12-05T16:08:08.095Z</time>
      </trkpt>
      <trkpt lat="48.79344" lon="2.24022">
        <ele>117</ele>
        <time>2020-12-05T16:08:09.095Z</time>
      </trkpt>
      <trkpt lat="48.79344" lon="2.24022">
        <ele>118</ele>
        <time>2020-12-05T16:08:10.095Z</time>
      </trkpt>
      <trkpt lat="48.79344" lon="2.24022">
        <ele>118</ele>
        <time>2020-12-05T16:08:11.095Z</time>
      </trkpt>
      <trkpt lat="48.79344" lon="2.24022">
        <ele>119</ele>
        <time>2020-12-05T16:08:12.095Z</time>
      </trkpt>
      <trkpt lat="48.79344" lon="2.24022">
        <ele>119</ele>
        <time>2020-12-05T16:08:13.095Z</time>
      </trkpt>
      <trkpt lat="48.79344" lon="2.24022">
        <ele>120</ele>
        <time>2020-12-05T16:08:14.094Z</time>
      </trkpt>
      <trkpt lat="48.79344" lon="2.24022">
        <ele>120</ele>
        <time>2020-12-05T16:08:15.095Z</time>
      </trkpt>
      <trkpt lat="48.79344" lon="2.24022">
        <ele>120</ele>
        <time>2020-12-05T16:08:16.095Z</time>
      </trkpt>
      <trkpt lat="48.79344" lon="2.24022">
        <ele>120</ele>
        <time>2020-12-05T16:08:17.095Z</time>
      </trkpt>
      <trkpt lat="48.79344" lon="2.24022">
        <ele>121</ele>
        <time>2020-12-05T16:08:18.095Z</time>
      </trkpt>
      <trkpt lat="48.79344" lon="2.24022">
        <ele>121</ele>
        <time>2020-12-05T16:08:19.095Z</time>
      </trkpt>
      <trkpt lat="48.79343" lon="2.24022">
        <ele>121</ele>
        <time>2020-12-05T16:08:20.095Z</time>
      </trkpt>
      <trkpt lat="48.79343" lon="2.24022">
        <ele>121</ele>
        <time>2020-12-05T16:08:21.095Z</time>
      </trkpt>
      <trkpt lat="48.79343" lon="2.24022">
        <ele>121</ele>
        <time>2020-12-05T16:08:22.095Z</time>
      </trkpt>
      <trkpt lat="48.79343" lon="2.24022">
        <ele>121</ele>
        <time>2020-12-05T16:08:23.094Z</time>
      </trkpt>
      <trkpt lat="48.79343" lon="2.24022">
        <ele>121</ele>
        <time>2020-12-05T16:08:24.095Z</time>
      </trkpt>
      <trkpt lat="48.79343" lon="2.24022">
        <ele>121</ele>
        <time>2020-12-05T16:08:25.095Z</time>
      </trkpt>
      <trkpt lat="48.79343" lon="2.24022">
        <ele>122</ele>
        <time>2020-12-05T16:08:26.095Z</time>
      </trkpt>
      <trkpt lat="48.79343" lon="2.24022">
        <ele>122</ele>
        <time>2020-12-05T16:08:27.095Z</time>
      </trkpt>
      <trkpt lat="48.79343" lon="2.24022">
        <ele>122</ele>
        <time>2020-12-05T16:08:28.095Z</time>
      </trkpt>
      <trkpt lat="48.79343" lon="2.24022">
        <ele>122</ele>
        <time>2020-12-05T16:08:29.095Z</time>
      </trkpt>
      <trkpt lat="48.79343" lon="2.24022">
        <ele>122</ele>
        <time>2020-12-05T16:08:30.095Z</time>
      </trkpt>
      <trkpt lat="48.79343" lon="2.24023">
        <ele>122</ele>
        <time>2020-12-05T16:08:31.095Z</time>
      </trkpt>
      <trkpt lat="48.79343" lon="2.24023">
        <ele>122</ele>
        <time>2020-12-05T16:08:32.095Z</time>
      </trkpt>
      <trkpt lat="48.79343" lon="2.24024">
        <ele>122</ele>
        <time>2020-12-05T16:08:33.095Z</time>
      </trkpt>
      <trkpt lat="48.79342" lon="2.24025">
        <ele>122</ele>
        <time>2020-12-05T16:08:34.095Z</time>
      </trkpt>
      <trkpt lat="48.79342" lon="2.24026">
        <ele>122</ele>
        <time>2020-12-05T16:08:35.094Z</time>
      </trkpt>
      <trkpt lat="48.79342" lon="2.24027">
        <ele>122</ele>
        <time>2020-12-05T16:08:36.095Z</time>
      </trkpt>
      <trkpt lat="48.79342" lon="2.24027">
        <ele>122</ele>
        <time>2020-12-05T16:08:37.095Z</time>
      </trkpt>
      <trkpt lat="48.79342" lon="2.24028">
        <ele>123</ele>
        <time>2020-12-05T16:08:38.095Z</time>
      </trkpt>
      <trkpt lat="48.79342" lon="2.24028">
        <ele>123</ele>
        <time>2020-12-05T16:08:39.095Z</time>
      </trkpt>
      <trkpt lat="48.79342" lon="2.24028">
        <ele>123</ele>
        <time>2020-12-05T16:08:40.095Z</time>
      </trkpt>
      <trkpt lat="48.79342" lon="2.24028">
        <ele>123</ele>
        <time>2020-12-05T16:08:41.095Z</time>
      </trkpt>
      <trkpt lat="48.79342" lon="2.24028">
        <ele>123</ele>
        <time>2020-12-05T16:08:42.095Z</time>
      </trkpt>
      <trkpt lat="48.79342" lon="2.24028">
        <ele>123</ele>
        <time>2020-12-05T16:08:43.094Z</time>
      </trkpt>
      <trkpt lat="48.79342" lon="2.24028">
        <ele>123</ele>
        <time>2020-12-05T16:08:44.095Z</time>
      </trkpt>
      <trkpt lat="48.79342" lon="2.24028">
        <ele>123</ele>
        <time>2020-12-05T16:08:45.094Z</time>
      </trkpt>
      <trkpt lat="48.79342" lon="2.24028">
        <ele>123</ele>
        <time>2020-12-05T16:08:46.094Z</time>
      </trkpt>
      <trkpt lat="48.79342" lon="2.24029">
        <ele>123</ele>
        <time>2020-12-05T16:08:47.094Z</time>
      </trkpt>
      <trkpt lat="48.79342" lon="2.24029">
        <ele>123</ele>
        <time>2020-12-05T16:08:48.094Z</time>
      </trkpt>
      <trkpt lat="48.79342" lon="2.24029">
        <ele>123</ele>
        <time>2020-12-05T16:08:49.095Z</time>
      </trkpt>
      <trkpt lat="48.79342" lon="2.2403">
        <ele>123</ele>
        <time>2020-12-05T16:08:50.095Z</time>
      </trkpt>
      <trkpt lat="48.79342" lon="2.2403">
        <ele>123</ele>
        <time>2020-12-05T16:08:51.095Z</time>
      </trkpt>
      <trkpt lat="48.79343" lon="2.24031">
        <ele>123</ele>
        <time>2020-12-05T16:08:52.095Z</time>
      </trkpt>
      <trkpt lat="48.79344" lon="2.24033">
        <ele>123</ele>
        <time>2020-12-05T16:08:53.095Z</time>
      </trkpt>
      <trkpt lat="48.79346" lon="2.24035">
        <ele>123</ele>
        <time>2020-12-05T16:08:54.095Z</time>
      </trkpt>
      <trkpt lat="48.79347" lon="2.24037">
        <ele>123</ele>
        <time>2020-12-05T16:08:55.094Z</time>
      </trkpt>
      <trkpt lat="48.79347" lon="2.24039">
        <ele>123</ele>
        <time>2020-12-05T16:08:56.094Z</time>
      </trkpt>
      <trkpt lat="48.79348" lon="2.2404">
        <ele>123</ele>
        <time>2020-12-05T16:08:57.094Z</time>
      </trkpt>
      <trkpt lat="48.79349" lon="2.24042">
        <ele>123</ele>
        <time>2020-12-05T16:08:58.094Z</time>
      </trkpt>
      <trkpt lat="48.79349" lon="2.24044">
        <ele>123</ele>
        <time>2020-12-05T16:08:59.095Z</time>
      </trkpt>
      <trkpt lat="48.7935" lon="2.24046">
        <ele>123</ele>
        <time>2020-12-05T16:09:00.095Z</time>
      </trkpt>
      <trkpt lat="48.7935" lon="2.24049">
        <ele>123</ele>
        <time>2020-12-05T16:09:01.095Z</time>
      </trkpt>
      <trkpt lat="48.7935" lon="2.24051">
        <ele>123</ele>
        <time>2020-12-05T16:09:02.094Z</time>
      </trkpt>
      <trkpt lat="48.7935" lon="2.24052">
        <ele>124</ele>
        <time>2020-12-05T16:09:03.095Z</time>
      </trkpt>
      <trkpt lat="48.79349" lon="2.24052">
        <ele>124</ele>
        <time>2020-12-05T16:09:04.095Z</time>
      </trkpt>
      <trkpt lat="48.79349" lon="2.24053">
        <ele>124</ele>
        <time>2020-12-05T16:09:05.095Z</time>
      </trkpt>
      <trkpt lat="48.79349" lon="2.24054">
        <ele>124</ele>
        <time>2020-12-05T16:09:06.095Z</time>
      </trkpt>
      <trkpt lat="48.79349" lon="2.24055">
        <ele>124</ele>
        <time>2020-12-05T16:09:07.095Z</time>
      </trkpt>
      <trkpt lat="48.7935" lon="2.24055">
        <ele>124</ele>
        <time>2020-12-05T16:09:08.095Z</time>
      </trkpt>
      <trkpt lat="48.79352" lon="2.24055">
        <ele>125</ele>
        <time>2020-12-05T16:09:09.095Z</time>
      </trkpt>
      <trkpt lat="48.79353" lon="2.24053">
        <ele>125</ele>
        <time>2020-12-05T16:09:10.095Z</time>
      </trkpt>
      <trkpt lat="48.79354" lon="2.24051">
        <ele>125</ele>
        <time>2020-12-05T16:09:11.095Z</time>
      </trkpt>
      <trkpt lat="48.79355" lon="2.2405">
        <ele>125</ele>
        <time>2020-12-05T16:09:12.095Z</time>
      </trkpt>
      <trkpt lat="48.79354" lon="2.2405">
        <ele>125</ele>
        <time>2020-12-05T16:09:13.095Z</time>
      </trkpt>
      <trkpt lat="48.79354" lon="2.2405">
        <ele>125</ele>
        <time>2020-12-05T16:09:14.094Z</time>
      </trkpt>
      <trkpt lat="48.79355" lon="2.2405">
        <ele>126</ele>
        <time>2020-12-05T16:09:15.094Z</time>
      </trkpt>
      <trkpt lat="48.79355" lon="2.2405">
        <ele>126</ele>
        <time>2020-12-05T16:09:16.094Z</time>
      </trkpt>
      <trkpt lat="48.79356" lon="2.24049">
        <ele>126</ele>
        <time>2020-12-05T16:09:17.095Z</time>
      </trkpt>
      <trkpt lat="48.79356" lon="2.24049">
        <ele>126</ele>
        <time>2020-12-05T16:09:18.095Z</time>
      </trkpt>
      <trkpt lat="48.79355" lon="2.24048">
        <ele>127</ele>
        <time>2020-12-05T16:09:19.095Z</time>
      </trkpt>
      <trkpt lat="48.79355" lon="2.24048">
        <ele>127</ele>
        <time>2020-12-05T16:09:20.095Z</time>
      </trkpt>
      <trkpt lat="48.79355" lon="2.24047">
        <ele>127</ele>
        <time>2020-12-05T16:09:21.094Z</time>
      </trkpt>
      <trkpt lat="48.79355" lon="2.24046">
        <ele>128</ele>
        <time>2020-12-05T16:09:22.095Z</time>
      </trkpt>
      <trkpt lat="48.79355" lon="2.24046">
        <ele>128</ele>
        <time>2020-12-05T16:09:23.095Z</time>
      </trkpt>
      <trkpt lat="48.79356" lon="2.24045">
        <ele>129</ele>
        <time>2020-12-05T16:09:24.095Z</time>
      </trkpt>
      <trkpt lat="48.79356" lon="2.24044">
        <ele>129</ele>
        <time>2020-12-05T16:09:25.095Z</time>
      </trkpt>
      <trkpt lat="48.79356" lon="2.24043">
        <ele>129</ele>
        <time>2020-12-05T16:09:26.095Z</time>
      </trkpt>
      <trkpt lat="48.79356" lon="2.24042">
        <ele>129</ele>
        <time>2020-12-05T16:09:27.095Z</time>
      </trkpt>
      <trkpt lat="48.79357" lon="2.2404">
        <ele>128</ele>
        <time>2020-12-05T16:09:28.095Z</time>
      </trkpt>
      <trkpt lat="48.79357" lon="2.24039">
        <ele>128</ele>
        <time>2020-12-05T16:09:29.095Z</time>
      </trkpt>
      <trkpt lat="48.79357" lon="2.24039">
        <ele>127</ele>
        <time>2020-12-05T16:09:30.095Z</time>
      </trkpt>
      <trkpt lat="48.79357" lon="2.24039">
        <ele>126</ele>
        <time>2020-12-05T16:09:31.095Z</time>
      </trkpt>
      <trkpt lat="48.79356" lon="2.2404">
        <ele>126</ele>
        <time>2020-12-05T16:09:32.095Z</time>
      </trkpt>
      <trkpt lat="48.79356" lon="2.24039">
        <ele>126</ele>
        <time>2020-12-05T16:09:33.095Z</time>
      </trkpt>
      <trkpt lat="48.79355" lon="2.24039">
        <ele>126</ele>
        <time>2020-12-05T16:09:34.094Z</time>
      </trkpt>
      <trkpt lat="48.79355" lon="2.24038">
        <ele>126</ele>
        <time>2020-12-05T16:09:35.095Z</time>
      </trkpt>
      <trkpt lat="48.79354" lon="2.24038">
        <ele>126</ele>
        <time>2020-12-05T16:09:36.094Z</time>
      </trkpt>
      <trkpt lat="48.79354" lon="2.24037">
        <ele>126</ele>
        <time>2020-12-05T16:09:37.095Z</time>
      </trkpt>
      <trkpt lat="48.79354" lon="2.24037">
        <ele>126</ele>
        <time>2020-12-05T16:09:38.094Z</time>
      </trkpt>
      <trkpt lat="48.79353" lon="2.24035">
        <ele>127</ele>
        <time>2020-12-05T16:09:39.095Z</time>
      </trkpt>
      <trkpt lat="48.79352" lon="2.24034">
        <ele>127</ele>
        <time>2020-12-05T16:09:40.094Z</time>
      </trkpt>
      <trkpt lat="48.79352" lon="2.24033">
        <ele>127</ele>
        <time>2020-12-05T16:09:41.095Z</time>
      </trkpt>
      <trkpt lat="48.79351" lon="2.24033">
        <ele>127</ele>
        <time>2020-12-05T16:09:42.094Z</time>
      </trkpt>
      <trkpt lat="48.79351" lon="2.24031">
        <ele>126</ele>
        <time>2020-12-05T16:09:43.094Z</time>
      </trkpt>
      <trkpt lat="48.7935" lon="2.2403">
        <ele>127</ele>
        <time>2020-12-05T16:09:44.094Z</time>
      </trkpt>
      <trkpt lat="48.7935" lon="2.24029">
        <ele>127</ele>
        <time>2020-12-05T16:09:45.095Z</time>
      </trkpt>
      <trkpt lat="48.79349" lon="2.24027">
        <ele>127</ele>
        <time>2020-12-05T16:09:46.095Z</time>
      </trkpt>
      <trkpt lat="48.79348" lon="2.24025">
        <ele>127</ele>
        <time>2020-12-05T16:09:47.095Z</time>
      </trkpt>
      <trkpt lat="48.79346" lon="2.24023">
        <ele>127</ele>
        <time>2020-12-05T16:09:48.095Z</time>
      </trkpt>
      <trkpt lat="48.79345" lon="2.24021">
        <ele>127</ele>
        <time>2020-12-05T16:09:49.095Z</time>
      </trkpt>
      <trkpt lat="48.79343" lon="2.24018">
        <ele>128</ele>
        <time>2020-12-05T16:09:50.095Z</time>
      </trkpt>
      <trkpt lat="48.79343" lon="2.24015">
        <ele>128</ele>
        <time>2020-12-05T16:09:51.094Z</time>
      </trkpt>
      <trkpt lat="48.79342" lon="2.24012">
        <ele>128</ele>
        <time>2020-12-05T16:09:52.095Z</time>
      </trkpt>
      <trkpt lat="48.79341" lon="2.2401">
        <ele>127</ele>
        <time>2020-12-05T16:09:53.095Z</time>
      </trkpt>
      <trkpt lat="48.7934" lon="2.24008">
        <ele>127</ele>
        <time>2020-12-05T16:09:54.095Z</time>
      </trkpt>
      <trkpt lat="48.7934" lon="2.24006">
        <ele>127</ele>
        <time>2020-12-05T16:09:55.095Z</time>
      </trkpt>
      <trkpt lat="48.7934" lon="2.24004">
        <ele>127</ele>
        <time>2020-12-05T16:09:56.095Z</time>
      </trkpt>
      <trkpt lat="48.79339" lon="2.24002">
        <ele>127</ele>
        <time>2020-12-05T16:09:57.094Z</time>
      </trkpt>
      <trkpt lat="48.79338" lon="2.23998">
        <ele>127</ele>
        <time>2020-12-05T16:09:58.094Z</time>
      </trkpt>
      <trkpt lat="48.79338" lon="2.23996">
        <ele>127</ele>
        <time>2020-12-05T16:09:59.095Z</time>
      </trkpt>
      <trkpt lat="48.79337" lon="2.23993">
        <ele>126</ele>
        <time>2020-12-05T16:10:00.095Z</time>
      </trkpt>
      <trkpt lat="48.79337" lon="2.23992">
        <ele>126</ele>
        <time>2020-12-05T16:10:01.095Z</time>
      </trkpt>
      <trkpt lat="48.79337" lon="2.2399">
        <ele>125</ele>
        <time>2020-12-05T16:10:02.095Z</time>
      </trkpt>
      <trkpt lat="48.79336" lon="2.23988">
        <ele>125</ele>
        <time>2020-12-05T16:10:03.095Z</time>
      </trkpt>
      <trkpt lat="48.79336" lon="2.23986">
        <ele>125</ele>
        <time>2020-12-05T16:10:04.094Z</time>
      </trkpt>
      <trkpt lat="48.79336" lon="2.23984">
        <ele>124</ele>
        <time>2020-12-05T16:10:05.095Z</time>
      </trkpt>
      <trkpt lat="48.79336" lon="2.23983">
        <ele>124</ele>
        <time>2020-12-05T16:10:06.094Z</time>
      </trkpt>
      <trkpt lat="48.79337" lon="2.23981">
        <ele>123</ele>
        <time>2020-12-05T16:10:07.094Z</time>
      </trkpt>
      <trkpt lat="48.79337" lon="2.2398">
        <ele>123</ele>
        <time>2020-12-05T16:10:08.095Z</time>
      </trkpt>
      <trkpt lat="48.79337" lon="2.23978">
        <ele>123</ele>
        <time>2020-12-05T16:10:09.095Z</time>
      </trkpt>
      <trkpt lat="48.79337" lon="2.23977">
        <ele>123</ele>
        <time>2020-12-05T16:10:10.095Z</time>
      </trkpt>
      <trkpt lat="48.79338" lon="2.23976">
        <ele>123</ele>
        <time>2020-12-05T16:10:11.095Z</time>
      </trkpt>
      <trkpt lat="48.79339" lon="2.23976">
        <ele>123</ele>
        <time>2020-12-05T16:10:12.095Z</time>
      </trkpt>
      <trkpt lat="48.7934" lon="2.23975">
        <ele>122</ele>
        <time>2020-12-05T16:10:13.095Z</time>
      </trkpt>
      <trkpt lat="48.7934" lon="2.23973">
        <ele>122</ele>
        <time>2020-12-05T16:10:14.095Z</time>
      </trkpt>
      <trkpt lat="48.79341" lon="2.23971">
        <ele>122</ele>
        <time>2020-12-05T16:10:15.094Z</time>
      </trkpt>
      <trkpt lat="48.79342" lon="2.2397">
        <ele>121</ele>
        <time>2020-12-05T16:10:16.095Z</time>
      </trkpt>
      <trkpt lat="48.79342" lon="2.23969">
        <ele>121</ele>
        <time>2020-12-05T16:10:17.095Z</time>
      </trkpt>
      <trkpt lat="48.79342" lon="2.23968">
        <ele>120</ele>
        <time>2020-12-05T16:10:18.095Z</time>
      </trkpt>
      <trkpt lat="48.79343" lon="2.23967">
        <ele>120</ele>
        <time>2020-12-05T16:10:19.095Z</time>
      </trkpt>
      <trkpt lat="48.79344" lon="2.23966">
        <ele>119</ele>
        <time>2020-12-05T16:10:20.095Z</time>
      </trkpt>
      <trkpt lat="48.79345" lon="2.23965">
        <ele>118</ele>
        <time>2020-12-05T16:10:21.095Z</time>
      </trkpt>
      <trkpt lat="48.79346" lon="2.23964">
        <ele>118</ele>
        <time>2020-12-05T16:10:22.095Z</time>
      </trkpt>
      <trkpt lat="48.79347" lon="2.23963">
        <ele>117</ele>
        <time>2020-12-05T16:10:23.095Z</time>
      </trkpt>
      <trkpt lat="48.79347" lon="2.23962">
        <ele>116</ele>
        <time>2020-12-05T16:10:24.094Z</time>
      </trkpt>
      <trkpt lat="48.79348" lon="2.23961">
        <ele>115</ele>
        <time>2020-12-05T16:10:25.095Z</time>
      </trkpt>
      <trkpt lat="48.79349" lon="2.2396">
        <ele>115</ele>
        <time>2020-12-05T16:10:26.095Z</time>
      </trkpt>
      <trkpt lat="48.79349" lon="2.23958">
        <ele>115</ele>
        <time>2020-12-05T16:10:27.095Z</time>
      </trkpt>
      <trkpt lat="48.7935" lon="2.23957">
        <ele>115</ele>
        <time>2020-12-05T16:10:28.095Z</time>
      </trkpt>
      <trkpt lat="48.79351" lon="2.23956">
        <ele>115</ele>
        <time>2020-12-05T16:10:29.095Z</time>
      </trkpt>
      <trkpt lat="48.79352" lon="2.23955">
        <ele>114</ele>
        <time>2020-12-05T16:10:30.095Z</time>
      </trkpt>
      <trkpt lat="48.79353" lon="2.23954">
        <ele>114</ele>
        <time>2020-12-05T16:10:31.095Z</time>
      </trkpt>
      <trkpt lat="48.79354" lon="2.23953">
        <ele>114</ele>
        <time>2020-12-05T16:10:32.095Z</time>
      </trkpt>
      <trkpt lat="48.79355" lon="2.23952">
        <ele>114</ele>
        <time>2020-12-05T16:10:33.095Z</time>
      </trkpt>
      <trkpt lat="48.79356" lon="2.2395">
        <ele>114</ele>
        <time>2020-12-05T16:10:34.094Z</time>
      </trkpt>
      <trkpt lat="48.79357" lon="2.23949">
        <ele>115</ele>
        <time>2020-12-05T16:10:35.094Z</time>
      </trkpt>
      <trkpt lat="48.79358" lon="2.23948">
        <ele>114</ele>
        <time>2020-12-05T16:10:36.095Z</time>
      </trkpt>
      <trkpt lat="48.79359" lon="2.23947">
        <ele>114</ele>
        <time>2020-12-05T16:10:37.095Z</time>
      </trkpt>
      <trkpt lat="48.7936" lon="2.23944">
        <ele>113</ele>
        <time>2020-12-05T16:10:38.095Z</time>
      </trkpt>
      <trkpt lat="48.79361" lon="2.23942">
        <ele>113</ele>
        <time>2020-12-05T16:10:39.094Z</time>
      </trkpt>
      <trkpt lat="48.79361" lon="2.23939">
        <ele>112</ele>
        <time>2020-12-05T16:10:40.095Z</time>
      </trkpt>
      <trkpt lat="48.79361" lon="2.23936">
        <ele>112</ele>
        <time>2020-12-05T16:10:41.095Z</time>
      </trkpt>
      <trkpt lat="48.79362" lon="2.23934">
        <ele>113</ele>
        <time>2020-12-05T16:10:42.095Z</time>
      </trkpt>
      <trkpt lat="48.79363" lon="2.23933">
        <ele>113</ele>
        <time>2020-12-05T16:10:43.095Z</time>
      </trkpt>
      <trkpt lat="48.79364" lon="2.23932">
        <ele>113</ele>
        <time>2020-12-05T16:10:44.094Z</time>
      </trkpt>
      <trkpt lat="48.79365" lon="2.23931">
        <ele>114</ele>
        <time>2020-12-05T16:10:45.095Z</time>
      </trkpt>
      <trkpt lat="48.79366" lon="2.23929">
        <ele>114</ele>
        <time>2020-12-05T16:10:46.094Z</time>
      </trkpt>
      <trkpt lat="48.79367" lon="2.23928">
        <ele>114</ele>
        <time>2020-12-05T16:10:47.095Z</time>
      </trkpt>
      <trkpt lat="48.79368" lon="2.23927">
        <ele>114</ele>
        <time>2020-12-05T16:10:48.094Z</time>
      </trkpt>
      <trkpt lat="48.79369" lon="2.23926">
        <ele>114</ele>
        <time>2020-12-05T16:10:49.095Z</time>
      </trkpt>
      <trkpt lat="48.79371" lon="2.23925">
        <ele>114</ele>
        <time>2020-12-05T16:10:50.095Z</time>
      </trkpt>
      <trkpt lat="48.79372" lon="2.23924">
        <ele>114</ele>
        <time>2020-12-05T16:10:51.095Z</time>
      </trkpt>
      <trkpt lat="48.79373" lon="2.23923">
        <ele>114</ele>
        <time>2020-12-05T16:10:52.095Z</time>
      </trkpt>
      <trkpt lat="48.79374" lon="2.23922">
        <ele>114</ele>
        <time>2020-12-05T16:10:53.095Z</time>
      </trkpt>
      <trkpt lat="48.79375" lon="2.23921">
        <ele>113</ele>
        <time>2020-12-05T16:10:54.095Z</time>
      </trkpt>
      <trkpt lat="48.79376" lon="2.2392">
        <ele>113</ele>
        <time>2020-12-05T16:10:55.095Z</time>
      </trkpt>
      <trkpt lat="48.79377" lon="2.23921">
        <ele>113</ele>
        <time>2020-12-05T16:10:56.094Z</time>
      </trkpt>
      <trkpt lat="48.79378" lon="2.23921">
        <ele>113</ele>
        <time>2020-12-05T16:10:57.095Z</time>
      </trkpt>
      <trkpt lat="48.79379" lon="2.23921">
        <ele>113</ele>
        <time>2020-12-05T16:10:58.094Z</time>
      </trkpt>
      <trkpt lat="48.79379" lon="2.2392">
        <ele>113</ele>
        <time>2020-12-05T16:10:59.095Z</time>
      </trkpt>
      <trkpt lat="48.7938" lon="2.23919">
        <ele>114</ele>
        <time>2020-12-05T16:11:00.094Z</time>
      </trkpt>
      <trkpt lat="48.79381" lon="2.23919">
        <ele>114</ele>
        <time>2020-12-05T16:11:01.095Z</time>
      </trkpt>
      <trkpt lat="48.79382" lon="2.23918">
        <ele>114</ele>
        <time>2020-12-05T16:11:02.094Z</time>
      </trkpt>
      <trkpt lat="48.79383" lon="2.23918">
        <ele>115</ele>
        <time>2020-12-05T16:11:03.095Z</time>
      </trkpt>
      <trkpt lat="48.79384" lon="2.23918">
        <ele>115</ele>
        <time>2020-12-05T16:11:04.095Z</time>
      </trkpt>
      <trkpt lat="48.79385" lon="2.23918">
        <ele>115</ele>
        <time>2020-12-05T16:11:05.095Z</time>
      </trkpt>
      <trkpt lat="48.79385" lon="2.23918">
        <ele>115</ele>
        <time>2020-12-05T16:11:06.095Z</time>
      </trkpt>
      <trkpt lat="48.79386" lon="2.23918">
        <ele>115</ele>
        <time>2020-12-05T16:11:07.095Z</time>
      </trkpt>
      <trkpt lat="48.79387" lon="2.23918">
        <ele>115</ele>
        <time>2020-12-05T16:11:08.095Z</time>
      </trkpt>
      <trkpt lat="48.79388" lon="2.23918">
        <ele>115</ele>
        <time>2020-12-05T16:11:09.095Z</time>
      </trkpt>
      <trkpt lat="48.7939" lon="2.23919">
        <ele>115</ele>
        <time>2020-12-05T16:11:10.094Z</time>
      </trkpt>
      <trkpt lat="48.79391" lon="2.2392">
        <ele>115</ele>
        <time>2020-12-05T16:11:11.095Z</time>
      </trkpt>
      <trkpt lat="48.79392" lon="2.2392">
        <ele>115</ele>
        <time>2020-12-05T16:11:12.095Z</time>
      </trkpt>
      <trkpt lat="48.79393" lon="2.2392">
        <ele>115</ele>
        <time>2020-12-05T16:11:13.095Z</time>
      </trkpt>
      <trkpt lat="48.79394" lon="2.2392">
        <ele>115</ele>
        <time>2020-12-05T16:11:14.095Z</time>
      </trkpt>
      <trkpt lat="48.79395" lon="2.2392">
        <ele>115</ele>
        <time>2020-12-05T16:11:15.095Z</time>
      </trkpt>
      <trkpt lat="48.79396" lon="2.2392">
        <ele>115</ele>
        <time>2020-12-05T16:11:16.094Z</time>
      </trkpt>
      <trkpt lat="48.79398" lon="2.2392">
        <ele>115</ele>
        <time>2020-12-05T16:11:17.095Z</time>
      </trkpt>
      <trkpt lat="48.79399" lon="2.23919">
        <ele>115</ele>
        <time>2020-12-05T16:11:18.094Z</time>
      </trkpt>
      <trkpt lat="48.794" lon="2.23919">
        <ele>115</ele>
        <time>2020-12-05T16:11:19.094Z</time>
      </trkpt>
      <trkpt lat="48.79401" lon="2.23919">
        <ele>115</ele>
        <time>2020-12-05T16:11:20.095Z</time>
      </trkpt>
      <trkpt lat="48.79401" lon="2.23919">
        <ele>114</ele>
        <time>2020-12-05T16:11:21.095Z</time>
      </trkpt>
      <trkpt lat="48.79403" lon="2.23918">
        <ele>114</ele>
        <time>2020-12-05T16:11:22.095Z</time>
      </trkpt>
      <trkpt lat="48.79405" lon="2.23917">
        <ele>113</ele>
        <time>2020-12-05T16:11:23.095Z</time>
      </trkpt>
      <trkpt lat="48.79407" lon="2.23914">
        <ele>113</ele>
        <time>2020-12-05T16:11:24.095Z</time>
      </trkpt>
      <trkpt lat="48.79408" lon="2.23914">
        <ele>112</ele>
        <time>2020-12-05T16:11:25.095Z</time>
      </trkpt>
      <trkpt lat="48.7941" lon="2.23913">
        <ele>111</ele>
        <time>2020-12-05T16:11:26.095Z</time>
      </trkpt>
      <trkpt lat="48.79411" lon="2.23912">
        <ele>111</ele>
        <time>2020-12-05T16:11:27.094Z</time>
      </trkpt>
      <trkpt lat="48.79413" lon="2.23912">
        <ele>110</ele>
        <time>2020-12-05T16:11:28.095Z</time>
      </trkpt>
      <trkpt lat="48.79415" lon="2.23911">
        <ele>110</ele>
        <time>2020-12-05T16:11:29.094Z</time>
      </trkpt>
      <trkpt lat="48.79416" lon="2.2391">
        <ele>109</ele>
        <time>2020-12-05T16:11:30.095Z</time>
      </trkpt>
      <trkpt lat="48.79417" lon="2.23909">
        <ele>109</ele>
        <time>2020-12-05T16:11:31.094Z</time>
      </trkpt>
      <trkpt lat="48.79418" lon="2.23909">
        <ele>109</ele>
        <time>2020-12-05T16:11:32.094Z</time>
      </trkpt>
      <trkpt lat="48.79419" lon="2.23909">
        <ele>109</ele>
        <time>2020-12-05T16:11:33.095Z</time>
      </trkpt>
      <trkpt lat="48.79421" lon="2.23909">
        <ele>109</ele>
        <time>2020-12-05T16:11:34.094Z</time>
      </trkpt>
      <trkpt lat="48.79422" lon="2.23909">
        <ele>109</ele>
        <time>2020-12-05T16:11:35.095Z</time>
      </trkpt>
      <trkpt lat="48.79423" lon="2.23909">
        <ele>109</ele>
        <time>2020-12-05T16:11:36.094Z</time>
      </trkpt>
      <trkpt lat="48.79424" lon="2.23909">
        <ele>110</ele>
        <time>2020-12-05T16:11:37.095Z</time>
      </trkpt>
      <trkpt lat="48.79425" lon="2.23909">
        <ele>110</ele>
        <time>2020-12-05T16:11:38.094Z</time>
      </trkpt>
      <trkpt lat="48.79425" lon="2.23909">
        <ele>110</ele>
        <time>2020-12-05T16:11:39.095Z</time>
      </trkpt>
      <trkpt lat="48.79425" lon="2.23909">
        <ele>111</ele>
        <time>2020-12-05T16:11:40.095Z</time>
      </trkpt>
      <trkpt lat="48.79426" lon="2.23909">
        <ele>111</ele>
        <time>2020-12-05T16:11:41.095Z</time>
      </trkpt>
      <trkpt lat="48.79426" lon="2.23908">
        <ele>111</ele>
        <time>2020-12-05T16:11:42.095Z</time>
      </trkpt>
      <trkpt lat="48.79426" lon="2.23908">
        <ele>111</ele>
        <time>2020-12-05T16:11:43.094Z</time>
      </trkpt>
      <trkpt lat="48.79425" lon="2.23908">
        <ele>110</ele>
        <time>2020-12-05T16:11:44.095Z</time>
      </trkpt>
      <trkpt lat="48.79425" lon="2.23908">
        <ele>110</ele>
        <time>2020-12-05T16:11:45.095Z</time>
      </trkpt>
      <trkpt lat="48.79424" lon="2.23908">
        <ele>109</ele>
        <time>2020-12-05T16:11:46.094Z</time>
      </trkpt>
      <trkpt lat="48.79424" lon="2.23907">
        <ele>107</ele>
        <time>2020-12-05T16:11:47.095Z</time>
      </trkpt>
      <trkpt lat="48.79423" lon="2.23907">
        <ele>106</ele>
        <time>2020-12-05T16:11:48.095Z</time>
      </trkpt>
      <trkpt lat="48.79423" lon="2.23907">
        <ele>105</ele>
        <time>2020-12-05T16:11:49.095Z</time>
      </trkpt>
      <trkpt lat="48.79423" lon="2.23906">
        <ele>105</ele>
        <time>2020-12-05T16:11:50.094Z</time>
      </trkpt>
      <trkpt lat="48.79423" lon="2.23905">
        <ele>104</ele>
        <time>2020-12-05T16:11:51.095Z</time>
      </trkpt>
      <trkpt lat="48.79424" lon="2.23905">
        <ele>103</ele>
        <time>2020-12-05T16:11:52.094Z</time>
      </trkpt>
      <trkpt lat="48.79424" lon="2.23906">
        <ele>103</ele>
        <time>2020-12-05T16:11:53.095Z</time>
      </trkpt>
      <trkpt lat="48.79424" lon="2.23907">
        <ele>103</ele>
        <time>2020-12-05T16:11:54.095Z</time>
      </trkpt>
      <trkpt lat="48.79423" lon="2.23907">
        <ele>102</ele>
        <time>2020-12-05T16:11:55.095Z</time>
      </trkpt>
      <trkpt lat="48.79423" lon="2.23908">
        <ele>103</ele>
        <time>2020-12-05T16:11:56.095Z</time>
      </trkpt>
      <trkpt lat="48.79423" lon="2.23909">
        <ele>103</ele>
        <time>2020-12-05T16:11:57.095Z</time>
      </trkpt>
      <trkpt lat="48.79423" lon="2.23909">
        <ele>102</ele>
        <time>2020-12-05T16:11:58.095Z</time>
      </trkpt>
      <trkpt lat="48.79423" lon="2.23909">
        <ele>102</ele>
        <time>2020-12-05T16:11:59.095Z</time>
      </trkpt>
      <trkpt lat="48.79423" lon="2.23909">
        <ele>102</ele>
        <time>2020-12-05T16:12:00.094Z</time>
      </trkpt>
      <trkpt lat="48.79423" lon="2.23909">
        <ele>102</ele>
        <time>2020-12-05T16:12:01.095Z</time>
      </trkpt>
      <trkpt lat="48.79423" lon="2.23909">
        <ele>101</ele>
        <time>2020-12-05T16:12:02.094Z</time>
      </trkpt>
      <trkpt lat="48.79423" lon="2.23909">
        <ele>101</ele>
        <time>2020-12-05T16:12:03.095Z</time>
      </trkpt>
      <trkpt lat="48.79423" lon="2.23909">
        <ele>101</ele>
        <time>2020-12-05T16:12:04.095Z</time>
      </trkpt>
      <trkpt lat="48.79423" lon="2.23909">
        <ele>101</ele>
        <time>2020-12-05T16:12:05.095Z</time>
      </trkpt>
      <trkpt lat="48.79423" lon="2.23909">
        <ele>101</ele>
        <time>2020-12-05T16:12:06.094Z</time>
      </trkpt>
      <trkpt lat="48.79423" lon="2.23909">
        <ele>100</ele>
        <time>2020-12-05T16:12:07.094Z</time>
      </trkpt>
      <trkpt lat="48.79423" lon="2.23909">
        <ele>100</ele>
        <time>2020-12-05T16:12:08.095Z</time>
      </trkpt>
      <trkpt lat="48.79423" lon="2.23909">
        <ele>100</ele>
        <time>2020-12-05T16:12:09.094Z</time>
      </trkpt>
      <trkpt lat="48.79423" lon="2.23909">
        <ele>100</ele>
        <time>2020-12-05T16:12:10.095Z</time>
      </trkpt>
      <trkpt lat="48.79423" lon="2.23909">
        <ele>100</ele>
        <time>2020-12-05T16:12:11.095Z</time>
      </trkpt>
      <trkpt lat="48.79423" lon="2.23909">
        <ele>101</ele>
        <time>2020-12-05T16:12:12.095Z</time>
      </trkpt>
      <trkpt lat="48.79423" lon="2.23909">
        <ele>101</ele>
        <time>2020-12-05T16:12:13.095Z</time>
      </trkpt>
      <trkpt lat="48.79423" lon="2.23909">
        <ele>101</ele>
        <time>2020-12-05T16:12:14.095Z</time>
      </trkpt>
      <trkpt lat="48.79423" lon="2.23909">
        <ele>101</ele>
        <time>2020-12-05T16:12:15.095Z</time>
      </trkpt>
      <trkpt lat="48.79423" lon="2.23909">
        <ele>101</ele>
        <time>2020-12-05T16:12:16.094Z</time>
      </trkpt>
      <trkpt lat="48.79424" lon="2.23908">
        <ele>101</ele>
        <time>2020-12-05T16:12:17.094Z</time>
      </trkpt>
      <trkpt lat="48.79424" lon="2.23908">
        <ele>101</ele>
        <time>2020-12-05T16:12:18.095Z</time>
      </trkpt>
      <trkpt lat="48.79424" lon="2.23908">
        <ele>101</ele>
        <time>2020-12-05T16:12:19.094Z</time>
      </trkpt>
      <trkpt lat="48.79424" lon="2.23908">
        <ele>102</ele>
        <time>2020-12-05T16:12:20.095Z</time>
      </trkpt>
      <trkpt lat="48.79424" lon="2.23908">
        <ele>102</ele>
        <time>2020-12-05T16:12:21.095Z</time>
      </trkpt>
      <trkpt lat="48.79423" lon="2.23908">
        <ele>102</ele>
        <time>2020-12-05T16:12:22.094Z</time>
      </trkpt>
      <trkpt lat="48.79423" lon="2.23908">
        <ele>102</ele>
        <time>2020-12-05T16:12:23.095Z</time>
      </trkpt>
      <trkpt lat="48.79423" lon="2.23908">
        <ele>102</ele>
        <time>2020-12-05T16:12:24.094Z</time>
      </trkpt>
      <trkpt lat="48.79424" lon="2.23908">
        <ele>102</ele>
        <time>2020-12-05T16:12:25.095Z</time>
      </trkpt>
      <trkpt lat="48.79424" lon="2.23908">
        <ele>102</ele>
        <time>2020-12-05T16:12:26.095Z</time>
      </trkpt>
      <trkpt lat="48.79424" lon="2.23908">
        <ele>102</ele>
        <time>2020-12-05T16:12:27.095Z</time>
      </trkpt>
      <trkpt lat="48.79424" lon="2.23908">
        <ele>102</ele>
        <time>2020-12-05T16:12:28.095Z</time>
      </trkpt>
      <trkpt lat="48.79424" lon="2.23908">
        <ele>102</ele>
        <time>2020-12-05T16:12:29.095Z</time>
      </trkpt>
      <trkpt lat="48.79424" lon="2.23908">
        <ele>102</ele>
        <time>2020-12-05T16:12:30.095Z</time>
      </trkpt>
      <trkpt lat="48.79424" lon="2.23908">
        <ele>103</ele>
        <time>2020-12-05T16:12:31.095Z</time>
      </trkpt>
      <trkpt lat="48.79424" lon="2.23908">
        <ele>103</ele>
        <time>2020-12-05T16:12:32.095Z</time>
      </trkpt>
      <trkpt lat="48.79424" lon="2.23908">
        <ele>103</ele>
        <time>2020-12-05T16:12:33.095Z</time>
      </trkpt>
      <trkpt lat="48.79424" lon="2.23908">
        <ele>103</ele>
        <time>2020-12-05T16:12:34.094Z</time>
      </trkpt>
      <trkpt lat="48.79424" lon="2.23908">
        <ele>103</ele>
        <time>2020-12-05T16:12:35.095Z</time>
      </trkpt>
      <trkpt lat="48.79424" lon="2.23908">
        <ele>103</ele>
        <time>2020-12-05T16:12:36.095Z</time>
      </trkpt>
      <trkpt lat="48.79424" lon="2.23908">
        <ele>103</ele>
        <time>2020-12-05T16:12:37.095Z</time>
      </trkpt>
      <trkpt lat="48.79424" lon="2.23907">
        <ele>103</ele>
        <time>2020-12-05T16:12:38.095Z</time>
      </trkpt>
      <trkpt lat="48.79424" lon="2.23907">
        <ele>103</ele>
        <time>2020-12-05T16:12:39.094Z</time>
      </trkpt>
      <trkpt lat="48.79424" lon="2.23907">
        <ele>103</ele>
        <time>2020-12-05T16:12:40.094Z</time>
      </trkpt>
      <trkpt lat="48.79424" lon="2.23907">
        <ele>103</ele>
        <time>2020-12-05T16:12:41.095Z</time>
      </trkpt>
      <trkpt lat="48.79425" lon="2.23907">
        <ele>103</ele>
        <time>2020-12-05T16:12:42.095Z</time>
      </trkpt>
      <trkpt lat="48.79427" lon="2.23905">
        <ele>103</ele>
        <time>2020-12-05T16:12:43.095Z</time>
      </trkpt>
      <trkpt lat="48.79428" lon="2.23904">
        <ele>103</ele>
        <time>2020-12-05T16:12:44.095Z</time>
      </trkpt>
      <trkpt lat="48.7943" lon="2.23902">
        <ele>103</ele>
        <time>2020-12-05T16:12:45.095Z</time>
      </trkpt>
      <trkpt lat="48.79431" lon="2.23901">
        <ele>103</ele>
        <time>2020-12-05T16:12:46.094Z</time>
      </trkpt>
      <trkpt lat="48.79433" lon="2.239">
        <ele>104</ele>
        <time>2020-12-05T16:12:47.094Z</time>
      </trkpt>
      <trkpt lat="48.79435" lon="2.239">
        <ele>104</ele>
        <time>2020-12-05T16:12:48.094Z</time>
      </trkpt>
      <trkpt lat="48.79437" lon="2.23899">
        <ele>104</ele>
        <time>2020-12-05T16:12:49.094Z</time>
      </trkpt>
      <trkpt lat="48.79438" lon="2.23898">
        <ele>104</ele>
        <time>2020-12-05T16:12:50.094Z</time>
      </trkpt>
      <trkpt lat="48.7944" lon="2.23897">
        <ele>104</ele>
        <time>2020-12-05T16:12:51.094Z</time>
      </trkpt>
      <trkpt lat="48.79442" lon="2.23896">
        <ele>104</ele>
        <time>2020-12-05T16:12:52.094Z</time>
      </trkpt>
      <trkpt lat="48.79443" lon="2.23896">
        <ele>105</ele>
        <time>2020-12-05T16:12:53.094Z</time>
      </trkpt>
      <trkpt lat="48.79445" lon="2.23896">
        <ele>105</ele>
        <time>2020-12-05T16:12:54.095Z</time>
      </trkpt>
      <trkpt lat="48.79446" lon="2.23897">
        <ele>106</ele>
        <time>2020-12-05T16:12:55.095Z</time>
      </trkpt>
      <trkpt lat="48.79448" lon="2.23898">
        <ele>107</ele>
        <time>2020-12-05T16:12:56.095Z</time>
      </trkpt>
      <trkpt lat="48.79449" lon="2.23898">
        <ele>108</ele>
        <time>2020-12-05T16:12:57.094Z</time>
      </trkpt>
      <trkpt lat="48.79451" lon="2.23897">
        <ele>108</ele>
        <time>2020-12-05T16:12:58.095Z</time>
      </trkpt>
      <trkpt lat="48.79452" lon="2.23896">
        <ele>109</ele>
        <time>2020-12-05T16:12:59.094Z</time>
      </trkpt>
      <trkpt lat="48.79454" lon="2.23895">
        <ele>109</ele>
        <time>2020-12-05T16:13:00.095Z</time>
      </trkpt>
      <trkpt lat="48.79455" lon="2.23894">
        <ele>110</ele>
        <time>2020-12-05T16:13:01.095Z</time>
      </trkpt>
      <trkpt lat="48.79456" lon="2.23892">
        <ele>110</ele>
        <time>2020-12-05T16:13:02.095Z</time>
      </trkpt>
      <trkpt lat="48.79457" lon="2.23891">
        <ele>111</ele>
        <time>2020-12-05T16:13:03.095Z</time>
      </trkpt>
      <trkpt lat="48.79459" lon="2.2389">
        <ele>112</ele>
        <time>2020-12-05T16:13:04.095Z</time>
      </trkpt>
      <trkpt lat="48.7946" lon="2.23889">
        <ele>112</ele>
        <time>2020-12-05T16:13:05.094Z</time>
      </trkpt>
      <trkpt lat="48.79462" lon="2.23888">
        <ele>112</ele>
        <time>2020-12-05T16:13:06.095Z</time>
      </trkpt>
      <trkpt lat="48.79464" lon="2.23887">
        <ele>112</ele>
        <time>2020-12-05T16:13:07.095Z</time>
      </trkpt>
      <trkpt lat="48.79466" lon="2.23886">
        <ele>112</ele>
        <time>2020-12-05T16:13:08.095Z</time>
      </trkpt>
      <trkpt lat="48.79468" lon="2.23885">
        <ele>112</ele>
        <time>2020-12-05T16:13:09.095Z</time>
      </trkpt>
      <trkpt lat="48.7947" lon="2.23885">
        <ele>113</ele>
        <time>2020-12-05T16:13:10.094Z</time>
      </trkpt>
      <trkpt lat="48.79471" lon="2.23884">
        <ele>113</ele>
        <time>2020-12-05T16:13:11.095Z</time>
      </trkpt>
      <trkpt lat="48.79473" lon="2.23882">
        <ele>113</ele>
        <time>2020-12-05T16:13:12.095Z</time>
      </trkpt>
      <trkpt lat="48.79474" lon="2.23881">
        <ele>114</ele>
        <time>2020-12-05T16:13:13.094Z</time>
      </trkpt>
      <trkpt lat="48.79474" lon="2.23879">
        <ele>114</ele>
        <time>2020-12-05T16:13:14.094Z</time>
      </trkpt>
      <trkpt lat="48.79475" lon="2.23878">
        <ele>115</ele>
        <time>2020-12-05T16:13:15.095Z</time>
      </trkpt>
      <trkpt lat="48.79475" lon="2.23876">
        <ele>115</ele>
        <time>2020-12-05T16:13:16.095Z</time>
      </trkpt>
      <trkpt lat="48.79476" lon="2.23874">
        <ele>115</ele>
        <time>2020-12-05T16:13:17.095Z</time>
      </trkpt>
      <trkpt lat="48.79477" lon="2.23872">
        <ele>115</ele>
        <time>2020-12-05T16:13:18.095Z</time>
      </trkpt>
      <trkpt lat="48.79477" lon="2.23869">
        <ele>115</ele>
        <time>2020-12-05T16:13:19.095Z</time>
      </trkpt>
      <trkpt lat="48.79477" lon="2.23867">
        <ele>116</ele>
        <time>2020-12-05T16:13:20.095Z</time>
      </trkpt>
      <trkpt lat="48.79478" lon="2.23865">
        <ele>116</ele>
        <time>2020-12-05T16:13:21.094Z</time>
      </trkpt>
      <trkpt lat="48.79479" lon="2.23864">
        <ele>117</ele>
        <time>2020-12-05T16:13:22.094Z</time>
      </trkpt>
      <trkpt lat="48.79479" lon="2.23863">
        <ele>117</ele>
        <time>2020-12-05T16:13:23.094Z</time>
      </trkpt>
      <trkpt lat="48.7948" lon="2.23862">
        <ele>117</ele>
        <time>2020-12-05T16:13:24.095Z</time>
      </trkpt>
      <trkpt lat="48.7948" lon="2.2386">
        <ele>117</ele>
        <time>2020-12-05T16:13:25.094Z</time>
      </trkpt>
      <trkpt lat="48.79481" lon="2.23859">
        <ele>117</ele>
        <time>2020-12-05T16:13:26.094Z</time>
      </trkpt>
      <trkpt lat="48.79481" lon="2.23858">
        <ele>116</ele>
        <time>2020-12-05T16:13:27.095Z</time>
      </trkpt>
      <trkpt lat="48.79482" lon="2.23856">
        <ele>116</ele>
        <time>2020-12-05T16:13:28.095Z</time>
      </trkpt>
      <trkpt lat="48.79483" lon="2.23855">
        <ele>116</ele>
        <time>2020-12-05T16:13:29.094Z</time>
      </trkpt>
      <trkpt lat="48.79484" lon="2.23853">
        <ele>116</ele>
        <time>2020-12-05T16:13:30.094Z</time>
      </trkpt>
      <trkpt lat="48.79485" lon="2.23852">
        <ele>116</ele>
        <time>2020-12-05T16:13:31.094Z</time>
      </trkpt>
      <trkpt lat="48.79486" lon="2.2385">
        <ele>116</ele>
        <time>2020-12-05T16:13:32.094Z</time>
      </trkpt>
      <trkpt lat="48.79487" lon="2.23849">
        <ele>117</ele>
        <time>2020-12-05T16:13:33.094Z</time>
      </trkpt>
      <trkpt lat="48.79487" lon="2.23848">
        <ele>117</ele>
        <time>2020-12-05T16:13:34.095Z</time>
      </trkpt>
      <trkpt lat="48.79488" lon="2.23846">
        <ele>117</ele>
        <time>2020-12-05T16:13:35.095Z</time>
      </trkpt>
      <trkpt lat="48.79488" lon="2.23845">
        <ele>116</ele>
        <time>2020-12-05T16:13:36.094Z</time>
      </trkpt>
      <trkpt lat="48.79489" lon="2.23843">
        <ele>116</ele>
        <time>2020-12-05T16:13:37.094Z</time>
      </trkpt>
      <trkpt lat="48.79489" lon="2.23841">
        <ele>117</ele>
        <time>2020-12-05T16:13:38.095Z</time>
      </trkpt>
      <trkpt lat="48.7949" lon="2.23839">
        <ele>117</ele>
        <time>2020-12-05T16:13:39.095Z</time>
      </trkpt>
      <trkpt lat="48.7949" lon="2.23837">
        <ele>117</ele>
        <time>2020-12-05T16:13:40.095Z</time>
      </trkpt>
      <trkpt lat="48.7949" lon="2.23835">
        <ele>117</ele>
        <time>2020-12-05T16:13:41.095Z</time>
      </trkpt>
      <trkpt lat="48.7949" lon="2.23832">
        <ele>117</ele>
        <time>2020-12-05T16:13:42.094Z</time>
      </trkpt>
      <trkpt lat="48.7949" lon="2.23829">
        <ele>116</ele>
        <time>2020-12-05T16:13:43.094Z</time>
      </trkpt>
      <trkpt lat="48.7949" lon="2.23827">
        <ele>116</ele>
        <time>2020-12-05T16:13:44.095Z</time>
      </trkpt>
      <trkpt lat="48.7949" lon="2.23825">
        <ele>116</ele>
        <time>2020-12-05T16:13:45.095Z</time>
      </trkpt>
      <trkpt lat="48.79489" lon="2.23822">
        <ele>116</ele>
        <time>2020-12-05T16:13:46.095Z</time>
      </trkpt>
      <trkpt lat="48.79489" lon="2.23819">
        <ele>115</ele>
        <time>2020-12-05T16:13:47.095Z</time>
      </trkpt>
      <trkpt lat="48.79489" lon="2.23817">
        <ele>115</ele>
        <time>2020-12-05T16:13:48.094Z</time>
      </trkpt>
      <trkpt lat="48.79489" lon="2.23815">
        <ele>115</ele>
        <time>2020-12-05T16:13:49.095Z</time>
      </trkpt>
      <trkpt lat="48.79489" lon="2.23813">
        <ele>115</ele>
        <time>2020-12-05T16:13:50.095Z</time>
      </trkpt>
      <trkpt lat="48.79489" lon="2.23811">
        <ele>115</ele>
        <time>2020-12-05T16:13:51.095Z</time>
      </trkpt>
      <trkpt lat="48.79489" lon="2.23809">
        <ele>115</ele>
        <time>2020-12-05T16:13:52.094Z</time>
      </trkpt>
      <trkpt lat="48.79489" lon="2.23808">
        <ele>115</ele>
        <time>2020-12-05T16:13:53.094Z</time>
      </trkpt>
      <trkpt lat="48.7949" lon="2.23806">
        <ele>115</ele>
        <time>2020-12-05T16:13:54.095Z</time>
      </trkpt>
      <trkpt lat="48.79489" lon="2.23805">
        <ele>115</ele>
        <time>2020-12-05T16:13:55.094Z</time>
      </trkpt>
      <trkpt lat="48.79489" lon="2.23803">
        <ele>115</ele>
        <time>2020-12-05T16:13:56.094Z</time>
      </trkpt>
      <trkpt lat="48.79489" lon="2.23801">
        <ele>115</ele>
        <time>2020-12-05T16:13:57.094Z</time>
      </trkpt>
      <trkpt lat="48.79489" lon="2.23799">
        <ele>115</ele>
        <time>2020-12-05T16:13:58.095Z</time>
      </trkpt>
      <trkpt lat="48.79488" lon="2.23796">
        <ele>115</ele>
        <time>2020-12-05T16:13:59.095Z</time>
      </trkpt>
      <trkpt lat="48.79489" lon="2.23794">
        <ele>114</ele>
        <time>2020-12-05T16:14:00.095Z</time>
      </trkpt>
      <trkpt lat="48.79489" lon="2.23791">
        <ele>114</ele>
        <time>2020-12-05T16:14:01.095Z</time>
      </trkpt>
      <trkpt lat="48.79489" lon="2.23789">
        <ele>114</ele>
        <time>2020-12-05T16:14:02.095Z</time>
      </trkpt>
      <trkpt lat="48.79489" lon="2.23787">
        <ele>113</ele>
        <time>2020-12-05T16:14:03.094Z</time>
      </trkpt>
      <trkpt lat="48.79489" lon="2.23785">
        <ele>113</ele>
        <time>2020-12-05T16:14:04.095Z</time>
      </trkpt>
      <trkpt lat="48.79489" lon="2.23782">
        <ele>113</ele>
        <time>2020-12-05T16:14:05.095Z</time>
      </trkpt>
      <trkpt lat="48.79489" lon="2.2378">
        <ele>113</ele>
        <time>2020-12-05T16:14:06.095Z</time>
      </trkpt>
      <trkpt lat="48.79489" lon="2.23778">
        <ele>113</ele>
        <time>2020-12-05T16:14:07.095Z</time>
      </trkpt>
      <trkpt lat="48.79489" lon="2.23776">
        <ele>114</ele>
        <time>2020-12-05T16:14:08.095Z</time>
      </trkpt>
      <trkpt lat="48.79489" lon="2.23775">
        <ele>114</ele>
        <time>2020-12-05T16:14:09.094Z</time>
      </trkpt>
      <trkpt lat="48.79489" lon="2.23773">
        <ele>114</ele>
        <time>2020-12-05T16:14:10.095Z</time>
      </trkpt>
      <trkpt lat="48.7949" lon="2.23772">
        <ele>114</ele>
        <time>2020-12-05T16:14:11.095Z</time>
      </trkpt>
      <trkpt lat="48.7949" lon="2.23771">
        <ele>115</ele>
        <time>2020-12-05T16:14:12.095Z</time>
      </trkpt>
      <trkpt lat="48.79491" lon="2.23769">
        <ele>115</ele>
        <time>2020-12-05T16:14:13.095Z</time>
      </trkpt>
      <trkpt lat="48.79491" lon="2.23768">
        <ele>115</ele>
        <time>2020-12-05T16:14:14.094Z</time>
      </trkpt>
      <trkpt lat="48.79491" lon="2.23766">
        <ele>115</ele>
        <time>2020-12-05T16:14:15.095Z</time>
      </trkpt>
      <trkpt lat="48.79491" lon="2.23764">
        <ele>115</ele>
        <time>2020-12-05T16:14:16.094Z</time>
      </trkpt>
      <trkpt lat="48.7949" lon="2.23761">
        <ele>115</ele>
        <time>2020-12-05T16:14:17.094Z</time>
      </trkpt>
      <trkpt lat="48.7949" lon="2.23759">
        <ele>115</ele>
        <time>2020-12-05T16:14:18.094Z</time>
      </trkpt>
      <trkpt lat="48.7949" lon="2.23757">
        <ele>114</ele>
        <time>2020-12-05T16:14:19.095Z</time>
      </trkpt>
      <trkpt lat="48.79489" lon="2.23754">
        <ele>114</ele>
        <time>2020-12-05T16:14:20.095Z</time>
      </trkpt>
      <trkpt lat="48.79489" lon="2.23752">
        <ele>114</ele>
        <time>2020-12-05T16:14:21.095Z</time>
      </trkpt>
      <trkpt lat="48.79488" lon="2.23749">
        <ele>114</ele>
        <time>2020-12-05T16:14:22.094Z</time>
      </trkpt>
      <trkpt lat="48.79488" lon="2.23747">
        <ele>114</ele>
        <time>2020-12-05T16:14:23.095Z</time>
      </trkpt>
      <trkpt lat="48.79489" lon="2.23744">
        <ele>114</ele>
        <time>2020-12-05T16:14:24.094Z</time>
      </trkpt>
      <trkpt lat="48.79488" lon="2.23741">
        <ele>114</ele>
        <time>2020-12-05T16:14:25.095Z</time>
      </trkpt>
      <trkpt lat="48.79489" lon="2.23739">
        <ele>114</ele>
        <time>2020-12-05T16:14:26.094Z</time>
      </trkpt>
      <trkpt lat="48.7949" lon="2.23737">
        <ele>114</ele>
        <time>2020-12-05T16:14:27.095Z</time>
      </trkpt>
      <trkpt lat="48.79491" lon="2.23735">
        <ele>114</ele>
        <time>2020-12-05T16:14:28.094Z</time>
      </trkpt>
      <trkpt lat="48.79491" lon="2.23733">
        <ele>115</ele>
        <time>2020-12-05T16:14:29.095Z</time>
      </trkpt>
      <trkpt lat="48.79491" lon="2.23731">
        <ele>114</ele>
        <time>2020-12-05T16:14:30.095Z</time>
      </trkpt>
      <trkpt lat="48.79492" lon="2.23729">
        <ele>114</ele>
        <time>2020-12-05T16:14:31.095Z</time>
      </trkpt>
      <trkpt lat="48.79492" lon="2.23727">
        <ele>114</ele>
        <time>2020-12-05T16:14:32.094Z</time>
      </trkpt>
      <trkpt lat="48.79492" lon="2.23725">
        <ele>113</ele>
        <time>2020-12-05T16:14:33.094Z</time>
      </trkpt>
      <trkpt lat="48.79492" lon="2.23723">
        <ele>113</ele>
        <time>2020-12-05T16:14:34.095Z</time>
      </trkpt>
      <trkpt lat="48.79492" lon="2.23721">
        <ele>112</ele>
        <time>2020-12-05T16:14:35.095Z</time>
      </trkpt>
      <trkpt lat="48.79491" lon="2.23719">
        <ele>112</ele>
        <time>2020-12-05T16:14:36.095Z</time>
      </trkpt>
      <trkpt lat="48.79491" lon="2.23716">
        <ele>111</ele>
        <time>2020-12-05T16:14:37.095Z</time>
      </trkpt>
      <trkpt lat="48.79491" lon="2.23714">
        <ele>111</ele>
        <time>2020-12-05T16:14:38.095Z</time>
      </trkpt>
      <trkpt lat="48.7949" lon="2.23711">
        <ele>110</ele>
        <time>2020-12-05T16:14:39.095Z</time>
      </trkpt>
      <trkpt lat="48.7949" lon="2.23709">
        <ele>110</ele>
        <time>2020-12-05T16:14:40.094Z</time>
      </trkpt>
      <trkpt lat="48.79489" lon="2.23706">
        <ele>110</ele>
        <time>2020-12-05T16:14:41.095Z</time>
      </trkpt>
      <trkpt lat="48.79489" lon="2.23704">
        <ele>110</ele>
        <time>2020-12-05T16:14:42.095Z</time>
      </trkpt>
      <trkpt lat="48.79489" lon="2.23701">
        <ele>110</ele>
        <time>2020-12-05T16:14:43.095Z</time>
      </trkpt>
      <trkpt lat="48.79488" lon="2.23699">
        <ele>111</ele>
        <time>2020-12-05T16:14:44.094Z</time>
      </trkpt>
      <trkpt lat="48.79488" lon="2.23697">
        <ele>111</ele>
        <time>2020-12-05T16:14:45.094Z</time>
      </trkpt>
      <trkpt lat="48.79488" lon="2.23694">
        <ele>112</ele>
        <time>2020-12-05T16:14:46.095Z</time>
      </trkpt>
      <trkpt lat="48.79488" lon="2.23692">
        <ele>112</ele>
        <time>2020-12-05T16:14:47.094Z</time>
      </trkpt>
      <trkpt lat="48.79489" lon="2.23691">
        <ele>113</ele>
        <time>2020-12-05T16:14:48.095Z</time>
      </trkpt>
      <trkpt lat="48.79489" lon="2.23689">
        <ele>113</ele>
        <time>2020-12-05T16:14:49.094Z</time>
      </trkpt>
      <trkpt lat="48.79488" lon="2.23688">
        <ele>114</ele>
        <time>2020-12-05T16:14:50.094Z</time>
      </trkpt>
      <trkpt lat="48.79488" lon="2.23686">
        <ele>114</ele>
        <time>2020-12-05T16:14:51.095Z</time>
      </trkpt>
      <trkpt lat="48.79488" lon="2.23684">
        <ele>114</ele>
        <time>2020-12-05T16:14:52.095Z</time>
      </trkpt>
      <trkpt lat="48.79488" lon="2.23681">
        <ele>114</ele>
        <time>2020-12-05T16:14:53.095Z</time>
      </trkpt>
      <trkpt lat="48.79488" lon="2.23679">
        <ele>114</ele>
        <time>2020-12-05T16:14:54.095Z</time>
      </trkpt>
      <trkpt lat="48.79487" lon="2.23677">
        <ele>114</ele>
        <time>2020-12-05T16:14:55.094Z</time>
      </trkpt>
      <trkpt lat="48.79488" lon="2.23675">
        <ele>115</ele>
        <time>2020-12-05T16:14:56.095Z</time>
      </trkpt>
      <trkpt lat="48.79488" lon="2.23673">
        <ele>116</ele>
        <time>2020-12-05T16:14:57.094Z</time>
      </trkpt>
      <trkpt lat="48.79488" lon="2.23671">
        <ele>116</ele>
        <time>2020-12-05T16:14:58.094Z</time>
      </trkpt>
      <trkpt lat="48.79488" lon="2.23669">
        <ele>117</ele>
        <time>2020-12-05T16:14:59.095Z</time>
      </trkpt>
      <trkpt lat="48.79487" lon="2.23666">
        <ele>117</ele>
        <time>2020-12-05T16:15:00.095Z</time>
      </trkpt>
      <trkpt lat="48.79487" lon="2.23664">
        <ele>117</ele>
        <time>2020-12-05T16:15:01.095Z</time>
      </trkpt>
      <trkpt lat="48.79486" lon="2.23661">
        <ele>117</ele>
        <time>2020-12-05T16:15:02.094Z</time>
      </trkpt>
      <trkpt lat="48.79486" lon="2.23659">
        <ele>116</ele>
        <time>2020-12-05T16:15:03.094Z</time>
      </trkpt>
      <trkpt lat="48.79486" lon="2.23657">
        <ele>116</ele>
        <time>2020-12-05T16:15:04.095Z</time>
      </trkpt>
      <trkpt lat="48.79486" lon="2.23654">
        <ele>116</ele>
        <time>2020-12-05T16:15:05.095Z</time>
      </trkpt>
      <trkpt lat="48.79486" lon="2.23652">
        <ele>116</ele>
        <time>2020-12-05T16:15:06.094Z</time>
      </trkpt>
      <trkpt lat="48.79486" lon="2.2365">
        <ele>116</ele>
        <time>2020-12-05T16:15:07.094Z</time>
      </trkpt>
      <trkpt lat="48.79486" lon="2.23648">
        <ele>116</ele>
        <time>2020-12-05T16:15:08.095Z</time>
      </trkpt>
      <trkpt lat="48.79486" lon="2.23646">
        <ele>116</ele>
        <time>2020-12-05T16:15:09.095Z</time>
      </trkpt>
      <trkpt lat="48.79486" lon="2.23643">
        <ele>115</ele>
        <time>2020-12-05T16:15:10.095Z</time>
      </trkpt>
      <trkpt lat="48.79486" lon="2.23641">
        <ele>115</ele>
        <time>2020-12-05T16:15:11.095Z</time>
      </trkpt>
      <trkpt lat="48.79485" lon="2.23639">
        <ele>115</ele>
        <time>2020-12-05T16:15:12.094Z</time>
      </trkpt>
      <trkpt lat="48.79485" lon="2.23637">
        <ele>115</ele>
        <time>2020-12-05T16:15:13.094Z</time>
      </trkpt>
      <trkpt lat="48.79485" lon="2.23635">
        <ele>115</ele>
        <time>2020-12-05T16:15:14.095Z</time>
      </trkpt>
      <trkpt lat="48.79485" lon="2.23633">
        <ele>115</ele>
        <time>2020-12-05T16:15:15.095Z</time>
      </trkpt>
      <trkpt lat="48.79485" lon="2.23631">
        <ele>115</ele>
        <time>2020-12-05T16:15:16.095Z</time>
      </trkpt>
      <trkpt lat="48.79485" lon="2.23629">
        <ele>115</ele>
        <time>2020-12-05T16:15:17.095Z</time>
      </trkpt>
      <trkpt lat="48.79486" lon="2.23627">
        <ele>115</ele>
        <time>2020-12-05T16:15:18.095Z</time>
      </trkpt>
      <trkpt lat="48.79486" lon="2.23625">
        <ele>115</ele>
        <time>2020-12-05T16:15:19.095Z</time>
      </trkpt>
      <trkpt lat="48.79487" lon="2.23623">
        <ele>115</ele>
        <time>2020-12-05T16:15:20.094Z</time>
      </trkpt>
      <trkpt lat="48.79487" lon="2.23621">
        <ele>115</ele>
        <time>2020-12-05T16:15:21.095Z</time>
      </trkpt>
      <trkpt lat="48.79487" lon="2.23619">
        <ele>115</ele>
        <time>2020-12-05T16:15:22.095Z</time>
      </trkpt>
      <trkpt lat="48.79488" lon="2.23616">
        <ele>116</ele>
        <time>2020-12-05T16:15:23.095Z</time>
      </trkpt>
      <trkpt lat="48.79488" lon="2.23614">
        <ele>117</ele>
        <time>2020-12-05T16:15:24.095Z</time>
      </trkpt>
      <trkpt lat="48.79487" lon="2.23612">
        <ele>117</ele>
        <time>2020-12-05T16:15:25.095Z</time>
      </trkpt>
      <trkpt lat="48.79487" lon="2.2361">
        <ele>118</ele>
        <time>2020-12-05T16:15:26.095Z</time>
      </trkpt>
      <trkpt lat="48.79487" lon="2.23608">
        <ele>118</ele>
        <time>2020-12-05T16:15:27.094Z</time>
      </trkpt>
      <trkpt lat="48.79487" lon="2.23606">
        <ele>117</ele>
        <time>2020-12-05T16:15:28.094Z</time>
      </trkpt>
      <trkpt lat="48.79487" lon="2.23604">
        <ele>117</ele>
        <time>2020-12-05T16:15:29.094Z</time>
      </trkpt>
      <trkpt lat="48.79487" lon="2.23602">
        <ele>118</ele>
        <time>2020-12-05T16:15:30.094Z</time>
      </trkpt>
      <trkpt lat="48.79487" lon="2.236">
        <ele>118</ele>
        <time>2020-12-05T16:15:31.095Z</time>
      </trkpt>
      <trkpt lat="48.79488" lon="2.23598">
        <ele>118</ele>
        <time>2020-12-05T16:15:32.095Z</time>
      </trkpt>
      <trkpt lat="48.79487" lon="2.23594">
        <ele>118</ele>
        <time>2020-12-05T16:15:33.095Z</time>
      </trkpt>
      <trkpt lat="48.79487" lon="2.23591">
        <ele>118</ele>
        <time>2020-12-05T16:15:34.094Z</time>
      </trkpt>
      <trkpt lat="48.79487" lon="2.23589">
        <ele>118</ele>
        <time>2020-12-05T16:15:35.094Z</time>
      </trkpt>
      <trkpt lat="48.79487" lon="2.23587">
        <ele>118</ele>
        <time>2020-12-05T16:15:36.094Z</time>
      </trkpt>
      <trkpt lat="48.79487" lon="2.23585">
        <ele>118</ele>
        <time>2020-12-05T16:15:37.095Z</time>
      </trkpt>
      <trkpt lat="48.79487" lon="2.23582">
        <ele>118</ele>
        <time>2020-12-05T16:15:38.094Z</time>
      </trkpt>
      <trkpt lat="48.79486" lon="2.2358">
        <ele>118</ele>
        <time>2020-12-05T16:15:39.094Z</time>
      </trkpt>
      <trkpt lat="48.79486" lon="2.23578">
        <ele>118</ele>
        <time>2020-12-05T16:15:40.094Z</time>
      </trkpt>
      <trkpt lat="48.79486" lon="2.23576">
        <ele>118</ele>
        <time>2020-12-05T16:15:41.095Z</time>
      </trkpt>
      <trkpt lat="48.79487" lon="2.23574">
        <ele>119</ele>
        <time>2020-12-05T16:15:42.095Z</time>
      </trkpt>
      <trkpt lat="48.79487" lon="2.23572">
        <ele>119</ele>
        <time>2020-12-05T16:15:43.095Z</time>
      </trkpt>
      <trkpt lat="48.79487" lon="2.23569">
        <ele>120</ele>
        <time>2020-12-05T16:15:44.095Z</time>
      </trkpt>
      <trkpt lat="48.79488" lon="2.23567">
        <ele>120</ele>
        <time>2020-12-05T16:15:45.095Z</time>
      </trkpt>
      <trkpt lat="48.79487" lon="2.23565">
        <ele>120</ele>
        <time>2020-12-05T16:15:46.095Z</time>
      </trkpt>
      <trkpt lat="48.79487" lon="2.23562">
        <ele>120</ele>
        <time>2020-12-05T16:15:47.095Z</time>
      </trkpt>
      <trkpt lat="48.79487" lon="2.23559">
        <ele>120</ele>
        <time>2020-12-05T16:15:48.095Z</time>
      </trkpt>
      <trkpt lat="48.79486" lon="2.23556">
        <ele>120</ele>
        <time>2020-12-05T16:15:49.095Z</time>
      </trkpt>
      <trkpt lat="48.79486" lon="2.23554">
        <ele>120</ele>
        <time>2020-12-05T16:15:50.095Z</time>
      </trkpt>
      <trkpt lat="48.79486" lon="2.23553">
        <ele>120</ele>
        <time>2020-12-05T16:15:51.095Z</time>
      </trkpt>
      <trkpt lat="48.79486" lon="2.23551">
        <ele>120</ele>
        <time>2020-12-05T16:15:52.094Z</time>
      </trkpt>
      <trkpt lat="48.79486" lon="2.2355">
        <ele>120</ele>
        <time>2020-12-05T16:15:53.094Z</time>
      </trkpt>
      <trkpt lat="48.79486" lon="2.23549">
        <ele>120</ele>
        <time>2020-12-05T16:15:54.095Z</time>
      </trkpt>
      <trkpt lat="48.79486" lon="2.23547">
        <ele>120</ele>
        <time>2020-12-05T16:15:55.094Z</time>
      </trkpt>
      <trkpt lat="48.79486" lon="2.23545">
        <ele>119</ele>
        <time>2020-12-05T16:15:56.094Z</time>
      </trkpt>
      <trkpt lat="48.79487" lon="2.23544">
        <ele>118</ele>
        <time>2020-12-05T16:15:57.094Z</time>
      </trkpt>
      <trkpt lat="48.79488" lon="2.23542">
        <ele>117</ele>
        <time>2020-12-05T16:15:58.095Z</time>
      </trkpt>
      <trkpt lat="48.79489" lon="2.23541">
        <ele>117</ele>
        <time>2020-12-05T16:15:59.095Z</time>
      </trkpt>
      <trkpt lat="48.7949" lon="2.23539">
        <ele>116</ele>
        <time>2020-12-05T16:16:00.095Z</time>
      </trkpt>
      <trkpt lat="48.7949" lon="2.23536">
        <ele>116</ele>
        <time>2020-12-05T16:16:01.095Z</time>
      </trkpt>
      <trkpt lat="48.79491" lon="2.23535">
        <ele>116</ele>
        <time>2020-12-05T16:16:02.095Z</time>
      </trkpt>
      <trkpt lat="48.79491" lon="2.23533">
        <ele>116</ele>
        <time>2020-12-05T16:16:03.095Z</time>
      </trkpt>
      <trkpt lat="48.79491" lon="2.23531">
        <ele>115</ele>
        <time>2020-12-05T16:16:04.095Z</time>
      </trkpt>
      <trkpt lat="48.79492" lon="2.23529">
        <ele>115</ele>
        <time>2020-12-05T16:16:05.095Z</time>
      </trkpt>
      <trkpt lat="48.79492" lon="2.23527">
        <ele>115</ele>
        <time>2020-12-05T16:16:06.095Z</time>
      </trkpt>
      <trkpt lat="48.79492" lon="2.23525">
        <ele>115</ele>
        <time>2020-12-05T16:16:07.095Z</time>
      </trkpt>
      <trkpt lat="48.79493" lon="2.23524">
        <ele>115</ele>
        <time>2020-12-05T16:16:08.095Z</time>
      </trkpt>
      <trkpt lat="48.79493" lon="2.23523">
        <ele>114</ele>
        <time>2020-12-05T16:16:09.095Z</time>
      </trkpt>
      <trkpt lat="48.79494" lon="2.23521">
        <ele>114</ele>
        <time>2020-12-05T16:16:10.095Z</time>
      </trkpt>
      <trkpt lat="48.79494" lon="2.23519">
        <ele>114</ele>
        <time>2020-12-05T16:16:11.095Z</time>
      </trkpt>
      <trkpt lat="48.79494" lon="2.23518">
        <ele>114</ele>
        <time>2020-12-05T16:16:12.095Z</time>
      </trkpt>
      <trkpt lat="48.79494" lon="2.23516">
        <ele>113</ele>
        <time>2020-12-05T16:16:13.095Z</time>
      </trkpt>
      <trkpt lat="48.79495" lon="2.23514">
        <ele>113</ele>
        <time>2020-12-05T16:16:14.095Z</time>
      </trkpt>
      <trkpt lat="48.79495" lon="2.23513">
        <ele>113</ele>
        <time>2020-12-05T16:16:15.095Z</time>
      </trkpt>
      <trkpt lat="48.79496" lon="2.23511">
        <ele>113</ele>
        <time>2020-12-05T16:16:16.094Z</time>
      </trkpt>
      <trkpt lat="48.79496" lon="2.23508">
        <ele>113</ele>
        <time>2020-12-05T16:16:17.095Z</time>
      </trkpt>
      <trkpt lat="48.79496" lon="2.23506">
        <ele>113</ele>
        <time>2020-12-05T16:16:18.095Z</time>
      </trkpt>
      <trkpt lat="48.79497" lon="2.23503">
        <ele>113</ele>
        <time>2020-12-05T16:16:19.095Z</time>
      </trkpt>
      <trkpt lat="48.79497" lon="2.235">
        <ele>113</ele>
        <time>2020-12-05T16:16:20.095Z</time>
      </trkpt>
      <trkpt lat="48.79498" lon="2.23498">
        <ele>113</ele>
        <time>2020-12-05T16:16:21.095Z</time>
      </trkpt>
      <trkpt lat="48.79498" lon="2.23495">
        <ele>113</ele>
        <time>2020-12-05T16:16:22.095Z</time>
      </trkpt>
      <trkpt lat="48.79499" lon="2.23493">
        <ele>112</ele>
        <time>2020-12-05T16:16:23.095Z</time>
      </trkpt>
      <trkpt lat="48.79499" lon="2.23491">
        <ele>112</ele>
        <time>2020-12-05T16:16:24.095Z</time>
      </trkpt>
      <trkpt lat="48.79498" lon="2.23489">
        <ele>111</ele>
        <time>2020-12-05T16:16:25.095Z</time>
      </trkpt>
      <trkpt lat="48.79498" lon="2.23486">
        <ele>111</ele>
        <time>2020-12-05T16:16:26.095Z</time>
      </trkpt>
      <trkpt lat="48.79498" lon="2.23484">
        <ele>111</ele>
        <time>2020-12-05T16:16:27.095Z</time>
      </trkpt>
      <trkpt lat="48.79498" lon="2.23482">
        <ele>111</ele>
        <time>2020-12-05T16:16:28.095Z</time>
      </trkpt>
      <trkpt lat="48.79499" lon="2.23479">
        <ele>111</ele>
        <time>2020-12-05T16:16:29.095Z</time>
      </trkpt>
      <trkpt lat="48.79499" lon="2.23477">
        <ele>111</ele>
        <time>2020-12-05T16:16:30.095Z</time>
      </trkpt>
      <trkpt lat="48.79499" lon="2.23475">
        <ele>112</ele>
        <time>2020-12-05T16:16:31.094Z</time>
      </trkpt>
      <trkpt lat="48.79499" lon="2.23473">
        <ele>112</ele>
        <time>2020-12-05T16:16:32.094Z</time>
      </trkpt>
      <trkpt lat="48.79499" lon="2.23472">
        <ele>112</ele>
        <time>2020-12-05T16:16:33.095Z</time>
      </trkpt>
      <trkpt lat="48.795" lon="2.2347">
        <ele>112</ele>
        <time>2020-12-05T16:16:34.095Z</time>
      </trkpt>
      <trkpt lat="48.795" lon="2.23469">
        <ele>112</ele>
        <time>2020-12-05T16:16:35.095Z</time>
      </trkpt>
      <trkpt lat="48.795" lon="2.23466">
        <ele>112</ele>
        <time>2020-12-05T16:16:36.094Z</time>
      </trkpt>
      <trkpt lat="48.79501" lon="2.23464">
        <ele>112</ele>
        <time>2020-12-05T16:16:37.095Z</time>
      </trkpt>
      <trkpt lat="48.79501" lon="2.23462">
        <ele>113</ele>
        <time>2020-12-05T16:16:38.095Z</time>
      </trkpt>
      <trkpt lat="48.79501" lon="2.23459">
        <ele>113</ele>
        <time>2020-12-05T16:16:39.094Z</time>
      </trkpt>
      <trkpt lat="48.79502" lon="2.23457">
        <ele>114</ele>
        <time>2020-12-05T16:16:40.095Z</time>
      </trkpt>
      <trkpt lat="48.79502" lon="2.23455">
        <ele>114</ele>
        <time>2020-12-05T16:16:41.095Z</time>
      </trkpt>
      <trkpt lat="48.79502" lon="2.23453">
        <ele>114</ele>
        <time>2020-12-05T16:16:42.095Z</time>
      </trkpt>
      <trkpt lat="48.79503" lon="2.23451">
        <ele>114</ele>
        <time>2020-12-05T16:16:43.095Z</time>
      </trkpt>
      <trkpt lat="48.79503" lon="2.23449">
        <ele>114</ele>
        <time>2020-12-05T16:16:44.095Z</time>
      </trkpt>
      <trkpt lat="48.79503" lon="2.23447">
        <ele>114</ele>
        <time>2020-12-05T16:16:45.095Z</time>
      </trkpt>
      <trkpt lat="48.79503" lon="2.23446">
        <ele>114</ele>
        <time>2020-12-05T16:16:46.095Z</time>
      </trkpt>
      <trkpt lat="48.79502" lon="2.23444">
        <ele>114</ele>
        <time>2020-12-05T16:16:47.095Z</time>
      </trkpt>
      <trkpt lat="48.79501" lon="2.23443">
        <ele>114</ele>
        <time>2020-12-05T16:16:48.095Z</time>
      </trkpt>
      <trkpt lat="48.79501" lon="2.23442">
        <ele>114</ele>
        <time>2020-12-05T16:16:49.094Z</time>
      </trkpt>
      <trkpt lat="48.79501" lon="2.23441">
        <ele>114</ele>
        <time>2020-12-05T16:16:50.095Z</time>
      </trkpt>
      <trkpt lat="48.79501" lon="2.23439">
        <ele>114</ele>
        <time>2020-12-05T16:16:51.095Z</time>
      </trkpt>
      <trkpt lat="48.79501" lon="2.23437">
        <ele>114</ele>
        <time>2020-12-05T16:16:52.095Z</time>
      </trkpt>
      <trkpt lat="48.79501" lon="2.23433">
        <ele>114</ele>
        <time>2020-12-05T16:16:53.094Z</time>
      </trkpt>
      <trkpt lat="48.79502" lon="2.2343">
        <ele>114</ele>
        <time>2020-12-05T16:16:54.095Z</time>
      </trkpt>
      <trkpt lat="48.79503" lon="2.23429">
        <ele>115</ele>
        <time>2020-12-05T16:16:55.095Z</time>
      </trkpt>
      <trkpt lat="48.79504" lon="2.23427">
        <ele>115</ele>
        <time>2020-12-05T16:16:56.094Z</time>
      </trkpt>
      <trkpt lat="48.79504" lon="2.23426">
        <ele>115</ele>
        <time>2020-12-05T16:16:57.094Z</time>
      </trkpt>
      <trkpt lat="48.79505" lon="2.23424">
        <ele>115</ele>
        <time>2020-12-05T16:16:58.095Z</time>
      </trkpt>
      <trkpt lat="48.79505" lon="2.23423">
        <ele>115</ele>
        <time>2020-12-05T16:16:59.095Z</time>
      </trkpt>
      <trkpt lat="48.79506" lon="2.23421">
        <ele>114</ele>
        <time>2020-12-05T16:17:00.095Z</time>
      </trkpt>
      <trkpt lat="48.79507" lon="2.23419">
        <ele>114</ele>
        <time>2020-12-05T16:17:01.095Z</time>
      </trkpt>
      <trkpt lat="48.79507" lon="2.23417">
        <ele>113</ele>
        <time>2020-12-05T16:17:02.095Z</time>
      </trkpt>
      <trkpt lat="48.79507" lon="2.23415">
        <ele>112</ele>
        <time>2020-12-05T16:17:03.095Z</time>
      </trkpt>
      <trkpt lat="48.79507" lon="2.23414">
        <ele>112</ele>
        <time>2020-12-05T16:17:04.095Z</time>
      </trkpt>
      <trkpt lat="48.79508" lon="2.23412">
        <ele>111</ele>
        <time>2020-12-05T16:17:05.095Z</time>
      </trkpt>
      <trkpt lat="48.79508" lon="2.23411">
        <ele>111</ele>
        <time>2020-12-05T16:17:06.095Z</time>
      </trkpt>
      <trkpt lat="48.79508" lon="2.2341">
        <ele>110</ele>
        <time>2020-12-05T16:17:07.095Z</time>
      </trkpt>
      <trkpt lat="48.79508" lon="2.23408">
        <ele>109</ele>
        <time>2020-12-05T16:17:08.095Z</time>
      </trkpt>
      <trkpt lat="48.79508" lon="2.23407">
        <ele>109</ele>
        <time>2020-12-05T16:17:09.095Z</time>
      </trkpt>
      <trkpt lat="48.79508" lon="2.23405">
        <ele>108</ele>
        <time>2020-12-05T16:17:10.095Z</time>
      </trkpt>
      <trkpt lat="48.79509" lon="2.23402">
        <ele>108</ele>
        <time>2020-12-05T16:17:11.095Z</time>
      </trkpt>
      <trkpt lat="48.79509" lon="2.234">
        <ele>108</ele>
        <time>2020-12-05T16:17:12.095Z</time>
      </trkpt>
      <trkpt lat="48.7951" lon="2.23398">
        <ele>107</ele>
        <time>2020-12-05T16:17:13.095Z</time>
      </trkpt>
      <trkpt lat="48.79511" lon="2.23396">
        <ele>106</ele>
        <time>2020-12-05T16:17:14.095Z</time>
      </trkpt>
      <trkpt lat="48.79511" lon="2.23394">
        <ele>105</ele>
        <time>2020-12-05T16:17:15.095Z</time>
      </trkpt>
      <trkpt lat="48.79511" lon="2.23392">
        <ele>105</ele>
        <time>2020-12-05T16:17:16.095Z</time>
      </trkpt>
      <trkpt lat="48.79511" lon="2.2339">
        <ele>105</ele>
        <time>2020-12-05T16:17:17.095Z</time>
      </trkpt>
      <trkpt lat="48.79512" lon="2.23388">
        <ele>104</ele>
        <time>2020-12-05T16:17:18.094Z</time>
      </trkpt>
      <trkpt lat="48.79512" lon="2.23386">
        <ele>104</ele>
        <time>2020-12-05T16:17:19.094Z</time>
      </trkpt>
      <trkpt lat="48.79512" lon="2.23384">
        <ele>103</ele>
        <time>2020-12-05T16:17:20.095Z</time>
      </trkpt>
      <trkpt lat="48.79513" lon="2.23383">
        <ele>103</ele>
        <time>2020-12-05T16:17:21.095Z</time>
      </trkpt>
      <trkpt lat="48.79513" lon="2.23382">
        <ele>102</ele>
        <time>2020-12-05T16:17:22.095Z</time>
      </trkpt>
      <trkpt lat="48.79513" lon="2.2338">
        <ele>102</ele>
        <time>2020-12-05T16:17:23.095Z</time>
      </trkpt>
      <trkpt lat="48.79514" lon="2.23379">
        <ele>102</ele>
        <time>2020-12-05T16:17:24.095Z</time>
      </trkpt>
      <trkpt lat="48.79514" lon="2.23377">
        <ele>102</ele>
        <time>2020-12-05T16:17:25.095Z</time>
      </trkpt>
      <trkpt lat="48.79513" lon="2.23376">
        <ele>102</ele>
        <time>2020-12-05T16:17:26.095Z</time>
      </trkpt>
      <trkpt lat="48.79514" lon="2.23374">
        <ele>102</ele>
        <time>2020-12-05T16:17:27.094Z</time>
      </trkpt>
      <trkpt lat="48.79514" lon="2.23373">
        <ele>102</ele>
        <time>2020-12-05T16:17:28.095Z</time>
      </trkpt>
      <trkpt lat="48.79515" lon="2.23372">
        <ele>102</ele>
        <time>2020-12-05T16:17:29.095Z</time>
      </trkpt>
      <trkpt lat="48.79516" lon="2.2337">
        <ele>101</ele>
        <time>2020-12-05T16:17:30.095Z</time>
      </trkpt>
      <trkpt lat="48.79516" lon="2.23368">
        <ele>101</ele>
        <time>2020-12-05T16:17:31.095Z</time>
      </trkpt>
      <trkpt lat="48.79516" lon="2.23366">
        <ele>101</ele>
        <time>2020-12-05T16:17:32.095Z</time>
      </trkpt>
      <trkpt lat="48.79515" lon="2.23364">
        <ele>101</ele>
        <time>2020-12-05T16:17:33.095Z</time>
      </trkpt>
      <trkpt lat="48.79515" lon="2.23361">
        <ele>101</ele>
        <time>2020-12-05T16:17:34.095Z</time>
      </trkpt>
      <trkpt lat="48.79515" lon="2.23359">
        <ele>101</ele>
        <time>2020-12-05T16:17:35.095Z</time>
      </trkpt>
      <trkpt lat="48.79515" lon="2.23357">
        <ele>100</ele>
        <time>2020-12-05T16:17:36.095Z</time>
      </trkpt>
      <trkpt lat="48.79516" lon="2.23355">
        <ele>100</ele>
        <time>2020-12-05T16:17:37.095Z</time>
      </trkpt>
      <trkpt lat="48.79517" lon="2.23353">
        <ele>100</ele>
        <time>2020-12-05T16:17:38.095Z</time>
      </trkpt>
      <trkpt lat="48.79517" lon="2.23351">
        <ele>100</ele>
        <time>2020-12-05T16:17:39.095Z</time>
      </trkpt>
      <trkpt lat="48.79517" lon="2.23349">
        <ele>100</ele>
        <time>2020-12-05T16:17:40.095Z</time>
      </trkpt>
      <trkpt lat="48.79518" lon="2.23348">
        <ele>100</ele>
        <time>2020-12-05T16:17:41.094Z</time>
      </trkpt>
      <trkpt lat="48.79518" lon="2.23346">
        <ele>100</ele>
        <time>2020-12-05T16:17:42.094Z</time>
      </trkpt>
      <trkpt lat="48.79519" lon="2.23345">
        <ele>101</ele>
        <time>2020-12-05T16:17:43.095Z</time>
      </trkpt>
      <trkpt lat="48.79519" lon="2.23343">
        <ele>101</ele>
        <time>2020-12-05T16:17:44.095Z</time>
      </trkpt>
      <trkpt lat="48.7952" lon="2.23342">
        <ele>102</ele>
        <time>2020-12-05T16:17:45.095Z</time>
      </trkpt>
      <trkpt lat="48.79521" lon="2.2334">
        <ele>102</ele>
        <time>2020-12-05T16:17:46.095Z</time>
      </trkpt>
      <trkpt lat="48.79521" lon="2.23339">
        <ele>102</ele>
        <time>2020-12-05T16:17:47.095Z</time>
      </trkpt>
      <trkpt lat="48.79522" lon="2.23338">
        <ele>102</ele>
        <time>2020-12-05T16:17:48.094Z</time>
      </trkpt>
      <trkpt lat="48.79522" lon="2.23337">
        <ele>102</ele>
        <time>2020-12-05T16:17:49.095Z</time>
      </trkpt>
      <trkpt lat="48.79522" lon="2.23336">
        <ele>101</ele>
        <time>2020-12-05T16:17:50.094Z</time>
      </trkpt>
      <trkpt lat="48.79523" lon="2.23335">
        <ele>101</ele>
        <time>2020-12-05T16:17:51.094Z</time>
      </trkpt>
      <trkpt lat="48.79523" lon="2.23333">
        <ele>100</ele>
        <time>2020-12-05T16:17:52.095Z</time>
      </trkpt>
      <trkpt lat="48.79524" lon="2.23331">
        <ele>100</ele>
        <time>2020-12-05T16:17:53.095Z</time>
      </trkpt>
      <trkpt lat="48.79524" lon="2.23329">
        <ele>100</ele>
        <time>2020-12-05T16:17:54.095Z</time>
      </trkpt>
      <trkpt lat="48.79524" lon="2.23327">
        <ele>100</ele>
        <time>2020-12-05T16:17:55.094Z</time>
      </trkpt>
      <trkpt lat="48.79525" lon="2.23325">
        <ele>100</ele>
        <time>2020-12-05T16:17:56.094Z</time>
      </trkpt>
      <trkpt lat="48.79525" lon="2.23323">
        <ele>100</ele>
        <time>2020-12-05T16:17:57.094Z</time>
      </trkpt>
      <trkpt lat="48.79525" lon="2.23321">
        <ele>100</ele>
        <time>2020-12-05T16:17:58.094Z</time>
      </trkpt>
      <trkpt lat="48.79524" lon="2.23318">
        <ele>100</ele>
        <time>2020-12-05T16:17:59.095Z</time>
      </trkpt>
      <trkpt lat="48.79524" lon="2.23315">
        <ele>101</ele>
        <time>2020-12-05T16:18:00.095Z</time>
      </trkpt>
      <trkpt lat="48.79524" lon="2.23313">
        <ele>101</ele>
        <time>2020-12-05T16:18:01.094Z</time>
      </trkpt>
      <trkpt lat="48.79524" lon="2.23312">
        <ele>102</ele>
        <time>2020-12-05T16:18:02.094Z</time>
      </trkpt>
      <trkpt lat="48.79525" lon="2.23311">
        <ele>103</ele>
        <time>2020-12-05T16:18:03.094Z</time>
      </trkpt>
      <trkpt lat="48.79525" lon="2.2331">
        <ele>103</ele>
        <time>2020-12-05T16:18:04.094Z</time>
      </trkpt>
      <trkpt lat="48.79526" lon="2.23308">
        <ele>103</ele>
        <time>2020-12-05T16:18:05.095Z</time>
      </trkpt>
      <trkpt lat="48.79526" lon="2.23307">
        <ele>103</ele>
        <time>2020-12-05T16:18:06.095Z</time>
      </trkpt>
      <trkpt lat="48.79525" lon="2.23305">
        <ele>103</ele>
        <time>2020-12-05T16:18:07.095Z</time>
      </trkpt>
      <trkpt lat="48.79526" lon="2.23303">
        <ele>103</ele>
        <time>2020-12-05T16:18:08.095Z</time>
      </trkpt>
      <trkpt lat="48.79526" lon="2.23301">
        <ele>102</ele>
        <time>2020-12-05T16:18:09.095Z</time>
      </trkpt>
      <trkpt lat="48.79527" lon="2.23299">
        <ele>102</ele>
        <time>2020-12-05T16:18:10.095Z</time>
      </trkpt>
      <trkpt lat="48.79528" lon="2.23297">
        <ele>101</ele>
        <time>2020-12-05T16:18:11.095Z</time>
      </trkpt>
      <trkpt lat="48.79528" lon="2.23295">
        <ele>101</ele>
        <time>2020-12-05T16:18:12.095Z</time>
      </trkpt>
      <trkpt lat="48.79528" lon="2.23293">
        <ele>100</ele>
        <time>2020-12-05T16:18:13.095Z</time>
      </trkpt>
      <trkpt lat="48.79528" lon="2.2329">
        <ele>100</ele>
        <time>2020-12-05T16:18:14.095Z</time>
      </trkpt>
      <trkpt lat="48.79527" lon="2.23287">
        <ele>100</ele>
        <time>2020-12-05T16:18:15.094Z</time>
      </trkpt>
      <trkpt lat="48.79527" lon="2.23284">
        <ele>99</ele>
        <time>2020-12-05T16:18:16.095Z</time>
      </trkpt>
      <trkpt lat="48.79528" lon="2.23282">
        <ele>98</ele>
        <time>2020-12-05T16:18:17.095Z</time>
      </trkpt>
      <trkpt lat="48.79528" lon="2.2328">
        <ele>98</ele>
        <time>2020-12-05T16:18:18.094Z</time>
      </trkpt>
      <trkpt lat="48.79528" lon="2.23278">
        <ele>97</ele>
        <time>2020-12-05T16:18:19.095Z</time>
      </trkpt>
      <trkpt lat="48.79528" lon="2.23276">
        <ele>97</ele>
        <time>2020-12-05T16:18:20.095Z</time>
      </trkpt>
      <trkpt lat="48.79529" lon="2.23275">
        <ele>96</ele>
        <time>2020-12-05T16:18:21.095Z</time>
      </trkpt>
      <trkpt lat="48.79529" lon="2.23273">
        <ele>96</ele>
        <time>2020-12-05T16:18:22.095Z</time>
      </trkpt>
      <trkpt lat="48.7953" lon="2.23271">
        <ele>96</ele>
        <time>2020-12-05T16:18:23.094Z</time>
      </trkpt>
      <trkpt lat="48.7953" lon="2.23269">
        <ele>96</ele>
        <time>2020-12-05T16:18:24.094Z</time>
      </trkpt>
      <trkpt lat="48.79531" lon="2.23268">
        <ele>96</ele>
        <time>2020-12-05T16:18:25.095Z</time>
      </trkpt>
      <trkpt lat="48.79531" lon="2.23266">
        <ele>96</ele>
        <time>2020-12-05T16:18:26.095Z</time>
      </trkpt>
      <trkpt lat="48.79531" lon="2.23264">
        <ele>96</ele>
        <time>2020-12-05T16:18:27.095Z</time>
      </trkpt>
      <trkpt lat="48.79531" lon="2.23262">
        <ele>96</ele>
        <time>2020-12-05T16:18:28.095Z</time>
      </trkpt>
      <trkpt lat="48.79531" lon="2.23259">
        <ele>96</ele>
        <time>2020-12-05T16:18:29.095Z</time>
      </trkpt>
      <trkpt lat="48.79531" lon="2.23258">
        <ele>95</ele>
        <time>2020-12-05T16:18:30.095Z</time>
      </trkpt>
      <trkpt lat="48.7953" lon="2.23256">
        <ele>95</ele>
        <time>2020-12-05T16:18:31.095Z</time>
      </trkpt>
      <trkpt lat="48.7953" lon="2.23254">
        <ele>96</ele>
        <time>2020-12-05T16:18:32.095Z</time>
      </trkpt>
      <trkpt lat="48.79529" lon="2.23252">
        <ele>96</ele>
        <time>2020-12-05T16:18:33.095Z</time>
      </trkpt>
      <trkpt lat="48.79528" lon="2.2325">
        <ele>97</ele>
        <time>2020-12-05T16:18:34.095Z</time>
      </trkpt>
      <trkpt lat="48.79529" lon="2.23248">
        <ele>98</ele>
        <time>2020-12-05T16:18:35.094Z</time>
      </trkpt>
      <trkpt lat="48.79529" lon="2.23246">
        <ele>99</ele>
        <time>2020-12-05T16:18:36.095Z</time>
      </trkpt>
      <trkpt lat="48.7953" lon="2.23244">
        <ele>99</ele>
        <time>2020-12-05T16:18:37.095Z</time>
      </trkpt>
      <trkpt lat="48.7953" lon="2.23242">
        <ele>100</ele>
        <time>2020-12-05T16:18:38.095Z</time>
      </trkpt>
      <trkpt lat="48.79531" lon="2.2324">
        <ele>101</ele>
        <time>2020-12-05T16:18:39.094Z</time>
      </trkpt>
      <trkpt lat="48.79532" lon="2.23239">
        <ele>101</ele>
        <time>2020-12-05T16:18:40.094Z</time>
      </trkpt>
      <trkpt lat="48.79533" lon="2.23238">
        <ele>102</ele>
        <time>2020-12-05T16:18:41.094Z</time>
      </trkpt>
      <trkpt lat="48.79533" lon="2.23236">
        <ele>103</ele>
        <time>2020-12-05T16:18:42.095Z</time>
      </trkpt>
      <trkpt lat="48.79534" lon="2.23235">
        <ele>104</ele>
        <time>2020-12-05T16:18:43.095Z</time>
      </trkpt>
      <trkpt lat="48.79535" lon="2.23233">
        <ele>105</ele>
        <time>2020-12-05T16:18:44.095Z</time>
      </trkpt>
      <trkpt lat="48.79536" lon="2.23231">
        <ele>106</ele>
        <time>2020-12-05T16:18:45.095Z</time>
      </trkpt>
      <trkpt lat="48.79537" lon="2.23229">
        <ele>107</ele>
        <time>2020-12-05T16:18:46.095Z</time>
      </trkpt>
      <trkpt lat="48.79538" lon="2.23227">
        <ele>108</ele>
        <time>2020-12-05T16:18:47.095Z</time>
      </trkpt>
      <trkpt lat="48.79538" lon="2.23224">
        <ele>109</ele>
        <time>2020-12-05T16:18:48.095Z</time>
      </trkpt>
      <trkpt lat="48.79539" lon="2.23222">
        <ele>110</ele>
        <time>2020-12-05T16:18:49.095Z</time>
      </trkpt>
      <trkpt lat="48.79539" lon="2.23219">
        <ele>111</ele>
        <time>2020-12-05T16:18:50.095Z</time>
      </trkpt>
      <trkpt lat="48.79539" lon="2.23218">
        <ele>112</ele>
        <time>2020-12-05T16:18:51.094Z</time>
      </trkpt>
      <trkpt lat="48.7954" lon="2.23216">
        <ele>113</ele>
        <time>2020-12-05T16:18:52.094Z</time>
      </trkpt>
      <trkpt lat="48.7954" lon="2.23215">
        <ele>113</ele>
        <time>2020-12-05T16:18:53.095Z</time>
      </trkpt>
      <trkpt lat="48.7954" lon="2.23213">
        <ele>113</ele>
        <time>2020-12-05T16:18:54.095Z</time>
      </trkpt>
      <trkpt lat="48.7954" lon="2.23211">
        <ele>114</ele>
        <time>2020-12-05T16:18:55.095Z</time>
      </trkpt>
      <trkpt lat="48.7954" lon="2.2321">
        <ele>114</ele>
        <time>2020-12-05T16:18:56.095Z</time>
      </trkpt>
      <trkpt lat="48.79541" lon="2.23209">
        <ele>114</ele>
        <time>2020-12-05T16:18:57.095Z</time>
      </trkpt>
      <trkpt lat="48.79542" lon="2.23206">
        <ele>115</ele>
        <time>2020-12-05T16:18:58.095Z</time>
      </trkpt>
      <trkpt lat="48.79542" lon="2.23204">
        <ele>115</ele>
        <time>2020-12-05T16:18:59.095Z</time>
      </trkpt>
      <trkpt lat="48.79543" lon="2.23201">
        <ele>115</ele>
        <time>2020-12-05T16:19:00.095Z</time>
      </trkpt>
      <trkpt lat="48.79544" lon="2.23199">
        <ele>116</ele>
        <time>2020-12-05T16:19:01.095Z</time>
      </trkpt>
      <trkpt lat="48.79545" lon="2.23197">
        <ele>116</ele>
        <time>2020-12-05T16:19:02.095Z</time>
      </trkpt>
      <trkpt lat="48.79545" lon="2.23196">
        <ele>116</ele>
        <time>2020-12-05T16:19:03.095Z</time>
      </trkpt>
      <trkpt lat="48.79546" lon="2.23194">
        <ele>117</ele>
        <time>2020-12-05T16:19:04.095Z</time>
      </trkpt>
      <trkpt lat="48.79547" lon="2.23193">
        <ele>117</ele>
        <time>2020-12-05T16:19:05.094Z</time>
      </trkpt>
      <trkpt lat="48.79548" lon="2.23191">
        <ele>117</ele>
        <time>2020-12-05T16:19:06.094Z</time>
      </trkpt>
      <trkpt lat="48.79548" lon="2.2319">
        <ele>117</ele>
        <time>2020-12-05T16:19:07.095Z</time>
      </trkpt>
      <trkpt lat="48.79549" lon="2.23188">
        <ele>117</ele>
        <time>2020-12-05T16:19:08.095Z</time>
      </trkpt>
      <trkpt lat="48.79549" lon="2.23186">
        <ele>117</ele>
        <time>2020-12-05T16:19:09.095Z</time>
      </trkpt>
      <trkpt lat="48.7955" lon="2.23184">
        <ele>117</ele>
        <time>2020-12-05T16:19:10.095Z</time>
      </trkpt>
      <trkpt lat="48.7955" lon="2.23182">
        <ele>118</ele>
        <time>2020-12-05T16:19:11.095Z</time>
      </trkpt>
      <trkpt lat="48.79551" lon="2.2318">
        <ele>118</ele>
        <time>2020-12-05T16:19:12.094Z</time>
      </trkpt>
      <trkpt lat="48.79551" lon="2.23178">
        <ele>118</ele>
        <time>2020-12-05T16:19:13.095Z</time>
      </trkpt>
      <trkpt lat="48.79552" lon="2.23176">
        <ele>118</ele>
        <time>2020-12-05T16:19:14.095Z</time>
      </trkpt>
      <trkpt lat="48.79552" lon="2.23173">
        <ele>118</ele>
        <time>2020-12-05T16:19:15.095Z</time>
      </trkpt>
      <trkpt lat="48.79553" lon="2.23171">
        <ele>118</ele>
        <time>2020-12-05T16:19:16.095Z</time>
      </trkpt>
      <trkpt lat="48.79553" lon="2.23168">
        <ele>118</ele>
        <time>2020-12-05T16:19:17.094Z</time>
      </trkpt>
      <trkpt lat="48.79553" lon="2.23166">
        <ele>118</ele>
        <time>2020-12-05T16:19:18.095Z</time>
      </trkpt>
      <trkpt lat="48.79553" lon="2.23164">
        <ele>119</ele>
        <time>2020-12-05T16:19:19.095Z</time>
      </trkpt>
      <trkpt lat="48.79554" lon="2.23162">
        <ele>119</ele>
        <time>2020-12-05T16:19:20.095Z</time>
      </trkpt>
      <trkpt lat="48.79555" lon="2.2316">
        <ele>119</ele>
        <time>2020-12-05T16:19:21.094Z</time>
      </trkpt>
      <trkpt lat="48.79556" lon="2.23158">
        <ele>119</ele>
        <time>2020-12-05T16:19:22.094Z</time>
      </trkpt>
      <trkpt lat="48.79556" lon="2.23157">
        <ele>120</ele>
        <time>2020-12-05T16:19:23.094Z</time>
      </trkpt>
      <trkpt lat="48.79556" lon="2.23156">
        <ele>120</ele>
        <time>2020-12-05T16:19:24.095Z</time>
      </trkpt>
      <trkpt lat="48.79556" lon="2.23155">
        <ele>121</ele>
        <time>2020-12-05T16:19:25.095Z</time>
      </trkpt>
      <trkpt lat="48.79556" lon="2.23153">
        <ele>121</ele>
        <time>2020-12-05T16:19:26.095Z</time>
      </trkpt>
      <trkpt lat="48.79556" lon="2.2315">
        <ele>121</ele>
        <time>2020-12-05T16:19:27.095Z</time>
      </trkpt>
      <trkpt lat="48.79556" lon="2.23148">
        <ele>121</ele>
        <time>2020-12-05T16:19:28.095Z</time>
      </trkpt>
      <trkpt lat="48.79557" lon="2.23146">
        <ele>121</ele>
        <time>2020-12-05T16:19:29.095Z</time>
      </trkpt>
      <trkpt lat="48.79558" lon="2.23144">
        <ele>121</ele>
        <time>2020-12-05T16:19:30.095Z</time>
      </trkpt>
      <trkpt lat="48.79559" lon="2.23142">
        <ele>121</ele>
        <time>2020-12-05T16:19:31.094Z</time>
      </trkpt>
      <trkpt lat="48.79559" lon="2.23141">
        <ele>122</ele>
        <time>2020-12-05T16:19:32.094Z</time>
      </trkpt>
      <trkpt lat="48.79559" lon="2.2314">
        <ele>122</ele>
        <time>2020-12-05T16:19:33.094Z</time>
      </trkpt>
      <trkpt lat="48.7956" lon="2.23138">
        <ele>123</ele>
        <time>2020-12-05T16:19:34.095Z</time>
      </trkpt>
      <trkpt lat="48.7956" lon="2.23137">
        <ele>123</ele>
        <time>2020-12-05T16:19:35.095Z</time>
      </trkpt>
      <trkpt lat="48.79561" lon="2.23136">
        <ele>123</ele>
        <time>2020-12-05T16:19:36.095Z</time>
      </trkpt>
      <trkpt lat="48.79561" lon="2.23134">
        <ele>124</ele>
        <time>2020-12-05T16:19:37.095Z</time>
      </trkpt>
      <trkpt lat="48.79561" lon="2.23132">
        <ele>124</ele>
        <time>2020-12-05T16:19:38.094Z</time>
      </trkpt>
      <trkpt lat="48.79561" lon="2.2313">
        <ele>124</ele>
        <time>2020-12-05T16:19:39.094Z</time>
      </trkpt>
      <trkpt lat="48.79562" lon="2.2313">
        <ele>124</ele>
        <time>2020-12-05T16:19:40.094Z</time>
      </trkpt>
      <trkpt lat="48.79562" lon="2.23129">
        <ele>124</ele>
        <time>2020-12-05T16:19:41.094Z</time>
      </trkpt>
      <trkpt lat="48.79562" lon="2.23129">
        <ele>124</ele>
        <time>2020-12-05T16:19:42.095Z</time>
      </trkpt>
      <trkpt lat="48.79562" lon="2.23129">
        <ele>124</ele>
        <time>2020-12-05T16:19:43.095Z</time>
      </trkpt>
      <trkpt lat="48.79562" lon="2.23128">
        <ele>124</ele>
        <time>2020-12-05T16:19:44.094Z</time>
      </trkpt>
      <trkpt lat="48.79562" lon="2.23127">
        <ele>124</ele>
        <time>2020-12-05T16:19:45.094Z</time>
      </trkpt>
      <trkpt lat="48.79563" lon="2.23126">
        <ele>123</ele>
        <time>2020-12-05T16:19:46.094Z</time>
      </trkpt>
      <trkpt lat="48.79562" lon="2.23125">
        <ele>123</ele>
        <time>2020-12-05T16:19:47.095Z</time>
      </trkpt>
      <trkpt lat="48.79562" lon="2.23124">
        <ele>122</ele>
        <time>2020-12-05T16:19:48.095Z</time>
      </trkpt>
      <trkpt lat="48.79563" lon="2.23124">
        <ele>122</ele>
        <time>2020-12-05T16:19:49.094Z</time>
      </trkpt>
      <trkpt lat="48.79562" lon="2.23123">
        <ele>122</ele>
        <time>2020-12-05T16:19:50.094Z</time>
      </trkpt>
      <trkpt lat="48.79563" lon="2.23122">
        <ele>123</ele>
        <time>2020-12-05T16:19:51.094Z</time>
      </trkpt>
      <trkpt lat="48.79564" lon="2.23121">
        <ele>123</ele>
        <time>2020-12-05T16:19:52.095Z</time>
      </trkpt>
      <trkpt lat="48.79565" lon="2.23121">
        <ele>124</ele>
        <time>2020-12-05T16:19:53.094Z</time>
      </trkpt>
      <trkpt lat="48.79565" lon="2.23119">
        <ele>124</ele>
        <time>2020-12-05T16:19:54.094Z</time>
      </trkpt>
      <trkpt lat="48.79566" lon="2.23117">
        <ele>124</ele>
        <time>2020-12-05T16:19:55.094Z</time>
      </trkpt>
      <trkpt lat="48.79566" lon="2.23116">
        <ele>124</ele>
        <time>2020-12-05T16:19:56.095Z</time>
      </trkpt>
      <trkpt lat="48.79566" lon="2.23114">
        <ele>124</ele>
        <time>2020-12-05T16:19:57.095Z</time>
      </trkpt>
      <trkpt lat="48.79566" lon="2.23112">
        <ele>124</ele>
        <time>2020-12-05T16:19:58.095Z</time>
      </trkpt>
      <trkpt lat="48.79566" lon="2.2311">
        <ele>125</ele>
        <time>2020-12-05T16:19:59.094Z</time>
      </trkpt>
      <trkpt lat="48.79566" lon="2.23109">
        <ele>126</ele>
        <time>2020-12-05T16:20:00.094Z</time>
      </trkpt>
      <trkpt lat="48.79567" lon="2.23106">
        <ele>126</ele>
        <time>2020-12-05T16:20:01.094Z</time>
      </trkpt>
      <trkpt lat="48.79567" lon="2.23104">
        <ele>127</ele>
        <time>2020-12-05T16:20:02.095Z</time>
      </trkpt>
      <trkpt lat="48.79568" lon="2.23101">
        <ele>128</ele>
        <time>2020-12-05T16:20:03.094Z</time>
      </trkpt>
      <trkpt lat="48.79568" lon="2.23099">
        <ele>129</ele>
        <time>2020-12-05T16:20:04.095Z</time>
      </trkpt>
      <trkpt lat="48.79569" lon="2.23097">
        <ele>129</ele>
        <time>2020-12-05T16:20:05.094Z</time>
      </trkpt>
      <trkpt lat="48.79569" lon="2.23095">
        <ele>130</ele>
        <time>2020-12-05T16:20:06.094Z</time>
      </trkpt>
      <trkpt lat="48.79569" lon="2.23093">
        <ele>130</ele>
        <time>2020-12-05T16:20:07.094Z</time>
      </trkpt>
      <trkpt lat="48.7957" lon="2.23091">
        <ele>130</ele>
        <time>2020-12-05T16:20:08.095Z</time>
      </trkpt>
      <trkpt lat="48.7957" lon="2.23089">
        <ele>130</ele>
        <time>2020-12-05T16:20:09.095Z</time>
      </trkpt>
      <trkpt lat="48.79571" lon="2.23087">
        <ele>131</ele>
        <time>2020-12-05T16:20:10.094Z</time>
      </trkpt>
      <trkpt lat="48.79571" lon="2.23086">
        <ele>131</ele>
        <time>2020-12-05T16:20:11.095Z</time>
      </trkpt>
      <trkpt lat="48.79572" lon="2.23084">
        <ele>131</ele>
        <time>2020-12-05T16:20:12.095Z</time>
      </trkpt>
      <trkpt lat="48.79573" lon="2.23082">
        <ele>131</ele>
        <time>2020-12-05T16:20:13.095Z</time>
      </trkpt>
      <trkpt lat="48.79573" lon="2.23081">
        <ele>131</ele>
        <time>2020-12-05T16:20:14.095Z</time>
      </trkpt>
      <trkpt lat="48.79574" lon="2.2308">
        <ele>131</ele>
        <time>2020-12-05T16:20:15.095Z</time>
      </trkpt>
      <trkpt lat="48.79574" lon="2.23078">
        <ele>131</ele>
        <time>2020-12-05T16:20:16.095Z</time>
      </trkpt>
      <trkpt lat="48.79574" lon="2.23077">
        <ele>132</ele>
        <time>2020-12-05T16:20:17.094Z</time>
      </trkpt>
      <trkpt lat="48.79574" lon="2.23076">
        <ele>132</ele>
        <time>2020-12-05T16:20:18.094Z</time>
      </trkpt>
      <trkpt lat="48.79574" lon="2.23075">
        <ele>132</ele>
        <time>2020-12-05T16:20:19.094Z</time>
      </trkpt>
      <trkpt lat="48.79575" lon="2.23074">
        <ele>133</ele>
        <time>2020-12-05T16:20:20.095Z</time>
      </trkpt>
      <trkpt lat="48.79575" lon="2.23073">
        <ele>133</ele>
        <time>2020-12-05T16:20:21.095Z</time>
      </trkpt>
      <trkpt lat="48.79575" lon="2.23071">
        <ele>133</ele>
        <time>2020-12-05T16:20:22.095Z</time>
      </trkpt>
      <trkpt lat="48.79576" lon="2.2307">
        <ele>134</ele>
        <time>2020-12-05T16:20:23.095Z</time>
      </trkpt>
      <trkpt lat="48.79576" lon="2.23069">
        <ele>134</ele>
        <time>2020-12-05T16:20:24.095Z</time>
      </trkpt>
      <trkpt lat="48.79576" lon="2.23068">
        <ele>134</ele>
        <time>2020-12-05T16:20:25.095Z</time>
      </trkpt>
      <trkpt lat="48.79577" lon="2.23066">
        <ele>134</ele>
        <time>2020-12-05T16:20:26.095Z</time>
      </trkpt>
      <trkpt lat="48.79577" lon="2.23065">
        <ele>134</ele>
        <time>2020-12-05T16:20:27.095Z</time>
      </trkpt>
      <trkpt lat="48.79578" lon="2.23063">
        <ele>134</ele>
        <time>2020-12-05T16:20:28.095Z</time>
      </trkpt>
      <trkpt lat="48.79579" lon="2.23062">
        <ele>134</ele>
        <time>2020-12-05T16:20:29.095Z</time>
      </trkpt>
      <trkpt lat="48.79579" lon="2.2306">
        <ele>134</ele>
        <time>2020-12-05T16:20:30.095Z</time>
      </trkpt>
      <trkpt lat="48.79579" lon="2.23059">
        <ele>134</ele>
        <time>2020-12-05T16:20:31.095Z</time>
      </trkpt>
      <trkpt lat="48.79579" lon="2.23056">
        <ele>133</ele>
        <time>2020-12-05T16:20:32.095Z</time>
      </trkpt>
      <trkpt lat="48.79579" lon="2.23054">
        <ele>133</ele>
        <time>2020-12-05T16:20:33.095Z</time>
      </trkpt>
      <trkpt lat="48.7958" lon="2.23053">
        <ele>132</ele>
        <time>2020-12-05T16:20:34.095Z</time>
      </trkpt>
      <trkpt lat="48.7958" lon="2.23051">
        <ele>132</ele>
        <time>2020-12-05T16:20:35.094Z</time>
      </trkpt>
      <trkpt lat="48.7958" lon="2.23049">
        <ele>131</ele>
        <time>2020-12-05T16:20:36.095Z</time>
      </trkpt>
      <trkpt lat="48.79581" lon="2.23048">
        <ele>131</ele>
        <time>2020-12-05T16:20:37.095Z</time>
      </trkpt>
      <trkpt lat="48.79581" lon="2.23046">
        <ele>131</ele>
        <time>2020-12-05T16:20:38.095Z</time>
      </trkpt>
      <trkpt lat="48.79581" lon="2.23044">
        <ele>131</ele>
        <time>2020-12-05T16:20:39.095Z</time>
      </trkpt>
      <trkpt lat="48.79582" lon="2.23043">
        <ele>131</ele>
        <time>2020-12-05T16:20:40.095Z</time>
      </trkpt>
      <trkpt lat="48.79583" lon="2.23041">
        <ele>131</ele>
        <time>2020-12-05T16:20:41.095Z</time>
      </trkpt>
      <trkpt lat="48.79584" lon="2.2304">
        <ele>131</ele>
        <time>2020-12-05T16:20:42.095Z</time>
      </trkpt>
      <trkpt lat="48.79584" lon="2.23038">
        <ele>131</ele>
        <time>2020-12-05T16:20:43.094Z</time>
      </trkpt>
      <trkpt lat="48.79585" lon="2.23036">
        <ele>131</ele>
        <time>2020-12-05T16:20:44.095Z</time>
      </trkpt>
      <trkpt lat="48.79585" lon="2.23035">
        <ele>131</ele>
        <time>2020-12-05T16:20:45.095Z</time>
      </trkpt>
      <trkpt lat="48.79585" lon="2.23034">
        <ele>131</ele>
        <time>2020-12-05T16:20:46.095Z</time>
      </trkpt>
      <trkpt lat="48.79586" lon="2.23032">
        <ele>131</ele>
        <time>2020-12-05T16:20:47.095Z</time>
      </trkpt>
      <trkpt lat="48.79586" lon="2.2303">
        <ele>131</ele>
        <time>2020-12-05T16:20:48.095Z</time>
      </trkpt>
      <trkpt lat="48.79586" lon="2.23029">
        <ele>131</ele>
        <time>2020-12-05T16:20:49.095Z</time>
      </trkpt>
      <trkpt lat="48.79586" lon="2.23028">
        <ele>131</ele>
        <time>2020-12-05T16:20:50.095Z</time>
      </trkpt>
      <trkpt lat="48.79587" lon="2.23026">
        <ele>131</ele>
        <time>2020-12-05T16:20:51.094Z</time>
      </trkpt>
      <trkpt lat="48.79587" lon="2.23023">
        <ele>130</ele>
        <time>2020-12-05T16:20:52.094Z</time>
      </trkpt>
      <trkpt lat="48.79587" lon="2.23021">
        <ele>130</ele>
        <time>2020-12-05T16:20:53.094Z</time>
      </trkpt>
      <trkpt lat="48.79588" lon="2.23019">
        <ele>130</ele>
        <time>2020-12-05T16:20:54.094Z</time>
      </trkpt>
      <trkpt lat="48.79588" lon="2.23018">
        <ele>130</ele>
        <time>2020-12-05T16:20:55.094Z</time>
      </trkpt>
      <trkpt lat="48.79588" lon="2.23016">
        <ele>131</ele>
        <time>2020-12-05T16:20:56.094Z</time>
      </trkpt>
      <trkpt lat="48.79589" lon="2.23016">
        <ele>131</ele>
        <time>2020-12-05T16:20:57.094Z</time>
      </trkpt>
      <trkpt lat="48.79589" lon="2.23015">
        <ele>131</ele>
        <time>2020-12-05T16:20:58.094Z</time>
      </trkpt>
      <trkpt lat="48.7959" lon="2.23014">
        <ele>131</ele>
        <time>2020-12-05T16:20:59.095Z</time>
      </trkpt>
      <trkpt lat="48.79592" lon="2.23012">
        <ele>131</ele>
        <time>2020-12-05T16:21:00.095Z</time>
      </trkpt>
      <trkpt lat="48.79592" lon="2.2301">
        <ele>131</ele>
        <time>2020-12-05T16:21:01.095Z</time>
      </trkpt>
      <trkpt lat="48.79593" lon="2.23007">
        <ele>132</ele>
        <time>2020-12-05T16:21:02.095Z</time>
      </trkpt>
      <trkpt lat="48.79593" lon="2.23005">
        <ele>132</ele>
        <time>2020-12-05T16:21:03.095Z</time>
      </trkpt>
      <trkpt lat="48.79593" lon="2.23002">
        <ele>132</ele>
        <time>2020-12-05T16:21:04.095Z</time>
      </trkpt>
      <trkpt lat="48.79593" lon="2.23001">
        <ele>133</ele>
        <time>2020-12-05T16:21:05.095Z</time>
      </trkpt>
      <trkpt lat="48.79593" lon="2.22999">
        <ele>133</ele>
        <time>2020-12-05T16:21:06.095Z</time>
      </trkpt>
      <trkpt lat="48.79592" lon="2.22998">
        <ele>134</ele>
        <time>2020-12-05T16:21:07.095Z</time>
      </trkpt>
      <trkpt lat="48.79592" lon="2.22996">
        <ele>134</ele>
        <time>2020-12-05T16:21:08.095Z</time>
      </trkpt>
      <trkpt lat="48.79593" lon="2.22995">
        <ele>134</ele>
        <time>2020-12-05T16:21:09.095Z</time>
      </trkpt>
      <trkpt lat="48.79593" lon="2.22993">
        <ele>135</ele>
        <time>2020-12-05T16:21:10.095Z</time>
      </trkpt>
      <trkpt lat="48.79594" lon="2.22991">
        <ele>135</ele>
        <time>2020-12-05T16:21:11.095Z</time>
      </trkpt>
      <trkpt lat="48.79594" lon="2.22989">
        <ele>135</ele>
        <time>2020-12-05T16:21:12.094Z</time>
      </trkpt>
      <trkpt lat="48.79595" lon="2.22988">
        <ele>136</ele>
        <time>2020-12-05T16:21:13.095Z</time>
      </trkpt>
      <trkpt lat="48.79595" lon="2.22986">
        <ele>136</ele>
        <time>2020-12-05T16:21:14.095Z</time>
      </trkpt>
      <trkpt lat="48.79595" lon="2.22983">
        <ele>137</ele>
        <time>2020-12-05T16:21:15.094Z</time>
      </trkpt>
      <trkpt lat="48.79595" lon="2.2298">
        <ele>137</ele>
        <time>2020-12-05T16:21:16.095Z</time>
      </trkpt>
      <trkpt lat="48.79595" lon="2.22977">
        <ele>137</ele>
        <time>2020-12-05T16:21:17.095Z</time>
      </trkpt>
      <trkpt lat="48.79595" lon="2.22976">
        <ele>137</ele>
        <time>2020-12-05T16:21:18.095Z</time>
      </trkpt>
      <trkpt lat="48.79596" lon="2.22975">
        <ele>137</ele>
        <time>2020-12-05T16:21:19.095Z</time>
      </trkpt>
      <trkpt lat="48.79597" lon="2.22973">
        <ele>136</ele>
        <time>2020-12-05T16:21:20.095Z</time>
      </trkpt>
      <trkpt lat="48.79597" lon="2.22971">
        <ele>136</ele>
        <time>2020-12-05T16:21:21.095Z</time>
      </trkpt>
      <trkpt lat="48.79598" lon="2.22969">
        <ele>136</ele>
        <time>2020-12-05T16:21:22.095Z</time>
      </trkpt>
      <trkpt lat="48.79599" lon="2.22967">
        <ele>136</ele>
        <time>2020-12-05T16:21:23.095Z</time>
      </trkpt>
      <trkpt lat="48.79599" lon="2.22965">
        <ele>135</ele>
        <time>2020-12-05T16:21:24.094Z</time>
      </trkpt>
      <trkpt lat="48.79599" lon="2.22963">
        <ele>135</ele>
        <time>2020-12-05T16:21:25.094Z</time>
      </trkpt>
      <trkpt lat="48.79599" lon="2.22961">
        <ele>135</ele>
        <time>2020-12-05T16:21:26.095Z</time>
      </trkpt>
      <trkpt lat="48.796" lon="2.22959">
        <ele>135</ele>
        <time>2020-12-05T16:21:27.095Z</time>
      </trkpt>
      <trkpt lat="48.796" lon="2.22957">
        <ele>135</ele>
        <time>2020-12-05T16:21:28.095Z</time>
      </trkpt>
      <trkpt lat="48.79601" lon="2.22954">
        <ele>134</ele>
        <time>2020-12-05T16:21:29.094Z</time>
      </trkpt>
      <trkpt lat="48.79602" lon="2.22952">
        <ele>134</ele>
        <time>2020-12-05T16:21:30.094Z</time>
      </trkpt>
      <trkpt lat="48.79602" lon="2.22949">
        <ele>134</ele>
        <time>2020-12-05T16:21:31.095Z</time>
      </trkpt>
      <trkpt lat="48.79602" lon="2.22947">
        <ele>134</ele>
        <time>2020-12-05T16:21:32.095Z</time>
      </trkpt>
      <trkpt lat="48.79602" lon="2.22946">
        <ele>133</ele>
        <time>2020-12-05T16:21:33.095Z</time>
      </trkpt>
      <trkpt lat="48.79602" lon="2.22946">
        <ele>133</ele>
        <time>2020-12-05T16:21:34.094Z</time>
      </trkpt>
      <trkpt lat="48.79602" lon="2.22945">
        <ele>133</ele>
        <time>2020-12-05T16:21:35.094Z</time>
      </trkpt>
      <trkpt lat="48.79601" lon="2.22944">
        <ele>132</ele>
        <time>2020-12-05T16:21:36.094Z</time>
      </trkpt>
      <trkpt lat="48.79601" lon="2.22943">
        <ele>132</ele>
        <time>2020-12-05T16:21:37.095Z</time>
      </trkpt>
      <trkpt lat="48.79601" lon="2.22942">
        <ele>131</ele>
        <time>2020-12-05T16:21:38.095Z</time>
      </trkpt>
      <trkpt lat="48.79602" lon="2.2294">
        <ele>130</ele>
        <time>2020-12-05T16:21:39.095Z</time>
      </trkpt>
      <trkpt lat="48.79602" lon="2.22937">
        <ele>129</ele>
        <time>2020-12-05T16:21:40.095Z</time>
      </trkpt>
      <trkpt lat="48.79601" lon="2.22935">
        <ele>128</ele>
        <time>2020-12-05T16:21:41.095Z</time>
      </trkpt>
      <trkpt lat="48.79602" lon="2.22933">
        <ele>127</ele>
        <time>2020-12-05T16:21:42.095Z</time>
      </trkpt>
      <trkpt lat="48.79603" lon="2.22931">
        <ele>127</ele>
        <time>2020-12-05T16:21:43.095Z</time>
      </trkpt>
      <trkpt lat="48.79603" lon="2.2293">
        <ele>126</ele>
        <time>2020-12-05T16:21:44.094Z</time>
      </trkpt>
      <trkpt lat="48.79603" lon="2.22928">
        <ele>126</ele>
        <time>2020-12-05T16:21:45.094Z</time>
      </trkpt>
      <trkpt lat="48.79603" lon="2.22927">
        <ele>126</ele>
        <time>2020-12-05T16:21:46.095Z</time>
      </trkpt>
      <trkpt lat="48.79604" lon="2.22924">
        <ele>126</ele>
        <time>2020-12-05T16:21:47.095Z</time>
      </trkpt>
      <trkpt lat="48.79604" lon="2.22923">
        <ele>126</ele>
        <time>2020-12-05T16:21:48.095Z</time>
      </trkpt>
      <trkpt lat="48.79605" lon="2.22921">
        <ele>126</ele>
        <time>2020-12-05T16:21:49.095Z</time>
      </trkpt>
      <trkpt lat="48.79605" lon="2.22919">
        <ele>127</ele>
        <time>2020-12-05T16:21:50.095Z</time>
      </trkpt>
      <trkpt lat="48.79606" lon="2.22918">
        <ele>127</ele>
        <time>2020-12-05T16:21:51.095Z</time>
      </trkpt>
      <trkpt lat="48.79607" lon="2.22917">
        <ele>127</ele>
        <time>2020-12-05T16:21:52.095Z</time>
      </trkpt>
      <trkpt lat="48.79608" lon="2.22915">
        <ele>127</ele>
        <time>2020-12-05T16:21:53.095Z</time>
      </trkpt>
      <trkpt lat="48.79609" lon="2.22913">
        <ele>127</ele>
        <time>2020-12-05T16:21:54.095Z</time>
      </trkpt>
      <trkpt lat="48.79609" lon="2.22911">
        <ele>127</ele>
        <time>2020-12-05T16:21:55.095Z</time>
      </trkpt>
      <trkpt lat="48.7961" lon="2.2291">
        <ele>126</ele>
        <time>2020-12-05T16:21:56.095Z</time>
      </trkpt>
      <trkpt lat="48.7961" lon="2.22908">
        <ele>126</ele>
        <time>2020-12-05T16:21:57.095Z</time>
      </trkpt>
      <trkpt lat="48.79611" lon="2.22906">
        <ele>125</ele>
        <time>2020-12-05T16:21:58.095Z</time>
      </trkpt>
      <trkpt lat="48.79612" lon="2.22904">
        <ele>125</ele>
        <time>2020-12-05T16:21:59.094Z</time>
      </trkpt>
      <trkpt lat="48.79612" lon="2.22902">
        <ele>125</ele>
        <time>2020-12-05T16:22:00.094Z</time>
      </trkpt>
      <trkpt lat="48.79613" lon="2.229">
        <ele>124</ele>
        <time>2020-12-05T16:22:01.094Z</time>
      </trkpt>
      <trkpt lat="48.79614" lon="2.22898">
        <ele>124</ele>
        <time>2020-12-05T16:22:02.095Z</time>
      </trkpt>
      <trkpt lat="48.79614" lon="2.22897">
        <ele>124</ele>
        <time>2020-12-05T16:22:03.094Z</time>
      </trkpt>
      <trkpt lat="48.79615" lon="2.22895">
        <ele>124</ele>
        <time>2020-12-05T16:22:04.094Z</time>
      </trkpt>
      <trkpt lat="48.79614" lon="2.22894">
        <ele>124</ele>
        <time>2020-12-05T16:22:05.095Z</time>
      </trkpt>
      <trkpt lat="48.79614" lon="2.22892">
        <ele>124</ele>
        <time>2020-12-05T16:22:06.095Z</time>
      </trkpt>
      <trkpt lat="48.79615" lon="2.2289">
        <ele>124</ele>
        <time>2020-12-05T16:22:07.095Z</time>
      </trkpt>
      <trkpt lat="48.79615" lon="2.22888">
        <ele>124</ele>
        <time>2020-12-05T16:22:08.094Z</time>
      </trkpt>
      <trkpt lat="48.79616" lon="2.22887">
        <ele>125</ele>
        <time>2020-12-05T16:22:09.094Z</time>
      </trkpt>
      <trkpt lat="48.79616" lon="2.22886">
        <ele>126</ele>
        <time>2020-12-05T16:22:10.094Z</time>
      </trkpt>
      <trkpt lat="48.79616" lon="2.22885">
        <ele>126</ele>
        <time>2020-12-05T16:22:11.094Z</time>
      </trkpt>
      <trkpt lat="48.79617" lon="2.22883">
        <ele>127</ele>
        <time>2020-12-05T16:22:12.095Z</time>
      </trkpt>
      <trkpt lat="48.79617" lon="2.22882">
        <ele>128</ele>
        <time>2020-12-05T16:22:13.095Z</time>
      </trkpt>
      <trkpt lat="48.79617" lon="2.2288">
        <ele>128</ele>
        <time>2020-12-05T16:22:14.095Z</time>
      </trkpt>
      <trkpt lat="48.79618" lon="2.22879">
        <ele>128</ele>
        <time>2020-12-05T16:22:15.095Z</time>
      </trkpt>
      <trkpt lat="48.79618" lon="2.22878">
        <ele>129</ele>
        <time>2020-12-05T16:22:16.094Z</time>
      </trkpt>
      <trkpt lat="48.79619" lon="2.22877">
        <ele>129</ele>
        <time>2020-12-05T16:22:17.094Z</time>
      </trkpt>
      <trkpt lat="48.79619" lon="2.22875">
        <ele>129</ele>
        <time>2020-12-05T16:22:18.094Z</time>
      </trkpt>
      <trkpt lat="48.79619" lon="2.22873">
        <ele>129</ele>
        <time>2020-12-05T16:22:19.094Z</time>
      </trkpt>
      <trkpt lat="48.79619" lon="2.22871">
        <ele>130</ele>
        <time>2020-12-05T16:22:20.095Z</time>
      </trkpt>
      <trkpt lat="48.79619" lon="2.2287">
        <ele>130</ele>
        <time>2020-12-05T16:22:21.095Z</time>
      </trkpt>
      <trkpt lat="48.79619" lon="2.22868">
        <ele>130</ele>
        <time>2020-12-05T16:22:22.095Z</time>
      </trkpt>
      <trkpt lat="48.79619" lon="2.22866">
        <ele>131</ele>
        <time>2020-12-05T16:22:23.095Z</time>
      </trkpt>
      <trkpt lat="48.79619" lon="2.22865">
        <ele>131</ele>
        <time>2020-12-05T16:22:24.095Z</time>
      </trkpt>
      <trkpt lat="48.7962" lon="2.22863">
        <ele>131</ele>
        <time>2020-12-05T16:22:25.095Z</time>
      </trkpt>
      <trkpt lat="48.79621" lon="2.22861">
        <ele>132</ele>
        <time>2020-12-05T16:22:26.095Z</time>
      </trkpt>
      <trkpt lat="48.79621" lon="2.2286">
        <ele>132</ele>
        <time>2020-12-05T16:22:27.095Z</time>
      </trkpt>
      <trkpt lat="48.79621" lon="2.22858">
        <ele>133</ele>
        <time>2020-12-05T16:22:28.095Z</time>
      </trkpt>
      <trkpt lat="48.79622" lon="2.22857">
        <ele>133</ele>
        <time>2020-12-05T16:22:29.095Z</time>
      </trkpt>
      <trkpt lat="48.79622" lon="2.22855">
        <ele>133</ele>
        <time>2020-12-05T16:22:30.095Z</time>
      </trkpt>
      <trkpt lat="48.79623" lon="2.22854">
        <ele>133</ele>
        <time>2020-12-05T16:22:31.095Z</time>
      </trkpt>
      <trkpt lat="48.79623" lon="2.22852">
        <ele>133</ele>
        <time>2020-12-05T16:22:32.095Z</time>
      </trkpt>
      <trkpt lat="48.79624" lon="2.2285">
        <ele>133</ele>
        <time>2020-12-05T16:22:33.095Z</time>
      </trkpt>
      <trkpt lat="48.79624" lon="2.22849">
        <ele>133</ele>
        <time>2020-12-05T16:22:34.095Z</time>
      </trkpt>
      <trkpt lat="48.79625" lon="2.22847">
        <ele>133</ele>
        <time>2020-12-05T16:22:35.095Z</time>
      </trkpt>
      <trkpt lat="48.79626" lon="2.22843">
        <ele>133</ele>
        <time>2020-12-05T16:22:36.095Z</time>
      </trkpt>
      <trkpt lat="48.79626" lon="2.2284">
        <ele>134</ele>
        <time>2020-12-05T16:22:37.095Z</time>
      </trkpt>
      <trkpt lat="48.79627" lon="2.22837">
        <ele>133</ele>
        <time>2020-12-05T16:22:38.095Z</time>
      </trkpt>
      <trkpt lat="48.79627" lon="2.22834">
        <ele>133</ele>
        <time>2020-12-05T16:22:39.095Z</time>
      </trkpt>
      <trkpt lat="48.79627" lon="2.22831">
        <ele>133</ele>
        <time>2020-12-05T16:22:40.095Z</time>
      </trkpt>
      <trkpt lat="48.79628" lon="2.22828">
        <ele>133</ele>
        <time>2020-12-05T16:22:41.095Z</time>
      </trkpt>
      <trkpt lat="48.79628" lon="2.22826">
        <ele>133</ele>
        <time>2020-12-05T16:22:42.095Z</time>
      </trkpt>
      <trkpt lat="48.79628" lon="2.22823">
        <ele>133</ele>
        <time>2020-12-05T16:22:43.095Z</time>
      </trkpt>
      <trkpt lat="48.79628" lon="2.22821">
        <ele>132</ele>
        <time>2020-12-05T16:22:44.095Z</time>
      </trkpt>
      <trkpt lat="48.79629" lon="2.22819">
        <ele>132</ele>
        <time>2020-12-05T16:22:45.095Z</time>
      </trkpt>
      <trkpt lat="48.7963" lon="2.22817">
        <ele>132</ele>
        <time>2020-12-05T16:22:46.095Z</time>
      </trkpt>
      <trkpt lat="48.79631" lon="2.22815">
        <ele>131</ele>
        <time>2020-12-05T16:22:47.095Z</time>
      </trkpt>
      <trkpt lat="48.79631" lon="2.22812">
        <ele>131</ele>
        <time>2020-12-05T16:22:48.094Z</time>
      </trkpt>
      <trkpt lat="48.79632" lon="2.2281">
        <ele>131</ele>
        <time>2020-12-05T16:22:49.095Z</time>
      </trkpt>
      <trkpt lat="48.79633" lon="2.22808">
        <ele>131</ele>
        <time>2020-12-05T16:22:50.095Z</time>
      </trkpt>
      <trkpt lat="48.79634" lon="2.22807">
        <ele>131</ele>
        <time>2020-12-05T16:22:51.095Z</time>
      </trkpt>
      <trkpt lat="48.79636" lon="2.22806">
        <ele>130</ele>
        <time>2020-12-05T16:22:52.095Z</time>
      </trkpt>
      <trkpt lat="48.79636" lon="2.22804">
        <ele>130</ele>
        <time>2020-12-05T16:22:53.095Z</time>
      </trkpt>
      <trkpt lat="48.79637" lon="2.22803">
        <ele>130</ele>
        <time>2020-12-05T16:22:54.094Z</time>
      </trkpt>
      <trkpt lat="48.79637" lon="2.22802">
        <ele>130</ele>
        <time>2020-12-05T16:22:55.095Z</time>
      </trkpt>
      <trkpt lat="48.79638" lon="2.228">
        <ele>130</ele>
        <time>2020-12-05T16:22:56.095Z</time>
      </trkpt>
      <trkpt lat="48.79638" lon="2.22799">
        <ele>129</ele>
        <time>2020-12-05T16:22:57.095Z</time>
      </trkpt>
      <trkpt lat="48.79639" lon="2.22796">
        <ele>129</ele>
        <time>2020-12-05T16:22:58.095Z</time>
      </trkpt>
      <trkpt lat="48.79638" lon="2.22794">
        <ele>128</ele>
        <time>2020-12-05T16:22:59.094Z</time>
      </trkpt>
      <trkpt lat="48.79638" lon="2.22791">
        <ele>128</ele>
        <time>2020-12-05T16:23:00.095Z</time>
      </trkpt>
      <trkpt lat="48.79638" lon="2.2279">
        <ele>127</ele>
        <time>2020-12-05T16:23:01.095Z</time>
      </trkpt>
      <trkpt lat="48.79637" lon="2.22788">
        <ele>126</ele>
        <time>2020-12-05T16:23:02.095Z</time>
      </trkpt>
      <trkpt lat="48.79637" lon="2.22786">
        <ele>126</ele>
        <time>2020-12-05T16:23:03.095Z</time>
      </trkpt>
      <trkpt lat="48.79637" lon="2.22784">
        <ele>125</ele>
        <time>2020-12-05T16:23:04.095Z</time>
      </trkpt>
      <trkpt lat="48.79636" lon="2.22782">
        <ele>125</ele>
        <time>2020-12-05T16:23:05.094Z</time>
      </trkpt>
      <trkpt lat="48.79636" lon="2.2278">
        <ele>124</ele>
        <time>2020-12-05T16:23:06.095Z</time>
      </trkpt>
      <trkpt lat="48.79636" lon="2.22777">
        <ele>124</ele>
        <time>2020-12-05T16:23:07.094Z</time>
      </trkpt>
      <trkpt lat="48.79637" lon="2.22776">
        <ele>124</ele>
        <time>2020-12-05T16:23:08.094Z</time>
      </trkpt>
      <trkpt lat="48.79638" lon="2.22774">
        <ele>125</ele>
        <time>2020-12-05T16:23:09.095Z</time>
      </trkpt>
      <trkpt lat="48.79639" lon="2.22772">
        <ele>125</ele>
        <time>2020-12-05T16:23:10.095Z</time>
      </trkpt>
      <trkpt lat="48.7964" lon="2.22771">
        <ele>125</ele>
        <time>2020-12-05T16:23:11.095Z</time>
      </trkpt>
      <trkpt lat="48.7964" lon="2.22769">
        <ele>125</ele>
        <time>2020-12-05T16:23:12.095Z</time>
      </trkpt>
      <trkpt lat="48.79641" lon="2.22766">
        <ele>125</ele>
        <time>2020-12-05T16:23:13.095Z</time>
      </trkpt>
      <trkpt lat="48.79641" lon="2.22763">
        <ele>125</ele>
        <time>2020-12-05T16:23:14.095Z</time>
      </trkpt>
      <trkpt lat="48.79642" lon="2.2276">
        <ele>126</ele>
        <time>2020-12-05T16:23:15.095Z</time>
      </trkpt>
      <trkpt lat="48.79643" lon="2.22757">
        <ele>126</ele>
        <time>2020-12-05T16:23:16.095Z</time>
      </trkpt>
      <trkpt lat="48.79643" lon="2.22756">
        <ele>126</ele>
        <time>2020-12-05T16:23:17.094Z</time>
      </trkpt>
      <trkpt lat="48.79644" lon="2.22755">
        <ele>126</ele>
        <time>2020-12-05T16:23:18.094Z</time>
      </trkpt>
      <trkpt lat="48.79645" lon="2.22754">
        <ele>126</ele>
        <time>2020-12-05T16:23:19.094Z</time>
      </trkpt>
      <trkpt lat="48.79645" lon="2.22754">
        <ele>126</ele>
        <time>2020-12-05T16:23:20.095Z</time>
      </trkpt>
      <trkpt lat="48.79646" lon="2.22754">
        <ele>126</ele>
        <time>2020-12-05T16:23:21.095Z</time>
      </trkpt>
      <trkpt lat="48.79647" lon="2.22754">
        <ele>125</ele>
        <time>2020-12-05T16:23:22.095Z</time>
      </trkpt>
      <trkpt lat="48.79648" lon="2.22753">
        <ele>125</ele>
        <time>2020-12-05T16:23:23.094Z</time>
      </trkpt>
      <trkpt lat="48.7965" lon="2.22752">
        <ele>125</ele>
        <time>2020-12-05T16:23:24.094Z</time>
      </trkpt>
      <trkpt lat="48.79651" lon="2.22751">
        <ele>124</ele>
        <time>2020-12-05T16:23:25.094Z</time>
      </trkpt>
      <trkpt lat="48.79651" lon="2.22749">
        <ele>124</ele>
        <time>2020-12-05T16:23:26.094Z</time>
      </trkpt>
      <trkpt lat="48.79652" lon="2.22747">
        <ele>123</ele>
        <time>2020-12-05T16:23:27.094Z</time>
      </trkpt>
      <trkpt lat="48.79652" lon="2.22745">
        <ele>123</ele>
        <time>2020-12-05T16:23:28.094Z</time>
      </trkpt>
      <trkpt lat="48.79653" lon="2.22743">
        <ele>123</ele>
        <time>2020-12-05T16:23:29.094Z</time>
      </trkpt>
      <trkpt lat="48.79653" lon="2.22742">
        <ele>123</ele>
        <time>2020-12-05T16:23:30.094Z</time>
      </trkpt>
      <trkpt lat="48.79654" lon="2.22741">
        <ele>123</ele>
        <time>2020-12-05T16:23:31.095Z</time>
      </trkpt>
      <trkpt lat="48.79654" lon="2.22739">
        <ele>123</ele>
        <time>2020-12-05T16:23:32.094Z</time>
      </trkpt>
      <trkpt lat="48.79654" lon="2.22739">
        <ele>123</ele>
        <time>2020-12-05T16:23:33.094Z</time>
      </trkpt>
      <trkpt lat="48.79655" lon="2.22738">
        <ele>124</ele>
        <time>2020-12-05T16:23:34.095Z</time>
      </trkpt>
      <trkpt lat="48.79655" lon="2.22737">
        <ele>124</ele>
        <time>2020-12-05T16:23:35.095Z</time>
      </trkpt>
      <trkpt lat="48.79655" lon="2.22737">
        <ele>124</ele>
        <time>2020-12-05T16:23:36.095Z</time>
      </trkpt>
      <trkpt lat="48.79655" lon="2.22735">
        <ele>125</ele>
        <time>2020-12-05T16:23:37.095Z</time>
      </trkpt>
      <trkpt lat="48.79655" lon="2.22734">
        <ele>125</ele>
        <time>2020-12-05T16:23:38.095Z</time>
      </trkpt>
      <trkpt lat="48.79656" lon="2.22732">
        <ele>125</ele>
        <time>2020-12-05T16:23:39.095Z</time>
      </trkpt>
      <trkpt lat="48.79656" lon="2.22731">
        <ele>124</ele>
        <time>2020-12-05T16:23:40.095Z</time>
      </trkpt>
      <trkpt lat="48.79657" lon="2.2273">
        <ele>124</ele>
        <time>2020-12-05T16:23:41.095Z</time>
      </trkpt>
      <trkpt lat="48.79657" lon="2.22727">
        <ele>124</ele>
        <time>2020-12-05T16:23:42.094Z</time>
      </trkpt>
      <trkpt lat="48.79658" lon="2.22725">
        <ele>123</ele>
        <time>2020-12-05T16:23:43.094Z</time>
      </trkpt>
      <trkpt lat="48.79658" lon="2.22724">
        <ele>123</ele>
        <time>2020-12-05T16:23:44.094Z</time>
      </trkpt>
      <trkpt lat="48.79658" lon="2.22722">
        <ele>123</ele>
        <time>2020-12-05T16:23:45.094Z</time>
      </trkpt>
      <trkpt lat="48.79658" lon="2.2272">
        <ele>123</ele>
        <time>2020-12-05T16:23:46.094Z</time>
      </trkpt>
      <trkpt lat="48.79658" lon="2.22718">
        <ele>123</ele>
        <time>2020-12-05T16:23:47.094Z</time>
      </trkpt>
      <trkpt lat="48.79657" lon="2.22717">
        <ele>123</ele>
        <time>2020-12-05T16:23:48.094Z</time>
      </trkpt>
      <trkpt lat="48.79657" lon="2.22715">
        <ele>123</ele>
        <time>2020-12-05T16:23:49.094Z</time>
      </trkpt>
      <trkpt lat="48.79657" lon="2.22713">
        <ele>123</ele>
        <time>2020-12-05T16:23:50.094Z</time>
      </trkpt>
      <trkpt lat="48.79657" lon="2.22712">
        <ele>122</ele>
        <time>2020-12-05T16:23:51.094Z</time>
      </trkpt>
      <trkpt lat="48.79657" lon="2.2271">
        <ele>122</ele>
        <time>2020-12-05T16:23:52.094Z</time>
      </trkpt>
      <trkpt lat="48.79656" lon="2.22709">
        <ele>122</ele>
        <time>2020-12-05T16:23:53.094Z</time>
      </trkpt>
      <trkpt lat="48.79656" lon="2.22707">
        <ele>122</ele>
        <time>2020-12-05T16:23:54.094Z</time>
      </trkpt>
      <trkpt lat="48.79655" lon="2.22705">
        <ele>122</ele>
        <time>2020-12-05T16:23:55.095Z</time>
      </trkpt>
      <trkpt lat="48.79655" lon="2.22703">
        <ele>122</ele>
        <time>2020-12-05T16:23:56.095Z</time>
      </trkpt>
      <trkpt lat="48.79654" lon="2.22701">
        <ele>122</ele>
        <time>2020-12-05T16:23:57.095Z</time>
      </trkpt>
      <trkpt lat="48.79654" lon="2.22699">
        <ele>122</ele>
        <time>2020-12-05T16:23:58.095Z</time>
      </trkpt>
      <trkpt lat="48.79653" lon="2.22698">
        <ele>123</ele>
        <time>2020-12-05T16:23:59.095Z</time>
      </trkpt>
      <trkpt lat="48.79653" lon="2.22696">
        <ele>123</ele>
        <time>2020-12-05T16:24:00.095Z</time>
      </trkpt>
      <trkpt lat="48.79653" lon="2.22694">
        <ele>123</ele>
        <time>2020-12-05T16:24:01.094Z</time>
      </trkpt>
      <trkpt lat="48.79653" lon="2.22692">
        <ele>123</ele>
        <time>2020-12-05T16:24:02.095Z</time>
      </trkpt>
      <trkpt lat="48.79652" lon="2.2269">
        <ele>123</ele>
        <time>2020-12-05T16:24:03.095Z</time>
      </trkpt>
      <trkpt lat="48.79651" lon="2.22689">
        <ele>123</ele>
        <time>2020-12-05T16:24:04.095Z</time>
      </trkpt>
      <trkpt lat="48.79651" lon="2.22687">
        <ele>123</ele>
        <time>2020-12-05T16:24:05.095Z</time>
      </trkpt>
      <trkpt lat="48.7965" lon="2.22685">
        <ele>123</ele>
        <time>2020-12-05T16:24:06.095Z</time>
      </trkpt>
      <trkpt lat="48.7965" lon="2.22682">
        <ele>123</ele>
        <time>2020-12-05T16:24:07.095Z</time>
      </trkpt>
      <trkpt lat="48.7965" lon="2.2268">
        <ele>124</ele>
        <time>2020-12-05T16:24:08.094Z</time>
      </trkpt>
      <trkpt lat="48.7965" lon="2.22678">
        <ele>124</ele>
        <time>2020-12-05T16:24:09.094Z</time>
      </trkpt>
      <trkpt lat="48.7965" lon="2.22676">
        <ele>125</ele>
        <time>2020-12-05T16:24:10.095Z</time>
      </trkpt>
      <trkpt lat="48.79649" lon="2.22674">
        <ele>125</ele>
        <time>2020-12-05T16:24:11.095Z</time>
      </trkpt>
      <trkpt lat="48.79649" lon="2.22671">
        <ele>125</ele>
        <time>2020-12-05T16:24:12.095Z</time>
      </trkpt>
      <trkpt lat="48.79649" lon="2.2267">
        <ele>124</ele>
        <time>2020-12-05T16:24:13.095Z</time>
      </trkpt>
      <trkpt lat="48.79648" lon="2.22667">
        <ele>124</ele>
        <time>2020-12-05T16:24:14.095Z</time>
      </trkpt>
      <trkpt lat="48.79648" lon="2.22664">
        <ele>124</ele>
        <time>2020-12-05T16:24:15.095Z</time>
      </trkpt>
      <trkpt lat="48.79648" lon="2.22662">
        <ele>124</ele>
        <time>2020-12-05T16:24:16.095Z</time>
      </trkpt>
      <trkpt lat="48.79648" lon="2.2266">
        <ele>125</ele>
        <time>2020-12-05T16:24:17.095Z</time>
      </trkpt>
      <trkpt lat="48.79648" lon="2.22657">
        <ele>125</ele>
        <time>2020-12-05T16:24:18.095Z</time>
      </trkpt>
      <trkpt lat="48.79648" lon="2.22655">
        <ele>126</ele>
        <time>2020-12-05T16:24:19.095Z</time>
      </trkpt>
      <trkpt lat="48.79649" lon="2.22652">
        <ele>126</ele>
        <time>2020-12-05T16:24:20.094Z</time>
      </trkpt>
      <trkpt lat="48.79649" lon="2.2265">
        <ele>127</ele>
        <time>2020-12-05T16:24:21.095Z</time>
      </trkpt>
      <trkpt lat="48.79649" lon="2.22648">
        <ele>127</ele>
        <time>2020-12-05T16:24:22.095Z</time>
      </trkpt>
      <trkpt lat="48.79649" lon="2.22646">
        <ele>127</ele>
        <time>2020-12-05T16:24:23.095Z</time>
      </trkpt>
      <trkpt lat="48.79649" lon="2.22644">
        <ele>127</ele>
        <time>2020-12-05T16:24:24.095Z</time>
      </trkpt>
      <trkpt lat="48.7965" lon="2.22643">
        <ele>127</ele>
        <time>2020-12-05T16:24:25.094Z</time>
      </trkpt>
      <trkpt lat="48.7965" lon="2.22641">
        <ele>127</ele>
        <time>2020-12-05T16:24:26.095Z</time>
      </trkpt>
      <trkpt lat="48.79651" lon="2.2264">
        <ele>127</ele>
        <time>2020-12-05T16:24:27.095Z</time>
      </trkpt>
      <trkpt lat="48.79651" lon="2.22638">
        <ele>127</ele>
        <time>2020-12-05T16:24:28.095Z</time>
      </trkpt>
      <trkpt lat="48.79651" lon="2.22637">
        <ele>127</ele>
        <time>2020-12-05T16:24:29.095Z</time>
      </trkpt>
      <trkpt lat="48.79651" lon="2.22636">
        <ele>127</ele>
        <time>2020-12-05T16:24:30.094Z</time>
      </trkpt>
      <trkpt lat="48.79651" lon="2.22634">
        <ele>128</ele>
        <time>2020-12-05T16:24:31.095Z</time>
      </trkpt>
      <trkpt lat="48.79652" lon="2.22633">
        <ele>128</ele>
        <time>2020-12-05T16:24:32.095Z</time>
      </trkpt>
      <trkpt lat="48.79652" lon="2.22631">
        <ele>128</ele>
        <time>2020-12-05T16:24:33.095Z</time>
      </trkpt>
      <trkpt lat="48.79652" lon="2.2263">
        <ele>128</ele>
        <time>2020-12-05T16:24:34.095Z</time>
      </trkpt>
      <trkpt lat="48.79652" lon="2.22628">
        <ele>128</ele>
        <time>2020-12-05T16:24:35.095Z</time>
      </trkpt>
      <trkpt lat="48.79653" lon="2.22626">
        <ele>129</ele>
        <time>2020-12-05T16:24:36.094Z</time>
      </trkpt>
      <trkpt lat="48.79653" lon="2.22624">
        <ele>129</ele>
        <time>2020-12-05T16:24:37.095Z</time>
      </trkpt>
      <trkpt lat="48.79653" lon="2.22622">
        <ele>129</ele>
        <time>2020-12-05T16:24:38.095Z</time>
      </trkpt>
      <trkpt lat="48.79653" lon="2.2262">
        <ele>129</ele>
        <time>2020-12-05T16:24:39.095Z</time>
      </trkpt>
      <trkpt lat="48.79653" lon="2.22619">
        <ele>130</ele>
        <time>2020-12-05T16:24:40.095Z</time>
      </trkpt>
      <trkpt lat="48.79654" lon="2.22617">
        <ele>130</ele>
        <time>2020-12-05T16:24:41.094Z</time>
      </trkpt>
      <trkpt lat="48.79654" lon="2.22615">
        <ele>130</ele>
        <time>2020-12-05T16:24:42.094Z</time>
      </trkpt>
      <trkpt lat="48.79655" lon="2.22613">
        <ele>130</ele>
        <time>2020-12-05T16:24:43.094Z</time>
      </trkpt>
      <trkpt lat="48.79656" lon="2.22612">
        <ele>130</ele>
        <time>2020-12-05T16:24:44.095Z</time>
      </trkpt>
      <trkpt lat="48.79657" lon="2.2261">
        <ele>129</ele>
        <time>2020-12-05T16:24:45.095Z</time>
      </trkpt>
      <trkpt lat="48.79657" lon="2.22609">
        <ele>129</ele>
        <time>2020-12-05T16:24:46.095Z</time>
      </trkpt>
      <trkpt lat="48.79658" lon="2.22607">
        <ele>129</ele>
        <time>2020-12-05T16:24:47.095Z</time>
      </trkpt>
      <trkpt lat="48.79658" lon="2.22606">
        <ele>129</ele>
        <time>2020-12-05T16:24:48.095Z</time>
      </trkpt>
      <trkpt lat="48.79658" lon="2.22604">
        <ele>129</ele>
        <time>2020-12-05T16:24:49.095Z</time>
      </trkpt>
      <trkpt lat="48.79659" lon="2.22601">
        <ele>129</ele>
        <time>2020-12-05T16:24:50.095Z</time>
      </trkpt>
      <trkpt lat="48.7966" lon="2.22599">
        <ele>129</ele>
        <time>2020-12-05T16:24:51.094Z</time>
      </trkpt>
      <trkpt lat="48.7966" lon="2.22597">
        <ele>129</ele>
        <time>2020-12-05T16:24:52.094Z</time>
      </trkpt>
      <trkpt lat="48.79661" lon="2.22595">
        <ele>129</ele>
        <time>2020-12-05T16:24:53.094Z</time>
      </trkpt>
      <trkpt lat="48.79661" lon="2.22593">
        <ele>129</ele>
        <time>2020-12-05T16:24:54.095Z</time>
      </trkpt>
      <trkpt lat="48.79661" lon="2.22591">
        <ele>129</ele>
        <time>2020-12-05T16:24:55.095Z</time>
      </trkpt>
      <trkpt lat="48.79661" lon="2.22588">
        <ele>129</ele>
        <time>2020-12-05T16:24:56.095Z</time>
      </trkpt>
      <trkpt lat="48.79661" lon="2.22585">
        <ele>129</ele>
        <time>2020-12-05T16:24:57.094Z</time>
      </trkpt>
      <trkpt lat="48.79661" lon="2.22583">
        <ele>129</ele>
        <time>2020-12-05T16:24:58.094Z</time>
      </trkpt>
      <trkpt lat="48.79661" lon="2.22581">
        <ele>130</ele>
        <time>2020-12-05T16:24:59.094Z</time>
      </trkpt>
      <trkpt lat="48.79661" lon="2.22579">
        <ele>130</ele>
        <time>2020-12-05T16:25:00.094Z</time>
      </trkpt>
      <trkpt lat="48.79661" lon="2.22578">
        <ele>130</ele>
        <time>2020-12-05T16:25:01.094Z</time>
      </trkpt>
      <trkpt lat="48.79662" lon="2.22576">
        <ele>130</ele>
        <time>2020-12-05T16:25:02.094Z</time>
      </trkpt>
      <trkpt lat="48.79662" lon="2.22574">
        <ele>129</ele>
        <time>2020-12-05T16:25:03.095Z</time>
      </trkpt>
      <trkpt lat="48.79662" lon="2.22573">
        <ele>129</ele>
        <time>2020-12-05T16:25:04.095Z</time>
      </trkpt>
      <trkpt lat="48.79662" lon="2.22572">
        <ele>129</ele>
        <time>2020-12-05T16:25:05.095Z</time>
      </trkpt>
      <trkpt lat="48.79663" lon="2.2257">
        <ele>129</ele>
        <time>2020-12-05T16:25:06.095Z</time>
      </trkpt>
      <trkpt lat="48.79663" lon="2.22569">
        <ele>129</ele>
        <time>2020-12-05T16:25:07.095Z</time>
      </trkpt>
      <trkpt lat="48.79663" lon="2.22566">
        <ele>129</ele>
        <time>2020-12-05T16:25:08.095Z</time>
      </trkpt>
      <trkpt lat="48.79663" lon="2.22564">
        <ele>129</ele>
        <time>2020-12-05T16:25:09.095Z</time>
      </trkpt>
      <trkpt lat="48.79663" lon="2.22562">
        <ele>129</ele>
        <time>2020-12-05T16:25:10.095Z</time>
      </trkpt>
      <trkpt lat="48.79663" lon="2.22559">
        <ele>128</ele>
        <time>2020-12-05T16:25:11.095Z</time>
      </trkpt>
      <trkpt lat="48.79663" lon="2.22556">
        <ele>128</ele>
        <time>2020-12-05T16:25:12.095Z</time>
      </trkpt>
      <trkpt lat="48.79662" lon="2.22554">
        <ele>128</ele>
        <time>2020-12-05T16:25:13.095Z</time>
      </trkpt>
      <trkpt lat="48.79663" lon="2.22552">
        <ele>127</ele>
        <time>2020-12-05T16:25:14.095Z</time>
      </trkpt>
      <trkpt lat="48.79663" lon="2.2255">
        <ele>127</ele>
        <time>2020-12-05T16:25:15.094Z</time>
      </trkpt>
      <trkpt lat="48.79663" lon="2.22548">
        <ele>127</ele>
        <time>2020-12-05T16:25:16.094Z</time>
      </trkpt>
      <trkpt lat="48.79664" lon="2.22547">
        <ele>127</ele>
        <time>2020-12-05T16:25:17.095Z</time>
      </trkpt>
      <trkpt lat="48.79664" lon="2.22545">
        <ele>127</ele>
        <time>2020-12-05T16:25:18.095Z</time>
      </trkpt>
      <trkpt lat="48.79665" lon="2.22542">
        <ele>128</ele>
        <time>2020-12-05T16:25:19.095Z</time>
      </trkpt>
      <trkpt lat="48.79665" lon="2.2254">
        <ele>128</ele>
        <time>2020-12-05T16:25:20.095Z</time>
      </trkpt>
      <trkpt lat="48.79665" lon="2.22537">
        <ele>129</ele>
        <time>2020-12-05T16:25:21.094Z</time>
      </trkpt>
      <trkpt lat="48.79666" lon="2.22535">
        <ele>129</ele>
        <time>2020-12-05T16:25:22.095Z</time>
      </trkpt>
      <trkpt lat="48.79665" lon="2.22533">
        <ele>129</ele>
        <time>2020-12-05T16:25:23.094Z</time>
      </trkpt>
      <trkpt lat="48.79665" lon="2.22531">
        <ele>129</ele>
        <time>2020-12-05T16:25:24.094Z</time>
      </trkpt>
      <trkpt lat="48.79666" lon="2.2253">
        <ele>129</ele>
        <time>2020-12-05T16:25:25.094Z</time>
      </trkpt>
      <trkpt lat="48.79667" lon="2.22527">
        <ele>129</ele>
        <time>2020-12-05T16:25:26.095Z</time>
      </trkpt>
      <trkpt lat="48.79667" lon="2.22525">
        <ele>129</ele>
        <time>2020-12-05T16:25:27.095Z</time>
      </trkpt>
      <trkpt lat="48.79668" lon="2.22523">
        <ele>129</ele>
        <time>2020-12-05T16:25:28.094Z</time>
      </trkpt>
      <trkpt lat="48.79669" lon="2.22521">
        <ele>129</ele>
        <time>2020-12-05T16:25:29.094Z</time>
      </trkpt>
      <trkpt lat="48.79669" lon="2.22519">
        <ele>130</ele>
        <time>2020-12-05T16:25:30.095Z</time>
      </trkpt>
      <trkpt lat="48.79669" lon="2.22517">
        <ele>130</ele>
        <time>2020-12-05T16:25:31.095Z</time>
      </trkpt>
      <trkpt lat="48.79669" lon="2.22514">
        <ele>131</ele>
        <time>2020-12-05T16:25:32.095Z</time>
      </trkpt>
      <trkpt lat="48.79669" lon="2.22513">
        <ele>132</ele>
        <time>2020-12-05T16:25:33.095Z</time>
      </trkpt>
      <trkpt lat="48.79669" lon="2.22511">
        <ele>132</ele>
        <time>2020-12-05T16:25:34.094Z</time>
      </trkpt>
      <trkpt lat="48.79669" lon="2.22509">
        <ele>133</ele>
        <time>2020-12-05T16:25:35.095Z</time>
      </trkpt>
      <trkpt lat="48.7967" lon="2.22508">
        <ele>134</ele>
        <time>2020-12-05T16:25:36.095Z</time>
      </trkpt>
      <trkpt lat="48.7967" lon="2.22507">
        <ele>135</ele>
        <time>2020-12-05T16:25:37.095Z</time>
      </trkpt>
      <trkpt lat="48.7967" lon="2.22505">
        <ele>136</ele>
        <time>2020-12-05T16:25:38.095Z</time>
      </trkpt>
      <trkpt lat="48.79671" lon="2.22503">
        <ele>137</ele>
        <time>2020-12-05T16:25:39.095Z</time>
      </trkpt>
      <trkpt lat="48.79671" lon="2.22501">
        <ele>137</ele>
        <time>2020-12-05T16:25:40.094Z</time>
      </trkpt>
      <trkpt lat="48.79671" lon="2.225">
        <ele>138</ele>
        <time>2020-12-05T16:25:41.095Z</time>
      </trkpt>
      <trkpt lat="48.79671" lon="2.22498">
        <ele>139</ele>
        <time>2020-12-05T16:25:42.095Z</time>
      </trkpt>
      <trkpt lat="48.79671" lon="2.22496">
        <ele>140</ele>
        <time>2020-12-05T16:25:43.095Z</time>
      </trkpt>
      <trkpt lat="48.79671" lon="2.22493">
        <ele>141</ele>
        <time>2020-12-05T16:25:44.095Z</time>
      </trkpt>
      <trkpt lat="48.79672" lon="2.2249">
        <ele>142</ele>
        <time>2020-12-05T16:25:45.095Z</time>
      </trkpt>
      <trkpt lat="48.79672" lon="2.22487">
        <ele>142</ele>
        <time>2020-12-05T16:25:46.095Z</time>
      </trkpt>
      <trkpt lat="48.79673" lon="2.22485">
        <ele>142</ele>
        <time>2020-12-05T16:25:47.094Z</time>
      </trkpt>
      <trkpt lat="48.79673" lon="2.22483">
        <ele>142</ele>
        <time>2020-12-05T16:25:48.095Z</time>
      </trkpt>
      <trkpt lat="48.79672" lon="2.2248">
        <ele>141</ele>
        <time>2020-12-05T16:25:49.095Z</time>
      </trkpt>
      <trkpt lat="48.79672" lon="2.22478">
        <ele>141</ele>
        <time>2020-12-05T16:25:50.095Z</time>
      </trkpt>
      <trkpt lat="48.79672" lon="2.22477">
        <ele>141</ele>
        <time>2020-12-05T16:25:51.094Z</time>
      </trkpt>
      <trkpt lat="48.79672" lon="2.22475">
        <ele>140</ele>
        <time>2020-12-05T16:25:52.095Z</time>
      </trkpt>
      <trkpt lat="48.79673" lon="2.22475">
        <ele>140</ele>
        <time>2020-12-05T16:25:53.094Z</time>
      </trkpt>
      <trkpt lat="48.79673" lon="2.22473">
        <ele>140</ele>
        <time>2020-12-05T16:25:54.094Z</time>
      </trkpt>
      <trkpt lat="48.79673" lon="2.22471">
        <ele>140</ele>
        <time>2020-12-05T16:25:55.095Z</time>
      </trkpt>
      <trkpt lat="48.79674" lon="2.22469">
        <ele>139</ele>
        <time>2020-12-05T16:25:56.095Z</time>
      </trkpt>
      <trkpt lat="48.79674" lon="2.22466">
        <ele>139</ele>
        <time>2020-12-05T16:25:57.094Z</time>
      </trkpt>
      <trkpt lat="48.79674" lon="2.22464">
        <ele>139</ele>
        <time>2020-12-05T16:25:58.094Z</time>
      </trkpt>
      <trkpt lat="48.79675" lon="2.22463">
        <ele>139</ele>
        <time>2020-12-05T16:25:59.094Z</time>
      </trkpt>
      <trkpt lat="48.79675" lon="2.22461">
        <ele>139</ele>
        <time>2020-12-05T16:26:00.094Z</time>
      </trkpt>
      <trkpt lat="48.79675" lon="2.2246">
        <ele>139</ele>
        <time>2020-12-05T16:26:01.095Z</time>
      </trkpt>
      <trkpt lat="48.79675" lon="2.22457">
        <ele>139</ele>
        <time>2020-12-05T16:26:02.095Z</time>
      </trkpt>
      <trkpt lat="48.79675" lon="2.22455">
        <ele>139</ele>
        <time>2020-12-05T16:26:03.094Z</time>
      </trkpt>
      <trkpt lat="48.79675" lon="2.22453">
        <ele>139</ele>
        <time>2020-12-05T16:26:04.095Z</time>
      </trkpt>
      <trkpt lat="48.79676" lon="2.22452">
        <ele>139</ele>
        <time>2020-12-05T16:26:05.095Z</time>
      </trkpt>
      <trkpt lat="48.79676" lon="2.22451">
        <ele>139</ele>
        <time>2020-12-05T16:26:06.094Z</time>
      </trkpt>
      <trkpt lat="48.79677" lon="2.22449">
        <ele>140</ele>
        <time>2020-12-05T16:26:07.095Z</time>
      </trkpt>
      <trkpt lat="48.79677" lon="2.22448">
        <ele>140</ele>
        <time>2020-12-05T16:26:08.095Z</time>
      </trkpt>
      <trkpt lat="48.79677" lon="2.22447">
        <ele>140</ele>
        <time>2020-12-05T16:26:09.095Z</time>
      </trkpt>
      <trkpt lat="48.79677" lon="2.22446">
        <ele>141</ele>
        <time>2020-12-05T16:26:10.095Z</time>
      </trkpt>
      <trkpt lat="48.79677" lon="2.22444">
        <ele>141</ele>
        <time>2020-12-05T16:26:11.094Z</time>
      </trkpt>
      <trkpt lat="48.79677" lon="2.22442">
        <ele>141</ele>
        <time>2020-12-05T16:26:12.095Z</time>
      </trkpt>
      <trkpt lat="48.79677" lon="2.22441">
        <ele>142</ele>
        <time>2020-12-05T16:26:13.095Z</time>
      </trkpt>
      <trkpt lat="48.79678" lon="2.2244">
        <ele>142</ele>
        <time>2020-12-05T16:26:14.095Z</time>
      </trkpt>
      <trkpt lat="48.79678" lon="2.22439">
        <ele>142</ele>
        <time>2020-12-05T16:26:15.095Z</time>
      </trkpt>
      <trkpt lat="48.79678" lon="2.22438">
        <ele>143</ele>
        <time>2020-12-05T16:26:16.094Z</time>
      </trkpt>
      <trkpt lat="48.79678" lon="2.22437">
        <ele>143</ele>
        <time>2020-12-05T16:26:17.094Z</time>
      </trkpt>
      <trkpt lat="48.79678" lon="2.22436">
        <ele>143</ele>
        <time>2020-12-05T16:26:18.095Z</time>
      </trkpt>
      <trkpt lat="48.79679" lon="2.22435">
        <ele>143</ele>
        <time>2020-12-05T16:26:19.095Z</time>
      </trkpt>
      <trkpt lat="48.7968" lon="2.22434">
        <ele>143</ele>
        <time>2020-12-05T16:26:20.095Z</time>
      </trkpt>
      <trkpt lat="48.79681" lon="2.22434">
        <ele>142</ele>
        <time>2020-12-05T16:26:21.095Z</time>
      </trkpt>
      <trkpt lat="48.79681" lon="2.22433">
        <ele>141</ele>
        <time>2020-12-05T16:26:22.095Z</time>
      </trkpt>
      <trkpt lat="48.79682" lon="2.22432">
        <ele>141</ele>
        <time>2020-12-05T16:26:23.094Z</time>
      </trkpt>
      <trkpt lat="48.79683" lon="2.22432">
        <ele>140</ele>
        <time>2020-12-05T16:26:24.094Z</time>
      </trkpt>
      <trkpt lat="48.79683" lon="2.22432">
        <ele>139</ele>
        <time>2020-12-05T16:26:25.095Z</time>
      </trkpt>
      <trkpt lat="48.79683" lon="2.22431">
        <ele>138</ele>
        <time>2020-12-05T16:26:26.094Z</time>
      </trkpt>
      <trkpt lat="48.79683" lon="2.22431">
        <ele>137</ele>
        <time>2020-12-05T16:26:27.094Z</time>
      </trkpt>
      <trkpt lat="48.79683" lon="2.22429">
        <ele>136</ele>
        <time>2020-12-05T16:26:28.095Z</time>
      </trkpt>
      <trkpt lat="48.79682" lon="2.22429">
        <ele>137</ele>
        <time>2020-12-05T16:26:29.094Z</time>
      </trkpt>
      <trkpt lat="48.79683" lon="2.22428">
        <ele>137</ele>
        <time>2020-12-05T16:26:30.094Z</time>
      </trkpt>
      <trkpt lat="48.79683" lon="2.22426">
        <ele>137</ele>
        <time>2020-12-05T16:26:31.094Z</time>
      </trkpt>
      <trkpt lat="48.79683" lon="2.22425">
        <ele>138</ele>
        <time>2020-12-05T16:26:32.094Z</time>
      </trkpt>
      <trkpt lat="48.79683" lon="2.22424">
        <ele>138</ele>
        <time>2020-12-05T16:26:33.094Z</time>
      </trkpt>
      <trkpt lat="48.79683" lon="2.22423">
        <ele>139</ele>
        <time>2020-12-05T16:26:34.094Z</time>
      </trkpt>
      <trkpt lat="48.79683" lon="2.22422">
        <ele>139</ele>
        <time>2020-12-05T16:26:35.094Z</time>
      </trkpt>
      <trkpt lat="48.79684" lon="2.2242">
        <ele>140</ele>
        <time>2020-12-05T16:26:36.095Z</time>
      </trkpt>
      <trkpt lat="48.79684" lon="2.22419">
        <ele>140</ele>
        <time>2020-12-05T16:26:37.095Z</time>
      </trkpt>
      <trkpt lat="48.79685" lon="2.22417">
        <ele>140</ele>
        <time>2020-12-05T16:26:38.095Z</time>
      </trkpt>
      <trkpt lat="48.79685" lon="2.22416">
        <ele>141</ele>
        <time>2020-12-05T16:26:39.094Z</time>
      </trkpt>
      <trkpt lat="48.79685" lon="2.22415">
        <ele>141</ele>
        <time>2020-12-05T16:26:40.095Z</time>
      </trkpt>
      <trkpt lat="48.79685" lon="2.22413">
        <ele>141</ele>
        <time>2020-12-05T16:26:41.095Z</time>
      </trkpt>
      <trkpt lat="48.79684" lon="2.2241">
        <ele>142</ele>
        <time>2020-12-05T16:26:42.095Z</time>
      </trkpt>
      <trkpt lat="48.79684" lon="2.22408">
        <ele>142</ele>
        <time>2020-12-05T16:26:43.095Z</time>
      </trkpt>
      <trkpt lat="48.79684" lon="2.22406">
        <ele>143</ele>
        <time>2020-12-05T16:26:44.095Z</time>
      </trkpt>
      <trkpt lat="48.79684" lon="2.22405">
        <ele>142</ele>
        <time>2020-12-05T16:26:45.095Z</time>
      </trkpt>
      <trkpt lat="48.79684" lon="2.22404">
        <ele>142</ele>
        <time>2020-12-05T16:26:46.094Z</time>
      </trkpt>
      <trkpt lat="48.79684" lon="2.22402">
        <ele>142</ele>
        <time>2020-12-05T16:26:47.094Z</time>
      </trkpt>
      <trkpt lat="48.79684" lon="2.224">
        <ele>142</ele>
        <time>2020-12-05T16:26:48.095Z</time>
      </trkpt>
      <trkpt lat="48.79684" lon="2.22399">
        <ele>142</ele>
        <time>2020-12-05T16:26:49.095Z</time>
      </trkpt>
      <trkpt lat="48.79684" lon="2.22397">
        <ele>142</ele>
        <time>2020-12-05T16:26:50.094Z</time>
      </trkpt>
      <trkpt lat="48.79684" lon="2.22395">
        <ele>142</ele>
        <time>2020-12-05T16:26:51.094Z</time>
      </trkpt>
      <trkpt lat="48.79685" lon="2.22393">
        <ele>142</ele>
        <time>2020-12-05T16:26:52.094Z</time>
      </trkpt>
      <trkpt lat="48.79686" lon="2.22391">
        <ele>142</ele>
        <time>2020-12-05T16:26:53.095Z</time>
      </trkpt>
      <trkpt lat="48.79688" lon="2.22391">
        <ele>142</ele>
        <time>2020-12-05T16:26:54.095Z</time>
      </trkpt>
      <trkpt lat="48.79689" lon="2.22389">
        <ele>142</ele>
        <time>2020-12-05T16:26:55.095Z</time>
      </trkpt>
      <trkpt lat="48.7969" lon="2.22386">
        <ele>143</ele>
        <time>2020-12-05T16:26:56.095Z</time>
      </trkpt>
      <trkpt lat="48.79691" lon="2.22384">
        <ele>143</ele>
        <time>2020-12-05T16:26:57.095Z</time>
      </trkpt>
      <trkpt lat="48.79692" lon="2.22381">
        <ele>143</ele>
        <time>2020-12-05T16:26:58.095Z</time>
      </trkpt>
      <trkpt lat="48.79692" lon="2.22379">
        <ele>143</ele>
        <time>2020-12-05T16:26:59.095Z</time>
      </trkpt>
      <trkpt lat="48.79692" lon="2.22377">
        <ele>143</ele>
        <time>2020-12-05T16:27:00.094Z</time>
      </trkpt>
      <trkpt lat="48.79692" lon="2.22376">
        <ele>143</ele>
        <time>2020-12-05T16:27:01.094Z</time>
      </trkpt>
      <trkpt lat="48.79692" lon="2.22374">
        <ele>144</ele>
        <time>2020-12-05T16:27:02.094Z</time>
      </trkpt>
      <trkpt lat="48.79692" lon="2.22372">
        <ele>144</ele>
        <time>2020-12-05T16:27:03.095Z</time>
      </trkpt>
      <trkpt lat="48.79692" lon="2.2237">
        <ele>144</ele>
        <time>2020-12-05T16:27:04.095Z</time>
      </trkpt>
      <trkpt lat="48.79692" lon="2.22368">
        <ele>144</ele>
        <time>2020-12-05T16:27:05.095Z</time>
      </trkpt>
      <trkpt lat="48.79692" lon="2.22366">
        <ele>144</ele>
        <time>2020-12-05T16:27:06.095Z</time>
      </trkpt>
      <trkpt lat="48.79692" lon="2.22364">
        <ele>143</ele>
        <time>2020-12-05T16:27:07.094Z</time>
      </trkpt>
      <trkpt lat="48.79692" lon="2.22361">
        <ele>143</ele>
        <time>2020-12-05T16:27:08.095Z</time>
      </trkpt>
      <trkpt lat="48.79692" lon="2.22359">
        <ele>143</ele>
        <time>2020-12-05T16:27:09.095Z</time>
      </trkpt>
      <trkpt lat="48.79691" lon="2.22356">
        <ele>143</ele>
        <time>2020-12-05T16:27:10.095Z</time>
      </trkpt>
      <trkpt lat="48.79691" lon="2.22353">
        <ele>143</ele>
        <time>2020-12-05T16:27:11.095Z</time>
      </trkpt>
      <trkpt lat="48.79692" lon="2.22351">
        <ele>143</ele>
        <time>2020-12-05T16:27:12.095Z</time>
      </trkpt>
      <trkpt lat="48.79692" lon="2.2235">
        <ele>143</ele>
        <time>2020-12-05T16:27:13.094Z</time>
      </trkpt>
      <trkpt lat="48.79692" lon="2.22348">
        <ele>143</ele>
        <time>2020-12-05T16:27:14.095Z</time>
      </trkpt>
      <trkpt lat="48.79692" lon="2.22347">
        <ele>144</ele>
        <time>2020-12-05T16:27:15.095Z</time>
      </trkpt>
      <trkpt lat="48.79692" lon="2.22345">
        <ele>144</ele>
        <time>2020-12-05T16:27:16.095Z</time>
      </trkpt>
      <trkpt lat="48.79692" lon="2.22343">
        <ele>144</ele>
        <time>2020-12-05T16:27:17.094Z</time>
      </trkpt>
      <trkpt lat="48.79692" lon="2.22342">
        <ele>145</ele>
        <time>2020-12-05T16:27:18.094Z</time>
      </trkpt>
      <trkpt lat="48.79692" lon="2.2234">
        <ele>145</ele>
        <time>2020-12-05T16:27:19.095Z</time>
      </trkpt>
      <trkpt lat="48.79692" lon="2.22337">
        <ele>146</ele>
        <time>2020-12-05T16:27:20.095Z</time>
      </trkpt>
      <trkpt lat="48.79692" lon="2.22335">
        <ele>146</ele>
        <time>2020-12-05T16:27:21.095Z</time>
      </trkpt>
      <trkpt lat="48.79692" lon="2.22332">
        <ele>147</ele>
        <time>2020-12-05T16:27:22.095Z</time>
      </trkpt>
      <trkpt lat="48.79691" lon="2.22329">
        <ele>148</ele>
        <time>2020-12-05T16:27:23.095Z</time>
      </trkpt>
      <trkpt lat="48.79691" lon="2.22328">
        <ele>148</ele>
        <time>2020-12-05T16:27:24.095Z</time>
      </trkpt>
      <trkpt lat="48.79691" lon="2.22325">
        <ele>149</ele>
        <time>2020-12-05T16:27:25.095Z</time>
      </trkpt>
      <trkpt lat="48.79691" lon="2.22324">
        <ele>149</ele>
        <time>2020-12-05T16:27:26.095Z</time>
      </trkpt>
      <trkpt lat="48.79692" lon="2.22323">
        <ele>149</ele>
        <time>2020-12-05T16:27:27.094Z</time>
      </trkpt>
      <trkpt lat="48.79692" lon="2.22322">
        <ele>149</ele>
        <time>2020-12-05T16:27:28.095Z</time>
      </trkpt>
      <trkpt lat="48.79692" lon="2.2232">
        <ele>149</ele>
        <time>2020-12-05T16:27:29.095Z</time>
      </trkpt>
      <trkpt lat="48.79692" lon="2.22318">
        <ele>149</ele>
        <time>2020-12-05T16:27:30.095Z</time>
      </trkpt>
      <trkpt lat="48.79691" lon="2.22316">
        <ele>149</ele>
        <time>2020-12-05T16:27:31.095Z</time>
      </trkpt>
      <trkpt lat="48.79691" lon="2.22314">
        <ele>150</ele>
        <time>2020-12-05T16:27:32.095Z</time>
      </trkpt>
      <trkpt lat="48.79692" lon="2.22312">
        <ele>150</ele>
        <time>2020-12-05T16:27:33.095Z</time>
      </trkpt>
      <trkpt lat="48.79692" lon="2.22311">
        <ele>150</ele>
        <time>2020-12-05T16:27:34.095Z</time>
      </trkpt>
      <trkpt lat="48.79692" lon="2.22309">
        <ele>149</ele>
        <time>2020-12-05T16:27:35.095Z</time>
      </trkpt>
      <trkpt lat="48.79693" lon="2.22307">
        <ele>149</ele>
        <time>2020-12-05T16:27:36.095Z</time>
      </trkpt>
      <trkpt lat="48.79693" lon="2.22304">
        <ele>149</ele>
        <time>2020-12-05T16:27:37.095Z</time>
      </trkpt>
      <trkpt lat="48.79694" lon="2.22302">
        <ele>149</ele>
        <time>2020-12-05T16:27:38.094Z</time>
      </trkpt>
      <trkpt lat="48.79694" lon="2.22299">
        <ele>148</ele>
        <time>2020-12-05T16:27:39.094Z</time>
      </trkpt>
      <trkpt lat="48.79694" lon="2.22297">
        <ele>148</ele>
        <time>2020-12-05T16:27:40.095Z</time>
      </trkpt>
      <trkpt lat="48.79694" lon="2.22295">
        <ele>147</ele>
        <time>2020-12-05T16:27:41.095Z</time>
      </trkpt>
      <trkpt lat="48.79695" lon="2.22294">
        <ele>147</ele>
        <time>2020-12-05T16:27:42.095Z</time>
      </trkpt>
      <trkpt lat="48.79695" lon="2.22293">
        <ele>147</ele>
        <time>2020-12-05T16:27:43.095Z</time>
      </trkpt>
      <trkpt lat="48.79695" lon="2.22292">
        <ele>147</ele>
        <time>2020-12-05T16:27:44.095Z</time>
      </trkpt>
      <trkpt lat="48.79695" lon="2.22291">
        <ele>147</ele>
        <time>2020-12-05T16:27:45.094Z</time>
      </trkpt>
      <trkpt lat="48.79694" lon="2.2229">
        <ele>147</ele>
        <time>2020-12-05T16:27:46.094Z</time>
      </trkpt>
      <trkpt lat="48.79694" lon="2.22289">
        <ele>147</ele>
        <time>2020-12-05T16:27:47.095Z</time>
      </trkpt>
      <trkpt lat="48.79694" lon="2.22287">
        <ele>147</ele>
        <time>2020-12-05T16:27:48.095Z</time>
      </trkpt>
      <trkpt lat="48.79694" lon="2.22286">
        <ele>147</ele>
        <time>2020-12-05T16:27:49.095Z</time>
      </trkpt>
      <trkpt lat="48.79694" lon="2.22284">
        <ele>147</ele>
        <time>2020-12-05T16:27:50.095Z</time>
      </trkpt>
      <trkpt lat="48.79695" lon="2.22282">
        <ele>147</ele>
        <time>2020-12-05T16:27:51.095Z</time>
      </trkpt>
      <trkpt lat="48.79695" lon="2.22281">
        <ele>147</ele>
        <time>2020-12-05T16:27:52.095Z</time>
      </trkpt>
      <trkpt lat="48.79695" lon="2.22279">
        <ele>147</ele>
        <time>2020-12-05T16:27:53.095Z</time>
      </trkpt>
      <trkpt lat="48.79695" lon="2.22278">
        <ele>147</ele>
        <time>2020-12-05T16:27:54.095Z</time>
      </trkpt>
      <trkpt lat="48.79696" lon="2.22277">
        <ele>148</ele>
        <time>2020-12-05T16:27:55.095Z</time>
      </trkpt>
      <trkpt lat="48.79696" lon="2.22275">
        <ele>148</ele>
        <time>2020-12-05T16:27:56.095Z</time>
      </trkpt>
      <trkpt lat="48.79696" lon="2.22273">
        <ele>148</ele>
        <time>2020-12-05T16:27:57.095Z</time>
      </trkpt>
      <trkpt lat="48.79697" lon="2.22271">
        <ele>149</ele>
        <time>2020-12-05T16:27:58.095Z</time>
      </trkpt>
      <trkpt lat="48.79697" lon="2.22271">
        <ele>149</ele>
        <time>2020-12-05T16:27:59.095Z</time>
      </trkpt>
      <trkpt lat="48.79697" lon="2.22269">
        <ele>149</ele>
        <time>2020-12-05T16:28:00.095Z</time>
      </trkpt>
      <trkpt lat="48.79697" lon="2.22267">
        <ele>150</ele>
        <time>2020-12-05T16:28:01.095Z</time>
      </trkpt>
      <trkpt lat="48.79697" lon="2.22265">
        <ele>150</ele>
        <time>2020-12-05T16:28:02.095Z</time>
      </trkpt>
      <trkpt lat="48.79697" lon="2.22262">
        <ele>151</ele>
        <time>2020-12-05T16:28:03.095Z</time>
      </trkpt>
      <trkpt lat="48.79697" lon="2.2226">
        <ele>151</ele>
        <time>2020-12-05T16:28:04.095Z</time>
      </trkpt>
      <trkpt lat="48.79697" lon="2.22259">
        <ele>152</ele>
        <time>2020-12-05T16:28:05.095Z</time>
      </trkpt>
      <trkpt lat="48.79697" lon="2.22258">
        <ele>152</ele>
        <time>2020-12-05T16:28:06.094Z</time>
      </trkpt>
      <trkpt lat="48.79696" lon="2.22257">
        <ele>152</ele>
        <time>2020-12-05T16:28:07.094Z</time>
      </trkpt>
      <trkpt lat="48.79696" lon="2.22256">
        <ele>152</ele>
        <time>2020-12-05T16:28:08.095Z</time>
      </trkpt>
      <trkpt lat="48.79696" lon="2.22255">
        <ele>153</ele>
        <time>2020-12-05T16:28:09.095Z</time>
      </trkpt>
      <trkpt lat="48.79696" lon="2.22253">
        <ele>152</ele>
        <time>2020-12-05T16:28:10.095Z</time>
      </trkpt>
      <trkpt lat="48.79696" lon="2.22251">
        <ele>152</ele>
        <time>2020-12-05T16:28:11.095Z</time>
      </trkpt>
      <trkpt lat="48.79697" lon="2.22248">
        <ele>152</ele>
        <time>2020-12-05T16:28:12.094Z</time>
      </trkpt>
      <trkpt lat="48.79697" lon="2.22245">
        <ele>152</ele>
        <time>2020-12-05T16:28:13.094Z</time>
      </trkpt>
      <trkpt lat="48.79697" lon="2.22241">
        <ele>153</ele>
        <time>2020-12-05T16:28:14.095Z</time>
      </trkpt>
      <trkpt lat="48.79697" lon="2.22238">
        <ele>153</ele>
        <time>2020-12-05T16:28:15.094Z</time>
      </trkpt>
      <trkpt lat="48.79697" lon="2.22236">
        <ele>153</ele>
        <time>2020-12-05T16:28:16.094Z</time>
      </trkpt>
      <trkpt lat="48.79698" lon="2.22234">
        <ele>154</ele>
        <time>2020-12-05T16:28:17.095Z</time>
      </trkpt>
      <trkpt lat="48.79698" lon="2.22232">
        <ele>154</ele>
        <time>2020-12-05T16:28:18.095Z</time>
      </trkpt>
      <trkpt lat="48.79699" lon="2.2223">
        <ele>154</ele>
        <time>2020-12-05T16:28:19.095Z</time>
      </trkpt>
      <trkpt lat="48.79699" lon="2.22228">
        <ele>154</ele>
        <time>2020-12-05T16:28:20.095Z</time>
      </trkpt>
      <trkpt lat="48.797" lon="2.22226">
        <ele>155</ele>
        <time>2020-12-05T16:28:21.094Z</time>
      </trkpt>
      <trkpt lat="48.797" lon="2.22223">
        <ele>155</ele>
        <time>2020-12-05T16:28:22.095Z</time>
      </trkpt>
      <trkpt lat="48.797" lon="2.22221">
        <ele>156</ele>
        <time>2020-12-05T16:28:23.095Z</time>
      </trkpt>
      <trkpt lat="48.797" lon="2.22219">
        <ele>156</ele>
        <time>2020-12-05T16:28:24.095Z</time>
      </trkpt>
      <trkpt lat="48.79701" lon="2.22217">
        <ele>156</ele>
        <time>2020-12-05T16:28:25.095Z</time>
      </trkpt>
      <trkpt lat="48.79702" lon="2.22215">
        <ele>157</ele>
        <time>2020-12-05T16:28:26.094Z</time>
      </trkpt>
      <trkpt lat="48.79702" lon="2.22214">
        <ele>157</ele>
        <time>2020-12-05T16:28:27.095Z</time>
      </trkpt>
      <trkpt lat="48.79703" lon="2.22213">
        <ele>157</ele>
        <time>2020-12-05T16:28:28.095Z</time>
      </trkpt>
      <trkpt lat="48.79703" lon="2.22212">
        <ele>157</ele>
        <time>2020-12-05T16:28:29.095Z</time>
      </trkpt>
      <trkpt lat="48.79704" lon="2.22211">
        <ele>156</ele>
        <time>2020-12-05T16:28:30.095Z</time>
      </trkpt>
      <trkpt lat="48.79704" lon="2.2221">
        <ele>156</ele>
        <time>2020-12-05T16:28:31.095Z</time>
      </trkpt>
      <trkpt lat="48.79704" lon="2.22209">
        <ele>156</ele>
        <time>2020-12-05T16:28:32.094Z</time>
      </trkpt>
      <trkpt lat="48.79703" lon="2.22206">
        <ele>156</ele>
        <time>2020-12-05T16:28:33.094Z</time>
      </trkpt>
      <trkpt lat="48.79702" lon="2.22203">
        <ele>156</ele>
        <time>2020-12-05T16:28:34.095Z</time>
      </trkpt>
      <trkpt lat="48.79702" lon="2.22201">
        <ele>156</ele>
        <time>2020-12-05T16:28:35.095Z</time>
      </trkpt>
      <trkpt lat="48.79702" lon="2.222">
        <ele>156</ele>
        <time>2020-12-05T16:28:36.095Z</time>
      </trkpt>
      <trkpt lat="48.79701" lon="2.22198">
        <ele>156</ele>
        <time>2020-12-05T16:28:37.095Z</time>
      </trkpt>
      <trkpt lat="48.797" lon="2.22196">
        <ele>157</ele>
        <time>2020-12-05T16:28:38.095Z</time>
      </trkpt>
      <trkpt lat="48.797" lon="2.22194">
        <ele>157</ele>
        <time>2020-12-05T16:28:39.095Z</time>
      </trkpt>
      <trkpt lat="48.797" lon="2.22191">
        <ele>158</ele>
        <time>2020-12-05T16:28:40.095Z</time>
      </trkpt>
      <trkpt lat="48.79701" lon="2.22189">
        <ele>158</ele>
        <time>2020-12-05T16:28:41.095Z</time>
      </trkpt>
      <trkpt lat="48.79701" lon="2.22188">
        <ele>159</ele>
        <time>2020-12-05T16:28:42.094Z</time>
      </trkpt>
      <trkpt lat="48.79702" lon="2.22186">
        <ele>158</ele>
        <time>2020-12-05T16:28:43.094Z</time>
      </trkpt>
      <trkpt lat="48.79703" lon="2.22184">
        <ele>158</ele>
        <time>2020-12-05T16:28:44.095Z</time>
      </trkpt>
      <trkpt lat="48.79704" lon="2.22182">
        <ele>158</ele>
        <time>2020-12-05T16:28:45.094Z</time>
      </trkpt>
      <trkpt lat="48.79705" lon="2.2218">
        <ele>159</ele>
        <time>2020-12-05T16:28:46.095Z</time>
      </trkpt>
      <trkpt lat="48.79705" lon="2.22178">
        <ele>159</ele>
        <time>2020-12-05T16:28:47.094Z</time>
      </trkpt>
      <trkpt lat="48.79706" lon="2.22175">
        <ele>159</ele>
        <time>2020-12-05T16:28:48.095Z</time>
      </trkpt>
      <trkpt lat="48.79707" lon="2.22173">
        <ele>160</ele>
        <time>2020-12-05T16:28:49.095Z</time>
      </trkpt>
      <trkpt lat="48.79708" lon="2.22172">
        <ele>160</ele>
        <time>2020-12-05T16:28:50.094Z</time>
      </trkpt>
      <trkpt lat="48.79708" lon="2.22169">
        <ele>160</ele>
        <time>2020-12-05T16:28:51.094Z</time>
      </trkpt>
      <trkpt lat="48.79708" lon="2.22167">
        <ele>159</ele>
        <time>2020-12-05T16:28:52.094Z</time>
      </trkpt>
      <trkpt lat="48.79709" lon="2.22165">
        <ele>159</ele>
        <time>2020-12-05T16:28:53.095Z</time>
      </trkpt>
      <trkpt lat="48.7971" lon="2.22163">
        <ele>158</ele>
        <time>2020-12-05T16:28:54.095Z</time>
      </trkpt>
      <trkpt lat="48.7971" lon="2.22162">
        <ele>158</ele>
        <time>2020-12-05T16:28:55.095Z</time>
      </trkpt>
      <trkpt lat="48.79711" lon="2.2216">
        <ele>158</ele>
        <time>2020-12-05T16:28:56.095Z</time>
      </trkpt>
      <trkpt lat="48.79712" lon="2.22159">
        <ele>158</ele>
        <time>2020-12-05T16:28:57.094Z</time>
      </trkpt>
      <trkpt lat="48.79712" lon="2.22157">
        <ele>158</ele>
        <time>2020-12-05T16:28:58.094Z</time>
      </trkpt>
      <trkpt lat="48.79712" lon="2.22156">
        <ele>158</ele>
        <time>2020-12-05T16:28:59.095Z</time>
      </trkpt>
      <trkpt lat="48.79713" lon="2.22154">
        <ele>158</ele>
        <time>2020-12-05T16:29:00.095Z</time>
      </trkpt>
      <trkpt lat="48.79713" lon="2.22152">
        <ele>157</ele>
        <time>2020-12-05T16:29:01.095Z</time>
      </trkpt>
      <trkpt lat="48.79714" lon="2.22151">
        <ele>157</ele>
        <time>2020-12-05T16:29:02.095Z</time>
      </trkpt>
      <trkpt lat="48.79714" lon="2.22149">
        <ele>157</ele>
        <time>2020-12-05T16:29:03.095Z</time>
      </trkpt>
      <trkpt lat="48.79715" lon="2.22148">
        <ele>156</ele>
        <time>2020-12-05T16:29:04.095Z</time>
      </trkpt>
      <trkpt lat="48.79716" lon="2.22147">
        <ele>156</ele>
        <time>2020-12-05T16:29:05.094Z</time>
      </trkpt>
      <trkpt lat="48.79716" lon="2.22145">
        <ele>155</ele>
        <time>2020-12-05T16:29:06.095Z</time>
      </trkpt>
      <trkpt lat="48.79716" lon="2.22143">
        <ele>155</ele>
        <time>2020-12-05T16:29:07.094Z</time>
      </trkpt>
      <trkpt lat="48.79717" lon="2.22142">
        <ele>154</ele>
        <time>2020-12-05T16:29:08.095Z</time>
      </trkpt>
      <trkpt lat="48.79718" lon="2.2214">
        <ele>154</ele>
        <time>2020-12-05T16:29:09.095Z</time>
      </trkpt>
      <trkpt lat="48.79719" lon="2.22139">
        <ele>154</ele>
        <time>2020-12-05T16:29:10.095Z</time>
      </trkpt>
      <trkpt lat="48.7972" lon="2.22137">
        <ele>154</ele>
        <time>2020-12-05T16:29:11.094Z</time>
      </trkpt>
      <trkpt lat="48.7972" lon="2.22136">
        <ele>154</ele>
        <time>2020-12-05T16:29:12.094Z</time>
      </trkpt>
      <trkpt lat="48.7972" lon="2.22135">
        <ele>155</ele>
        <time>2020-12-05T16:29:13.095Z</time>
      </trkpt>
      <trkpt lat="48.79721" lon="2.22133">
        <ele>155</ele>
        <time>2020-12-05T16:29:14.095Z</time>
      </trkpt>
      <trkpt lat="48.79722" lon="2.22131">
        <ele>155</ele>
        <time>2020-12-05T16:29:15.095Z</time>
      </trkpt>
      <trkpt lat="48.79722" lon="2.2213">
        <ele>155</ele>
        <time>2020-12-05T16:29:16.094Z</time>
      </trkpt>
      <trkpt lat="48.79723" lon="2.22129">
        <ele>156</ele>
        <time>2020-12-05T16:29:17.095Z</time>
      </trkpt>
      <trkpt lat="48.79723" lon="2.22128">
        <ele>156</ele>
        <time>2020-12-05T16:29:18.095Z</time>
      </trkpt>
      <trkpt lat="48.79724" lon="2.22127">
        <ele>156</ele>
        <time>2020-12-05T16:29:19.094Z</time>
      </trkpt>
      <trkpt lat="48.79724" lon="2.22126">
        <ele>156</ele>
        <time>2020-12-05T16:29:20.095Z</time>
      </trkpt>
      <trkpt lat="48.79725" lon="2.22125">
        <ele>155</ele>
        <time>2020-12-05T16:29:21.095Z</time>
      </trkpt>
      <trkpt lat="48.79726" lon="2.22124">
        <ele>155</ele>
        <time>2020-12-05T16:29:22.094Z</time>
      </trkpt>
      <trkpt lat="48.79727" lon="2.22123">
        <ele>154</ele>
        <time>2020-12-05T16:29:23.094Z</time>
      </trkpt>
      <trkpt lat="48.79727" lon="2.22122">
        <ele>154</ele>
        <time>2020-12-05T16:29:24.094Z</time>
      </trkpt>
      <trkpt lat="48.79728" lon="2.2212">
        <ele>154</ele>
        <time>2020-12-05T16:29:25.095Z</time>
      </trkpt>
      <trkpt lat="48.79728" lon="2.22119">
        <ele>154</ele>
        <time>2020-12-05T16:29:26.095Z</time>
      </trkpt>
      <trkpt lat="48.79729" lon="2.22118">
        <ele>154</ele>
        <time>2020-12-05T16:29:27.094Z</time>
      </trkpt>
      <trkpt lat="48.79729" lon="2.22118">
        <ele>154</ele>
        <time>2020-12-05T16:29:28.094Z</time>
      </trkpt>
      <trkpt lat="48.7973" lon="2.22117">
        <ele>154</ele>
        <time>2020-12-05T16:29:29.094Z</time>
      </trkpt>
      <trkpt lat="48.7973" lon="2.22115">
        <ele>153</ele>
        <time>2020-12-05T16:29:30.094Z</time>
      </trkpt>
      <trkpt lat="48.79731" lon="2.22114">
        <ele>153</ele>
        <time>2020-12-05T16:29:31.095Z</time>
      </trkpt>
      <trkpt lat="48.79731" lon="2.22112">
        <ele>153</ele>
        <time>2020-12-05T16:29:32.095Z</time>
      </trkpt>
      <trkpt lat="48.79731" lon="2.22111">
        <ele>153</ele>
        <time>2020-12-05T16:29:33.095Z</time>
      </trkpt>
      <trkpt lat="48.79732" lon="2.22109">
        <ele>152</ele>
        <time>2020-12-05T16:29:34.095Z</time>
      </trkpt>
      <trkpt lat="48.79732" lon="2.22107">
        <ele>152</ele>
        <time>2020-12-05T16:29:35.095Z</time>
      </trkpt>
      <trkpt lat="48.79732" lon="2.22106">
        <ele>152</ele>
        <time>2020-12-05T16:29:36.094Z</time>
      </trkpt>
      <trkpt lat="48.79733" lon="2.22104">
        <ele>152</ele>
        <time>2020-12-05T16:29:37.094Z</time>
      </trkpt>
      <trkpt lat="48.79733" lon="2.22103">
        <ele>152</ele>
        <time>2020-12-05T16:29:38.094Z</time>
      </trkpt>
      <trkpt lat="48.79734" lon="2.22101">
        <ele>152</ele>
        <time>2020-12-05T16:29:39.095Z</time>
      </trkpt>
      <trkpt lat="48.79735" lon="2.221">
        <ele>151</ele>
        <time>2020-12-05T16:29:40.095Z</time>
      </trkpt>
      <trkpt lat="48.79736" lon="2.22098">
        <ele>151</ele>
        <time>2020-12-05T16:29:41.095Z</time>
      </trkpt>
      <trkpt lat="48.79736" lon="2.22097">
        <ele>151</ele>
        <time>2020-12-05T16:29:42.095Z</time>
      </trkpt>
      <trkpt lat="48.79736" lon="2.22095">
        <ele>151</ele>
        <time>2020-12-05T16:29:43.095Z</time>
      </trkpt>
      <trkpt lat="48.79737" lon="2.22094">
        <ele>150</ele>
        <time>2020-12-05T16:29:44.095Z</time>
      </trkpt>
      <trkpt lat="48.79737" lon="2.22092">
        <ele>150</ele>
        <time>2020-12-05T16:29:45.094Z</time>
      </trkpt>
      <trkpt lat="48.79737" lon="2.2209">
        <ele>149</ele>
        <time>2020-12-05T16:29:46.094Z</time>
      </trkpt>
      <trkpt lat="48.79738" lon="2.22088">
        <ele>149</ele>
        <time>2020-12-05T16:29:47.095Z</time>
      </trkpt>
      <trkpt lat="48.79738" lon="2.22087">
        <ele>149</ele>
        <time>2020-12-05T16:29:48.095Z</time>
      </trkpt>
      <trkpt lat="48.79739" lon="2.22085">
        <ele>149</ele>
        <time>2020-12-05T16:29:49.095Z</time>
      </trkpt>
      <trkpt lat="48.79739" lon="2.22083">
        <ele>150</ele>
        <time>2020-12-05T16:29:50.095Z</time>
      </trkpt>
      <trkpt lat="48.7974" lon="2.2208">
        <ele>150</ele>
        <time>2020-12-05T16:29:51.095Z</time>
      </trkpt>
      <trkpt lat="48.79741" lon="2.22078">
        <ele>150</ele>
        <time>2020-12-05T16:29:52.095Z</time>
      </trkpt>
      <trkpt lat="48.79741" lon="2.22076">
        <ele>150</ele>
        <time>2020-12-05T16:29:53.095Z</time>
      </trkpt>
      <trkpt lat="48.79741" lon="2.22074">
        <ele>151</ele>
        <time>2020-12-05T16:29:54.095Z</time>
      </trkpt>
      <trkpt lat="48.79742" lon="2.22071">
        <ele>151</ele>
        <time>2020-12-05T16:29:55.095Z</time>
      </trkpt>
      <trkpt lat="48.79742" lon="2.22069">
        <ele>150</ele>
        <time>2020-12-05T16:29:56.095Z</time>
      </trkpt>
      <trkpt lat="48.79743" lon="2.22067">
        <ele>150</ele>
        <time>2020-12-05T16:29:57.095Z</time>
      </trkpt>
      <trkpt lat="48.79743" lon="2.22065">
        <ele>150</ele>
        <time>2020-12-05T16:29:58.094Z</time>
      </trkpt>
      <trkpt lat="48.79743" lon="2.22063">
        <ele>149</ele>
        <time>2020-12-05T16:29:59.094Z</time>
      </trkpt>
      <trkpt lat="48.79744" lon="2.22061">
        <ele>149</ele>
        <time>2020-12-05T16:30:00.094Z</time>
      </trkpt>
      <trkpt lat="48.79745" lon="2.22059">
        <ele>149</ele>
        <time>2020-12-05T16:30:01.095Z</time>
      </trkpt>
      <trkpt lat="48.79745" lon="2.22057">
        <ele>148</ele>
        <time>2020-12-05T16:30:02.095Z</time>
      </trkpt>
      <trkpt lat="48.79746" lon="2.22056">
        <ele>148</ele>
        <time>2020-12-05T16:30:03.094Z</time>
      </trkpt>
      <trkpt lat="48.79748" lon="2.22054">
        <ele>148</ele>
        <time>2020-12-05T16:30:04.094Z</time>
      </trkpt>
      <trkpt lat="48.79748" lon="2.22053">
        <ele>148</ele>
        <time>2020-12-05T16:30:05.094Z</time>
      </trkpt>
      <trkpt lat="48.79748" lon="2.22052">
        <ele>148</ele>
        <time>2020-12-05T16:30:06.094Z</time>
      </trkpt>
      <trkpt lat="48.79748" lon="2.2205">
        <ele>148</ele>
        <time>2020-12-05T16:30:07.094Z</time>
      </trkpt>
      <trkpt lat="48.79749" lon="2.22048">
        <ele>148</ele>
        <time>2020-12-05T16:30:08.095Z</time>
      </trkpt>
      <trkpt lat="48.7975" lon="2.22047">
        <ele>148</ele>
        <time>2020-12-05T16:30:09.094Z</time>
      </trkpt>
      <trkpt lat="48.7975" lon="2.22045">
        <ele>148</ele>
        <time>2020-12-05T16:30:10.094Z</time>
      </trkpt>
      <trkpt lat="48.79751" lon="2.22044">
        <ele>148</ele>
        <time>2020-12-05T16:30:11.094Z</time>
      </trkpt>
      <trkpt lat="48.79752" lon="2.22042">
        <ele>148</ele>
        <time>2020-12-05T16:30:12.094Z</time>
      </trkpt>
      <trkpt lat="48.79753" lon="2.22041">
        <ele>148</ele>
        <time>2020-12-05T16:30:13.094Z</time>
      </trkpt>
      <trkpt lat="48.79754" lon="2.22038">
        <ele>148</ele>
        <time>2020-12-05T16:30:14.094Z</time>
      </trkpt>
      <trkpt lat="48.79755" lon="2.22035">
        <ele>148</ele>
        <time>2020-12-05T16:30:15.094Z</time>
      </trkpt>
      <trkpt lat="48.79755" lon="2.22032">
        <ele>147</ele>
        <time>2020-12-05T16:30:16.095Z</time>
      </trkpt>
      <trkpt lat="48.79756" lon="2.22029">
        <ele>147</ele>
        <time>2020-12-05T16:30:17.094Z</time>
      </trkpt>
      <trkpt lat="48.79756" lon="2.22027">
        <ele>147</ele>
        <time>2020-12-05T16:30:18.095Z</time>
      </trkpt>
      <trkpt lat="48.79756" lon="2.22025">
        <ele>147</ele>
        <time>2020-12-05T16:30:19.095Z</time>
      </trkpt>
      <trkpt lat="48.79756" lon="2.22022">
        <ele>147</ele>
        <time>2020-12-05T16:30:20.095Z</time>
      </trkpt>
      <trkpt lat="48.79757" lon="2.2202">
        <ele>147</ele>
        <time>2020-12-05T16:30:21.095Z</time>
      </trkpt>
      <trkpt lat="48.79757" lon="2.22018">
        <ele>147</ele>
        <time>2020-12-05T16:30:22.095Z</time>
      </trkpt>
      <trkpt lat="48.79758" lon="2.22015">
        <ele>147</ele>
        <time>2020-12-05T16:30:23.095Z</time>
      </trkpt>
      <trkpt lat="48.79758" lon="2.22014">
        <ele>146</ele>
        <time>2020-12-05T16:30:24.095Z</time>
      </trkpt>
      <trkpt lat="48.79759" lon="2.22012">
        <ele>146</ele>
        <time>2020-12-05T16:30:25.095Z</time>
      </trkpt>
      <trkpt lat="48.7976" lon="2.22011">
        <ele>146</ele>
        <time>2020-12-05T16:30:26.095Z</time>
      </trkpt>
      <trkpt lat="48.7976" lon="2.22009">
        <ele>147</ele>
        <time>2020-12-05T16:30:27.095Z</time>
      </trkpt>
      <trkpt lat="48.79761" lon="2.22007">
        <ele>147</ele>
        <time>2020-12-05T16:30:28.095Z</time>
      </trkpt>
      <trkpt lat="48.79762" lon="2.22005">
        <ele>147</ele>
        <time>2020-12-05T16:30:29.094Z</time>
      </trkpt>
      <trkpt lat="48.79762" lon="2.22004">
        <ele>147</ele>
        <time>2020-12-05T16:30:30.094Z</time>
      </trkpt>
      <trkpt lat="48.79763" lon="2.22002">
        <ele>147</ele>
        <time>2020-12-05T16:30:31.094Z</time>
      </trkpt>
      <trkpt lat="48.79764" lon="2.22001">
        <ele>147</ele>
        <time>2020-12-05T16:30:32.094Z</time>
      </trkpt>
      <trkpt lat="48.79764" lon="2.21999">
        <ele>147</ele>
        <time>2020-12-05T16:30:33.095Z</time>
      </trkpt>
      <trkpt lat="48.79765" lon="2.21998">
        <ele>147</ele>
        <time>2020-12-05T16:30:34.095Z</time>
      </trkpt>
      <trkpt lat="48.79765" lon="2.21996">
        <ele>147</ele>
        <time>2020-12-05T16:30:35.095Z</time>
      </trkpt>
      <trkpt lat="48.79765" lon="2.21995">
        <ele>147</ele>
        <time>2020-12-05T16:30:36.094Z</time>
      </trkpt>
      <trkpt lat="48.79765" lon="2.21993">
        <ele>148</ele>
        <time>2020-12-05T16:30:37.094Z</time>
      </trkpt>
      <trkpt lat="48.79766" lon="2.21992">
        <ele>148</ele>
        <time>2020-12-05T16:30:38.094Z</time>
      </trkpt>
      <trkpt lat="48.79766" lon="2.21991">
        <ele>148</ele>
        <time>2020-12-05T16:30:39.094Z</time>
      </trkpt>
      <trkpt lat="48.79767" lon="2.21989">
        <ele>148</ele>
        <time>2020-12-05T16:30:40.095Z</time>
      </trkpt>
      <trkpt lat="48.79767" lon="2.21988">
        <ele>148</ele>
        <time>2020-12-05T16:30:41.095Z</time>
      </trkpt>
      <trkpt lat="48.79768" lon="2.21986">
        <ele>148</ele>
        <time>2020-12-05T16:30:42.094Z</time>
      </trkpt>
      <trkpt lat="48.79768" lon="2.21984">
        <ele>147</ele>
        <time>2020-12-05T16:30:43.094Z</time>
      </trkpt>
      <trkpt lat="48.79769" lon="2.21982">
        <ele>147</ele>
        <time>2020-12-05T16:30:44.095Z</time>
      </trkpt>
      <trkpt lat="48.79769" lon="2.2198">
        <ele>147</ele>
        <time>2020-12-05T16:30:45.095Z</time>
      </trkpt>
      <trkpt lat="48.7977" lon="2.21978">
        <ele>146</ele>
        <time>2020-12-05T16:30:46.095Z</time>
      </trkpt>
      <trkpt lat="48.79771" lon="2.21976">
        <ele>146</ele>
        <time>2020-12-05T16:30:47.094Z</time>
      </trkpt>
      <trkpt lat="48.79772" lon="2.21975">
        <ele>146</ele>
        <time>2020-12-05T16:30:48.095Z</time>
      </trkpt>
      <trkpt lat="48.79772" lon="2.21973">
        <ele>146</ele>
        <time>2020-12-05T16:30:49.094Z</time>
      </trkpt>
      <trkpt lat="48.79773" lon="2.21971">
        <ele>146</ele>
        <time>2020-12-05T16:30:50.094Z</time>
      </trkpt>
      <trkpt lat="48.79773" lon="2.2197">
        <ele>146</ele>
        <time>2020-12-05T16:30:51.094Z</time>
      </trkpt>
      <trkpt lat="48.79773" lon="2.21968">
        <ele>145</ele>
        <time>2020-12-05T16:30:52.094Z</time>
      </trkpt>
      <trkpt lat="48.79774" lon="2.21967">
        <ele>146</ele>
        <time>2020-12-05T16:30:53.095Z</time>
      </trkpt>
      <trkpt lat="48.79774" lon="2.21965">
        <ele>146</ele>
        <time>2020-12-05T16:30:54.095Z</time>
      </trkpt>
      <trkpt lat="48.79775" lon="2.21962">
        <ele>146</ele>
        <time>2020-12-05T16:30:55.095Z</time>
      </trkpt>
      <trkpt lat="48.79775" lon="2.21959">
        <ele>146</ele>
        <time>2020-12-05T16:30:56.095Z</time>
      </trkpt>
      <trkpt lat="48.79775" lon="2.21956">
        <ele>147</ele>
        <time>2020-12-05T16:30:57.095Z</time>
      </trkpt>
      <trkpt lat="48.79776" lon="2.21954">
        <ele>147</ele>
        <time>2020-12-05T16:30:58.095Z</time>
      </trkpt>
      <trkpt lat="48.79776" lon="2.21951">
        <ele>147</ele>
        <time>2020-12-05T16:30:59.094Z</time>
      </trkpt>
      <trkpt lat="48.79777" lon="2.21949">
        <ele>147</ele>
        <time>2020-12-05T16:31:00.095Z</time>
      </trkpt>
      <trkpt lat="48.79778" lon="2.21947">
        <ele>146</ele>
        <time>2020-12-05T16:31:01.095Z</time>
      </trkpt>
      <trkpt lat="48.79778" lon="2.21945">
        <ele>147</ele>
        <time>2020-12-05T16:31:02.094Z</time>
      </trkpt>
      <trkpt lat="48.79779" lon="2.21944">
        <ele>147</ele>
        <time>2020-12-05T16:31:03.095Z</time>
      </trkpt>
      <trkpt lat="48.79779" lon="2.21943">
        <ele>147</ele>
        <time>2020-12-05T16:31:04.094Z</time>
      </trkpt>
      <trkpt lat="48.7978" lon="2.21941">
        <ele>146</ele>
        <time>2020-12-05T16:31:05.095Z</time>
      </trkpt>
      <trkpt lat="48.7978" lon="2.2194">
        <ele>146</ele>
        <time>2020-12-05T16:31:06.095Z</time>
      </trkpt>
      <trkpt lat="48.79781" lon="2.21937">
        <ele>146</ele>
        <time>2020-12-05T16:31:07.095Z</time>
      </trkpt>
      <trkpt lat="48.79781" lon="2.21935">
        <ele>146</ele>
        <time>2020-12-05T16:31:08.094Z</time>
      </trkpt>
      <trkpt lat="48.79782" lon="2.21934">
        <ele>147</ele>
        <time>2020-12-05T16:31:09.094Z</time>
      </trkpt>
      <trkpt lat="48.79782" lon="2.21932">
        <ele>147</ele>
        <time>2020-12-05T16:31:10.094Z</time>
      </trkpt>
      <trkpt lat="48.79783" lon="2.21931">
        <ele>148</ele>
        <time>2020-12-05T16:31:11.094Z</time>
      </trkpt>
      <trkpt lat="48.79783" lon="2.21929">
        <ele>148</ele>
        <time>2020-12-05T16:31:12.095Z</time>
      </trkpt>
      <trkpt lat="48.79782" lon="2.21927">
        <ele>148</ele>
        <time>2020-12-05T16:31:13.095Z</time>
      </trkpt>
      <trkpt lat="48.79783" lon="2.21926">
        <ele>149</ele>
        <time>2020-12-05T16:31:14.095Z</time>
      </trkpt>
      <trkpt lat="48.79783" lon="2.21924">
        <ele>150</ele>
        <time>2020-12-05T16:31:15.095Z</time>
      </trkpt>
      <trkpt lat="48.79784" lon="2.21923">
        <ele>151</ele>
        <time>2020-12-05T16:31:16.095Z</time>
      </trkpt>
      <trkpt lat="48.79784" lon="2.21922">
        <ele>151</ele>
        <time>2020-12-05T16:31:17.094Z</time>
      </trkpt>
      <trkpt lat="48.79785" lon="2.21921">
        <ele>152</ele>
        <time>2020-12-05T16:31:18.094Z</time>
      </trkpt>
      <trkpt lat="48.79785" lon="2.2192">
        <ele>152</ele>
        <time>2020-12-05T16:31:19.095Z</time>
      </trkpt>
      <trkpt lat="48.79786" lon="2.21918">
        <ele>152</ele>
        <time>2020-12-05T16:31:20.095Z</time>
      </trkpt>
      <trkpt lat="48.79787" lon="2.21917">
        <ele>152</ele>
        <time>2020-12-05T16:31:21.095Z</time>
      </trkpt>
      <trkpt lat="48.79788" lon="2.21915">
        <ele>152</ele>
        <time>2020-12-05T16:31:22.095Z</time>
      </trkpt>
      <trkpt lat="48.79788" lon="2.21913">
        <ele>152</ele>
        <time>2020-12-05T16:31:23.094Z</time>
      </trkpt>
      <trkpt lat="48.79789" lon="2.21911">
        <ele>152</ele>
        <time>2020-12-05T16:31:24.095Z</time>
      </trkpt>
      <trkpt lat="48.79789" lon="2.21909">
        <ele>152</ele>
        <time>2020-12-05T16:31:25.095Z</time>
      </trkpt>
      <trkpt lat="48.7979" lon="2.21908">
        <ele>153</ele>
        <time>2020-12-05T16:31:26.094Z</time>
      </trkpt>
      <trkpt lat="48.7979" lon="2.21907">
        <ele>153</ele>
        <time>2020-12-05T16:31:27.094Z</time>
      </trkpt>
      <trkpt lat="48.79791" lon="2.21905">
        <ele>153</ele>
        <time>2020-12-05T16:31:28.095Z</time>
      </trkpt>
      <trkpt lat="48.79791" lon="2.21904">
        <ele>153</ele>
        <time>2020-12-05T16:31:29.095Z</time>
      </trkpt>
      <trkpt lat="48.79792" lon="2.21902">
        <ele>154</ele>
        <time>2020-12-05T16:31:30.095Z</time>
      </trkpt>
      <trkpt lat="48.79792" lon="2.21901">
        <ele>154</ele>
        <time>2020-12-05T16:31:31.095Z</time>
      </trkpt>
      <trkpt lat="48.79793" lon="2.219">
        <ele>154</ele>
        <time>2020-12-05T16:31:32.095Z</time>
      </trkpt>
      <trkpt lat="48.79793" lon="2.21899">
        <ele>154</ele>
        <time>2020-12-05T16:31:33.095Z</time>
      </trkpt>
      <trkpt lat="48.79793" lon="2.21897">
        <ele>155</ele>
        <time>2020-12-05T16:31:34.095Z</time>
      </trkpt>
      <trkpt lat="48.79793" lon="2.21895">
        <ele>155</ele>
        <time>2020-12-05T16:31:35.095Z</time>
      </trkpt>
      <trkpt lat="48.79794" lon="2.21893">
        <ele>155</ele>
        <time>2020-12-05T16:31:36.095Z</time>
      </trkpt>
      <trkpt lat="48.79794" lon="2.21891">
        <ele>155</ele>
        <time>2020-12-05T16:31:37.095Z</time>
      </trkpt>
      <trkpt lat="48.79794" lon="2.21889">
        <ele>155</ele>
        <time>2020-12-05T16:31:38.095Z</time>
      </trkpt>
      <trkpt lat="48.79794" lon="2.21887">
        <ele>154</ele>
        <time>2020-12-05T16:31:39.095Z</time>
      </trkpt>
      <trkpt lat="48.79794" lon="2.21886">
        <ele>154</ele>
        <time>2020-12-05T16:31:40.095Z</time>
      </trkpt>
      <trkpt lat="48.79795" lon="2.21884">
        <ele>154</ele>
        <time>2020-12-05T16:31:41.095Z</time>
      </trkpt>
      <trkpt lat="48.79796" lon="2.21882">
        <ele>154</ele>
        <time>2020-12-05T16:31:42.095Z</time>
      </trkpt>
      <trkpt lat="48.79797" lon="2.21881">
        <ele>154</ele>
        <time>2020-12-05T16:31:43.095Z</time>
      </trkpt>
      <trkpt lat="48.79797" lon="2.2188">
        <ele>154</ele>
        <time>2020-12-05T16:31:44.095Z</time>
      </trkpt>
      <trkpt lat="48.79798" lon="2.21879">
        <ele>154</ele>
        <time>2020-12-05T16:31:45.095Z</time>
      </trkpt>
      <trkpt lat="48.79798" lon="2.21878">
        <ele>154</ele>
        <time>2020-12-05T16:31:46.095Z</time>
      </trkpt>
      <trkpt lat="48.79799" lon="2.21878">
        <ele>155</ele>
        <time>2020-12-05T16:31:47.094Z</time>
      </trkpt>
      <trkpt lat="48.79799" lon="2.21878">
        <ele>156</ele>
        <time>2020-12-05T16:31:48.095Z</time>
      </trkpt>
      <trkpt lat="48.79799" lon="2.21877">
        <ele>156</ele>
        <time>2020-12-05T16:31:49.095Z</time>
      </trkpt>
      <trkpt lat="48.79799" lon="2.21876">
        <ele>157</ele>
        <time>2020-12-05T16:31:50.095Z</time>
      </trkpt>
      <trkpt lat="48.79799" lon="2.21876">
        <ele>158</ele>
        <time>2020-12-05T16:31:51.095Z</time>
      </trkpt>
      <trkpt lat="48.79799" lon="2.21876">
        <ele>158</ele>
        <time>2020-12-05T16:31:52.095Z</time>
      </trkpt>
      <trkpt lat="48.79799" lon="2.21876">
        <ele>159</ele>
        <time>2020-12-05T16:31:53.095Z</time>
      </trkpt>
      <trkpt lat="48.798" lon="2.21876">
        <ele>159</ele>
        <time>2020-12-05T16:31:54.094Z</time>
      </trkpt>
      <trkpt lat="48.79801" lon="2.21875">
        <ele>160</ele>
        <time>2020-12-05T16:31:55.095Z</time>
      </trkpt>
      <trkpt lat="48.79802" lon="2.21874">
        <ele>160</ele>
        <time>2020-12-05T16:31:56.095Z</time>
      </trkpt>
      <trkpt lat="48.79802" lon="2.21872">
        <ele>160</ele>
        <time>2020-12-05T16:31:57.095Z</time>
      </trkpt>
      <trkpt lat="48.79802" lon="2.2187">
        <ele>160</ele>
        <time>2020-12-05T16:31:58.095Z</time>
      </trkpt>
      <trkpt lat="48.79803" lon="2.21868">
        <ele>161</ele>
        <time>2020-12-05T16:31:59.095Z</time>
      </trkpt>
      <trkpt lat="48.79804" lon="2.21865">
        <ele>161</ele>
        <time>2020-12-05T16:32:00.095Z</time>
      </trkpt>
      <trkpt lat="48.79804" lon="2.21864">
        <ele>162</ele>
        <time>2020-12-05T16:32:01.095Z</time>
      </trkpt>
      <trkpt lat="48.79805" lon="2.21862">
        <ele>163</ele>
        <time>2020-12-05T16:32:02.095Z</time>
      </trkpt>
      <trkpt lat="48.79806" lon="2.2186">
        <ele>163</ele>
        <time>2020-12-05T16:32:03.095Z</time>
      </trkpt>
      <trkpt lat="48.79807" lon="2.21859">
        <ele>164</ele>
        <time>2020-12-05T16:32:04.095Z</time>
      </trkpt>
      <trkpt lat="48.79808" lon="2.21858">
        <ele>165</ele>
        <time>2020-12-05T16:32:05.095Z</time>
      </trkpt>
      <trkpt lat="48.79809" lon="2.21857">
        <ele>165</ele>
        <time>2020-12-05T16:32:06.095Z</time>
      </trkpt>
      <trkpt lat="48.7981" lon="2.21856">
        <ele>166</ele>
        <time>2020-12-05T16:32:07.095Z</time>
      </trkpt>
      <trkpt lat="48.79811" lon="2.21855">
        <ele>167</ele>
        <time>2020-12-05T16:32:08.095Z</time>
      </trkpt>
      <trkpt lat="48.79812" lon="2.21855">
        <ele>167</ele>
        <time>2020-12-05T16:32:09.095Z</time>
      </trkpt>
      <trkpt lat="48.79813" lon="2.21855">
        <ele>168</ele>
        <time>2020-12-05T16:32:10.095Z</time>
      </trkpt>
      <trkpt lat="48.79814" lon="2.21856">
        <ele>168</ele>
        <time>2020-12-05T16:32:11.094Z</time>
      </trkpt>
      <trkpt lat="48.79816" lon="2.21858">
        <ele>168</ele>
        <time>2020-12-05T16:32:12.094Z</time>
      </trkpt>
      <trkpt lat="48.79819" lon="2.21859">
        <ele>168</ele>
        <time>2020-12-05T16:32:13.095Z</time>
      </trkpt>
      <trkpt lat="48.79822" lon="2.2186">
        <ele>168</ele>
        <time>2020-12-05T16:32:14.095Z</time>
      </trkpt>
      <trkpt lat="48.79824" lon="2.21861">
        <ele>168</ele>
        <time>2020-12-05T16:32:15.095Z</time>
      </trkpt>
      <trkpt lat="48.79825" lon="2.21862">
        <ele>168</ele>
        <time>2020-12-05T16:32:16.095Z</time>
      </trkpt>
      <trkpt lat="48.79826" lon="2.21864">
        <ele>168</ele>
        <time>2020-12-05T16:32:17.095Z</time>
      </trkpt>
      <trkpt lat="48.79827" lon="2.21866">
        <ele>167</ele>
        <time>2020-12-05T16:32:18.094Z</time>
      </trkpt>
      <trkpt lat="48.79828" lon="2.21868">
        <ele>167</ele>
        <time>2020-12-05T16:32:19.095Z</time>
      </trkpt>
      <trkpt lat="48.79829" lon="2.21869">
        <ele>167</ele>
        <time>2020-12-05T16:32:20.095Z</time>
      </trkpt>
      <trkpt lat="48.79831" lon="2.2187">
        <ele>166</ele>
        <time>2020-12-05T16:32:21.095Z</time>
      </trkpt>
      <trkpt lat="48.79832" lon="2.21871">
        <ele>166</ele>
        <time>2020-12-05T16:32:22.095Z</time>
      </trkpt>
      <trkpt lat="48.79833" lon="2.21872">
        <ele>165</ele>
        <time>2020-12-05T16:32:23.095Z</time>
      </trkpt>
      <trkpt lat="48.79834" lon="2.21873">
        <ele>165</ele>
        <time>2020-12-05T16:32:24.095Z</time>
      </trkpt>
      <trkpt lat="48.79835" lon="2.21874">
        <ele>165</ele>
        <time>2020-12-05T16:32:25.095Z</time>
      </trkpt>
      <trkpt lat="48.79836" lon="2.21875">
        <ele>164</ele>
        <time>2020-12-05T16:32:26.095Z</time>
      </trkpt>
      <trkpt lat="48.79837" lon="2.21876">
        <ele>164</ele>
        <time>2020-12-05T16:32:27.095Z</time>
      </trkpt>
      <trkpt lat="48.79837" lon="2.21876">
        <ele>164</ele>
        <time>2020-12-05T16:32:28.095Z</time>
      </trkpt>
      <trkpt lat="48.79838" lon="2.21877">
        <ele>164</ele>
        <time>2020-12-05T16:32:29.094Z</time>
      </trkpt>
      <trkpt lat="48.79839" lon="2.21877">
        <ele>163</ele>
        <time>2020-12-05T16:32:30.095Z</time>
      </trkpt>
      <trkpt lat="48.7984" lon="2.21877">
        <ele>163</ele>
        <time>2020-12-05T16:32:31.095Z</time>
      </trkpt>
      <trkpt lat="48.79841" lon="2.21879">
        <ele>163</ele>
        <time>2020-12-05T16:32:32.095Z</time>
      </trkpt>
      <trkpt lat="48.79842" lon="2.2188">
        <ele>163</ele>
        <time>2020-12-05T16:32:33.095Z</time>
      </trkpt>
      <trkpt lat="48.79842" lon="2.2188">
        <ele>162</ele>
        <time>2020-12-05T16:32:34.095Z</time>
      </trkpt>
      <trkpt lat="48.79844" lon="2.21881">
        <ele>162</ele>
        <time>2020-12-05T16:32:35.095Z</time>
      </trkpt>
      <trkpt lat="48.79844" lon="2.21882">
        <ele>162</ele>
        <time>2020-12-05T16:32:36.095Z</time>
      </trkpt>
      <trkpt lat="48.79844" lon="2.21882">
        <ele>162</ele>
        <time>2020-12-05T16:32:37.095Z</time>
      </trkpt>
      <trkpt lat="48.79844" lon="2.21884">
        <ele>161</ele>
        <time>2020-12-05T16:32:38.095Z</time>
      </trkpt>
      <trkpt lat="48.79844" lon="2.21884">
        <ele>161</ele>
        <time>2020-12-05T16:32:39.095Z</time>
      </trkpt>
      <trkpt lat="48.79844" lon="2.21885">
        <ele>160</ele>
        <time>2020-12-05T16:32:40.094Z</time>
      </trkpt>
      <trkpt lat="48.79844" lon="2.21885">
        <ele>160</ele>
        <time>2020-12-05T16:32:41.095Z</time>
      </trkpt>
      <trkpt lat="48.79845" lon="2.21886">
        <ele>160</ele>
        <time>2020-12-05T16:32:42.094Z</time>
      </trkpt>
      <trkpt lat="48.79845" lon="2.21886">
        <ele>159</ele>
        <time>2020-12-05T16:32:43.094Z</time>
      </trkpt>
      <trkpt lat="48.79844" lon="2.21886">
        <ele>159</ele>
        <time>2020-12-05T16:32:44.094Z</time>
      </trkpt>
      <trkpt lat="48.79844" lon="2.21886">
        <ele>158</ele>
        <time>2020-12-05T16:32:45.094Z</time>
      </trkpt>
      <trkpt lat="48.79843" lon="2.21885">
        <ele>158</ele>
        <time>2020-12-05T16:32:46.095Z</time>
      </trkpt>
      <trkpt lat="48.79843" lon="2.21885">
        <ele>158</ele>
        <time>2020-12-05T16:32:47.095Z</time>
      </trkpt>
      <trkpt lat="48.79843" lon="2.21885">
        <ele>158</ele>
        <time>2020-12-05T16:32:48.095Z</time>
      </trkpt>
      <trkpt lat="48.79843" lon="2.21885">
        <ele>158</ele>
        <time>2020-12-05T16:32:49.095Z</time>
      </trkpt>
      <trkpt lat="48.79843" lon="2.21885">
        <ele>158</ele>
        <time>2020-12-05T16:32:50.095Z</time>
      </trkpt>
      <trkpt lat="48.79843" lon="2.21885">
        <ele>158</ele>
        <time>2020-12-05T16:32:51.095Z</time>
      </trkpt>
      <trkpt lat="48.79843" lon="2.21885">
        <ele>158</ele>
        <time>2020-12-05T16:32:52.095Z</time>
      </trkpt>
      <trkpt lat="48.79843" lon="2.21885">
        <ele>158</ele>
        <time>2020-12-05T16:32:53.094Z</time>
      </trkpt>
      <trkpt lat="48.79843" lon="2.21885">
        <ele>158</ele>
        <time>2020-12-05T16:32:54.094Z</time>
      </trkpt>
      <trkpt lat="48.79843" lon="2.21885">
        <ele>158</ele>
        <time>2020-12-05T16:32:55.094Z</time>
      </trkpt>
      <trkpt lat="48.79843" lon="2.21885">
        <ele>158</ele>
        <time>2020-12-05T16:32:56.095Z</time>
      </trkpt>
      <trkpt lat="48.79843" lon="2.21885">
        <ele>158</ele>
        <time>2020-12-05T16:32:57.094Z</time>
      </trkpt>
      <trkpt lat="48.79843" lon="2.21885">
        <ele>158</ele>
        <time>2020-12-05T16:32:58.095Z</time>
      </trkpt>
      <trkpt lat="48.79843" lon="2.21885">
        <ele>158</ele>
        <time>2020-12-05T16:32:59.094Z</time>
      </trkpt>
      <trkpt lat="48.79843" lon="2.21885">
        <ele>157</ele>
        <time>2020-12-05T16:33:00.095Z</time>
      </trkpt>
      <trkpt lat="48.79843" lon="2.21885">
        <ele>157</ele>
        <time>2020-12-05T16:33:01.094Z</time>
      </trkpt>
      <trkpt lat="48.79843" lon="2.21885">
        <ele>157</ele>
        <time>2020-12-05T16:33:02.095Z</time>
      </trkpt>
      <trkpt lat="48.79843" lon="2.21885">
        <ele>157</ele>
        <time>2020-12-05T16:33:03.095Z</time>
      </trkpt>
      <trkpt lat="48.79843" lon="2.21885">
        <ele>157</ele>
        <time>2020-12-05T16:33:04.094Z</time>
      </trkpt>
      <trkpt lat="48.79843" lon="2.21885">
        <ele>157</ele>
        <time>2020-12-05T16:33:05.095Z</time>
      </trkpt>
      <trkpt lat="48.79843" lon="2.21885">
        <ele>157</ele>
        <time>2020-12-05T16:33:06.095Z</time>
      </trkpt>
      <trkpt lat="48.79843" lon="2.21886">
        <ele>157</ele>
        <time>2020-12-05T16:33:07.095Z</time>
      </trkpt>
      <trkpt lat="48.79843" lon="2.21886">
        <ele>157</ele>
        <time>2020-12-05T16:33:08.094Z</time>
      </trkpt>
      <trkpt lat="48.79843" lon="2.21886">
        <ele>157</ele>
        <time>2020-12-05T16:33:09.095Z</time>
      </trkpt>
      <trkpt lat="48.79843" lon="2.21886">
        <ele>157</ele>
        <time>2020-12-05T16:33:10.095Z</time>
      </trkpt>
      <trkpt lat="48.79843" lon="2.21886">
        <ele>157</ele>
        <time>2020-12-05T16:33:11.095Z</time>
      </trkpt>
      <trkpt lat="48.79843" lon="2.21887">
        <ele>157</ele>
        <time>2020-12-05T16:33:12.095Z</time>
      </trkpt>
      <trkpt lat="48.79843" lon="2.21888">
        <ele>157</ele>
        <time>2020-12-05T16:33:13.095Z</time>
      </trkpt>
      <trkpt lat="48.79843" lon="2.21889">
        <ele>157</ele>
        <time>2020-12-05T16:33:14.095Z</time>
      </trkpt>
      <trkpt lat="48.79843" lon="2.21889">
        <ele>157</ele>
        <time>2020-12-05T16:33:15.095Z</time>
      </trkpt>
      <trkpt lat="48.79843" lon="2.21889">
        <ele>157</ele>
        <time>2020-12-05T16:33:16.094Z</time>
      </trkpt>
      <trkpt lat="48.79843" lon="2.2189">
        <ele>157</ele>
        <time>2020-12-05T16:33:17.094Z</time>
      </trkpt>
      <trkpt lat="48.79843" lon="2.2189">
        <ele>157</ele>
        <time>2020-12-05T16:33:18.094Z</time>
      </trkpt>
      <trkpt lat="48.79843" lon="2.2189">
        <ele>157</ele>
        <time>2020-12-05T16:33:19.094Z</time>
      </trkpt>
      <trkpt lat="48.79843" lon="2.2189">
        <ele>157</ele>
        <time>2020-12-05T16:33:20.095Z</time>
      </trkpt>
      <trkpt lat="48.79843" lon="2.2189">
        <ele>157</ele>
        <time>2020-12-05T16:33:21.095Z</time>
      </trkpt>
      <trkpt lat="48.79843" lon="2.2189">
        <ele>157</ele>
        <time>2020-12-05T16:33:22.095Z</time>
      </trkpt>
      <trkpt lat="48.79844" lon="2.2189">
        <ele>157</ele>
        <time>2020-12-05T16:33:23.095Z</time>
      </trkpt>
      <trkpt lat="48.79844" lon="2.2189">
        <ele>157</ele>
        <time>2020-12-05T16:33:24.095Z</time>
      </trkpt>
      <trkpt lat="48.79844" lon="2.2189">
        <ele>157</ele>
        <time>2020-12-05T16:33:25.095Z</time>
      </trkpt>
      <trkpt lat="48.79844" lon="2.2189">
        <ele>157</ele>
        <time>2020-12-05T16:33:26.094Z</time>
      </trkpt>
      <trkpt lat="48.79844" lon="2.2189">
        <ele>157</ele>
        <time>2020-12-05T16:33:27.094Z</time>
      </trkpt>
      <trkpt lat="48.79844" lon="2.21891">
        <ele>157</ele>
        <time>2020-12-05T16:33:28.095Z</time>
      </trkpt>
      <trkpt lat="48.79844" lon="2.21891">
        <ele>157</ele>
        <time>2020-12-05T16:33:29.095Z</time>
      </trkpt>
      <trkpt lat="48.79844" lon="2.21891">
        <ele>157</ele>
        <time>2020-12-05T16:33:30.094Z</time>
      </trkpt>
      <trkpt lat="48.79844" lon="2.21891">
        <ele>157</ele>
        <time>2020-12-05T16:33:31.094Z</time>
      </trkpt>
      <trkpt lat="48.79844" lon="2.21892">
        <ele>157</ele>
        <time>2020-12-05T16:33:32.095Z</time>
      </trkpt>
      <trkpt lat="48.79844" lon="2.21892">
        <ele>157</ele>
        <time>2020-12-05T16:33:33.094Z</time>
      </trkpt>
      <trkpt lat="48.79844" lon="2.21893">
        <ele>157</ele>
        <time>2020-12-05T16:33:34.094Z</time>
      </trkpt>
      <trkpt lat="48.79844" lon="2.21893">
        <ele>157</ele>
        <time>2020-12-05T16:33:35.094Z</time>
      </trkpt>
      <trkpt lat="48.79844" lon="2.21893">
        <ele>157</ele>
        <time>2020-12-05T16:33:36.094Z</time>
      </trkpt>
      <trkpt lat="48.79844" lon="2.21893">
        <ele>157</ele>
        <time>2020-12-05T16:33:37.094Z</time>
      </trkpt>
      <trkpt lat="48.79844" lon="2.21893">
        <ele>157</ele>
        <time>2020-12-05T16:33:38.095Z</time>
      </trkpt>
      <trkpt lat="48.79844" lon="2.21893">
        <ele>157</ele>
        <time>2020-12-05T16:33:39.095Z</time>
      </trkpt>
      <trkpt lat="48.79843" lon="2.21893">
        <ele>157</ele>
        <time>2020-12-05T16:33:40.095Z</time>
      </trkpt>
      <trkpt lat="48.79843" lon="2.21893">
        <ele>157</ele>
        <time>2020-12-05T16:33:41.095Z</time>
      </trkpt>
      <trkpt lat="48.79843" lon="2.21893">
        <ele>157</ele>
        <time>2020-12-05T16:33:42.094Z</time>
      </trkpt>
      <trkpt lat="48.79843" lon="2.21893">
        <ele>157</ele>
        <time>2020-12-05T16:33:43.094Z</time>
      </trkpt>
      <trkpt lat="48.79843" lon="2.21893">
        <ele>157</ele>
        <time>2020-12-05T16:33:44.095Z</time>
      </trkpt>
      <trkpt lat="48.79843" lon="2.21893">
        <ele>157</ele>
        <time>2020-12-05T16:33:45.095Z</time>
      </trkpt>
      <trkpt lat="48.79843" lon="2.21893">
        <ele>157</ele>
        <time>2020-12-05T16:33:46.094Z</time>
      </trkpt>
      <trkpt lat="48.79842" lon="2.21893">
        <ele>157</ele>
        <time>2020-12-05T16:33:47.095Z</time>
      </trkpt>
      <trkpt lat="48.79842" lon="2.21893">
        <ele>157</ele>
        <time>2020-12-05T16:33:48.095Z</time>
      </trkpt>
      <trkpt lat="48.79842" lon="2.21893">
        <ele>157</ele>
        <time>2020-12-05T16:33:49.094Z</time>
      </trkpt>
      <trkpt lat="48.79842" lon="2.21893">
        <ele>157</ele>
        <time>2020-12-05T16:33:50.094Z</time>
      </trkpt>
      <trkpt lat="48.79842" lon="2.21893">
        <ele>157</ele>
        <time>2020-12-05T16:33:51.095Z</time>
      </trkpt>
      <trkpt lat="48.79842" lon="2.21893">
        <ele>157</ele>
        <time>2020-12-05T16:33:52.095Z</time>
      </trkpt>
      <trkpt lat="48.79842" lon="2.21894">
        <ele>157</ele>
        <time>2020-12-05T16:33:53.095Z</time>
      </trkpt>
      <trkpt lat="48.79842" lon="2.21894">
        <ele>157</ele>
        <time>2020-12-05T16:33:54.095Z</time>
      </trkpt>
      <trkpt lat="48.79842" lon="2.21894">
        <ele>157</ele>
        <time>2020-12-05T16:33:55.095Z</time>
      </trkpt>
      <trkpt lat="48.79842" lon="2.21894">
        <ele>157</ele>
        <time>2020-12-05T16:33:56.095Z</time>
      </trkpt>
      <trkpt lat="48.79842" lon="2.21894">
        <ele>157</ele>
        <time>2020-12-05T16:33:57.095Z</time>
      </trkpt>
      <trkpt lat="48.79842" lon="2.21894">
        <ele>157</ele>
        <time>2020-12-05T16:33:58.094Z</time>
      </trkpt>
      <trkpt lat="48.79842" lon="2.21894">
        <ele>157</ele>
        <time>2020-12-05T16:33:59.095Z</time>
      </trkpt>
      <trkpt lat="48.79842" lon="2.21894">
        <ele>157</ele>
        <time>2020-12-05T16:34:00.095Z</time>
      </trkpt>
      <trkpt lat="48.79842" lon="2.21894">
        <ele>157</ele>
        <time>2020-12-05T16:34:01.095Z</time>
      </trkpt>
      <trkpt lat="48.79842" lon="2.21894">
        <ele>157</ele>
        <time>2020-12-05T16:34:02.095Z</time>
      </trkpt>
      <trkpt lat="48.79842" lon="2.21894">
        <ele>157</ele>
        <time>2020-12-05T16:34:03.095Z</time>
      </trkpt>
      <trkpt lat="48.79842" lon="2.21894">
        <ele>157</ele>
        <time>2020-12-05T16:34:04.095Z</time>
      </trkpt>
      <trkpt lat="48.79842" lon="2.21894">
        <ele>157</ele>
        <time>2020-12-05T16:34:05.095Z</time>
      </trkpt>
      <trkpt lat="48.79842" lon="2.21894">
        <ele>157</ele>
        <time>2020-12-05T16:34:06.095Z</time>
      </trkpt>
      <trkpt lat="48.79842" lon="2.21894">
        <ele>157</ele>
        <time>2020-12-05T16:34:07.095Z</time>
      </trkpt>
      <trkpt lat="48.79842" lon="2.21894">
        <ele>157</ele>
        <time>2020-12-05T16:34:08.094Z</time>
      </trkpt>
      <trkpt lat="48.79842" lon="2.21894">
        <ele>157</ele>
        <time>2020-12-05T16:34:09.095Z</time>
      </trkpt>
      <trkpt lat="48.79842" lon="2.21894">
        <ele>157</ele>
        <time>2020-12-05T16:34:10.095Z</time>
      </trkpt>
      <trkpt lat="48.79842" lon="2.21894">
        <ele>157</ele>
        <time>2020-12-05T16:34:11.095Z</time>
      </trkpt>
      <trkpt lat="48.79842" lon="2.21894">
        <ele>157</ele>
        <time>2020-12-05T16:34:12.095Z</time>
      </trkpt>
      <trkpt lat="48.79842" lon="2.21894">
        <ele>157</ele>
        <time>2020-12-05T16:34:13.095Z</time>
      </trkpt>
      <trkpt lat="48.79842" lon="2.21894">
        <ele>157</ele>
        <time>2020-12-05T16:34:14.095Z</time>
      </trkpt>
      <trkpt lat="48.79842" lon="2.21894">
        <ele>157</ele>
        <time>2020-12-05T16:34:15.095Z</time>
      </trkpt>
      <trkpt lat="48.79842" lon="2.21894">
        <ele>157</ele>
        <time>2020-12-05T16:34:16.095Z</time>
      </trkpt>
      <trkpt lat="48.79842" lon="2.21894">
        <ele>157</ele>
        <time>2020-12-05T16:34:17.095Z</time>
      </trkpt>
      <trkpt lat="48.79842" lon="2.21894">
        <ele>157</ele>
        <time>2020-12-05T16:34:18.095Z</time>
      </trkpt>
      <trkpt lat="48.79842" lon="2.21894">
        <ele>157</ele>
        <time>2020-12-05T16:34:19.095Z</time>
      </trkpt>
      <trkpt lat="48.79842" lon="2.21894">
        <ele>157</ele>
        <time>2020-12-05T16:34:20.095Z</time>
      </trkpt>
      <trkpt lat="48.79842" lon="2.21894">
        <ele>157</ele>
        <time>2020-12-05T16:34:21.095Z</time>
      </trkpt>
      <trkpt lat="48.79842" lon="2.21894">
        <ele>157</ele>
        <time>2020-12-05T16:34:22.095Z</time>
      </trkpt>
      <trkpt lat="48.79842" lon="2.21893">
        <ele>157</ele>
        <time>2020-12-05T16:34:23.095Z</time>
      </trkpt>
      <trkpt lat="48.79842" lon="2.21893">
        <ele>157</ele>
        <time>2020-12-05T16:34:24.095Z</time>
      </trkpt>
      <trkpt lat="48.79842" lon="2.21893">
        <ele>157</ele>
        <time>2020-12-05T16:34:25.094Z</time>
      </trkpt>
      <trkpt lat="48.79843" lon="2.21893">
        <ele>157</ele>
        <time>2020-12-05T16:34:26.094Z</time>
      </trkpt>
      <trkpt lat="48.79843" lon="2.21893">
        <ele>157</ele>
        <time>2020-12-05T16:34:27.094Z</time>
      </trkpt>
      <trkpt lat="48.79843" lon="2.21893">
        <ele>157</ele>
        <time>2020-12-05T16:34:28.094Z</time>
      </trkpt>
      <trkpt lat="48.79843" lon="2.21893">
        <ele>157</ele>
        <time>2020-12-05T16:34:29.095Z</time>
      </trkpt>
      <trkpt lat="48.79843" lon="2.21893">
        <ele>157</ele>
        <time>2020-12-05T16:34:30.095Z</time>
      </trkpt>
      <trkpt lat="48.79843" lon="2.21893">
        <ele>157</ele>
        <time>2020-12-05T16:34:31.095Z</time>
      </trkpt>
      <trkpt lat="48.79843" lon="2.21893">
        <ele>157</ele>
        <time>2020-12-05T16:34:32.094Z</time>
      </trkpt>
      <trkpt lat="48.79843" lon="2.21893">
        <ele>157</ele>
        <time>2020-12-05T16:34:33.094Z</time>
      </trkpt>
      <trkpt lat="48.79844" lon="2.21892">
        <ele>157</ele>
        <time>2020-12-05T16:34:34.094Z</time>
      </trkpt>
      <trkpt lat="48.79844" lon="2.21892">
        <ele>157</ele>
        <time>2020-12-05T16:34:35.095Z</time>
      </trkpt>
      <trkpt lat="48.79844" lon="2.21892">
        <ele>157</ele>
        <time>2020-12-05T16:34:36.095Z</time>
      </trkpt>
      <trkpt lat="48.79844" lon="2.21891">
        <ele>157</ele>
        <time>2020-12-05T16:34:37.095Z</time>
      </trkpt>
      <trkpt lat="48.79844" lon="2.21891">
        <ele>157</ele>
        <time>2020-12-05T16:34:38.094Z</time>
      </trkpt>
      <trkpt lat="48.79844" lon="2.21891">
        <ele>157</ele>
        <time>2020-12-05T16:34:39.094Z</time>
      </trkpt>
      <trkpt lat="48.79844" lon="2.21891">
        <ele>157</ele>
        <time>2020-12-05T16:34:40.094Z</time>
      </trkpt>
      <trkpt lat="48.79844" lon="2.21891">
        <ele>157</ele>
        <time>2020-12-05T16:34:41.094Z</time>
      </trkpt>
      <trkpt lat="48.79844" lon="2.21891">
        <ele>157</ele>
        <time>2020-12-05T16:34:42.095Z</time>
      </trkpt>
      <trkpt lat="48.79844" lon="2.21891">
        <ele>157</ele>
        <time>2020-12-05T16:34:43.094Z</time>
      </trkpt>
      <trkpt lat="48.79844" lon="2.21891">
        <ele>157</ele>
        <time>2020-12-05T16:34:44.095Z</time>
      </trkpt>
      <trkpt lat="48.79844" lon="2.21891">
        <ele>157</ele>
        <time>2020-12-05T16:34:45.095Z</time>
      </trkpt>
      <trkpt lat="48.79844" lon="2.2189">
        <ele>157</ele>
        <time>2020-12-05T16:34:46.095Z</time>
      </trkpt>
      <trkpt lat="48.79844" lon="2.2189">
        <ele>157</ele>
        <time>2020-12-05T16:34:47.095Z</time>
      </trkpt>
      <trkpt lat="48.79844" lon="2.2189">
        <ele>157</ele>
        <time>2020-12-05T16:34:48.094Z</time>
      </trkpt>
      <trkpt lat="48.79844" lon="2.2189">
        <ele>157</ele>
        <time>2020-12-05T16:34:49.095Z</time>
      </trkpt>
      <trkpt lat="48.79844" lon="2.2189">
        <ele>157</ele>
        <time>2020-12-05T16:34:50.095Z</time>
      </trkpt>
      <trkpt lat="48.79844" lon="2.21889">
        <ele>157</ele>
        <time>2020-12-05T16:34:51.094Z</time>
      </trkpt>
      <trkpt lat="48.79844" lon="2.21889">
        <ele>157</ele>
        <time>2020-12-05T16:34:52.095Z</time>
      </trkpt>
      <trkpt lat="48.79844" lon="2.21889">
        <ele>157</ele>
        <time>2020-12-05T16:34:53.094Z</time>
      </trkpt>
      <trkpt lat="48.79844" lon="2.21889">
        <ele>157</ele>
        <time>2020-12-05T16:34:54.095Z</time>
      </trkpt>
      <trkpt lat="48.79844" lon="2.21888">
        <ele>157</ele>
        <time>2020-12-05T16:34:55.095Z</time>
      </trkpt>
      <trkpt lat="48.79844" lon="2.21888">
        <ele>157</ele>
        <time>2020-12-05T16:34:56.094Z</time>
      </trkpt>
      <trkpt lat="48.79844" lon="2.21887">
        <ele>157</ele>
        <time>2020-12-05T16:34:57.095Z</time>
      </trkpt>
      <trkpt lat="48.79844" lon="2.21887">
        <ele>157</ele>
        <time>2020-12-05T16:34:58.095Z</time>
      </trkpt>
      <trkpt lat="48.79844" lon="2.21886">
        <ele>157</ele>
        <time>2020-12-05T16:34:59.095Z</time>
      </trkpt>
      <trkpt lat="48.79844" lon="2.21886">
        <ele>157</ele>
        <time>2020-12-05T16:35:00.095Z</time>
      </trkpt>
      <trkpt lat="48.79844" lon="2.21886">
        <ele>157</ele>
        <time>2020-12-05T16:35:01.095Z</time>
      </trkpt>
      <trkpt lat="48.79845" lon="2.21886">
        <ele>157</ele>
        <time>2020-12-05T16:35:02.094Z</time>
      </trkpt>
      <trkpt lat="48.79845" lon="2.21886">
        <ele>157</ele>
        <time>2020-12-05T16:35:03.094Z</time>
      </trkpt>
      <trkpt lat="48.79845" lon="2.21886">
        <ele>157</ele>
        <time>2020-12-05T16:35:04.095Z</time>
      </trkpt>
      <trkpt lat="48.79845" lon="2.21886">
        <ele>157</ele>
        <time>2020-12-05T16:35:05.095Z</time>
      </trkpt>
      <trkpt lat="48.79845" lon="2.21886">
        <ele>157</ele>
        <time>2020-12-05T16:35:06.095Z</time>
      </trkpt>
      <trkpt lat="48.79845" lon="2.21886">
        <ele>157</ele>
        <time>2020-12-05T16:35:07.095Z</time>
      </trkpt>
      <trkpt lat="48.79846" lon="2.21886">
        <ele>157</ele>
        <time>2020-12-05T16:35:08.095Z</time>
      </trkpt>
      <trkpt lat="48.79846" lon="2.21886">
        <ele>157</ele>
        <time>2020-12-05T16:35:09.094Z</time>
      </trkpt>
      <trkpt lat="48.79846" lon="2.21886">
        <ele>157</ele>
        <time>2020-12-05T16:35:10.095Z</time>
      </trkpt>
      <trkpt lat="48.79846" lon="2.21886">
        <ele>157</ele>
        <time>2020-12-05T16:35:11.095Z</time>
      </trkpt>
      <trkpt lat="48.79847" lon="2.21886">
        <ele>157</ele>
        <time>2020-12-05T16:35:12.094Z</time>
      </trkpt>
      <trkpt lat="48.79847" lon="2.21886">
        <ele>157</ele>
        <time>2020-12-05T16:35:13.094Z</time>
      </trkpt>
      <trkpt lat="48.79847" lon="2.21886">
        <ele>157</ele>
        <time>2020-12-05T16:35:14.094Z</time>
      </trkpt>
      <trkpt lat="48.79848" lon="2.21887">
        <ele>157</ele>
        <time>2020-12-05T16:35:15.095Z</time>
      </trkpt>
      <trkpt lat="48.79848" lon="2.21887">
        <ele>157</ele>
        <time>2020-12-05T16:35:16.095Z</time>
      </trkpt>
      <trkpt lat="48.79848" lon="2.21887">
        <ele>157</ele>
        <time>2020-12-05T16:35:17.095Z</time>
      </trkpt>
      <trkpt lat="48.79849" lon="2.21887">
        <ele>157</ele>
        <time>2020-12-05T16:35:18.095Z</time>
      </trkpt>
      <trkpt lat="48.79849" lon="2.21887">
        <ele>157</ele>
        <time>2020-12-05T16:35:19.095Z</time>
      </trkpt>
      <trkpt lat="48.79849" lon="2.21888">
        <ele>157</ele>
        <time>2020-12-05T16:35:20.095Z</time>
      </trkpt>
      <trkpt lat="48.79849" lon="2.21888">
        <ele>157</ele>
        <time>2020-12-05T16:35:21.095Z</time>
      </trkpt>
      <trkpt lat="48.79849" lon="2.21888">
        <ele>157</ele>
        <time>2020-12-05T16:35:22.095Z</time>
      </trkpt>
      <trkpt lat="48.79849" lon="2.21888">
        <ele>157</ele>
        <time>2020-12-05T16:35:23.095Z</time>
      </trkpt>
      <trkpt lat="48.79849" lon="2.21888">
        <ele>157</ele>
        <time>2020-12-05T16:35:24.094Z</time>
      </trkpt>
      <trkpt lat="48.7985" lon="2.21889">
        <ele>157</ele>
        <time>2020-12-05T16:35:25.095Z</time>
      </trkpt>
      <trkpt lat="48.7985" lon="2.21889">
        <ele>157</ele>
        <time>2020-12-05T16:35:26.095Z</time>
      </trkpt>
      <trkpt lat="48.7985" lon="2.2189">
        <ele>157</ele>
        <time>2020-12-05T16:35:27.095Z</time>
      </trkpt>
      <trkpt lat="48.7985" lon="2.2189">
        <ele>157</ele>
        <time>2020-12-05T16:35:28.094Z</time>
      </trkpt>
      <trkpt lat="48.7985" lon="2.2189">
        <ele>157</ele>
        <time>2020-12-05T16:35:29.095Z</time>
      </trkpt>
      <trkpt lat="48.7985" lon="2.21891">
        <ele>158</ele>
        <time>2020-12-05T16:35:30.095Z</time>
      </trkpt>
      <trkpt lat="48.7985" lon="2.21891">
        <ele>158</ele>
        <time>2020-12-05T16:35:31.094Z</time>
      </trkpt>
      <trkpt lat="48.7985" lon="2.21891">
        <ele>158</ele>
        <time>2020-12-05T16:35:32.095Z</time>
      </trkpt>
      <trkpt lat="48.7985" lon="2.21892">
        <ele>158</ele>
        <time>2020-12-05T16:35:33.094Z</time>
      </trkpt>
      <trkpt lat="48.7985" lon="2.21892">
        <ele>158</ele>
        <time>2020-12-05T16:35:34.095Z</time>
      </trkpt>
      <trkpt lat="48.7985" lon="2.21892">
        <ele>158</ele>
        <time>2020-12-05T16:35:35.094Z</time>
      </trkpt>
      <trkpt lat="48.7985" lon="2.21892">
        <ele>158</ele>
        <time>2020-12-05T16:35:36.095Z</time>
      </trkpt>
      <trkpt lat="48.79849" lon="2.21892">
        <ele>158</ele>
        <time>2020-12-05T16:35:37.095Z</time>
      </trkpt>
      <trkpt lat="48.79849" lon="2.21892">
        <ele>158</ele>
        <time>2020-12-05T16:35:38.095Z</time>
      </trkpt>
      <trkpt lat="48.79849" lon="2.21892">
        <ele>158</ele>
        <time>2020-12-05T16:35:39.094Z</time>
      </trkpt>
      <trkpt lat="48.79849" lon="2.21892">
        <ele>158</ele>
        <time>2020-12-05T16:35:40.095Z</time>
      </trkpt>
      <trkpt lat="48.79849" lon="2.21892">
        <ele>158</ele>
        <time>2020-12-05T16:35:41.094Z</time>
      </trkpt>
      <trkpt lat="48.79849" lon="2.21892">
        <ele>158</ele>
        <time>2020-12-05T16:35:42.095Z</time>
      </trkpt>
      <trkpt lat="48.79849" lon="2.21893">
        <ele>158</ele>
        <time>2020-12-05T16:35:43.095Z</time>
      </trkpt>
      <trkpt lat="48.79849" lon="2.21893">
        <ele>158</ele>
        <time>2020-12-05T16:35:44.094Z</time>
      </trkpt>
      <trkpt lat="48.79849" lon="2.21893">
        <ele>158</ele>
        <time>2020-12-05T16:35:45.094Z</time>
      </trkpt>
      <trkpt lat="48.79849" lon="2.21893">
        <ele>158</ele>
        <time>2020-12-05T16:35:46.095Z</time>
      </trkpt>
      <trkpt lat="48.79849" lon="2.21893">
        <ele>158</ele>
        <time>2020-12-05T16:35:47.095Z</time>
      </trkpt>
      <trkpt lat="48.79849" lon="2.21893">
        <ele>158</ele>
        <time>2020-12-05T16:35:48.095Z</time>
      </trkpt>
      <trkpt lat="48.79849" lon="2.21893">
        <ele>158</ele>
        <time>2020-12-05T16:35:49.094Z</time>
      </trkpt>
      <trkpt lat="48.79849" lon="2.21893">
        <ele>158</ele>
        <time>2020-12-05T16:35:50.095Z</time>
      </trkpt>
      <trkpt lat="48.79849" lon="2.21893">
        <ele>158</ele>
        <time>2020-12-05T16:35:51.095Z</time>
      </trkpt>
      <trkpt lat="48.79849" lon="2.21893">
        <ele>158</ele>
        <time>2020-12-05T16:35:52.094Z</time>
      </trkpt>
      <trkpt lat="48.79849" lon="2.21893">
        <ele>158</ele>
        <time>2020-12-05T16:35:53.094Z</time>
      </trkpt>
      <trkpt lat="48.79849" lon="2.21893">
        <ele>158</ele>
        <time>2020-12-05T16:35:54.094Z</time>
      </trkpt>
      <trkpt lat="48.79849" lon="2.21893">
        <ele>158</ele>
        <time>2020-12-05T16:35:55.095Z</time>
      </trkpt>
      <trkpt lat="48.79849" lon="2.21893">
        <ele>158</ele>
        <time>2020-12-05T16:35:56.095Z</time>
      </trkpt>
      <trkpt lat="48.79849" lon="2.21893">
        <ele>158</ele>
        <time>2020-12-05T16:35:57.095Z</time>
      </trkpt>
      <trkpt lat="48.79849" lon="2.21893">
        <ele>158</ele>
        <time>2020-12-05T16:35:58.094Z</time>
      </trkpt>
      <trkpt lat="48.79849" lon="2.21893">
        <ele>158</ele>
        <time>2020-12-05T16:35:59.094Z</time>
      </trkpt>
      <trkpt lat="48.79849" lon="2.21893">
        <ele>158</ele>
        <time>2020-12-05T16:36:00.094Z</time>
      </trkpt>
      <trkpt lat="48.79849" lon="2.21892">
        <ele>158</ele>
        <time>2020-12-05T16:36:01.095Z</time>
      </trkpt>
      <trkpt lat="48.79849" lon="2.21892">
        <ele>158</ele>
        <time>2020-12-05T16:36:02.095Z</time>
      </trkpt>
      <trkpt lat="48.79849" lon="2.21892">
        <ele>158</ele>
        <time>2020-12-05T16:36:03.095Z</time>
      </trkpt>
      <trkpt lat="48.79849" lon="2.21892">
        <ele>158</ele>
        <time>2020-12-05T16:36:04.095Z</time>
      </trkpt>
      <trkpt lat="48.79849" lon="2.21892">
        <ele>158</ele>
        <time>2020-12-05T16:36:05.094Z</time>
      </trkpt>
      <trkpt lat="48.79849" lon="2.21892">
        <ele>158</ele>
        <time>2020-12-05T16:36:06.095Z</time>
      </trkpt>
      <trkpt lat="48.79849" lon="2.21892">
        <ele>158</ele>
        <time>2020-12-05T16:36:07.094Z</time>
      </trkpt>
      <trkpt lat="48.79849" lon="2.21892">
        <ele>158</ele>
        <time>2020-12-05T16:36:08.095Z</time>
      </trkpt>
      <trkpt lat="48.79849" lon="2.21892">
        <ele>158</ele>
        <time>2020-12-05T16:36:09.094Z</time>
      </trkpt>
      <trkpt lat="48.79849" lon="2.21892">
        <ele>158</ele>
        <time>2020-12-05T16:36:10.095Z</time>
      </trkpt>
      <trkpt lat="48.79849" lon="2.21892">
        <ele>158</ele>
        <time>2020-12-05T16:36:11.095Z</time>
      </trkpt>
      <trkpt lat="48.79849" lon="2.21892">
        <ele>158</ele>
        <time>2020-12-05T16:36:12.095Z</time>
      </trkpt>
      <trkpt lat="48.79849" lon="2.21892">
        <ele>158</ele>
        <time>2020-12-05T16:36:13.095Z</time>
      </trkpt>
      <trkpt lat="48.79849" lon="2.21892">
        <ele>158</ele>
        <time>2020-12-05T16:36:14.095Z</time>
      </trkpt>
      <trkpt lat="48.79849" lon="2.21892">
        <ele>158</ele>
        <time>2020-12-05T16:36:15.095Z</time>
      </trkpt>
      <trkpt lat="48.79849" lon="2.21892">
        <ele>158</ele>
        <time>2020-12-05T16:36:16.095Z</time>
      </trkpt>
      <trkpt lat="48.79849" lon="2.21892">
        <ele>158</ele>
        <time>2020-12-05T16:36:17.094Z</time>
      </trkpt>
      <trkpt lat="48.79849" lon="2.21892">
        <ele>158</ele>
        <time>2020-12-05T16:36:18.095Z</time>
      </trkpt>
      <trkpt lat="48.79849" lon="2.21892">
        <ele>158</ele>
        <time>2020-12-05T16:36:19.094Z</time>
      </trkpt>
      <trkpt lat="48.79849" lon="2.21892">
        <ele>158</ele>
        <time>2020-12-05T16:36:20.095Z</time>
      </trkpt>
      <trkpt lat="48.79849" lon="2.21892">
        <ele>158</ele>
        <time>2020-12-05T16:36:21.094Z</time>
      </trkpt>
      <trkpt lat="48.79848" lon="2.21892">
        <ele>158</ele>
        <time>2020-12-05T16:36:22.094Z</time>
      </trkpt>
      <trkpt lat="48.79848" lon="2.21892">
        <ele>158</ele>
        <time>2020-12-05T16:36:23.094Z</time>
      </trkpt>
      <trkpt lat="48.79848" lon="2.21892">
        <ele>158</ele>
        <time>2020-12-05T16:36:24.095Z</time>
      </trkpt>
      <trkpt lat="48.79848" lon="2.21892">
        <ele>158</ele>
        <time>2020-12-05T16:36:25.095Z</time>
      </trkpt>
      <trkpt lat="48.79848" lon="2.21892">
        <ele>158</ele>
        <time>2020-12-05T16:36:26.094Z</time>
      </trkpt>
      <trkpt lat="48.79848" lon="2.21892">
        <ele>158</ele>
        <time>2020-12-05T16:36:27.095Z</time>
      </trkpt>
      <trkpt lat="48.79848" lon="2.21892">
        <ele>158</ele>
        <time>2020-12-05T16:36:28.094Z</time>
      </trkpt>
      <trkpt lat="48.79848" lon="2.21892">
        <ele>158</ele>
        <time>2020-12-05T16:36:29.095Z</time>
      </trkpt>
      <trkpt lat="48.79848" lon="2.21892">
        <ele>158</ele>
        <time>2020-12-05T16:36:30.095Z</time>
      </trkpt>
      <trkpt lat="48.79848" lon="2.21892">
        <ele>158</ele>
        <time>2020-12-05T16:36:31.095Z</time>
      </trkpt>
      <trkpt lat="48.79848" lon="2.21892">
        <ele>158</ele>
        <time>2020-12-05T16:36:32.094Z</time>
      </trkpt>
      <trkpt lat="48.79848" lon="2.21892">
        <ele>158</ele>
        <time>2020-12-05T16:36:33.094Z</time>
      </trkpt>
      <trkpt lat="48.79848" lon="2.21892">
        <ele>158</ele>
        <time>2020-12-05T16:36:34.095Z</time>
      </trkpt>
      <trkpt lat="48.79848" lon="2.21892">
        <ele>158</ele>
        <time>2020-12-05T16:36:35.095Z</time>
      </trkpt>
      <trkpt lat="48.79848" lon="2.21892">
        <ele>158</ele>
        <time>2020-12-05T16:36:36.095Z</time>
      </trkpt>
      <trkpt lat="48.79848" lon="2.21892">
        <ele>158</ele>
        <time>2020-12-05T16:36:37.095Z</time>
      </trkpt>
      <trkpt lat="48.79848" lon="2.21892">
        <ele>158</ele>
        <time>2020-12-05T16:36:38.095Z</time>
      </trkpt>
      <trkpt lat="48.79848" lon="2.21892">
        <ele>158</ele>
        <time>2020-12-05T16:36:39.094Z</time>
      </trkpt>
      <trkpt lat="48.79848" lon="2.21892">
        <ele>158</ele>
        <time>2020-12-05T16:36:40.095Z</time>
      </trkpt>
      <trkpt lat="48.79848" lon="2.21892">
        <ele>158</ele>
        <time>2020-12-05T16:36:41.094Z</time>
      </trkpt>
      <trkpt lat="48.79848" lon="2.21892">
        <ele>158</ele>
        <time>2020-12-05T16:36:42.095Z</time>
      </trkpt>
      <trkpt lat="48.79848" lon="2.21892">
        <ele>158</ele>
        <time>2020-12-05T16:36:43.095Z</time>
      </trkpt>
      <trkpt lat="48.79848" lon="2.21892">
        <ele>158</ele>
        <time>2020-12-05T16:36:44.095Z</time>
      </trkpt>
      <trkpt lat="48.79848" lon="2.21892">
        <ele>158</ele>
        <time>2020-12-05T16:36:45.095Z</time>
      </trkpt>
      <trkpt lat="48.79848" lon="2.21892">
        <ele>158</ele>
        <time>2020-12-05T16:36:46.095Z</time>
      </trkpt>
      <trkpt lat="48.79848" lon="2.21892">
        <ele>158</ele>
        <time>2020-12-05T16:36:47.095Z</time>
      </trkpt>
      <trkpt lat="48.79848" lon="2.21892">
        <ele>158</ele>
        <time>2020-12-05T16:36:48.095Z</time>
      </trkpt>
      <trkpt lat="48.79848" lon="2.21892">
        <ele>158</ele>
        <time>2020-12-05T16:36:49.094Z</time>
      </trkpt>
      <trkpt lat="48.79848" lon="2.21892">
        <ele>158</ele>
        <time>2020-12-05T16:36:50.095Z</time>
      </trkpt>
      <trkpt lat="48.79848" lon="2.21892">
        <ele>158</ele>
        <time>2020-12-05T16:36:51.095Z</time>
      </trkpt>
      <trkpt lat="48.79848" lon="2.21892">
        <ele>158</ele>
        <time>2020-12-05T16:36:52.095Z</time>
      </trkpt>
      <trkpt lat="48.79848" lon="2.21892">
        <ele>158</ele>
        <time>2020-12-05T16:36:53.095Z</time>
      </trkpt>
      <trkpt lat="48.79848" lon="2.21892">
        <ele>158</ele>
        <time>2020-12-05T16:36:54.095Z</time>
      </trkpt>
      <trkpt lat="48.79848" lon="2.21892">
        <ele>158</ele>
        <time>2020-12-05T16:36:55.095Z</time>
      </trkpt>
      <trkpt lat="48.79848" lon="2.21892">
        <ele>158</ele>
        <time>2020-12-05T16:36:56.095Z</time>
      </trkpt>
      <trkpt lat="48.79848" lon="2.21892">
        <ele>158</ele>
        <time>2020-12-05T16:36:57.095Z</time>
      </trkpt>
      <trkpt lat="48.79848" lon="2.21892">
        <ele>158</ele>
        <time>2020-12-05T16:36:58.094Z</time>
      </trkpt>
      <trkpt lat="48.79848" lon="2.21892">
        <ele>158</ele>
        <time>2020-12-05T16:36:59.095Z</time>
      </trkpt>
      <trkpt lat="48.79848" lon="2.21892">
        <ele>158</ele>
        <time>2020-12-05T16:37:00.095Z</time>
      </trkpt>
      <trkpt lat="48.79848" lon="2.21892">
        <ele>158</ele>
        <time>2020-12-05T16:37:01.095Z</time>
      </trkpt>
      <trkpt lat="48.79848" lon="2.21892">
        <ele>158</ele>
        <time>2020-12-05T16:37:02.095Z</time>
      </trkpt>
      <trkpt lat="48.79848" lon="2.21892">
        <ele>158</ele>
        <time>2020-12-05T16:37:03.095Z</time>
      </trkpt>
      <trkpt lat="48.79848" lon="2.21892">
        <ele>158</ele>
        <time>2020-12-05T16:37:04.095Z</time>
      </trkpt>
      <trkpt lat="48.79848" lon="2.21892">
        <ele>158</ele>
        <time>2020-12-05T16:37:05.095Z</time>
      </trkpt>
      <trkpt lat="48.79848" lon="2.21892">
        <ele>158</ele>
        <time>2020-12-05T16:37:06.095Z</time>
      </trkpt>
      <trkpt lat="48.79848" lon="2.21892">
        <ele>158</ele>
        <time>2020-12-05T16:37:07.095Z</time>
      </trkpt>
      <trkpt lat="48.79848" lon="2.21892">
        <ele>158</ele>
        <time>2020-12-05T16:37:08.094Z</time>
      </trkpt>
      <trkpt lat="48.79848" lon="2.21892">
        <ele>159</ele>
        <time>2020-12-05T16:37:09.094Z</time>
      </trkpt>
      <trkpt lat="48.79848" lon="2.21892">
        <ele>159</ele>
        <time>2020-12-05T16:37:10.095Z</time>
      </trkpt>
      <trkpt lat="48.79848" lon="2.21892">
        <ele>159</ele>
        <time>2020-12-05T16:37:11.095Z</time>
      </trkpt>
      <trkpt lat="48.79848" lon="2.21892">
        <ele>159</ele>
        <time>2020-12-05T16:37:12.095Z</time>
      </trkpt>
      <trkpt lat="48.79848" lon="2.21892">
        <ele>159</ele>
        <time>2020-12-05T16:37:13.094Z</time>
      </trkpt>
      <trkpt lat="48.79848" lon="2.21892">
        <ele>159</ele>
        <time>2020-12-05T16:37:14.095Z</time>
      </trkpt>
      <trkpt lat="48.79848" lon="2.21892">
        <ele>159</ele>
        <time>2020-12-05T16:37:15.094Z</time>
      </trkpt>
      <trkpt lat="48.79848" lon="2.21892">
        <ele>159</ele>
        <time>2020-12-05T16:37:16.095Z</time>
      </trkpt>
      <trkpt lat="48.79848" lon="2.21892">
        <ele>159</ele>
        <time>2020-12-05T16:37:17.095Z</time>
      </trkpt>
      <trkpt lat="48.79848" lon="2.21892">
        <ele>159</ele>
        <time>2020-12-05T16:37:18.095Z</time>
      </trkpt>
      <trkpt lat="48.79848" lon="2.21892">
        <ele>159</ele>
        <time>2020-12-05T16:37:19.094Z</time>
      </trkpt>
      <trkpt lat="48.79848" lon="2.21892">
        <ele>159</ele>
        <time>2020-12-05T16:37:20.095Z</time>
      </trkpt>
      <trkpt lat="48.79848" lon="2.21892">
        <ele>159</ele>
        <time>2020-12-05T16:37:21.094Z</time>
      </trkpt>
      <trkpt lat="48.79848" lon="2.21892">
        <ele>159</ele>
        <time>2020-12-05T16:37:22.095Z</time>
      </trkpt>
      <trkpt lat="48.79848" lon="2.21892">
        <ele>159</ele>
        <time>2020-12-05T16:37:23.094Z</time>
      </trkpt>
      <trkpt lat="48.79848" lon="2.21892">
        <ele>159</ele>
        <time>2020-12-05T16:37:24.095Z</time>
      </trkpt>
      <trkpt lat="48.79848" lon="2.21892">
        <ele>159</ele>
        <time>2020-12-05T16:37:25.095Z</time>
      </trkpt>
      <trkpt lat="48.79848" lon="2.21892">
        <ele>159</ele>
        <time>2020-12-05T16:37:26.094Z</time>
      </trkpt>
      <trkpt lat="48.79848" lon="2.21892">
        <ele>159</ele>
        <time>2020-12-05T16:37:27.095Z</time>
      </trkpt>
      <trkpt lat="48.79848" lon="2.21892">
        <ele>159</ele>
        <time>2020-12-05T16:37:28.094Z</time>
      </trkpt>
      <trkpt lat="48.79848" lon="2.21892">
        <ele>159</ele>
        <time>2020-12-05T16:37:29.095Z</time>
      </trkpt>
      <trkpt lat="48.79848" lon="2.21892">
        <ele>159</ele>
        <time>2020-12-05T16:37:30.094Z</time>
      </trkpt>
      <trkpt lat="48.79848" lon="2.21892">
        <ele>159</ele>
        <time>2020-12-05T16:37:31.095Z</time>
      </trkpt>
      <trkpt lat="48.79848" lon="2.21892">
        <ele>159</ele>
        <time>2020-12-05T16:37:32.095Z</time>
      </trkpt>
      <trkpt lat="48.79848" lon="2.21892">
        <ele>159</ele>
        <time>2020-12-05T16:37:33.095Z</time>
      </trkpt>
      <trkpt lat="48.79848" lon="2.21892">
        <ele>159</ele>
        <time>2020-12-05T16:37:34.095Z</time>
      </trkpt>
      <trkpt lat="48.79848" lon="2.21892">
        <ele>159</ele>
        <time>2020-12-05T16:37:35.095Z</time>
      </trkpt>
      <trkpt lat="48.79848" lon="2.21892">
        <ele>159</ele>
        <time>2020-12-05T16:37:36.095Z</time>
      </trkpt>
      <trkpt lat="48.79848" lon="2.21892">
        <ele>159</ele>
        <time>2020-12-05T16:37:37.095Z</time>
      </trkpt>
      <trkpt lat="48.79848" lon="2.21892">
        <ele>159</ele>
        <time>2020-12-05T16:37:38.095Z</time>
      </trkpt>
      <trkpt lat="48.79848" lon="2.21892">
        <ele>159</ele>
        <time>2020-12-05T16:37:39.095Z</time>
      </trkpt>
      <trkpt lat="48.79848" lon="2.21892">
        <ele>159</ele>
        <time>2020-12-05T16:37:40.095Z</time>
      </trkpt>
      <trkpt lat="48.79848" lon="2.21892">
        <ele>159</ele>
        <time>2020-12-05T16:37:41.095Z</time>
      </trkpt>
      <trkpt lat="48.79848" lon="2.21892">
        <ele>159</ele>
        <time>2020-12-05T16:37:42.094Z</time>
      </trkpt>
      <trkpt lat="48.79848" lon="2.21892">
        <ele>159</ele>
        <time>2020-12-05T16:37:43.095Z</time>
      </trkpt>
      <trkpt lat="48.79848" lon="2.21892">
        <ele>159</ele>
        <time>2020-12-05T16:37:44.095Z</time>
      </trkpt>
      <trkpt lat="48.79848" lon="2.21892">
        <ele>159</ele>
        <time>2020-12-05T16:37:45.095Z</time>
      </trkpt>
      <trkpt lat="48.79848" lon="2.21892">
        <ele>159</ele>
        <time>2020-12-05T16:37:46.095Z</time>
      </trkpt>
      <trkpt lat="48.79848" lon="2.21892">
        <ele>159</ele>
        <time>2020-12-05T16:37:47.095Z</time>
      </trkpt>
      <trkpt lat="48.79848" lon="2.21892">
        <ele>159</ele>
        <time>2020-12-05T16:37:48.095Z</time>
      </trkpt>
      <trkpt lat="48.79848" lon="2.21892">
        <ele>159</ele>
        <time>2020-12-05T16:37:49.095Z</time>
      </trkpt>
      <trkpt lat="48.79848" lon="2.21892">
        <ele>159</ele>
        <time>2020-12-05T16:37:50.095Z</time>
      </trkpt>
      <trkpt lat="48.79848" lon="2.21892">
        <ele>159</ele>
        <time>2020-12-05T16:37:51.095Z</time>
      </trkpt>
      <trkpt lat="48.79848" lon="2.21892">
        <ele>159</ele>
        <time>2020-12-05T16:37:52.095Z</time>
      </trkpt>
      <trkpt lat="48.79848" lon="2.21892">
        <ele>159</ele>
        <time>2020-12-05T16:37:53.095Z</time>
      </trkpt>
      <trkpt lat="48.79848" lon="2.21892">
        <ele>159</ele>
        <time>2020-12-05T16:37:54.095Z</time>
      </trkpt>
      <trkpt lat="48.79848" lon="2.21892">
        <ele>159</ele>
        <time>2020-12-05T16:37:55.095Z</time>
      </trkpt>
      <trkpt lat="48.79848" lon="2.21892">
        <ele>159</ele>
        <time>2020-12-05T16:37:56.094Z</time>
      </trkpt>
      <trkpt lat="48.79848" lon="2.21892">
        <ele>159</ele>
        <time>2020-12-05T16:37:57.095Z</time>
      </trkpt>
      <trkpt lat="48.79848" lon="2.21892">
        <ele>159</ele>
        <time>2020-12-05T16:37:58.094Z</time>
      </trkpt>
      <trkpt lat="48.79848" lon="2.21892">
        <ele>159</ele>
        <time>2020-12-05T16:37:59.095Z</time>
      </trkpt>
      <trkpt lat="48.79848" lon="2.21892">
        <ele>159</ele>
        <time>2020-12-05T16:38:00.094Z</time>
      </trkpt>
      <trkpt lat="48.79848" lon="2.21892">
        <ele>159</ele>
        <time>2020-12-05T16:38:01.095Z</time>
      </trkpt>
      <trkpt lat="48.79848" lon="2.21892">
        <ele>159</ele>
        <time>2020-12-05T16:38:02.095Z</time>
      </trkpt>
      <trkpt lat="48.79848" lon="2.21892">
        <ele>159</ele>
        <time>2020-12-05T16:38:03.095Z</time>
      </trkpt>
      <trkpt lat="48.79848" lon="2.21892">
        <ele>159</ele>
        <time>2020-12-05T16:38:04.095Z</time>
      </trkpt>
      <trkpt lat="48.79848" lon="2.21892">
        <ele>159</ele>
        <time>2020-12-05T16:38:05.095Z</time>
      </trkpt>
      <trkpt lat="48.79848" lon="2.21892">
        <ele>159</ele>
        <time>2020-12-05T16:38:06.095Z</time>
      </trkpt>
      <trkpt lat="48.79848" lon="2.21892">
        <ele>159</ele>
        <time>2020-12-05T16:38:07.094Z</time>
      </trkpt>
      <trkpt lat="48.79848" lon="2.21892">
        <ele>159</ele>
        <time>2020-12-05T16:38:08.095Z</time>
      </trkpt>
      <trkpt lat="48.79848" lon="2.21892">
        <ele>159</ele>
        <time>2020-12-05T16:38:09.095Z</time>
      </trkpt>
      <trkpt lat="48.79848" lon="2.21892">
        <ele>159</ele>
        <time>2020-12-05T16:38:10.094Z</time>
      </trkpt>
      <trkpt lat="48.79847" lon="2.21892">
        <ele>159</ele>
        <time>2020-12-05T16:38:11.095Z</time>
      </trkpt>
      <trkpt lat="48.79847" lon="2.21892">
        <ele>159</ele>
        <time>2020-12-05T16:38:12.094Z</time>
      </trkpt>
      <trkpt lat="48.79846" lon="2.21892">
        <ele>159</ele>
        <time>2020-12-05T16:38:13.094Z</time>
      </trkpt>
      <trkpt lat="48.79846" lon="2.21892">
        <ele>159</ele>
        <time>2020-12-05T16:38:14.095Z</time>
      </trkpt>
      <trkpt lat="48.79845" lon="2.21892">
        <ele>159</ele>
        <time>2020-12-05T16:38:15.095Z</time>
      </trkpt>
      <trkpt lat="48.79844" lon="2.21892">
        <ele>159</ele>
        <time>2020-12-05T16:38:16.095Z</time>
      </trkpt>
      <trkpt lat="48.79843" lon="2.21892">
        <ele>159</ele>
        <time>2020-12-05T16:38:17.095Z</time>
      </trkpt>
      <trkpt lat="48.79843" lon="2.21892">
        <ele>159</ele>
        <time>2020-12-05T16:38:18.095Z</time>
      </trkpt>
      <trkpt lat="48.79843" lon="2.21892">
        <ele>159</ele>
        <time>2020-12-05T16:38:19.094Z</time>
      </trkpt>
      <trkpt lat="48.79843" lon="2.21892">
        <ele>160</ele>
        <time>2020-12-05T16:38:20.095Z</time>
      </trkpt>
      <trkpt lat="48.79843" lon="2.21892">
        <ele>160</ele>
        <time>2020-12-05T16:38:21.094Z</time>
      </trkpt>
      <trkpt lat="48.79843" lon="2.21891">
        <ele>160</ele>
        <time>2020-12-05T16:38:22.094Z</time>
      </trkpt>
      <trkpt lat="48.79845" lon="2.2189">
        <ele>160</ele>
        <time>2020-12-05T16:38:23.095Z</time>
      </trkpt>
      <trkpt lat="48.79845" lon="2.2189">
        <ele>160</ele>
        <time>2020-12-05T16:38:24.094Z</time>
      </trkpt>
      <trkpt lat="48.79845" lon="2.2189">
        <ele>160</ele>
        <time>2020-12-05T16:38:25.094Z</time>
      </trkpt>
      <trkpt lat="48.79844" lon="2.21889">
        <ele>161</ele>
        <time>2020-12-05T16:38:26.094Z</time>
      </trkpt>
      <trkpt lat="48.79844" lon="2.21889">
        <ele>161</ele>
        <time>2020-12-05T16:38:27.095Z</time>
      </trkpt>
      <trkpt lat="48.79844" lon="2.21889">
        <ele>160</ele>
        <time>2020-12-05T16:38:28.095Z</time>
      </trkpt>
      <trkpt lat="48.79843" lon="2.21889">
        <ele>160</ele>
        <time>2020-12-05T16:38:29.095Z</time>
      </trkpt>
      <trkpt lat="48.79842" lon="2.21888">
        <ele>160</ele>
        <time>2020-12-05T16:38:30.094Z</time>
      </trkpt>
      <trkpt lat="48.79842" lon="2.21889">
        <ele>159</ele>
        <time>2020-12-05T16:38:31.094Z</time>
      </trkpt>
      <trkpt lat="48.79841" lon="2.21891">
        <ele>159</ele>
        <time>2020-12-05T16:38:32.095Z</time>
      </trkpt>
      <trkpt lat="48.79841" lon="2.21891">
        <ele>159</ele>
        <time>2020-12-05T16:38:33.095Z</time>
      </trkpt>
      <trkpt lat="48.7984" lon="2.21892">
        <ele>159</ele>
        <time>2020-12-05T16:38:34.095Z</time>
      </trkpt>
      <trkpt lat="48.7984" lon="2.21891">
        <ele>158</ele>
        <time>2020-12-05T16:38:35.095Z</time>
      </trkpt>
      <trkpt lat="48.7984" lon="2.21891">
        <ele>158</ele>
        <time>2020-12-05T16:38:36.095Z</time>
      </trkpt>
      <trkpt lat="48.7984" lon="2.21891">
        <ele>158</ele>
        <time>2020-12-05T16:38:37.094Z</time>
      </trkpt>
      <trkpt lat="48.7984" lon="2.21891">
        <ele>158</ele>
        <time>2020-12-05T16:38:38.095Z</time>
      </trkpt>
      <trkpt lat="48.7984" lon="2.21891">
        <ele>157</ele>
        <time>2020-12-05T16:38:39.094Z</time>
      </trkpt>
      <trkpt lat="48.7984" lon="2.21891">
        <ele>157</ele>
        <time>2020-12-05T16:38:40.094Z</time>
      </trkpt>
      <trkpt lat="48.7984" lon="2.21891">
        <ele>157</ele>
        <time>2020-12-05T16:38:41.094Z</time>
      </trkpt>
      <trkpt lat="48.7984" lon="2.21891">
        <ele>157</ele>
        <time>2020-12-05T16:38:42.094Z</time>
      </trkpt>
      <trkpt lat="48.7984" lon="2.2189">
        <ele>156</ele>
        <time>2020-12-05T16:38:43.094Z</time>
      </trkpt>
      <trkpt lat="48.79841" lon="2.21889">
        <ele>156</ele>
        <time>2020-12-05T16:38:44.095Z</time>
      </trkpt>
      <trkpt lat="48.79842" lon="2.21889">
        <ele>155</ele>
        <time>2020-12-05T16:38:45.094Z</time>
      </trkpt>
      <trkpt lat="48.79843" lon="2.21888">
        <ele>155</ele>
        <time>2020-12-05T16:38:46.095Z</time>
      </trkpt>
      <trkpt lat="48.79844" lon="2.21888">
        <ele>154</ele>
        <time>2020-12-05T16:38:47.095Z</time>
      </trkpt>
      <trkpt lat="48.79846" lon="2.21888">
        <ele>154</ele>
        <time>2020-12-05T16:38:48.095Z</time>
      </trkpt>
      <trkpt lat="48.79847" lon="2.21888">
        <ele>153</ele>
        <time>2020-12-05T16:38:49.095Z</time>
      </trkpt>
      <trkpt lat="48.79848" lon="2.21889">
        <ele>153</ele>
        <time>2020-12-05T16:38:50.095Z</time>
      </trkpt>
      <trkpt lat="48.79849" lon="2.2189">
        <ele>152</ele>
        <time>2020-12-05T16:38:51.095Z</time>
      </trkpt>
      <trkpt lat="48.79849" lon="2.2189">
        <ele>152</ele>
        <time>2020-12-05T16:38:52.095Z</time>
      </trkpt>
      <trkpt lat="48.79848" lon="2.21889">
        <ele>152</ele>
        <time>2020-12-05T16:38:53.094Z</time>
      </trkpt>
      <trkpt lat="48.79849" lon="2.21889">
        <ele>152</ele>
        <time>2020-12-05T16:38:54.095Z</time>
      </trkpt>
      <trkpt lat="48.79849" lon="2.21889">
        <ele>151</ele>
        <time>2020-12-05T16:38:55.094Z</time>
      </trkpt>
      <trkpt lat="48.7985" lon="2.21889">
        <ele>151</ele>
        <time>2020-12-05T16:38:56.095Z</time>
      </trkpt>
      <trkpt lat="48.7985" lon="2.21888">
        <ele>151</ele>
        <time>2020-12-05T16:38:57.095Z</time>
      </trkpt>
      <trkpt lat="48.79849" lon="2.21888">
        <ele>151</ele>
        <time>2020-12-05T16:38:58.095Z</time>
      </trkpt>
      <trkpt lat="48.79849" lon="2.21888">
        <ele>151</ele>
        <time>2020-12-05T16:38:59.095Z</time>
      </trkpt>
      <trkpt lat="48.79848" lon="2.21888">
        <ele>151</ele>
        <time>2020-12-05T16:39:00.094Z</time>
      </trkpt>
      <trkpt lat="48.79848" lon="2.21888">
        <ele>151</ele>
        <time>2020-12-05T16:39:01.095Z</time>
      </trkpt>
      <trkpt lat="48.79847" lon="2.21888">
        <ele>151</ele>
        <time>2020-12-05T16:39:02.094Z</time>
      </trkpt>
      <trkpt lat="48.79847" lon="2.21888">
        <ele>151</ele>
        <time>2020-12-05T16:39:03.095Z</time>
      </trkpt>
      <trkpt lat="48.79847" lon="2.21889">
        <ele>151</ele>
        <time>2020-12-05T16:39:04.095Z</time>
      </trkpt>
      <trkpt lat="48.79847" lon="2.21889">
        <ele>151</ele>
        <time>2020-12-05T16:39:05.095Z</time>
      </trkpt>
      <trkpt lat="48.79848" lon="2.21889">
        <ele>151</ele>
        <time>2020-12-05T16:39:06.094Z</time>
      </trkpt>
      <trkpt lat="48.79848" lon="2.2189">
        <ele>151</ele>
        <time>2020-12-05T16:39:07.094Z</time>
      </trkpt>
      <trkpt lat="48.79848" lon="2.2189">
        <ele>151</ele>
        <time>2020-12-05T16:39:08.094Z</time>
      </trkpt>
      <trkpt lat="48.79849" lon="2.2189">
        <ele>151</ele>
        <time>2020-12-05T16:39:09.095Z</time>
      </trkpt>
      <trkpt lat="48.7985" lon="2.21891">
        <ele>151</ele>
        <time>2020-12-05T16:39:10.095Z</time>
      </trkpt>
      <trkpt lat="48.7985" lon="2.21891">
        <ele>151</ele>
        <time>2020-12-05T16:39:11.095Z</time>
      </trkpt>
      <trkpt lat="48.7985" lon="2.21892">
        <ele>151</ele>
        <time>2020-12-05T16:39:12.095Z</time>
      </trkpt>
      <trkpt lat="48.7985" lon="2.21892">
        <ele>151</ele>
        <time>2020-12-05T16:39:13.095Z</time>
      </trkpt>
      <trkpt lat="48.7985" lon="2.21892">
        <ele>151</ele>
        <time>2020-12-05T16:39:14.095Z</time>
      </trkpt>
      <trkpt lat="48.79851" lon="2.21892">
        <ele>151</ele>
        <time>2020-12-05T16:39:15.094Z</time>
      </trkpt>
      <trkpt lat="48.79851" lon="2.21892">
        <ele>152</ele>
        <time>2020-12-05T16:39:16.094Z</time>
      </trkpt>
      <trkpt lat="48.7985" lon="2.21893">
        <ele>152</ele>
        <time>2020-12-05T16:39:17.095Z</time>
      </trkpt>
      <trkpt lat="48.7985" lon="2.21894">
        <ele>152</ele>
        <time>2020-12-05T16:39:18.095Z</time>
      </trkpt>
      <trkpt lat="48.7985" lon="2.21895">
        <ele>152</ele>
        <time>2020-12-05T16:39:19.095Z</time>
      </trkpt>
      <trkpt lat="48.7985" lon="2.21895">
        <ele>152</ele>
        <time>2020-12-05T16:39:20.094Z</time>
      </trkpt>
      <trkpt lat="48.7985" lon="2.21896">
        <ele>153</ele>
        <time>2020-12-05T16:39:21.094Z</time>
      </trkpt>
      <trkpt lat="48.7985" lon="2.21896">
        <ele>153</ele>
        <time>2020-12-05T16:39:22.095Z</time>
      </trkpt>
      <trkpt lat="48.79851" lon="2.21897">
        <ele>154</ele>
        <time>2020-12-05T16:39:23.094Z</time>
      </trkpt>
      <trkpt lat="48.79851" lon="2.21898">
        <ele>154</ele>
        <time>2020-12-05T16:39:24.094Z</time>
      </trkpt>
      <trkpt lat="48.79851" lon="2.21897">
        <ele>154</ele>
        <time>2020-12-05T16:39:25.095Z</time>
      </trkpt>
      <trkpt lat="48.79851" lon="2.21896">
        <ele>155</ele>
        <time>2020-12-05T16:39:26.095Z</time>
      </trkpt>
      <trkpt lat="48.79851" lon="2.21896">
        <ele>155</ele>
        <time>2020-12-05T16:39:27.095Z</time>
      </trkpt>
      <trkpt lat="48.79849" lon="2.21895">
        <ele>155</ele>
        <time>2020-12-05T16:39:28.095Z</time>
      </trkpt>
      <trkpt lat="48.79849" lon="2.21895">
        <ele>154</ele>
        <time>2020-12-05T16:39:29.095Z</time>
      </trkpt>
      <trkpt lat="48.79849" lon="2.21895">
        <ele>154</ele>
        <time>2020-12-05T16:39:30.094Z</time>
      </trkpt>
      <trkpt lat="48.79849" lon="2.21895">
        <ele>154</ele>
        <time>2020-12-05T16:39:31.094Z</time>
      </trkpt>
      <trkpt lat="48.79849" lon="2.21895">
        <ele>153</ele>
        <time>2020-12-05T16:39:32.094Z</time>
      </trkpt>
      <trkpt lat="48.79849" lon="2.21896">
        <ele>153</ele>
        <time>2020-12-05T16:39:33.094Z</time>
      </trkpt>
      <trkpt lat="48.79849" lon="2.21896">
        <ele>153</ele>
        <time>2020-12-05T16:39:34.095Z</time>
      </trkpt>
      <trkpt lat="48.79849" lon="2.21896">
        <ele>153</ele>
        <time>2020-12-05T16:39:35.095Z</time>
      </trkpt>
      <trkpt lat="48.79849" lon="2.21896">
        <ele>153</ele>
        <time>2020-12-05T16:39:36.095Z</time>
      </trkpt>
      <trkpt lat="48.79849" lon="2.21896">
        <ele>153</ele>
        <time>2020-12-05T16:39:37.095Z</time>
      </trkpt>
      <trkpt lat="48.79849" lon="2.21896">
        <ele>154</ele>
        <time>2020-12-05T16:39:38.095Z</time>
      </trkpt>
      <trkpt lat="48.79849" lon="2.21896">
        <ele>154</ele>
        <time>2020-12-05T16:39:39.094Z</time>
      </trkpt>
      <trkpt lat="48.79849" lon="2.21896">
        <ele>154</ele>
        <time>2020-12-05T16:39:40.094Z</time>
      </trkpt>
      <trkpt lat="48.79849" lon="2.21896">
        <ele>154</ele>
        <time>2020-12-05T16:39:41.095Z</time>
      </trkpt>
      <trkpt lat="48.79849" lon="2.21896">
        <ele>154</ele>
        <time>2020-12-05T16:39:42.095Z</time>
      </trkpt>
      <trkpt lat="48.79849" lon="2.21896">
        <ele>154</ele>
        <time>2020-12-05T16:39:43.095Z</time>
      </trkpt>
      <trkpt lat="48.79849" lon="2.21895">
        <ele>154</ele>
        <time>2020-12-05T16:39:44.095Z</time>
      </trkpt>
      <trkpt lat="48.79849" lon="2.21895">
        <ele>154</ele>
        <time>2020-12-05T16:39:45.094Z</time>
      </trkpt>
      <trkpt lat="48.79849" lon="2.21895">
        <ele>154</ele>
        <time>2020-12-05T16:39:46.095Z</time>
      </trkpt>
      <trkpt lat="48.79849" lon="2.21895">
        <ele>154</ele>
        <time>2020-12-05T16:39:47.095Z</time>
      </trkpt>
      <trkpt lat="48.79849" lon="2.21895">
        <ele>154</ele>
        <time>2020-12-05T16:39:48.095Z</time>
      </trkpt>
      <trkpt lat="48.79849" lon="2.21895">
        <ele>154</ele>
        <time>2020-12-05T16:39:49.095Z</time>
      </trkpt>
      <trkpt lat="48.79849" lon="2.21895">
        <ele>154</ele>
        <time>2020-12-05T16:39:50.095Z</time>
      </trkpt>
      <trkpt lat="48.79849" lon="2.21894">
        <ele>154</ele>
        <time>2020-12-05T16:39:51.094Z</time>
      </trkpt>
      <trkpt lat="48.79849" lon="2.21894">
        <ele>154</ele>
        <time>2020-12-05T16:39:52.095Z</time>
      </trkpt>
      <trkpt lat="48.79849" lon="2.21893">
        <ele>154</ele>
        <time>2020-12-05T16:39:53.094Z</time>
      </trkpt>
      <trkpt lat="48.79849" lon="2.21893">
        <ele>154</ele>
        <time>2020-12-05T16:39:54.095Z</time>
      </trkpt>
      <trkpt lat="48.79849" lon="2.21892">
        <ele>154</ele>
        <time>2020-12-05T16:39:55.095Z</time>
      </trkpt>
      <trkpt lat="48.79849" lon="2.21892">
        <ele>154</ele>
        <time>2020-12-05T16:39:56.095Z</time>
      </trkpt>
      <trkpt lat="48.79849" lon="2.21892">
        <ele>154</ele>
        <time>2020-12-05T16:39:57.094Z</time>
      </trkpt>
      <trkpt lat="48.79849" lon="2.21892">
        <ele>154</ele>
        <time>2020-12-05T16:39:58.095Z</time>
      </trkpt>
      <trkpt lat="48.79849" lon="2.21892">
        <ele>154</ele>
        <time>2020-12-05T16:39:59.095Z</time>
      </trkpt>
      <trkpt lat="48.79849" lon="2.21892">
        <ele>155</ele>
        <time>2020-12-05T16:40:00.095Z</time>
      </trkpt>
      <trkpt lat="48.79849" lon="2.21892">
        <ele>155</ele>
        <time>2020-12-05T16:40:01.094Z</time>
      </trkpt>
      <trkpt lat="48.79848" lon="2.21892">
        <ele>155</ele>
        <time>2020-12-05T16:40:02.095Z</time>
      </trkpt>
      <trkpt lat="48.79848" lon="2.21891">
        <ele>155</ele>
        <time>2020-12-05T16:40:03.094Z</time>
      </trkpt>
      <trkpt lat="48.79848" lon="2.21891">
        <ele>155</ele>
        <time>2020-12-05T16:40:04.095Z</time>
      </trkpt>
      <trkpt lat="48.79848" lon="2.21891">
        <ele>155</ele>
        <time>2020-12-05T16:40:05.095Z</time>
      </trkpt>
      <trkpt lat="48.79847" lon="2.21891">
        <ele>155</ele>
        <time>2020-12-05T16:40:06.095Z</time>
      </trkpt>
      <trkpt lat="48.79847" lon="2.21891">
        <ele>155</ele>
        <time>2020-12-05T16:40:07.095Z</time>
      </trkpt>
      <trkpt lat="48.79846" lon="2.21891">
        <ele>155</ele>
        <time>2020-12-05T16:40:08.095Z</time>
      </trkpt>
      <trkpt lat="48.79846" lon="2.21892">
        <ele>155</ele>
        <time>2020-12-05T16:40:09.095Z</time>
      </trkpt>
      <trkpt lat="48.79846" lon="2.21892">
        <ele>155</ele>
        <time>2020-12-05T16:40:10.095Z</time>
      </trkpt>
      <trkpt lat="48.79846" lon="2.21894">
        <ele>155</ele>
        <time>2020-12-05T16:40:11.095Z</time>
      </trkpt>
      <trkpt lat="48.79846" lon="2.21894">
        <ele>155</ele>
        <time>2020-12-05T16:40:12.095Z</time>
      </trkpt>
      <trkpt lat="48.79845" lon="2.21894">
        <ele>155</ele>
        <time>2020-12-05T16:40:13.095Z</time>
      </trkpt>
      <trkpt lat="48.79845" lon="2.21894">
        <ele>156</ele>
        <time>2020-12-05T16:40:14.095Z</time>
      </trkpt>
      <trkpt lat="48.79845" lon="2.21894">
        <ele>156</ele>
        <time>2020-12-05T16:40:15.095Z</time>
      </trkpt>
      <trkpt lat="48.79844" lon="2.21893">
        <ele>156</ele>
        <time>2020-12-05T16:40:16.095Z</time>
      </trkpt>
      <trkpt lat="48.79843" lon="2.21892">
        <ele>157</ele>
        <time>2020-12-05T16:40:17.095Z</time>
      </trkpt>
      <trkpt lat="48.79843" lon="2.21891">
        <ele>157</ele>
        <time>2020-12-05T16:40:18.095Z</time>
      </trkpt>
      <trkpt lat="48.79843" lon="2.21891">
        <ele>158</ele>
        <time>2020-12-05T16:40:19.095Z</time>
      </trkpt>
      <trkpt lat="48.79844" lon="2.21891">
        <ele>158</ele>
        <time>2020-12-05T16:40:20.095Z</time>
      </trkpt>
      <trkpt lat="48.79844" lon="2.2189">
        <ele>158</ele>
        <time>2020-12-05T16:40:21.095Z</time>
      </trkpt>
      <trkpt lat="48.79844" lon="2.21889">
        <ele>159</ele>
        <time>2020-12-05T16:40:22.095Z</time>
      </trkpt>
      <trkpt lat="48.79843" lon="2.21888">
        <ele>159</ele>
        <time>2020-12-05T16:40:23.095Z</time>
      </trkpt>
      <trkpt lat="48.79842" lon="2.21888">
        <ele>159</ele>
        <time>2020-12-05T16:40:24.094Z</time>
      </trkpt>
      <trkpt lat="48.79841" lon="2.21887">
        <ele>160</ele>
        <time>2020-12-05T16:40:25.094Z</time>
      </trkpt>
      <trkpt lat="48.79841" lon="2.21887">
        <ele>160</ele>
        <time>2020-12-05T16:40:26.095Z</time>
      </trkpt>
      <trkpt lat="48.79841" lon="2.21887">
        <ele>160</ele>
        <time>2020-12-05T16:40:27.095Z</time>
      </trkpt>
      <trkpt lat="48.79841" lon="2.21887">
        <ele>160</ele>
        <time>2020-12-05T16:40:28.095Z</time>
      </trkpt>
      <trkpt lat="48.79841" lon="2.21887">
        <ele>160</ele>
        <time>2020-12-05T16:40:29.094Z</time>
      </trkpt>
      <trkpt lat="48.79841" lon="2.21887">
        <ele>160</ele>
        <time>2020-12-05T16:40:30.095Z</time>
      </trkpt>
      <trkpt lat="48.79842" lon="2.21886">
        <ele>160</ele>
        <time>2020-12-05T16:40:31.095Z</time>
      </trkpt>
      <trkpt lat="48.79843" lon="2.21885">
        <ele>160</ele>
        <time>2020-12-05T16:40:32.095Z</time>
      </trkpt>
      <trkpt lat="48.79843" lon="2.21883">
        <ele>161</ele>
        <time>2020-12-05T16:40:33.094Z</time>
      </trkpt>
      <trkpt lat="48.79843" lon="2.21881">
        <ele>161</ele>
        <time>2020-12-05T16:40:34.095Z</time>
      </trkpt>
      <trkpt lat="48.79843" lon="2.2188">
        <ele>162</ele>
        <time>2020-12-05T16:40:35.094Z</time>
      </trkpt>
      <trkpt lat="48.79842" lon="2.21879">
        <ele>162</ele>
        <time>2020-12-05T16:40:36.095Z</time>
      </trkpt>
      <trkpt lat="48.79841" lon="2.21878">
        <ele>163</ele>
        <time>2020-12-05T16:40:37.095Z</time>
      </trkpt>
      <trkpt lat="48.7984" lon="2.21877">
        <ele>163</ele>
        <time>2020-12-05T16:40:38.095Z</time>
      </trkpt>
      <trkpt lat="48.79838" lon="2.21878">
        <ele>163</ele>
        <time>2020-12-05T16:40:39.094Z</time>
      </trkpt>
      <trkpt lat="48.79836" lon="2.21878">
        <ele>163</ele>
        <time>2020-12-05T16:40:40.095Z</time>
      </trkpt>
      <trkpt lat="48.79834" lon="2.21878">
        <ele>163</ele>
        <time>2020-12-05T16:40:41.094Z</time>
      </trkpt>
      <trkpt lat="48.79833" lon="2.21879">
        <ele>164</ele>
        <time>2020-12-05T16:40:42.095Z</time>
      </trkpt>
      <trkpt lat="48.79831" lon="2.21878">
        <ele>164</ele>
        <time>2020-12-05T16:40:43.095Z</time>
      </trkpt>
      <trkpt lat="48.79829" lon="2.21879">
        <ele>164</ele>
        <time>2020-12-05T16:40:44.095Z</time>
      </trkpt>
      <trkpt lat="48.79826" lon="2.21879">
        <ele>164</ele>
        <time>2020-12-05T16:40:45.095Z</time>
      </trkpt>
      <trkpt lat="48.79824" lon="2.21879">
        <ele>163</ele>
        <time>2020-12-05T16:40:46.094Z</time>
      </trkpt>
      <trkpt lat="48.79822" lon="2.21878">
        <ele>163</ele>
        <time>2020-12-05T16:40:47.094Z</time>
      </trkpt>
      <trkpt lat="48.7982" lon="2.21877">
        <ele>163</ele>
        <time>2020-12-05T16:40:48.095Z</time>
      </trkpt>
      <trkpt lat="48.79819" lon="2.21875">
        <ele>162</ele>
        <time>2020-12-05T16:40:49.095Z</time>
      </trkpt>
      <trkpt lat="48.79818" lon="2.21873">
        <ele>162</ele>
        <time>2020-12-05T16:40:50.095Z</time>
      </trkpt>
      <trkpt lat="48.79817" lon="2.21871">
        <ele>161</ele>
        <time>2020-12-05T16:40:51.095Z</time>
      </trkpt>
      <trkpt lat="48.79816" lon="2.21869">
        <ele>161</ele>
        <time>2020-12-05T16:40:52.094Z</time>
      </trkpt>
      <trkpt lat="48.79815" lon="2.21868">
        <ele>160</ele>
        <time>2020-12-05T16:40:53.094Z</time>
      </trkpt>
      <trkpt lat="48.79814" lon="2.21868">
        <ele>160</ele>
        <time>2020-12-05T16:40:54.095Z</time>
      </trkpt>
      <trkpt lat="48.79814" lon="2.21867">
        <ele>159</ele>
        <time>2020-12-05T16:40:55.094Z</time>
      </trkpt>
      <trkpt lat="48.79814" lon="2.21867">
        <ele>158</ele>
        <time>2020-12-05T16:40:56.095Z</time>
      </trkpt>
      <trkpt lat="48.79814" lon="2.21867">
        <ele>157</ele>
        <time>2020-12-05T16:40:57.095Z</time>
      </trkpt>
      <trkpt lat="48.79814" lon="2.21868">
        <ele>157</ele>
        <time>2020-12-05T16:40:58.095Z</time>
      </trkpt>
      <trkpt lat="48.79815" lon="2.21868">
        <ele>156</ele>
        <time>2020-12-05T16:40:59.095Z</time>
      </trkpt>
      <trkpt lat="48.79815" lon="2.21868">
        <ele>156</ele>
        <time>2020-12-05T16:41:00.095Z</time>
      </trkpt>
      <trkpt lat="48.79815" lon="2.21868">
        <ele>156</ele>
        <time>2020-12-05T16:41:01.094Z</time>
      </trkpt>
      <trkpt lat="48.79815" lon="2.21867">
        <ele>156</ele>
        <time>2020-12-05T16:41:02.095Z</time>
      </trkpt>
      <trkpt lat="48.79814" lon="2.21867">
        <ele>156</ele>
        <time>2020-12-05T16:41:03.094Z</time>
      </trkpt>
      <trkpt lat="48.79813" lon="2.21866">
        <ele>156</ele>
        <time>2020-12-05T16:41:04.095Z</time>
      </trkpt>
      <trkpt lat="48.79814" lon="2.21865">
        <ele>156</ele>
        <time>2020-12-05T16:41:05.095Z</time>
      </trkpt>
      <trkpt lat="48.79813" lon="2.21865">
        <ele>157</ele>
        <time>2020-12-05T16:41:06.095Z</time>
      </trkpt>
      <trkpt lat="48.79813" lon="2.21865">
        <ele>157</ele>
        <time>2020-12-05T16:41:07.095Z</time>
      </trkpt>
      <trkpt lat="48.79812" lon="2.21864">
        <ele>157</ele>
        <time>2020-12-05T16:41:08.094Z</time>
      </trkpt>
      <trkpt lat="48.79811" lon="2.21862">
        <ele>157</ele>
        <time>2020-12-05T16:41:09.094Z</time>
      </trkpt>
      <trkpt lat="48.7981" lon="2.2186">
        <ele>158</ele>
        <time>2020-12-05T16:41:10.095Z</time>
      </trkpt>
      <trkpt lat="48.79809" lon="2.21859">
        <ele>158</ele>
        <time>2020-12-05T16:41:11.095Z</time>
      </trkpt>
      <trkpt lat="48.79808" lon="2.21858">
        <ele>158</ele>
        <time>2020-12-05T16:41:12.094Z</time>
      </trkpt>
      <trkpt lat="48.79808" lon="2.21857">
        <ele>158</ele>
        <time>2020-12-05T16:41:13.094Z</time>
      </trkpt>
      <trkpt lat="48.79808" lon="2.21856">
        <ele>158</ele>
        <time>2020-12-05T16:41:14.095Z</time>
      </trkpt>
      <trkpt lat="48.79807" lon="2.21854">
        <ele>158</ele>
        <time>2020-12-05T16:41:15.094Z</time>
      </trkpt>
      <trkpt lat="48.79807" lon="2.21853">
        <ele>158</ele>
        <time>2020-12-05T16:41:16.095Z</time>
      </trkpt>
      <trkpt lat="48.79807" lon="2.21852">
        <ele>157</ele>
        <time>2020-12-05T16:41:17.094Z</time>
      </trkpt>
      <trkpt lat="48.79806" lon="2.21851">
        <ele>157</ele>
        <time>2020-12-05T16:41:18.095Z</time>
      </trkpt>
      <trkpt lat="48.79806" lon="2.21849">
        <ele>157</ele>
        <time>2020-12-05T16:41:19.095Z</time>
      </trkpt>
      <trkpt lat="48.79806" lon="2.21848">
        <ele>157</ele>
        <time>2020-12-05T16:41:20.095Z</time>
      </trkpt>
      <trkpt lat="48.79806" lon="2.21846">
        <ele>157</ele>
        <time>2020-12-05T16:41:21.095Z</time>
      </trkpt>
      <trkpt lat="48.79806" lon="2.21844">
        <ele>156</ele>
        <time>2020-12-05T16:41:22.095Z</time>
      </trkpt>
      <trkpt lat="48.79807" lon="2.21842">
        <ele>156</ele>
        <time>2020-12-05T16:41:23.095Z</time>
      </trkpt>
      <trkpt lat="48.79809" lon="2.2184">
        <ele>156</ele>
        <time>2020-12-05T16:41:24.094Z</time>
      </trkpt>
      <trkpt lat="48.79811" lon="2.21838">
        <ele>155</ele>
        <time>2020-12-05T16:41:25.095Z</time>
      </trkpt>
      <trkpt lat="48.79814" lon="2.21836">
        <ele>155</ele>
        <time>2020-12-05T16:41:26.095Z</time>
      </trkpt>
      <trkpt lat="48.79817" lon="2.21834">
        <ele>154</ele>
        <time>2020-12-05T16:41:27.095Z</time>
      </trkpt>
      <trkpt lat="48.7982" lon="2.21833">
        <ele>154</ele>
        <time>2020-12-05T16:41:28.094Z</time>
      </trkpt>
      <trkpt lat="48.79822" lon="2.21832">
        <ele>154</ele>
        <time>2020-12-05T16:41:29.095Z</time>
      </trkpt>
      <trkpt lat="48.79823" lon="2.21831">
        <ele>154</ele>
        <time>2020-12-05T16:41:30.095Z</time>
      </trkpt>
      <trkpt lat="48.79825" lon="2.2183">
        <ele>154</ele>
        <time>2020-12-05T16:41:31.094Z</time>
      </trkpt>
      <trkpt lat="48.79827" lon="2.21828">
        <ele>154</ele>
        <time>2020-12-05T16:41:32.095Z</time>
      </trkpt>
      <trkpt lat="48.7983" lon="2.21824">
        <ele>154</ele>
        <time>2020-12-05T16:41:33.095Z</time>
      </trkpt>
      <trkpt lat="48.79833" lon="2.21821">
        <ele>154</ele>
        <time>2020-12-05T16:41:34.094Z</time>
      </trkpt>
      <trkpt lat="48.79836" lon="2.21817">
        <ele>154</ele>
        <time>2020-12-05T16:41:35.095Z</time>
      </trkpt>
      <trkpt lat="48.79838" lon="2.21813">
        <ele>154</ele>
        <time>2020-12-05T16:41:36.094Z</time>
      </trkpt>
      <trkpt lat="48.79841" lon="2.21809">
        <ele>154</ele>
        <time>2020-12-05T16:41:37.094Z</time>
      </trkpt>
      <trkpt lat="48.79844" lon="2.21805">
        <ele>155</ele>
        <time>2020-12-05T16:41:38.095Z</time>
      </trkpt>
      <trkpt lat="48.79847" lon="2.21801">
        <ele>155</ele>
        <time>2020-12-05T16:41:39.094Z</time>
      </trkpt>
      <trkpt lat="48.79851" lon="2.21796">
        <ele>155</ele>
        <time>2020-12-05T16:41:40.095Z</time>
      </trkpt>
      <trkpt lat="48.79855" lon="2.21791">
        <ele>156</ele>
        <time>2020-12-05T16:41:41.095Z</time>
      </trkpt>
      <trkpt lat="48.79859" lon="2.21786">
        <ele>157</ele>
        <time>2020-12-05T16:41:42.095Z</time>
      </trkpt>
      <trkpt lat="48.79863" lon="2.21781">
        <ele>157</ele>
        <time>2020-12-05T16:41:43.095Z</time>
      </trkpt>
      <trkpt lat="48.79867" lon="2.21775">
        <ele>158</ele>
        <time>2020-12-05T16:41:44.094Z</time>
      </trkpt>
      <trkpt lat="48.79872" lon="2.21768">
        <ele>158</ele>
        <time>2020-12-05T16:41:45.095Z</time>
      </trkpt>
      <trkpt lat="48.79878" lon="2.21761">
        <ele>158</ele>
        <time>2020-12-05T16:41:46.095Z</time>
      </trkpt>
      <trkpt lat="48.79883" lon="2.21753">
        <ele>158</ele>
        <time>2020-12-05T16:41:47.095Z</time>
      </trkpt>
      <trkpt lat="48.79888" lon="2.21745">
        <ele>158</ele>
        <time>2020-12-05T16:41:48.094Z</time>
      </trkpt>
      <trkpt lat="48.79894" lon="2.21738">
        <ele>158</ele>
        <time>2020-12-05T16:41:49.095Z</time>
      </trkpt>
      <trkpt lat="48.79899" lon="2.21731">
        <ele>158</ele>
        <time>2020-12-05T16:41:50.095Z</time>
      </trkpt>
      <trkpt lat="48.79904" lon="2.21724">
        <ele>159</ele>
        <time>2020-12-05T16:41:51.095Z</time>
      </trkpt>
      <trkpt lat="48.79909" lon="2.21717">
        <ele>159</ele>
        <time>2020-12-05T16:41:52.094Z</time>
      </trkpt>
      <trkpt lat="48.79915" lon="2.2171">
        <ele>159</ele>
        <time>2020-12-05T16:41:53.095Z</time>
      </trkpt>
      <trkpt lat="48.79921" lon="2.21703">
        <ele>159</ele>
        <time>2020-12-05T16:41:54.095Z</time>
      </trkpt>
      <trkpt lat="48.79927" lon="2.21696">
        <ele>160</ele>
        <time>2020-12-05T16:41:55.095Z</time>
      </trkpt>
      <trkpt lat="48.79933" lon="2.21688">
        <ele>160</ele>
        <time>2020-12-05T16:41:56.095Z</time>
      </trkpt>
      <trkpt lat="48.79938" lon="2.21682">
        <ele>159</ele>
        <time>2020-12-05T16:41:57.094Z</time>
      </trkpt>
      <trkpt lat="48.79945" lon="2.21673">
        <ele>159</ele>
        <time>2020-12-05T16:41:58.095Z</time>
      </trkpt>
      <trkpt lat="48.79951" lon="2.21666">
        <ele>159</ele>
        <time>2020-12-05T16:41:59.094Z</time>
      </trkpt>
      <trkpt lat="48.79958" lon="2.21659">
        <ele>159</ele>
        <time>2020-12-05T16:42:00.095Z</time>
      </trkpt>
      <trkpt lat="48.79964" lon="2.21651">
        <ele>159</ele>
        <time>2020-12-05T16:42:01.095Z</time>
      </trkpt>
      <trkpt lat="48.79972" lon="2.21644">
        <ele>159</ele>
        <time>2020-12-05T16:42:02.095Z</time>
      </trkpt>
      <trkpt lat="48.7998" lon="2.21638">
        <ele>159</ele>
        <time>2020-12-05T16:42:03.095Z</time>
      </trkpt>
      <trkpt lat="48.79988" lon="2.21634">
        <ele>160</ele>
        <time>2020-12-05T16:42:04.095Z</time>
      </trkpt>
      <trkpt lat="48.79995" lon="2.2163">
        <ele>160</ele>
        <time>2020-12-05T16:42:05.094Z</time>
      </trkpt>
      <trkpt lat="48.80003" lon="2.21627">
        <ele>160</ele>
        <time>2020-12-05T16:42:06.095Z</time>
      </trkpt>
      <trkpt lat="48.80011" lon="2.21625">
        <ele>160</ele>
        <time>2020-12-05T16:42:07.095Z</time>
      </trkpt>
      <trkpt lat="48.80018" lon="2.21622">
        <ele>160</ele>
        <time>2020-12-05T16:42:08.095Z</time>
      </trkpt>
      <trkpt lat="48.80025" lon="2.21622">
        <ele>160</ele>
        <time>2020-12-05T16:42:09.095Z</time>
      </trkpt>
      <trkpt lat="48.80032" lon="2.21623">
        <ele>160</ele>
        <time>2020-12-05T16:42:10.095Z</time>
      </trkpt>
      <trkpt lat="48.8004" lon="2.21626">
        <ele>160</ele>
        <time>2020-12-05T16:42:11.095Z</time>
      </trkpt>
      <trkpt lat="48.80049" lon="2.21631">
        <ele>161</ele>
        <time>2020-12-05T16:42:12.095Z</time>
      </trkpt>
      <trkpt lat="48.80057" lon="2.21638">
        <ele>161</ele>
        <time>2020-12-05T16:42:13.095Z</time>
      </trkpt>
      <trkpt lat="48.80065" lon="2.21645">
        <ele>161</ele>
        <time>2020-12-05T16:42:14.095Z</time>
      </trkpt>
      <trkpt lat="48.80073" lon="2.21653">
        <ele>161</ele>
        <time>2020-12-05T16:42:15.094Z</time>
      </trkpt>
      <trkpt lat="48.80081" lon="2.21662">
        <ele>162</ele>
        <time>2020-12-05T16:42:16.095Z</time>
      </trkpt>
      <trkpt lat="48.8009" lon="2.21672">
        <ele>162</ele>
        <time>2020-12-05T16:42:17.094Z</time>
      </trkpt>
      <trkpt lat="48.801" lon="2.21681">
        <ele>162</ele>
        <time>2020-12-05T16:42:18.095Z</time>
      </trkpt>
      <trkpt lat="48.80108" lon="2.2169">
        <ele>163</ele>
        <time>2020-12-05T16:42:19.094Z</time>
      </trkpt>
      <trkpt lat="48.80117" lon="2.21699">
        <ele>163</ele>
        <time>2020-12-05T16:42:20.095Z</time>
      </trkpt>
      <trkpt lat="48.80125" lon="2.21708">
        <ele>163</ele>
        <time>2020-12-05T16:42:21.095Z</time>
      </trkpt>
      <trkpt lat="48.80134" lon="2.21718">
        <ele>163</ele>
        <time>2020-12-05T16:42:22.094Z</time>
      </trkpt>
      <trkpt lat="48.80143" lon="2.21727">
        <ele>163</ele>
        <time>2020-12-05T16:42:23.095Z</time>
      </trkpt>
      <trkpt lat="48.80152" lon="2.21737">
        <ele>163</ele>
        <time>2020-12-05T16:42:24.095Z</time>
      </trkpt>
      <trkpt lat="48.8016" lon="2.21744">
        <ele>164</ele>
        <time>2020-12-05T16:42:25.094Z</time>
      </trkpt>
      <trkpt lat="48.80169" lon="2.21753">
        <ele>164</ele>
        <time>2020-12-05T16:42:26.094Z</time>
      </trkpt>
    </trkseg>
  </trk>
</gpx>